<?xml version='1.0' encoding='UTF-8'?><gpx version="1.1" creator="JPX - https://github.com/jenetics/jpx" xmlns="http://www.topografix.com/GPX/1/1"><trk><trkseg><trkpt lat="38.09889848830005" lon="13.166084399501566"><ele>459.0</ele><time>2026-03-29T07:42:06.486Z</time></trkpt><trkpt lat="38.09888564008132" lon="13.166179952491932"><ele>459.0</ele><time>2026-03-29T07:42:28.486Z</time></trkpt><trkpt lat="38.0988845667249" lon="13.166293364589514"><ele>459.0</ele><time>2026-03-29T07:42:31.486Z</time></trkpt><trkpt lat="38.098877729544824" lon="13.166378939430771"><ele>459.0</ele><time>2026-03-29T07:42:34.486Z</time></trkpt><trkpt lat="38.09880945619189" lon="13.166370256932048"><ele>459.0</ele><time>2026-03-29T07:42:37.486Z</time></trkpt><trkpt lat="38.09868201835847" lon="13.16620479112255"><ele>459.0</ele><time>2026-03-29T07:42:39.486Z</time></trkpt><trkpt lat="38.098519026242144" lon="13.166158994240389"><ele>459.0</ele><time>2026-03-29T07:42:42.003Z</time></trkpt><trkpt lat="38.09841977626957" lon="13.166115118776213"><ele>459.0</ele><time>2026-03-29T07:42:43.003Z</time></trkpt><trkpt lat="38.098413145982505" lon="13.16597259869563"><ele>459.0</ele><time>2026-03-29T07:42:45.003Z</time></trkpt><trkpt lat="38.09836658193061" lon="13.165850064509906"><ele>459.0</ele><time>2026-03-29T07:42:47.003Z</time></trkpt><trkpt lat="38.09835126353672" lon="13.165769779557818"><ele>459.0</ele><time>2026-03-29T07:42:48.003Z</time></trkpt><trkpt lat="38.09830736481009" lon="13.165637527361854"><ele>459.0</ele><time>2026-03-29T07:42:50.003Z</time></trkpt><trkpt lat="38.098233259668724" lon="13.165522356564775"><ele>459.0</ele><time>2026-03-29T07:42:52.003Z</time></trkpt><trkpt lat="38.09814748611189" lon="13.16549454664046"><ele>459.0</ele><time>2026-03-29T07:42:53.003Z</time></trkpt><trkpt lat="38.098082940451825" lon="13.165463983270337"><ele>455.8333333333333</ele><time>2026-03-29T07:42:54.003Z</time></trkpt><trkpt lat="38.09802340061572" lon="13.165432426971668"><ele>452.66666666666663</ele><time>2026-03-29T07:42:55.003Z</time></trkpt><trkpt lat="38.097955048110386" lon="13.165389510818606"><ele>449.5</ele><time>2026-03-29T07:42:56.003Z</time></trkpt><trkpt lat="38.097893272965415" lon="13.165334123088616"><ele>446.3333333333333</ele><time>2026-03-29T07:42:57.003Z</time></trkpt><trkpt lat="38.09782234980133" lon="13.16526686708465"><ele>443.16666666666663</ele><time>2026-03-29T07:42:58.003Z</time></trkpt><trkpt lat="38.09775047985671" lon="13.165201284635003"><ele>440.0</ele><time>2026-03-29T07:42:59.003Z</time></trkpt><trkpt lat="38.097674570587856" lon="13.16513638584474"><ele>439.99999999999994</ele><time>2026-03-29T07:43:00.003Z</time></trkpt><trkpt lat="38.09759410744984" lon="13.165092244273744"><ele>440.0</ele><time>2026-03-29T07:43:01.003Z</time></trkpt><trkpt lat="38.09751957521338" lon="13.16507279181519"><ele>440.0</ele><time>2026-03-29T07:43:02.003Z</time></trkpt><trkpt lat="38.097454543846574" lon="13.165046492238051"><ele>440.0</ele><time>2026-03-29T07:43:03.003Z</time></trkpt><trkpt lat="38.09733254042969" lon="13.165040272560285"><ele>439.99999999999994</ele><time>2026-03-29T07:43:05.003Z</time></trkpt><trkpt lat="38.09727219814148" lon="13.165068131966391"><ele>440.0</ele><time>2026-03-29T07:43:06.003Z</time></trkpt><trkpt lat="38.097202885968684" lon="13.165096415760324"><ele>437.16666666666663</ele><time>2026-03-29T07:43:07.003Z</time></trkpt><trkpt lat="38.09712655427507" lon="13.165114517582582"><ele>434.3333333333333</ele><time>2026-03-29T07:43:08.003Z</time></trkpt><trkpt lat="38.09703805693151" lon="13.165108316553514"><ele>431.5</ele><time>2026-03-29T07:43:09.003Z</time></trkpt><trkpt lat="38.09694951840093" lon="13.16512132768886"><ele>428.66666666666663</ele><time>2026-03-29T07:43:10.003Z</time></trkpt><trkpt lat="38.096861250275765" lon="13.165134299086445"><ele>425.8333333333333</ele><time>2026-03-29T07:43:11.003Z</time></trkpt><trkpt lat="38.09678155391494" lon="13.165144018495345"><ele>423.0</ele><time>2026-03-29T07:43:12.003Z</time></trkpt><trkpt lat="38.09671173531646" lon="13.165147596729096"><ele>423.0</ele><time>2026-03-29T07:43:13.003Z</time></trkpt><trkpt lat="38.096647405108506" lon="13.165144966576865"><ele>423.0</ele><time>2026-03-29T07:43:14.003Z</time></trkpt><trkpt lat="38.096531468832076" lon="13.165088894703937"><ele>423.0</ele><time>2026-03-29T07:43:16.003Z</time></trkpt><trkpt lat="38.09648506636503" lon="13.165033475927478"><ele>423.0</ele><time>2026-03-29T07:43:17.003Z</time></trkpt><trkpt lat="38.096440071116376" lon="13.16497617904225"><ele>423.0</ele><time>2026-03-29T07:43:18.003Z</time></trkpt><trkpt lat="38.096400838418035" lon="13.164910222228215"><ele>423.0</ele><time>2026-03-29T07:43:19.003Z</time></trkpt><trkpt lat="38.09635683615248" lon="13.1648264685493"><ele>419.4</ele><time>2026-03-29T07:43:20.003Z</time></trkpt><trkpt lat="38.096309517009544" lon="13.164750414866765"><ele>415.79999999999995</ele><time>2026-03-29T07:43:21.003Z</time></trkpt><trkpt lat="38.096238593145365" lon="13.164685430041798"><ele>412.2</ele><time>2026-03-29T07:43:22.003Z</time></trkpt><trkpt lat="38.09614953587588" lon="13.164594179466679"><ele>408.6</ele><time>2026-03-29T07:43:24.003Z</time></trkpt><trkpt lat="38.09608157308856" lon="13.16451127544872"><ele>405.0</ele><time>2026-03-29T07:43:25.003Z</time></trkpt><trkpt lat="38.096020126257514" lon="13.164418771009107"><ele>405.0</ele><time>2026-03-29T07:43:26.003Z</time></trkpt><trkpt lat="38.09596403509057" lon="13.164323976265559"><ele>405.0</ele><time>2026-03-29T07:43:27.003Z</time></trkpt><trkpt lat="38.09591064883222" lon="13.16423326718705"><ele>405.0</ele><time>2026-03-29T07:43:28.003Z</time></trkpt><trkpt lat="38.09585821216862" lon="13.164134079877796"><ele>405.0</ele><time>2026-03-29T07:43:29.003Z</time></trkpt><trkpt lat="38.09580375311532" lon="13.164031433207205"><ele>405.0</ele><time>2026-03-29T07:43:30.003Z</time></trkpt><trkpt lat="38.095744908944894" lon="13.163936065701442"><ele>402.6666666666667</ele><time>2026-03-29T07:43:31.003Z</time></trkpt><trkpt lat="38.09570709476701" lon="13.163838609584962"><ele>400.33333333333337</ele><time>2026-03-29T07:43:32.003Z</time></trkpt><trkpt lat="38.09565342710266" lon="13.163737207557519"><ele>398.0</ele><time>2026-03-29T07:43:33.003Z</time></trkpt><trkpt lat="38.095605432567375" lon="13.163641316347306"><ele>395.6666666666667</ele><time>2026-03-29T07:43:34.003Z</time></trkpt><trkpt lat="38.09555563598635" lon="13.163564760460988"><ele>393.33333333333337</ele><time>2026-03-29T07:43:35.003Z</time></trkpt><trkpt lat="38.09551381597144" lon="13.163501140062671"><ele>391.0</ele><time>2026-03-29T07:43:36.003Z</time></trkpt><trkpt lat="38.09549545895254" lon="13.163353937307548"><ele>391.00000000000006</ele><time>2026-03-29T07:43:38.003Z</time></trkpt><trkpt lat="38.09548585005916" lon="13.163264581418094"><ele>391.0</ele><time>2026-03-29T07:43:39.003Z</time></trkpt><trkpt lat="38.09547062614866" lon="13.163151129394182"><ele>391.0</ele><time>2026-03-29T07:43:40.003Z</time></trkpt><trkpt lat="38.095443006946454" lon="13.163045230079211"><ele>391.0</ele><time>2026-03-29T07:43:41.003Z</time></trkpt><trkpt lat="38.095417272960994" lon="13.162952856972801"><ele>391.00000000000006</ele><time>2026-03-29T07:43:42.003Z</time></trkpt><trkpt lat="38.09539059311264" lon="13.162866273399947"><ele>391.0</ele><time>2026-03-29T07:43:43.003Z</time></trkpt><trkpt lat="38.0953496369466" lon="13.16279541059529"><ele>390.6666666666667</ele><time>2026-03-29T07:43:44.004Z</time></trkpt><trkpt lat="38.095293212683224" lon="13.16272551956768"><ele>390.33333333333337</ele><time>2026-03-29T07:43:45.004Z</time></trkpt><trkpt lat="38.0952260041433" lon="13.16264535507537"><ele>390.0</ele><time>2026-03-29T07:43:46.004Z</time></trkpt><trkpt lat="38.0951701821258" lon="13.162558635502071"><ele>389.66666666666663</ele><time>2026-03-29T07:43:47.004Z</time></trkpt><trkpt lat="38.09510037228571" lon="13.162475879992392"><ele>389.3333333333333</ele><time>2026-03-29T07:43:48.004Z</time></trkpt><trkpt lat="38.09503289109373" lon="13.162397233397556"><ele>389.0</ele><time>2026-03-29T07:43:49.004Z</time></trkpt><trkpt lat="38.094965044619876" lon="13.16231860863287"><ele>385.99999999999994</ele><time>2026-03-29T07:43:50.004Z</time></trkpt><trkpt lat="38.09489962624423" lon="13.162242797657687"><ele>383.0</ele><time>2026-03-29T07:43:51.004Z</time></trkpt><trkpt lat="38.094830756552994" lon="13.162167284964976"><ele>380.0</ele><time>2026-03-29T07:43:52.004Z</time></trkpt><trkpt lat="38.094774558237525" lon="13.16210676817642"><ele>377.0</ele><time>2026-03-29T07:43:53.004Z</time></trkpt><trkpt lat="38.09470864713676" lon="13.162038738081158"><ele>374.0</ele><time>2026-03-29T07:43:54.004Z</time></trkpt><trkpt lat="38.094638567637304" lon="13.161968525624655"><ele>371.0</ele><time>2026-03-29T07:43:55.004Z</time></trkpt><trkpt lat="38.09457042556262" lon="13.161901916233665"><ele>371.0</ele><time>2026-03-29T07:43:56.004Z</time></trkpt><trkpt lat="38.09448338132302" lon="13.161818716728783"><ele>371.0</ele><time>2026-03-29T07:43:57.004Z</time></trkpt><trkpt lat="38.09440401849336" lon="13.161743556463371"><ele>371.0</ele><time>2026-03-29T07:43:58.004Z</time></trkpt><trkpt lat="38.09433302438088" lon="13.16168212513248"><ele>371.0</ele><time>2026-03-29T07:43:59.004Z</time></trkpt><trkpt lat="38.09425918962372" lon="13.161626648193362"><ele>371.0</ele><time>2026-03-29T07:44:00.004Z</time></trkpt><trkpt lat="38.094200975588905" lon="13.161551654365978"><ele>370.0</ele><time>2026-03-29T07:44:01.004Z</time></trkpt><trkpt lat="38.09411643536434" lon="13.161479539635469"><ele>369.0</ele><time>2026-03-29T07:44:02.004Z</time></trkpt><trkpt lat="38.09404942444936" lon="13.16144018283144"><ele>368.0</ele><time>2026-03-29T07:44:03.004Z</time></trkpt><trkpt lat="38.093990414344745" lon="13.161396060533905"><ele>367.0</ele><time>2026-03-29T07:44:04.004Z</time></trkpt><trkpt lat="38.09394022192669" lon="13.161343371503392"><ele>366.0</ele><time>2026-03-29T07:44:05.004Z</time></trkpt><trkpt lat="38.0938536339596" lon="13.16132304779236"><ele>365.0</ele><time>2026-03-29T07:44:06.003Z</time></trkpt><trkpt lat="38.09378290031374" lon="13.161297682452235"><ele>363.28571428571433</ele><time>2026-03-29T07:44:07.003Z</time></trkpt><trkpt lat="38.09371630339176" lon="13.161265595441408"><ele>361.57142857142856</ele><time>2026-03-29T07:44:08.003Z</time></trkpt><trkpt lat="38.09364824959499" lon="13.161223157116332"><ele>359.8571428571429</ele><time>2026-03-29T07:44:09.003Z</time></trkpt><trkpt lat="38.09358282907995" lon="13.16117549804593"><ele>358.14285714285717</ele><time>2026-03-29T07:44:10.003Z</time></trkpt><trkpt lat="38.09352399085239" lon="13.161129117366352"><ele>356.42857142857144</ele><time>2026-03-29T07:44:11.002Z</time></trkpt><trkpt lat="38.09346127264547" lon="13.161075925569936"><ele>354.7142857142857</ele><time>2026-03-29T07:44:12.002Z</time></trkpt><trkpt lat="38.09339571824213" lon="13.161030193923235"><ele>353.0</ele><time>2026-03-29T07:44:13.002Z</time></trkpt><trkpt lat="38.09334504727429" lon="13.160971304723207"><ele>353.0</ele><time>2026-03-29T07:44:14.002Z</time></trkpt><trkpt lat="38.09327627133954" lon="13.160899163752486"><ele>353.0</ele><time>2026-03-29T07:44:15.002Z</time></trkpt><trkpt lat="38.09320941445424" lon="13.160827040291247"><ele>353.0</ele><time>2026-03-29T07:44:16.002Z</time></trkpt><trkpt lat="38.09313414901474" lon="13.160750037570875"><ele>353.0</ele><time>2026-03-29T07:44:17.002Z</time></trkpt><trkpt lat="38.09306015067561" lon="13.160668455979264"><ele>353.0</ele><time>2026-03-29T07:44:18.002Z</time></trkpt><trkpt lat="38.092990633349416" lon="13.160589843481837"><ele>349.6666666666667</ele><time>2026-03-29T07:44:19.001Z</time></trkpt><trkpt lat="38.09292313844113" lon="13.160520869707403"><ele>346.33333333333337</ele><time>2026-03-29T07:44:20.001Z</time></trkpt><trkpt lat="38.09286181495532" lon="13.160456905568406"><ele>343.0</ele><time>2026-03-29T07:44:21.001Z</time></trkpt><trkpt lat="38.092813672835945" lon="13.160387851406732"><ele>339.6666666666667</ele><time>2026-03-29T07:44:22.001Z</time></trkpt><trkpt lat="38.0927809404753" lon="13.160295838268564"><ele>336.3333333333333</ele><time>2026-03-29T07:44:23.001Z</time></trkpt><trkpt lat="38.09273494059018" lon="13.160212692765741"><ele>333.0</ele><time>2026-03-29T07:44:24.001Z</time></trkpt><trkpt lat="38.09268821082678" lon="13.160135767943913"><ele>333.0</ele><time>2026-03-29T07:44:25.001Z</time></trkpt><trkpt lat="38.092631416947334" lon="13.160064547204968"><ele>333.0</ele><time>2026-03-29T07:44:26.001Z</time></trkpt><trkpt lat="38.0925642352488" lon="13.160002203763302"><ele>333.0</ele><time>2026-03-29T07:44:27.001Z</time></trkpt><trkpt lat="38.092494351134306" lon="13.159937405280132"><ele>333.0</ele><time>2026-03-29T07:44:28.001Z</time></trkpt><trkpt lat="38.09244256851289" lon="13.15988826299051"><ele>333.0</ele><time>2026-03-29T07:44:29.001Z</time></trkpt><trkpt lat="38.09239068927734" lon="13.159830586229953"><ele>333.0</ele><time>2026-03-29T07:44:30.001Z</time></trkpt><trkpt lat="38.092344604825556" lon="13.159770995837272"><ele>333.0</ele><time>2026-03-29T07:44:31.001Z</time></trkpt><trkpt lat="38.09228506393359" lon="13.159634038537973"><ele>329.3333333333333</ele><time>2026-03-29T07:44:33.001Z</time></trkpt><trkpt lat="38.09225939712172" lon="13.159560508314623"><ele>325.6666666666667</ele><time>2026-03-29T07:44:34.001Z</time></trkpt><trkpt lat="38.092148053486035" lon="13.159472671329587"><ele>322.0</ele><time>2026-03-29T07:44:36.001Z</time></trkpt><trkpt lat="38.09206324445619" lon="13.159530532816827"><ele>318.33333333333337</ele><time>2026-03-29T07:44:37.001Z</time></trkpt><trkpt lat="38.09199504615844" lon="13.159505424947191"><ele>314.6666666666667</ele><time>2026-03-29T07:44:38.001Z</time></trkpt><trkpt lat="38.091929801434574" lon="13.159493073340686"><ele>311.0</ele><time>2026-03-29T07:44:39.001Z</time></trkpt><trkpt lat="38.09186390054209" lon="13.159480260594501"><ele>311.0</ele><time>2026-03-29T07:44:40Z</time></trkpt><trkpt lat="38.0917736574641" lon="13.159412552944163"><ele>311.0</ele><time>2026-03-29T07:44:42Z</time></trkpt><trkpt lat="38.09171861998811" lon="13.159364690578663"><ele>311.0</ele><time>2026-03-29T07:44:43Z</time></trkpt><trkpt lat="38.09161931007125" lon="13.159270085500392"><ele>311.0</ele><time>2026-03-29T07:44:45Z</time></trkpt><trkpt lat="38.09152773685863" lon="13.159177612948154"><ele>311.0</ele><time>2026-03-29T07:44:47Z</time></trkpt><trkpt lat="38.09144212711057" lon="13.159091503423857"><ele>307.40000000000003</ele><time>2026-03-29T07:44:49Z</time></trkpt><trkpt lat="38.09134830790117" lon="13.15899713656294"><ele>303.8</ele><time>2026-03-29T07:44:51Z</time></trkpt><trkpt lat="38.09127196182372" lon="13.158906845781287"><ele>300.20000000000005</ele><time>2026-03-29T07:44:53Z</time></trkpt><trkpt lat="38.09122654058268" lon="13.158846149753082"><ele>296.6</ele><time>2026-03-29T07:44:54Z</time></trkpt><trkpt lat="38.09113933915052" lon="13.158737038201421"><ele>293.0</ele><time>2026-03-29T07:44:56Z</time></trkpt><trkpt lat="38.09108785148378" lon="13.158679881837823"><ele>293.0</ele><time>2026-03-29T07:44:58Z</time></trkpt><trkpt lat="38.091019916851224" lon="13.158646707575498"><ele>293.0</ele><time>2026-03-29T07:45:00Z</time></trkpt><trkpt lat="38.09091575988078" lon="13.158596704529565"><ele>293.0</ele><time>2026-03-29T07:45:02Z</time></trkpt><trkpt lat="38.09084700510206" lon="13.158577481494492"><ele>293.0</ele><time>2026-03-29T07:45:03Z</time></trkpt><trkpt lat="38.09076951960002" lon="13.158535852238058"><ele>293.0</ele><time>2026-03-29T07:45:04Z</time></trkpt><trkpt lat="38.09069131462735" lon="13.158507152920304"><ele>293.0</ele><time>2026-03-29T07:45:05Z</time></trkpt><trkpt lat="38.09060697681247" lon="13.158473742753122"><ele>291.0</ele><time>2026-03-29T07:45:06Z</time></trkpt><trkpt lat="38.09053209387807" lon="13.158445977793436"><ele>289.0</ele><time>2026-03-29T07:45:07Z</time></trkpt><trkpt lat="38.090448022121635" lon="13.158410319629521"><ele>287.0</ele><time>2026-03-29T07:45:08Z</time></trkpt><trkpt lat="38.090354492558184" lon="13.158375928544448"><ele>285.0</ele><time>2026-03-29T07:45:09Z</time></trkpt><trkpt lat="38.0902702262216" lon="13.158356265672126"><ele>283.0</ele><time>2026-03-29T07:45:10Z</time></trkpt><trkpt lat="38.09016698192673" lon="13.158314785934811"><ele>283.0</ele><time>2026-03-29T07:45:11Z</time></trkpt><trkpt lat="38.09006317853355" lon="13.158287384984568"><ele>283.0</ele><time>2026-03-29T07:45:12Z</time></trkpt><trkpt lat="38.08998653504336" lon="13.158268984339049"><ele>283.0</ele><time>2026-03-29T07:45:13Z</time></trkpt><trkpt lat="38.089893667424" lon="13.158236554017124"><ele>283.0</ele><time>2026-03-29T07:45:14Z</time></trkpt><trkpt lat="38.08975288720418" lon="13.158204239781892"><ele>283.0</ele><time>2026-03-29T07:45:16Z</time></trkpt><trkpt lat="38.08968082306482" lon="13.158185760064487"><ele>283.16666666666663</ele><time>2026-03-29T07:45:17Z</time></trkpt><trkpt lat="38.0896128194155" lon="13.158160314654536"><ele>283.3333333333333</ele><time>2026-03-29T07:45:18Z</time></trkpt><trkpt lat="38.08953879199866" lon="13.158135867349584"><ele>283.5</ele><time>2026-03-29T07:45:19Z</time></trkpt><trkpt lat="38.08946244679752" lon="13.15810535893301"><ele>283.6666666666667</ele><time>2026-03-29T07:45:20Z</time></trkpt><trkpt lat="38.0893875199431" lon="13.158080864748982"><ele>283.83333333333337</ele><time>2026-03-29T07:45:21Z</time></trkpt><trkpt lat="38.08932175287185" lon="13.158061770345233"><ele>284.0</ele><time>2026-03-29T07:45:22Z</time></trkpt><trkpt lat="38.08923125594084" lon="13.158058094532059"><ele>284.0</ele><time>2026-03-29T07:45:24Z</time></trkpt><trkpt lat="38.08913201693068" lon="13.158192436767484"><ele>284.0</ele><time>2026-03-29T07:45:28Z</time></trkpt><trkpt lat="38.08910333587329" lon="13.158316900773126"><ele>284.0</ele><time>2026-03-29T07:45:29Z</time></trkpt><trkpt lat="38.08906607929705" lon="13.158471621518363"><ele>284.0</ele><time>2026-03-29T07:45:30Z</time></trkpt><trkpt lat="38.089035757706014" lon="13.158627008453637"><ele>280.75</ele><time>2026-03-29T07:45:31Z</time></trkpt><trkpt lat="38.089012113299646" lon="13.15879896901913"><ele>277.5</ele><time>2026-03-29T07:45:32Z</time></trkpt><trkpt lat="38.08898053631933" lon="13.158980492537879"><ele>274.25</ele><time>2026-03-29T07:45:33Z</time></trkpt><trkpt lat="38.088956242833504" lon="13.159176673467023"><ele>271.0</ele><time>2026-03-29T07:45:34Z</time></trkpt><trkpt lat="38.088936881672815" lon="13.159357938682453"><ele>271.0</ele><time>2026-03-29T07:45:35Z</time></trkpt><trkpt lat="38.08890131749245" lon="13.159543324367416"><ele>271.0</ele><time>2026-03-29T07:45:36Z</time></trkpt><trkpt lat="38.088866175699316" lon="13.159731657169754"><ele>271.0</ele><time>2026-03-29T07:45:37Z</time></trkpt><trkpt lat="38.08883367511752" lon="13.1599068563103"><ele>271.0</ele><time>2026-03-29T07:45:38Z</time></trkpt><trkpt lat="38.08880651041878" lon="13.160075032396438"><ele>271.5</ele><time>2026-03-29T07:45:39Z</time></trkpt><trkpt lat="38.088779232146884" lon="13.160251106384106"><ele>272.0</ele><time>2026-03-29T07:45:40Z</time></trkpt><trkpt lat="38.08875006257177" lon="13.160416681958097"><ele>272.5</ele><time>2026-03-29T07:45:41Z</time></trkpt><trkpt lat="38.08872488172844" lon="13.160582715318034"><ele>273.0</ele><time>2026-03-29T07:45:42Z</time></trkpt><trkpt lat="38.088689333814024" lon="13.160730556988355"><ele>273.25</ele><time>2026-03-29T07:45:43Z</time></trkpt><trkpt lat="38.08867342450564" lon="13.160868540624982"><ele>273.5</ele><time>2026-03-29T07:45:44Z</time></trkpt><trkpt lat="38.0886719372448" lon="13.161024530010687"><ele>273.75</ele><time>2026-03-29T07:45:45Z</time></trkpt><trkpt lat="38.088680659328034" lon="13.161182439431123"><ele>274.0</ele><time>2026-03-29T07:45:46Z</time></trkpt><trkpt lat="38.08870471206761" lon="13.161346441639274"><ele>274.0</ele><time>2026-03-29T07:45:47Z</time></trkpt><trkpt lat="38.08872797011645" lon="13.161516696803167"><ele>274.0</ele><time>2026-03-29T07:45:48Z</time></trkpt><trkpt lat="38.088756396700305" lon="13.161690101603607"><ele>274.0</ele><time>2026-03-29T07:45:49Z</time></trkpt><trkpt lat="38.08878387632974" lon="13.161864179434078"><ele>274.0</ele><time>2026-03-29T07:45:50Z</time></trkpt><trkpt lat="38.08880604413111" lon="13.16203502724026"><ele>274.25</ele><time>2026-03-29T07:45:51Z</time></trkpt><trkpt lat="38.088825560977746" lon="13.162206837847986"><ele>274.5</ele><time>2026-03-29T07:45:52Z</time></trkpt><trkpt lat="38.08884272018969" lon="13.162378829099676"><ele>274.75</ele><time>2026-03-29T07:45:53Z</time></trkpt><trkpt lat="38.088852248061016" lon="13.162551150052312"><ele>275.0</ele><time>2026-03-29T07:45:54Z</time></trkpt><trkpt lat="38.088854263809935" lon="13.162725983351875"><ele>274.75</ele><time>2026-03-29T07:45:55Z</time></trkpt><trkpt lat="38.08884730518469" lon="13.16290284019026"><ele>274.5</ele><time>2026-03-29T07:45:56Z</time></trkpt><trkpt lat="38.088840331098446" lon="13.163077338102179"><ele>274.25</ele><time>2026-03-29T07:45:57Z</time></trkpt><trkpt lat="38.0888378858862" lon="13.163255410847004"><ele>274.0</ele><time>2026-03-29T07:45:58Z</time></trkpt><trkpt lat="38.0888401075877" lon="13.16342277450009"><ele>274.0</ele><time>2026-03-29T07:45:59Z</time></trkpt><trkpt lat="38.088853622732756" lon="13.163569368491887"><ele>274.0</ele><time>2026-03-29T07:46:00Z</time></trkpt><trkpt lat="38.08885457943368" lon="13.16368895717374"><ele>274.0</ele><time>2026-03-29T07:46:01Z</time></trkpt><trkpt lat="38.08884954654157" lon="13.163779086070294"><ele>274.0</ele><time>2026-03-29T07:46:02Z</time></trkpt><trkpt lat="38.088822117348165" lon="13.163857616714408"><ele>274.0</ele><time>2026-03-29T07:46:03Z</time></trkpt><trkpt lat="38.088731279788554" lon="13.163942042352703"><ele>274.0</ele><time>2026-03-29T07:46:05Z</time></trkpt><trkpt lat="38.08868203469194" lon="13.16399633952733"><ele>274.0</ele><time>2026-03-29T07:46:06Z</time></trkpt><trkpt lat="38.08863076396927" lon="13.164071149104803"><ele>274.0</ele><time>2026-03-29T07:46:07Z</time></trkpt><trkpt lat="38.08858091033015" lon="13.164153881522012"><ele>274.0</ele><time>2026-03-29T07:46:08Z</time></trkpt><trkpt lat="38.08853109571412" lon="13.16423904867695"><ele>274.0</ele><time>2026-03-29T07:46:09Z</time></trkpt><trkpt lat="38.08847427101287" lon="13.164340431921941"><ele>274.0</ele><time>2026-03-29T07:46:10Z</time></trkpt><trkpt lat="38.08841497973054" lon="13.164446215911116"><ele>274.59999999999997</ele><time>2026-03-29T07:46:11Z</time></trkpt><trkpt lat="38.0883527080319" lon="13.16455731741312"><ele>275.2</ele><time>2026-03-29T07:46:12Z</time></trkpt><trkpt lat="38.08830222456961" lon="13.164680544064685"><ele>275.79999999999995</ele><time>2026-03-29T07:46:13Z</time></trkpt><trkpt lat="38.08823521513826" lon="13.164792098035601"><ele>276.4</ele><time>2026-03-29T07:46:14Z</time></trkpt><trkpt lat="38.0881712058884" lon="13.1649038890017"><ele>277.0</ele><time>2026-03-29T07:46:15Z</time></trkpt><trkpt lat="38.08811800441466" lon="13.165018871132736"><ele>275.4</ele><time>2026-03-29T07:46:16Z</time></trkpt><trkpt lat="38.08808038098008" lon="13.165146629089472"><ele>273.79999999999995</ele><time>2026-03-29T07:46:17Z</time></trkpt><trkpt lat="38.08805285037567" lon="13.165277839229256"><ele>272.2</ele><time>2026-03-29T07:46:18Z</time></trkpt><trkpt lat="38.08802661971106" lon="13.165412884617764"><ele>270.59999999999997</ele><time>2026-03-29T07:46:19Z</time></trkpt><trkpt lat="38.08800009021033" lon="13.165544092824861"><ele>269.0</ele><time>2026-03-29T07:46:20Z</time></trkpt><trkpt lat="38.08796914845799" lon="13.165670103424281"><ele>268.6666666666667</ele><time>2026-03-29T07:46:21Z</time></trkpt><trkpt lat="38.08794479572464" lon="13.16579151787586"><ele>268.33333333333337</ele><time>2026-03-29T07:46:22Z</time></trkpt><trkpt lat="38.08792541056581" lon="13.165908803736261"><ele>268.0</ele><time>2026-03-29T07:46:23Z</time></trkpt><trkpt lat="38.087915211212014" lon="13.166022856510285"><ele>267.6666666666667</ele><time>2026-03-29T07:46:24Z</time></trkpt><trkpt lat="38.08791542510257" lon="13.166132537645499"><ele>267.3333333333333</ele><time>2026-03-29T07:46:25Z</time></trkpt><trkpt lat="38.08792053829059" lon="13.166233250980145"><ele>267.0</ele><time>2026-03-29T07:46:26Z</time></trkpt><trkpt lat="38.08794592858731" lon="13.166330835157487"><ele>267.0</ele><time>2026-03-29T07:46:27Z</time></trkpt><trkpt lat="38.08797819066293" lon="13.166422498182737"><ele>267.0</ele><time>2026-03-29T07:46:28Z</time></trkpt><trkpt lat="38.088008293206826" lon="13.166502927593765"><ele>267.0</ele><time>2026-03-29T07:46:29Z</time></trkpt><trkpt lat="38.08802880830873" lon="13.166646592096598"><ele>267.0</ele><time>2026-03-29T07:46:31Z</time></trkpt><trkpt lat="38.088015256340356" lon="13.166762717959342"><ele>267.0</ele><time>2026-03-29T07:46:33Z</time></trkpt><trkpt lat="38.08801644763962" lon="13.166857872163154"><ele>267.0</ele><time>2026-03-29T07:46:35Z</time></trkpt><trkpt lat="38.08807919603407" lon="13.166820685173706"><ele>267.0</ele><time>2026-03-29T07:46:52Z</time></trkpt><trkpt lat="38.08809228519371" lon="13.166715111589559"><ele>267.0</ele><time>2026-03-29T07:46:54Z</time></trkpt><trkpt lat="38.08787240472114" lon="13.16656989100111"><ele>267.0</ele><time>2026-03-29T07:46:56Z</time></trkpt><trkpt lat="38.08784224189508" lon="13.16644042729474"><ele>267.0</ele><time>2026-03-29T07:46:57Z</time></trkpt><trkpt lat="38.08780469276556" lon="13.166312370315602"><ele>267.0</ele><time>2026-03-29T07:46:58Z</time></trkpt><trkpt lat="38.08776622118898" lon="13.166189934607756"><ele>267.0</ele><time>2026-03-29T07:46:59Z</time></trkpt><trkpt lat="38.087725821723026" lon="13.166091806578768"><ele>267.0</ele><time>2026-03-29T07:47:00Z</time></trkpt><trkpt lat="38.08768226444269" lon="13.16600087349889"><ele>267.0</ele><time>2026-03-29T07:47:01Z</time></trkpt><trkpt lat="38.087653994669644" lon="13.165825541023544"><ele>267.0</ele><time>2026-03-29T07:47:03Z</time></trkpt><trkpt lat="38.08807082353464" lon="13.165560382231572"><ele>268.0</ele><time>2026-03-29T07:47:04Z</time></trkpt><trkpt lat="38.08814029512519" lon="13.165490110638018"><ele>269.0</ele><time>2026-03-29T07:47:05Z</time></trkpt><trkpt lat="38.08760275847749" lon="13.165642373552627"><ele>269.0</ele><time>2026-03-29T07:47:06Z</time></trkpt><trkpt lat="38.088115629325" lon="13.165045233538036"><ele>269.0</ele><time>2026-03-29T07:47:07Z</time></trkpt><trkpt lat="38.08817454168535" lon="13.16492716012118"><ele>269.0</ele><time>2026-03-29T07:47:08Z</time></trkpt><trkpt lat="38.088239453802174" lon="13.164801920396119"><ele>269.0</ele><time>2026-03-29T07:47:09Z</time></trkpt><trkpt lat="38.088308331267186" lon="13.164673996353574"><ele>269.0</ele><time>2026-03-29T07:47:10Z</time></trkpt><trkpt lat="38.088380198732615" lon="13.164549424716446"><ele>270.0</ele><time>2026-03-29T07:47:11Z</time></trkpt><trkpt lat="38.0884514901889" lon="13.164423602338758"><ele>271.0</ele><time>2026-03-29T07:47:12Z</time></trkpt><trkpt lat="38.08852264277619" lon="13.164300281667185"><ele>272.0</ele><time>2026-03-29T07:47:13Z</time></trkpt><trkpt lat="38.08858581897092" lon="13.164189617535266"><ele>273.0</ele><time>2026-03-29T07:47:14Z</time></trkpt><trkpt lat="38.088642315922726" lon="13.164095134343896"><ele>274.0</ele><time>2026-03-29T07:47:15Z</time></trkpt><trkpt lat="38.0886872807448" lon="13.164027422618851"><ele>274.0</ele><time>2026-03-29T07:47:16Z</time></trkpt><trkpt lat="38.08876871202682" lon="13.16400269625566"><ele>274.0</ele><time>2026-03-29T07:47:18Z</time></trkpt><trkpt lat="38.088838877098304" lon="13.163971976847218"><ele>274.0</ele><time>2026-03-29T07:47:21Z</time></trkpt><trkpt lat="38.088865613521264" lon="13.163854314611468"><ele>274.0</ele><time>2026-03-29T07:47:23Z</time></trkpt><trkpt lat="38.08887842709295" lon="13.163745873279815"><ele>274.0</ele><time>2026-03-29T07:47:24Z</time></trkpt><trkpt lat="38.08886498856948" lon="13.163650049477749"><ele>274.0</ele><time>2026-03-29T07:47:25Z</time></trkpt><trkpt lat="38.08886290261735" lon="13.163528235860776"><ele>274.0</ele><time>2026-03-29T07:47:26Z</time></trkpt><trkpt lat="38.08886340157657" lon="13.163395476260877"><ele>274.0</ele><time>2026-03-29T07:47:27Z</time></trkpt><trkpt lat="38.08886106820832" lon="13.163267559427448"><ele>274.0</ele><time>2026-03-29T07:47:28Z</time></trkpt><trkpt lat="38.08886239399101" lon="13.163129752033601"><ele>274.0</ele><time>2026-03-29T07:47:29Z</time></trkpt><trkpt lat="38.08886980410903" lon="13.162988539029945"><ele>274.0</ele><time>2026-03-29T07:47:30Z</time></trkpt><trkpt lat="38.088872461361" lon="13.162841044964559"><ele>274.25</ele><time>2026-03-29T07:47:31Z</time></trkpt><trkpt lat="38.08888584024497" lon="13.162691647275512"><ele>274.5</ele><time>2026-03-29T07:47:32Z</time></trkpt><trkpt lat="38.088888658348274" lon="13.16253364592409"><ele>274.75</ele><time>2026-03-29T07:47:33Z</time></trkpt><trkpt lat="38.08888114236103" lon="13.162378377123371"><ele>275.0</ele><time>2026-03-29T07:47:34Z</time></trkpt><trkpt lat="38.088866174478284" lon="13.162224965807532"><ele>275.0</ele><time>2026-03-29T07:47:35Z</time></trkpt><trkpt lat="38.08884584250696" lon="13.162074261035798"><ele>275.0</ele><time>2026-03-29T07:47:36Z</time></trkpt><trkpt lat="38.08882741685491" lon="13.161926339441406"><ele>275.0</ele><time>2026-03-29T07:47:37Z</time></trkpt><trkpt lat="38.08881178058667" lon="13.16178170282807"><ele>275.0</ele><time>2026-03-29T07:47:38Z</time></trkpt><trkpt lat="38.088789066210516" lon="13.161641786843134"><ele>274.8</ele><time>2026-03-29T07:47:39Z</time></trkpt><trkpt lat="38.08877175348074" lon="13.161505241743837"><ele>274.6</ele><time>2026-03-29T07:47:40Z</time></trkpt><trkpt lat="38.08875120778979" lon="13.161368042678891"><ele>274.4</ele><time>2026-03-29T07:47:41Z</time></trkpt><trkpt lat="38.088727620761006" lon="13.161228510336578"><ele>274.2</ele><time>2026-03-29T07:47:42Z</time></trkpt><trkpt lat="38.088722525706004" lon="13.161083412921295"><ele>274.0</ele><time>2026-03-29T07:47:43Z</time></trkpt><trkpt lat="38.08871260299212" lon="13.160946320189266"><ele>274.0</ele><time>2026-03-29T07:47:44Z</time></trkpt><trkpt lat="38.08871580649853" lon="13.160813611752632"><ele>274.0</ele><time>2026-03-29T07:47:45Z</time></trkpt><trkpt lat="38.0887305657575" lon="13.160677351359908"><ele>274.0</ele><time>2026-03-29T07:47:46Z</time></trkpt><trkpt lat="38.08876279897402" lon="13.160545460241494"><ele>274.0</ele><time>2026-03-29T07:47:47Z</time></trkpt><trkpt lat="38.088787548564305" lon="13.16041063419195"><ele>274.0</ele><time>2026-03-29T07:47:48Z</time></trkpt><trkpt lat="38.0888055812873" lon="13.160275376946247"><ele>273.75</ele><time>2026-03-29T07:47:49Z</time></trkpt><trkpt lat="38.08882406301875" lon="13.160126402395527"><ele>273.5</ele><time>2026-03-29T07:47:50Z</time></trkpt><trkpt lat="38.08885828851178" lon="13.159994014680258"><ele>273.25</ele><time>2026-03-29T07:47:51Z</time></trkpt><trkpt lat="38.08888109381625" lon="13.159853505747764"><ele>273.0</ele><time>2026-03-29T07:47:52Z</time></trkpt><trkpt lat="38.08888683305737" lon="13.159713430014344"><ele>272.6</ele><time>2026-03-29T07:47:53Z</time></trkpt><trkpt lat="38.08891349442601" lon="13.159574040593519"><ele>272.20000000000005</ele><time>2026-03-29T07:47:54Z</time></trkpt><trkpt lat="38.088932168738786" lon="13.159437757291741"><ele>271.8</ele><time>2026-03-29T07:47:55Z</time></trkpt><trkpt lat="38.08895441743917" lon="13.159298140233986"><ele>271.40000000000003</ele><time>2026-03-29T07:47:56Z</time></trkpt><trkpt lat="38.08897246864015" lon="13.15916540433511"><ele>271.0</ele><time>2026-03-29T07:47:57Z</time></trkpt><trkpt lat="38.088995923619514" lon="13.15902987383126"><ele>270.5</ele><time>2026-03-29T07:47:58Z</time></trkpt><trkpt lat="38.08901418290074" lon="13.15890488741084"><ele>270.0</ele><time>2026-03-29T07:47:59Z</time></trkpt><trkpt lat="38.08903151062796" lon="13.158802841295534"><ele>269.5</ele><time>2026-03-29T07:48:00Z</time></trkpt><trkpt lat="38.089064460717275" lon="13.158713662807033"><ele>269.0</ele><time>2026-03-29T07:48:01Z</time></trkpt><trkpt lat="38.089079796344414" lon="13.158625341084367"><ele>268.5</ele><time>2026-03-29T07:48:02Z</time></trkpt><trkpt lat="38.08909329505936" lon="13.158544201269585"><ele>268.0</ele><time>2026-03-29T07:48:03Z</time></trkpt><trkpt lat="38.08910599937229" lon="13.158403481359379"><ele>269.2</ele><time>2026-03-29T07:48:05Z</time></trkpt><trkpt lat="38.08913788053573" lon="13.158276200456744"><ele>270.4</ele><time>2026-03-29T07:48:07Z</time></trkpt><trkpt lat="38.08904592522792" lon="13.158112102721718"><ele>271.59999999999997</ele><time>2026-03-29T07:48:09Z</time></trkpt><trkpt lat="38.08899118572008" lon="13.15802772059371"><ele>272.8</ele><time>2026-03-29T07:48:10Z</time></trkpt><trkpt lat="38.088940715046206" lon="13.15793102172152"><ele>274.0</ele><time>2026-03-29T07:48:11Z</time></trkpt><trkpt lat="38.088884186448254" lon="13.157825846533482"><ele>274.0</ele><time>2026-03-29T07:48:12Z</time></trkpt><trkpt lat="38.088821412183904" lon="13.157712781862475"><ele>274.0</ele><time>2026-03-29T07:48:13Z</time></trkpt><trkpt lat="38.08876514072592" lon="13.157593379078968"><ele>274.0</ele><time>2026-03-29T07:48:14Z</time></trkpt><trkpt lat="38.08870688215033" lon="13.157462336364706"><ele>274.0</ele><time>2026-03-29T07:48:15Z</time></trkpt><trkpt lat="38.088643422527966" lon="13.157324044209098"><ele>275.75</ele><time>2026-03-29T07:48:16Z</time></trkpt><trkpt lat="38.08858002209739" lon="13.157188037369231"><ele>277.5</ele><time>2026-03-29T07:48:17Z</time></trkpt><trkpt lat="38.088514930378466" lon="13.157050295321117"><ele>279.25</ele><time>2026-03-29T07:48:18Z</time></trkpt><trkpt lat="38.08845062515203" lon="13.156908465707282"><ele>281.0</ele><time>2026-03-29T07:48:19Z</time></trkpt><trkpt lat="38.08838626081434" lon="13.156767477719088"><ele>281.0</ele><time>2026-03-29T07:48:20Z</time></trkpt><trkpt lat="38.08831680145075" lon="13.156622288784083"><ele>281.0</ele><time>2026-03-29T07:48:21Z</time></trkpt><trkpt lat="38.08825021391999" lon="13.156480481650105"><ele>281.0</ele><time>2026-03-29T07:48:22Z</time></trkpt><trkpt lat="38.08817956560747" lon="13.156338665708052"><ele>281.0</ele><time>2026-03-29T07:48:23Z</time></trkpt><trkpt lat="38.08811183589442" lon="13.15619483823822"><ele>280.75</ele><time>2026-03-29T07:48:24Z</time></trkpt><trkpt lat="38.08804695235065" lon="13.156049450812171"><ele>280.5</ele><time>2026-03-29T07:48:25Z</time></trkpt><trkpt lat="38.08798250192423" lon="13.155905598372069"><ele>280.25</ele><time>2026-03-29T07:48:26Z</time></trkpt><trkpt lat="38.08791456424127" lon="13.155760350969667"><ele>280.0</ele><time>2026-03-29T07:48:27Z</time></trkpt><trkpt lat="38.087842517053566" lon="13.155607987437882"><ele>280.0</ele><time>2026-03-29T07:48:28Z</time></trkpt><trkpt lat="38.08777399538453" lon="13.155457390801866"><ele>280.0</ele><time>2026-03-29T07:48:29Z</time></trkpt><trkpt lat="38.08770079094739" lon="13.155306306410335"><ele>280.0</ele><time>2026-03-29T07:48:30Z</time></trkpt><trkpt lat="38.08762617549867" lon="13.155154818391896"><ele>280.0</ele><time>2026-03-29T07:48:31Z</time></trkpt><trkpt lat="38.08755493009882" lon="13.155001448713259"><ele>280.75</ele><time>2026-03-29T07:48:32Z</time></trkpt><trkpt lat="38.08748585938528" lon="13.15484596712223"><ele>281.5</ele><time>2026-03-29T07:48:33Z</time></trkpt><trkpt lat="38.087411972053836" lon="13.154692592620291"><ele>282.25</ele><time>2026-03-29T07:48:34Z</time></trkpt><trkpt lat="38.087339899180186" lon="13.154539951299716"><ele>283.0</ele><time>2026-03-29T07:48:35Z</time></trkpt><trkpt lat="38.087259370277174" lon="13.154378252286037"><ele>281.25</ele><time>2026-03-29T07:48:36Z</time></trkpt><trkpt lat="38.087184362264274" lon="13.154221491696712"><ele>279.5</ele><time>2026-03-29T07:48:37Z</time></trkpt><trkpt lat="38.08711028008112" lon="13.15405852551762"><ele>277.75</ele><time>2026-03-29T07:48:38Z</time></trkpt><trkpt lat="38.08703738532783" lon="13.15389865999806"><ele>276.0</ele><time>2026-03-29T07:48:39Z</time></trkpt><trkpt lat="38.08696190945592" lon="13.153733852223539"><ele>276.0</ele><time>2026-03-29T07:48:40Z</time></trkpt><trkpt lat="38.086891262061485" lon="13.153566060551523"><ele>276.0</ele><time>2026-03-29T07:48:41Z</time></trkpt><trkpt lat="38.086809686353995" lon="13.153405300822186"><ele>276.0</ele><time>2026-03-29T07:48:42Z</time></trkpt><trkpt lat="38.086721618402414" lon="13.153233697478841"><ele>276.0</ele><time>2026-03-29T07:48:43Z</time></trkpt><trkpt lat="38.08664352702243" lon="13.153069721473758"><ele>276.0</ele><time>2026-03-29T07:48:44Z</time></trkpt><trkpt lat="38.086570493757534" lon="13.15290540225597"><ele>276.0</ele><time>2026-03-29T07:48:45Z</time></trkpt><trkpt lat="38.086495427552435" lon="13.152739088045436"><ele>273.25</ele><time>2026-03-29T07:48:46Z</time></trkpt><trkpt lat="38.08643267684387" lon="13.152568540392519"><ele>270.5</ele><time>2026-03-29T07:48:47Z</time></trkpt><trkpt lat="38.086363232213934" lon="13.152413778373635"><ele>267.75</ele><time>2026-03-29T07:48:48Z</time></trkpt><trkpt lat="38.08628962703283" lon="13.152284049655812"><ele>265.0</ele><time>2026-03-29T07:48:49Z</time></trkpt><trkpt lat="38.086225256979354" lon="13.152165568692418"><ele>265.0</ele><time>2026-03-29T07:48:50Z</time></trkpt><trkpt lat="38.08616641065127" lon="13.152060093618177"><ele>265.0</ele><time>2026-03-29T07:48:51Z</time></trkpt><trkpt lat="38.086109694870245" lon="13.151938856611189"><ele>265.0</ele><time>2026-03-29T07:48:52Z</time></trkpt><trkpt lat="38.086062401608764" lon="13.15182394116667"><ele>265.0</ele><time>2026-03-29T07:48:53Z</time></trkpt><trkpt lat="38.08603678598117" lon="13.151706885235907"><ele>265.0</ele><time>2026-03-29T07:48:54Z</time></trkpt><trkpt lat="38.086010266725346" lon="13.151620602960607"><ele>264.99999999999994</ele><time>2026-03-29T07:48:55Z</time></trkpt><trkpt lat="38.08597530865841" lon="13.151543485398138"><ele>265.0</ele><time>2026-03-29T07:48:56Z</time></trkpt><trkpt lat="38.08603751028658" lon="13.15148174675405"><ele>265.0</ele><time>2026-03-29T07:48:58Z</time></trkpt><trkpt lat="38.08610252311343" lon="13.151499012549706"><ele>265.0</ele><time>2026-03-29T07:48:59Z</time></trkpt><trkpt lat="38.08606514211448" lon="13.15143049727074"><ele>265.0</ele><time>2026-03-29T07:51:56Z</time></trkpt><trkpt lat="38.08602644521179" lon="13.151497169190842"><ele>264.99999999999994</ele><time>2026-03-29T07:52:00Z</time></trkpt><trkpt lat="38.08601824555435" lon="13.151599748042441"><ele>265.0</ele><time>2026-03-29T07:52:03Z</time></trkpt><trkpt lat="38.08615527900658" lon="13.152137432413868"><ele>265.0</ele><time>2026-03-29T07:52:09Z</time></trkpt><trkpt lat="38.08623331377097" lon="13.15224283636995"><ele>265.0</ele><time>2026-03-29T07:52:10Z</time></trkpt><trkpt lat="38.086281249156634" lon="13.15235145431428"><ele>265.0</ele><time>2026-03-29T07:52:11Z</time></trkpt><trkpt lat="38.08633382420854" lon="13.152450844728214"><ele>265.0</ele><time>2026-03-29T07:52:12Z</time></trkpt><trkpt lat="38.086387827260936" lon="13.152552567225017"><ele>265.0</ele><time>2026-03-29T07:52:13Z</time></trkpt><trkpt lat="38.08643816043873" lon="13.152661595381318"><ele>264.2</ele><time>2026-03-29T07:52:14Z</time></trkpt><trkpt lat="38.08648397711557" lon="13.152772129998922"><ele>263.4</ele><time>2026-03-29T07:52:15Z</time></trkpt><trkpt lat="38.08653093881594" lon="13.152880219542066"><ele>262.6</ele><time>2026-03-29T07:52:16Z</time></trkpt><trkpt lat="38.0865805139657" lon="13.152998681984927"><ele>261.8</ele><time>2026-03-29T07:52:17Z</time></trkpt><trkpt lat="38.086634441298685" lon="13.153106503129539"><ele>261.0</ele><time>2026-03-29T07:52:18Z</time></trkpt><trkpt lat="38.08668586209326" lon="13.153217514949253"><ele>264.0</ele><time>2026-03-29T07:52:19Z</time></trkpt><trkpt lat="38.086741307300464" lon="13.153333029083099"><ele>267.0</ele><time>2026-03-29T07:52:20Z</time></trkpt><trkpt lat="38.0867927326856" lon="13.15344502337702"><ele>270.0</ele><time>2026-03-29T07:52:21Z</time></trkpt><trkpt lat="38.08684568984425" lon="13.153555229290264"><ele>273.0</ele><time>2026-03-29T07:52:22Z</time></trkpt><trkpt lat="38.086896651645056" lon="13.153666569147378"><ele>276.0</ele><time>2026-03-29T07:52:23Z</time></trkpt><trkpt lat="38.08695013080479" lon="13.153766877674807"><ele>276.0</ele><time>2026-03-29T07:52:24Z</time></trkpt><trkpt lat="38.087001135705954" lon="13.153875541060659"><ele>276.0</ele><time>2026-03-29T07:52:25Z</time></trkpt><trkpt lat="38.08705149013035" lon="13.153993833784414"><ele>276.0</ele><time>2026-03-29T07:52:26Z</time></trkpt><trkpt lat="38.08710621580097" lon="13.154104567814468"><ele>276.0</ele><time>2026-03-29T07:52:27Z</time></trkpt><trkpt lat="38.087157349530756" lon="13.154217579155924"><ele>276.0</ele><time>2026-03-29T07:52:28Z</time></trkpt><trkpt lat="38.087214477161915" lon="13.154325573463916"><ele>276.8</ele><time>2026-03-29T07:52:29Z</time></trkpt><trkpt lat="38.08727466396465" lon="13.15443918879925"><ele>277.6</ele><time>2026-03-29T07:52:30Z</time></trkpt><trkpt lat="38.08732486598998" lon="13.154559452249545"><ele>278.4</ele><time>2026-03-29T07:52:31Z</time></trkpt><trkpt lat="38.08738875304175" lon="13.154676796220672"><ele>279.2</ele><time>2026-03-29T07:52:32Z</time></trkpt><trkpt lat="38.08743445275363" lon="13.154813974750672"><ele>280.0</ele><time>2026-03-29T07:52:33Z</time></trkpt><trkpt lat="38.087501147863286" lon="13.154929461743151"><ele>280.0</ele><time>2026-03-29T07:52:34Z</time></trkpt><trkpt lat="38.08755994411385" lon="13.155050089802288"><ele>280.0</ele><time>2026-03-29T07:52:35Z</time></trkpt><trkpt lat="38.08760972686305" lon="13.15516805181097"><ele>280.0</ele><time>2026-03-29T07:52:36Z</time></trkpt><trkpt lat="38.087663793185094" lon="13.155280487610106"><ele>280.0</ele><time>2026-03-29T07:52:37Z</time></trkpt><trkpt lat="38.087719476619654" lon="13.155401075731561"><ele>280.0</ele><time>2026-03-29T07:52:38Z</time></trkpt><trkpt lat="38.08777819500578" lon="13.155514751535776"><ele>280.0</ele><time>2026-03-29T07:52:39Z</time></trkpt><trkpt lat="38.08782920308682" lon="13.155630976121532"><ele>280.0</ele><time>2026-03-29T07:52:40Z</time></trkpt><trkpt lat="38.08788033754215" lon="13.155745615864943"><ele>280.0</ele><time>2026-03-29T07:52:41Z</time></trkpt><trkpt lat="38.08793212045895" lon="13.15587388328684"><ele>280.0</ele><time>2026-03-29T07:52:42Z</time></trkpt><trkpt lat="38.08798790909174" lon="13.155980064486688"><ele>280.0</ele><time>2026-03-29T07:52:43Z</time></trkpt><trkpt lat="38.08804635736679" lon="13.156095374095672"><ele>280.2</ele><time>2026-03-29T07:52:44Z</time></trkpt><trkpt lat="38.088102314261405" lon="13.15620609178241"><ele>280.4</ele><time>2026-03-29T07:52:45Z</time></trkpt><trkpt lat="38.08815508100399" lon="13.156331716072389"><ele>280.6</ele><time>2026-03-29T07:52:46Z</time></trkpt><trkpt lat="38.08820653644662" lon="13.156454386651477"><ele>280.8</ele><time>2026-03-29T07:52:47Z</time></trkpt><trkpt lat="38.08824898614707" lon="13.156571293920809"><ele>281.0</ele><time>2026-03-29T07:52:48Z</time></trkpt><trkpt lat="38.08830631635758" lon="13.156688196484186"><ele>281.0</ele><time>2026-03-29T07:52:49Z</time></trkpt><trkpt lat="38.08836386417101" lon="13.15680432452675"><ele>281.0</ele><time>2026-03-29T07:52:50Z</time></trkpt><trkpt lat="38.08841509627622" lon="13.156927772380536"><ele>281.0</ele><time>2026-03-29T07:52:51Z</time></trkpt><trkpt lat="38.088468953446096" lon="13.157043265434782"><ele>281.0</ele><time>2026-03-29T07:52:52Z</time></trkpt><trkpt lat="38.08852361615383" lon="13.157160006746755"><ele>281.0</ele><time>2026-03-29T07:52:53Z</time></trkpt><trkpt lat="38.088583771283595" lon="13.157271905407569"><ele>279.6</ele><time>2026-03-29T07:52:54Z</time></trkpt><trkpt lat="38.08864125751521" lon="13.157388453839516"><ele>278.20000000000005</ele><time>2026-03-29T07:52:55Z</time></trkpt><trkpt lat="38.088695257942256" lon="13.15750394012604"><ele>276.79999999999995</ele><time>2026-03-29T07:52:56Z</time></trkpt><trkpt lat="38.08874907894731" lon="13.157621511331525"><ele>275.4</ele><time>2026-03-29T07:52:57Z</time></trkpt><trkpt lat="38.08880907207474" lon="13.157735488435847"><ele>274.0</ele><time>2026-03-29T07:52:58Z</time></trkpt><trkpt lat="38.08886427512198" lon="13.157848110634015"><ele>274.0</ele><time>2026-03-29T07:52:59Z</time></trkpt><trkpt lat="38.08891803566904" lon="13.157961672697366"><ele>274.0</ele><time>2026-03-29T07:53:00Z</time></trkpt><trkpt lat="38.08896840108465" lon="13.158079983347378"><ele>274.0</ele><time>2026-03-29T07:53:01Z</time></trkpt><trkpt lat="38.089021495615484" lon="13.158183186804878"><ele>274.0</ele><time>2026-03-29T07:53:02Z</time></trkpt><trkpt lat="38.089062415198406" lon="13.158281979268985"><ele>274.0</ele><time>2026-03-29T07:53:03Z</time></trkpt><trkpt lat="38.08908474128917" lon="13.15838096098179"><ele>272.8</ele><time>2026-03-29T07:53:04Z</time></trkpt><trkpt lat="38.089068693438854" lon="13.1584873301737"><ele>271.59999999999997</ele><time>2026-03-29T07:53:05Z</time></trkpt><trkpt lat="38.08905035734628" lon="13.158597547090887"><ele>270.4</ele><time>2026-03-29T07:53:06Z</time></trkpt><trkpt lat="38.08902968379449" lon="13.158716913265936"><ele>269.2</ele><time>2026-03-29T07:53:07Z</time></trkpt><trkpt lat="38.08901959052704" lon="13.158853826028176"><ele>268.0</ele><time>2026-03-29T07:53:08Z</time></trkpt><trkpt lat="38.08898216862082" lon="13.158986670660195"><ele>268.75</ele><time>2026-03-29T07:53:09Z</time></trkpt><trkpt lat="38.088960783234135" lon="13.15911502201767"><ele>269.5</ele><time>2026-03-29T07:53:10Z</time></trkpt><trkpt lat="38.088938971569085" lon="13.159256586760762"><ele>270.25</ele><time>2026-03-29T07:53:11Z</time></trkpt><trkpt lat="38.08892889999723" lon="13.159410365090023"><ele>271.0</ele><time>2026-03-29T07:53:12Z</time></trkpt><trkpt lat="38.08890224626211" lon="13.159553041841423"><ele>271.0</ele><time>2026-03-29T07:53:13Z</time></trkpt><trkpt lat="38.08888052445333" lon="13.15969655431752"><ele>271.0</ele><time>2026-03-29T07:53:14Z</time></trkpt><trkpt lat="38.08885554482983" lon="13.159844866495515"><ele>271.0</ele><time>2026-03-29T07:53:15Z</time></trkpt><trkpt lat="38.088832205790155" lon="13.159996202909452"><ele>271.0</ele><time>2026-03-29T07:53:16Z</time></trkpt><trkpt lat="38.088804195665496" lon="13.160141170300196"><ele>271.5</ele><time>2026-03-29T07:53:17Z</time></trkpt><trkpt lat="38.08877527473647" lon="13.160289695638683"><ele>272.0</ele><time>2026-03-29T07:53:18Z</time></trkpt><trkpt lat="38.088748773143884" lon="13.160434833881373"><ele>272.5</ele><time>2026-03-29T07:53:19Z</time></trkpt><trkpt lat="38.08872292416038" lon="13.16058134266724"><ele>273.0</ele><time>2026-03-29T07:53:20Z</time></trkpt><trkpt lat="38.08868798175742" lon="13.160723383269268"><ele>273.25</ele><time>2026-03-29T07:53:21Z</time></trkpt><trkpt lat="38.088670982161084" lon="13.160864597884277"><ele>273.5</ele><time>2026-03-29T07:53:22Z</time></trkpt><trkpt lat="38.08867201589636" lon="13.16101974200852"><ele>273.75</ele><time>2026-03-29T07:53:23Z</time></trkpt><trkpt lat="38.08868115478467" lon="13.161166985522517"><ele>274.0</ele><time>2026-03-29T07:53:24Z</time></trkpt><trkpt lat="38.08870329099675" lon="13.16131583911081"><ele>274.0</ele><time>2026-03-29T07:53:25Z</time></trkpt><trkpt lat="38.08872372116377" lon="13.161462465482"><ele>274.0</ele><time>2026-03-29T07:53:26Z</time></trkpt><trkpt lat="38.08874395433041" lon="13.161612123386412"><ele>274.0</ele><time>2026-03-29T07:53:27Z</time></trkpt><trkpt lat="38.08876445852017" lon="13.16175966069057"><ele>274.0</ele><time>2026-03-29T07:53:28Z</time></trkpt><trkpt lat="38.08878458023248" lon="13.161886903200724"><ele>274.2</ele><time>2026-03-29T07:53:29Z</time></trkpt><trkpt lat="38.088798366537915" lon="13.162002822657394"><ele>274.4</ele><time>2026-03-29T07:53:30Z</time></trkpt><trkpt lat="38.088812654204226" lon="13.162112580902823"><ele>274.6</ele><time>2026-03-29T07:53:31Z</time></trkpt><trkpt lat="38.08882547572661" lon="13.162238035909583"><ele>274.8</ele><time>2026-03-29T07:53:32Z</time></trkpt><trkpt lat="38.088839820715705" lon="13.162365951717614"><ele>275.0</ele><time>2026-03-29T07:53:33Z</time></trkpt><trkpt lat="38.08884766900087" lon="13.162498888471204"><ele>274.25</ele><time>2026-03-29T07:53:34Z</time></trkpt><trkpt lat="38.088847131060334" lon="13.162635063486906"><ele>273.5</ele><time>2026-03-29T07:53:35Z</time></trkpt><trkpt lat="38.088842067520936" lon="13.162777830085027"><ele>272.75</ele><time>2026-03-29T07:53:36Z</time></trkpt><trkpt lat="38.088838320390785" lon="13.162924585492107"><ele>272.0</ele><time>2026-03-29T07:53:37Z</time></trkpt><trkpt lat="38.08883654956226" lon="13.163076329907831"><ele>272.5</ele><time>2026-03-29T07:53:38Z</time></trkpt><trkpt lat="38.088834074378155" lon="13.163232985918722"><ele>273.0</ele><time>2026-03-29T07:53:39Z</time></trkpt><trkpt lat="38.08883681030645" lon="13.163386840594068"><ele>273.5</ele><time>2026-03-29T07:53:40Z</time></trkpt><trkpt lat="38.08885353409434" lon="13.163526495330482"><ele>274.0</ele><time>2026-03-29T07:53:41Z</time></trkpt><trkpt lat="38.088851907456934" lon="13.163647217634765"><ele>274.0</ele><time>2026-03-29T07:53:42Z</time></trkpt><trkpt lat="38.08884874306719" lon="13.1637391963351"><ele>274.0</ele><time>2026-03-29T07:53:43Z</time></trkpt><trkpt lat="38.088834958860964" lon="13.163838535521087"><ele>274.0</ele><time>2026-03-29T07:53:44Z</time></trkpt><trkpt lat="38.088805385228056" lon="13.163930139849478"><ele>274.0</ele><time>2026-03-29T07:53:45Z</time></trkpt><trkpt lat="38.08878886221905" lon="13.164016245973919"><ele>274.0</ele><time>2026-03-29T07:53:46Z</time></trkpt><trkpt lat="38.08862437510206" lon="13.164081230857668"><ele>274.75</ele><time>2026-03-29T07:53:47Z</time></trkpt><trkpt lat="38.08855756844807" lon="13.164193439832141"><ele>275.5</ele><time>2026-03-29T07:53:48Z</time></trkpt><trkpt lat="38.08849103629937" lon="13.164310520296098"><ele>276.25</ele><time>2026-03-29T07:53:49Z</time></trkpt><trkpt lat="38.08842189596468" lon="13.16443387639544"><ele>277.0</ele><time>2026-03-29T07:53:50Z</time></trkpt><trkpt lat="38.088353648526564" lon="13.164555639399996"><ele>277.0</ele><time>2026-03-29T07:53:51Z</time></trkpt><trkpt lat="38.08829709964423" lon="13.164689487747816"><ele>277.0</ele><time>2026-03-29T07:53:52Z</time></trkpt><trkpt lat="38.08822710887647" lon="13.16480452540289"><ele>277.0</ele><time>2026-03-29T07:53:53Z</time></trkpt><trkpt lat="38.088183025879324" lon="13.164892100193226"><ele>277.0</ele><time>2026-03-29T07:53:54Z</time></trkpt><trkpt lat="38.088121182041746" lon="13.165034071380383"><ele>277.0</ele><time>2026-03-29T07:53:55Z</time></trkpt><trkpt lat="38.0880818591333" lon="13.165175752391818"><ele>275.0</ele><time>2026-03-29T07:53:56Z</time></trkpt><trkpt lat="38.08805057352854" lon="13.165321932669434"><ele>273.0</ele><time>2026-03-29T07:53:57Z</time></trkpt><trkpt lat="38.08802012840324" lon="13.165471522319683"><ele>271.0</ele><time>2026-03-29T07:53:58Z</time></trkpt><trkpt lat="38.08798638242938" lon="13.165620731320722"><ele>269.0</ele><time>2026-03-29T07:53:59Z</time></trkpt><trkpt lat="38.08795291702657" lon="13.165758696578605"><ele>268.59999999999997</ele><time>2026-03-29T07:54:00Z</time></trkpt><trkpt lat="38.087929933402826" lon="13.165889904252731"><ele>268.2</ele><time>2026-03-29T07:54:01Z</time></trkpt><trkpt lat="38.08792309020133" lon="13.166024788943881"><ele>267.79999999999995</ele><time>2026-03-29T07:54:02Z</time></trkpt><trkpt lat="38.08793326344555" lon="13.166166398342373"><ele>267.4</ele><time>2026-03-29T07:54:03Z</time></trkpt><trkpt lat="38.087950710663755" lon="13.166313568902549"><ele>267.0</ele><time>2026-03-29T07:54:04Z</time></trkpt><trkpt lat="38.087993280535386" lon="13.166447715092565"><ele>266.6666666666667</ele><time>2026-03-29T07:54:05Z</time></trkpt><trkpt lat="38.08803120403702" lon="13.166568820601977"><ele>266.3333333333333</ele><time>2026-03-29T07:54:06Z</time></trkpt><trkpt lat="38.08804456419293" lon="13.166656455459707"><ele>266.0</ele><time>2026-03-29T07:54:07Z</time></trkpt><trkpt lat="38.08805431470561" lon="13.166743529299726"><ele>265.66666666666663</ele><time>2026-03-29T07:54:08Z</time></trkpt><trkpt lat="38.088073699749785" lon="13.166853693945951"><ele>265.3333333333333</ele><time>2026-03-29T07:54:09Z</time></trkpt><trkpt lat="38.08810421201261" lon="13.166976073968142"><ele>265.0</ele><time>2026-03-29T07:54:10Z</time></trkpt><trkpt lat="38.08813492684037" lon="13.167097383047544"><ele>265.0</ele><time>2026-03-29T07:54:11Z</time></trkpt><trkpt lat="38.08816201960083" lon="13.167210941010984"><ele>265.0</ele><time>2026-03-29T07:54:12Z</time></trkpt><trkpt lat="38.08818674438411" lon="13.167319394276596"><ele>265.0</ele><time>2026-03-29T07:54:13Z</time></trkpt><trkpt lat="38.08820312096192" lon="13.167425258883426"><ele>265.0</ele><time>2026-03-29T07:54:14Z</time></trkpt><trkpt lat="38.088182013589154" lon="13.167520026292076"><ele>265.0</ele><time>2026-03-29T07:54:15Z</time></trkpt><trkpt lat="38.08815715776123" lon="13.167593512610473"><ele>265.0</ele><time>2026-03-29T07:54:16Z</time></trkpt><trkpt lat="38.08810708564546" lon="13.16768745001005"><ele>265.0</ele><time>2026-03-29T07:54:17Z</time></trkpt><trkpt lat="38.08805162620768" lon="13.167769589203107"><ele>265.0</ele><time>2026-03-29T07:54:18Z</time></trkpt><trkpt lat="38.08798865499772" lon="13.167809293061108"><ele>265.0</ele><time>2026-03-29T07:54:19Z</time></trkpt><trkpt lat="38.08790318205777" lon="13.16782918992989"><ele>265.0</ele><time>2026-03-29T07:54:20Z</time></trkpt><trkpt lat="38.087801545371576" lon="13.167853172419965"><ele>265.0</ele><time>2026-03-29T07:54:21Z</time></trkpt><trkpt lat="38.08769891331207" lon="13.167850815628194"><ele>265.0</ele><time>2026-03-29T07:54:22Z</time></trkpt><trkpt lat="38.087574703102085" lon="13.167850235646517"><ele>265.0</ele><time>2026-03-29T07:54:23Z</time></trkpt><trkpt lat="38.08744789961178" lon="13.167850923469675"><ele>265.0</ele><time>2026-03-29T07:54:24Z</time></trkpt><trkpt lat="38.087318808849105" lon="13.167855563728434"><ele>265.0</ele><time>2026-03-29T07:54:25Z</time></trkpt><trkpt lat="38.08718789336449" lon="13.167853514528364"><ele>265.0</ele><time>2026-03-29T07:54:26Z</time></trkpt><trkpt lat="38.08706945991103" lon="13.167851342421642"><ele>264.8</ele><time>2026-03-29T07:54:27Z</time></trkpt><trkpt lat="38.08695173160987" lon="13.167865762975188"><ele>264.6</ele><time>2026-03-29T07:54:28Z</time></trkpt><trkpt lat="38.08684536142846" lon="13.16789754077396"><ele>264.4</ele><time>2026-03-29T07:54:29Z</time></trkpt><trkpt lat="38.086765305916806" lon="13.167962866064839"><ele>264.2</ele><time>2026-03-29T07:54:30Z</time></trkpt><trkpt lat="38.08669952499391" lon="13.168038267779716"><ele>264.0</ele><time>2026-03-29T07:54:31Z</time></trkpt><trkpt lat="38.08666944663098" lon="13.168176948716917"><ele>264.5</ele><time>2026-03-29T07:54:32Z</time></trkpt><trkpt lat="38.086633875390135" lon="13.168331027548902"><ele>265.0</ele><time>2026-03-29T07:54:33Z</time></trkpt><trkpt lat="38.086589303731714" lon="13.168478536450714"><ele>265.5</ele><time>2026-03-29T07:54:34Z</time></trkpt><trkpt lat="38.08653800389651" lon="13.168627176449686"><ele>266.0</ele><time>2026-03-29T07:54:35Z</time></trkpt><trkpt lat="38.086493285235164" lon="13.168753300248895"><ele>266.40000000000003</ele><time>2026-03-29T07:54:36Z</time></trkpt><trkpt lat="38.08644849520275" lon="13.168866196967022"><ele>266.8</ele><time>2026-03-29T07:54:37Z</time></trkpt><trkpt lat="38.086389205701664" lon="13.168951129803618"><ele>267.20000000000005</ele><time>2026-03-29T07:54:38Z</time></trkpt><trkpt lat="38.086309786805884" lon="13.169005445664919"><ele>267.6</ele><time>2026-03-29T07:54:39Z</time></trkpt><trkpt lat="38.08621856395793" lon="13.169037741310035"><ele>268.0</ele><time>2026-03-29T07:54:40Z</time></trkpt><trkpt lat="38.08611768960241" lon="13.169044328619746"><ele>267.4</ele><time>2026-03-29T07:54:41Z</time></trkpt><trkpt lat="38.086023036662" lon="13.169019139922307"><ele>266.8</ele><time>2026-03-29T07:54:42Z</time></trkpt><trkpt lat="38.08593750871279" lon="13.168962242032148"><ele>266.2</ele><time>2026-03-29T07:54:43Z</time></trkpt><trkpt lat="38.08587194647627" lon="13.16886028219611"><ele>265.6</ele><time>2026-03-29T07:54:44Z</time></trkpt><trkpt lat="38.08578695929381" lon="13.168771790511864"><ele>265.0</ele><time>2026-03-29T07:54:45Z</time></trkpt><trkpt lat="38.085714467426484" lon="13.168657049423807"><ele>265.0</ele><time>2026-03-29T07:54:46Z</time></trkpt><trkpt lat="38.085638246476364" lon="13.168540650671039"><ele>265.0</ele><time>2026-03-29T07:54:47Z</time></trkpt><trkpt lat="38.085542300780546" lon="13.168439350465599"><ele>265.0</ele><time>2026-03-29T07:54:48Z</time></trkpt><trkpt lat="38.0854366406035" lon="13.168355282398073"><ele>265.0</ele><time>2026-03-29T07:54:49Z</time></trkpt><trkpt lat="38.085321161255806" lon="13.168288010325082"><ele>265.0</ele><time>2026-03-29T07:54:50Z</time></trkpt><trkpt lat="38.085203315672615" lon="13.168233315104844"><ele>265.0</ele><time>2026-03-29T07:54:51Z</time></trkpt><trkpt lat="38.08508189886836" lon="13.168191679450368"><ele>265.0</ele><time>2026-03-29T07:54:52Z</time></trkpt><trkpt lat="38.08495658219719" lon="13.16815797081312"><ele>265.0</ele><time>2026-03-29T07:54:53Z</time></trkpt><trkpt lat="38.08483462603371" lon="13.168138161366308"><ele>262.25</ele><time>2026-03-29T07:54:54Z</time></trkpt><trkpt lat="38.0846992519169" lon="13.168123920356685"><ele>259.5</ele><time>2026-03-29T07:54:55Z</time></trkpt><trkpt lat="38.08457035480752" lon="13.168108620522151"><ele>256.75</ele><time>2026-03-29T07:54:56Z</time></trkpt><trkpt lat="38.08445203200677" lon="13.168086485485572"><ele>254.0</ele><time>2026-03-29T07:54:57Z</time></trkpt><trkpt lat="38.08433098874517" lon="13.16806619384573"><ele>254.0</ele><time>2026-03-29T07:54:58Z</time></trkpt><trkpt lat="38.084215672322074" lon="13.168024274117311"><ele>254.0</ele><time>2026-03-29T07:54:59Z</time></trkpt><trkpt lat="38.08409386318972" lon="13.167959978797054"><ele>254.0</ele><time>2026-03-29T07:55:00Z</time></trkpt><trkpt lat="38.083961449433936" lon="13.16788894811117"><ele>254.0</ele><time>2026-03-29T07:55:01Z</time></trkpt><trkpt lat="38.08383658812955" lon="13.167822533474535"><ele>253.75</ele><time>2026-03-29T07:55:02Z</time></trkpt><trkpt lat="38.08371538513608" lon="13.167740883508944"><ele>253.5</ele><time>2026-03-29T07:55:03Z</time></trkpt><trkpt lat="38.08359527625561" lon="13.167676705174589"><ele>253.25</ele><time>2026-03-29T07:55:04Z</time></trkpt><trkpt lat="38.083465137661534" lon="13.16762544199769"><ele>253.0</ele><time>2026-03-29T07:55:05Z</time></trkpt><trkpt lat="38.08334597561406" lon="13.167558117338627"><ele>253.5</ele><time>2026-03-29T07:55:06Z</time></trkpt><trkpt lat="38.08322982132533" lon="13.167494215385913"><ele>254.0</ele><time>2026-03-29T07:55:07Z</time></trkpt><trkpt lat="38.08311510037349" lon="13.167446829002643"><ele>254.5</ele><time>2026-03-29T07:55:08Z</time></trkpt><trkpt lat="38.08299138719565" lon="13.167415660748663"><ele>255.0</ele><time>2026-03-29T07:55:09Z</time></trkpt><trkpt lat="38.08285912272156" lon="13.167402302187657"><ele>255.0</ele><time>2026-03-29T07:55:10Z</time></trkpt><trkpt lat="38.08271655136418" lon="13.167404269656457"><ele>255.0</ele><time>2026-03-29T07:55:11Z</time></trkpt><trkpt lat="38.08256907333907" lon="13.167412312427487"><ele>255.0</ele><time>2026-03-29T07:55:12Z</time></trkpt><trkpt lat="38.082427897563214" lon="13.167420534742407"><ele>255.0</ele><time>2026-03-29T07:55:13Z</time></trkpt><trkpt lat="38.08227732880094" lon="13.167417898730744"><ele>254.25</ele><time>2026-03-29T07:55:14Z</time></trkpt><trkpt lat="38.082138319728166" lon="13.167426501731358"><ele>253.5</ele><time>2026-03-29T07:55:15Z</time></trkpt><trkpt lat="38.08199743899633" lon="13.167434396617267"><ele>252.75</ele><time>2026-03-29T07:55:16Z</time></trkpt><trkpt lat="38.081856516654575" lon="13.167434698310878"><ele>252.0</ele><time>2026-03-29T07:55:17Z</time></trkpt><trkpt lat="38.08171909967587" lon="13.167438952979492"><ele>251.5</ele><time>2026-03-29T07:55:18Z</time></trkpt><trkpt lat="38.08158826884988" lon="13.167447271718967"><ele>251.0</ele><time>2026-03-29T07:55:19Z</time></trkpt><trkpt lat="38.08145569048887" lon="13.167470496650104"><ele>250.5</ele><time>2026-03-29T07:55:20Z</time></trkpt><trkpt lat="38.081325471927315" lon="13.167505286388794"><ele>250.0</ele><time>2026-03-29T07:55:21Z</time></trkpt><trkpt lat="38.08120495433945" lon="13.167529545997713"><ele>250.0</ele><time>2026-03-29T07:55:22Z</time></trkpt><trkpt lat="38.08109045034683" lon="13.167571781458973"><ele>250.0</ele><time>2026-03-29T07:55:23Z</time></trkpt><trkpt lat="38.08098387016337" lon="13.167633553278774"><ele>250.0</ele><time>2026-03-29T07:55:24Z</time></trkpt><trkpt lat="38.08088331368155" lon="13.167700889163674"><ele>250.0</ele><time>2026-03-29T07:55:25Z</time></trkpt><trkpt lat="38.08076970711547" lon="13.167771011624337"><ele>249.4</ele><time>2026-03-29T07:55:26Z</time></trkpt><trkpt lat="38.08065541894342" lon="13.167824610684866"><ele>248.8</ele><time>2026-03-29T07:55:27Z</time></trkpt><trkpt lat="38.08055448777698" lon="13.16788860263484"><ele>248.2</ele><time>2026-03-29T07:55:28Z</time></trkpt><trkpt lat="38.08047070938979" lon="13.167951336691798"><ele>247.6</ele><time>2026-03-29T07:55:29Z</time></trkpt><trkpt lat="38.08038148610319" lon="13.168025170549425"><ele>247.0</ele><time>2026-03-29T07:55:30Z</time></trkpt><trkpt lat="38.080296077338275" lon="13.16810687172827"><ele>248.0</ele><time>2026-03-29T07:55:31Z</time></trkpt><trkpt lat="38.08022727323704" lon="13.168217652348496"><ele>249.0</ele><time>2026-03-29T07:55:32Z</time></trkpt><trkpt lat="38.080171665143354" lon="13.168350650135709"><ele>250.0</ele><time>2026-03-29T07:55:33Z</time></trkpt><trkpt lat="38.08013436483666" lon="13.168499137506153"><ele>251.0</ele><time>2026-03-29T07:55:34Z</time></trkpt><trkpt lat="38.08010388629119" lon="13.168643224328962"><ele>251.0</ele><time>2026-03-29T07:55:35Z</time></trkpt><trkpt lat="38.08007154170231" lon="13.168771922164622"><ele>251.00000000000003</ele><time>2026-03-29T07:55:36Z</time></trkpt><trkpt lat="38.0800310436251" lon="13.168896892322344"><ele>251.00000000000003</ele><time>2026-03-29T07:55:37Z</time></trkpt><trkpt lat="38.07998898139852" lon="13.169015788985991"><ele>251.0</ele><time>2026-03-29T07:55:38Z</time></trkpt><trkpt lat="38.079952402298154" lon="13.169130149506305"><ele>251.0</ele><time>2026-03-29T07:55:39Z</time></trkpt><trkpt lat="38.07992108558963" lon="13.169249258509884"><ele>249.20000000000002</ele><time>2026-03-29T07:55:40Z</time></trkpt><trkpt lat="38.07989056112239" lon="13.16937287938306"><ele>247.40000000000003</ele><time>2026-03-29T07:55:41Z</time></trkpt><trkpt lat="38.07985020680617" lon="13.169494187919573"><ele>245.6</ele><time>2026-03-29T07:55:42Z</time></trkpt><trkpt lat="38.07980653193607" lon="13.169608887256029"><ele>243.8</ele><time>2026-03-29T07:55:43Z</time></trkpt><trkpt lat="38.07976625444681" lon="13.169706359413807"><ele>242.0</ele><time>2026-03-29T07:55:44Z</time></trkpt><trkpt lat="38.07972609918426" lon="13.169805296964448"><ele>243.0</ele><time>2026-03-29T07:55:45Z</time></trkpt><trkpt lat="38.07967770163794" lon="13.169897685436716"><ele>244.0</ele><time>2026-03-29T07:55:46Z</time></trkpt><trkpt lat="38.07962428796699" lon="13.1699849778127"><ele>245.0</ele><time>2026-03-29T07:55:47Z</time></trkpt><trkpt lat="38.079576564182545" lon="13.17009689370725"><ele>246.0</ele><time>2026-03-29T07:55:48Z</time></trkpt><trkpt lat="38.07954195577617" lon="13.170221435761324"><ele>247.0</ele><time>2026-03-29T07:55:49Z</time></trkpt><trkpt lat="38.079519893595254" lon="13.170336369946497"><ele>246.99999999999997</ele><time>2026-03-29T07:55:50Z</time></trkpt><trkpt lat="38.079506911151846" lon="13.17044008562618"><ele>247.0</ele><time>2026-03-29T07:55:51Z</time></trkpt><trkpt lat="38.07946367078547" lon="13.17052183012539"><ele>247.0</ele><time>2026-03-29T07:55:52Z</time></trkpt><trkpt lat="38.07940398391809" lon="13.170568410757934"><ele>247.0</ele><time>2026-03-29T07:55:53Z</time></trkpt><trkpt lat="38.07932660501862" lon="13.170549205245937"><ele>246.99999999999997</ele><time>2026-03-29T07:55:54Z</time></trkpt><trkpt lat="38.07924734904304" lon="13.170553684227738"><ele>247.0</ele><time>2026-03-29T07:55:55Z</time></trkpt><trkpt lat="38.0791699470036" lon="13.170520845923702"><ele>247.0</ele><time>2026-03-29T07:55:56Z</time></trkpt><trkpt lat="38.07910679519363" lon="13.170438265945718"><ele>247.0</ele><time>2026-03-29T07:55:57Z</time></trkpt><trkpt lat="38.079054606709555" lon="13.170349832259667"><ele>247.0</ele><time>2026-03-29T07:55:58Z</time></trkpt><trkpt lat="38.079005631945776" lon="13.170252604622531"><ele>247.0</ele><time>2026-03-29T07:55:59Z</time></trkpt><trkpt lat="38.07895451201447" lon="13.170147847830311"><ele>247.0</ele><time>2026-03-29T07:56:00Z</time></trkpt><trkpt lat="38.07888628628047" lon="13.170050662833804"><ele>246.83333333333331</ele><time>2026-03-29T07:56:01Z</time></trkpt><trkpt lat="38.07884363970551" lon="13.16995406529068"><ele>246.66666666666666</ele><time>2026-03-29T07:56:02Z</time></trkpt><trkpt lat="38.07879707398263" lon="13.169869230866752"><ele>246.5</ele><time>2026-03-29T07:56:03Z</time></trkpt><trkpt lat="38.078754320258724" lon="13.169783551135085"><ele>246.33333333333331</ele><time>2026-03-29T07:56:04Z</time></trkpt><trkpt lat="38.07871813806831" lon="13.169699556706908"><ele>246.16666666666666</ele><time>2026-03-29T07:56:05Z</time></trkpt><trkpt lat="38.07867369144952" lon="13.169606336882927"><ele>246.0</ele><time>2026-03-29T07:56:06Z</time></trkpt><trkpt lat="38.07864038392359" lon="13.169528896914947"><ele>246.0</ele><time>2026-03-29T07:56:07Z</time></trkpt><trkpt lat="38.07859012849647" lon="13.169455146256192"><ele>246.0</ele><time>2026-03-29T07:56:08Z</time></trkpt><trkpt lat="38.07854089101899" lon="13.16938501402813"><ele>246.0</ele><time>2026-03-29T07:56:09Z</time></trkpt><trkpt lat="38.07847555261154" lon="13.169325639830152"><ele>246.0</ele><time>2026-03-29T07:56:10Z</time></trkpt><trkpt lat="38.07840594008548" lon="13.169254988594078"><ele>246.0</ele><time>2026-03-29T07:56:11Z</time></trkpt><trkpt lat="38.078288427510365" lon="13.169277785871161"><ele>246.0</ele><time>2026-03-29T07:56:12Z</time></trkpt><trkpt lat="38.07819133034097" lon="13.169292029857461"><ele>246.75</ele><time>2026-03-29T07:56:13Z</time></trkpt><trkpt lat="38.078085725301584" lon="13.169330790693868"><ele>247.5</ele><time>2026-03-29T07:56:14Z</time></trkpt><trkpt lat="38.077970921799356" lon="13.169379359880098"><ele>248.25</ele><time>2026-03-29T07:56:15Z</time></trkpt><trkpt lat="38.07785440721282" lon="13.169421419920802"><ele>249.0</ele><time>2026-03-29T07:56:16Z</time></trkpt><trkpt lat="38.07773753229019" lon="13.169461069267953"><ele>249.0</ele><time>2026-03-29T07:56:17Z</time></trkpt><trkpt lat="38.077626296013236" lon="13.16949489905886"><ele>249.0</ele><time>2026-03-29T07:56:18Z</time></trkpt><trkpt lat="38.07751492094732" lon="13.169529194863138"><ele>249.0</ele><time>2026-03-29T07:56:19Z</time></trkpt><trkpt lat="38.07739150189137" lon="13.169556300539414"><ele>249.0</ele><time>2026-03-29T07:56:20Z</time></trkpt><trkpt lat="38.07726481483426" lon="13.169574986892684"><ele>248.75</ele><time>2026-03-29T07:56:21Z</time></trkpt><trkpt lat="38.07714069634274" lon="13.169589888430608"><ele>248.5</ele><time>2026-03-29T07:56:22Z</time></trkpt><trkpt lat="38.077017563384274" lon="13.169607991175157"><ele>248.25</ele><time>2026-03-29T07:56:23Z</time></trkpt><trkpt lat="38.076890309996514" lon="13.169629903662262"><ele>248.0</ele><time>2026-03-29T07:56:24Z</time></trkpt><trkpt lat="38.07678866923476" lon="13.169652207774696"><ele>248.0</ele><time>2026-03-29T07:56:25Z</time></trkpt><trkpt lat="38.0766886142193" lon="13.169687314929687"><ele>248.0</ele><time>2026-03-29T07:56:26Z</time></trkpt><trkpt lat="38.07658747204475" lon="13.169737010658876"><ele>248.0</ele><time>2026-03-29T07:56:27Z</time></trkpt><trkpt lat="38.076475905483804" lon="13.169810870267781"><ele>248.0</ele><time>2026-03-29T07:56:28Z</time></trkpt><trkpt lat="38.07635760106357" lon="13.169874551394436"><ele>249.5</ele><time>2026-03-29T07:56:29Z</time></trkpt><trkpt lat="38.07624667101067" lon="13.16996620011062"><ele>251.0</ele><time>2026-03-29T07:56:30Z</time></trkpt><trkpt lat="38.076126707815696" lon="13.170033348385457"><ele>252.5</ele><time>2026-03-29T07:56:31Z</time></trkpt><trkpt lat="38.07602141241825" lon="13.17010337689149"><ele>254.0</ele><time>2026-03-29T07:56:32Z</time></trkpt><trkpt lat="38.075910553880064" lon="13.17016300069766"><ele>254.0</ele><time>2026-03-29T07:56:33Z</time></trkpt><trkpt lat="38.0757966231996" lon="13.170229507837213"><ele>254.0</ele><time>2026-03-29T07:56:34Z</time></trkpt><trkpt lat="38.07567991266025" lon="13.170277488032383"><ele>254.0</ele><time>2026-03-29T07:56:35Z</time></trkpt><trkpt lat="38.07557779848179" lon="13.170325717641665"><ele>254.0</ele><time>2026-03-29T07:56:36Z</time></trkpt><trkpt lat="38.0754753756602" lon="13.170392372612108"><ele>253.0</ele><time>2026-03-29T07:56:37Z</time></trkpt><trkpt lat="38.07538267463116" lon="13.170469486826685"><ele>252.0</ele><time>2026-03-29T07:56:38Z</time></trkpt><trkpt lat="38.07528216996961" lon="13.170583756520797"><ele>251.0</ele><time>2026-03-29T07:56:39Z</time></trkpt><trkpt lat="38.075185099486426" lon="13.170693506584772"><ele>250.0</ele><time>2026-03-29T07:56:40Z</time></trkpt><trkpt lat="38.07508424020286" lon="13.170798705642078"><ele>250.0</ele><time>2026-03-29T07:56:41Z</time></trkpt><trkpt lat="38.074998698702174" lon="13.170901125101839"><ele>250.0</ele><time>2026-03-29T07:56:42Z</time></trkpt><trkpt lat="38.074913582522726" lon="13.170985409276241"><ele>250.0</ele><time>2026-03-29T07:56:43Z</time></trkpt><trkpt lat="38.074818951801255" lon="13.171049011885222"><ele>250.0</ele><time>2026-03-29T07:56:44Z</time></trkpt><trkpt lat="38.07475519683463" lon="13.171133473657216"><ele>250.0</ele><time>2026-03-29T07:56:45Z</time></trkpt><trkpt lat="38.0747176907354" lon="13.171221009112003"><ele>249.6</ele><time>2026-03-29T07:56:46Z</time></trkpt><trkpt lat="38.07470873027688" lon="13.171308190767771"><ele>249.2</ele><time>2026-03-29T07:56:47Z</time></trkpt><trkpt lat="38.07471788062727" lon="13.171422938326554"><ele>248.8</ele><time>2026-03-29T07:56:48Z</time></trkpt><trkpt lat="38.0747513707072" lon="13.171543674714803"><ele>248.4</ele><time>2026-03-29T07:56:49Z</time></trkpt><trkpt lat="38.0748213916215" lon="13.171670075710264"><ele>248.0</ele><time>2026-03-29T07:56:50Z</time></trkpt><trkpt lat="38.07483840110587" lon="13.171803102375078"><ele>248.0</ele><time>2026-03-29T07:56:51Z</time></trkpt><trkpt lat="38.0748524447958" lon="13.171942375597665"><ele>248.0</ele><time>2026-03-29T07:56:52Z</time></trkpt><trkpt lat="38.07484235612524" lon="13.172104253656844"><ele>248.0</ele><time>2026-03-29T07:56:53Z</time></trkpt><trkpt lat="38.07481608982368" lon="13.172276769960892"><ele>248.0</ele><time>2026-03-29T07:56:54Z</time></trkpt><trkpt lat="38.07478611710278" lon="13.172432679289091"><ele>249.0</ele><time>2026-03-29T07:56:55Z</time></trkpt><trkpt lat="38.07476010376024" lon="13.17256560769586"><ele>250.0</ele><time>2026-03-29T07:56:56Z</time></trkpt><trkpt lat="38.074725449180825" lon="13.17268960877331"><ele>251.0</ele><time>2026-03-29T07:56:57Z</time></trkpt><trkpt lat="38.074670303571025" lon="13.172811174736824"><ele>252.0</ele><time>2026-03-29T07:56:58Z</time></trkpt><trkpt lat="38.074597284296495" lon="13.172927085068562"><ele>253.0</ele><time>2026-03-29T07:56:59Z</time></trkpt><trkpt lat="38.074513928277135" lon="13.173052096297571"><ele>253.0</ele><time>2026-03-29T07:57:00Z</time></trkpt><trkpt lat="38.07443066060835" lon="13.173185634831636"><ele>253.0</ele><time>2026-03-29T07:57:01Z</time></trkpt><trkpt lat="38.074362279232325" lon="13.173319143696476"><ele>253.0</ele><time>2026-03-29T07:57:02Z</time></trkpt><trkpt lat="38.074303745768866" lon="13.173455138487952"><ele>253.0</ele><time>2026-03-29T07:57:03Z</time></trkpt><trkpt lat="38.07426207131291" lon="13.173603078066236"><ele>254.5</ele><time>2026-03-29T07:57:04Z</time></trkpt><trkpt lat="38.07422552766199" lon="13.173757329462088"><ele>256.0</ele><time>2026-03-29T07:57:05Z</time></trkpt><trkpt lat="38.07418732338447" lon="13.173908131200513"><ele>257.5</ele><time>2026-03-29T07:57:06Z</time></trkpt><trkpt lat="38.074137227620135" lon="13.174065348496164"><ele>259.0</ele><time>2026-03-29T07:57:07Z</time></trkpt><trkpt lat="38.074084508739375" lon="13.174226584189581"><ele>260.59999999999997</ele><time>2026-03-29T07:57:08Z</time></trkpt><trkpt lat="38.0740392669876" lon="13.174386157863132"><ele>262.2</ele><time>2026-03-29T07:57:09Z</time></trkpt><trkpt lat="38.074005248012114" lon="13.17453495043093"><ele>263.79999999999995</ele><time>2026-03-29T07:57:10Z</time></trkpt><trkpt lat="38.07399328904021" lon="13.174675907673834"><ele>265.4</ele><time>2026-03-29T07:57:11Z</time></trkpt><trkpt lat="38.07399735113011" lon="13.174774164128175"><ele>267.0</ele><time>2026-03-29T07:57:12Z</time></trkpt><trkpt lat="38.0740042155606" lon="13.174877375286163"><ele>267.8</ele><time>2026-03-29T07:57:13Z</time></trkpt><trkpt lat="38.07400868762889" lon="13.174988230342146"><ele>268.6</ele><time>2026-03-29T07:57:14Z</time></trkpt><trkpt lat="38.074005391562" lon="13.175109271275339"><ele>269.40000000000003</ele><time>2026-03-29T07:57:15Z</time></trkpt><trkpt lat="38.07398166660698" lon="13.175220210347895"><ele>270.2</ele><time>2026-03-29T07:57:16Z</time></trkpt><trkpt lat="38.07394309206711" lon="13.175297383582908"><ele>271.0</ele><time>2026-03-29T07:57:17Z</time></trkpt><trkpt lat="38.073809577163836" lon="13.17535223411534"><ele>271.0</ele><time>2026-03-29T07:57:19Z</time></trkpt><trkpt lat="38.07373028461982" lon="13.175370896492801"><ele>271.0</ele><time>2026-03-29T07:57:20Z</time></trkpt><trkpt lat="38.073660340564935" lon="13.175363324635647"><ele>271.0</ele><time>2026-03-29T07:57:21Z</time></trkpt><trkpt lat="38.073595093729104" lon="13.175328107495808"><ele>271.0</ele><time>2026-03-29T07:57:22Z</time></trkpt><trkpt lat="38.073541344381304" lon="13.175263043215457"><ele>271.0</ele><time>2026-03-29T07:57:23Z</time></trkpt><trkpt lat="38.07351753650221" lon="13.175159046108407"><ele>271.0</ele><time>2026-03-29T07:57:24Z</time></trkpt><trkpt lat="38.0734894901127" lon="13.175058173172614"><ele>271.0</ele><time>2026-03-29T07:57:25Z</time></trkpt><trkpt lat="38.073445126406945" lon="13.174941164956017"><ele>271.0</ele><time>2026-03-29T07:57:26Z</time></trkpt><trkpt lat="38.07340778620628" lon="13.174812905545616"><ele>271.0</ele><time>2026-03-29T07:57:27Z</time></trkpt><trkpt lat="38.07336281443187" lon="13.17470071424222"><ele>271.0</ele><time>2026-03-29T07:57:28Z</time></trkpt><trkpt lat="38.073301469300056" lon="13.174598093577721"><ele>271.0</ele><time>2026-03-29T07:57:29Z</time></trkpt><trkpt lat="38.07323867747816" lon="13.17452296537178"><ele>271.8333333333333</ele><time>2026-03-29T07:57:30Z</time></trkpt><trkpt lat="38.07318054874135" lon="13.17448641042324"><ele>272.66666666666663</ele><time>2026-03-29T07:57:31Z</time></trkpt><trkpt lat="38.07310453601614" lon="13.174470342527485"><ele>273.5</ele><time>2026-03-29T07:57:32Z</time></trkpt><trkpt lat="38.07301911340974" lon="13.174466912151686"><ele>274.3333333333333</ele><time>2026-03-29T07:57:33Z</time></trkpt><trkpt lat="38.072927208265504" lon="13.174460688384656"><ele>275.1666666666667</ele><time>2026-03-29T07:57:34Z</time></trkpt><trkpt lat="38.07282417562136" lon="13.174436865330943"><ele>276.0</ele><time>2026-03-29T07:57:35Z</time></trkpt><trkpt lat="38.07272875553795" lon="13.174409220341525"><ele>276.0</ele><time>2026-03-29T07:57:36Z</time></trkpt><trkpt lat="38.07265413822337" lon="13.174369731868456"><ele>276.0</ele><time>2026-03-29T07:57:37Z</time></trkpt><trkpt lat="38.07260287687995" lon="13.17428928352313"><ele>276.0</ele><time>2026-03-29T07:57:38Z</time></trkpt><trkpt lat="38.0725398489422" lon="13.174230766513332"><ele>276.0</ele><time>2026-03-29T07:57:39Z</time></trkpt><trkpt lat="38.072395034513605" lon="13.174210911823996"><ele>276.0</ele><time>2026-03-29T07:57:41Z</time></trkpt><trkpt lat="38.07231327187791" lon="13.174154451054775"><ele>275.5</ele><time>2026-03-29T07:58:47Z</time></trkpt><trkpt lat="38.07226204782177" lon="13.174102920179557"><ele>275.0</ele><time>2026-03-29T07:58:48Z</time></trkpt><trkpt lat="38.07220233882688" lon="13.174053848465267"><ele>274.5</ele><time>2026-03-29T07:58:49Z</time></trkpt><trkpt lat="38.07213444492162" lon="13.174012127471364"><ele>274.0</ele><time>2026-03-29T07:58:50Z</time></trkpt><trkpt lat="38.07206768590557" lon="13.173953481333392"><ele>273.5</ele><time>2026-03-29T07:58:51Z</time></trkpt><trkpt lat="38.07199440741004" lon="13.173926707514363"><ele>273.0</ele><time>2026-03-29T07:58:52Z</time></trkpt><trkpt lat="38.071914772624886" lon="13.173898876250542"><ele>273.0</ele><time>2026-03-29T07:58:53Z</time></trkpt><trkpt lat="38.07181926384525" lon="13.173865812393615"><ele>273.0</ele><time>2026-03-29T07:58:54Z</time></trkpt><trkpt lat="38.071721054021715" lon="13.173831813468436"><ele>273.0</ele><time>2026-03-29T07:58:55Z</time></trkpt><trkpt lat="38.07163285217947" lon="13.173801279196766"><ele>273.0</ele><time>2026-03-29T07:58:56Z</time></trkpt><trkpt lat="38.071546947226146" lon="13.173768824902274"><ele>273.0</ele><time>2026-03-29T07:58:57Z</time></trkpt><trkpt lat="38.07145577875917" lon="13.173740454121246"><ele>274.6</ele><time>2026-03-29T07:58:58Z</time></trkpt><trkpt lat="38.07135148915564" lon="13.173764675707758"><ele>276.20000000000005</ele><time>2026-03-29T07:58:59Z</time></trkpt><trkpt lat="38.071253278705136" lon="13.173738632531338"><ele>277.8</ele><time>2026-03-29T07:59:00Z</time></trkpt><trkpt lat="38.07115526511461" lon="13.173728717013795"><ele>279.40000000000003</ele><time>2026-03-29T07:59:01Z</time></trkpt><trkpt lat="38.0710625150215" lon="13.173741904555634"><ele>281.0</ele><time>2026-03-29T07:59:02Z</time></trkpt><trkpt lat="38.07096545610996" lon="13.173748050305045"><ele>281.0</ele><time>2026-03-29T07:59:03Z</time></trkpt><trkpt lat="38.07087636049302" lon="13.173764833649455"><ele>281.0</ele><time>2026-03-29T07:59:04Z</time></trkpt><trkpt lat="38.07078514774535" lon="13.17379513877641"><ele>281.0</ele><time>2026-03-29T07:59:05Z</time></trkpt><trkpt lat="38.07069776290228" lon="13.173829687777566"><ele>281.0</ele><time>2026-03-29T07:59:06Z</time></trkpt><trkpt lat="38.070614783399535" lon="13.173861436602246"><ele>281.0</ele><time>2026-03-29T07:59:07Z</time></trkpt><trkpt lat="38.07052464627116" lon="13.17389055816506"><ele>280.1666666666667</ele><time>2026-03-29T07:59:08Z</time></trkpt><trkpt lat="38.07043192514463" lon="13.173925654745842"><ele>279.33333333333337</ele><time>2026-03-29T07:59:09Z</time></trkpt><trkpt lat="38.07033877281812" lon="13.173961848350439"><ele>278.5</ele><time>2026-03-29T07:59:10Z</time></trkpt><trkpt lat="38.07026488074252" lon="13.174010545153514"><ele>277.6666666666667</ele><time>2026-03-29T07:59:11Z</time></trkpt><trkpt lat="38.070209762997266" lon="13.174088254538429"><ele>276.8333333333333</ele><time>2026-03-29T07:59:12Z</time></trkpt><trkpt lat="38.07014987171615" lon="13.174170144277989"><ele>276.0</ele><time>2026-03-29T07:59:13Z</time></trkpt><trkpt lat="38.07013348923992" lon="13.174292088979032"><ele>280.8</ele><time>2026-03-29T07:59:14Z</time></trkpt><trkpt lat="38.07011598426234" lon="13.174415083209647"><ele>285.6</ele><time>2026-03-29T07:59:15Z</time></trkpt><trkpt lat="38.07010628269551" lon="13.17455044845716"><ele>290.4</ele><time>2026-03-29T07:59:16Z</time></trkpt><trkpt lat="38.070102471386335" lon="13.174681543787424"><ele>295.2</ele><time>2026-03-29T07:59:17Z</time></trkpt><trkpt lat="38.07009608538271" lon="13.174805643660271"><ele>300.0</ele><time>2026-03-29T07:59:18Z</time></trkpt><trkpt lat="38.07009376833702" lon="13.174926150011782"><ele>302.6</ele><time>2026-03-29T07:59:19Z</time></trkpt><trkpt lat="38.070076344505715" lon="13.175035259251954"><ele>305.2</ele><time>2026-03-29T07:59:20Z</time></trkpt><trkpt lat="38.07007358862148" lon="13.175147206890239"><ele>307.8</ele><time>2026-03-29T07:59:21Z</time></trkpt><trkpt lat="38.07009685846371" lon="13.175261386253466"><ele>310.4</ele><time>2026-03-29T07:59:22Z</time></trkpt><trkpt lat="38.070108203818435" lon="13.175378968243866"><ele>313.0</ele><time>2026-03-29T07:59:23Z</time></trkpt><trkpt lat="38.07011918309938" lon="13.1754927563116"><ele>313.0</ele><time>2026-03-29T07:59:24Z</time></trkpt><trkpt lat="38.07005075520598" lon="13.175617839052325"><ele>313.0</ele><time>2026-03-29T07:59:25Z</time></trkpt><trkpt lat="38.070029438644355" lon="13.175732856570857"><ele>313.0</ele><time>2026-03-29T07:59:26Z</time></trkpt><trkpt lat="38.07000401204333" lon="13.175853154781068"><ele>313.0</ele><time>2026-03-29T07:59:27Z</time></trkpt><trkpt lat="38.069972782625854" lon="13.175977071634803"><ele>313.0</ele><time>2026-03-29T07:59:28Z</time></trkpt><trkpt lat="38.069932099212075" lon="13.176075577503811"><ele>309.6</ele><time>2026-03-29T07:59:29Z</time></trkpt><trkpt lat="38.06988603115589" lon="13.176185177596382"><ele>306.20000000000005</ele><time>2026-03-29T07:59:30Z</time></trkpt><trkpt lat="38.06983973633186" lon="13.176295773563357"><ele>302.8</ele><time>2026-03-29T07:59:31Z</time></trkpt><trkpt lat="38.069800535010195" lon="13.176411981407375"><ele>299.40000000000003</ele><time>2026-03-29T07:59:32Z</time></trkpt><trkpt lat="38.06977005216162" lon="13.176541132249842"><ele>296.0</ele><time>2026-03-29T07:59:33Z</time></trkpt><trkpt lat="38.06975824017716" lon="13.176636539721486"><ele>296.0</ele><time>2026-03-29T07:59:34Z</time></trkpt><trkpt lat="38.06972623567294" lon="13.176765563862803"><ele>296.0</ele><time>2026-03-29T07:59:35Z</time></trkpt><trkpt lat="38.069699241274314" lon="13.17688909938811"><ele>296.0</ele><time>2026-03-29T07:59:36Z</time></trkpt><trkpt lat="38.0696724346195" lon="13.177008973390144"><ele>296.0</ele><time>2026-03-29T07:59:37Z</time></trkpt><trkpt lat="38.06964532344995" lon="13.17713290225936"><ele>296.0</ele><time>2026-03-29T07:59:38Z</time></trkpt><trkpt lat="38.069607693973" lon="13.177265066821366"><ele>297.8</ele><time>2026-03-29T07:59:39Z</time></trkpt><trkpt lat="38.06956542270107" lon="13.17739375530567"><ele>299.6</ele><time>2026-03-29T07:59:40Z</time></trkpt><trkpt lat="38.06952831950203" lon="13.177519941035866"><ele>301.4</ele><time>2026-03-29T07:59:41Z</time></trkpt><trkpt lat="38.069490778265546" lon="13.177654451645656"><ele>303.2</ele><time>2026-03-29T07:59:42Z</time></trkpt><trkpt lat="38.06946276136905" lon="13.177790109719838"><ele>305.0</ele><time>2026-03-29T07:59:43Z</time></trkpt><trkpt lat="38.069437768763144" lon="13.177928822906848"><ele>305.0</ele><time>2026-03-29T07:59:44Z</time></trkpt><trkpt lat="38.06941138498564" lon="13.17806059504747"><ele>305.0</ele><time>2026-03-29T07:59:45Z</time></trkpt><trkpt lat="38.069390028438434" lon="13.178194321703767"><ele>305.0</ele><time>2026-03-29T07:59:46Z</time></trkpt><trkpt lat="38.06937714475025" lon="13.178327931797481"><ele>305.0</ele><time>2026-03-29T07:59:46.999Z</time></trkpt><trkpt lat="38.069360902986766" lon="13.178464274385375"><ele>305.0</ele><time>2026-03-29T07:59:47.999Z</time></trkpt><trkpt lat="38.06935540926902" lon="13.178594052245105"><ele>306.6</ele><time>2026-03-29T07:59:48.999Z</time></trkpt><trkpt lat="38.069342359360036" lon="13.178728850927197"><ele>308.2</ele><time>2026-03-29T07:59:49.999Z</time></trkpt><trkpt lat="38.069316712980964" lon="13.17885681655024"><ele>309.8</ele><time>2026-03-29T07:59:50.999Z</time></trkpt><trkpt lat="38.069274875599" lon="13.17898815731146"><ele>311.4</ele><time>2026-03-29T07:59:51.999Z</time></trkpt><trkpt lat="38.06923191943487" lon="13.179108970836362"><ele>313.0</ele><time>2026-03-29T07:59:52.999Z</time></trkpt><trkpt lat="38.06918357124327" lon="13.179233197268577"><ele>314.8</ele><time>2026-03-29T07:59:53.999Z</time></trkpt><trkpt lat="38.06913758483719" lon="13.17936273577874"><ele>316.6</ele><time>2026-03-29T07:59:54.999Z</time></trkpt><trkpt lat="38.06910606439017" lon="13.179490324715548"><ele>318.40000000000003</ele><time>2026-03-29T07:59:55.999Z</time></trkpt><trkpt lat="38.06907787643594" lon="13.17961986593676"><ele>320.20000000000005</ele><time>2026-03-29T07:59:56.999Z</time></trkpt><trkpt lat="38.06904550369322" lon="13.179746124708778"><ele>322.0</ele><time>2026-03-29T07:59:57.999Z</time></trkpt><trkpt lat="38.0690085238545" lon="13.17987524237207"><ele>322.0</ele><time>2026-03-29T07:59:58.999Z</time></trkpt><trkpt lat="38.0689625701248" lon="13.180005933062112"><ele>322.0</ele><time>2026-03-29T07:59:59.999Z</time></trkpt><trkpt lat="38.068921121051204" lon="13.180137026401193"><ele>322.0</ele><time>2026-03-29T08:00:00.999Z</time></trkpt><trkpt lat="38.068883248878265" lon="13.180260188700267"><ele>322.0</ele><time>2026-03-29T08:00:01.999Z</time></trkpt><trkpt lat="38.06883850964775" lon="13.18038523007546"><ele>322.0</ele><time>2026-03-29T08:00:02.999Z</time></trkpt><trkpt lat="38.0687952432783" lon="13.180507746174937"><ele>322.0</ele><time>2026-03-29T08:00:03.999Z</time></trkpt><trkpt lat="38.06875734743223" lon="13.180637907899593"><ele>322.0</ele><time>2026-03-29T08:00:04.999Z</time></trkpt><trkpt lat="38.068724898101905" lon="13.1807638969874"><ele>322.0</ele><time>2026-03-29T08:00:05.999Z</time></trkpt><trkpt lat="38.06869302772537" lon="13.180879821893008"><ele>322.0</ele><time>2026-03-29T08:00:06.999Z</time></trkpt><trkpt lat="38.06865735721122" lon="13.180999694623624"><ele>322.0</ele><time>2026-03-29T08:00:07.999Z</time></trkpt><trkpt lat="38.068626035164925" lon="13.18111584785741"><ele>322.0</ele><time>2026-03-29T08:00:08.999Z</time></trkpt><trkpt lat="38.06860071862145" lon="13.181230074482077"><ele>322.0</ele><time>2026-03-29T08:00:09.999Z</time></trkpt><trkpt lat="38.06857439733655" lon="13.18133704438982"><ele>322.0</ele><time>2026-03-29T08:00:10.999Z</time></trkpt><trkpt lat="38.06855590073763" lon="13.181449970378804"><ele>322.0</ele><time>2026-03-29T08:00:11.999Z</time></trkpt><trkpt lat="38.068537579915954" lon="13.181555255220982"><ele>322.0</ele><time>2026-03-29T08:00:12.999Z</time></trkpt><trkpt lat="38.068514267835646" lon="13.181674214293643"><ele>325.6</ele><time>2026-03-29T08:00:13.999Z</time></trkpt><trkpt lat="38.06849951293668" lon="13.18179768024012"><ele>329.20000000000005</ele><time>2026-03-29T08:00:14.999Z</time></trkpt><trkpt lat="38.06846896178386" lon="13.181920813205677"><ele>332.8</ele><time>2026-03-29T08:00:15.999Z</time></trkpt><trkpt lat="38.06843111498383" lon="13.182037997748768"><ele>336.4</ele><time>2026-03-29T08:00:16.999Z</time></trkpt><trkpt lat="38.06838406762732" lon="13.182159749149033"><ele>340.0</ele><time>2026-03-29T08:00:17.999Z</time></trkpt><trkpt lat="38.068330052333145" lon="13.18227982250368"><ele>340.6</ele><time>2026-03-29T08:00:18.999Z</time></trkpt><trkpt lat="38.06826869829807" lon="13.182401473805335"><ele>341.2</ele><time>2026-03-29T08:00:19.999Z</time></trkpt><trkpt lat="38.06820606873848" lon="13.18251902205429"><ele>341.79999999999995</ele><time>2026-03-29T08:00:20.999Z</time></trkpt><trkpt lat="38.06814154762048" lon="13.182630589576151"><ele>342.4</ele><time>2026-03-29T08:00:21.999Z</time></trkpt><trkpt lat="38.06807623305765" lon="13.182740786299677"><ele>343.0</ele><time>2026-03-29T08:00:22.999Z</time></trkpt><trkpt lat="38.0680124182672" lon="13.182849099542166"><ele>343.0</ele><time>2026-03-29T08:00:23.999Z</time></trkpt><trkpt lat="38.06794461464423" lon="13.182959201093475"><ele>343.0</ele><time>2026-03-29T08:00:24.999Z</time></trkpt><trkpt lat="38.067874107565245" lon="13.183065765610621"><ele>343.0</ele><time>2026-03-29T08:00:25.999Z</time></trkpt><trkpt lat="38.06780017392715" lon="13.183153806854651"><ele>343.0</ele><time>2026-03-29T08:00:26.999Z</time></trkpt><trkpt lat="38.06773273870074" lon="13.183233222452925"><ele>343.0</ele><time>2026-03-29T08:00:27.999Z</time></trkpt><trkpt lat="38.06767086695207" lon="13.183324979796103"><ele>345.59999999999997</ele><time>2026-03-29T08:00:28.999Z</time></trkpt><trkpt lat="38.06761282455628" lon="13.183419737579788"><ele>348.2</ele><time>2026-03-29T08:00:29.999Z</time></trkpt><trkpt lat="38.06754664204828" lon="13.183503069921397"><ele>350.8</ele><time>2026-03-29T08:00:30.999Z</time></trkpt><trkpt lat="38.067478528653695" lon="13.18359056490137"><ele>353.4</ele><time>2026-03-29T08:00:31.999Z</time></trkpt><trkpt lat="38.067417507152776" lon="13.183672297793498"><ele>356.0</ele><time>2026-03-29T08:00:32.999Z</time></trkpt><trkpt lat="38.06736754409451" lon="13.183757758219365"><ele>358.0</ele><time>2026-03-29T08:00:33.999Z</time></trkpt><trkpt lat="38.06732168135621" lon="13.183823353459868"><ele>360.0</ele><time>2026-03-29T08:00:34.999Z</time></trkpt><trkpt lat="38.06726743153116" lon="13.183883642052434"><ele>362.0</ele><time>2026-03-29T08:00:35.999Z</time></trkpt><trkpt lat="38.06720470865123" lon="13.18395905892526"><ele>364.0</ele><time>2026-03-29T08:00:36.999Z</time></trkpt><trkpt lat="38.06714337648673" lon="13.18403288584703"><ele>366.0</ele><time>2026-03-29T08:00:37.999Z</time></trkpt><trkpt lat="38.06708359973854" lon="13.184100699389075"><ele>368.0</ele><time>2026-03-29T08:00:38.999Z</time></trkpt><trkpt lat="38.06701761239896" lon="13.18416874440876"><ele>368.2</ele><time>2026-03-29T08:00:39.999Z</time></trkpt><trkpt lat="38.06694587218786" lon="13.184237461141699"><ele>368.4</ele><time>2026-03-29T08:00:40.999Z</time></trkpt><trkpt lat="38.06688515710285" lon="13.184298688392316"><ele>368.59999999999997</ele><time>2026-03-29T08:00:41.999Z</time></trkpt><trkpt lat="38.06680908107198" lon="13.184368668376637"><ele>368.79999999999995</ele><time>2026-03-29T08:00:42.999Z</time></trkpt><trkpt lat="38.06673804479868" lon="13.184429382755859"><ele>369.0</ele><time>2026-03-29T08:00:43.999Z</time></trkpt><trkpt lat="38.06665273369906" lon="13.184504922431515"><ele>371.2</ele><time>2026-03-29T08:00:44.999Z</time></trkpt><trkpt lat="38.066567800255136" lon="13.184576833111368"><ele>373.4</ele><time>2026-03-29T08:00:45.999Z</time></trkpt><trkpt lat="38.066477398301586" lon="13.184648636885886"><ele>375.6</ele><time>2026-03-29T08:00:46.999Z</time></trkpt><trkpt lat="38.066386469619786" lon="13.184715388425134"><ele>377.8</ele><time>2026-03-29T08:00:47.999Z</time></trkpt><trkpt lat="38.06629873410852" lon="13.184785616731618"><ele>380.0</ele><time>2026-03-29T08:00:48.999Z</time></trkpt><trkpt lat="38.06621474766095" lon="13.184860671211785"><ele>380.0</ele><time>2026-03-29T08:00:49.999Z</time></trkpt><trkpt lat="38.06615099374377" lon="13.184930611629074"><ele>380.0</ele><time>2026-03-29T08:00:51Z</time></trkpt><trkpt lat="38.06610358118073" lon="13.185013688567471"><ele>380.0</ele><time>2026-03-29T08:00:52Z</time></trkpt><trkpt lat="38.06606704895834" lon="13.18508643799982"><ele>380.0</ele><time>2026-03-29T08:00:53Z</time></trkpt><trkpt lat="38.06601334043141" lon="13.185176822297139"><ele>380.0</ele><time>2026-03-29T08:00:54Z</time></trkpt><trkpt lat="38.065946399937694" lon="13.185269424659518"><ele>380.0</ele><time>2026-03-29T08:00:55Z</time></trkpt><trkpt lat="38.0659008885743" lon="13.185353271842267"><ele>380.0</ele><time>2026-03-29T08:00:56Z</time></trkpt><trkpt lat="38.065873406335" lon="13.185453709584033"><ele>380.0</ele><time>2026-03-29T08:00:57Z</time></trkpt><trkpt lat="38.06585099944401" lon="13.185548252865718"><ele>380.0</ele><time>2026-03-29T08:00:58Z</time></trkpt><trkpt lat="38.065840062418935" lon="13.185702667206812"><ele>380.0</ele><time>2026-03-29T08:01:00Z</time></trkpt><trkpt lat="38.06584302192228" lon="13.185792094507109"><ele>380.0</ele><time>2026-03-29T08:01:01Z</time></trkpt><trkpt lat="38.065826025722764" lon="13.18589829025931"><ele>380.0</ele><time>2026-03-29T08:01:02Z</time></trkpt><trkpt lat="38.06580561800951" lon="13.18601283013466"><ele>382.83333333333337</ele><time>2026-03-29T08:01:03Z</time></trkpt><trkpt lat="38.065792699922646" lon="13.186117326634562"><ele>385.6666666666667</ele><time>2026-03-29T08:01:04Z</time></trkpt><trkpt lat="38.065783384647695" lon="13.186211105549324"><ele>388.5</ele><time>2026-03-29T08:01:05Z</time></trkpt><trkpt lat="38.06577625691185" lon="13.186326481921334"><ele>391.33333333333337</ele><time>2026-03-29T08:01:06Z</time></trkpt><trkpt lat="38.065758979193184" lon="13.186428476323053"><ele>394.1666666666667</ele><time>2026-03-29T08:01:07Z</time></trkpt><trkpt lat="38.06573311329214" lon="13.186525638307034"><ele>397.0</ele><time>2026-03-29T08:01:08Z</time></trkpt><trkpt lat="38.065715637384294" lon="13.186628175863726"><ele>399.20000000000005</ele><time>2026-03-29T08:01:09Z</time></trkpt><trkpt lat="38.065723032028224" lon="13.186719101506831"><ele>401.4</ele><time>2026-03-29T08:01:10Z</time></trkpt><trkpt lat="38.06569808806107" lon="13.1868210181966"><ele>403.6</ele><time>2026-03-29T08:01:11Z</time></trkpt><trkpt lat="38.06566038657624" lon="13.186987060992672"><ele>405.79999999999995</ele><time>2026-03-29T08:01:13Z</time></trkpt><trkpt lat="38.065644854301745" lon="13.18707755289575"><ele>408.0</ele><time>2026-03-29T08:01:14Z</time></trkpt><trkpt lat="38.06563030787753" lon="13.187188291393586"><ele>408.0</ele><time>2026-03-29T08:01:15Z</time></trkpt><trkpt lat="38.06562070715618" lon="13.187272634853356"><ele>408.0</ele><time>2026-03-29T08:01:16Z</time></trkpt><trkpt lat="38.06562033158356" lon="13.187444121000555"><ele>408.0</ele><time>2026-03-29T08:01:18Z</time></trkpt><trkpt lat="38.065634017552306" lon="13.187548262154452"><ele>408.0</ele><time>2026-03-29T08:01:19Z</time></trkpt><trkpt lat="38.06564396855965" lon="13.18763089940213"><ele>408.0</ele><time>2026-03-29T08:01:20Z</time></trkpt><trkpt lat="38.06566460148223" lon="13.18771503184735"><ele>408.0</ele><time>2026-03-29T08:01:21Z</time></trkpt><trkpt lat="38.06569479289531" lon="13.187810079105518"><ele>409.79999999999995</ele><time>2026-03-29T08:01:22Z</time></trkpt><trkpt lat="38.06571374499585" lon="13.187891348216297"><ele>411.6</ele><time>2026-03-29T08:01:23Z</time></trkpt><trkpt lat="38.06569456507269" lon="13.188007752645522"><ele>413.4</ele><time>2026-03-29T08:01:25Z</time></trkpt><trkpt lat="38.0656202189385" lon="13.188059846839494"><ele>415.20000000000005</ele><time>2026-03-29T08:01:26.999Z</time></trkpt><trkpt lat="38.06552845747398" lon="13.18800327705344"><ele>417.0</ele><time>2026-03-29T08:01:28.999Z</time></trkpt><trkpt lat="38.06542634615113" lon="13.187980059816176"><ele>417.0</ele><time>2026-03-29T08:01:30.999Z</time></trkpt><trkpt lat="38.06535515772147" lon="13.187984147704302"><ele>417.0</ele><time>2026-03-29T08:01:31.999Z</time></trkpt><trkpt lat="38.06523547275815" lon="13.187989090611799"><ele>417.0</ele><time>2026-03-29T08:01:33.999Z</time></trkpt><trkpt lat="38.06515713851479" lon="13.188015414824774"><ele>417.0</ele><time>2026-03-29T08:01:34.999Z</time></trkpt><trkpt lat="38.065092775355964" lon="13.187997778325165"><ele>417.0</ele><time>2026-03-29T08:01:35.999Z</time></trkpt><trkpt lat="38.064983165807526" lon="13.18800594624797"><ele>417.0</ele><time>2026-03-29T08:01:37.999Z</time></trkpt><trkpt lat="38.064921184353615" lon="13.18802892773518"><ele>419.1666666666667</ele><time>2026-03-29T08:01:38.999Z</time></trkpt><trkpt lat="38.06485557929901" lon="13.188066155544872"><ele>421.33333333333337</ele><time>2026-03-29T08:01:39.999Z</time></trkpt><trkpt lat="38.0647838739793" lon="13.188109693789684"><ele>423.5</ele><time>2026-03-29T08:01:40.999Z</time></trkpt><trkpt lat="38.06472041724483" lon="13.188158385619525"><ele>425.6666666666667</ele><time>2026-03-29T08:01:41.999Z</time></trkpt><trkpt lat="38.064636632600845" lon="13.188220607203451"><ele>427.83333333333337</ele><time>2026-03-29T08:01:42.999Z</time></trkpt><trkpt lat="38.06457034391787" lon="13.188265903620238"><ele>430.0</ele><time>2026-03-29T08:01:43.999Z</time></trkpt><trkpt lat="38.06445880379284" lon="13.18831430683673"><ele>430.0</ele><time>2026-03-29T08:01:45.999Z</time></trkpt><trkpt lat="38.06436932719518" lon="13.188376941371583"><ele>430.0</ele><time>2026-03-29T08:01:47.999Z</time></trkpt><trkpt lat="38.064309236378236" lon="13.188403164584704"><ele>430.0</ele><time>2026-03-29T08:01:48.999Z</time></trkpt><trkpt lat="38.064199715012926" lon="13.188456535752128"><ele>430.0</ele><time>2026-03-29T08:01:51Z</time></trkpt><trkpt lat="38.06409893717603" lon="13.188460378583853"><ele>430.0</ele><time>2026-03-29T08:01:53Z</time></trkpt><trkpt lat="38.06409194543474" lon="13.188355549191494"><ele>430.00000000000006</ele><time>2026-03-29T08:01:55Z</time></trkpt><trkpt lat="38.06411591951181" lon="13.188240308353967"><ele>430.0</ele><time>2026-03-29T08:01:57Z</time></trkpt><trkpt lat="38.064175569830574" lon="13.188154968554086"><ele>430.0</ele><time>2026-03-29T08:01:59Z</time></trkpt><trkpt lat="38.064214868021764" lon="13.188040109348847"><ele>430.0</ele><time>2026-03-29T08:02:01Z</time></trkpt><trkpt lat="38.064223383031496" lon="13.187942349044643"><ele>430.00000000000006</ele><time>2026-03-29T08:02:03Z</time></trkpt><trkpt lat="38.06421439754288" lon="13.18784462423395"><ele>430.0</ele><time>2026-03-29T08:02:05Z</time></trkpt><trkpt lat="38.06420419558643" lon="13.187763461129133"><ele>431.33333333333337</ele><time>2026-03-29T08:02:06Z</time></trkpt><trkpt lat="38.06423027417604" lon="13.187678094344312"><ele>432.6666666666667</ele><time>2026-03-29T08:02:08Z</time></trkpt><trkpt lat="38.064225675217266" lon="13.18754337017001"><ele>434.0</ele><time>2026-03-29T08:02:10Z</time></trkpt><trkpt lat="38.06422657683175" lon="13.187452485711365"><ele>435.33333333333337</ele><time>2026-03-29T08:02:12Z</time></trkpt><trkpt lat="38.06424508552067" lon="13.18736726142742"><ele>436.6666666666667</ele><time>2026-03-29T08:02:14Z</time></trkpt><trkpt lat="38.064264355840976" lon="13.187212153960614"><ele>438.0</ele><time>2026-03-29T08:02:16Z</time></trkpt><trkpt lat="38.06425812487774" lon="13.187124596965562"><ele>439.5</ele><time>2026-03-29T08:02:17Z</time></trkpt><trkpt lat="38.064240556777285" lon="13.18703583084851"><ele>441.0</ele><time>2026-03-29T08:02:18Z</time></trkpt><trkpt lat="38.06421258652123" lon="13.186887891576532"><ele>442.5</ele><time>2026-03-29T08:02:20Z</time></trkpt><trkpt lat="38.06421492898147" lon="13.186801672981554"><ele>444.0</ele><time>2026-03-29T08:02:21Z</time></trkpt><trkpt lat="38.06421921022249" lon="13.186642238363897"><ele>445.5</ele><time>2026-03-29T08:02:23Z</time></trkpt><trkpt lat="38.064220203577676" lon="13.186561941641676"><ele>447.0</ele><time>2026-03-29T08:02:24Z</time></trkpt><trkpt lat="38.06422247202837" lon="13.186479029564305"><ele>447.8333333333333</ele><time>2026-03-29T08:02:25Z</time></trkpt><trkpt lat="38.064224993053365" lon="13.186364758030361"><ele>448.66666666666663</ele><time>2026-03-29T08:02:27Z</time></trkpt><trkpt lat="38.064194319168095" lon="13.186269522736444"><ele>449.5</ele><time>2026-03-29T08:04:04Z</time></trkpt><trkpt lat="38.06421066329411" lon="13.186128444887009"><ele>450.3333333333333</ele><time>2026-03-29T08:04:06Z</time></trkpt><trkpt lat="38.06420399550791" lon="13.186044190137672"><ele>451.16666666666663</ele><time>2026-03-29T08:04:07Z</time></trkpt><trkpt lat="38.06421536984875" lon="13.185950248590974"><ele>452.0</ele><time>2026-03-29T08:04:09Z</time></trkpt><trkpt lat="38.06422371591881" lon="13.185805404923657"><ele>452.0</ele><time>2026-03-29T08:04:11Z</time></trkpt><trkpt lat="38.06422172220472" lon="13.185693985836448"><ele>452.00000000000006</ele><time>2026-03-29T08:04:13Z</time></trkpt><trkpt lat="38.06416140200533" lon="13.185589120417035"><ele>452.00000000000006</ele><time>2026-03-29T08:04:15Z</time></trkpt><trkpt lat="38.064102159684026" lon="13.185520314594555"><ele>452.0</ele><time>2026-03-29T08:04:17Z</time></trkpt><trkpt lat="38.06404445543959" lon="13.185445195550628"><ele>452.0</ele><time>2026-03-29T08:04:19Z</time></trkpt><trkpt lat="38.063967750836404" lon="13.185359899067459"><ele>453.16666666666663</ele><time>2026-03-29T08:04:21Z</time></trkpt><trkpt lat="38.06388723240976" lon="13.185343401093059"><ele>454.3333333333333</ele><time>2026-03-29T08:04:23Z</time></trkpt><trkpt lat="38.063813694853856" lon="13.185397647272552"><ele>455.5</ele><time>2026-03-29T08:04:25Z</time></trkpt><trkpt lat="38.06374223742011" lon="13.185455508297762"><ele>456.66666666666663</ele><time>2026-03-29T08:04:27Z</time></trkpt><trkpt lat="38.06367319650997" lon="13.185489454457244"><ele>457.8333333333333</ele><time>2026-03-29T08:04:30Z</time></trkpt><trkpt lat="38.06361226396296" lon="13.185584805649762"><ele>459.0</ele><time>2026-03-29T08:05:08Z</time></trkpt><trkpt lat="38.06354804306939" lon="13.185667090298288"><ele>459.0</ele><time>2026-03-29T08:05:10Z</time></trkpt><trkpt lat="38.06349811205534" lon="13.185734037807444"><ele>459.0</ele><time>2026-03-29T08:05:12Z</time></trkpt><trkpt lat="38.06345261672079" lon="13.185812709527264"><ele>459.0</ele><time>2026-03-29T08:05:14Z</time></trkpt><trkpt lat="38.06351165865378" lon="13.185732602490168"><ele>459.0</ele><time>2026-03-29T08:05:40Z</time></trkpt><trkpt lat="38.06355769304925" lon="13.18567577778299"><ele>459.0</ele><time>2026-03-29T08:05:42Z</time></trkpt><trkpt lat="38.063603230177264" lon="13.18560220810921"><ele>459.0</ele><time>2026-03-29T08:05:44Z</time></trkpt><trkpt lat="38.06367021301103" lon="13.185516655244516"><ele>459.0</ele><time>2026-03-29T08:05:46Z</time></trkpt><trkpt lat="38.06374103100997" lon="13.185445585185908"><ele>459.0</ele><time>2026-03-29T08:05:49Z</time></trkpt><trkpt lat="38.063816241043284" lon="13.185419945848077"><ele>459.0</ele><time>2026-03-29T08:05:51Z</time></trkpt><trkpt lat="38.063883809868415" lon="13.185371616910558"><ele>459.0</ele><time>2026-03-29T08:05:53Z</time></trkpt><trkpt lat="38.063965435114454" lon="13.185357891198347"><ele>459.0</ele><time>2026-03-29T08:05:55Z</time></trkpt><trkpt lat="38.06402545970916" lon="13.185404456074876"><ele>459.0</ele><time>2026-03-29T08:05:57Z</time></trkpt><trkpt lat="38.064085437124135" lon="13.185474758090143"><ele>457.8333333333333</ele><time>2026-03-29T08:05:59Z</time></trkpt><trkpt lat="38.06413810742033" lon="13.185554986092113"><ele>456.66666666666663</ele><time>2026-03-29T08:06:01Z</time></trkpt><trkpt lat="38.064191956964635" lon="13.185626564754722"><ele>455.5</ele><time>2026-03-29T08:06:03Z</time></trkpt><trkpt lat="38.0642414032414" lon="13.185705459483767"><ele>454.3333333333333</ele><time>2026-03-29T08:06:05Z</time></trkpt><trkpt lat="38.06425544622721" lon="13.185797073215143"><ele>453.16666666666663</ele><time>2026-03-29T08:06:07Z</time></trkpt><trkpt lat="38.06426347226991" lon="13.185897751495146"><ele>452.0</ele><time>2026-03-29T08:06:09Z</time></trkpt><trkpt lat="38.06426741821746" lon="13.186026724919847"><ele>452.0</ele><time>2026-03-29T08:06:11Z</time></trkpt><trkpt lat="38.064257041720076" lon="13.186134176405206"><ele>452.00000000000006</ele><time>2026-03-29T08:06:13Z</time></trkpt><trkpt lat="38.06423064342066" lon="13.186249784266682"><ele>452.00000000000006</ele><time>2026-03-29T08:06:15Z</time></trkpt><trkpt lat="38.064229964392126" lon="13.186354797190827"><ele>452.0</ele><time>2026-03-29T08:06:17Z</time></trkpt><trkpt lat="38.06423142407396" lon="13.186487560668718"><ele>452.0</ele><time>2026-03-29T08:06:19Z</time></trkpt><trkpt lat="38.06422363127475" lon="13.186607199809384"><ele>451.0</ele><time>2026-03-29T08:06:21Z</time></trkpt><trkpt lat="38.06421538577906" lon="13.186740438360918"><ele>450.00000000000006</ele><time>2026-03-29T08:06:23Z</time></trkpt><trkpt lat="38.064218313009704" lon="13.186878600235936"><ele>449.00000000000006</ele><time>2026-03-29T08:06:25Z</time></trkpt><trkpt lat="38.06421923425246" lon="13.187014034893071"><ele>448.0</ele><time>2026-03-29T08:06:27Z</time></trkpt><trkpt lat="38.064240422856784" lon="13.187133657034783"><ele>447.0</ele><time>2026-03-29T08:06:29Z</time></trkpt><trkpt lat="38.06425084760403" lon="13.187247957045383"><ele>445.5</ele><time>2026-03-29T08:06:31Z</time></trkpt><trkpt lat="38.06423309261066" lon="13.187349156008937"><ele>444.0</ele><time>2026-03-29T08:06:33Z</time></trkpt><trkpt lat="38.06421745234894" lon="13.187448244000233"><ele>442.5</ele><time>2026-03-29T08:06:35Z</time></trkpt><trkpt lat="38.06420651628011" lon="13.187550436251374"><ele>441.0</ele><time>2026-03-29T08:06:37Z</time></trkpt><trkpt lat="38.06422106695947" lon="13.187646644477153"><ele>439.5</ele><time>2026-03-29T08:06:40Z</time></trkpt><trkpt lat="38.06422031541599" lon="13.18773946116073"><ele>438.0</ele><time>2026-03-29T08:06:42Z</time></trkpt><trkpt lat="38.06420235112535" lon="13.18781825110727"><ele>438.0</ele><time>2026-03-29T08:06:44Z</time></trkpt><trkpt lat="38.06421352880138" lon="13.187909549462418"><ele>438.0</ele><time>2026-03-29T08:06:46Z</time></trkpt><trkpt lat="38.06422070304716" lon="13.18801404420738"><ele>438.0</ele><time>2026-03-29T08:06:48Z</time></trkpt><trkpt lat="38.06420296494425" lon="13.188111911784498"><ele>438.0</ele><time>2026-03-29T08:06:50Z</time></trkpt><trkpt lat="38.06417525804928" lon="13.18819753674397"><ele>438.0</ele><time>2026-03-29T08:06:52Z</time></trkpt><trkpt lat="38.06413264500516" lon="13.188289966980102"><ele>438.0</ele><time>2026-03-29T08:06:54Z</time></trkpt><trkpt lat="38.06409722628357" lon="13.188369159578842"><ele>436.4</ele><time>2026-03-29T08:06:56Z</time></trkpt><trkpt lat="38.06412859536909" lon="13.188444090036798"><ele>434.79999999999995</ele><time>2026-03-29T08:06:58Z</time></trkpt><trkpt lat="38.06420622260216" lon="13.188464432400277"><ele>433.2</ele><time>2026-03-29T08:07:00Z</time></trkpt><trkpt lat="38.06429797174034" lon="13.188420270590123"><ele>431.6</ele><time>2026-03-29T08:07:02Z</time></trkpt><trkpt lat="38.064401039358906" lon="13.188367269137586"><ele>430.0</ele><time>2026-03-29T08:07:04Z</time></trkpt><trkpt lat="38.0644931981478" lon="13.188300309499432"><ele>430.0</ele><time>2026-03-29T08:07:06Z</time></trkpt><trkpt lat="38.06455971591929" lon="13.188263866086038"><ele>430.0</ele><time>2026-03-29T08:07:08Z</time></trkpt><trkpt lat="38.064651442683655" lon="13.188214232161721"><ele>430.0</ele><time>2026-03-29T08:07:10Z</time></trkpt><trkpt lat="38.06475068692407" lon="13.188138557274316"><ele>430.0</ele><time>2026-03-29T08:07:12Z</time></trkpt><trkpt lat="38.06484950543016" lon="13.18807299485828"><ele>430.0</ele><time>2026-03-29T08:07:14Z</time></trkpt><trkpt lat="38.06491256052035" lon="13.188057777246726"><ele>430.00000000000006</ele><time>2026-03-29T08:07:16Z</time></trkpt><trkpt lat="38.06492818791449" lon="13.188186876026402"><ele>430.0</ele><time>2026-03-29T08:07:20Z</time></trkpt><trkpt lat="38.064924828087854" lon="13.188294886041227"><ele>430.0</ele><time>2026-03-29T08:07:22Z</time></trkpt><trkpt lat="38.06493331728194" lon="13.18839307645661"><ele>430.0</ele><time>2026-03-29T08:07:24Z</time></trkpt><trkpt lat="38.064927649642904" lon="13.18848707208796"><ele>430.00000000000006</ele><time>2026-03-29T08:07:26Z</time></trkpt><trkpt lat="38.06492116379766" lon="13.188598845342247"><ele>430.0</ele><time>2026-03-29T08:07:28Z</time></trkpt><trkpt lat="38.06488524665254" lon="13.18870251799404"><ele>430.00000000000006</ele><time>2026-03-29T08:07:30Z</time></trkpt><trkpt lat="38.064862651895275" lon="13.188818072547988"><ele>430.0</ele><time>2026-03-29T08:07:32Z</time></trkpt><trkpt lat="38.0648228400363" lon="13.18892592317066"><ele>430.0</ele><time>2026-03-29T08:07:34Z</time></trkpt><trkpt lat="38.064793773659446" lon="13.189033061586102"><ele>430.0</ele><time>2026-03-29T08:07:36Z</time></trkpt><trkpt lat="38.06477818456468" lon="13.189143355935478"><ele>430.00000000000006</ele><time>2026-03-29T08:07:38Z</time></trkpt><trkpt lat="38.064798383720316" lon="13.189232808844965"><ele>430.0</ele><time>2026-03-29T08:07:40Z</time></trkpt><trkpt lat="38.064842276140915" lon="13.189301719871185"><ele>432.33333333333337</ele><time>2026-03-29T08:07:42Z</time></trkpt><trkpt lat="38.064883014483584" lon="13.189399119822232"><ele>434.6666666666667</ele><time>2026-03-29T08:07:44Z</time></trkpt><trkpt lat="38.06490710871138" lon="13.189487461560264"><ele>437.0</ele><time>2026-03-29T08:07:46Z</time></trkpt><trkpt lat="38.0649821945878" lon="13.18955131227676"><ele>439.33333333333337</ele><time>2026-03-29T08:07:49Z</time></trkpt><trkpt lat="38.065015780958504" lon="13.189622660622092"><ele>441.6666666666667</ele><time>2026-03-29T08:07:51Z</time></trkpt><trkpt lat="38.06505562697469" lon="13.18971111917349"><ele>444.0</ele><time>2026-03-29T08:07:53Z</time></trkpt><trkpt lat="38.06504794685227" lon="13.189828000681748"><ele>447.8333333333333</ele><time>2026-03-29T08:07:56Z</time></trkpt><trkpt lat="38.0649832957068" lon="13.189865224612577"><ele>451.66666666666663</ele><time>2026-03-29T08:07:58Z</time></trkpt><trkpt lat="38.064922613979775" lon="13.189895213382727"><ele>455.5</ele><time>2026-03-29T08:08:00Z</time></trkpt><trkpt lat="38.06487047524718" lon="13.189960536737438"><ele>459.3333333333333</ele><time>2026-03-29T08:08:05Z</time></trkpt><trkpt lat="38.064805563125795" lon="13.190021364469066"><ele>463.16666666666663</ele><time>2026-03-29T08:08:08Z</time></trkpt><trkpt lat="38.064736909362026" lon="13.190022745433994"><ele>467.0</ele><time>2026-03-29T08:08:10Z</time></trkpt><trkpt lat="38.064642962078274" lon="13.190061905373923"><ele>466.99999999999994</ele><time>2026-03-29T08:08:14Z</time></trkpt><trkpt lat="38.064543562624266" lon="13.190097750732837"><ele>467.0</ele><time>2026-03-29T08:08:21Z</time></trkpt><trkpt lat="38.064478327574676" lon="13.190138467114979"><ele>467.0</ele><time>2026-03-29T08:08:25Z</time></trkpt><trkpt lat="38.064441447186034" lon="13.190204411593541"><ele>467.0</ele><time>2026-03-29T08:08:29Z</time></trkpt><trkpt lat="38.064482797160316" lon="13.190275923937923"><ele>466.99999999999994</ele><time>2026-03-29T08:08:32Z</time></trkpt><trkpt lat="38.06452755179161" lon="13.19035033916214"><ele>467.0</ele><time>2026-03-29T08:08:35Z</time></trkpt><trkpt lat="38.064532005607475" lon="13.19043908890955"><ele>466.99999999999994</ele><time>2026-03-29T08:08:38Z</time></trkpt><trkpt lat="38.064506493307206" lon="13.190529930976918"><ele>467.0</ele><time>2026-03-29T08:08:40Z</time></trkpt><trkpt lat="38.06446886078466" lon="13.19059488319826"><ele>466.99999999999994</ele><time>2026-03-29T08:08:42Z</time></trkpt><trkpt lat="38.064448112422525" lon="13.190672970470906"><ele>466.99999999999994</ele><time>2026-03-29T08:08:46Z</time></trkpt><trkpt lat="38.06443526330387" lon="13.190757605668981"><ele>467.0</ele><time>2026-03-29T08:08:49Z</time></trkpt><trkpt lat="38.06443190834702" lon="13.190854996795608"><ele>466.99999999999994</ele><time>2026-03-29T08:08:57Z</time></trkpt><trkpt lat="38.06442332044569" lon="13.190936551139592"><ele>466.99999999999994</ele><time>2026-03-29T08:08:59Z</time></trkpt><trkpt lat="38.064408648186244" lon="13.191018718533373"><ele>469.1428571428571</ele><time>2026-03-29T08:09:11Z</time></trkpt><trkpt lat="38.064338327612155" lon="13.191048562594352"><ele>471.2857142857143</ele><time>2026-03-29T08:09:21Z</time></trkpt><trkpt lat="38.06428837694767" lon="13.191114210194256"><ele>473.42857142857144</ele><time>2026-03-29T08:10:00Z</time></trkpt><trkpt lat="38.064205596099356" lon="13.191135665744387"><ele>475.57142857142856</ele><time>2026-03-29T08:10:03Z</time></trkpt><trkpt lat="38.06414178584355" lon="13.191171193801233"><ele>477.7142857142858</ele><time>2026-03-29T08:10:08Z</time></trkpt><trkpt lat="38.064077054679046" lon="13.191228096769583"><ele>479.8571428571429</ele><time>2026-03-29T08:10:13Z</time></trkpt><trkpt lat="38.064029321132736" lon="13.191291952215511"><ele>482.0</ele><time>2026-03-29T08:10:28Z</time></trkpt><trkpt lat="38.063961190826674" lon="13.191273309002137"><ele>481.99999999999994</ele><time>2026-03-29T08:10:42Z</time></trkpt><trkpt lat="38.0639631808181" lon="13.19138528743685"><ele>482.0</ele><time>2026-03-29T08:10:45Z</time></trkpt><trkpt lat="38.0639656179145" lon="13.191475007453931"><ele>482.0</ele><time>2026-03-29T08:10:47Z</time></trkpt><trkpt lat="38.06392996486045" lon="13.191541545600964"><ele>482.0</ele><time>2026-03-29T08:10:49Z</time></trkpt><trkpt lat="38.0638750707992" lon="13.19161191542094"><ele>481.99999999999994</ele><time>2026-03-29T08:10:51Z</time></trkpt><trkpt lat="38.06379102087315" lon="13.191664963143126"><ele>482.0</ele><time>2026-03-29T08:11:06Z</time></trkpt><trkpt lat="38.063727269757756" lon="13.191672696458768"><ele>485.49999999999994</ele><time>2026-03-29T08:11:08Z</time></trkpt><trkpt lat="38.063659236394585" lon="13.191738781240486"><ele>489.0</ele><time>2026-03-29T08:11:11Z</time></trkpt><trkpt lat="38.06360156259762" lon="13.19181875909431"><ele>492.5</ele><time>2026-03-29T08:11:13Z</time></trkpt><trkpt lat="38.06352773161188" lon="13.191914348970117"><ele>496.0</ele><time>2026-03-29T08:11:16Z</time></trkpt><trkpt lat="38.06346682076095" lon="13.191958222659162"><ele>499.49999999999994</ele><time>2026-03-29T08:11:19Z</time></trkpt><trkpt lat="38.06339644455946" lon="13.191966272717886"><ele>503.0</ele><time>2026-03-29T08:11:22Z</time></trkpt><trkpt lat="38.063369489359765" lon="13.19206497260122"><ele>502.99999999999994</ele><time>2026-03-29T08:11:26Z</time></trkpt><trkpt lat="38.063371977685435" lon="13.1921582727584"><ele>503.0</ele><time>2026-03-29T08:11:28Z</time></trkpt><trkpt lat="38.06334493822455" lon="13.192252514376142"><ele>503.0</ele><time>2026-03-29T08:11:30Z</time></trkpt><trkpt lat="38.06332266363466" lon="13.192342984524855"><ele>503.0</ele><time>2026-03-29T08:11:32Z</time></trkpt><trkpt lat="38.063324948734" lon="13.192435004755835"><ele>502.99999999999994</ele><time>2026-03-29T08:11:34Z</time></trkpt><trkpt lat="38.06331760399363" lon="13.19252862844099"><ele>503.0</ele><time>2026-03-29T08:11:38Z</time></trkpt><trkpt lat="38.06329521906459" lon="13.192649482595602"><ele>506.42857142857144</ele><time>2026-03-29T08:11:55Z</time></trkpt><trkpt lat="38.06324057276328" lon="13.192698523703204"><ele>509.8571428571429</ele><time>2026-03-29T08:13:02Z</time></trkpt><trkpt lat="38.06325576021481" lon="13.192778033736221"><ele>513.2857142857143</ele><time>2026-03-29T08:13:29Z</time></trkpt><trkpt lat="38.06317359245422" lon="13.192781534197625"><ele>516.7142857142858</ele><time>2026-03-29T08:13:45Z</time></trkpt><trkpt lat="38.063105009014016" lon="13.192775801359238"><ele>520.1428571428571</ele><time>2026-03-29T08:13:58Z</time></trkpt><trkpt lat="38.063024801149055" lon="13.192765320503595"><ele>523.5714285714287</ele><time>2026-03-29T08:14:03Z</time></trkpt><trkpt lat="38.062941216267674" lon="13.192775510278684"><ele>527.0</ele><time>2026-03-29T08:14:08Z</time></trkpt><trkpt lat="38.0628658892108" lon="13.192787776276049"><ele>527.0000000000001</ele><time>2026-03-29T08:14:11Z</time></trkpt><trkpt lat="38.062794921353166" lon="13.192787195878227"><ele>527.0</ele><time>2026-03-29T08:14:14Z</time></trkpt><trkpt lat="38.06272908589779" lon="13.192769898741245"><ele>527.0</ele><time>2026-03-29T08:14:16Z</time></trkpt><trkpt lat="38.062665960576275" lon="13.192768772009602"><ele>527.0</ele><time>2026-03-29T08:14:18Z</time></trkpt><trkpt lat="38.06260268925868" lon="13.192799225487608"><ele>527.0</ele><time>2026-03-29T08:14:20Z</time></trkpt><trkpt lat="38.06253750139435" lon="13.192850033042006"><ele>527.0000000000001</ele><time>2026-03-29T08:14:23Z</time></trkpt><trkpt lat="38.062477534989334" lon="13.19288358729109"><ele>527.0</ele><time>2026-03-29T08:14:41Z</time></trkpt><trkpt lat="38.06240815241637" lon="13.192912333141292"><ele>528.5</ele><time>2026-03-29T08:14:44Z</time></trkpt><trkpt lat="38.06233586012004" lon="13.192908586071896"><ele>530.0</ele><time>2026-03-29T08:16:40Z</time></trkpt><trkpt lat="38.062262316059716" lon="13.192923837560963"><ele>531.5</ele><time>2026-03-29T08:16:43Z</time></trkpt><trkpt lat="38.062181059179444" lon="13.192946373495204"><ele>533.0</ele><time>2026-03-29T08:16:46Z</time></trkpt><trkpt lat="38.06209830587134" lon="13.192971239138368"><ele>534.5</ele><time>2026-03-29T08:16:49Z</time></trkpt><trkpt lat="38.062036368619026" lon="13.192997799262638"><ele>536.0</ele><time>2026-03-29T08:16:51Z</time></trkpt><trkpt lat="38.06196866020429" lon="13.193058074437797"><ele>536.0</ele><time>2026-03-29T08:16:54Z</time></trkpt><trkpt lat="38.061906922933055" lon="13.193133710036422"><ele>536.0</ele><time>2026-03-29T08:16:57Z</time></trkpt><trkpt lat="38.06186622502415" lon="13.193216928968319"><ele>536.0</ele><time>2026-03-29T08:16:59Z</time></trkpt><trkpt lat="38.06180173004591" lon="13.193301935288243"><ele>536.0</ele><time>2026-03-29T08:17:02Z</time></trkpt><trkpt lat="38.06177948862027" lon="13.193383356410699"><ele>536.0</ele><time>2026-03-29T08:17:04Z</time></trkpt><trkpt lat="38.061736970566656" lon="13.193456919145419"><ele>536.0</ele><time>2026-03-29T08:17:07Z</time></trkpt><trkpt lat="38.06167111496047" lon="13.193482215424064"><ele>540.0</ele><time>2026-03-29T08:17:09Z</time></trkpt><trkpt lat="38.061608475713676" lon="13.193544222513415"><ele>544.0</ele><time>2026-03-29T08:17:11Z</time></trkpt><trkpt lat="38.06154282016246" lon="13.193625280160793"><ele>548.0</ele><time>2026-03-29T08:17:14Z</time></trkpt><trkpt lat="38.06147801185344" lon="13.193689764973255"><ele>552.0</ele><time>2026-03-29T08:17:20Z</time></trkpt><trkpt lat="38.06143565025894" lon="13.193749661990482"><ele>556.0</ele><time>2026-03-29T08:17:22Z</time></trkpt><trkpt lat="38.061362316722004" lon="13.193789110304111"><ele>560.0</ele><time>2026-03-29T08:17:24Z</time></trkpt><trkpt lat="38.06127196470172" lon="13.19378818657146"><ele>560.0</ele><time>2026-03-29T08:17:26Z</time></trkpt><trkpt lat="38.06119830292571" lon="13.193811124889596"><ele>560.0</ele><time>2026-03-29T08:17:28Z</time></trkpt><trkpt lat="38.06113472899198" lon="13.193826676711781"><ele>560.0</ele><time>2026-03-29T08:17:30Z</time></trkpt><trkpt lat="38.06106290959272" lon="13.193862829672558"><ele>560.0</ele><time>2026-03-29T08:17:32Z</time></trkpt><trkpt lat="38.06098308176818" lon="13.193890409158314"><ele>560.0</ele><time>2026-03-29T08:17:34Z</time></trkpt><trkpt lat="38.06091784062706" lon="13.193968540544258"><ele>560.0</ele><time>2026-03-29T08:17:36Z</time></trkpt><trkpt lat="38.06086214953146" lon="13.194017107241102"><ele>562.1666666666666</ele><time>2026-03-29T08:17:38Z</time></trkpt><trkpt lat="38.0607823772803" lon="13.194095174231578"><ele>564.3333333333333</ele><time>2026-03-29T08:17:41Z</time></trkpt><trkpt lat="38.060725522507475" lon="13.194159373071797"><ele>566.5</ele><time>2026-03-29T08:17:43Z</time></trkpt><trkpt lat="38.06067457421742" lon="13.19422678519805"><ele>568.6666666666666</ele><time>2026-03-29T08:17:45Z</time></trkpt><trkpt lat="38.06061583592907" lon="13.194306786377823"><ele>570.8333333333334</ele><time>2026-03-29T08:17:47Z</time></trkpt><trkpt lat="38.06055450686646" lon="13.194368453497189"><ele>573.0</ele><time>2026-03-29T08:17:49Z</time></trkpt><trkpt lat="38.06048215211057" lon="13.194434271012838"><ele>573.0</ele><time>2026-03-29T08:17:51Z</time></trkpt><trkpt lat="38.06041418956935" lon="13.194464042829742"><ele>573.0</ele><time>2026-03-29T08:17:54Z</time></trkpt><trkpt lat="38.06035754611112" lon="13.194399821553928"><ele>573.0</ele><time>2026-03-29T08:17:57Z</time></trkpt><trkpt lat="38.060350872396974" lon="13.19428078533849"><ele>573.0</ele><time>2026-03-29T08:18:00Z</time></trkpt><trkpt lat="38.06033378821979" lon="13.194174599338732"><ele>573.0</ele><time>2026-03-29T08:18:03Z</time></trkpt><trkpt lat="38.06026164758141" lon="13.194113305742084"><ele>573.0</ele><time>2026-03-29T08:18:07Z</time></trkpt><trkpt lat="38.06016331607642" lon="13.194094602074804"><ele>573.0</ele><time>2026-03-29T08:18:10Z</time></trkpt><trkpt lat="38.06008052455514" lon="13.194096428128534"><ele>573.0</ele><time>2026-03-29T08:18:12Z</time></trkpt><trkpt lat="38.060008584536064" lon="13.194091567433754"><ele>573.0</ele><time>2026-03-29T08:18:14Z</time></trkpt><trkpt lat="38.0599477901592" lon="13.194058104647311"><ele>573.0</ele><time>2026-03-29T08:18:16Z</time></trkpt><trkpt lat="38.059891992028895" lon="13.193984171986317"><ele>573.0</ele><time>2026-03-29T08:18:18Z</time></trkpt><trkpt lat="38.05983257487278" lon="13.193914253710995"><ele>573.0</ele><time>2026-03-29T08:18:20Z</time></trkpt><trkpt lat="38.05979456127898" lon="13.193844344479826"><ele>574.3333333333334</ele><time>2026-03-29T08:18:23Z</time></trkpt><trkpt lat="38.05977589829652" lon="13.193762248035343"><ele>575.6666666666666</ele><time>2026-03-29T08:18:25Z</time></trkpt><trkpt lat="38.05967223282714" lon="13.193753917406363"><ele>577.0</ele><time>2026-03-29T08:18:28Z</time></trkpt><trkpt lat="38.059597815218645" lon="13.193793657433453"><ele>578.3333333333333</ele><time>2026-03-29T08:18:30Z</time></trkpt><trkpt lat="38.059514613557006" lon="13.193804802961784"><ele>579.6666666666666</ele><time>2026-03-29T08:18:33Z</time></trkpt><trkpt lat="38.05944253802914" lon="13.193830308108312"><ele>581.0</ele><time>2026-03-29T08:18:35Z</time></trkpt><trkpt lat="38.05937955817475" lon="13.193855232482793"><ele>581.0</ele><time>2026-03-29T08:18:37Z</time></trkpt><trkpt lat="38.05929985799061" lon="13.193872717507997"><ele>581.0</ele><time>2026-03-29T08:18:39Z</time></trkpt><trkpt lat="38.05920932717351" lon="13.193894117911482"><ele>581.0</ele><time>2026-03-29T08:18:41Z</time></trkpt><trkpt lat="38.05913174468962" lon="13.193909469476282"><ele>581.0</ele><time>2026-03-29T08:18:43Z</time></trkpt><trkpt lat="38.05906949515792" lon="13.193952361947444"><ele>581.0</ele><time>2026-03-29T08:18:45Z</time></trkpt><trkpt lat="38.058986401285075" lon="13.194003158728398"><ele>581.0</ele><time>2026-03-29T08:18:47Z</time></trkpt><trkpt lat="38.058923770728796" lon="13.194061425586362"><ele>581.8</ele><time>2026-03-29T08:18:49Z</time></trkpt><trkpt lat="38.058840742731505" lon="13.194124503321847"><ele>582.6</ele><time>2026-03-29T08:18:51Z</time></trkpt><trkpt lat="38.05875273310479" lon="13.194172118945097"><ele>583.4</ele><time>2026-03-29T08:18:53Z</time></trkpt><trkpt lat="38.058675364358024" lon="13.194235398517895"><ele>584.2</ele><time>2026-03-29T08:18:55Z</time></trkpt><trkpt lat="38.05860528182178" lon="13.194321267445844"><ele>585.0</ele><time>2026-03-29T08:18:57Z</time></trkpt><trkpt lat="38.05854505688112" lon="13.194427435310663"><ele>585.0</ele><time>2026-03-29T08:18:59Z</time></trkpt><trkpt lat="38.058498125448175" lon="13.194529182542373"><ele>585.0</ele><time>2026-03-29T08:19:01Z</time></trkpt><trkpt lat="38.0584611101648" lon="13.194627864617527"><ele>585.0</ele><time>2026-03-29T08:19:03Z</time></trkpt><trkpt lat="38.0584290405513" lon="13.194760773148303"><ele>585.0</ele><time>2026-03-29T08:19:05Z</time></trkpt><trkpt lat="38.058409077555126" lon="13.194897996417168"><ele>585.0</ele><time>2026-03-29T08:19:07Z</time></trkpt><trkpt lat="38.05840016877007" lon="13.195007872543338"><ele>584.8</ele><time>2026-03-29T08:19:09Z</time></trkpt><trkpt lat="38.05840954916916" lon="13.195130016548115"><ele>584.6</ele><time>2026-03-29T08:19:11Z</time></trkpt><trkpt lat="38.05839942106064" lon="13.19525689632503"><ele>584.4</ele><time>2026-03-29T08:19:13Z</time></trkpt><trkpt lat="38.058378608864935" lon="13.195377805631628"><ele>584.2</ele><time>2026-03-29T08:19:15Z</time></trkpt><trkpt lat="38.05835170777351" lon="13.195492928220158"><ele>584.0</ele><time>2026-03-29T08:19:17Z</time></trkpt><trkpt lat="38.05834065513239" lon="13.195614012405084"><ele>584.8333333333333</ele><time>2026-03-29T08:19:19Z</time></trkpt><trkpt lat="38.058348990220665" lon="13.195738197684202"><ele>585.6666666666666</ele><time>2026-03-29T08:19:21Z</time></trkpt><trkpt lat="38.05833802677781" lon="13.195858722810046"><ele>586.5</ele><time>2026-03-29T08:19:23Z</time></trkpt><trkpt lat="38.05835183367951" lon="13.19595081497962"><ele>587.3333333333334</ele><time>2026-03-29T08:19:25Z</time></trkpt><trkpt lat="38.05835300165401" lon="13.196069350642716"><ele>588.1666666666667</ele><time>2026-03-29T08:19:27Z</time></trkpt><trkpt lat="38.05833097252768" lon="13.196159456708948"><ele>589.0</ele><time>2026-03-29T08:19:29Z</time></trkpt><trkpt lat="38.058309877671526" lon="13.19626738466526"><ele>589.0</ele><time>2026-03-29T08:19:31Z</time></trkpt><trkpt lat="38.05830768375455" lon="13.196399407885972"><ele>589.0</ele><time>2026-03-29T08:19:33Z</time></trkpt><trkpt lat="38.05828236703202" lon="13.196483801681518"><ele>589.0</ele><time>2026-03-29T08:19:35Z</time></trkpt><trkpt lat="38.05830715706784" lon="13.196571503083987"><ele>589.0</ele><time>2026-03-29T08:19:55Z</time></trkpt><trkpt lat="38.05831270932669" lon="13.196658842158305"><ele>589.0</ele><time>2026-03-29T08:19:59Z</time></trkpt><trkpt lat="38.05825972688537" lon="13.196745457293229"><ele>589.0</ele><time>2026-03-29T08:20:04Z</time></trkpt><trkpt lat="38.05830450572442" lon="13.196825846628116"><ele>589.5</ele><time>2026-03-29T08:20:14Z</time></trkpt><trkpt lat="38.05834779818531" lon="13.196885923034086"><ele>590.0</ele><time>2026-03-29T08:20:17Z</time></trkpt><trkpt lat="38.058415149312765" lon="13.1969034308723"><ele>590.5</ele><time>2026-03-29T08:21:03Z</time></trkpt><trkpt lat="38.0584902083541" lon="13.1969648219894"><ele>591.0</ele><time>2026-03-29T08:21:08Z</time></trkpt><trkpt lat="38.05849933075774" lon="13.19706987010237"><ele>591.5</ele><time>2026-03-29T08:21:11Z</time></trkpt><trkpt lat="38.058519348492545" lon="13.196970655773734"><ele>592.0</ele><time>2026-03-29T08:22:17Z</time></trkpt><trkpt lat="38.05858895963697" lon="13.19692411881729"><ele>592.0</ele><time>2026-03-29T08:22:20Z</time></trkpt><trkpt lat="38.05868942590771" lon="13.196931180254156"><ele>592.0</ele><time>2026-03-29T08:22:24.999Z</time></trkpt><trkpt lat="38.05876484247927" lon="13.196886113436591"><ele>592.0</ele><time>2026-03-29T08:22:27.999Z</time></trkpt><trkpt lat="38.05883401727591" lon="13.19686167123028"><ele>592.0</ele><time>2026-03-29T08:22:30.999Z</time></trkpt><trkpt lat="38.05890489418573" lon="13.196885211785348"><ele>592.0</ele><time>2026-03-29T08:22:33.999Z</time></trkpt><trkpt lat="38.05896230487769" lon="13.19692722390951"><ele>592.0</ele><time>2026-03-29T08:22:35.999Z</time></trkpt><trkpt lat="38.05897850083318" lon="13.197013965122556"><ele>592.0</ele><time>2026-03-29T08:22:42.999Z</time></trkpt><trkpt lat="38.059022107348724" lon="13.197080819684604"><ele>592.0</ele><time>2026-03-29T08:22:44.999Z</time></trkpt><trkpt lat="38.05903016243453" lon="13.197182917558752"><ele>592.0</ele><time>2026-03-29T08:22:46.999Z</time></trkpt><trkpt lat="38.0590515196075" lon="13.197275029790934"><ele>592.0</ele><time>2026-03-29T08:22:48.999Z</time></trkpt><trkpt lat="38.05909868509585" lon="13.197350124916191"><ele>592.0</ele><time>2026-03-29T08:22:50.999Z</time></trkpt><trkpt lat="38.05906926616001" lon="13.197422251549899"><ele>592.0</ele><time>2026-03-29T08:22:54.999Z</time></trkpt><trkpt lat="38.05903388697762" lon="13.197511357212887"><ele>592.0</ele><time>2026-03-29T08:23:13.999Z</time></trkpt><trkpt lat="38.05898638311546" lon="13.197617787707028"><ele>593.1666666666667</ele><time>2026-03-29T08:23:15.999Z</time></trkpt><trkpt lat="38.05892282508792" lon="13.197680504724957"><ele>594.3333333333334</ele><time>2026-03-29T08:23:18.999Z</time></trkpt><trkpt lat="38.058900906395294" lon="13.197767162768333"><ele>595.5</ele><time>2026-03-29T08:23:20.999Z</time></trkpt><trkpt lat="38.05893513480348" lon="13.197883072452367"><ele>596.6666666666666</ele><time>2026-03-29T08:23:23.999Z</time></trkpt><trkpt lat="38.0589831261107" lon="13.19797697903662"><ele>597.8333333333333</ele><time>2026-03-29T08:23:25.999Z</time></trkpt><trkpt lat="38.05903485071005" lon="13.198078344138109"><ele>599.0</ele><time>2026-03-29T08:23:27.999Z</time></trkpt><trkpt lat="38.059084529157055" lon="13.19817220300318"><ele>602.0</ele><time>2026-03-29T08:23:29.999Z</time></trkpt><trkpt lat="38.05913384750481" lon="13.198271626978645"><ele>605.0</ele><time>2026-03-29T08:23:31.999Z</time></trkpt><trkpt lat="38.05919505394424" lon="13.198358881388787"><ele>608.0</ele><time>2026-03-29T08:23:33.999Z</time></trkpt><trkpt lat="38.05924062288555" lon="13.198453648647545"><ele>611.0</ele><time>2026-03-29T08:23:35.999Z</time></trkpt><trkpt lat="38.059285179016136" lon="13.198562900900166"><ele>614.0</ele><time>2026-03-29T08:23:37.999Z</time></trkpt><trkpt lat="38.059335129770226" lon="13.19865948144484"><ele>614.0</ele><time>2026-03-29T08:23:39.999Z</time></trkpt><trkpt lat="38.0594000984065" lon="13.198765874019683"><ele>614.0</ele><time>2026-03-29T08:23:41.999Z</time></trkpt><trkpt lat="38.05947535033592" lon="13.198866330035987"><ele>614.0</ele><time>2026-03-29T08:23:43.999Z</time></trkpt><trkpt lat="38.05953939933796" lon="13.1989599816519"><ele>614.0</ele><time>2026-03-29T08:23:45.999Z</time></trkpt><trkpt lat="38.05958135194242" lon="13.199056844415667"><ele>614.0</ele><time>2026-03-29T08:23:47.999Z</time></trkpt><trkpt lat="38.0596531105249" lon="13.199143604641673"><ele>616.0</ele><time>2026-03-29T08:23:49.999Z</time></trkpt><trkpt lat="38.05972430291613" lon="13.19923874907712"><ele>618.0</ele><time>2026-03-29T08:23:51.999Z</time></trkpt><trkpt lat="38.05978721616284" lon="13.199311607800727"><ele>620.0</ele><time>2026-03-29T08:23:53.999Z</time></trkpt><trkpt lat="38.05983378834912" lon="13.199386997382518"><ele>622.0</ele><time>2026-03-29T08:23:55.999Z</time></trkpt><trkpt lat="38.05989102840906" lon="13.199424767267805"><ele>624.0</ele><time>2026-03-29T08:24:48Z</time></trkpt><trkpt lat="38.05982289123437" lon="13.199458787363222"><ele>626.0</ele><time>2026-03-29T08:26:30Z</time></trkpt><trkpt lat="38.05974488042331" lon="13.19948427411645"><ele>626.0</ele><time>2026-03-29T08:26:32Z</time></trkpt><trkpt lat="38.05963464790495" lon="13.19951934065833"><ele>626.0</ele><time>2026-03-29T08:26:34Z</time></trkpt><trkpt lat="38.05957332559857" lon="13.199544147999614"><ele>626.0</ele><time>2026-03-29T08:26:35Z</time></trkpt><trkpt lat="38.0595157571584" lon="13.199582579237608"><ele>626.0</ele><time>2026-03-29T08:26:36Z</time></trkpt><trkpt lat="38.05945446111586" lon="13.1996394868363"><ele>626.0</ele><time>2026-03-29T08:26:37Z</time></trkpt><trkpt lat="38.05939129954403" lon="13.199713469611215"><ele>626.0</ele><time>2026-03-29T08:26:38Z</time></trkpt><trkpt lat="38.059329200799205" lon="13.199793316994867"><ele>626.4</ele><time>2026-03-29T08:26:39Z</time></trkpt><trkpt lat="38.059266885853994" lon="13.199879019390083"><ele>626.8</ele><time>2026-03-29T08:26:40Z</time></trkpt><trkpt lat="38.059209026908746" lon="13.19996015395367"><ele>627.1999999999999</ele><time>2026-03-29T08:26:41Z</time></trkpt><trkpt lat="38.059139577078774" lon="13.200063924041316"><ele>627.6</ele><time>2026-03-29T08:26:42Z</time></trkpt><trkpt lat="38.059072265179104" lon="13.200157783365892"><ele>628.0</ele><time>2026-03-29T08:26:42.999Z</time></trkpt><trkpt lat="38.058997559753344" lon="13.20024066915197"><ele>628.0</ele><time>2026-03-29T08:26:43.999Z</time></trkpt><trkpt lat="38.05892781827384" lon="13.200328705899649"><ele>628.0</ele><time>2026-03-29T08:26:44.999Z</time></trkpt><trkpt lat="38.05885845000161" lon="13.2004188227217"><ele>628.0</ele><time>2026-03-29T08:26:45.999Z</time></trkpt><trkpt lat="38.05879745881126" lon="13.200514193854309"><ele>628.0</ele><time>2026-03-29T08:26:46.999Z</time></trkpt><trkpt lat="38.058754965226015" lon="13.200613987449543"><ele>628.0</ele><time>2026-03-29T08:26:47.999Z</time></trkpt><trkpt lat="38.05872426951013" lon="13.200711219085768"><ele>629.1666666666667</ele><time>2026-03-29T08:26:48.999Z</time></trkpt><trkpt lat="38.05870169723038" lon="13.200817923938876"><ele>630.3333333333334</ele><time>2026-03-29T08:26:49.999Z</time></trkpt><trkpt lat="38.05869652399961" lon="13.200920779621914"><ele>631.5</ele><time>2026-03-29T08:26:50.999Z</time></trkpt><trkpt lat="38.05870229393653" lon="13.201036704053184"><ele>632.6666666666666</ele><time>2026-03-29T08:26:51.999Z</time></trkpt><trkpt lat="38.0587021848217" lon="13.201147809807939"><ele>633.8333333333333</ele><time>2026-03-29T08:26:52.999Z</time></trkpt><trkpt lat="38.058702974405044" lon="13.201262063288512"><ele>635.0</ele><time>2026-03-29T08:26:53.999Z</time></trkpt><trkpt lat="38.05869816822469" lon="13.201373738935157"><ele>635.0</ele><time>2026-03-29T08:26:54.999Z</time></trkpt><trkpt lat="38.058695291344364" lon="13.201486735644263"><ele>635.0</ele><time>2026-03-29T08:26:55.999Z</time></trkpt><trkpt lat="38.05868601321107" lon="13.20158802979141"><ele>635.0</ele><time>2026-03-29T08:26:56.999Z</time></trkpt><trkpt lat="38.058661311196396" lon="13.201673223060107"><ele>635.0</ele><time>2026-03-29T08:26:57.999Z</time></trkpt><trkpt lat="38.0586253902733" lon="13.201746681694562"><ele>635.0</ele><time>2026-03-29T08:26:58.999Z</time></trkpt><trkpt lat="38.058516660487086" lon="13.201809074853752"><ele>635.0</ele><time>2026-03-29T08:27:00.999Z</time></trkpt><trkpt lat="38.05839930654925" lon="13.201766061860383"><ele>635.8333333333333</ele><time>2026-03-29T08:27:02.999Z</time></trkpt><trkpt lat="38.05833224587707" lon="13.20170356316531"><ele>636.6666666666666</ele><time>2026-03-29T08:27:03.999Z</time></trkpt><trkpt lat="38.05826314175335" lon="13.201638601940337"><ele>637.5</ele><time>2026-03-29T08:27:04.999Z</time></trkpt><trkpt lat="38.05818647863957" lon="13.20157580841755"><ele>638.3333333333334</ele><time>2026-03-29T08:27:05.999Z</time></trkpt><trkpt lat="38.05812227752691" lon="13.201544661849226"><ele>639.1666666666667</ele><time>2026-03-29T08:27:06.999Z</time></trkpt><trkpt lat="38.058023184382726" lon="13.20145876665348"><ele>640.0</ele><time>2026-03-29T08:27:07.999Z</time></trkpt><trkpt lat="38.057950427198584" lon="13.201396611512662"><ele>640.0</ele><time>2026-03-29T08:27:08.999Z</time></trkpt><trkpt lat="38.057883587258" lon="13.20134906665044"><ele>640.0</ele><time>2026-03-29T08:27:09.999Z</time></trkpt><trkpt lat="38.05780070517945" lon="13.20127472661889"><ele>640.0</ele><time>2026-03-29T08:27:10.999Z</time></trkpt><trkpt lat="38.057717452964894" lon="13.201203645371873"><ele>640.0</ele><time>2026-03-29T08:27:11.999Z</time></trkpt><trkpt lat="38.057627626428626" lon="13.201128313279256"><ele>640.0</ele><time>2026-03-29T08:27:12.999Z</time></trkpt><trkpt lat="38.05754310037936" lon="13.201061774361316"><ele>640.0</ele><time>2026-03-29T08:27:13.999Z</time></trkpt><trkpt lat="38.05746722316007" lon="13.201001240459988"><ele>640.0</ele><time>2026-03-29T08:27:14.999Z</time></trkpt><trkpt lat="38.05738930006617" lon="13.2009398493783"><ele>640.0</ele><time>2026-03-29T08:27:15.999Z</time></trkpt><trkpt lat="38.05731554854557" lon="13.200874527218609"><ele>640.0</ele><time>2026-03-29T08:27:16.999Z</time></trkpt><trkpt lat="38.057263244585435" lon="13.200817640424692"><ele>640.0</ele><time>2026-03-29T08:27:17.999Z</time></trkpt><trkpt lat="38.057192601939626" lon="13.200751561816631"><ele>640.0</ele><time>2026-03-29T08:27:19.999Z</time></trkpt><trkpt lat="38.05724781954911" lon="13.200819039096075"><ele>644.4</ele><time>2026-03-29T08:27:26.999Z</time></trkpt><trkpt lat="38.05716731378869" lon="13.201032629325308"><ele>648.8</ele><time>2026-03-29T08:27:27.999Z</time></trkpt><trkpt lat="38.057159720087505" lon="13.201123602722822"><ele>653.2</ele><time>2026-03-29T08:27:29.999Z</time></trkpt><trkpt lat="38.05715602211322" lon="13.20122692812408"><ele>657.6</ele><time>2026-03-29T08:27:31.999Z</time></trkpt><trkpt lat="38.057146412145606" lon="13.201335831748873"><ele>662.0</ele><time>2026-03-29T08:27:33.999Z</time></trkpt><trkpt lat="38.05714269803813" lon="13.201432752157626"><ele>663.8571428571429</ele><time>2026-03-29T08:27:35.999Z</time></trkpt><trkpt lat="38.05714144039345" lon="13.201524013365397"><ele>665.7142857142857</ele><time>2026-03-29T08:27:38.999Z</time></trkpt><trkpt lat="38.05715373398771" lon="13.201614188342868"><ele>667.5714285714286</ele><time>2026-03-29T08:31:37Z</time></trkpt><trkpt lat="38.0571777556859" lon="13.201692085608423"><ele>669.4285714285714</ele><time>2026-03-29T08:33:08Z</time></trkpt><trkpt lat="38.05720416333315" lon="13.201766639201587"><ele>671.2857142857143</ele><time>2026-03-29T08:33:11Z</time></trkpt><trkpt lat="38.05723194819126" lon="13.201854434354678"><ele>673.1428571428571</ele><time>2026-03-29T08:33:14Z</time></trkpt><trkpt lat="38.05727162449433" lon="13.201964296067729"><ele>675.0</ele><time>2026-03-29T08:33:17Z</time></trkpt><trkpt lat="38.057297207085945" lon="13.20204642807244"><ele>675.0</ele><time>2026-03-29T08:33:27Z</time></trkpt><trkpt lat="38.05733696475298" lon="13.202135456855657"><ele>675.0</ele><time>2026-03-29T08:33:30Z</time></trkpt><trkpt lat="38.05739074829919" lon="13.202214472992873"><ele>675.0</ele><time>2026-03-29T08:33:32Z</time></trkpt><trkpt lat="38.05744233685793" lon="13.202282733723408"><ele>675.0</ele><time>2026-03-29T08:33:35Z</time></trkpt><trkpt lat="38.05752044795244" lon="13.202326874970503"><ele>675.0</ele><time>2026-03-29T08:33:38Z</time></trkpt><trkpt lat="38.05759054918252" lon="13.20237109414921"><ele>675.0</ele><time>2026-03-29T08:33:40Z</time></trkpt><trkpt lat="38.057640738141316" lon="13.202426127855485"><ele>675.6</ele><time>2026-03-29T08:33:42Z</time></trkpt><trkpt lat="38.05772195119751" lon="13.202508339862753"><ele>676.2</ele><time>2026-03-29T08:33:45Z</time></trkpt><trkpt lat="38.05779388434852" lon="13.202584427074738"><ele>676.8</ele><time>2026-03-29T08:33:47Z</time></trkpt><trkpt lat="38.05786353833857" lon="13.202654611644371"><ele>677.4</ele><time>2026-03-29T08:33:49Z</time></trkpt><trkpt lat="38.05792229883983" lon="13.202734774745009"><ele>678.0</ele><time>2026-03-29T08:33:51Z</time></trkpt><trkpt lat="38.05796756920217" lon="13.202814500571598"><ele>678.0</ele><time>2026-03-29T08:33:53Z</time></trkpt><trkpt lat="38.0580161342262" lon="13.20289887663977"><ele>678.0</ele><time>2026-03-29T08:33:55Z</time></trkpt><trkpt lat="38.05808545087388" lon="13.202969715943464"><ele>678.0</ele><time>2026-03-29T08:33:57Z</time></trkpt><trkpt lat="38.058119026816925" lon="13.203042254478204"><ele>678.0</ele><time>2026-03-29T08:33:59Z</time></trkpt><trkpt lat="38.0581700215116" lon="13.203093272367274"><ele>678.0</ele><time>2026-03-29T08:34:07Z</time></trkpt><trkpt lat="38.058258442184105" lon="13.20310482560491"><ele>678.0</ele><time>2026-03-29T08:34:10Z</time></trkpt><trkpt lat="38.05832132961786" lon="13.203111777859748"><ele>675.8333333333334</ele><time>2026-03-29T08:34:12Z</time></trkpt><trkpt lat="38.05839127350905" lon="13.203121614905463"><ele>673.6666666666666</ele><time>2026-03-29T08:34:14Z</time></trkpt><trkpt lat="38.05847405280733" lon="13.20311353930205"><ele>671.5</ele><time>2026-03-29T08:34:16Z</time></trkpt><trkpt lat="38.05854975247705" lon="13.203105655503373"><ele>669.3333333333333</ele><time>2026-03-29T08:34:18Z</time></trkpt><trkpt lat="38.05862190131864" lon="13.2030911202387"><ele>667.1666666666666</ele><time>2026-03-29T08:34:20Z</time></trkpt><trkpt lat="38.05869842679567" lon="13.20309108235617"><ele>665.0</ele><time>2026-03-29T08:34:22Z</time></trkpt><trkpt lat="38.05880072858538" lon="13.20308601259847"><ele>665.0</ele><time>2026-03-29T08:34:24Z</time></trkpt><trkpt lat="38.05890822882145" lon="13.2030934423946"><ele>665.0</ele><time>2026-03-29T08:34:26Z</time></trkpt><trkpt lat="38.059012431495944" lon="13.203129088840866"><ele>665.0</ele><time>2026-03-29T08:34:28Z</time></trkpt><trkpt lat="38.059113474618535" lon="13.203178647861712"><ele>665.0</ele><time>2026-03-29T08:34:30Z</time></trkpt><trkpt lat="38.05921088121078" lon="13.203241677829988"><ele>665.0</ele><time>2026-03-29T08:34:32Z</time></trkpt><trkpt lat="38.059305944118854" lon="13.203245495688568"><ele>664.8</ele><time>2026-03-29T08:34:34Z</time></trkpt><trkpt lat="38.05940124126797" lon="13.203220423116823"><ele>664.6</ele><time>2026-03-29T08:34:36Z</time></trkpt><trkpt lat="38.059481073178524" lon="13.203190759052418"><ele>664.4000000000001</ele><time>2026-03-29T08:34:38Z</time></trkpt><trkpt lat="38.0595619323334" lon="13.203134400301842"><ele>664.2</ele><time>2026-03-29T08:34:41Z</time></trkpt><trkpt lat="38.05964808596703" lon="13.203084517844124"><ele>664.0</ele><time>2026-03-29T08:34:43Z</time></trkpt><trkpt lat="38.05974610008765" lon="13.203081146484253"><ele>664.0</ele><time>2026-03-29T08:34:45Z</time></trkpt><trkpt lat="38.059828558811724" lon="13.203076233948837"><ele>664.0</ele><time>2026-03-29T08:34:47Z</time></trkpt><trkpt lat="38.059897239908814" lon="13.203052029502478"><ele>664.0</ele><time>2026-03-29T08:34:49Z</time></trkpt><trkpt lat="38.05996959155532" lon="13.203046735810547"><ele>664.0</ele><time>2026-03-29T08:34:51Z</time></trkpt><trkpt lat="38.06003156159521" lon="13.203016157934137"><ele>664.0</ele><time>2026-03-29T08:34:53Z</time></trkpt><trkpt lat="38.06009627775163" lon="13.203012392873632"><ele>664.0</ele><time>2026-03-29T08:35:00Z</time></trkpt><trkpt lat="38.06015036129945" lon="13.202932916855119"><ele>664.0</ele><time>2026-03-29T08:35:03Z</time></trkpt><trkpt lat="38.06018163151582" lon="13.202859780853363"><ele>665.1666666666667</ele><time>2026-03-29T08:35:06Z</time></trkpt><trkpt lat="38.06020826176937" lon="13.202774522919558"><ele>666.3333333333334</ele><time>2026-03-29T08:35:08Z</time></trkpt><trkpt lat="38.06022455207682" lon="13.202682495756813"><ele>667.5</ele><time>2026-03-29T08:35:11Z</time></trkpt><trkpt lat="38.06027806727129" lon="13.20261525216212"><ele>668.6666666666666</ele><time>2026-03-29T08:35:14Z</time></trkpt><trkpt lat="38.06035380339349" lon="13.202569389730794"><ele>669.8333333333333</ele><time>2026-03-29T08:35:16Z</time></trkpt><trkpt lat="38.060428407088615" lon="13.202595454395482"><ele>671.0</ele><time>2026-03-29T08:35:18Z</time></trkpt><trkpt lat="38.06048769561843" lon="13.20265350621347"><ele>671.0</ele><time>2026-03-29T08:35:20Z</time></trkpt><trkpt lat="38.06057768477541" lon="13.202622625751102"><ele>671.0</ele><time>2026-03-29T08:35:23Z</time></trkpt><trkpt lat="38.06064051973259" lon="13.202581864846138"><ele>671.0</ele><time>2026-03-29T08:35:25Z</time></trkpt><trkpt lat="38.06071945019421" lon="13.20254172274338"><ele>671.0</ele><time>2026-03-29T08:35:28Z</time></trkpt><trkpt lat="38.06078057261144" lon="13.202501813955108"><ele>671.0</ele><time>2026-03-29T08:35:30Z</time></trkpt><trkpt lat="38.060866885197456" lon="13.202473593620251"><ele>671.0</ele><time>2026-03-29T08:35:56Z</time></trkpt><trkpt lat="38.06096048469358" lon="13.202487189552174"><ele>672.6666666666666</ele><time>2026-03-29T08:35:59Z</time></trkpt><trkpt lat="38.06102052000411" lon="13.202524099003943"><ele>674.3333333333333</ele><time>2026-03-29T08:36:01Z</time></trkpt><trkpt lat="38.06108157144014" lon="13.202602318877947"><ele>676.0</ele><time>2026-03-29T08:36:04Z</time></trkpt><trkpt lat="38.061101231940825" lon="13.202705043332"><ele>677.6666666666666</ele><time>2026-03-29T08:36:07Z</time></trkpt><trkpt lat="38.0610780556434" lon="13.202818984420857"><ele>679.3333333333334</ele><time>2026-03-29T08:36:38Z</time></trkpt><trkpt lat="38.06104514275749" lon="13.202910767895542"><ele>681.0</ele><time>2026-03-29T08:36:40Z</time></trkpt><trkpt lat="38.06102876515419" lon="13.203014487507994"><ele>681.0</ele><time>2026-03-29T08:36:42Z</time></trkpt><trkpt lat="38.06106097330175" lon="13.203129975550926"><ele>681.0</ele><time>2026-03-29T08:36:45Z</time></trkpt><trkpt lat="38.06110753660515" lon="13.203236685890733"><ele>681.0</ele><time>2026-03-29T08:36:48Z</time></trkpt><trkpt lat="38.06115475325119" lon="13.203327768548748"><ele>681.0</ele><time>2026-03-29T08:36:50Z</time></trkpt><trkpt lat="38.0612164401282" lon="13.203395315815513"><ele>681.0</ele><time>2026-03-29T08:36:52Z</time></trkpt><trkpt lat="38.061272998506205" lon="13.203440743406102"><ele>681.0</ele><time>2026-03-29T08:36:54Z</time></trkpt><trkpt lat="38.06137819356358" lon="13.20345965917382"><ele>683.6666666666666</ele><time>2026-03-29T08:36:56Z</time></trkpt><trkpt lat="38.0614288301027" lon="13.203510790011425"><ele>686.3333333333334</ele><time>2026-03-29T08:36:58Z</time></trkpt><trkpt lat="38.06146331149929" lon="13.203617030911328"><ele>689.0</ele><time>2026-03-29T08:37:00Z</time></trkpt><trkpt lat="38.06148474644228" lon="13.203711442155432"><ele>691.6666666666667</ele><time>2026-03-29T08:37:02Z</time></trkpt><trkpt lat="38.06149744620539" lon="13.203813716971787"><ele>694.3333333333334</ele><time>2026-03-29T08:37:04Z</time></trkpt><trkpt lat="38.061531256384015" lon="13.203915004415764"><ele>697.0</ele><time>2026-03-29T08:37:06Z</time></trkpt><trkpt lat="38.06160588810791" lon="13.203982336035581"><ele>700.4000000000001</ele><time>2026-03-29T08:37:08Z</time></trkpt><trkpt lat="38.061686601637724" lon="13.204049695994025"><ele>703.8000000000001</ele><time>2026-03-29T08:37:10Z</time></trkpt><trkpt lat="38.061774742778844" lon="13.204136533909397"><ele>707.2</ele><time>2026-03-29T08:37:12Z</time></trkpt><trkpt lat="38.06184675573895" lon="13.204238160098399"><ele>710.6</ele><time>2026-03-29T08:37:14Z</time></trkpt><trkpt lat="38.06192711677463" lon="13.20433462292983"><ele>714.0</ele><time>2026-03-29T08:37:16Z</time></trkpt><trkpt lat="38.062011688550584" lon="13.204412568624385"><ele>714.0</ele><time>2026-03-29T08:37:18Z</time></trkpt><trkpt lat="38.0621115716157" lon="13.204495316498452"><ele>714.0</ele><time>2026-03-29T08:37:20Z</time></trkpt><trkpt lat="38.06216559559866" lon="13.204579622121345"><ele>714.0</ele><time>2026-03-29T08:37:22Z</time></trkpt><trkpt lat="38.06214469648983" lon="13.204692286541395"><ele>714.0</ele><time>2026-03-29T08:37:24Z</time></trkpt><trkpt lat="38.062082434170044" lon="13.204718973772824"><ele>714.0</ele><time>2026-03-29T08:37:25Z</time></trkpt><trkpt lat="38.06200338300751" lon="13.204834264689456"><ele>717.75</ele><time>2026-03-29T08:37:27Z</time></trkpt><trkpt lat="38.06194570636295" lon="13.204955599267107"><ele>721.5</ele><time>2026-03-29T08:37:29Z</time></trkpt><trkpt lat="38.061882341847785" lon="13.205077937437686"><ele>725.25</ele><time>2026-03-29T08:37:31Z</time></trkpt><trkpt lat="38.061805024446556" lon="13.205190284107129"><ele>729.0</ele><time>2026-03-29T08:37:33Z</time></trkpt><trkpt lat="38.06173538832343" lon="13.205299027507094"><ele>729.0</ele><time>2026-03-29T08:37:35Z</time></trkpt><trkpt lat="38.06166199893166" lon="13.205401503594409"><ele>729.0</ele><time>2026-03-29T08:37:37Z</time></trkpt><trkpt lat="38.06160740309493" lon="13.205450009001364"><ele>729.0</ele><time>2026-03-29T08:37:38Z</time></trkpt><trkpt lat="38.06155315782816" lon="13.205498118630073"><ele>729.0</ele><time>2026-03-29T08:37:39Z</time></trkpt><trkpt lat="38.061465186403446" lon="13.205587653125805"><ele>729.0</ele><time>2026-03-29T08:37:41Z</time></trkpt><trkpt lat="38.06142833280566" lon="13.205691465430203"><ele>729.0</ele><time>2026-03-29T08:37:43Z</time></trkpt><trkpt lat="38.06145403754522" lon="13.205773850151322"><ele>732.0</ele><time>2026-03-29T08:37:45Z</time></trkpt><trkpt lat="38.06152674965583" lon="13.205838352810153"><ele>735.0</ele><time>2026-03-29T08:37:47Z</time></trkpt><trkpt lat="38.06163670928019" lon="13.20587174192535"><ele>738.0</ele><time>2026-03-29T08:37:49Z</time></trkpt><trkpt lat="38.0617460040811" lon="13.205899698512006"><ele>741.0</ele><time>2026-03-29T08:37:51Z</time></trkpt><trkpt lat="38.06186429730772" lon="13.205931903622362"><ele>744.0</ele><time>2026-03-29T08:37:53Z</time></trkpt><trkpt lat="38.06197249277552" lon="13.205947763651478"><ele>744.6</ele><time>2026-03-29T08:37:55Z</time></trkpt><trkpt lat="38.06208993644811" lon="13.20594152560792"><ele>745.2</ele><time>2026-03-29T08:37:57Z</time></trkpt><trkpt lat="38.06215743903432" lon="13.205965452453444"><ele>745.8000000000001</ele><time>2026-03-29T08:37:58Z</time></trkpt><trkpt lat="38.06224184351369" lon="13.205970953523998"><ele>746.4000000000001</ele><time>2026-03-29T08:38:00Z</time></trkpt><trkpt lat="38.0623213156653" lon="13.20596400499342"><ele>747.0</ele><time>2026-03-29T08:38:05Z</time></trkpt><trkpt lat="38.06243010651881" lon="13.205967990824094"><ele>747.0</ele><time>2026-03-29T08:38:07Z</time></trkpt><trkpt lat="38.062508414702364" lon="13.205998721081425"><ele>747.0</ele><time>2026-03-29T08:38:09Z</time></trkpt><trkpt lat="38.06241109630875" lon="13.206007237200032"><ele>747.0</ele><time>2026-03-29T08:38:52Z</time></trkpt><trkpt lat="38.06233043980655" lon="13.205999359668471"><ele>747.0</ele><time>2026-03-29T08:38:55Z</time></trkpt><trkpt lat="38.06226278883018" lon="13.205993423973473"><ele>747.0</ele><time>2026-03-29T08:39:00Z</time></trkpt><trkpt lat="38.062128385086424" lon="13.206260117221131"><ele>746.9999999999999</ele><time>2026-03-29T08:39:13Z</time></trkpt><trkpt lat="38.062067886809565" lon="13.206309744158894"><ele>747.0</ele><time>2026-03-29T08:39:24Z</time></trkpt><trkpt lat="38.061993498002956" lon="13.206357050448888"><ele>747.0</ele><time>2026-03-29T08:39:27Z</time></trkpt><trkpt lat="38.06193693571433" lon="13.206422560072612"><ele>747.0</ele><time>2026-03-29T08:39:30Z</time></trkpt><trkpt lat="38.061895737438554" lon="13.20649858257165"><ele>747.0</ele><time>2026-03-29T08:47:17Z</time></trkpt><trkpt lat="38.06183491943139" lon="13.2065583855981"><ele>746.9999999999999</ele><time>2026-03-29T08:47:21Z</time></trkpt><trkpt lat="38.061787563647904" lon="13.206615244068308"><ele>747.0</ele><time>2026-03-29T08:47:25Z</time></trkpt><trkpt lat="38.06177592046783" lon="13.206694688912142"><ele>749.5</ele><time>2026-03-29T08:49:51Z</time></trkpt><trkpt lat="38.061717851410286" lon="13.206738810012627"><ele>752.0</ele><time>2026-03-29T08:49:57Z</time></trkpt><trkpt lat="38.06171675724409" lon="13.206843754139626"><ele>754.5</ele><time>2026-03-29T08:50:03Z</time></trkpt><trkpt lat="38.06165777308547" lon="13.206930334476787"><ele>757.0</ele><time>2026-03-29T08:50:05Z</time></trkpt><trkpt lat="38.06161152240656" lon="13.206999612301349"><ele>759.5</ele><time>2026-03-29T08:50:07Z</time></trkpt><trkpt lat="38.06160593749282" lon="13.207101583741071"><ele>762.0</ele><time>2026-03-29T08:50:10Z</time></trkpt><trkpt lat="38.061636957366076" lon="13.207191442651311"><ele>762.3333333333334</ele><time>2026-03-29T08:50:12Z</time></trkpt><trkpt lat="38.06168116235764" lon="13.207287679296883"><ele>762.6666666666666</ele><time>2026-03-29T08:50:14Z</time></trkpt><trkpt lat="38.06175286884962" lon="13.207367626151044"><ele>763.0</ele><time>2026-03-29T08:50:16Z</time></trkpt><trkpt lat="38.0618116532645" lon="13.207445449060046"><ele>763.3333333333333</ele><time>2026-03-29T08:50:18Z</time></trkpt><trkpt lat="38.061856557532145" lon="13.207544682237943"><ele>763.6666666666666</ele><time>2026-03-29T08:50:20Z</time></trkpt><trkpt lat="38.06189984954289" lon="13.207609382244218"><ele>764.0</ele><time>2026-03-29T08:50:22Z</time></trkpt><trkpt lat="38.06196075320095" lon="13.207658080677502"><ele>766.3333333333333</ele><time>2026-03-29T08:50:24Z</time></trkpt><trkpt lat="38.06204394288952" lon="13.207684627205845"><ele>768.6666666666666</ele><time>2026-03-29T08:50:26Z</time></trkpt><trkpt lat="38.06209616963981" lon="13.2077365758853"><ele>771.0</ele><time>2026-03-29T08:50:28Z</time></trkpt><trkpt lat="38.062177871321495" lon="13.20777502995822"><ele>773.3333333333333</ele><time>2026-03-29T08:50:30Z</time></trkpt><trkpt lat="38.06222600160851" lon="13.207833785725423"><ele>775.6666666666666</ele><time>2026-03-29T08:50:32Z</time></trkpt><trkpt lat="38.06226692775242" lon="13.20793291222507"><ele>778.0</ele><time>2026-03-29T08:50:34Z</time></trkpt><trkpt lat="38.062300824287036" lon="13.208024691239173"><ele>777.9999999999999</ele><time>2026-03-29T08:50:36Z</time></trkpt><trkpt lat="38.06226460844171" lon="13.208114524102056"><ele>778.0</ele><time>2026-03-29T08:50:38Z</time></trkpt><trkpt lat="38.06219944151055" lon="13.208188226206746"><ele>778.0</ele><time>2026-03-29T08:50:40Z</time></trkpt><trkpt lat="38.06220213721916" lon="13.208301444621231"><ele>778.0</ele><time>2026-03-29T08:50:42.999Z</time></trkpt><trkpt lat="38.06222406587407" lon="13.208381209588756"><ele>777.9999999999999</ele><time>2026-03-29T08:50:44.999Z</time></trkpt><trkpt lat="38.06230763533483" lon="13.208440616621468"><ele>778.0</ele><time>2026-03-29T08:50:47.999Z</time></trkpt><trkpt lat="38.062361254858345" lon="13.208523871291863"><ele>780.1666666666666</ele><time>2026-03-29T08:50:49.999Z</time></trkpt><trkpt lat="38.062403999608335" lon="13.208616351610265"><ele>782.3333333333333</ele><time>2026-03-29T08:50:51.999Z</time></trkpt><trkpt lat="38.06246633689025" lon="13.2087038102971"><ele>784.5</ele><time>2026-03-29T08:50:53.999Z</time></trkpt><trkpt lat="38.062534187171096" lon="13.20873378586585"><ele>786.6666666666667</ele><time>2026-03-29T08:50:57.999Z</time></trkpt><trkpt lat="38.06260140885736" lon="13.208755471256152"><ele>788.8333333333334</ele><time>2026-03-29T08:51:00.999Z</time></trkpt><trkpt lat="38.06267390675966" lon="13.2088096927069"><ele>791.0</ele><time>2026-03-29T08:51:03.999Z</time></trkpt><trkpt lat="38.06274856086343" lon="13.208844910493829"><ele>791.0</ele><time>2026-03-29T08:51:06.999Z</time></trkpt><trkpt lat="38.06280884708259" lon="13.208869678932833"><ele>791.0</ele><time>2026-03-29T08:51:09.999Z</time></trkpt><trkpt lat="38.062818106153195" lon="13.208788150628607"><ele>791.0</ele><time>2026-03-29T08:51:18Z</time></trkpt><trkpt lat="38.06288456674772" lon="13.20875301393758"><ele>791.0</ele><time>2026-03-29T08:51:45Z</time></trkpt><trkpt lat="38.062939625743546" lon="13.20879995582862"><ele>791.0</ele><time>2026-03-29T08:51:48Z</time></trkpt><trkpt lat="38.06301370769004" lon="13.208826935537848"><ele>791.0</ele><time>2026-03-29T08:51:52Z</time></trkpt><trkpt lat="38.06306746705873" lon="13.208869416668497"><ele>791.0</ele><time>2026-03-29T08:52:01Z</time></trkpt><trkpt lat="38.06311730131076" lon="13.20892908481521"><ele>791.0</ele><time>2026-03-29T08:52:04Z</time></trkpt><trkpt lat="38.06317523599845" lon="13.208988677979029"><ele>791.0</ele><time>2026-03-29T08:52:07Z</time></trkpt><trkpt lat="38.06324358728526" lon="13.209027174938663"><ele>791.0</ele><time>2026-03-29T08:52:10Z</time></trkpt><trkpt lat="38.06330481644873" lon="13.209065371089986"><ele>791.0</ele><time>2026-03-29T08:52:43.999Z</time></trkpt><trkpt lat="38.06335057174155" lon="13.209137333447389"><ele>791.0</ele><time>2026-03-29T08:52:47.999Z</time></trkpt><trkpt lat="38.063416805591295" lon="13.209152121228515"><ele>791.0</ele><time>2026-03-29T08:57:58Z</time></trkpt><trkpt lat="38.06349054011079" lon="13.20912828133479"><ele>791.0</ele><time>2026-03-29T08:58:06Z</time></trkpt><trkpt lat="38.06355304166993" lon="13.209067480711752"><ele>791.3333333333334</ele><time>2026-03-29T08:58:14Z</time></trkpt><trkpt lat="38.063594734348015" lon="13.208986597250115"><ele>791.6666666666667</ele><time>2026-03-29T08:58:17Z</time></trkpt><trkpt lat="38.06366132156201" lon="13.208943238401122"><ele>792.0</ele><time>2026-03-29T08:58:21Z</time></trkpt><trkpt lat="38.063710252378456" lon="13.208891405387343"><ele>792.3333333333333</ele><time>2026-03-29T08:58:24Z</time></trkpt><trkpt lat="38.063791295687885" lon="13.208853147866233"><ele>792.6666666666666</ele><time>2026-03-29T08:58:27Z</time></trkpt><trkpt lat="38.06387405616787" lon="13.208851655345317"><ele>793.0</ele><time>2026-03-29T08:58:30Z</time></trkpt><trkpt lat="38.06394568615743" lon="13.208893543387774"><ele>792.9999999999999</ele><time>2026-03-29T08:58:33Z</time></trkpt><trkpt lat="38.06400837234883" lon="13.208941015071881"><ele>793.0</ele><time>2026-03-29T08:58:35Z</time></trkpt><trkpt lat="38.0640314251503" lon="13.209020110317374"><ele>793.0</ele><time>2026-03-29T08:58:38Z</time></trkpt><trkpt lat="38.0641076041225" lon="13.209071660004543"><ele>793.0</ele><time>2026-03-29T08:58:41Z</time></trkpt><trkpt lat="38.064152208191516" lon="13.209137402522575"><ele>792.9999999999999</ele><time>2026-03-29T08:58:44Z</time></trkpt><trkpt lat="38.06407114057105" lon="13.209125556358646"><ele>793.0</ele><time>2026-03-29T08:58:47Z</time></trkpt><trkpt lat="38.06410461110004" lon="13.209031027253722"><ele>796.1428571428572</ele><time>2026-03-29T08:58:50Z</time></trkpt><trkpt lat="38.06417306803044" lon="13.209006554032385"><ele>799.2857142857143</ele><time>2026-03-29T08:58:53Z</time></trkpt><trkpt lat="38.06425396233236" lon="13.209020991052078"><ele>802.4285714285714</ele><time>2026-03-29T08:58:56Z</time></trkpt><trkpt lat="38.06431546019555" lon="13.209059547095425"><ele>805.5714285714287</ele><time>2026-03-29T08:58:58Z</time></trkpt><trkpt lat="38.06436292366089" lon="13.209124706314297"><ele>808.7142857142857</ele><time>2026-03-29T08:59:01Z</time></trkpt><trkpt lat="38.0644271149819" lon="13.209178308454119"><ele>811.8571428571429</ele><time>2026-03-29T08:59:04Z</time></trkpt><trkpt lat="38.06449162718015" lon="13.209219527985088"><ele>815.0</ele><time>2026-03-29T08:59:07Z</time></trkpt><trkpt lat="38.06456754846218" lon="13.209294387306771"><ele>815.0000000000001</ele><time>2026-03-29T08:59:10Z</time></trkpt><trkpt lat="38.06462993819708" lon="13.20931554135622"><ele>815.0</ele><time>2026-03-29T08:59:12Z</time></trkpt><trkpt lat="38.06471776681527" lon="13.209368730119941"><ele>815.0</ele><time>2026-03-29T08:59:15Z</time></trkpt><trkpt lat="38.06480972307636" lon="13.209398663761801"><ele>815.0</ele><time>2026-03-29T08:59:18Z</time></trkpt><trkpt lat="38.064885640933745" lon="13.209442957116119"><ele>815.0000000000001</ele><time>2026-03-29T08:59:20Z</time></trkpt><trkpt lat="38.064955777565885" lon="13.209477610531971"><ele>815.0</ele><time>2026-03-29T08:59:22Z</time></trkpt><trkpt lat="38.06499433768077" lon="13.209556903299308"><ele>817.8333333333334</ele><time>2026-03-29T09:00:41Z</time></trkpt><trkpt lat="38.065054687447955" lon="13.209636321489215"><ele>820.6666666666667</ele><time>2026-03-29T09:00:44Z</time></trkpt><trkpt lat="38.06507627326651" lon="13.20972039650553"><ele>823.5</ele><time>2026-03-29T09:00:46Z</time></trkpt><trkpt lat="38.06514154670254" lon="13.209829588150662"><ele>826.3333333333333</ele><time>2026-03-29T09:00:49Z</time></trkpt><trkpt lat="38.06520730349625" lon="13.209897540131163"><ele>829.1666666666666</ele><time>2026-03-29T09:00:52Z</time></trkpt><trkpt lat="38.065223821602885" lon="13.209975670418238"><ele>832.0</ele><time>2026-03-29T09:00:54Z</time></trkpt><trkpt lat="38.06526861335334" lon="13.21005444296184"><ele>833.6666666666666</ele><time>2026-03-29T09:00:57Z</time></trkpt><trkpt lat="38.0653127208641" lon="13.210138840714592"><ele>835.3333333333333</ele><time>2026-03-29T09:01:02Z</time></trkpt><trkpt lat="38.065327542339794" lon="13.210218118297"><ele>837.0</ele><time>2026-03-29T09:01:04Z</time></trkpt><trkpt lat="38.06532087574484" lon="13.210307236823054"><ele>838.6666666666667</ele><time>2026-03-29T09:01:07Z</time></trkpt><trkpt lat="38.06532449144256" lon="13.21040996540118"><ele>840.3333333333334</ele><time>2026-03-29T09:01:11Z</time></trkpt><trkpt lat="38.065377852897896" lon="13.210513814122129"><ele>842.0</ele><time>2026-03-29T09:01:14Z</time></trkpt><trkpt lat="38.06545809110991" lon="13.21050984490357"><ele>842.0</ele><time>2026-03-29T09:02:28Z</time></trkpt><trkpt lat="38.06551930017753" lon="13.210529441510099"><ele>842.0</ele><time>2026-03-29T09:02:30Z</time></trkpt><trkpt lat="38.06557693603834" lon="13.210581534912826"><ele>842.0</ele><time>2026-03-29T09:02:32Z</time></trkpt><trkpt lat="38.06561847811568" lon="13.210642243168675"><ele>842.0</ele><time>2026-03-29T09:02:34Z</time></trkpt><trkpt lat="38.06565413410902" lon="13.21073037062228"><ele>857.0</ele><time>2026-03-29T09:02:37Z</time></trkpt></trkseg><trkseg><trkpt lat="38.065718780201315" lon="13.210715276610077"><ele>857.5</ele><time>2026-03-29T09:20:58Z</time></trkpt><trkpt lat="38.06593058849434" lon="13.210883551897636"><ele>858.0</ele><time>2026-03-29T09:21:05Z</time></trkpt><trkpt lat="38.06597523977795" lon="13.210953520353847"><ele>858.5</ele><time>2026-03-29T09:21:07Z</time></trkpt><trkpt lat="38.06601446769193" lon="13.211033108971092"><ele>859.0</ele><time>2026-03-29T09:21:09Z</time></trkpt><trkpt lat="38.066042542956055" lon="13.211155504398075"><ele>858.9999999999999</ele><time>2026-03-29T09:21:13Z</time></trkpt><trkpt lat="38.066083532551666" lon="13.211255425405438"><ele>859.0</ele><time>2026-03-29T09:21:16Z</time></trkpt><trkpt lat="38.06611531368061" lon="13.211352448488414"><ele>859.0</ele><time>2026-03-29T09:21:19Z</time></trkpt><trkpt lat="38.06613788386322" lon="13.21144216899549"><ele>859.0</ele><time>2026-03-29T09:21:22Z</time></trkpt><trkpt lat="38.06618563391475" lon="13.211504894446103"><ele>858.9999999999999</ele><time>2026-03-29T09:21:25Z</time></trkpt><trkpt lat="38.06622932419385" lon="13.211572126412735"><ele>859.0</ele><time>2026-03-29T09:21:28Z</time></trkpt><trkpt lat="38.066270878718385" lon="13.211660455420013"><ele>857.1666666666666</ele><time>2026-03-29T09:21:32Z</time></trkpt><trkpt lat="38.06633998142864" lon="13.211613054526188"><ele>855.3333333333333</ele><time>2026-03-29T09:21:35Z</time></trkpt><trkpt lat="38.066398783713566" lon="13.211693605516091"><ele>853.5</ele><time>2026-03-29T09:21:38Z</time></trkpt><trkpt lat="38.06648260677119" lon="13.211756043150498"><ele>851.6666666666667</ele><time>2026-03-29T09:21:41Z</time></trkpt><trkpt lat="38.06657691493015" lon="13.211792016509946"><ele>849.8333333333334</ele><time>2026-03-29T09:21:44Z</time></trkpt><trkpt lat="38.06664462276055" lon="13.211820322178584"><ele>848.0</ele><time>2026-03-29T09:21:46Z</time></trkpt><trkpt lat="38.0667131998991" lon="13.211857782357972"><ele>848.0</ele><time>2026-03-29T09:21:49Z</time></trkpt><trkpt lat="38.06677501204806" lon="13.211875006567707"><ele>848.0</ele><time>2026-03-29T09:21:51Z</time></trkpt><trkpt lat="38.06684497800416" lon="13.211903032440947"><ele>848.0</ele><time>2026-03-29T09:21:53Z</time></trkpt><trkpt lat="38.06692238023772" lon="13.211917906503198"><ele>848.0</ele><time>2026-03-29T09:21:55Z</time></trkpt><trkpt lat="38.066994999825795" lon="13.211927778703998"><ele>848.0</ele><time>2026-03-29T09:21:57Z</time></trkpt><trkpt lat="38.06707032934308" lon="13.211918915721926"><ele>848.0</ele><time>2026-03-29T09:22:00Z</time></trkpt><trkpt lat="38.0671461959684" lon="13.211913074076003"><ele>848.0</ele><time>2026-03-29T09:22:03Z</time></trkpt><trkpt lat="38.06721385774165" lon="13.211912122215612"><ele>848.0</ele><time>2026-03-29T09:22:06Z</time></trkpt><trkpt lat="38.06731353110828" lon="13.211904138260161"><ele>848.0</ele><time>2026-03-29T09:22:33Z</time></trkpt><trkpt lat="38.067392923960064" lon="13.211893342075495"><ele>848.0</ele><time>2026-03-29T09:22:35Z</time></trkpt><trkpt lat="38.06747116281236" lon="13.211910199001824"><ele>848.0</ele><time>2026-03-29T09:23:29Z</time></trkpt><trkpt lat="38.06756524586059" lon="13.211961519195201"><ele>848.0</ele><time>2026-03-29T09:23:32Z</time></trkpt><trkpt lat="38.06764640342245" lon="13.212045718277533"><ele>847.8333333333334</ele><time>2026-03-29T09:23:34Z</time></trkpt><trkpt lat="38.06772186338509" lon="13.212132517156377"><ele>847.6666666666667</ele><time>2026-03-29T09:23:36Z</time></trkpt><trkpt lat="38.067746437545466" lon="13.212206383862597"><ele>847.5</ele><time>2026-03-29T09:23:54Z</time></trkpt><trkpt lat="38.06780131062249" lon="13.212273180528921"><ele>847.3333333333333</ele><time>2026-03-29T09:23:56Z</time></trkpt><trkpt lat="38.067861466243045" lon="13.21231815123778"><ele>847.1666666666666</ele><time>2026-03-29T09:23:58Z</time></trkpt><trkpt lat="38.06793143502029" lon="13.212345405819583"><ele>847.0</ele><time>2026-03-29T09:24:00Z</time></trkpt><trkpt lat="38.06804069514108" lon="13.21239261841683"><ele>847.0</ele><time>2026-03-29T09:24:02Z</time></trkpt><trkpt lat="38.068136635964144" lon="13.21249557864655"><ele>847.0</ele><time>2026-03-29T09:24:04Z</time></trkpt><trkpt lat="38.06822237863355" lon="13.212602074533466"><ele>847.0</ele><time>2026-03-29T09:24:06Z</time></trkpt><trkpt lat="38.06829439856212" lon="13.212690435207243"><ele>847.0</ele><time>2026-03-29T09:24:08Z</time></trkpt><trkpt lat="38.068393838891495" lon="13.212756289526395"><ele>842.0</ele><time>2026-03-29T09:24:10Z</time></trkpt><trkpt lat="38.06849273712692" lon="13.212831399442576"><ele>837.0</ele><time>2026-03-29T09:24:12Z</time></trkpt><trkpt lat="38.06856296039156" lon="13.212843518470622"><ele>832.0</ele><time>2026-03-29T09:24:13Z</time></trkpt><trkpt lat="38.068638870999905" lon="13.212873102933889"><ele>827.0</ele><time>2026-03-29T09:24:14Z</time></trkpt><trkpt lat="38.0687587625847" lon="13.212910893509967"><ele>822.0</ele><time>2026-03-29T09:24:16Z</time></trkpt><trkpt lat="38.06886460900835" lon="13.212936507906123"><ele>822.0</ele><time>2026-03-29T09:24:18Z</time></trkpt><trkpt lat="38.06893715473956" lon="13.212965650959088"><ele>822.0</ele><time>2026-03-29T09:24:19Z</time></trkpt><trkpt lat="38.069008106198865" lon="13.212991902576162"><ele>822.0</ele><time>2026-03-29T09:24:20Z</time></trkpt><trkpt lat="38.06914042157652" lon="13.213032570854061"><ele>822.0</ele><time>2026-03-29T09:24:22Z</time></trkpt><trkpt lat="38.06920080115462" lon="13.213058283395442"><ele>822.0</ele><time>2026-03-29T09:24:23Z</time></trkpt><trkpt lat="38.0692671858479" lon="13.21308603263792"><ele>822.0</ele><time>2026-03-29T09:24:24Z</time></trkpt><trkpt lat="38.06933148452307" lon="13.213122657229425"><ele>823.1428571428571</ele><time>2026-03-29T09:24:25Z</time></trkpt><trkpt lat="38.069409512616794" lon="13.213143019874371"><ele>824.2857142857142</ele><time>2026-03-29T09:24:26Z</time></trkpt><trkpt lat="38.06947647857784" lon="13.21317220860301"><ele>825.4285714285714</ele><time>2026-03-29T09:24:27Z</time></trkpt><trkpt lat="38.069542305139684" lon="13.213206141246665"><ele>826.5714285714286</ele><time>2026-03-29T09:24:28Z</time></trkpt><trkpt lat="38.06960722341979" lon="13.213234083517307"><ele>827.7142857142858</ele><time>2026-03-29T09:24:29Z</time></trkpt><trkpt lat="38.06967082648854" lon="13.213269346617551"><ele>828.8571428571429</ele><time>2026-03-29T09:24:30Z</time></trkpt><trkpt lat="38.06974391605087" lon="13.213281921429425"><ele>830.0</ele><time>2026-03-29T09:24:31Z</time></trkpt><trkpt lat="38.06980789172467" lon="13.213303964822147"><ele>830.0000000000001</ele><time>2026-03-29T09:24:32Z</time></trkpt><trkpt lat="38.06987418584831" lon="13.213350932677251"><ele>830.0</ele><time>2026-03-29T09:24:33Z</time></trkpt><trkpt lat="38.06995850871988" lon="13.213390926243012"><ele>830.0</ele><time>2026-03-29T09:24:34Z</time></trkpt><trkpt lat="38.07002901399253" lon="13.213421666327376"><ele>830.0</ele><time>2026-03-29T09:24:35Z</time></trkpt><trkpt lat="38.07011126228937" lon="13.21343523851309"><ele>830.0000000000001</ele><time>2026-03-29T09:24:36Z</time></trkpt><trkpt lat="38.07018411721477" lon="13.213450134892202"><ele>830.0</ele><time>2026-03-29T09:24:37Z</time></trkpt><trkpt lat="38.07025578792015" lon="13.21347133732456"><ele>828.1666666666667</ele><time>2026-03-29T09:24:38Z</time></trkpt><trkpt lat="38.0703249791207" lon="13.213503293967936"><ele>826.3333333333334</ele><time>2026-03-29T09:24:39Z</time></trkpt><trkpt lat="38.07038989243615" lon="13.213531432933996"><ele>824.5</ele><time>2026-03-29T09:24:40Z</time></trkpt><trkpt lat="38.070464299663705" lon="13.213565262421731"><ele>822.6666666666667</ele><time>2026-03-29T09:24:41Z</time></trkpt><trkpt lat="38.070543044740184" lon="13.213595642094305"><ele>820.8333333333334</ele><time>2026-03-29T09:24:42Z</time></trkpt><trkpt lat="38.07061536274745" lon="13.21362459992161"><ele>819.0</ele><time>2026-03-29T09:24:43Z</time></trkpt><trkpt lat="38.07068258333363" lon="13.213669493775622"><ele>819.0</ele><time>2026-03-29T09:24:44Z</time></trkpt><trkpt lat="38.07074072294077" lon="13.213718370210726"><ele>819.0</ele><time>2026-03-29T09:24:45Z</time></trkpt><trkpt lat="38.070817640489764" lon="13.213782943730406"><ele>819.0</ele><time>2026-03-29T09:24:46Z</time></trkpt><trkpt lat="38.0708771819933" lon="13.213849012485198"><ele>819.0</ele><time>2026-03-29T09:24:47Z</time></trkpt><trkpt lat="38.070931120557525" lon="13.213909571363901"><ele>819.0</ele><time>2026-03-29T09:24:48Z</time></trkpt><trkpt lat="38.0709827742458" lon="13.213969248670693"><ele>819.0</ele><time>2026-03-29T09:24:49Z</time></trkpt><trkpt lat="38.07102017975072" lon="13.214035126225681"><ele>819.0</ele><time>2026-03-29T09:24:50Z</time></trkpt><trkpt lat="38.07105303104389" lon="13.214114755546941"><ele>819.8333333333334</ele><time>2026-03-29T09:24:51Z</time></trkpt><trkpt lat="38.07107790212599" lon="13.21419886117277"><ele>820.6666666666667</ele><time>2026-03-29T09:24:52Z</time></trkpt><trkpt lat="38.07111476828818" lon="13.214329447000654"><ele>821.5</ele><time>2026-03-29T09:24:54Z</time></trkpt><trkpt lat="38.07113222569915" lon="13.21446497337447"><ele>822.3333333333334</ele><time>2026-03-29T09:24:56Z</time></trkpt><trkpt lat="38.07115668438383" lon="13.214538782192566"><ele>823.1666666666667</ele><time>2026-03-29T09:24:59Z</time></trkpt><trkpt lat="38.07119442894523" lon="13.214460595547845"><ele>824.0</ele><time>2026-03-29T09:25:02Z</time></trkpt><trkpt lat="38.07119374338694" lon="13.214369563872486"><ele>824.0000000000001</ele><time>2026-03-29T09:25:19Z</time></trkpt><trkpt lat="38.07118592479897" lon="13.214280884956752"><ele>824.0</ele><time>2026-03-29T09:25:20Z</time></trkpt><trkpt lat="38.07117995039183" lon="13.2141844927034"><ele>824.0</ele><time>2026-03-29T09:25:21Z</time></trkpt><trkpt lat="38.07117771486036" lon="13.214079279084991"><ele>824.0</ele><time>2026-03-29T09:25:22Z</time></trkpt><trkpt lat="38.0711625852786" lon="13.213970513106737"><ele>824.0000000000001</ele><time>2026-03-29T09:25:23Z</time></trkpt><trkpt lat="38.0711310825557" lon="13.213865374905335"><ele>824.0</ele><time>2026-03-29T09:25:24Z</time></trkpt><trkpt lat="38.07109788151645" lon="13.21377022705671"><ele>820.4000000000001</ele><time>2026-03-29T09:25:25Z</time></trkpt><trkpt lat="38.07104959625381" lon="13.213670391609163"><ele>816.8</ele><time>2026-03-29T09:25:26Z</time></trkpt><trkpt lat="38.07100063928402" lon="13.213572268212936"><ele>813.2</ele><time>2026-03-29T09:25:27Z</time></trkpt><trkpt lat="38.070937927878354" lon="13.213486090654124"><ele>809.5999999999999</ele><time>2026-03-29T09:25:28Z</time></trkpt><trkpt lat="38.070880877566566" lon="13.213395998241245"><ele>806.0</ele><time>2026-03-29T09:25:29Z</time></trkpt><trkpt lat="38.07082322561277" lon="13.213311465723041"><ele>804.5000000000001</ele><time>2026-03-29T09:25:30Z</time></trkpt><trkpt lat="38.0707613803137" lon="13.213232629636366"><ele>803.0</ele><time>2026-03-29T09:25:31Z</time></trkpt><trkpt lat="38.07070574420132" lon="13.213158211782657"><ele>801.5</ele><time>2026-03-29T09:25:32Z</time></trkpt><trkpt lat="38.070653790389585" lon="13.213076838180237"><ele>800.0</ele><time>2026-03-29T09:25:33Z</time></trkpt><trkpt lat="38.070594558079286" lon="13.212994025837038"><ele>798.5000000000001</ele><time>2026-03-29T09:25:34Z</time></trkpt><trkpt lat="38.070538563176115" lon="13.212915034351536"><ele>797.0</ele><time>2026-03-29T09:25:35Z</time></trkpt><trkpt lat="38.07048688023727" lon="13.212835180558832"><ele>797.0000000000001</ele><time>2026-03-29T09:25:36Z</time></trkpt><trkpt lat="38.07043827438561" lon="13.212767825257886"><ele>797.0</ele><time>2026-03-29T09:25:37Z</time></trkpt><trkpt lat="38.07037567960788" lon="13.212681263259707"><ele>797.0</ele><time>2026-03-29T09:25:38Z</time></trkpt><trkpt lat="38.07032627903573" lon="13.212614344043594"><ele>797.0</ele><time>2026-03-29T09:25:39Z</time></trkpt><trkpt lat="38.070283850068066" lon="13.212551081274455"><ele>797.0000000000001</ele><time>2026-03-29T09:25:40Z</time></trkpt><trkpt lat="38.07024629786735" lon="13.212472704661128"><ele>797.0</ele><time>2026-03-29T09:25:42Z</time></trkpt><trkpt lat="38.070329796386766" lon="13.212482054113252"><ele>797.0000000000001</ele><time>2026-03-29T09:25:45Z</time></trkpt><trkpt lat="38.070406072698944" lon="13.212563971011297"><ele>797.0</ele><time>2026-03-29T09:25:47Z</time></trkpt><trkpt lat="38.07048109118554" lon="13.212553780027163"><ele>797.0</ele><time>2026-03-29T09:25:49Z</time></trkpt><trkpt lat="38.07055002837989" lon="13.21253097684758"><ele>797.0</ele><time>2026-03-29T09:25:52Z</time></trkpt><trkpt lat="38.070621042350915" lon="13.2125194641704"><ele>797.0000000000001</ele><time>2026-03-29T09:25:57Z</time></trkpt><trkpt lat="38.07069637146731" lon="13.212532666035115"><ele>797.0</ele><time>2026-03-29T09:26:00Z</time></trkpt><trkpt lat="38.07078140097696" lon="13.212565584845596"><ele>795.1666666666667</ele><time>2026-03-29T09:26:03Z</time></trkpt><trkpt lat="38.0708505516182" lon="13.212562941152402"><ele>793.3333333333334</ele><time>2026-03-29T09:26:08Z</time></trkpt><trkpt lat="38.07092194661313" lon="13.212567582426328"><ele>791.5</ele><time>2026-03-29T09:26:10Z</time></trkpt><trkpt lat="38.07098692031582" lon="13.21256172428143"><ele>789.6666666666667</ele><time>2026-03-29T09:26:12Z</time></trkpt><trkpt lat="38.07109437527021" lon="13.212580058217194"><ele>787.8333333333334</ele><time>2026-03-29T09:26:15Z</time></trkpt><trkpt lat="38.07117219485222" lon="13.212591405589695"><ele>786.0</ele><time>2026-03-29T09:26:17Z</time></trkpt><trkpt lat="38.071264814606955" lon="13.212575863713141"><ele>786.0</ele><time>2026-03-29T09:26:21Z</time></trkpt><trkpt lat="38.07133024345585" lon="13.212580705817446"><ele>786.0</ele><time>2026-03-29T09:26:24Z</time></trkpt><trkpt lat="38.07138862803762" lon="13.212634328803832"><ele>786.0</ele><time>2026-03-29T09:26:26Z</time></trkpt><trkpt lat="38.071447057127386" lon="13.212733771441567"><ele>786.0</ele><time>2026-03-29T09:26:28Z</time></trkpt><trkpt lat="38.07150763774099" lon="13.212816850696864"><ele>786.0</ele><time>2026-03-29T09:26:29.999Z</time></trkpt><trkpt lat="38.071591961552315" lon="13.21289844032956"><ele>786.0</ele><time>2026-03-29T09:26:31.999Z</time></trkpt><trkpt lat="38.07167678713756" lon="13.212989622177565"><ele>786.1999999999999</ele><time>2026-03-29T09:26:33.999Z</time></trkpt><trkpt lat="38.07174077177223" lon="13.213082978437779"><ele>786.4</ele><time>2026-03-29T09:26:35.999Z</time></trkpt><trkpt lat="38.07180164578771" lon="13.213209933891529"><ele>786.6</ele><time>2026-03-29T09:26:37.999Z</time></trkpt><trkpt lat="38.07184178361317" lon="13.213350869404325"><ele>786.8</ele><time>2026-03-29T09:26:39.999Z</time></trkpt><trkpt lat="38.071867463050836" lon="13.213495160493265"><ele>787.0</ele><time>2026-03-29T09:26:42Z</time></trkpt><trkpt lat="38.07190473345794" lon="13.213634903553181"><ele>787.0</ele><time>2026-03-29T09:26:44Z</time></trkpt><trkpt lat="38.07193818992796" lon="13.213768521087585"><ele>787.0</ele><time>2026-03-29T09:26:46Z</time></trkpt><trkpt lat="38.07197046650651" lon="13.213912752094384"><ele>787.0</ele><time>2026-03-29T09:26:48Z</time></trkpt><trkpt lat="38.07199275016449" lon="13.214034539745915"><ele>787.0</ele><time>2026-03-29T09:26:50Z</time></trkpt><trkpt lat="38.07202597776044" lon="13.214137486733105"><ele>787.0</ele><time>2026-03-29T09:26:52Z</time></trkpt><trkpt lat="38.07204629743681" lon="13.21422052689004"><ele>787.3333333333333</ele><time>2026-03-29T09:26:54Z</time></trkpt><trkpt lat="38.07204910510824" lon="13.214333351943102"><ele>787.6666666666666</ele><time>2026-03-29T09:26:57Z</time></trkpt><trkpt lat="38.072016485881925" lon="13.214439698318529"><ele>788.0</ele><time>2026-03-29T09:27:32.001Z</time></trkpt><trkpt lat="38.071942459004994" lon="13.214578896515006"><ele>788.3333333333333</ele><time>2026-03-29T09:27:34.001Z</time></trkpt><trkpt lat="38.07191579243459" lon="13.214653417100287"><ele>788.6666666666666</ele><time>2026-03-29T09:27:35.001Z</time></trkpt><trkpt lat="38.071898488337" lon="13.214740488090557"><ele>789.0</ele><time>2026-03-29T09:27:36.001Z</time></trkpt><trkpt lat="38.07188692907378" lon="13.214892356863439"><ele>789.0</ele><time>2026-03-29T09:27:38Z</time></trkpt><trkpt lat="38.071856890553555" lon="13.21503296713839"><ele>789.0</ele><time>2026-03-29T09:27:40Z</time></trkpt><trkpt lat="38.07184344738714" lon="13.215158841398738"><ele>789.0</ele><time>2026-03-29T09:27:42Z</time></trkpt><trkpt lat="38.07184229202431" lon="13.215280645186557"><ele>789.0</ele><time>2026-03-29T09:27:44Z</time></trkpt><trkpt lat="38.07181782185714" lon="13.21537973421409"><ele>789.0</ele><time>2026-03-29T09:27:46Z</time></trkpt><trkpt lat="38.07179748008059" lon="13.215478006817778"><ele>789.0</ele><time>2026-03-29T09:27:48Z</time></trkpt><trkpt lat="38.07179283161017" lon="13.215622087758742"><ele>789.0</ele><time>2026-03-29T09:27:50Z</time></trkpt><trkpt lat="38.07178760113827" lon="13.21572657652503"><ele>789.0</ele><time>2026-03-29T09:27:52Z</time></trkpt><trkpt lat="38.071784889659796" lon="13.215841778953685"><ele>789.0</ele><time>2026-03-29T09:27:54Z</time></trkpt><trkpt lat="38.07175837008995" lon="13.215995999725257"><ele>789.0</ele><time>2026-03-29T09:27:56Z</time></trkpt><trkpt lat="38.07173135669515" lon="13.216125265514545"><ele>788.5</ele><time>2026-03-29T09:27:58Z</time></trkpt><trkpt lat="38.07170318265891" lon="13.21619871742413"><ele>788.0</ele><time>2026-03-29T09:27:59Z</time></trkpt><trkpt lat="38.071651042528515" lon="13.216292203956694"><ele>787.5</ele><time>2026-03-29T09:28:01Z</time></trkpt><trkpt lat="38.07162677539694" lon="13.21638841879908"><ele>787.0</ele><time>2026-03-29T09:28:03Z</time></trkpt><trkpt lat="38.07163779787306" lon="13.216534174669578"><ele>786.5</ele><time>2026-03-29T09:28:05Z</time></trkpt><trkpt lat="38.07165074899763" lon="13.216613835652645"><ele>786.0</ele><time>2026-03-29T09:28:06Z</time></trkpt><trkpt lat="38.07165288266059" lon="13.216694394236931"><ele>785.1999999999999</ele><time>2026-03-29T09:28:07Z</time></trkpt><trkpt lat="38.07164464554692" lon="13.216780576411692"><ele>784.4</ele><time>2026-03-29T09:28:08Z</time></trkpt><trkpt lat="38.07163839952337" lon="13.216942764296427"><ele>783.6</ele><time>2026-03-29T09:28:10Z</time></trkpt><trkpt lat="38.07164738118148" lon="13.217024265206268"><ele>782.8</ele><time>2026-03-29T09:28:11Z</time></trkpt><trkpt lat="38.07166962337915" lon="13.21715775651211"><ele>782.0</ele><time>2026-03-29T09:28:13Z</time></trkpt><trkpt lat="38.07168422982058" lon="13.217310403108984"><ele>784.2</ele><time>2026-03-29T09:28:15Z</time></trkpt><trkpt lat="38.07169084199083" lon="13.217464525402615"><ele>786.4000000000001</ele><time>2026-03-29T09:28:17Z</time></trkpt><trkpt lat="38.07170614461884" lon="13.217598435296022"><ele>788.5999999999999</ele><time>2026-03-29T09:28:19Z</time></trkpt><trkpt lat="38.071728103959444" lon="13.217734954713015"><ele>790.8</ele><time>2026-03-29T09:28:21Z</time></trkpt><trkpt lat="38.07173294051563" lon="13.217816498383488"><ele>793.0</ele><time>2026-03-29T09:28:22Z</time></trkpt><trkpt lat="38.07170345483935" lon="13.217906926752605"><ele>793.0</ele><time>2026-03-29T09:28:26Z</time></trkpt><trkpt lat="38.07167980007076" lon="13.218045181685607"><ele>793.0</ele><time>2026-03-29T09:28:28Z</time></trkpt><trkpt lat="38.071700949428696" lon="13.218158159783833"><ele>793.0</ele><time>2026-03-29T09:28:30Z</time></trkpt><trkpt lat="38.07171474840422" lon="13.218254787052523"><ele>793.0</ele><time>2026-03-29T09:28:32Z</time></trkpt><trkpt lat="38.07169572809245" lon="13.218364373117439"><ele>793.0</ele><time>2026-03-29T09:28:34Z</time></trkpt><trkpt lat="38.07168640142703" lon="13.218475080131261"><ele>795.1666666666666</ele><time>2026-03-29T09:28:36Z</time></trkpt><trkpt lat="38.07165399289404" lon="13.218568016721457"><ele>797.3333333333333</ele><time>2026-03-29T09:28:38Z</time></trkpt><trkpt lat="38.071661486784635" lon="13.218710719046632"><ele>799.5</ele><time>2026-03-29T09:28:40Z</time></trkpt><trkpt lat="38.071676603047585" lon="13.218804268984035"><ele>801.6666666666667</ele><time>2026-03-29T09:28:42Z</time></trkpt><trkpt lat="38.07169299569878" lon="13.218892104800382"><ele>803.8333333333334</ele><time>2026-03-29T09:28:44Z</time></trkpt><trkpt lat="38.07170473456505" lon="13.219014159282377"><ele>806.0</ele><time>2026-03-29T09:28:46Z</time></trkpt><trkpt lat="38.07172261718751" lon="13.219118860135671"><ele>808.5999999999999</ele><time>2026-03-29T09:28:48.001Z</time></trkpt><trkpt lat="38.07178939473708" lon="13.219235388508217"><ele>811.2</ele><time>2026-03-29T09:28:50.001Z</time></trkpt><trkpt lat="38.07187676872209" lon="13.219311074541375"><ele>813.8</ele><time>2026-03-29T09:28:52.001Z</time></trkpt><trkpt lat="38.0719495649173" lon="13.21934481639072"><ele>816.4000000000001</ele><time>2026-03-29T09:28:54.001Z</time></trkpt><trkpt lat="38.072023609696686" lon="13.219382540434541"><ele>819.0</ele><time>2026-03-29T09:28:56.001Z</time></trkpt><trkpt lat="38.072062799526776" lon="13.219475467000812"><ele>819.0</ele><time>2026-03-29T09:28:58.001Z</time></trkpt><trkpt lat="38.07213399966048" lon="13.21950170318877"><ele>819.0</ele><time>2026-03-29T09:29:00Z</time></trkpt><trkpt lat="38.07222467912128" lon="13.219540209186977"><ele>819.0</ele><time>2026-03-29T09:29:02Z</time></trkpt><trkpt lat="38.072291754754886" lon="13.21961135945635"><ele>819.0</ele><time>2026-03-29T09:29:04Z</time></trkpt><trkpt lat="38.07229554236977" lon="13.219702519847017"><ele>819.0</ele><time>2026-03-29T09:29:06Z</time></trkpt><trkpt lat="38.07232563945849" lon="13.219824980010928"><ele>819.0</ele><time>2026-03-29T09:29:08Z</time></trkpt><trkpt lat="38.07235526390124" lon="13.219937737473234"><ele>818.4000000000001</ele><time>2026-03-29T09:29:10Z</time></trkpt><trkpt lat="38.072387152008055" lon="13.220043503477639"><ele>817.8</ele><time>2026-03-29T09:29:12Z</time></trkpt><trkpt lat="38.072399061259475" lon="13.22013289615139"><ele>817.2</ele><time>2026-03-29T09:29:13Z</time></trkpt><trkpt lat="38.07243840377055" lon="13.220252204199191"><ele>816.5999999999999</ele><time>2026-03-29T09:29:15Z</time></trkpt><trkpt lat="38.0724904418601" lon="13.220371334418791"><ele>816.0</ele><time>2026-03-29T09:29:17Z</time></trkpt><trkpt lat="38.07253512694837" lon="13.220479217756123"><ele>816.0</ele><time>2026-03-29T09:29:19Z</time></trkpt><trkpt lat="38.07256838244517" lon="13.22062724694762"><ele>816.0</ele><time>2026-03-29T09:29:21Z</time></trkpt><trkpt lat="38.07261262476793" lon="13.220753803244255"><ele>816.0</ele><time>2026-03-29T09:29:23Z</time></trkpt><trkpt lat="38.07262697553546" lon="13.220866518669576"><ele>816.0</ele><time>2026-03-29T09:29:25Z</time></trkpt><trkpt lat="38.07262999830748" lon="13.220980754431437"><ele>816.0</ele><time>2026-03-29T09:29:27Z</time></trkpt><trkpt lat="38.07267453034435" lon="13.221083443415285"><ele>818.4</ele><time>2026-03-29T09:30:02Z</time></trkpt><trkpt lat="38.07269809406619" lon="13.221187326548282"><ele>820.8</ele><time>2026-03-29T09:30:04Z</time></trkpt><trkpt lat="38.07274148488382" lon="13.221317885337747"><ele>823.1999999999999</ele><time>2026-03-29T09:30:06Z</time></trkpt><trkpt lat="38.072773062466254" lon="13.221427804602152"><ele>825.5999999999999</ele><time>2026-03-29T09:30:08Z</time></trkpt><trkpt lat="38.07278472866809" lon="13.2215360369507"><ele>828.0</ele><time>2026-03-29T09:30:10Z</time></trkpt><trkpt lat="38.07278782326261" lon="13.221638057592088"><ele>830.8333333333334</ele><time>2026-03-29T09:30:12Z</time></trkpt><trkpt lat="38.07270364335033" lon="13.221691189020767"><ele>833.6666666666667</ele><time>2026-03-29T09:30:15Z</time></trkpt><trkpt lat="38.07265386089279" lon="13.221757649258722"><ele>836.5</ele><time>2026-03-29T09:30:18Z</time></trkpt><trkpt lat="38.072642949413016" lon="13.221853634312962"><ele>839.3333333333334</ele><time>2026-03-29T09:30:20Z</time></trkpt><trkpt lat="38.07259679334632" lon="13.221926682595218"><ele>842.1666666666667</ele><time>2026-03-29T09:30:23Z</time></trkpt><trkpt lat="38.07255332188571" lon="13.221998933983155"><ele>845.0</ele><time>2026-03-29T09:30:26Z</time></trkpt><trkpt lat="38.072513753093794" lon="13.22208587849533"><ele>845.0000000000001</ele><time>2026-03-29T09:31:39Z</time></trkpt><trkpt lat="38.07252528572578" lon="13.222187412257709"><ele>845.0</ele><time>2026-03-29T09:33:43Z</time></trkpt><trkpt lat="38.072541682715524" lon="13.222289622713262"><ele>845.0</ele><time>2026-03-29T09:33:45Z</time></trkpt><trkpt lat="38.07252787130406" lon="13.222375663824566"><ele>845.0</ele><time>2026-03-29T09:33:47Z</time></trkpt><trkpt lat="38.072505923653665" lon="13.222453443792741"><ele>845.0000000000001</ele><time>2026-03-29T09:37:11Z</time></trkpt><trkpt lat="38.072531234708066" lon="13.22254777670448"><ele>845.0</ele><time>2026-03-29T09:37:13Z</time></trkpt><trkpt lat="38.07256032744509" lon="13.222663032937767"><ele>847.2</ele><time>2026-03-29T09:37:16Z</time></trkpt><trkpt lat="38.072575598082295" lon="13.222776233557486"><ele>849.4</ele><time>2026-03-29T09:37:18Z</time></trkpt><trkpt lat="38.072606027448536" lon="13.222897058431327"><ele>851.5999999999999</ele><time>2026-03-29T09:37:20Z</time></trkpt><trkpt lat="38.0726092121966" lon="13.223000981240101"><ele>853.8</ele><time>2026-03-29T09:37:22Z</time></trkpt><trkpt lat="38.07258724151812" lon="13.22311237616736"><ele>856.0</ele><time>2026-03-29T09:37:24Z</time></trkpt><trkpt lat="38.07255793194176" lon="13.223225246330358"><ele>855.9999999999999</ele><time>2026-03-29T09:37:26Z</time></trkpt><trkpt lat="38.07251675829075" lon="13.223321952048291"><ele>856.0</ele><time>2026-03-29T09:37:28Z</time></trkpt><trkpt lat="38.07246527840843" lon="13.223404180886263"><ele>856.0</ele><time>2026-03-29T09:37:31Z</time></trkpt><trkpt lat="38.07243477847959" lon="13.223502773526603"><ele>856.0</ele><time>2026-03-29T09:37:34Z</time></trkpt><trkpt lat="38.072447893714575" lon="13.223587395419502"><ele>855.9999999999999</ele><time>2026-03-29T09:37:36Z</time></trkpt><trkpt lat="38.07244943279986" lon="13.223683022317235"><ele>856.0</ele><time>2026-03-29T09:37:39Z</time></trkpt><trkpt lat="38.072403230092846" lon="13.223767219584843"><ele>858.4</ele><time>2026-03-29T09:37:41Z</time></trkpt><trkpt lat="38.07236625827508" lon="13.223870676742747"><ele>860.8</ele><time>2026-03-29T09:37:44Z</time></trkpt><trkpt lat="38.072365041168695" lon="13.223992667454652"><ele>863.1999999999999</ele><time>2026-03-29T09:37:47Z</time></trkpt><trkpt lat="38.07233376374846" lon="13.224093655034034"><ele>865.5999999999999</ele><time>2026-03-29T09:37:49Z</time></trkpt><trkpt lat="38.072309475080225" lon="13.224192089356878"><ele>868.0</ele><time>2026-03-29T09:37:51Z</time></trkpt><trkpt lat="38.072284394410566" lon="13.224313123379721"><ele>867.9999999999999</ele><time>2026-03-29T09:37:53Z</time></trkpt><trkpt lat="38.07228205797703" lon="13.224437903001693"><ele>868.0</ele><time>2026-03-29T09:37:55Z</time></trkpt><trkpt lat="38.07227106939751" lon="13.224542774834088"><ele>868.0</ele><time>2026-03-29T09:37:57Z</time></trkpt><trkpt lat="38.07226802705418" lon="13.22463844989757"><ele>868.0</ele><time>2026-03-29T09:37:59Z</time></trkpt><trkpt lat="38.072249890801636" lon="13.224720124475082"><ele>867.9999999999999</ele><time>2026-03-29T09:38:01Z</time></trkpt><trkpt lat="38.07227322581179" lon="13.224836159356634"><ele>868.0</ele><time>2026-03-29T09:38:04Z</time></trkpt><trkpt lat="38.07230028424918" lon="13.224962812116587"><ele>865.8</ele><time>2026-03-29T09:38:07Z</time></trkpt><trkpt lat="38.07228496848993" lon="13.22506741090158"><ele>863.5999999999999</ele><time>2026-03-29T09:38:09Z</time></trkpt><trkpt lat="38.072272920178506" lon="13.225203307637118"><ele>861.4000000000001</ele><time>2026-03-29T09:38:11Z</time></trkpt><trkpt lat="38.072287982296196" lon="13.225330124547867"><ele>859.2</ele><time>2026-03-29T09:38:13Z</time></trkpt><trkpt lat="38.072299217892315" lon="13.225430651216321"><ele>857.0</ele><time>2026-03-29T09:38:15Z</time></trkpt><trkpt lat="38.07232041069464" lon="13.225535059218453"><ele>857.0000000000001</ele><time>2026-03-29T09:38:17Z</time></trkpt><trkpt lat="38.072342553653286" lon="13.225610726826858"><ele>857.0</ele><time>2026-03-29T09:38:19Z</time></trkpt><trkpt lat="38.07235741285567" lon="13.225722273825818"><ele>857.0</ele><time>2026-03-29T09:38:21Z</time></trkpt><trkpt lat="38.07240111477707" lon="13.225815661589625"><ele>857.0</ele><time>2026-03-29T09:38:23Z</time></trkpt><trkpt lat="38.07243566711375" lon="13.225893705894848"><ele>857.0000000000001</ele><time>2026-03-29T09:38:25Z</time></trkpt><trkpt lat="38.07248121993148" lon="13.225976373278364"><ele>857.0</ele><time>2026-03-29T09:38:27Z</time></trkpt><trkpt lat="38.07251852083584" lon="13.22605294333706"><ele>850.5000000000001</ele><time>2026-03-29T09:38:29Z</time></trkpt><trkpt lat="38.07256496207706" lon="13.226140860427462"><ele>844.0</ele><time>2026-03-29T09:38:33Z</time></trkpt><trkpt lat="38.072628809454486" lon="13.226188119482643"><ele>837.5</ele><time>2026-03-29T09:38:36Z</time></trkpt><trkpt lat="38.07271826996057" lon="13.226236841284338"><ele>831.0</ele><time>2026-03-29T09:38:39Z</time></trkpt><trkpt lat="38.072782998648236" lon="13.22624360757652"><ele>824.5000000000001</ele><time>2026-03-29T09:38:41Z</time></trkpt><trkpt lat="38.07287184639501" lon="13.226248655684508"><ele>818.0</ele><time>2026-03-29T09:38:44Z</time></trkpt><trkpt lat="38.07294558690792" lon="13.226233757149641"><ele>818.0000000000001</ele><time>2026-03-29T09:38:46Z</time></trkpt><trkpt lat="38.07301536004298" lon="13.226235787130195"><ele>818.0</ele><time>2026-03-29T09:38:48Z</time></trkpt><trkpt lat="38.07309070896465" lon="13.226245876900416"><ele>818.0</ele><time>2026-03-29T09:38:50Z</time></trkpt><trkpt lat="38.07316755067485" lon="13.22624786061366"><ele>818.0</ele><time>2026-03-29T09:38:52Z</time></trkpt><trkpt lat="38.07325952831094" lon="13.226249743769735"><ele>818.0000000000001</ele><time>2026-03-29T09:38:55Z</time></trkpt><trkpt lat="38.07334590312713" lon="13.226255576918248"><ele>818.0</ele><time>2026-03-29T09:38:58Z</time></trkpt><trkpt lat="38.07342150512799" lon="13.226311484461696"><ele>816.0000000000001</ele><time>2026-03-29T09:39:01Z</time></trkpt><trkpt lat="38.073476502286255" lon="13.226390883672662"><ele>814.0</ele><time>2026-03-29T09:39:03Z</time></trkpt><trkpt lat="38.073541385187106" lon="13.226404561390517"><ele>812.0</ele><time>2026-03-29T09:39:05Z</time></trkpt><trkpt lat="38.07361431932234" lon="13.226371376604833"><ele>810.0</ele><time>2026-03-29T09:39:11Z</time></trkpt><trkpt lat="38.073683678599174" lon="13.226451715526204"><ele>808.0000000000001</ele><time>2026-03-29T09:39:14Z</time></trkpt><trkpt lat="38.073747546567645" lon="13.226518840179322"><ele>806.0</ele><time>2026-03-29T09:39:16Z</time></trkpt><trkpt lat="38.073809020635565" lon="13.226577149924319"><ele>804.8333333333334</ele><time>2026-03-29T09:39:18Z</time></trkpt><trkpt lat="38.073878614483625" lon="13.226673387127905"><ele>803.6666666666667</ele><time>2026-03-29T09:39:21Z</time></trkpt><trkpt lat="38.073931911707994" lon="13.226733812516953"><ele>802.5</ele><time>2026-03-29T09:39:23Z</time></trkpt><trkpt lat="38.07398623826061" lon="13.226807677207312"><ele>801.3333333333333</ele><time>2026-03-29T09:39:25Z</time></trkpt><trkpt lat="38.07403982549758" lon="13.226894250845545"><ele>800.1666666666666</ele><time>2026-03-29T09:39:27Z</time></trkpt><trkpt lat="38.07408338008676" lon="13.226960163385602"><ele>799.0</ele><time>2026-03-29T09:39:29Z</time></trkpt><trkpt lat="38.074132133929595" lon="13.227022831115507"><ele>797.8333333333333</ele><time>2026-03-29T09:39:31Z</time></trkpt><trkpt lat="38.07417418381166" lon="13.227127363876681"><ele>796.6666666666666</ele><time>2026-03-29T09:39:34Z</time></trkpt><trkpt lat="38.07419384874229" lon="13.227216095295377"><ele>795.5</ele><time>2026-03-29T09:39:36Z</time></trkpt><trkpt lat="38.07420707295431" lon="13.227328179907515"><ele>794.3333333333333</ele><time>2026-03-29T09:39:38Z</time></trkpt><trkpt lat="38.074230434472064" lon="13.227419740445974"><ele>793.1666666666666</ele><time>2026-03-29T09:39:40Z</time></trkpt><trkpt lat="38.074253201755674" lon="13.22751304095545"><ele>792.0</ele><time>2026-03-29T09:39:43Z</time></trkpt><trkpt lat="38.07425066671805" lon="13.227619956403483"><ele>789.6666666666666</ele><time>2026-03-29T09:39:46Z</time></trkpt><trkpt lat="38.07427441828213" lon="13.227697108068076"><ele>787.3333333333333</ele><time>2026-03-29T09:39:48Z</time></trkpt><trkpt lat="38.074274515610185" lon="13.227789809072155"><ele>785.0</ele><time>2026-03-29T09:39:50Z</time></trkpt><trkpt lat="38.07426950278872" lon="13.227894522033989"><ele>782.6666666666666</ele><time>2026-03-29T09:39:52Z</time></trkpt><trkpt lat="38.07426240541593" lon="13.228007774648841"><ele>780.3333333333333</ele><time>2026-03-29T09:39:54Z</time></trkpt><trkpt lat="38.07423655414474" lon="13.228109673693396"><ele>778.0</ele><time>2026-03-29T09:39:56Z</time></trkpt><trkpt lat="38.07418717856903" lon="13.228166548917292"><ele>778.7142857142858</ele><time>2026-03-29T09:39:58Z</time></trkpt><trkpt lat="38.07415506928806" lon="13.228244866526671"><ele>779.4285714285713</ele><time>2026-03-29T09:40:00Z</time></trkpt><trkpt lat="38.07410945423484" lon="13.228306100298646"><ele>780.1428571428571</ele><time>2026-03-29T09:40:02Z</time></trkpt><trkpt lat="38.07410072063529" lon="13.228427462439848"><ele>780.8571428571429</ele><time>2026-03-29T09:40:05Z</time></trkpt><trkpt lat="38.07408334994963" lon="13.22850738874824"><ele>781.5714285714287</ele><time>2026-03-29T09:40:07Z</time></trkpt><trkpt lat="38.07408690553695" lon="13.228602189450937"><ele>782.2857142857142</ele><time>2026-03-29T09:40:09Z</time></trkpt><trkpt lat="38.07411563224685" lon="13.22868075424996"><ele>783.0</ele><time>2026-03-29T09:40:11Z</time></trkpt><trkpt lat="38.07411890625091" lon="13.22876346248396"><ele>783.0</ele><time>2026-03-29T09:40:13Z</time></trkpt><trkpt lat="38.07412740143842" lon="13.22887631752075"><ele>783.0</ele><time>2026-03-29T09:40:16Z</time></trkpt><trkpt lat="38.074103803399794" lon="13.228961624679325"><ele>783.0</ele><time>2026-03-29T09:40:18Z</time></trkpt><trkpt lat="38.074116048547964" lon="13.229055023157446"><ele>783.0</ele><time>2026-03-29T09:40:20Z</time></trkpt><trkpt lat="38.07411093859799" lon="13.22913990198411"><ele>783.0</ele><time>2026-03-29T09:40:22Z</time></trkpt><trkpt lat="38.07410500217495" lon="13.22923881213679"><ele>783.0</ele><time>2026-03-29T09:40:26Z</time></trkpt><trkpt lat="38.07408039587941" lon="13.22932358856207"><ele>781.6666666666666</ele><time>2026-03-29T09:40:30Z</time></trkpt><trkpt lat="38.074076936905016" lon="13.229409660522506"><ele>780.3333333333333</ele><time>2026-03-29T09:40:35Z</time></trkpt><trkpt lat="38.074069022197946" lon="13.22950265449659"><ele>779.0</ele><time>2026-03-29T09:40:44Z</time></trkpt><trkpt lat="38.07401792472688" lon="13.229570816608135"><ele>777.6666666666666</ele><time>2026-03-29T09:40:48Z</time></trkpt><trkpt lat="38.07398519295354" lon="13.229654265045578"><ele>776.3333333333333</ele><time>2026-03-29T09:40:52Z</time></trkpt><trkpt lat="38.07395897270787" lon="13.229754832191249"><ele>775.0</ele><time>2026-03-29T09:40:55Z</time></trkpt><trkpt lat="38.073921071530016" lon="13.229848103008178"><ele>772.4999999999999</ele><time>2026-03-29T09:40:58Z</time></trkpt><trkpt lat="38.07390657203721" lon="13.22997995120832"><ele>770.0</ele><time>2026-03-29T09:41:01Z</time></trkpt><trkpt lat="38.07387460380918" lon="13.230073029004785"><ele>767.5</ele><time>2026-03-29T09:41:04Z</time></trkpt><trkpt lat="38.07385952303656" lon="13.230152422601648"><ele>765.0</ele><time>2026-03-29T09:41:06Z</time></trkpt><trkpt lat="38.07384716796632" lon="13.230233648277292"><ele>762.5</ele><time>2026-03-29T09:41:08Z</time></trkpt><trkpt lat="38.07384217039356" lon="13.230371892102283"><ele>760.0</ele><time>2026-03-29T09:41:10Z</time></trkpt><trkpt lat="38.0738399119894" lon="13.230472905475509"><ele>760.0</ele><time>2026-03-29T09:41:12Z</time></trkpt><trkpt lat="38.07385419756999" lon="13.230595493617336"><ele>760.0</ele><time>2026-03-29T09:41:14Z</time></trkpt><trkpt lat="38.0738638501869" lon="13.230736462363208"><ele>760.0</ele><time>2026-03-29T09:41:16Z</time></trkpt><trkpt lat="38.07387989662119" lon="13.230876387084242"><ele>760.0</ele><time>2026-03-29T09:41:18Z</time></trkpt><trkpt lat="38.07391334881546" lon="13.231002694807088"><ele>760.0</ele><time>2026-03-29T09:41:20Z</time></trkpt><trkpt lat="38.073947411028975" lon="13.231149158679605"><ele>758.4285714285714</ele><time>2026-03-29T09:41:22Z</time></trkpt><trkpt lat="38.07396716256549" lon="13.23123289383552"><ele>756.8571428571429</ele><time>2026-03-29T09:41:23Z</time></trkpt><trkpt lat="38.073983341882226" lon="13.231310939506752"><ele>755.2857142857142</ele><time>2026-03-29T09:41:24Z</time></trkpt><trkpt lat="38.07399914456304" lon="13.231391446492841"><ele>753.7142857142858</ele><time>2026-03-29T09:41:25Z</time></trkpt><trkpt lat="38.073999625071195" lon="13.23149309162682"><ele>752.1428571428571</ele><time>2026-03-29T09:41:27Z</time></trkpt><trkpt lat="38.07402707796675" lon="13.231582320567924"><ele>750.5714285714286</ele><time>2026-03-29T09:41:29Z</time></trkpt><trkpt lat="38.07402803498996" lon="13.231695673851952"><ele>749.0</ele><time>2026-03-29T09:41:31Z</time></trkpt><trkpt lat="38.07401319214787" lon="13.231820889678179"><ele>747.8000000000001</ele><time>2026-03-29T09:41:33Z</time></trkpt><trkpt lat="38.07400442754387" lon="13.231945763878132"><ele>746.6</ele><time>2026-03-29T09:41:35Z</time></trkpt><trkpt lat="38.07404401471225" lon="13.232066556915255"><ele>745.4</ele><time>2026-03-29T09:41:37Z</time></trkpt><trkpt lat="38.074094493305836" lon="13.23220925450824"><ele>744.2</ele><time>2026-03-29T09:41:39Z</time></trkpt><trkpt lat="38.07412457122574" lon="13.232286603648339"><ele>743.0</ele><time>2026-03-29T09:41:40Z</time></trkpt><trkpt lat="38.07418078123876" lon="13.232394420236284"><ele>741.5</ele><time>2026-03-29T09:41:42Z</time></trkpt><trkpt lat="38.07420659286018" lon="13.23247077974506"><ele>740.0</ele><time>2026-03-29T09:41:44Z</time></trkpt><trkpt lat="38.074241410536764" lon="13.232567961345108"><ele>738.5</ele><time>2026-03-29T09:41:47Z</time></trkpt><trkpt lat="38.074262592954675" lon="13.232668091017885"><ele>737.0</ele><time>2026-03-29T09:41:51Z</time></trkpt><trkpt lat="38.0743054292407" lon="13.232750586874111"><ele>735.5</ele><time>2026-03-29T09:41:54Z</time></trkpt><trkpt lat="38.07436001345247" lon="13.232818127949216"><ele>734.0</ele><time>2026-03-29T09:41:56Z</time></trkpt><trkpt lat="38.074415344346114" lon="13.232891154443088"><ele>734.0</ele><time>2026-03-29T09:41:58Z</time></trkpt><trkpt lat="38.0744888719345" lon="13.232967691610074"><ele>734.0</ele><time>2026-03-29T09:42:00Z</time></trkpt><trkpt lat="38.07456059262363" lon="13.233036200047426"><ele>734.0</ele><time>2026-03-29T09:42:02Z</time></trkpt><trkpt lat="38.07462274131892" lon="13.233127158901759"><ele>734.0</ele><time>2026-03-29T09:42:04Z</time></trkpt><trkpt lat="38.07466306668607" lon="13.233234747530496"><ele>734.0</ele><time>2026-03-29T09:42:06Z</time></trkpt><trkpt lat="38.07470104771511" lon="13.233320170187453"><ele>732.3333333333333</ele><time>2026-03-29T09:42:08Z</time></trkpt><trkpt lat="38.0747579045883" lon="13.233400580988503"><ele>730.6666666666666</ele><time>2026-03-29T09:42:10Z</time></trkpt><trkpt lat="38.07485682723139" lon="13.233396098757042"><ele>729.0</ele><time>2026-03-29T09:42:12Z</time></trkpt><trkpt lat="38.07492342679513" lon="13.233408804631239"><ele>727.3333333333334</ele><time>2026-03-29T09:42:14Z</time></trkpt><trkpt lat="38.074991230050365" lon="13.2334947151757"><ele>725.6666666666667</ele><time>2026-03-29T09:42:17Z</time></trkpt><trkpt lat="38.075048687240404" lon="13.233583044921463"><ele>724.0</ele><time>2026-03-29T09:42:19Z</time></trkpt><trkpt lat="38.075105346223374" lon="13.233650194931483"><ele>724.0</ele><time>2026-03-29T09:42:21Z</time></trkpt><trkpt lat="38.07514957351646" lon="13.233759770002797"><ele>724.0</ele><time>2026-03-29T09:42:23Z</time></trkpt><trkpt lat="38.075192447162934" lon="13.233872117720136"><ele>724.0</ele><time>2026-03-29T09:42:25Z</time></trkpt><trkpt lat="38.07520667733634" lon="13.233954297573941"><ele>724.0</ele><time>2026-03-29T09:42:27Z</time></trkpt><trkpt lat="38.07522663435545" lon="13.234046184584496"><ele>724.0</ele><time>2026-03-29T09:42:29Z</time></trkpt><trkpt lat="38.0752907531992" lon="13.234121501039295"><ele>724.0</ele><time>2026-03-29T09:42:31Z</time></trkpt><trkpt lat="38.07537088930242" lon="13.23420423253978"><ele>724.0</ele><time>2026-03-29T09:42:33Z</time></trkpt><trkpt lat="38.07545698690361" lon="13.234301937642156"><ele>724.0</ele><time>2026-03-29T09:42:35Z</time></trkpt><trkpt lat="38.07550479671008" lon="13.23435397909399"><ele>724.0</ele><time>2026-03-29T09:42:36Z</time></trkpt><trkpt lat="38.07556005638935" lon="13.234395697214671"><ele>724.0</ele><time>2026-03-29T09:42:37Z</time></trkpt><trkpt lat="38.075680060091564" lon="13.234402192388751"><ele>724.0</ele><time>2026-03-29T09:42:39Z</time></trkpt><trkpt lat="38.075748335332484" lon="13.234409368903993"><ele>724.0</ele><time>2026-03-29T09:42:41Z</time></trkpt><trkpt lat="38.07583197232353" lon="13.234488717880607"><ele>722.0</ele><time>2026-03-29T09:42:43Z</time></trkpt><trkpt lat="38.07592551122829" lon="13.234490628246862"><ele>720.0</ele><time>2026-03-29T09:42:45Z</time></trkpt><trkpt lat="38.076040755752636" lon="13.23445251453589"><ele>718.0</ele><time>2026-03-29T09:42:47Z</time></trkpt><trkpt lat="38.07615480108667" lon="13.234465333253201"><ele>716.0</ele><time>2026-03-29T09:42:49Z</time></trkpt><trkpt lat="38.07625126971523" lon="13.234489445355644"><ele>714.0</ele><time>2026-03-29T09:42:51Z</time></trkpt><trkpt lat="38.076350346344185" lon="13.234553857354415"><ele>714.0</ele><time>2026-03-29T09:42:53Z</time></trkpt><trkpt lat="38.076408802467775" lon="13.234608363892107"><ele>714.0</ele><time>2026-03-29T09:42:54Z</time></trkpt><trkpt lat="38.07645428020216" lon="13.234671702672367"><ele>714.0</ele><time>2026-03-29T09:42:55Z</time></trkpt><trkpt lat="38.07654565408084" lon="13.23475342092732"><ele>714.0</ele><time>2026-03-29T09:42:57Z</time></trkpt><trkpt lat="38.07662574919377" lon="13.234856386758556"><ele>714.0</ele><time>2026-03-29T09:42:59Z</time></trkpt><trkpt lat="38.07671746304972" lon="13.234907948946073"><ele>712.6</ele><time>2026-03-29T09:43:01Z</time></trkpt><trkpt lat="38.07681454931277" lon="13.234990244868"><ele>711.2</ele><time>2026-03-29T09:43:03Z</time></trkpt><trkpt lat="38.076897381436495" lon="13.235061962685101"><ele>709.8000000000001</ele><time>2026-03-29T09:43:05Z</time></trkpt><trkpt lat="38.07694712498965" lon="13.235152429674006"><ele>708.4000000000001</ele><time>2026-03-29T09:43:07Z</time></trkpt><trkpt lat="38.0769794285225" lon="13.235288764893289"><ele>707.0</ele><time>2026-03-29T09:43:09Z</time></trkpt><trkpt lat="38.07699658766965" lon="13.23536917806181"><ele>707.0</ele><time>2026-03-29T09:43:10Z</time></trkpt><trkpt lat="38.07702641836122" lon="13.235491506044475"><ele>707.0</ele><time>2026-03-29T09:43:12Z</time></trkpt><trkpt lat="38.07710627741018" lon="13.235583991817093"><ele>707.0</ele><time>2026-03-29T09:43:14Z</time></trkpt><trkpt lat="38.0772111986866" lon="13.235650423346614"><ele>707.0</ele><time>2026-03-29T09:43:16Z</time></trkpt><trkpt lat="38.077264592168504" lon="13.235701567681753"><ele>707.0</ele><time>2026-03-29T09:43:18Z</time></trkpt><trkpt lat="38.0773478376378" lon="13.23574953104019"><ele>704.6</ele><time>2026-03-29T09:43:20Z</time></trkpt><trkpt lat="38.077461885113536" lon="13.235771648034742"><ele>702.2</ele><time>2026-03-29T09:43:22Z</time></trkpt><trkpt lat="38.07754960695127" lon="13.235865379667963"><ele>699.8</ele><time>2026-03-29T09:43:24Z</time></trkpt><trkpt lat="38.07764967258802" lon="13.235961671619402"><ele>697.4</ele><time>2026-03-29T09:43:26Z</time></trkpt><trkpt lat="38.077714030957935" lon="13.235977971617285"><ele>695.0</ele><time>2026-03-29T09:43:27Z</time></trkpt><trkpt lat="38.07777929654509" lon="13.235988781627729"><ele>695.0</ele><time>2026-03-29T09:43:28Z</time></trkpt><trkpt lat="38.077867858694596" lon="13.236010657730475"><ele>695.0</ele><time>2026-03-29T09:43:30Z</time></trkpt><trkpt lat="38.077945766907575" lon="13.23609426306272"><ele>695.0</ele><time>2026-03-29T09:43:32Z</time></trkpt><trkpt lat="38.07797674158088" lon="13.236215799749539"><ele>695.0</ele><time>2026-03-29T09:43:34Z</time></trkpt><trkpt lat="38.0780153808019" lon="13.236306608074266"><ele>695.0</ele><time>2026-03-29T09:43:36Z</time></trkpt><trkpt lat="38.07805021091431" lon="13.23638412380189"><ele>695.0</ele><time>2026-03-29T09:43:38Z</time></trkpt><trkpt lat="38.07811040453327" lon="13.236463470294446"><ele>697.0</ele><time>2026-03-29T09:44:35Z</time></trkpt><trkpt lat="38.07813481301421" lon="13.236545182492483"><ele>699.0</ele><time>2026-03-29T09:44:37Z</time></trkpt><trkpt lat="38.07816085421064" lon="13.236633777382213"><ele>701.0</ele><time>2026-03-29T09:44:39Z</time></trkpt><trkpt lat="38.07820213003549" lon="13.23672124068198"><ele>703.0</ele><time>2026-03-29T09:44:41Z</time></trkpt><trkpt lat="38.07822907301818" lon="13.236814835971236"><ele>705.0</ele><time>2026-03-29T09:44:43Z</time></trkpt><trkpt lat="38.07830433108756" lon="13.23689551737492"><ele>707.0</ele><time>2026-03-29T09:44:46Z</time></trkpt><trkpt lat="38.07834921490489" lon="13.236964201812183"><ele>703.1666666666666</ele><time>2026-03-29T09:44:48Z</time></trkpt><trkpt lat="38.078403477038385" lon="13.23704483951691"><ele>699.3333333333333</ele><time>2026-03-29T09:44:50Z</time></trkpt><trkpt lat="38.078452801472885" lon="13.23715107578769"><ele>695.5</ele><time>2026-03-29T09:44:52Z</time></trkpt><trkpt lat="38.07849801179307" lon="13.237230589282218"><ele>691.6666666666666</ele><time>2026-03-29T09:44:54Z</time></trkpt><trkpt lat="38.07855197989207" lon="13.23728819291331"><ele>687.8333333333334</ele><time>2026-03-29T09:44:56Z</time></trkpt><trkpt lat="38.078621513352175" lon="13.237353262454223"><ele>684.0</ele><time>2026-03-29T09:44:58Z</time></trkpt><trkpt lat="38.07869590024537" lon="13.237426033391184"><ele>684.0</ele><time>2026-03-29T09:45:00Z</time></trkpt><trkpt lat="38.07876761176604" lon="13.237477682786922"><ele>684.0</ele><time>2026-03-29T09:45:02Z</time></trkpt><trkpt lat="38.07881123160677" lon="13.237579581538082"><ele>684.0</ele><time>2026-03-29T09:45:04Z</time></trkpt><trkpt lat="38.07883243167027" lon="13.237710985494743"><ele>684.0</ele><time>2026-03-29T09:45:06Z</time></trkpt><trkpt lat="38.078799822622635" lon="13.23783864522217"><ele>684.0</ele><time>2026-03-29T09:45:08Z</time></trkpt><trkpt lat="38.078820262944184" lon="13.237956607337688"><ele>684.0</ele><time>2026-03-29T09:45:10Z</time></trkpt><trkpt lat="38.07880908001398" lon="13.238087363246441"><ele>684.0</ele><time>2026-03-29T09:45:12Z</time></trkpt><trkpt lat="38.0788097529623" lon="13.238182489516944"><ele>684.0</ele><time>2026-03-29T09:45:13Z</time></trkpt><trkpt lat="38.0787975834726" lon="13.238278443276794"><ele>684.0</ele><time>2026-03-29T09:45:14Z</time></trkpt><trkpt lat="38.07878970215679" lon="13.23838015242818"><ele>684.0</ele><time>2026-03-29T09:45:15Z</time></trkpt><trkpt lat="38.07879792029167" lon="13.238468167892437"><ele>684.0</ele><time>2026-03-29T09:45:16Z</time></trkpt><trkpt lat="38.078790484497425" lon="13.238631118171801"><ele>683.8333333333334</ele><time>2026-03-29T09:45:18Z</time></trkpt><trkpt lat="38.07877065083026" lon="13.238722018261186"><ele>683.6666666666666</ele><time>2026-03-29T09:45:19Z</time></trkpt><trkpt lat="38.07874838540483" lon="13.238802368168452"><ele>683.5</ele><time>2026-03-29T09:45:20Z</time></trkpt><trkpt lat="38.078725289956" lon="13.23894206758831"><ele>683.3333333333333</ele><time>2026-03-29T09:45:22Z</time></trkpt><trkpt lat="38.078717084743126" lon="13.239081701418504"><ele>683.1666666666666</ele><time>2026-03-29T09:45:24Z</time></trkpt><trkpt lat="38.07872262227606" lon="13.239171480699026"><ele>683.0</ele><time>2026-03-29T09:45:25Z</time></trkpt><trkpt lat="38.07873810781024" lon="13.239259618823423"><ele>683.0</ele><time>2026-03-29T09:45:26Z</time></trkpt><trkpt lat="38.078777523145455" lon="13.239413700441629"><ele>683.0</ele><time>2026-03-29T09:45:28Z</time></trkpt><trkpt lat="38.07883013424191" lon="13.239569122092943"><ele>683.0</ele><time>2026-03-29T09:45:30Z</time></trkpt><trkpt lat="38.07882893581292" lon="13.239654929445928"><ele>683.0</ele><time>2026-03-29T09:45:31Z</time></trkpt><trkpt lat="38.07883704721076" lon="13.239735625149061"><ele>683.0</ele><time>2026-03-29T09:45:32Z</time></trkpt><trkpt lat="38.07886283832862" lon="13.23981338037402"><ele>682.8333333333333</ele><time>2026-03-29T09:45:33Z</time></trkpt><trkpt lat="38.07889936955918" lon="13.239881321803548"><ele>682.6666666666666</ele><time>2026-03-29T09:45:34Z</time></trkpt><trkpt lat="38.07897631586528" lon="13.239996350766054"><ele>682.5</ele><time>2026-03-29T09:45:36Z</time></trkpt><trkpt lat="38.079020877273365" lon="13.24006641969369"><ele>682.3333333333334</ele><time>2026-03-29T09:45:37Z</time></trkpt><trkpt lat="38.079087171357834" lon="13.240197324174995"><ele>682.1666666666667</ele><time>2026-03-29T09:45:39Z</time></trkpt><trkpt lat="38.07911649488625" lon="13.240273741243618"><ele>682.0</ele><time>2026-03-29T09:45:40Z</time></trkpt><trkpt lat="38.07919040021291" lon="13.240396965824202"><ele>673.0</ele><time>2026-03-29T09:45:42Z</time></trkpt><trkpt lat="38.07925977044006" lon="13.240479177982673"><ele>664.0</ele><time>2026-03-29T09:45:44Z</time></trkpt><trkpt lat="38.07932846924465" lon="13.240580088210082"><ele>655.0</ele><time>2026-03-29T09:45:46Z</time></trkpt><trkpt lat="38.07932688933178" lon="13.240757394379772"><ele>646.0</ele><time>2026-03-29T09:45:48Z</time></trkpt><trkpt lat="38.079307882514804" lon="13.240867658808241"><ele>637.0</ele><time>2026-03-29T09:45:49Z</time></trkpt><trkpt lat="38.07929453134521" lon="13.240964300723828"><ele>636.6666666666667</ele><time>2026-03-29T09:45:50Z</time></trkpt><trkpt lat="38.079282401415696" lon="13.241046585253327"><ele>636.3333333333334</ele><time>2026-03-29T09:45:51Z</time></trkpt><trkpt lat="38.079272542188676" lon="13.241137302392481"><ele>636.0</ele><time>2026-03-29T09:45:52Z</time></trkpt><trkpt lat="38.07926354676381" lon="13.241234151636602"><ele>635.6666666666666</ele><time>2026-03-29T09:45:53Z</time></trkpt><trkpt lat="38.07925948631524" lon="13.241327801746316"><ele>635.3333333333333</ele><time>2026-03-29T09:45:54Z</time></trkpt><trkpt lat="38.07926549346844" lon="13.241437397281405"><ele>635.0</ele><time>2026-03-29T09:45:55Z</time></trkpt><trkpt lat="38.07926510218697" lon="13.241535495685937"><ele>634.8</ele><time>2026-03-29T09:45:56Z</time></trkpt><trkpt lat="38.079284961804504" lon="13.241612754233625"><ele>634.6</ele><time>2026-03-29T09:45:57Z</time></trkpt><trkpt lat="38.079321657722744" lon="13.241743630650765"><ele>634.4</ele><time>2026-03-29T09:45:59Z</time></trkpt><trkpt lat="38.07935253315163" lon="13.24189398827689"><ele>634.2</ele><time>2026-03-29T09:46:01Z</time></trkpt><trkpt lat="38.07937785819636" lon="13.241967968781225"><ele>634.0</ele><time>2026-03-29T09:46:02Z</time></trkpt><trkpt lat="38.07942593933814" lon="13.24209571438146"><ele>634.0</ele><time>2026-03-29T09:46:04Z</time></trkpt><trkpt lat="38.07946410140246" lon="13.242238455849588"><ele>634.0</ele><time>2026-03-29T09:46:06Z</time></trkpt><trkpt lat="38.079498067156344" lon="13.242379218844953"><ele>634.0</ele><time>2026-03-29T09:46:08Z</time></trkpt><trkpt lat="38.07948849840675" lon="13.242458824036136"><ele>634.0</ele><time>2026-03-29T09:46:09Z</time></trkpt><trkpt lat="38.07947425402792" lon="13.24253880246533"><ele>634.0</ele><time>2026-03-29T09:46:10Z</time></trkpt><trkpt lat="38.07948410200352" lon="13.242626412389352"><ele>634.0</ele><time>2026-03-29T09:46:11Z</time></trkpt><trkpt lat="38.079524770382754" lon="13.242729593277398"><ele>632.0</ele><time>2026-03-29T09:46:13Z</time></trkpt><trkpt lat="38.07953314890942" lon="13.24286421803984"><ele>630.0</ele><time>2026-03-29T09:46:15Z</time></trkpt><trkpt lat="38.079528576997426" lon="13.242950583555166"><ele>628.0</ele><time>2026-03-29T09:46:16Z</time></trkpt><trkpt lat="38.07952093511317" lon="13.243031622687893"><ele>626.0</ele><time>2026-03-29T09:46:17Z</time></trkpt><trkpt lat="38.07951597680409" lon="13.243123159537983"><ele>624.0</ele><time>2026-03-29T09:46:18Z</time></trkpt><trkpt lat="38.079513049627735" lon="13.243229050951147"><ele>622.0</ele><time>2026-03-29T09:46:20Z</time></trkpt><trkpt lat="38.07938344134944" lon="13.243427849700062"><ele>621.0</ele><time>2026-03-29T09:47:29Z</time></trkpt><trkpt lat="38.07930611222983" lon="13.24352783525813"><ele>620.0</ele><time>2026-03-29T09:47:31Z</time></trkpt><trkpt lat="38.079245740484915" lon="13.243652662179647"><ele>619.0</ele><time>2026-03-29T09:47:33Z</time></trkpt><trkpt lat="38.079210638518106" lon="13.243792707179459"><ele>618.0</ele><time>2026-03-29T09:47:35Z</time></trkpt><trkpt lat="38.07918933866429" lon="13.243868800686865"><ele>617.0</ele><time>2026-03-29T09:47:36Z</time></trkpt><trkpt lat="38.07914133864592" lon="13.244002009579736"><ele>617.0</ele><time>2026-03-29T09:47:38Z</time></trkpt><trkpt lat="38.079127314577384" lon="13.244081574081545"><ele>617.0</ele><time>2026-03-29T09:47:38.999Z</time></trkpt><trkpt lat="38.07910312282169" lon="13.244228714260478"><ele>617.0</ele><time>2026-03-29T09:47:41Z</time></trkpt><trkpt lat="38.07907881603093" lon="13.24431828575269"><ele>617.0</ele><time>2026-03-29T09:47:42Z</time></trkpt><trkpt lat="38.07904925055139" lon="13.244407217801921"><ele>617.0</ele><time>2026-03-29T09:47:43Z</time></trkpt><trkpt lat="38.078993872934376" lon="13.24453703005972"><ele>617.0</ele><time>2026-03-29T09:47:45Z</time></trkpt><trkpt lat="38.078960009542065" lon="13.244608605524958"><ele>617.4</ele><time>2026-03-29T09:47:46Z</time></trkpt><trkpt lat="38.07890347045342" lon="13.244651767440615"><ele>617.8000000000001</ele><time>2026-03-29T09:47:47Z</time></trkpt><trkpt lat="38.07884109819787" lon="13.244687334280126"><ele>618.2</ele><time>2026-03-29T09:47:48Z</time></trkpt><trkpt lat="38.07876807190345" lon="13.244782831964523"><ele>618.6</ele><time>2026-03-29T09:47:50Z</time></trkpt><trkpt lat="38.07875529412279" lon="13.24492940064175"><ele>619.0</ele><time>2026-03-29T09:47:52Z</time></trkpt><trkpt lat="38.07876441510885" lon="13.24508481553655"><ele>614.6</ele><time>2026-03-29T09:47:54Z</time></trkpt><trkpt lat="38.07874804872246" lon="13.245227825984047"><ele>610.2</ele><time>2026-03-29T09:47:56Z</time></trkpt><trkpt lat="38.078717718210484" lon="13.245373491155433"><ele>605.8000000000001</ele><time>2026-03-29T09:47:58Z</time></trkpt><trkpt lat="38.07869344711285" lon="13.245458425458567"><ele>601.4</ele><time>2026-03-29T09:47:59Z</time></trkpt><trkpt lat="38.07863206462389" lon="13.245592115107867"><ele>597.0</ele><time>2026-03-29T09:48:01Z</time></trkpt><trkpt lat="38.07854404067487" lon="13.245688324137298"><ele>596.7142857142858</ele><time>2026-03-29T09:48:03Z</time></trkpt><trkpt lat="38.07849456918807" lon="13.245752236187464"><ele>596.4285714285714</ele><time>2026-03-29T09:48:04Z</time></trkpt><trkpt lat="38.07842017438947" lon="13.245811654305008"><ele>596.1428571428571</ele><time>2026-03-29T09:48:05Z</time></trkpt><trkpt lat="38.0783617991106" lon="13.245853709112634"><ele>595.8571428571429</ele><time>2026-03-29T09:48:06Z</time></trkpt><trkpt lat="38.07831191896076" lon="13.245919992710284"><ele>595.5714285714286</ele><time>2026-03-29T09:48:07Z</time></trkpt><trkpt lat="38.07825587965607" lon="13.245992479818431"><ele>595.2857142857143</ele><time>2026-03-29T09:48:08Z</time></trkpt><trkpt lat="38.07820287542478" lon="13.246050139658243"><ele>595.0</ele><time>2026-03-29T09:48:09Z</time></trkpt><trkpt lat="38.078141709292886" lon="13.246107530454353"><ele>595.0</ele><time>2026-03-29T09:48:10Z</time></trkpt><trkpt lat="38.078082640316346" lon="13.246164516624845"><ele>595.0</ele><time>2026-03-29T09:48:11Z</time></trkpt><trkpt lat="38.07802961612154" lon="13.246214068302153"><ele>595.0</ele><time>2026-03-29T09:48:12Z</time></trkpt><trkpt lat="38.07796963243978" lon="13.246272373461693"><ele>595.0</ele><time>2026-03-29T09:48:13Z</time></trkpt><trkpt lat="38.0779244994709" lon="13.2463388008062"><ele>595.0</ele><time>2026-03-29T09:48:14Z</time></trkpt><trkpt lat="38.077854665042814" lon="13.2464533275343"><ele>595.0</ele><time>2026-03-29T09:48:16Z</time></trkpt><trkpt lat="38.077767079192675" lon="13.246540925344965"><ele>592.4</ele><time>2026-03-29T09:48:18Z</time></trkpt><trkpt lat="38.07773774017884" lon="13.246656276723643"><ele>589.8</ele><time>2026-03-29T09:48:20Z</time></trkpt><trkpt lat="38.07770344255893" lon="13.246786767289688"><ele>587.2</ele><time>2026-03-29T09:48:22Z</time></trkpt><trkpt lat="38.07763020666546" lon="13.246909907081573"><ele>584.6</ele><time>2026-03-29T09:48:24Z</time></trkpt><trkpt lat="38.07756163324794" lon="13.246974951240936"><ele>582.0</ele><time>2026-03-29T09:48:25Z</time></trkpt><trkpt lat="38.07749726585563" lon="13.24701397872742"><ele>582.8333333333334</ele><time>2026-03-29T09:48:26Z</time></trkpt><trkpt lat="38.07742273881152" lon="13.247024101717285"><ele>583.6666666666666</ele><time>2026-03-29T09:48:27Z</time></trkpt><trkpt lat="38.07737470684913" lon="13.247085542208797"><ele>584.5</ele><time>2026-03-29T09:48:28Z</time></trkpt><trkpt lat="38.07729156013628" lon="13.247148040134102"><ele>585.3333333333333</ele><time>2026-03-29T09:48:30Z</time></trkpt><trkpt lat="38.07717128017221" lon="13.247210001843584"><ele>586.1666666666666</ele><time>2026-03-29T09:48:32Z</time></trkpt><trkpt lat="38.07709696723394" lon="13.247209665253814"><ele>587.0</ele><time>2026-03-29T09:48:33Z</time></trkpt><trkpt lat="38.077027558801966" lon="13.247217706270092"><ele>587.0</ele><time>2026-03-29T09:48:34Z</time></trkpt><trkpt lat="38.07696057899538" lon="13.247232301300976"><ele>587.0</ele><time>2026-03-29T09:48:35Z</time></trkpt><trkpt lat="38.076853317168045" lon="13.247214953106845"><ele>587.0</ele><time>2026-03-29T09:48:37Z</time></trkpt><trkpt lat="38.07675657850745" lon="13.247329118822012"><ele>587.0</ele><time>2026-03-29T09:48:39Z</time></trkpt><trkpt lat="38.07673612788321" lon="13.247409696486121"><ele>587.0</ele><time>2026-03-29T09:48:40Z</time></trkpt><trkpt lat="38.07671434777931" lon="13.247494692954112"><ele>587.0</ele><time>2026-03-29T09:48:41Z</time></trkpt><trkpt lat="38.076684955265705" lon="13.247577374780246"><ele>586.4</ele><time>2026-03-29T09:48:42Z</time></trkpt><trkpt lat="38.07666812996441" lon="13.247660062518754"><ele>585.8000000000001</ele><time>2026-03-29T09:48:43Z</time></trkpt><trkpt lat="38.07662508371564" lon="13.247794659139776"><ele>585.2</ele><time>2026-03-29T09:48:45Z</time></trkpt><trkpt lat="38.076568199812826" lon="13.247914671345134"><ele>584.6</ele><time>2026-03-29T09:48:47Z</time></trkpt><trkpt lat="38.07650695898124" lon="13.247954767741716"><ele>584.0</ele><time>2026-03-29T09:48:48Z</time></trkpt><trkpt lat="38.07642845950207" lon="13.248017517850846"><ele>584.0</ele><time>2026-03-29T09:48:49Z</time></trkpt><trkpt lat="38.07634555135345" lon="13.248099419899594"><ele>584.0</ele><time>2026-03-29T09:48:50Z</time></trkpt><trkpt lat="38.07627900817024" lon="13.248177453987122"><ele>584.0</ele><time>2026-03-29T09:48:51Z</time></trkpt><trkpt lat="38.076204293586116" lon="13.248272223693565"><ele>584.0</ele><time>2026-03-29T09:48:52Z</time></trkpt><trkpt lat="38.076133454342205" lon="13.24834718732183"><ele>584.0</ele><time>2026-03-29T09:48:53Z</time></trkpt><trkpt lat="38.076058881738994" lon="13.248433028025078"><ele>582.75</ele><time>2026-03-29T09:48:54Z</time></trkpt><trkpt lat="38.07597903584611" lon="13.248525334397737"><ele>581.5</ele><time>2026-03-29T09:48:55Z</time></trkpt><trkpt lat="38.075901136763264" lon="13.24863015185587"><ele>580.25</ele><time>2026-03-29T09:48:56Z</time></trkpt><trkpt lat="38.07582201650329" lon="13.24874620015475"><ele>579.0</ele><time>2026-03-29T09:48:57Z</time></trkpt><trkpt lat="38.07573640642211" lon="13.248848165626486"><ele>579.0</ele><time>2026-03-29T09:48:58Z</time></trkpt><trkpt lat="38.075651862857335" lon="13.248953921924397"><ele>579.0</ele><time>2026-03-29T09:48:59Z</time></trkpt><trkpt lat="38.07558832328204" lon="13.249044232654024"><ele>579.0</ele><time>2026-03-29T09:49:00Z</time></trkpt><trkpt lat="38.075535166899925" lon="13.249119653247517"><ele>579.0</ele><time>2026-03-29T09:49:01Z</time></trkpt><trkpt lat="38.0754763081388" lon="13.249172411909772"><ele>579.0</ele><time>2026-03-29T09:49:02Z</time></trkpt><trkpt lat="38.07540720627044" lon="13.249201924811478"><ele>579.0</ele><time>2026-03-29T09:49:03Z</time></trkpt><trkpt lat="38.075329727403805" lon="13.249205544662287"><ele>577.5</ele><time>2026-03-29T09:49:04Z</time></trkpt><trkpt lat="38.075253272786135" lon="13.24920066045008"><ele>576.0</ele><time>2026-03-29T09:49:05Z</time></trkpt><trkpt lat="38.075175215115124" lon="13.249216062031048"><ele>574.5</ele><time>2026-03-29T09:49:06Z</time></trkpt><trkpt lat="38.0751065403014" lon="13.249243627768516"><ele>573.0</ele><time>2026-03-29T09:49:07Z</time></trkpt><trkpt lat="38.07499161427046" lon="13.249319169180215"><ele>571.5</ele><time>2026-03-29T09:49:09Z</time></trkpt><trkpt lat="38.074939168625356" lon="13.249363918513103"><ele>570.0</ele><time>2026-03-29T09:49:10Z</time></trkpt><trkpt lat="38.07487688334033" lon="13.24942895669223"><ele>570.0</ele><time>2026-03-29T09:49:11Z</time></trkpt><trkpt lat="38.07482144999597" lon="13.249501379908084"><ele>570.0</ele><time>2026-03-29T09:49:12Z</time></trkpt><trkpt lat="38.07476978136793" lon="13.249571921511098"><ele>570.0</ele><time>2026-03-29T09:49:13Z</time></trkpt><trkpt lat="38.07471588300628" lon="13.249647386929698"><ele>570.0</ele><time>2026-03-29T09:49:13.999Z</time></trkpt><trkpt lat="38.07466825855461" lon="13.24972135126939"><ele>570.0</ele><time>2026-03-29T09:49:14.999Z</time></trkpt><trkpt lat="38.07460778196721" lon="13.249783516559242"><ele>570.0</ele><time>2026-03-29T09:49:15.999Z</time></trkpt><trkpt lat="38.0745480664627" lon="13.249864534089475"><ele>567.6666666666666</ele><time>2026-03-29T09:49:16.999Z</time></trkpt><trkpt lat="38.0744967264881" lon="13.249944555669195"><ele>565.3333333333334</ele><time>2026-03-29T09:49:17.999Z</time></trkpt><trkpt lat="38.07444205112439" lon="13.250014861767296"><ele>563.0</ele><time>2026-03-29T09:49:18.999Z</time></trkpt><trkpt lat="38.07439465846588" lon="13.250094840531952"><ele>560.6666666666667</ele><time>2026-03-29T09:49:19.999Z</time></trkpt><trkpt lat="38.07434788950403" lon="13.250168143389033"><ele>558.3333333333334</ele><time>2026-03-29T09:49:20.999Z</time></trkpt><trkpt lat="38.07428809646016" lon="13.25023123423862"><ele>556.0</ele><time>2026-03-29T09:49:21.999Z</time></trkpt><trkpt lat="38.07422430109251" lon="13.250283726374377"><ele>556.0</ele><time>2026-03-29T09:49:22.999Z</time></trkpt><trkpt lat="38.07415930488123" lon="13.250339751135987"><ele>556.0</ele><time>2026-03-29T09:49:23.999Z</time></trkpt><trkpt lat="38.0740990758486" lon="13.25040483993395"><ele>556.0</ele><time>2026-03-29T09:49:24.999Z</time></trkpt><trkpt lat="38.07404058037639" lon="13.250454101715125"><ele>556.0</ele><time>2026-03-29T09:49:25.999Z</time></trkpt><trkpt lat="38.073950831639294" lon="13.250559400671547"><ele>556.0</ele><time>2026-03-29T09:49:27.999Z</time></trkpt><trkpt lat="38.07390871299155" lon="13.250622517084373"><ele>556.0</ele><time>2026-03-29T09:49:28.999Z</time></trkpt><trkpt lat="38.07386707946929" lon="13.25068908005664"><ele>554.5</ele><time>2026-03-29T09:49:29.999Z</time></trkpt><trkpt lat="38.07381053952807" lon="13.250780972294763"><ele>553.0</ele><time>2026-03-29T09:49:30.999Z</time></trkpt><trkpt lat="38.07374487611836" lon="13.250876612788486"><ele>551.5</ele><time>2026-03-29T09:49:31.999Z</time></trkpt><trkpt lat="38.073676412950455" lon="13.250947543469765"><ele>550.0</ele><time>2026-03-29T09:49:32.999Z</time></trkpt><trkpt lat="38.07360823658632" lon="13.250994210551662"><ele>548.5</ele><time>2026-03-29T09:49:33.999Z</time></trkpt><trkpt lat="38.07354018015304" lon="13.25105108767935"><ele>547.0</ele><time>2026-03-29T09:49:34.999Z</time></trkpt><trkpt lat="38.07348551615528" lon="13.251098516288927"><ele>547.0</ele><time>2026-03-29T09:49:35.999Z</time></trkpt><trkpt lat="38.07337493648573" lon="13.251110587389448"><ele>547.0</ele><time>2026-03-29T09:49:37.999Z</time></trkpt><trkpt lat="38.073312247502564" lon="13.2511241091916"><ele>547.0</ele><time>2026-03-29T09:49:38.999Z</time></trkpt><trkpt lat="38.07320733434961" lon="13.2511753263834"><ele>547.0</ele><time>2026-03-29T09:49:40.999Z</time></trkpt><trkpt lat="38.07314402093603" lon="13.25118450435486"><ele>547.0</ele><time>2026-03-29T09:49:41.999Z</time></trkpt><trkpt lat="38.07307892367339" lon="13.25119930983042"><ele>547.0</ele><time>2026-03-29T09:49:42.999Z</time></trkpt><trkpt lat="38.07301802892493" lon="13.25122575228849"><ele>548.0</ele><time>2026-03-29T09:49:43.999Z</time></trkpt><trkpt lat="38.072957175315764" lon="13.251262387641491"><ele>549.0</ele><time>2026-03-29T09:49:44.999Z</time></trkpt><trkpt lat="38.07289698052135" lon="13.251307069604037"><ele>550.0</ele><time>2026-03-29T09:49:46Z</time></trkpt><trkpt lat="38.07280379570397" lon="13.251428221003183"><ele>551.0</ele><time>2026-03-29T09:49:48Z</time></trkpt><trkpt lat="38.07276034332205" lon="13.251521407783567"><ele>552.0</ele><time>2026-03-29T09:49:49Z</time></trkpt><trkpt lat="38.072699518118554" lon="13.251615235446383"><ele>547.2</ele><time>2026-03-29T09:49:50Z</time></trkpt><trkpt lat="38.072629946026346" lon="13.25170585375046"><ele>542.4000000000001</ele><time>2026-03-29T09:49:51Z</time></trkpt><trkpt lat="38.07257171240271" lon="13.251805791158189"><ele>537.5999999999999</ele><time>2026-03-29T09:49:52Z</time></trkpt><trkpt lat="38.072530909282364" lon="13.251917640285091"><ele>532.8</ele><time>2026-03-29T09:49:53Z</time></trkpt><trkpt lat="38.072493180547944" lon="13.252040616058816"><ele>528.0</ele><time>2026-03-29T09:49:54Z</time></trkpt><trkpt lat="38.072451645892876" lon="13.252121971407375"><ele>527.1666666666666</ele><time>2026-03-29T09:49:55Z</time></trkpt><trkpt lat="38.07240766476726" lon="13.252220865739305"><ele>526.3333333333334</ele><time>2026-03-29T09:49:56Z</time></trkpt><trkpt lat="38.07237614617198" lon="13.252291042562232"><ele>525.5</ele><time>2026-03-29T09:49:57Z</time></trkpt><trkpt lat="38.072307285312164" lon="13.252428945792698"><ele>524.6666666666667</ele><time>2026-03-29T09:49:59Z</time></trkpt><trkpt lat="38.07226304289566" lon="13.252494597919423"><ele>523.8333333333334</ele><time>2026-03-29T09:50:00Z</time></trkpt><trkpt lat="38.072212666989124" lon="13.252551448285047"><ele>523.0</ele><time>2026-03-29T09:50:01Z</time></trkpt><trkpt lat="38.072173465937524" lon="13.252614443279441"><ele>523.0</ele><time>2026-03-29T09:50:02Z</time></trkpt><trkpt lat="38.07207843455084" lon="13.25270939817298"><ele>523.0</ele><time>2026-03-29T09:50:04Z</time></trkpt><trkpt lat="38.0720220321217" lon="13.252746784098656"><ele>523.0</ele><time>2026-03-29T09:50:05Z</time></trkpt><trkpt lat="38.07190225497091" lon="13.252832527116514"><ele>523.0</ele><time>2026-03-29T09:50:07Z</time></trkpt><trkpt lat="38.07184220175674" lon="13.252895112906169"><ele>523.0</ele><time>2026-03-29T09:50:08Z</time></trkpt><trkpt lat="38.071799609286934" lon="13.252960258007606"><ele>523.0</ele><time>2026-03-29T09:50:09Z</time></trkpt><trkpt lat="38.0717419224714" lon="13.253004662677164"><ele>523.0</ele><time>2026-03-29T09:50:10Z</time></trkpt><trkpt lat="38.07167156985822" lon="13.253050607601274"><ele>523.0</ele><time>2026-03-29T09:50:11Z</time></trkpt><trkpt lat="38.07161450206922" lon="13.253114236753472"><ele>523.0</ele><time>2026-03-29T09:50:12Z</time></trkpt><trkpt lat="38.07157777843461" lon="13.253277260371013"><ele>523.0</ele><time>2026-03-29T09:50:14Z</time></trkpt><trkpt lat="38.071559865736745" lon="13.253398970070725"><ele>525.1666666666667</ele><time>2026-03-29T09:50:15Z</time></trkpt><trkpt lat="38.071557599334646" lon="13.253524067793442"><ele>527.3333333333334</ele><time>2026-03-29T09:50:16Z</time></trkpt><trkpt lat="38.07157891612743" lon="13.253614791686765"><ele>529.5</ele><time>2026-03-29T09:50:17Z</time></trkpt><trkpt lat="38.07156417243693" lon="13.253706190142001"><ele>531.6666666666666</ele><time>2026-03-29T09:50:18Z</time></trkpt><trkpt lat="38.07152499142148" lon="13.253800736612662"><ele>533.8333333333333</ele><time>2026-03-29T09:50:19Z</time></trkpt><trkpt lat="38.07148504311524" lon="13.253892747879977"><ele>536.0</ele><time>2026-03-29T09:50:20Z</time></trkpt><trkpt lat="38.07145001797357" lon="13.253964244364573"><ele>530.0</ele><time>2026-03-29T09:50:21Z</time></trkpt><trkpt lat="38.071419996150034" lon="13.254045604623862"><ele>524.0</ele><time>2026-03-29T09:50:22Z</time></trkpt><trkpt lat="38.0713994355664" lon="13.254139116574153"><ele>518.0</ele><time>2026-03-29T09:50:23Z</time></trkpt><trkpt lat="38.07137186803926" lon="13.254239197443155"><ele>512.0</ele><time>2026-03-29T09:50:24Z</time></trkpt><trkpt lat="38.07134404941038" lon="13.254333632079705"><ele>505.99999999999994</ele><time>2026-03-29T09:50:25Z</time></trkpt><trkpt lat="38.07131443429852" lon="13.254417532980149"><ele>500.0</ele><time>2026-03-29T09:50:26Z</time></trkpt><trkpt lat="38.07128395378784" lon="13.254495512157673"><ele>499.99999999999994</ele><time>2026-03-29T09:50:27Z</time></trkpt><trkpt lat="38.071248335125546" lon="13.254561970103675"><ele>500.0</ele><time>2026-03-29T09:50:28Z</time></trkpt><trkpt lat="38.07120796516955" lon="13.254644644198809"><ele>500.0</ele><time>2026-03-29T09:50:29Z</time></trkpt><trkpt lat="38.0711066241973" lon="13.25471343200171"><ele>500.0</ele><time>2026-03-29T09:50:31Z</time></trkpt><trkpt lat="38.07102872385249" lon="13.254738979078226"><ele>499.99999999999994</ele><time>2026-03-29T09:50:32Z</time></trkpt><trkpt lat="38.07092940259251" lon="13.254785542344578"><ele>500.0</ele><time>2026-03-29T09:50:34Z</time></trkpt><trkpt lat="38.0708497169949" lon="13.254895886838424"><ele>497.49999999999994</ele><time>2026-03-29T09:50:36Z</time></trkpt><trkpt lat="38.07081778742395" lon="13.254965993636489"><ele>495.0</ele><time>2026-03-29T09:50:37Z</time></trkpt><trkpt lat="38.0707972795184" lon="13.255078666075896"><ele>492.5</ele><time>2026-03-29T09:50:38Z</time></trkpt><trkpt lat="38.07078170193968" lon="13.255172840210609"><ele>490.0</ele><time>2026-03-29T09:50:39Z</time></trkpt><trkpt lat="38.07075202421676" lon="13.255268185327024"><ele>487.49999999999994</ele><time>2026-03-29T09:50:40Z</time></trkpt><trkpt lat="38.07072418582054" lon="13.25539228890647"><ele>485.0</ele><time>2026-03-29T09:50:41Z</time></trkpt><trkpt lat="38.07071502585122" lon="13.25551005598335"><ele>486.66666666666663</ele><time>2026-03-29T09:50:42Z</time></trkpt><trkpt lat="38.07070428746674" lon="13.255612749701159"><ele>488.3333333333333</ele><time>2026-03-29T09:50:43Z</time></trkpt><trkpt lat="38.07068330205394" lon="13.255725867745696"><ele>490.0</ele><time>2026-03-29T09:50:44Z</time></trkpt><trkpt lat="38.07066102260178" lon="13.255825540864366"><ele>491.66666666666663</ele><time>2026-03-29T09:50:45Z</time></trkpt><trkpt lat="38.0706300302959" lon="13.25593145648491"><ele>493.3333333333333</ele><time>2026-03-29T09:50:46Z</time></trkpt><trkpt lat="38.07059869291823" lon="13.256020400528525"><ele>495.0</ele><time>2026-03-29T09:50:47Z</time></trkpt><trkpt lat="38.07055370440911" lon="13.256109326850948"><ele>495.0</ele><time>2026-03-29T09:50:48Z</time></trkpt><trkpt lat="38.07050022394229" lon="13.256192084903716"><ele>495.0</ele><time>2026-03-29T09:50:49Z</time></trkpt><trkpt lat="38.07046124201995" lon="13.256274353599503"><ele>495.0</ele><time>2026-03-29T09:50:50Z</time></trkpt><trkpt lat="38.070439837222224" lon="13.256378100688588"><ele>495.0</ele><time>2026-03-29T09:50:51Z</time></trkpt><trkpt lat="38.070427381578064" lon="13.256470834660245"><ele>495.0</ele><time>2026-03-29T09:50:52Z</time></trkpt><trkpt lat="38.0703886816582" lon="13.256631788203308"><ele>490.8333333333333</ele><time>2026-03-29T09:50:54Z</time></trkpt><trkpt lat="38.07036457426222" lon="13.256710764414455"><ele>486.66666666666663</ele><time>2026-03-29T09:50:54.999Z</time></trkpt><trkpt lat="38.070312939942085" lon="13.256801499871372"><ele>482.5</ele><time>2026-03-29T09:50:55.999Z</time></trkpt><trkpt lat="38.07025892835558" lon="13.256903212175954"><ele>478.3333333333333</ele><time>2026-03-29T09:50:56.999Z</time></trkpt><trkpt lat="38.07020922504369" lon="13.257007285404525"><ele>474.16666666666663</ele><time>2026-03-29T09:50:57.999Z</time></trkpt><trkpt lat="38.07015852876991" lon="13.25708972764154"><ele>470.0</ele><time>2026-03-29T09:50:58.999Z</time></trkpt><trkpt lat="38.07010357716734" lon="13.257150696095334"><ele>469.99999999999994</ele><time>2026-03-29T09:50:59.999Z</time></trkpt><trkpt lat="38.070042586164156" lon="13.257214670416332"><ele>470.0</ele><time>2026-03-29T09:51:00.999Z</time></trkpt><trkpt lat="38.06999222173566" lon="13.25727264781327"><ele>470.0</ele><time>2026-03-29T09:51:01.999Z</time></trkpt><trkpt lat="38.069934047081425" lon="13.257327641447256"><ele>470.0</ele><time>2026-03-29T09:51:02.999Z</time></trkpt><trkpt lat="38.06985802996603" lon="13.257386572338529"><ele>469.99999999999994</ele><time>2026-03-29T09:51:03.999Z</time></trkpt><trkpt lat="38.06979732036304" lon="13.257423226852941"><ele>470.0</ele><time>2026-03-29T09:51:04.999Z</time></trkpt><trkpt lat="38.06969581503174" lon="13.25752886394348"><ele>469.0</ele><time>2026-03-29T09:51:06.999Z</time></trkpt><trkpt lat="38.069644116903476" lon="13.257608163469019"><ele>467.99999999999994</ele><time>2026-03-29T09:51:07.999Z</time></trkpt><trkpt lat="38.06960604302665" lon="13.257683797754368"><ele>467.0</ele><time>2026-03-29T09:51:08.999Z</time></trkpt><trkpt lat="38.069565736832416" lon="13.257757198863661"><ele>466.0</ele><time>2026-03-29T09:51:09.999Z</time></trkpt><trkpt lat="38.069526045536584" lon="13.25782632744384"><ele>464.99999999999994</ele><time>2026-03-29T09:51:10.999Z</time></trkpt><trkpt lat="38.06947935804333" lon="13.257901804897218"><ele>464.0</ele><time>2026-03-29T09:51:11.999Z</time></trkpt><trkpt lat="38.069439749827914" lon="13.257972238957775"><ele>463.0</ele><time>2026-03-29T09:51:12.999Z</time></trkpt><trkpt lat="38.069398899247865" lon="13.258058995672336"><ele>461.4</ele><time>2026-03-29T09:51:13.999Z</time></trkpt><trkpt lat="38.06936351102439" lon="13.25815104010338"><ele>459.79999999999995</ele><time>2026-03-29T09:51:14.999Z</time></trkpt><trkpt lat="38.06931677211739" lon="13.258261656592266"><ele>458.2</ele><time>2026-03-29T09:51:15.999Z</time></trkpt><trkpt lat="38.06926664831553" lon="13.258392597492872"><ele>456.6</ele><time>2026-03-29T09:51:16.999Z</time></trkpt><trkpt lat="38.06921865694681" lon="13.258523592333082"><ele>455.0</ele><time>2026-03-29T09:51:17.999Z</time></trkpt><trkpt lat="38.069192967337614" lon="13.258639567627764"><ele>454.99999999999994</ele><time>2026-03-29T09:51:18.999Z</time></trkpt><trkpt lat="38.06916459826878" lon="13.258744511932925"><ele>455.0</ele><time>2026-03-29T09:51:19.999Z</time></trkpt><trkpt lat="38.06913203456832" lon="13.258857623483042"><ele>455.0</ele><time>2026-03-29T09:51:20.999Z</time></trkpt><trkpt lat="38.06908479244955" lon="13.258966732793029"><ele>455.0</ele><time>2026-03-29T09:51:21.999Z</time></trkpt><trkpt lat="38.069039811926565" lon="13.259045067808584"><ele>454.99999999999994</ele><time>2026-03-29T09:51:22.999Z</time></trkpt><trkpt lat="38.06899969489263" lon="13.259129005253985"><ele>455.0</ele><time>2026-03-29T09:51:23.999Z</time></trkpt><trkpt lat="38.068960613266995" lon="13.259214597590976"><ele>453.8</ele><time>2026-03-29T09:51:24.999Z</time></trkpt><trkpt lat="38.068932862408765" lon="13.25929169782157"><ele>452.6</ele><time>2026-03-29T09:51:25.999Z</time></trkpt><trkpt lat="38.06888031785069" lon="13.259465653715036"><ele>451.4</ele><time>2026-03-29T09:51:27.999Z</time></trkpt><trkpt lat="38.06884440329126" lon="13.25955637148502"><ele>450.2</ele><time>2026-03-29T09:51:28.999Z</time></trkpt><trkpt lat="38.06878993132999" lon="13.259719845031242"><ele>449.0</ele><time>2026-03-29T09:51:30.999Z</time></trkpt><trkpt lat="38.068753838190354" lon="13.259799350866306"><ele>447.66666666666663</ele><time>2026-03-29T09:51:31.999Z</time></trkpt><trkpt lat="38.06870837061312" lon="13.259892841958267"><ele>446.3333333333333</ele><time>2026-03-29T09:51:32.999Z</time></trkpt><trkpt lat="38.06867303632945" lon="13.259974836846608"><ele>445.0</ele><time>2026-03-29T09:51:33.999Z</time></trkpt><trkpt lat="38.06864612290264" lon="13.260048117966795"><ele>443.66666666666663</ele><time>2026-03-29T09:51:34.999Z</time></trkpt><trkpt lat="38.068611131200704" lon="13.260194433600216"><ele>442.3333333333333</ele><time>2026-03-29T09:51:36.999Z</time></trkpt><trkpt lat="38.06859178781426" lon="13.26029076847731"><ele>441.0</ele><time>2026-03-29T09:51:37.999Z</time></trkpt><trkpt lat="38.068580177667265" lon="13.260384738512053"><ele>441.0</ele><time>2026-03-29T09:51:38.999Z</time></trkpt><trkpt lat="38.068570281591015" lon="13.260485059631554"><ele>441.0</ele><time>2026-03-29T09:51:39.999Z</time></trkpt><trkpt lat="38.068571283198914" lon="13.26059775675427"><ele>441.0</ele><time>2026-03-29T09:51:40.999Z</time></trkpt><trkpt lat="38.068540420050894" lon="13.260711180950882"><ele>441.0</ele><time>2026-03-29T09:51:41.999Z</time></trkpt><trkpt lat="38.068533707784496" lon="13.260814102375914"><ele>441.0</ele><time>2026-03-29T09:51:42.999Z</time></trkpt><trkpt lat="38.06851333075138" lon="13.260912208893085"><ele>441.0</ele><time>2026-03-29T09:51:43.999Z</time></trkpt><trkpt lat="38.06844800572923" lon="13.260999453917464"><ele>440.4</ele><time>2026-03-29T09:51:44.999Z</time></trkpt><trkpt lat="38.06842177661333" lon="13.261099775742043"><ele>439.8</ele><time>2026-03-29T09:51:45.999Z</time></trkpt><trkpt lat="38.06841320766235" lon="13.26122618694832"><ele>439.19999999999993</ele><time>2026-03-29T09:51:46.999Z</time></trkpt><trkpt lat="38.06840974900601" lon="13.261341950921105"><ele>438.59999999999997</ele><time>2026-03-29T09:51:47.999Z</time></trkpt><trkpt lat="38.06840921475136" lon="13.261470873413938"><ele>438.0</ele><time>2026-03-29T09:51:48.999Z</time></trkpt><trkpt lat="38.068408964304744" lon="13.261604561284583"><ele>436.59999999999997</ele><time>2026-03-29T09:51:49.999Z</time></trkpt><trkpt lat="38.06840871236484" lon="13.261739045909458"><ele>435.19999999999993</ele><time>2026-03-29T09:51:51Z</time></trkpt><trkpt lat="38.06840846811054" lon="13.261869428157055"><ele>433.8</ele><time>2026-03-29T09:51:52Z</time></trkpt><trkpt lat="38.06840641797098" lon="13.261990354306112"><ele>432.4</ele><time>2026-03-29T09:51:53Z</time></trkpt><trkpt lat="38.06840106088347" lon="13.262090703642603"><ele>431.0</ele><time>2026-03-29T09:51:54Z</time></trkpt><trkpt lat="38.068395222301625" lon="13.262197584286259"><ele>431.0</ele><time>2026-03-29T09:51:55Z</time></trkpt><trkpt lat="38.06838298995369" lon="13.262303220056147"><ele>431.0</ele><time>2026-03-29T09:51:56Z</time></trkpt><trkpt lat="38.06837184901112" lon="13.262423917994932"><ele>431.0</ele><time>2026-03-29T09:51:57Z</time></trkpt><trkpt lat="38.06836417641681" lon="13.262541399526668"><ele>431.0</ele><time>2026-03-29T09:51:58Z</time></trkpt><trkpt lat="38.06835152294694" lon="13.26266255291725"><ele>431.0</ele><time>2026-03-29T09:51:59Z</time></trkpt><trkpt lat="38.06833754633098" lon="13.262799296336675"><ele>431.0</ele><time>2026-03-29T09:52:00Z</time></trkpt><trkpt lat="38.068328022480465" lon="13.262946360933038"><ele>431.0</ele><time>2026-03-29T09:52:01Z</time></trkpt><trkpt lat="38.06832265624134" lon="13.263134355891317"><ele>431.0</ele><time>2026-03-29T09:52:02Z</time></trkpt><trkpt lat="38.0683182472885" lon="13.263304442714698"><ele>431.0</ele><time>2026-03-29T09:52:03Z</time></trkpt><trkpt lat="38.06830395422323" lon="13.263439233492255"><ele>430.6</ele><time>2026-03-29T09:52:04Z</time></trkpt><trkpt lat="38.0682975318655" lon="13.263576360864565"><ele>430.20000000000005</ele><time>2026-03-29T09:52:05Z</time></trkpt><trkpt lat="38.0682998688714" lon="13.26369774057576"><ele>429.79999999999995</ele><time>2026-03-29T09:52:06Z</time></trkpt><trkpt lat="38.0683143668631" lon="13.263825956135975"><ele>429.4</ele><time>2026-03-29T09:52:07Z</time></trkpt><trkpt lat="38.068325455392205" lon="13.263949662760789"><ele>429.0</ele><time>2026-03-29T09:52:08Z</time></trkpt><trkpt lat="38.06833963393579" lon="13.264076508201358"><ele>429.0</ele><time>2026-03-29T09:52:09Z</time></trkpt><trkpt lat="38.068358742235866" lon="13.264207501539852"><ele>429.0</ele><time>2026-03-29T09:52:10Z</time></trkpt><trkpt lat="38.06839240948602" lon="13.26433924408774"><ele>429.0</ele><time>2026-03-29T09:52:11Z</time></trkpt><trkpt lat="38.06843610079007" lon="13.264468927495175"><ele>429.0</ele><time>2026-03-29T09:52:12Z</time></trkpt><trkpt lat="38.068478829409756" lon="13.264606474906211"><ele>429.0</ele><time>2026-03-29T09:52:13Z</time></trkpt><trkpt lat="38.06850309547347" lon="13.264749929733675"><ele>427.2</ele><time>2026-03-29T09:52:14Z</time></trkpt><trkpt lat="38.06854278049979" lon="13.264872187196888"><ele>425.4</ele><time>2026-03-29T09:52:15Z</time></trkpt><trkpt lat="38.06858423535805" lon="13.264973952758044"><ele>423.6</ele><time>2026-03-29T09:52:16Z</time></trkpt><trkpt lat="38.068643896964865" lon="13.26506790540127"><ele>421.8</ele><time>2026-03-29T09:52:17Z</time></trkpt><trkpt lat="38.06870232880314" lon="13.265186865986712"><ele>420.0</ele><time>2026-03-29T09:52:17.999Z</time></trkpt><trkpt lat="38.06877464586455" lon="13.265311277023034"><ele>420.0</ele><time>2026-03-29T09:52:18.999Z</time></trkpt><trkpt lat="38.06882925057768" lon="13.265438380796526"><ele>420.0</ele><time>2026-03-29T09:52:19.999Z</time></trkpt><trkpt lat="38.068887560946166" lon="13.265536726242209"><ele>420.0</ele><time>2026-03-29T09:52:20.999Z</time></trkpt><trkpt lat="38.06894538566457" lon="13.265607131796521"><ele>420.0</ele><time>2026-03-29T09:52:21.999Z</time></trkpt><trkpt lat="38.068987527813874" lon="13.265690448388998"><ele>420.0</ele><time>2026-03-29T09:52:22.999Z</time></trkpt><trkpt lat="38.069040767284285" lon="13.265786693561777"><ele>422.8</ele><time>2026-03-29T09:52:23.999Z</time></trkpt><trkpt lat="38.06909879853429" lon="13.265890134125199"><ele>425.6</ele><time>2026-03-29T09:52:24.999Z</time></trkpt><trkpt lat="38.06915231131213" lon="13.266003581042664"><ele>428.4</ele><time>2026-03-29T09:52:25.999Z</time></trkpt><trkpt lat="38.06920554591274" lon="13.266118629088478"><ele>431.2</ele><time>2026-03-29T09:52:26.999Z</time></trkpt><trkpt lat="38.06926951239181" lon="13.266228622714047"><ele>434.0</ele><time>2026-03-29T09:52:27.999Z</time></trkpt><trkpt lat="38.06933018762125" lon="13.266320673154421"><ele>433.99999999999994</ele><time>2026-03-29T09:52:28.999Z</time></trkpt><trkpt lat="38.06938458242644" lon="13.266405767663539"><ele>434.0</ele><time>2026-03-29T09:52:29.999Z</time></trkpt><trkpt lat="38.0694336986304" lon="13.266483022178875"><ele>434.0</ele><time>2026-03-29T09:52:30.999Z</time></trkpt><trkpt lat="38.06948302243208" lon="13.266547438715362"><ele>434.0</ele><time>2026-03-29T09:52:31.999Z</time></trkpt><trkpt lat="38.069525846082925" lon="13.266616237063943"><ele>433.99999999999994</ele><time>2026-03-29T09:52:32.999Z</time></trkpt><trkpt lat="38.069565766681706" lon="13.266682458072058"><ele>434.0</ele><time>2026-03-29T09:52:33.999Z</time></trkpt><trkpt lat="38.06962841533656" lon="13.266784566753232"><ele>430.2</ele><time>2026-03-29T09:52:35.999Z</time></trkpt><trkpt lat="38.069689776694645" lon="13.266883847429618"><ele>426.4</ele><time>2026-03-29T09:52:37.999Z</time></trkpt><trkpt lat="38.06972817895451" lon="13.266969377959896"><ele>422.6</ele><time>2026-03-29T09:52:39.999Z</time></trkpt><trkpt lat="38.06976799516206" lon="13.267044543252164"><ele>418.8</ele><time>2026-03-29T09:54:35Z</time></trkpt><trkpt lat="38.06985423578233" lon="13.267158837489857"><ele>415.0</ele><time>2026-03-29T09:54:37Z</time></trkpt><trkpt lat="38.06990078791316" lon="13.267242724401298"><ele>415.1666666666667</ele><time>2026-03-29T09:54:38Z</time></trkpt><trkpt lat="38.06995430141941" lon="13.267328811074407"><ele>415.33333333333337</ele><time>2026-03-29T09:54:39Z</time></trkpt><trkpt lat="38.070010875737694" lon="13.267398511663314"><ele>415.5</ele><time>2026-03-29T09:54:40Z</time></trkpt><trkpt lat="38.070060303335325" lon="13.267469910851679"><ele>415.66666666666663</ele><time>2026-03-29T09:54:41Z</time></trkpt><trkpt lat="38.0701021962513" lon="13.26755497550073"><ele>415.8333333333333</ele><time>2026-03-29T09:54:42Z</time></trkpt><trkpt lat="38.07014030727471" lon="13.267644396469853"><ele>416.0</ele><time>2026-03-29T09:54:43Z</time></trkpt><trkpt lat="38.070184955115764" lon="13.267745094867813"><ele>415.99999999999994</ele><time>2026-03-29T09:54:44Z</time></trkpt><trkpt lat="38.070225503283105" lon="13.267840018124149"><ele>416.0</ele><time>2026-03-29T09:54:45Z</time></trkpt><trkpt lat="38.07026343100851" lon="13.267937285722317"><ele>416.0</ele><time>2026-03-29T09:54:46Z</time></trkpt><trkpt lat="38.0703112093824" lon="13.268039606963981"><ele>416.0</ele><time>2026-03-29T09:54:47Z</time></trkpt><trkpt lat="38.070352705117294" lon="13.268145820400992"><ele>415.99999999999994</ele><time>2026-03-29T09:54:48Z</time></trkpt><trkpt lat="38.07038987619174" lon="13.268232507394279"><ele>416.0</ele><time>2026-03-29T09:54:49Z</time></trkpt><trkpt lat="38.07041756262962" lon="13.268311514707811"><ele>412.20000000000005</ele><time>2026-03-29T09:54:50Z</time></trkpt><trkpt lat="38.07045226317966" lon="13.268385538290632"><ele>408.40000000000003</ele><time>2026-03-29T09:54:51Z</time></trkpt><trkpt lat="38.070502630708724" lon="13.268461812543167"><ele>404.6</ele><time>2026-03-29T09:54:52Z</time></trkpt><trkpt lat="38.07056737263803" lon="13.26855389641019"><ele>400.8</ele><time>2026-03-29T09:54:53Z</time></trkpt><trkpt lat="38.07064304927799" lon="13.268644490109343"><ele>397.0</ele><time>2026-03-29T09:54:54Z</time></trkpt><trkpt lat="38.070693658737895" lon="13.268763935085703"><ele>397.00000000000006</ele><time>2026-03-29T09:54:55Z</time></trkpt><trkpt lat="38.07074413405953" lon="13.268875069865727"><ele>397.0</ele><time>2026-03-29T09:54:56Z</time></trkpt><trkpt lat="38.07080645462131" lon="13.268955588681061"><ele>397.0</ele><time>2026-03-29T09:54:57Z</time></trkpt><trkpt lat="38.070840312863034" lon="13.26905233544779"><ele>397.0</ele><time>2026-03-29T09:54:58Z</time></trkpt><trkpt lat="38.070886269275654" lon="13.269143427303705"><ele>397.00000000000006</ele><time>2026-03-29T09:54:59Z</time></trkpt><trkpt lat="38.070922736650346" lon="13.269245584995044"><ele>397.0</ele><time>2026-03-29T09:55:00Z</time></trkpt><trkpt lat="38.07096174714007" lon="13.269351956141547"><ele>397.0</ele><time>2026-03-29T09:55:01Z</time></trkpt><trkpt lat="38.0709929384112" lon="13.269458248724863"><ele>397.0</ele><time>2026-03-29T09:55:02Z</time></trkpt><trkpt lat="38.07104126477553" lon="13.269558314776843"><ele>397.0</ele><time>2026-03-29T09:55:03Z</time></trkpt><trkpt lat="38.07108899684413" lon="13.26966520766284"><ele>397.0</ele><time>2026-03-29T09:55:04Z</time></trkpt><trkpt lat="38.071149563302534" lon="13.269775630674529"><ele>397.0</ele><time>2026-03-29T09:55:05Z</time></trkpt><trkpt lat="38.07119812671074" lon="13.269866528957431"><ele>393.6666666666667</ele><time>2026-03-29T09:55:06Z</time></trkpt><trkpt lat="38.07125011046441" lon="13.269961291628725"><ele>390.33333333333337</ele><time>2026-03-29T09:55:07Z</time></trkpt><trkpt lat="38.07130741570515" lon="13.270043336478619"><ele>387.0</ele><time>2026-03-29T09:55:08Z</time></trkpt><trkpt lat="38.07136783525802" lon="13.27011741991156"><ele>383.6666666666667</ele><time>2026-03-29T09:55:09Z</time></trkpt><trkpt lat="38.07143949312685" lon="13.270190620415743"><ele>380.33333333333337</ele><time>2026-03-29T09:55:10Z</time></trkpt><trkpt lat="38.07149838199763" lon="13.270250929896381"><ele>377.0</ele><time>2026-03-29T09:55:11Z</time></trkpt><trkpt lat="38.07154309364633" lon="13.27030822892766"><ele>377.0</ele><time>2026-03-29T09:55:12Z</time></trkpt><trkpt lat="38.07158369344369" lon="13.2703789178631"><ele>377.0</ele><time>2026-03-29T09:55:14Z</time></trkpt><trkpt lat="38.07151073398747" lon="13.27038663895446"><ele>377.0</ele><time>2026-03-29T09:55:16Z</time></trkpt><trkpt lat="38.07144496995316" lon="13.27028573875715"><ele>377.0</ele><time>2026-03-29T09:58:06Z</time></trkpt><trkpt lat="38.071339602282286" lon="13.270169765286361"><ele>377.0</ele><time>2026-03-29T09:58:08Z</time></trkpt><trkpt lat="38.07127324635583" lon="13.270111256414312"><ele>377.0</ele><time>2026-03-29T09:58:09Z</time></trkpt><trkpt lat="38.07121203548051" lon="13.270051965175739"><ele>377.0</ele><time>2026-03-29T09:58:10Z</time></trkpt><trkpt lat="38.07115022338493" lon="13.269994393496575"><ele>377.0</ele><time>2026-03-29T09:58:11Z</time></trkpt><trkpt lat="38.07108943261463" lon="13.269936450383932"><ele>377.0</ele><time>2026-03-29T09:58:12Z</time></trkpt><trkpt lat="38.07102959001008" lon="13.269875347440047"><ele>377.0</ele><time>2026-03-29T09:58:13Z</time></trkpt><trkpt lat="38.07096648437935" lon="13.269815507127491"><ele>377.0</ele><time>2026-03-29T09:58:14Z</time></trkpt><trkpt lat="38.07090651755522" lon="13.269751662667385"><ele>377.83333333333337</ele><time>2026-03-29T09:58:15Z</time></trkpt><trkpt lat="38.070846646598184" lon="13.269679487699362"><ele>378.6666666666667</ele><time>2026-03-29T09:58:16Z</time></trkpt><trkpt lat="38.0707868427747" lon="13.269599059713933"><ele>379.5</ele><time>2026-03-29T09:58:17Z</time></trkpt><trkpt lat="38.070728898382846" lon="13.26952078874777"><ele>380.3333333333333</ele><time>2026-03-29T09:58:18Z</time></trkpt><trkpt lat="38.070669324741914" lon="13.26944078758412"><ele>381.16666666666663</ele><time>2026-03-29T09:58:19Z</time></trkpt><trkpt lat="38.07060660133639" lon="13.269366501805727"><ele>382.0</ele><time>2026-03-29T09:58:20Z</time></trkpt><trkpt lat="38.070536899702105" lon="13.269293527024077"><ele>382.0</ele><time>2026-03-29T09:58:21Z</time></trkpt><trkpt lat="38.070466020113834" lon="13.269232147215497"><ele>382.0</ele><time>2026-03-29T09:58:22Z</time></trkpt><trkpt lat="38.07040024999632" lon="13.26917968960615"><ele>382.0</ele><time>2026-03-29T09:58:23Z</time></trkpt><trkpt lat="38.07034504523777" lon="13.269133955620937"><ele>382.0</ele><time>2026-03-29T09:58:24Z</time></trkpt><trkpt lat="38.070285780013755" lon="13.269104818635956"><ele>382.0</ele><time>2026-03-29T09:58:25Z</time></trkpt><trkpt lat="38.07018571317969" lon="13.269102144287903"><ele>382.0</ele><time>2026-03-29T09:58:27Z</time></trkpt><trkpt lat="38.0701215590546" lon="13.269118974752514"><ele>382.0</ele><time>2026-03-29T09:58:29Z</time></trkpt><trkpt lat="38.070057751589346" lon="13.269099875512056"><ele>382.0</ele><time>2026-03-29T09:58:38Z</time></trkpt><trkpt lat="38.06996279830194" lon="13.269026744782403"><ele>382.0</ele><time>2026-03-29T09:58:39Z</time></trkpt><trkpt lat="38.06988050084305" lon="13.26903813804314"><ele>382.0</ele><time>2026-03-29T09:58:40Z</time></trkpt><trkpt lat="38.06979763053913" lon="13.269041996634844"><ele>382.0</ele><time>2026-03-29T09:58:41Z</time></trkpt><trkpt lat="38.06970685671337" lon="13.26903886205366"><ele>382.0</ele><time>2026-03-29T09:58:42Z</time></trkpt><trkpt lat="38.06961157072835" lon="13.26902897275923"><ele>382.5</ele><time>2026-03-29T09:58:43Z</time></trkpt><trkpt lat="38.06951204603253" lon="13.269016142618606"><ele>383.0</ele><time>2026-03-29T09:58:44Z</time></trkpt><trkpt lat="38.06939426606046" lon="13.269018354047645"><ele>383.5</ele><time>2026-03-29T09:58:45Z</time></trkpt><trkpt lat="38.069277058793986" lon="13.269024948676778"><ele>384.0</ele><time>2026-03-29T09:58:46Z</time></trkpt><trkpt lat="38.069158691950506" lon="13.26904165414831"><ele>385.5</ele><time>2026-03-29T09:58:47Z</time></trkpt><trkpt lat="38.06904215777028" lon="13.269072211404088"><ele>387.0</ele><time>2026-03-29T09:58:48Z</time></trkpt><trkpt lat="38.06892683279141" lon="13.269119637301431"><ele>388.5</ele><time>2026-03-29T09:58:49Z</time></trkpt><trkpt lat="38.06881595286449" lon="13.269173718894281"><ele>390.0</ele><time>2026-03-29T09:58:50Z</time></trkpt><trkpt lat="38.06870133884799" lon="13.269240439747811"><ele>390.0</ele><time>2026-03-29T09:58:51Z</time></trkpt><trkpt lat="38.06858624429215" lon="13.269315258361845"><ele>390.0</ele><time>2026-03-29T09:58:52Z</time></trkpt><trkpt lat="38.068468161963835" lon="13.269382349786731"><ele>390.0</ele><time>2026-03-29T09:58:53Z</time></trkpt><trkpt lat="38.06834272957751" lon="13.26944729823454"><ele>390.0</ele><time>2026-03-29T09:58:54Z</time></trkpt><trkpt lat="38.06822634796015" lon="13.269481967890307"><ele>392.5</ele><time>2026-03-29T09:58:55Z</time></trkpt><trkpt lat="38.06810256489791" lon="13.269487837575047"><ele>395.0</ele><time>2026-03-29T09:58:56Z</time></trkpt><trkpt lat="38.06797508953925" lon="13.269472046368191"><ele>397.5</ele><time>2026-03-29T09:58:57Z</time></trkpt><trkpt lat="38.067849841745826" lon="13.269452642871807"><ele>400.0</ele><time>2026-03-29T09:58:58Z</time></trkpt><trkpt lat="38.067724787136065" lon="13.269427792973524"><ele>400.0</ele><time>2026-03-29T09:58:59Z</time></trkpt><trkpt lat="38.06759683120064" lon="13.26939978108062"><ele>400.0</ele><time>2026-03-29T09:59:00Z</time></trkpt><trkpt lat="38.06746936114631" lon="13.269369855278352"><ele>400.0</ele><time>2026-03-29T09:59:01Z</time></trkpt><trkpt lat="38.06733829479851" lon="13.269334699834749"><ele>400.0</ele><time>2026-03-29T09:59:02Z</time></trkpt><trkpt lat="38.0672109605337" lon="13.269299679399639"><ele>397.5</ele><time>2026-03-29T09:59:03Z</time></trkpt><trkpt lat="38.067087622086106" lon="13.269265695718818"><ele>395.0</ele><time>2026-03-29T09:59:04Z</time></trkpt><trkpt lat="38.06697427923963" lon="13.269206049032553"><ele>392.5</ele><time>2026-03-29T09:59:05Z</time></trkpt><trkpt lat="38.06688049034016" lon="13.269105732496222"><ele>390.0</ele><time>2026-03-29T09:59:06Z</time></trkpt><trkpt lat="38.06679707132159" lon="13.268976993357677"><ele>392.5</ele><time>2026-03-29T09:59:07Z</time></trkpt><trkpt lat="38.06670094560482" lon="13.268854991413093"><ele>395.0</ele><time>2026-03-29T09:59:08Z</time></trkpt><trkpt lat="38.066605778879186" lon="13.268749955053002"><ele>397.5</ele><time>2026-03-29T09:59:09Z</time></trkpt><trkpt lat="38.066508346430325" lon="13.268628577269208"><ele>400.0</ele><time>2026-03-29T09:59:10Z</time></trkpt><trkpt lat="38.06641241824989" lon="13.268510632836428"><ele>400.0</ele><time>2026-03-29T09:59:11Z</time></trkpt><trkpt lat="38.066321992266055" lon="13.268390596755683"><ele>400.0</ele><time>2026-03-29T09:59:12Z</time></trkpt><trkpt lat="38.066228836802246" lon="13.268273597361917"><ele>400.0</ele><time>2026-03-29T09:59:13Z</time></trkpt><trkpt lat="38.06614026300169" lon="13.268148571523847"><ele>400.0</ele><time>2026-03-29T09:59:14Z</time></trkpt><trkpt lat="38.06605641503216" lon="13.26802063490365"><ele>400.25</ele><time>2026-03-29T09:59:15Z</time></trkpt><trkpt lat="38.06597353421804" lon="13.267883709737468"><ele>400.5</ele><time>2026-03-29T09:59:16Z</time></trkpt><trkpt lat="38.065887059079074" lon="13.267748218370674"><ele>400.75</ele><time>2026-03-29T09:59:17Z</time></trkpt><trkpt lat="38.065793666989315" lon="13.267614359689285"><ele>401.0</ele><time>2026-03-29T09:59:18Z</time></trkpt><trkpt lat="38.06568819878476" lon="13.267493233577113"><ele>401.0</ele><time>2026-03-29T09:59:19Z</time></trkpt><trkpt lat="38.0655753547201" lon="13.267383438474436"><ele>401.0</ele><time>2026-03-29T09:59:20Z</time></trkpt><trkpt lat="38.065456916398546" lon="13.267279315546617"><ele>401.0</ele><time>2026-03-29T09:59:21Z</time></trkpt><trkpt lat="38.0653445665924" lon="13.267174967307408"><ele>401.0</ele><time>2026-03-29T09:59:22Z</time></trkpt><trkpt lat="38.06523449905767" lon="13.26707711024326"><ele>402.75</ele><time>2026-03-29T09:59:23Z</time></trkpt><trkpt lat="38.06511484730058" lon="13.266962276587048"><ele>404.5</ele><time>2026-03-29T09:59:24Z</time></trkpt><trkpt lat="38.0649993402062" lon="13.266862809964445"><ele>406.25</ele><time>2026-03-29T09:59:25Z</time></trkpt><trkpt lat="38.06488175941893" lon="13.266754532863827"><ele>408.0</ele><time>2026-03-29T09:59:26Z</time></trkpt><trkpt lat="38.06477075873457" lon="13.266653519918991"><ele>408.0</ele><time>2026-03-29T09:59:27Z</time></trkpt><trkpt lat="38.06466126051171" lon="13.266545676034088"><ele>408.0</ele><time>2026-03-29T09:59:28Z</time></trkpt><trkpt lat="38.06454785897569" lon="13.266438649423044"><ele>408.0</ele><time>2026-03-29T09:59:29Z</time></trkpt><trkpt lat="38.06443450228896" lon="13.266327785327338"><ele>408.0</ele><time>2026-03-29T09:59:30Z</time></trkpt><trkpt lat="38.06432166674314" lon="13.266220397656646"><ele>407.5</ele><time>2026-03-29T09:59:31Z</time></trkpt><trkpt lat="38.06420966245486" lon="13.266116065904853"><ele>407.0</ele><time>2026-03-29T09:59:32Z</time></trkpt><trkpt lat="38.06409783297895" lon="13.266014802289352"><ele>406.5</ele><time>2026-03-29T09:59:33Z</time></trkpt><trkpt lat="38.06398672108415" lon="13.265910189028252"><ele>406.0</ele><time>2026-03-29T09:59:34Z</time></trkpt><trkpt lat="38.063879299416165" lon="13.265806510609812"><ele>406.0</ele><time>2026-03-29T09:59:35Z</time></trkpt><trkpt lat="38.06377129517867" lon="13.26569849220705"><ele>406.0</ele><time>2026-03-29T09:59:36Z</time></trkpt><trkpt lat="38.063667069810464" lon="13.265594970425765"><ele>406.0</ele><time>2026-03-29T09:59:37Z</time></trkpt><trkpt lat="38.06355567086443" lon="13.265495107674939"><ele>406.0</ele><time>2026-03-29T09:59:38Z</time></trkpt><trkpt lat="38.0634474960586" lon="13.265390272071539"><ele>404.25</ele><time>2026-03-29T09:59:39Z</time></trkpt><trkpt lat="38.06333997384628" lon="13.265282507686598"><ele>402.5</ele><time>2026-03-29T09:59:40Z</time></trkpt><trkpt lat="38.063235617409404" lon="13.2651646948246"><ele>400.75</ele><time>2026-03-29T09:59:41Z</time></trkpt><trkpt lat="38.063129373616285" lon="13.265039165216184"><ele>399.0</ele><time>2026-03-29T09:59:42Z</time></trkpt><trkpt lat="38.063020114701395" lon="13.264913612299999"><ele>399.0</ele><time>2026-03-29T09:59:43Z</time></trkpt><trkpt lat="38.06291310855299" lon="13.264792867460875"><ele>399.0</ele><time>2026-03-29T09:59:44Z</time></trkpt><trkpt lat="38.06280389110508" lon="13.264671165634176"><ele>399.0</ele><time>2026-03-29T09:59:45Z</time></trkpt><trkpt lat="38.06269304660975" lon="13.264548374781578"><ele>399.0</ele><time>2026-03-29T09:59:46Z</time></trkpt><trkpt lat="38.06258467449319" lon="13.264427333219695"><ele>399.75</ele><time>2026-03-29T09:59:47Z</time></trkpt><trkpt lat="38.062479306772474" lon="13.264312674631462"><ele>400.5</ele><time>2026-03-29T09:59:48Z</time></trkpt><trkpt lat="38.062364757491025" lon="13.264193571347882"><ele>401.25</ele><time>2026-03-29T09:59:49Z</time></trkpt><trkpt lat="38.062263573882014" lon="13.264082870900095"><ele>402.0</ele><time>2026-03-29T09:59:50Z</time></trkpt><trkpt lat="38.06215676034399" lon="13.263978675051167"><ele>409.0</ele><time>2026-03-29T09:59:51Z</time></trkpt><trkpt lat="38.06205358936864" lon="13.263884245279002"><ele>416.0</ele><time>2026-03-29T09:59:52Z</time></trkpt><trkpt lat="38.06195519275652" lon="13.263795850610954"><ele>423.0</ele><time>2026-03-29T09:59:53Z</time></trkpt><trkpt lat="38.06185821109642" lon="13.263710194664197"><ele>430.0</ele><time>2026-03-29T09:59:54Z</time></trkpt><trkpt lat="38.061759802075905" lon="13.263623354736113"><ele>430.0</ele><time>2026-03-29T09:59:55Z</time></trkpt><trkpt lat="38.061662610570515" lon="13.263530653906036"><ele>430.0</ele><time>2026-03-29T09:59:56Z</time></trkpt><trkpt lat="38.061568044452166" lon="13.263429665113726"><ele>430.0</ele><time>2026-03-29T09:59:57Z</time></trkpt><trkpt lat="38.061479388066424" lon="13.263315285248375"><ele>430.0</ele><time>2026-03-29T09:59:58Z</time></trkpt><trkpt lat="38.06139915612249" lon="13.263198537766515"><ele>428.0</ele><time>2026-03-29T09:59:59Z</time></trkpt><trkpt lat="38.06132097896853" lon="13.263073702716655"><ele>426.0</ele><time>2026-03-29T10:00:00Z</time></trkpt><trkpt lat="38.06124712452496" lon="13.262947569768933"><ele>424.0</ele><time>2026-03-29T10:00:01Z</time></trkpt><trkpt lat="38.06116825819249" lon="13.262835925490121"><ele>422.0</ele><time>2026-03-29T10:00:02Z</time></trkpt><trkpt lat="38.06109030829983" lon="13.262720608483848"><ele>422.0</ele><time>2026-03-29T10:00:03Z</time></trkpt><trkpt lat="38.061016344568884" lon="13.262604818328732"><ele>422.0</ele><time>2026-03-29T10:00:04Z</time></trkpt><trkpt lat="38.0609401889141" lon="13.262486658317949"><ele>422.0</ele><time>2026-03-29T10:00:05Z</time></trkpt><trkpt lat="38.060860492719215" lon="13.262368548723284"><ele>422.0</ele><time>2026-03-29T10:00:06Z</time></trkpt><trkpt lat="38.06078181338729" lon="13.262250646814717"><ele>420.0</ele><time>2026-03-29T10:00:07Z</time></trkpt><trkpt lat="38.06070504271993" lon="13.26213204390642"><ele>418.0</ele><time>2026-03-29T10:00:08Z</time></trkpt><trkpt lat="38.06062395347539" lon="13.262012730054016"><ele>416.0</ele><time>2026-03-29T10:00:09Z</time></trkpt><trkpt lat="38.06054724330324" lon="13.261892864380494"><ele>414.0</ele><time>2026-03-29T10:00:10Z</time></trkpt><trkpt lat="38.06046434594695" lon="13.261777696800527"><ele>414.0</ele><time>2026-03-29T10:00:11Z</time></trkpt><trkpt lat="38.0603791260552" lon="13.261669844921823"><ele>414.0</ele><time>2026-03-29T10:00:12Z</time></trkpt><trkpt lat="38.060292751097464" lon="13.261566548851787"><ele>414.0</ele><time>2026-03-29T10:00:13Z</time></trkpt><trkpt lat="38.06020871341909" lon="13.261460485916825"><ele>414.0</ele><time>2026-03-29T10:00:14Z</time></trkpt><trkpt lat="38.060124829277996" lon="13.261355644368503"><ele>411.75</ele><time>2026-03-29T10:00:15Z</time></trkpt><trkpt lat="38.060033042398636" lon="13.261250576227502"><ele>409.5</ele><time>2026-03-29T10:00:16Z</time></trkpt><trkpt lat="38.05993789754005" lon="13.261146202545705"><ele>407.25</ele><time>2026-03-29T10:00:17Z</time></trkpt><trkpt lat="38.0598452486963" lon="13.261032844485939"><ele>405.0</ele><time>2026-03-29T10:00:18Z</time></trkpt><trkpt lat="38.059757900738234" lon="13.260908045768607"><ele>405.0</ele><time>2026-03-29T10:00:19Z</time></trkpt><trkpt lat="38.059679137287475" lon="13.260773223911043"><ele>405.0</ele><time>2026-03-29T10:00:20Z</time></trkpt><trkpt lat="38.05960164139281" lon="13.260637163236366"><ele>405.0</ele><time>2026-03-29T10:00:21Z</time></trkpt><trkpt lat="38.05952599348208" lon="13.260503723932477"><ele>405.0</ele><time>2026-03-29T10:00:22Z</time></trkpt><trkpt lat="38.05944122711581" lon="13.260368459893932"><ele>401.75</ele><time>2026-03-29T10:00:23Z</time></trkpt><trkpt lat="38.05936344845185" lon="13.260243809958673"><ele>398.5</ele><time>2026-03-29T10:00:24Z</time></trkpt><trkpt lat="38.05928030874972" lon="13.260111435953215"><ele>395.25</ele><time>2026-03-29T10:00:25Z</time></trkpt><trkpt lat="38.059200057767924" lon="13.259980109468783"><ele>392.0</ele><time>2026-03-29T10:00:26Z</time></trkpt><trkpt lat="38.059116144977295" lon="13.25984947860687"><ele>398.0</ele><time>2026-03-29T10:00:27Z</time></trkpt><trkpt lat="38.05903340419599" lon="13.259720560791159"><ele>404.0</ele><time>2026-03-29T10:00:28Z</time></trkpt><trkpt lat="38.05894770591292" lon="13.25959097039598"><ele>410.0</ele><time>2026-03-29T10:00:29Z</time></trkpt><trkpt lat="38.058864994733064" lon="13.259459395043109"><ele>416.0</ele><time>2026-03-29T10:00:30Z</time></trkpt><trkpt lat="38.05878032879564" lon="13.259332076426665"><ele>416.0</ele><time>2026-03-29T10:00:31Z</time></trkpt><trkpt lat="38.05869142395835" lon="13.259206796400104"><ele>416.0</ele><time>2026-03-29T10:00:32Z</time></trkpt><trkpt lat="38.05860183029077" lon="13.259082829514721"><ele>416.0</ele><time>2026-03-29T10:00:33Z</time></trkpt><trkpt lat="38.05851035366596" lon="13.258958299251022"><ele>416.0</ele><time>2026-03-29T10:00:34Z</time></trkpt><trkpt lat="38.05842184766698" lon="13.258835713589683"><ele>413.75</ele><time>2026-03-29T10:00:35Z</time></trkpt><trkpt lat="38.05833685411719" lon="13.258709420970742"><ele>411.5</ele><time>2026-03-29T10:00:36Z</time></trkpt><trkpt lat="38.05825099442215" lon="13.258557626435767"><ele>409.25</ele><time>2026-03-29T10:00:37Z</time></trkpt><trkpt lat="38.05817433456077" lon="13.258441894223212"><ele>407.0</ele><time>2026-03-29T10:00:38Z</time></trkpt><trkpt lat="38.058104079005886" lon="13.258310394251062"><ele>407.0</ele><time>2026-03-29T10:00:39Z</time></trkpt><trkpt lat="38.05802626352963" lon="13.258178475389544"><ele>407.0</ele><time>2026-03-29T10:00:40Z</time></trkpt><trkpt lat="38.057942163474344" lon="13.258047384665955"><ele>407.0</ele><time>2026-03-29T10:00:41Z</time></trkpt><trkpt lat="38.05785732858045" lon="13.257914161597729"><ele>407.0</ele><time>2026-03-29T10:00:42Z</time></trkpt><trkpt lat="38.05777875623476" lon="13.25778245083347"><ele>413.25</ele><time>2026-03-29T10:00:43Z</time></trkpt><trkpt lat="38.057697634611586" lon="13.257648558367222"><ele>419.5</ele><time>2026-03-29T10:00:44Z</time></trkpt><trkpt lat="38.057613342315406" lon="13.257514369411245"><ele>425.75</ele><time>2026-03-29T10:00:45Z</time></trkpt><trkpt lat="38.05753290875594" lon="13.257381762028766"><ele>432.0</ele><time>2026-03-29T10:00:46Z</time></trkpt><trkpt lat="38.05745414724411" lon="13.257242011466717"><ele>430.5</ele><time>2026-03-29T10:00:47Z</time></trkpt><trkpt lat="38.057370748350735" lon="13.257104957919346"><ele>429.0</ele><time>2026-03-29T10:00:48Z</time></trkpt><trkpt lat="38.05728817439665" lon="13.256970123366628"><ele>427.5</ele><time>2026-03-29T10:00:49Z</time></trkpt><trkpt lat="38.05720629704396" lon="13.25683256086689"><ele>426.0</ele><time>2026-03-29T10:00:50Z</time></trkpt><trkpt lat="38.05712633539325" lon="13.256696965338675"><ele>426.0</ele><time>2026-03-29T10:00:51Z</time></trkpt><trkpt lat="38.05704842745524" lon="13.256554223728257"><ele>426.0</ele><time>2026-03-29T10:00:52Z</time></trkpt><trkpt lat="38.05696843905884" lon="13.256416693288621"><ele>426.0</ele><time>2026-03-29T10:00:53Z</time></trkpt><trkpt lat="38.056881339123564" lon="13.2562837773061"><ele>426.0</ele><time>2026-03-29T10:00:54Z</time></trkpt><trkpt lat="38.05680176528077" lon="13.256142369240631"><ele>425.25</ele><time>2026-03-29T10:00:55Z</time></trkpt><trkpt lat="38.05672047174949" lon="13.256009290762698"><ele>424.5</ele><time>2026-03-29T10:00:56Z</time></trkpt><trkpt lat="38.056635221446044" lon="13.255875222362807"><ele>423.75</ele><time>2026-03-29T10:00:57Z</time></trkpt><trkpt lat="38.05654429075832" lon="13.255740133589352"><ele>423.0</ele><time>2026-03-29T10:00:58Z</time></trkpt><trkpt lat="38.05646550652422" lon="13.255601110419352"><ele>427.0</ele><time>2026-03-29T10:00:59Z</time></trkpt><trkpt lat="38.05638721506499" lon="13.255460394136335"><ele>431.0</ele><time>2026-03-29T10:01:00Z</time></trkpt><trkpt lat="38.05631005015184" lon="13.255319214713602"><ele>435.0</ele><time>2026-03-29T10:01:01Z</time></trkpt><trkpt lat="38.05622863877343" lon="13.25517961466222"><ele>439.0</ele><time>2026-03-29T10:01:02Z</time></trkpt><trkpt lat="38.056142806570726" lon="13.255040836059207"><ele>439.0</ele><time>2026-03-29T10:01:03Z</time></trkpt><trkpt lat="38.05605902372226" lon="13.254901532293724"><ele>439.0</ele><time>2026-03-29T10:01:04Z</time></trkpt><trkpt lat="38.05597686570191" lon="13.254760526152543"><ele>439.0</ele><time>2026-03-29T10:01:05Z</time></trkpt><trkpt lat="38.05590174312451" lon="13.254615096469033"><ele>439.0</ele><time>2026-03-29T10:01:06Z</time></trkpt><trkpt lat="38.05583254171189" lon="13.254459133021586"><ele>439.0</ele><time>2026-03-29T10:01:07Z</time></trkpt><trkpt lat="38.05576436730957" lon="13.25429954105342"><ele>439.0</ele><time>2026-03-29T10:01:08Z</time></trkpt><trkpt lat="38.05569358699973" lon="13.254133373005814"><ele>439.0</ele><time>2026-03-29T10:01:09Z</time></trkpt><trkpt lat="38.055626088025974" lon="13.253963882923282"><ele>439.0</ele><time>2026-03-29T10:01:10Z</time></trkpt><trkpt lat="38.05556501123251" lon="13.253795696980065"><ele>439.0</ele><time>2026-03-29T10:01:11Z</time></trkpt><trkpt lat="38.055486592504664" lon="13.253629998339605"><ele>439.0</ele><time>2026-03-29T10:01:12Z</time></trkpt><trkpt lat="38.05541848830276" lon="13.253455253236723"><ele>439.0</ele><time>2026-03-29T10:01:13Z</time></trkpt><trkpt lat="38.055357987856006" lon="13.253268253549916"><ele>441.6666666666667</ele><time>2026-03-29T10:01:14Z</time></trkpt><trkpt lat="38.05529772754397" lon="13.253083032183433"><ele>444.33333333333337</ele><time>2026-03-29T10:01:15Z</time></trkpt><trkpt lat="38.05523292124239" lon="13.252902943288111"><ele>447.0</ele><time>2026-03-29T10:01:16Z</time></trkpt><trkpt lat="38.05518567632818" lon="13.25273339055571"><ele>447.0</ele><time>2026-03-29T10:01:17Z</time></trkpt><trkpt lat="38.05514615396495" lon="13.252564120896444"><ele>447.0</ele><time>2026-03-29T10:01:18Z</time></trkpt><trkpt lat="38.05510325526865" lon="13.252392819087293"><ele>447.0</ele><time>2026-03-29T10:01:19Z</time></trkpt><trkpt lat="38.055061629095306" lon="13.252222117613734"><ele>447.0</ele><time>2026-03-29T10:01:20Z</time></trkpt><trkpt lat="38.0550241057614" lon="13.252056310760329"><ele>444.0</ele><time>2026-03-29T10:01:21Z</time></trkpt><trkpt lat="38.054971753404736" lon="13.251880299913047"><ele>441.0</ele><time>2026-03-29T10:01:22Z</time></trkpt><trkpt lat="38.05489824881459" lon="13.251731720827813"><ele>438.0</ele><time>2026-03-29T10:01:23Z</time></trkpt><trkpt lat="38.05481925529946" lon="13.251579496752713"><ele>435.0</ele><time>2026-03-29T10:01:24Z</time></trkpt><trkpt lat="38.0547466223248" lon="13.251419269448508"><ele>435.0</ele><time>2026-03-29T10:01:25Z</time></trkpt><trkpt lat="38.05465994554318" lon="13.251270928530102"><ele>435.0</ele><time>2026-03-29T10:01:26Z</time></trkpt><trkpt lat="38.05456585098043" lon="13.251135428339383"><ele>435.0</ele><time>2026-03-29T10:01:27Z</time></trkpt><trkpt lat="38.05448014028987" lon="13.250991443220478"><ele>435.0</ele><time>2026-03-29T10:01:28Z</time></trkpt><trkpt lat="38.054396679297646" lon="13.25083784026749"><ele>435.0</ele><time>2026-03-29T10:01:29Z</time></trkpt><trkpt lat="38.054327984048236" lon="13.250681820679702"><ele>435.0</ele><time>2026-03-29T10:01:30Z</time></trkpt><trkpt lat="38.05427905147169" lon="13.250500312459833"><ele>435.0</ele><time>2026-03-29T10:01:31Z</time></trkpt><trkpt lat="38.05424078849356" lon="13.250326284032033"><ele>435.0</ele><time>2026-03-29T10:01:32Z</time></trkpt><trkpt lat="38.05419854490916" lon="13.250160649844222"><ele>432.25</ele><time>2026-03-29T10:01:33Z</time></trkpt><trkpt lat="38.0541466899593" lon="13.249992480969553"><ele>429.5</ele><time>2026-03-29T10:01:34Z</time></trkpt><trkpt lat="38.054101005556404" lon="13.249829099888757"><ele>426.75</ele><time>2026-03-29T10:01:35Z</time></trkpt><trkpt lat="38.0540506539076" lon="13.249655105007369"><ele>424.0</ele><time>2026-03-29T10:01:36Z</time></trkpt><trkpt lat="38.05399679850466" lon="13.249492703767622"><ele>424.0</ele><time>2026-03-29T10:01:37Z</time></trkpt><trkpt lat="38.05393116477257" lon="13.249324916336072"><ele>424.0</ele><time>2026-03-29T10:01:38Z</time></trkpt><trkpt lat="38.053854821523416" lon="13.2491691894041"><ele>424.0</ele><time>2026-03-29T10:01:39Z</time></trkpt><trkpt lat="38.05378484549855" lon="13.249014359759405"><ele>424.0</ele><time>2026-03-29T10:01:40Z</time></trkpt><trkpt lat="38.0537174578461" lon="13.248849999466456"><ele>427.75</ele><time>2026-03-29T10:01:41Z</time></trkpt><trkpt lat="38.05363914297222" lon="13.248691140263375"><ele>431.5</ele><time>2026-03-29T10:01:42Z</time></trkpt><trkpt lat="38.05356618100666" lon="13.248540441639951"><ele>435.25</ele><time>2026-03-29T10:01:43Z</time></trkpt><trkpt lat="38.05350314529649" lon="13.248378014481673"><ele>439.0</ele><time>2026-03-29T10:01:44Z</time></trkpt><trkpt lat="38.05344550564235" lon="13.248213264720265"><ele>442.75</ele><time>2026-03-29T10:01:45Z</time></trkpt><trkpt lat="38.053396461185244" lon="13.24804832427239"><ele>446.5</ele><time>2026-03-29T10:01:46Z</time></trkpt><trkpt lat="38.05334178953745" lon="13.247882407808456"><ele>450.25</ele><time>2026-03-29T10:01:47Z</time></trkpt><trkpt lat="38.0532848210611" lon="13.247723325826213"><ele>454.0</ele><time>2026-03-29T10:01:48Z</time></trkpt><trkpt lat="38.05321390555058" lon="13.24756264428071"><ele>444.5</ele><time>2026-03-29T10:01:49Z</time></trkpt><trkpt lat="38.053152651616855" lon="13.247408039115973"><ele>435.0</ele><time>2026-03-29T10:01:50Z</time></trkpt><trkpt lat="38.05308483181547" lon="13.24724653142923"><ele>425.5</ele><time>2026-03-29T10:01:51Z</time></trkpt><trkpt lat="38.05302119394725" lon="13.247091498636035"><ele>416.0</ele><time>2026-03-29T10:01:52Z</time></trkpt><trkpt lat="38.05296928822771" lon="13.246926512708882"><ele>416.0</ele><time>2026-03-29T10:01:53Z</time></trkpt><trkpt lat="38.05293281598205" lon="13.246759746693314"><ele>416.0</ele><time>2026-03-29T10:01:54Z</time></trkpt><trkpt lat="38.05289012912369" lon="13.246588174210531"><ele>416.0</ele><time>2026-03-29T10:01:55Z</time></trkpt><trkpt lat="38.05285777658677" lon="13.246425443008937"><ele>416.0</ele><time>2026-03-29T10:01:56Z</time></trkpt><trkpt lat="38.05281836945356" lon="13.246260261518206"><ele>420.25</ele><time>2026-03-29T10:01:57Z</time></trkpt><trkpt lat="38.05277350116371" lon="13.246088607013197"><ele>424.5</ele><time>2026-03-29T10:01:58Z</time></trkpt><trkpt lat="38.05273611320576" lon="13.245922965270243"><ele>428.75</ele><time>2026-03-29T10:01:59Z</time></trkpt><trkpt lat="38.0526894205882" lon="13.245757128111068"><ele>433.0</ele><time>2026-03-29T10:02:00Z</time></trkpt><trkpt lat="38.052643748442144" lon="13.245588890041944"><ele>437.5</ele><time>2026-03-29T10:02:01Z</time></trkpt><trkpt lat="38.05260051315793" lon="13.245418880823955"><ele>442.0</ele><time>2026-03-29T10:02:02Z</time></trkpt><trkpt lat="38.05255108338241" lon="13.24524673346549"><ele>446.5</ele><time>2026-03-29T10:02:03Z</time></trkpt><trkpt lat="38.0525105027297" lon="13.245075599793482"><ele>451.0</ele><time>2026-03-29T10:02:04Z</time></trkpt><trkpt lat="38.052467289072474" lon="13.244907151577998"><ele>442.0</ele><time>2026-03-29T10:02:05Z</time></trkpt><trkpt lat="38.052426219445955" lon="13.24474338698845"><ele>433.0</ele><time>2026-03-29T10:02:06Z</time></trkpt><trkpt lat="38.05238262012402" lon="13.244580258089574"><ele>424.0</ele><time>2026-03-29T10:02:07Z</time></trkpt><trkpt lat="38.05233327731788" lon="13.244420907142029"><ele>415.0</ele><time>2026-03-29T10:02:08Z</time></trkpt><trkpt lat="38.052287869069296" lon="13.244263849982467"><ele>415.0</ele><time>2026-03-29T10:02:09Z</time></trkpt><trkpt lat="38.052244024942745" lon="13.244103433659419"><ele>415.0</ele><time>2026-03-29T10:02:10Z</time></trkpt><trkpt lat="38.05219821389658" lon="13.243946123731751"><ele>415.0</ele><time>2026-03-29T10:02:11Z</time></trkpt><trkpt lat="38.05215357273338" lon="13.243789540399781"><ele>415.0</ele><time>2026-03-29T10:02:12Z</time></trkpt><trkpt lat="38.052104771142425" lon="13.243628998670772"><ele>419.5</ele><time>2026-03-29T10:02:13Z</time></trkpt><trkpt lat="38.05205541600265" lon="13.243461265637805"><ele>424.0</ele><time>2026-03-29T10:02:14Z</time></trkpt><trkpt lat="38.05201308955368" lon="13.243293328542492"><ele>428.5</ele><time>2026-03-29T10:02:15Z</time></trkpt><trkpt lat="38.051968890035724" lon="13.24313309657621"><ele>433.0</ele><time>2026-03-29T10:02:16Z</time></trkpt><trkpt lat="38.05192865557774" lon="13.242967954935253"><ele>434.75</ele><time>2026-03-29T10:02:17Z</time></trkpt><trkpt lat="38.05189251635843" lon="13.242798567238392"><ele>436.5</ele><time>2026-03-29T10:02:18Z</time></trkpt><trkpt lat="38.051870395825006" lon="13.242631008654278"><ele>438.25</ele><time>2026-03-29T10:02:19Z</time></trkpt><trkpt lat="38.05186621962204" lon="13.242458478505117"><ele>440.0</ele><time>2026-03-29T10:02:20Z</time></trkpt><trkpt lat="38.05187755410449" lon="13.242282913662223"><ele>440.75</ele><time>2026-03-29T10:02:21Z</time></trkpt><trkpt lat="38.051916178523506" lon="13.242114060948852"><ele>441.5</ele><time>2026-03-29T10:02:22Z</time></trkpt><trkpt lat="38.051940052403204" lon="13.241943695690527"><ele>442.25</ele><time>2026-03-29T10:02:23Z</time></trkpt><trkpt lat="38.05197756697617" lon="13.24178015327305"><ele>443.0</ele><time>2026-03-29T10:02:24Z</time></trkpt><trkpt lat="38.051964520774256" lon="13.24162674573297"><ele>443.0</ele><time>2026-03-29T10:02:25Z</time></trkpt><trkpt lat="38.051914056056674" lon="13.241500500293625"><ele>443.0</ele><time>2026-03-29T10:02:26Z</time></trkpt><trkpt lat="38.05183377408896" lon="13.241400129205443"><ele>443.0</ele><time>2026-03-29T10:02:27Z</time></trkpt><trkpt lat="38.05174980460918" lon="13.24128194930077"><ele>443.0</ele><time>2026-03-29T10:02:28Z</time></trkpt><trkpt lat="38.05165463709705" lon="13.2412017866812"><ele>439.75</ele><time>2026-03-29T10:02:29Z</time></trkpt><trkpt lat="38.05158736845719" lon="13.241075266516585"><ele>436.5</ele><time>2026-03-29T10:02:30Z</time></trkpt><trkpt lat="38.05153060268444" lon="13.240938158555991"><ele>433.25</ele><time>2026-03-29T10:02:31Z</time></trkpt><trkpt lat="38.05148990019246" lon="13.240788551964695"><ele>430.0</ele><time>2026-03-29T10:02:32Z</time></trkpt><trkpt lat="38.05146693243086" lon="13.240636415119635"><ele>433.5</ele><time>2026-03-29T10:02:33Z</time></trkpt><trkpt lat="38.05141293174034" lon="13.240495507982766"><ele>437.0</ele><time>2026-03-29T10:02:34Z</time></trkpt><trkpt lat="38.05138296061368" lon="13.24033767329756"><ele>440.5</ele><time>2026-03-29T10:02:35Z</time></trkpt><trkpt lat="38.051334589759996" lon="13.240180070696393"><ele>444.0</ele><time>2026-03-29T10:02:36Z</time></trkpt><trkpt lat="38.05128158078191" lon="13.240005996813723"><ele>444.0</ele><time>2026-03-29T10:02:37Z</time></trkpt><trkpt lat="38.05123067104291" lon="13.239843448700842"><ele>444.0</ele><time>2026-03-29T10:02:38Z</time></trkpt><trkpt lat="38.051187395287705" lon="13.23968050465067"><ele>444.0</ele><time>2026-03-29T10:02:39Z</time></trkpt><trkpt lat="38.05113998659436" lon="13.23951277155679"><ele>444.0</ele><time>2026-03-29T10:02:40Z</time></trkpt><trkpt lat="38.05109683218702" lon="13.239345807409203"><ele>447.25</ele><time>2026-03-29T10:02:41Z</time></trkpt><trkpt lat="38.051050818982866" lon="13.239178400763274"><ele>450.5</ele><time>2026-03-29T10:02:42Z</time></trkpt><trkpt lat="38.050996228936405" lon="13.23901290078779"><ele>453.75</ele><time>2026-03-29T10:02:43Z</time></trkpt><trkpt lat="38.0509516162662" lon="13.238847383389224"><ele>457.0</ele><time>2026-03-29T10:02:44Z</time></trkpt><trkpt lat="38.05091395610015" lon="13.23867530758102"><ele>460.75</ele><time>2026-03-29T10:02:45Z</time></trkpt><trkpt lat="38.050898591241996" lon="13.238501066559767"><ele>464.5</ele><time>2026-03-29T10:02:46Z</time></trkpt><trkpt lat="38.050896432293875" lon="13.238327684165197"><ele>468.25</ele><time>2026-03-29T10:02:47Z</time></trkpt><trkpt lat="38.05088415460891" lon="13.238153236340516"><ele>472.0</ele><time>2026-03-29T10:02:48Z</time></trkpt><trkpt lat="38.05084326923329" lon="13.237983190890503"><ele>466.5</ele><time>2026-03-29T10:02:49Z</time></trkpt><trkpt lat="38.05078047720867" lon="13.237821265748806"><ele>461.0</ele><time>2026-03-29T10:02:50Z</time></trkpt><trkpt lat="38.050704499954776" lon="13.23767079014679"><ele>455.5</ele><time>2026-03-29T10:02:51Z</time></trkpt><trkpt lat="38.05063072577641" lon="13.237510257062263"><ele>450.0</ele><time>2026-03-29T10:02:52Z</time></trkpt><trkpt lat="38.050572754924126" lon="13.237343406602246"><ele>455.0</ele><time>2026-03-29T10:02:53Z</time></trkpt><trkpt lat="38.050520798901914" lon="13.237167533975684"><ele>460.0</ele><time>2026-03-29T10:02:54Z</time></trkpt><trkpt lat="38.05046649646712" lon="13.2369902887801"><ele>465.0</ele><time>2026-03-29T10:02:55Z</time></trkpt><trkpt lat="38.05041008898986" lon="13.236822626055181"><ele>470.0</ele><time>2026-03-29T10:02:56Z</time></trkpt><trkpt lat="38.05032014446902" lon="13.23666988206785"><ele>470.0</ele><time>2026-03-29T10:02:57Z</time></trkpt><trkpt lat="38.0502255035803" lon="13.236529191967323"><ele>470.0</ele><time>2026-03-29T10:02:58Z</time></trkpt><trkpt lat="38.05011801368132" lon="13.236389024206092"><ele>470.0</ele><time>2026-03-29T10:02:59Z</time></trkpt><trkpt lat="38.05000759269809" lon="13.236254890281929"><ele>465.3333333333333</ele><time>2026-03-29T10:03:00Z</time></trkpt><trkpt lat="38.04990349255083" lon="13.23610765776318"><ele>460.66666666666663</ele><time>2026-03-29T10:03:01Z</time></trkpt><trkpt lat="38.04982422646075" lon="13.235942780383347"><ele>456.0</ele><time>2026-03-29T10:03:02Z</time></trkpt><trkpt lat="38.04975877058518" lon="13.235769190207982"><ele>461.75</ele><time>2026-03-29T10:03:03Z</time></trkpt><trkpt lat="38.04970650475517" lon="13.23559294253488"><ele>467.5</ele><time>2026-03-29T10:03:04Z</time></trkpt><trkpt lat="38.04965302592888" lon="13.235430006588503"><ele>473.25</ele><time>2026-03-29T10:03:05Z</time></trkpt><trkpt lat="38.04959023967551" lon="13.23526354461831"><ele>479.0</ele><time>2026-03-29T10:03:06Z</time></trkpt><trkpt lat="38.04953275823951" lon="13.235090756485446"><ele>479.0</ele><time>2026-03-29T10:03:07Z</time></trkpt><trkpt lat="38.04947141789359" lon="13.234924939215766"><ele>479.0</ele><time>2026-03-29T10:03:08Z</time></trkpt><trkpt lat="38.04940266363106" lon="13.23476715908109"><ele>479.0</ele><time>2026-03-29T10:03:09Z</time></trkpt><trkpt lat="38.049331228180925" lon="13.23460650440236"><ele>479.0</ele><time>2026-03-29T10:03:10Z</time></trkpt><trkpt lat="38.04927112573752" lon="13.234451177456664"><ele>482.0</ele><time>2026-03-29T10:03:11Z</time></trkpt><trkpt lat="38.049210573851816" lon="13.234298179814186"><ele>485.0</ele><time>2026-03-29T10:03:12Z</time></trkpt><trkpt lat="38.049171246446356" lon="13.234161785070826"><ele>488.0</ele><time>2026-03-29T10:03:13Z</time></trkpt><trkpt lat="38.049182049426825" lon="13.234014622612344"><ele>491.0</ele><time>2026-03-29T10:03:14Z</time></trkpt><trkpt lat="38.04916506138494" lon="13.233879928569786"><ele>491.49999999999994</ele><time>2026-03-29T10:03:15Z</time></trkpt><trkpt lat="38.04916024817371" lon="13.233756478552202"><ele>492.0</ele><time>2026-03-29T10:03:16Z</time></trkpt><trkpt lat="38.04915141165462" lon="13.233660221834818"><ele>492.5</ele><time>2026-03-29T10:03:17Z</time></trkpt><trkpt lat="38.04912867366512" lon="13.233565568855722"><ele>493.0</ele><time>2026-03-29T10:03:18Z</time></trkpt><trkpt lat="38.049083889937364" lon="13.233466496330015"><ele>493.49999999999994</ele><time>2026-03-29T10:03:19Z</time></trkpt><trkpt lat="38.04904304215452" lon="13.233365685592814"><ele>494.0</ele><time>2026-03-29T10:03:20Z</time></trkpt><trkpt lat="38.048993249135826" lon="13.233268692751066"><ele>492.79999999999995</ele><time>2026-03-29T10:03:21Z</time></trkpt><trkpt lat="38.048939396068135" lon="13.2331843223347"><ele>491.59999999999997</ele><time>2026-03-29T10:03:22Z</time></trkpt><trkpt lat="38.04889795202467" lon="13.233089506504285"><ele>490.4</ele><time>2026-03-29T10:03:23Z</time></trkpt><trkpt lat="38.0488558332137" lon="13.232973823752546"><ele>489.2</ele><time>2026-03-29T10:03:24Z</time></trkpt><trkpt lat="38.04880880945545" lon="13.232846498813798"><ele>488.0</ele><time>2026-03-29T10:03:25Z</time></trkpt><trkpt lat="38.04877538822711" lon="13.232710891075177"><ele>488.0</ele><time>2026-03-29T10:03:26Z</time></trkpt><trkpt lat="38.048756691618784" lon="13.232567214306648"><ele>488.0</ele><time>2026-03-29T10:03:27Z</time></trkpt><trkpt lat="38.048739850402754" lon="13.232423991938534"><ele>488.0</ele><time>2026-03-29T10:03:28Z</time></trkpt><trkpt lat="38.04873583733863" lon="13.232290420121116"><ele>488.0</ele><time>2026-03-29T10:03:29Z</time></trkpt><trkpt lat="38.04872227440749" lon="13.232130755404869"><ele>490.0</ele><time>2026-03-29T10:03:30Z</time></trkpt><trkpt lat="38.048719238429015" lon="13.231988302930226"><ele>492.0</ele><time>2026-03-29T10:03:31Z</time></trkpt><trkpt lat="38.04870824709942" lon="13.23184968601207"><ele>494.0</ele><time>2026-03-29T10:03:32Z</time></trkpt><trkpt lat="38.048697120135685" lon="13.231695865411464"><ele>496.0</ele><time>2026-03-29T10:03:33Z</time></trkpt><trkpt lat="38.04868265173418" lon="13.231546905669967"><ele>497.50000000000006</ele><time>2026-03-29T10:03:34Z</time></trkpt><trkpt lat="38.04866722696952" lon="13.231417636696456"><ele>499.0</ele><time>2026-03-29T10:03:35Z</time></trkpt><trkpt lat="38.048632628925674" lon="13.231303778930434"><ele>500.5</ele><time>2026-03-29T10:03:36Z</time></trkpt><trkpt lat="38.04861885460019" lon="13.231219575902301"><ele>502.0</ele><time>2026-03-29T10:03:37Z</time></trkpt><trkpt lat="38.048586316490216" lon="13.231109248148147"><ele>503.50000000000006</ele><time>2026-03-29T10:03:39Z</time></trkpt><trkpt lat="38.0485595779598" lon="13.231016111162832"><ele>505.0</ele><time>2026-03-29T10:03:42Z</time></trkpt><trkpt lat="38.04853826380456" lon="13.230931488643305"><ele>505.00000000000006</ele><time>2026-03-29T10:03:51Z</time></trkpt><trkpt lat="38.04850329071992" lon="13.230814749388012"><ele>505.0</ele><time>2026-03-29T10:03:53Z</time></trkpt><trkpt lat="38.04848420998409" lon="13.230728546733177"><ele>505.0</ele><time>2026-03-29T10:03:57Z</time></trkpt><trkpt lat="38.04844041668384" lon="13.230641325058677"><ele>505.0</ele><time>2026-03-29T10:04:01Z</time></trkpt><trkpt lat="38.04841286342178" lon="13.230559162555618"><ele>505.00000000000006</ele><time>2026-03-29T10:04:03Z</time></trkpt><trkpt lat="38.04838698268524" lon="13.230426270636105"><ele>505.0</ele><time>2026-03-29T10:04:05Z</time></trkpt><trkpt lat="38.04832833888431" lon="13.230284001800456"><ele>504.4285714285714</ele><time>2026-03-29T10:04:07Z</time></trkpt><trkpt lat="38.048295249452984" lon="13.23020407454603"><ele>503.8571428571428</ele><time>2026-03-29T10:04:08Z</time></trkpt><trkpt lat="38.048262399725054" lon="13.230118305943474"><ele>503.2857142857143</ele><time>2026-03-29T10:04:09Z</time></trkpt><trkpt lat="38.048240721054924" lon="13.230036480485747"><ele>502.71428571428567</ele><time>2026-03-29T10:04:10Z</time></trkpt><trkpt lat="38.048211742759676" lon="13.229960947950238"><ele>502.1428571428571</ele><time>2026-03-29T10:04:11Z</time></trkpt><trkpt lat="38.04818018822887" lon="13.22988937251466"><ele>501.57142857142856</ele><time>2026-03-29T10:04:12Z</time></trkpt><trkpt lat="38.04815095573957" lon="13.2298184356647"><ele>501.0</ele><time>2026-03-29T10:04:13Z</time></trkpt><trkpt lat="38.04811762245858" lon="13.229742202031662"><ele>503.6</ele><time>2026-03-29T10:04:14Z</time></trkpt><trkpt lat="38.04809020329765" lon="13.229650001723543"><ele>506.20000000000005</ele><time>2026-03-29T10:04:15Z</time></trkpt><trkpt lat="38.04803022928318" lon="13.229525630739307"><ele>508.79999999999995</ele><time>2026-03-29T10:04:16Z</time></trkpt><trkpt lat="38.04798645482536" lon="13.229413298455892"><ele>511.4</ele><time>2026-03-29T10:04:17Z</time></trkpt><trkpt lat="38.04795038286754" lon="13.229299470601577"><ele>514.0</ele><time>2026-03-29T10:04:18Z</time></trkpt><trkpt lat="38.047902063723896" lon="13.229185326249098"><ele>514.0</ele><time>2026-03-29T10:04:19Z</time></trkpt><trkpt lat="38.04783652578555" lon="13.229085416587136"><ele>514.0</ele><time>2026-03-29T10:04:20Z</time></trkpt><trkpt lat="38.04778008333231" lon="13.228980291722577"><ele>514.0</ele><time>2026-03-29T10:04:21Z</time></trkpt><trkpt lat="38.04772797944248" lon="13.228873172146125"><ele>514.0</ele><time>2026-03-29T10:04:22Z</time></trkpt><trkpt lat="38.0476767465318" lon="13.22876281574007"><ele>514.0</ele><time>2026-03-29T10:04:23Z</time></trkpt><trkpt lat="38.04762156590046" lon="13.228652569903723"><ele>516.2</ele><time>2026-03-29T10:04:24Z</time></trkpt><trkpt lat="38.04756178934568" lon="13.228544450435923"><ele>518.4</ele><time>2026-03-29T10:04:25Z</time></trkpt><trkpt lat="38.04752080943883" lon="13.228423257727874"><ele>520.6</ele><time>2026-03-29T10:04:26Z</time></trkpt><trkpt lat="38.047465655078746" lon="13.228325474336973"><ele>522.8</ele><time>2026-03-29T10:04:27Z</time></trkpt><trkpt lat="38.04741101279347" lon="13.228227323076736"><ele>525.0</ele><time>2026-03-29T10:04:28Z</time></trkpt><trkpt lat="38.04736130150339" lon="13.228148544401137"><ele>524.8333333333334</ele><time>2026-03-29T10:04:29Z</time></trkpt><trkpt lat="38.04732233111242" lon="13.228074851229977"><ele>524.6666666666666</ele><time>2026-03-29T10:04:30Z</time></trkpt><trkpt lat="38.047280449314435" lon="13.227976629909234"><ele>524.5</ele><time>2026-03-29T10:04:32Z</time></trkpt><trkpt lat="38.04725319250992" lon="13.227902810217808"><ele>524.3333333333333</ele><time>2026-03-29T10:04:40Z</time></trkpt><trkpt lat="38.0472123756298" lon="13.227823754107591"><ele>524.1666666666666</ele><time>2026-03-29T10:04:42Z</time></trkpt><trkpt lat="38.047171763826036" lon="13.22772612370166"><ele>524.0</ele><time>2026-03-29T10:04:44Z</time></trkpt><trkpt lat="38.047138287479804" lon="13.227616741013213"><ele>524.0</ele><time>2026-03-29T10:04:46Z</time></trkpt><trkpt lat="38.04709576235551" lon="13.227493987384902"><ele>524.0</ele><time>2026-03-29T10:04:48Z</time></trkpt><trkpt lat="38.04704980204441" lon="13.227359796900265"><ele>524.0</ele><time>2026-03-29T10:04:50Z</time></trkpt><trkpt lat="38.04701941552607" lon="13.227280079850033"><ele>524.0</ele><time>2026-03-29T10:04:51Z</time></trkpt><trkpt lat="38.046991520678745" lon="13.227200257474932"><ele>524.0</ele><time>2026-03-29T10:04:52Z</time></trkpt><trkpt lat="38.046961176938986" lon="13.227115966120735"><ele>524.0</ele><time>2026-03-29T10:04:53Z</time></trkpt><trkpt lat="38.046929084920194" lon="13.22702756212665"><ele>526.3333333333333</ele><time>2026-03-29T10:04:54Z</time></trkpt><trkpt lat="38.04689867172315" lon="13.226944628263775"><ele>528.6666666666666</ele><time>2026-03-29T10:04:55Z</time></trkpt><trkpt lat="38.04686915803161" lon="13.226847930184027"><ele>531.0</ele><time>2026-03-29T10:04:57Z</time></trkpt><trkpt lat="38.046842050619446" lon="13.226759979134936"><ele>533.3333333333334</ele><time>2026-03-29T10:05:11Z</time></trkpt><trkpt lat="38.04680247196927" lon="13.22667043596714"><ele>535.6666666666667</ele><time>2026-03-29T10:05:13Z</time></trkpt><trkpt lat="38.046757675536746" lon="13.226574330591452"><ele>538.0</ele><time>2026-03-29T10:05:15Z</time></trkpt><trkpt lat="38.04672175076835" lon="13.226452132247825"><ele>540.0</ele><time>2026-03-29T10:05:17Z</time></trkpt><trkpt lat="38.046694705941356" lon="13.226341033320839"><ele>542.0</ele><time>2026-03-29T10:05:19Z</time></trkpt><trkpt lat="38.046651639818016" lon="13.226218192162596"><ele>544.0</ele><time>2026-03-29T10:05:21Z</time></trkpt><trkpt lat="38.04660052354398" lon="13.226089931671748"><ele>546.0</ele><time>2026-03-29T10:05:23Z</time></trkpt><trkpt lat="38.0465531195273" lon="13.225974906127714"><ele>548.0</ele><time>2026-03-29T10:05:25Z</time></trkpt><trkpt lat="38.04649043304827" lon="13.225825977808643"><ele>547.1666666666666</ele><time>2026-03-29T10:05:27Z</time></trkpt><trkpt lat="38.04645421407078" lon="13.22574328245096"><ele>546.3333333333333</ele><time>2026-03-29T10:05:28Z</time></trkpt><trkpt lat="38.04641712864233" lon="13.225644512353584"><ele>545.5</ele><time>2026-03-29T10:05:29Z</time></trkpt><trkpt lat="38.04638283294311" lon="13.225544961320011"><ele>544.6666666666666</ele><time>2026-03-29T10:05:30Z</time></trkpt><trkpt lat="38.046345065574556" lon="13.225438995165916"><ele>543.8333333333334</ele><time>2026-03-29T10:05:31Z</time></trkpt><trkpt lat="38.04631167949141" lon="13.22533407604018"><ele>543.0</ele><time>2026-03-29T10:05:32Z</time></trkpt><trkpt lat="38.04627373878551" lon="13.225222714220436"><ele>543.0</ele><time>2026-03-29T10:05:33Z</time></trkpt><trkpt lat="38.04623332697914" lon="13.225107531809048"><ele>543.0</ele><time>2026-03-29T10:05:34Z</time></trkpt><trkpt lat="38.04619305920461" lon="13.22499115845367"><ele>543.0</ele><time>2026-03-29T10:05:35Z</time></trkpt><trkpt lat="38.046150259698024" lon="13.22487123268666"><ele>543.0</ele><time>2026-03-29T10:05:36Z</time></trkpt><trkpt lat="38.046101831894774" lon="13.224753451587077"><ele>543.0</ele><time>2026-03-29T10:05:37Z</time></trkpt><trkpt lat="38.04605286824544" lon="13.224638788922924"><ele>545.6</ele><time>2026-03-29T10:05:38Z</time></trkpt><trkpt lat="38.04600268833698" lon="13.224526701711254"><ele>548.1999999999999</ele><time>2026-03-29T10:05:39Z</time></trkpt><trkpt lat="38.04595163380946" lon="13.224412750661369"><ele>550.8</ele><time>2026-03-29T10:05:40Z</time></trkpt><trkpt lat="38.04590035010643" lon="13.224302503525617"><ele>553.4</ele><time>2026-03-29T10:05:41Z</time></trkpt><trkpt lat="38.045849236860334" lon="13.224187240685236"><ele>556.0</ele><time>2026-03-29T10:05:42Z</time></trkpt><trkpt lat="38.045798991605025" lon="13.224078943841334"><ele>553.6</ele><time>2026-03-29T10:05:43Z</time></trkpt><trkpt lat="38.04575265899023" lon="13.22397178291829"><ele>551.2</ele><time>2026-03-29T10:05:44Z</time></trkpt><trkpt lat="38.045705893156686" lon="13.223866978877524"><ele>548.8</ele><time>2026-03-29T10:05:45Z</time></trkpt><trkpt lat="38.04565399183195" lon="13.223768905465079"><ele>546.4</ele><time>2026-03-29T10:05:46Z</time></trkpt><trkpt lat="38.045632535055084" lon="13.223664478215719"><ele>544.0</ele><time>2026-03-29T10:05:47Z</time></trkpt><trkpt lat="38.045589481539004" lon="13.223568474007699"><ele>544.0</ele><time>2026-03-29T10:05:48Z</time></trkpt><trkpt lat="38.04554802586587" lon="13.223463365953618"><ele>544.0</ele><time>2026-03-29T10:05:49Z</time></trkpt><trkpt lat="38.04552120842234" lon="13.223360980952297"><ele>544.0</ele><time>2026-03-29T10:05:50Z</time></trkpt><trkpt lat="38.04549435944859" lon="13.223250790458664"><ele>544.0</ele><time>2026-03-29T10:05:51Z</time></trkpt><trkpt lat="38.04546429354449" lon="13.22314321290806"><ele>544.0</ele><time>2026-03-29T10:05:52Z</time></trkpt><trkpt lat="38.04544033874577" lon="13.223036088333995"><ele>544.0</ele><time>2026-03-29T10:05:53Z</time></trkpt><trkpt lat="38.04541010681012" lon="13.222923737675144"><ele>546.6</ele><time>2026-03-29T10:05:54Z</time></trkpt><trkpt lat="38.045373467246804" lon="13.22281050894697"><ele>549.2</ele><time>2026-03-29T10:05:55Z</time></trkpt><trkpt lat="38.04533226352779" lon="13.222700455687622"><ele>551.8000000000001</ele><time>2026-03-29T10:05:56Z</time></trkpt><trkpt lat="38.04528695922688" lon="13.222595191070274"><ele>554.4</ele><time>2026-03-29T10:05:57Z</time></trkpt><trkpt lat="38.04522996908724" lon="13.222493149339682"><ele>557.0</ele><time>2026-03-29T10:05:58Z</time></trkpt><trkpt lat="38.04517680930374" lon="13.222400939532818"><ele>557.0</ele><time>2026-03-29T10:05:59Z</time></trkpt><trkpt lat="38.045107849058084" lon="13.22231836761842"><ele>557.0</ele><time>2026-03-29T10:06:00Z</time></trkpt><trkpt lat="38.04503602246548" lon="13.222232355704968"><ele>557.0</ele><time>2026-03-29T10:06:01Z</time></trkpt><trkpt lat="38.04496284743494" lon="13.222153692636908"><ele>557.0</ele><time>2026-03-29T10:06:02Z</time></trkpt><trkpt lat="38.04488801179659" lon="13.22207200834795"><ele>557.0</ele><time>2026-03-29T10:06:03Z</time></trkpt><trkpt lat="38.04481537497124" lon="13.221990933085353"><ele>556.2</ele><time>2026-03-29T10:06:04Z</time></trkpt><trkpt lat="38.04474471611966" lon="13.221906401621197"><ele>555.4000000000001</ele><time>2026-03-29T10:06:05Z</time></trkpt><trkpt lat="38.044679405323976" lon="13.221813861209991"><ele>554.5999999999999</ele><time>2026-03-29T10:06:06Z</time></trkpt><trkpt lat="38.04460829244385" lon="13.221727095777556"><ele>553.8</ele><time>2026-03-29T10:06:07Z</time></trkpt><trkpt lat="38.044529893990976" lon="13.221636457351408"><ele>553.0</ele><time>2026-03-29T10:06:08Z</time></trkpt><trkpt lat="38.04445475514227" lon="13.221547567786192"><ele>551.1999999999999</ele><time>2026-03-29T10:06:09Z</time></trkpt><trkpt lat="38.04438317374475" lon="13.221452575411915"><ele>549.4</ele><time>2026-03-29T10:06:10Z</time></trkpt><trkpt lat="38.044310090490754" lon="13.221355725613778"><ele>547.5999999999999</ele><time>2026-03-29T10:06:11Z</time></trkpt><trkpt lat="38.04423581810319" lon="13.2212603162655"><ele>545.8</ele><time>2026-03-29T10:06:12Z</time></trkpt><trkpt lat="38.04415546711067" lon="13.221166479191208"><ele>544.0</ele><time>2026-03-29T10:06:13Z</time></trkpt><trkpt lat="38.04406882621139" lon="13.221070830137412"><ele>544.0</ele><time>2026-03-29T10:06:14Z</time></trkpt><trkpt lat="38.04397777821785" lon="13.220979843766948"><ele>544.0</ele><time>2026-03-29T10:06:15Z</time></trkpt><trkpt lat="38.04388328670669" lon="13.220875173941375"><ele>544.0</ele><time>2026-03-29T10:06:16Z</time></trkpt><trkpt lat="38.04378957765548" lon="13.220769732533247"><ele>544.0</ele><time>2026-03-29T10:06:17Z</time></trkpt><trkpt lat="38.04370248837244" lon="13.220655761321588"><ele>547.0</ele><time>2026-03-29T10:06:18Z</time></trkpt><trkpt lat="38.043632862288966" lon="13.220527402305471"><ele>550.0</ele><time>2026-03-29T10:06:19Z</time></trkpt><trkpt lat="38.04357144813263" lon="13.22038939425605"><ele>553.0</ele><time>2026-03-29T10:06:20Z</time></trkpt><trkpt lat="38.04350680262747" lon="13.220248309432334"><ele>556.0</ele><time>2026-03-29T10:06:21Z</time></trkpt><trkpt lat="38.04344003546474" lon="13.22012124960553"><ele>556.0</ele><time>2026-03-29T10:06:22Z</time></trkpt><trkpt lat="38.043354197395416" lon="13.220005668603896"><ele>556.0</ele><time>2026-03-29T10:06:23Z</time></trkpt><trkpt lat="38.043257372053766" lon="13.219900402687628"><ele>556.0</ele><time>2026-03-29T10:06:24Z</time></trkpt><trkpt lat="38.043149087409134" lon="13.219814235659992"><ele>556.0</ele><time>2026-03-29T10:06:25Z</time></trkpt><trkpt lat="38.043028797708615" lon="13.219749402986677"><ele>559.5</ele><time>2026-03-29T10:06:26Z</time></trkpt><trkpt lat="38.04291177918671" lon="13.21969355744834"><ele>563.0</ele><time>2026-03-29T10:06:27Z</time></trkpt><trkpt lat="38.04279115086648" lon="13.219633459827177"><ele>566.5</ele><time>2026-03-29T10:06:28Z</time></trkpt><trkpt lat="38.042677243878245" lon="13.219559690110604"><ele>570.0</ele><time>2026-03-29T10:06:29Z</time></trkpt><trkpt lat="38.04256005383368" lon="13.219489232375409"><ele>565.75</ele><time>2026-03-29T10:06:30Z</time></trkpt><trkpt lat="38.04244212955567" lon="13.219422874204756"><ele>561.5</ele><time>2026-03-29T10:06:31Z</time></trkpt><trkpt lat="38.04232689428673" lon="13.219350088550824"><ele>557.25</ele><time>2026-03-29T10:06:32Z</time></trkpt><trkpt lat="38.042215853700675" lon="13.219273244985576"><ele>553.0</ele><time>2026-03-29T10:06:33Z</time></trkpt><trkpt lat="38.042108620345616" lon="13.219176692120087"><ele>553.0</ele><time>2026-03-29T10:06:34Z</time></trkpt><trkpt lat="38.0420102457711" lon="13.21906849861733"><ele>553.0</ele><time>2026-03-29T10:06:35Z</time></trkpt><trkpt lat="38.04191582153346" lon="13.21895183806183"><ele>553.0</ele><time>2026-03-29T10:06:36Z</time></trkpt><trkpt lat="38.04181556645768" lon="13.218848524880023"><ele>553.0</ele><time>2026-03-29T10:06:37Z</time></trkpt><trkpt lat="38.04171408528727" lon="13.218746111876548"><ele>554.75</ele><time>2026-03-29T10:06:38Z</time></trkpt><trkpt lat="38.04161341436167" lon="13.218640900761693"><ele>556.5</ele><time>2026-03-29T10:06:39Z</time></trkpt><trkpt lat="38.041522373641065" lon="13.218524403489345"><ele>558.25</ele><time>2026-03-29T10:06:40Z</time></trkpt><trkpt lat="38.04144161858745" lon="13.21839039010378"><ele>560.0</ele><time>2026-03-29T10:06:41Z</time></trkpt><trkpt lat="38.04136398670102" lon="13.218251031521072"><ele>566.25</ele><time>2026-03-29T10:06:42Z</time></trkpt><trkpt lat="38.04127111038469" lon="13.218139708280708"><ele>572.5</ele><time>2026-03-29T10:06:43Z</time></trkpt><trkpt lat="38.04116160634418" lon="13.2180635413589"><ele>578.75</ele><time>2026-03-29T10:06:44Z</time></trkpt><trkpt lat="38.041039806288424" lon="13.2180146258885"><ele>585.0</ele><time>2026-03-29T10:06:45Z</time></trkpt><trkpt lat="38.0409201523072" lon="13.217974856607634"><ele>585.0</ele><time>2026-03-29T10:06:46Z</time></trkpt><trkpt lat="38.04082321033261" lon="13.217933810192834"><ele>585.0</ele><time>2026-03-29T10:06:47Z</time></trkpt><trkpt lat="38.040741258734094" lon="13.217885326920912"><ele>585.0</ele><time>2026-03-29T10:06:48Z</time></trkpt><trkpt lat="38.04065740755666" lon="13.217825870176519"><ele>585.0</ele><time>2026-03-29T10:06:49Z</time></trkpt><trkpt lat="38.040569973674515" lon="13.217766626236084"><ele>585.0</ele><time>2026-03-29T10:06:50Z</time></trkpt><trkpt lat="38.04047923773079" lon="13.217709891182446"><ele>583.25</ele><time>2026-03-29T10:06:51Z</time></trkpt><trkpt lat="38.040379647226594" lon="13.21765461973935"><ele>581.5</ele><time>2026-03-29T10:06:52Z</time></trkpt><trkpt lat="38.04026906812673" lon="13.217600214914835"><ele>579.75</ele><time>2026-03-29T10:06:53Z</time></trkpt><trkpt lat="38.04015325073881" lon="13.217542842864404"><ele>578.0</ele><time>2026-03-29T10:06:54Z</time></trkpt><trkpt lat="38.04003668365654" lon="13.21748632725965"><ele>580.6</ele><time>2026-03-29T10:06:55Z</time></trkpt><trkpt lat="38.03992369985791" lon="13.217428233248476"><ele>583.1999999999999</ele><time>2026-03-29T10:06:56Z</time></trkpt><trkpt lat="38.03982337875794" lon="13.217357854725588"><ele>585.8</ele><time>2026-03-29T10:06:57Z</time></trkpt><trkpt lat="38.03973428989941" lon="13.21728373538865"><ele>588.4</ele><time>2026-03-29T10:06:58Z</time></trkpt><trkpt lat="38.03965263766134" lon="13.217203191214368"><ele>591.0</ele><time>2026-03-29T10:06:59Z</time></trkpt><trkpt lat="38.0395729440017" lon="13.217130648047219"><ele>591.0</ele><time>2026-03-29T10:07:00Z</time></trkpt><trkpt lat="38.03949017568204" lon="13.217085858171785"><ele>591.0</ele><time>2026-03-29T10:07:01Z</time></trkpt><trkpt lat="38.039411847893696" lon="13.217089752408121"><ele>591.0</ele><time>2026-03-29T10:07:02Z</time></trkpt><trkpt lat="38.03934537918836" lon="13.217119234199142"><ele>591.0</ele><time>2026-03-29T10:07:03Z</time></trkpt><trkpt lat="38.03930059015163" lon="13.217231180770467"><ele>591.0</ele><time>2026-03-29T10:07:04Z</time></trkpt><trkpt lat="38.03928449609952" lon="13.217340682442643"><ele>591.0</ele><time>2026-03-29T10:07:05Z</time></trkpt><trkpt lat="38.0392900508164" lon="13.217452095073503"><ele>591.0</ele><time>2026-03-29T10:07:06Z</time></trkpt><trkpt lat="38.039289307852265" lon="13.217576542072093"><ele>591.0</ele><time>2026-03-29T10:07:07Z</time></trkpt><trkpt lat="38.03927971051563" lon="13.217701718174828"><ele>591.0</ele><time>2026-03-29T10:07:08Z</time></trkpt><trkpt lat="38.03926258344099" lon="13.217832241679734"><ele>591.0</ele><time>2026-03-29T10:07:09Z</time></trkpt><trkpt lat="38.03924435453344" lon="13.217960829723467"><ele>591.0</ele><time>2026-03-29T10:07:10Z</time></trkpt><trkpt lat="38.03922728463278" lon="13.218082404888628"><ele>591.6</ele><time>2026-03-29T10:07:11Z</time></trkpt><trkpt lat="38.039196183124645" lon="13.218193182365393"><ele>592.2</ele><time>2026-03-29T10:07:12Z</time></trkpt><trkpt lat="38.03914631509931" lon="13.218288392902947"><ele>592.8</ele><time>2026-03-29T10:07:13Z</time></trkpt><trkpt lat="38.03907554019868" lon="13.218359355028703"><ele>593.4</ele><time>2026-03-29T10:07:14Z</time></trkpt><trkpt lat="38.03898889818716" lon="13.218415572481218"><ele>594.0</ele><time>2026-03-29T10:07:15Z</time></trkpt><trkpt lat="38.03890142038675" lon="13.218466002958513"><ele>594.0</ele><time>2026-03-29T10:07:16Z</time></trkpt><trkpt lat="38.03881808717524" lon="13.218540004654004"><ele>594.0</ele><time>2026-03-29T10:07:17Z</time></trkpt><trkpt lat="38.038754712311444" lon="13.21862485100551"><ele>594.0</ele><time>2026-03-29T10:07:18Z</time></trkpt><trkpt lat="38.03871553675318" lon="13.218729137709683"><ele>594.0</ele><time>2026-03-29T10:07:19Z</time></trkpt><trkpt lat="38.03869231595614" lon="13.218836045253196"><ele>594.0</ele><time>2026-03-29T10:07:20Z</time></trkpt><trkpt lat="38.038686427498504" lon="13.218952970168235"><ele>594.0</ele><time>2026-03-29T10:07:21Z</time></trkpt><trkpt lat="38.03868496707245" lon="13.219067415227947"><ele>594.0</ele><time>2026-03-29T10:07:22Z</time></trkpt><trkpt lat="38.03868435709574" lon="13.219183521768173"><ele>594.0</ele><time>2026-03-29T10:07:23Z</time></trkpt><trkpt lat="38.03868320861951" lon="13.219305989596453"><ele>594.0</ele><time>2026-03-29T10:07:24Z</time></trkpt><trkpt lat="38.03867842150378" lon="13.21943300590739"><ele>594.0</ele><time>2026-03-29T10:07:25Z</time></trkpt><trkpt lat="38.03867469639166" lon="13.219562340960032"><ele>594.0</ele><time>2026-03-29T10:07:26Z</time></trkpt><trkpt lat="38.03866771974641" lon="13.219693252880361"><ele>594.0</ele><time>2026-03-29T10:07:27Z</time></trkpt><trkpt lat="38.03865859374338" lon="13.219831028670683"><ele>594.0</ele><time>2026-03-29T10:07:28Z</time></trkpt><trkpt lat="38.03865131845683" lon="13.21996750795565"><ele>594.0</ele><time>2026-03-29T10:07:29Z</time></trkpt><trkpt lat="38.03865038499485" lon="13.220109076717597"><ele>594.0</ele><time>2026-03-29T10:07:30Z</time></trkpt><trkpt lat="38.038644174289075" lon="13.22024726977945"><ele>595.4</ele><time>2026-03-29T10:07:31Z</time></trkpt><trkpt lat="38.038639226300006" lon="13.22037828678475"><ele>596.8</ele><time>2026-03-29T10:07:32Z</time></trkpt><trkpt lat="38.03863475482921" lon="13.22048359323588"><ele>598.2</ele><time>2026-03-29T10:07:33Z</time></trkpt><trkpt lat="38.038618145943495" lon="13.220565934319316"><ele>599.6</ele><time>2026-03-29T10:07:34Z</time></trkpt><trkpt lat="38.03852423130108" lon="13.220619729075283"><ele>601.0</ele><time>2026-03-29T10:07:36Z</time></trkpt><trkpt lat="38.038449382071214" lon="13.22050447210787"><ele>601.0</ele><time>2026-03-29T10:07:38Z</time></trkpt><trkpt lat="38.0384145680921" lon="13.220436005372012"><ele>601.0</ele><time>2026-03-29T10:07:39Z</time></trkpt><trkpt lat="38.03834784212432" lon="13.220344886166371"><ele>601.0</ele><time>2026-03-29T10:07:40Z</time></trkpt><trkpt lat="38.0382516583826" lon="13.220234971732395"><ele>601.0</ele><time>2026-03-29T10:07:41Z</time></trkpt><trkpt lat="38.03814257162492" lon="13.220115128895229"><ele>601.0</ele><time>2026-03-29T10:07:42Z</time></trkpt><trkpt lat="38.03802598415288" lon="13.21998876043036"><ele>604.0</ele><time>2026-03-29T10:07:43Z</time></trkpt><trkpt lat="38.037906337377294" lon="13.219849877014195"><ele>607.0</ele><time>2026-03-29T10:07:44Z</time></trkpt><trkpt lat="38.03778285250437" lon="13.21970504285784"><ele>610.0</ele><time>2026-03-29T10:07:45Z</time></trkpt><trkpt lat="38.03767097414125" lon="13.219571400192558"><ele>610.0</ele><time>2026-03-29T10:07:46Z</time></trkpt><trkpt lat="38.03755688555372" lon="13.219437929666707"><ele>610.0</ele><time>2026-03-29T10:07:47Z</time></trkpt><trkpt lat="38.03745421007218" lon="13.219311374108155"><ele>610.0</ele><time>2026-03-29T10:07:48Z</time></trkpt><trkpt lat="38.03734241089885" lon="13.219186068955809"><ele>610.0</ele><time>2026-03-29T10:07:49Z</time></trkpt><trkpt lat="38.037231083027166" lon="13.219070474133185"><ele>611.5</ele><time>2026-03-29T10:07:50Z</time></trkpt><trkpt lat="38.0371116982009" lon="13.218963814845305"><ele>613.0</ele><time>2026-03-29T10:07:51Z</time></trkpt><trkpt lat="38.03698242567812" lon="13.218873832788434"><ele>614.5</ele><time>2026-03-29T10:07:52Z</time></trkpt><trkpt lat="38.036846875499705" lon="13.218799100758602"><ele>616.0</ele><time>2026-03-29T10:07:53Z</time></trkpt><trkpt lat="38.03670594335722" lon="13.218730223656276"><ele>619.5</ele><time>2026-03-29T10:07:54Z</time></trkpt><trkpt lat="38.03657138642926" lon="13.218668430749052"><ele>623.0</ele><time>2026-03-29T10:07:55Z</time></trkpt><trkpt lat="38.036452984174396" lon="13.218612048627536"><ele>626.5</ele><time>2026-03-29T10:07:56Z</time></trkpt><trkpt lat="38.036353475615776" lon="13.218567985855351"><ele>630.0</ele><time>2026-03-29T10:07:57Z</time></trkpt><trkpt lat="38.03627028204814" lon="13.218524686622981"><ele>630.0</ele><time>2026-03-29T10:07:58Z</time></trkpt><trkpt lat="38.036208256275735" lon="13.218444455314675"><ele>630.0</ele><time>2026-03-29T10:07:59Z</time></trkpt><trkpt lat="38.036172922518574" lon="13.218327642403843"><ele>630.0</ele><time>2026-03-29T10:08:00Z</time></trkpt><trkpt lat="38.03617778065235" lon="13.218201204159719"><ele>630.0</ele><time>2026-03-29T10:08:01Z</time></trkpt><trkpt lat="38.03624311790663" lon="13.218095032518953"><ele>630.0</ele><time>2026-03-29T10:08:02Z</time></trkpt><trkpt lat="38.03628339601317" lon="13.21796741108446"><ele>633.25</ele><time>2026-03-29T10:08:03Z</time></trkpt><trkpt lat="38.03634755579345" lon="13.217844078707842"><ele>636.5</ele><time>2026-03-29T10:08:04Z</time></trkpt><trkpt lat="38.036407357672566" lon="13.21772003624531"><ele>639.75</ele><time>2026-03-29T10:08:05Z</time></trkpt><trkpt lat="38.036483572471504" lon="13.21760068977686"><ele>643.0</ele><time>2026-03-29T10:08:06Z</time></trkpt><trkpt lat="38.03658112763009" lon="13.21751247889149"><ele>644.25</ele><time>2026-03-29T10:08:07Z</time></trkpt><trkpt lat="38.03669355601915" lon="13.217426236789333"><ele>645.5</ele><time>2026-03-29T10:08:08Z</time></trkpt><trkpt lat="38.036776869633414" lon="13.217373143693159"><ele>646.75</ele><time>2026-03-29T10:08:09Z</time></trkpt><trkpt lat="38.03688469085109" lon="13.217325281072782"><ele>648.0</ele><time>2026-03-29T10:08:10Z</time></trkpt><trkpt lat="38.037000736272674" lon="13.217307278787287"><ele>648.0</ele><time>2026-03-29T10:08:11Z</time></trkpt><trkpt lat="38.037110081663876" lon="13.217310051423384"><ele>648.0</ele><time>2026-03-29T10:08:12Z</time></trkpt><trkpt lat="38.03722211900645" lon="13.217318053650844"><ele>648.0</ele><time>2026-03-29T10:08:13Z</time></trkpt><trkpt lat="38.03732927447554" lon="13.217293676129367"><ele>648.0</ele><time>2026-03-29T10:08:14Z</time></trkpt><trkpt lat="38.03742366808376" lon="13.217223222640376"><ele>648.0</ele><time>2026-03-29T10:08:15Z</time></trkpt><trkpt lat="38.03750169038552" lon="13.217119682860426"><ele>644.8</ele><time>2026-03-29T10:08:16Z</time></trkpt><trkpt lat="38.03756338288141" lon="13.217005625765806"><ele>641.5999999999999</ele><time>2026-03-29T10:08:17Z</time></trkpt><trkpt lat="38.037601371765234" lon="13.21689573175123"><ele>638.4000000000001</ele><time>2026-03-29T10:08:18Z</time></trkpt><trkpt lat="38.03762216935303" lon="13.216770943225665"><ele>635.2</ele><time>2026-03-29T10:08:19Z</time></trkpt><trkpt lat="38.03760777742552" lon="13.216638337993063"><ele>632.0</ele><time>2026-03-29T10:08:20Z</time></trkpt><trkpt lat="38.03757032703487" lon="13.21651335229135"><ele>631.6</ele><time>2026-03-29T10:08:21Z</time></trkpt><trkpt lat="38.03752089935473" lon="13.216393746430764"><ele>631.2</ele><time>2026-03-29T10:08:22Z</time></trkpt><trkpt lat="38.03746177942829" lon="13.216282999715336"><ele>630.8</ele><time>2026-03-29T10:08:23Z</time></trkpt><trkpt lat="38.037403155746695" lon="13.216165065414122"><ele>630.4</ele><time>2026-03-29T10:08:24Z</time></trkpt><trkpt lat="38.03735333741517" lon="13.216046666214934"><ele>630.0</ele><time>2026-03-29T10:08:25Z</time></trkpt><trkpt lat="38.037307394294004" lon="13.215926531315647"><ele>634.4</ele><time>2026-03-29T10:08:26Z</time></trkpt><trkpt lat="38.03727053747011" lon="13.215798832507884"><ele>638.8</ele><time>2026-03-29T10:08:27Z</time></trkpt><trkpt lat="38.03724376251031" lon="13.215664754406939"><ele>643.2</ele><time>2026-03-29T10:08:28Z</time></trkpt><trkpt lat="38.03722489041476" lon="13.215527739504623"><ele>647.6</ele><time>2026-03-29T10:08:29Z</time></trkpt><trkpt lat="38.037218592157345" lon="13.21540626442382"><ele>652.0</ele><time>2026-03-29T10:08:30Z</time></trkpt><trkpt lat="38.037232933839" lon="13.215297000642966"><ele>652.0</ele><time>2026-03-29T10:08:31Z</time></trkpt><trkpt lat="38.037280517746765" lon="13.215198556138464"><ele>652.0</ele><time>2026-03-29T10:08:32Z</time></trkpt><trkpt lat="38.037339391843126" lon="13.215109711514836"><ele>652.0</ele><time>2026-03-29T10:08:33Z</time></trkpt><trkpt lat="38.03740509923434" lon="13.21503783923934"><ele>652.0</ele><time>2026-03-29T10:08:34Z</time></trkpt><trkpt lat="38.037468695188885" lon="13.214980251187795"><ele>652.0</ele><time>2026-03-29T10:08:35Z</time></trkpt><trkpt lat="38.037526639751725" lon="13.21490181211333"><ele>652.0</ele><time>2026-03-29T10:08:36Z</time></trkpt><trkpt lat="38.03756498189198" lon="13.214795115606522"><ele>652.0</ele><time>2026-03-29T10:08:37Z</time></trkpt><trkpt lat="38.03758504577221" lon="13.214667565656443"><ele>652.0</ele><time>2026-03-29T10:08:38Z</time></trkpt><trkpt lat="38.037583085296326" lon="13.214536147009774"><ele>652.0</ele><time>2026-03-29T10:08:39Z</time></trkpt><trkpt lat="38.03755923015082" lon="13.214405038451249"><ele>652.0</ele><time>2026-03-29T10:08:40Z</time></trkpt><trkpt lat="38.03752844362898" lon="13.214273718619722"><ele>652.0</ele><time>2026-03-29T10:08:41Z</time></trkpt><trkpt lat="38.037499477116725" lon="13.214141392637128"><ele>652.0</ele><time>2026-03-29T10:08:42Z</time></trkpt><trkpt lat="38.03747295908778" lon="13.214005906720617"><ele>652.0</ele><time>2026-03-29T10:08:43Z</time></trkpt><trkpt lat="38.03745363437433" lon="13.213869494183527"><ele>652.0</ele><time>2026-03-29T10:08:44Z</time></trkpt><trkpt lat="38.0374279240432" lon="13.213730504247657"><ele>652.0</ele><time>2026-03-29T10:08:45Z</time></trkpt><trkpt lat="38.037393526375546" lon="13.213593942057479"><ele>652.0</ele><time>2026-03-29T10:08:46Z</time></trkpt><trkpt lat="38.037345835948365" lon="13.213460680503717"><ele>654.25</ele><time>2026-03-29T10:08:47Z</time></trkpt><trkpt lat="38.03728935675016" lon="13.21333362603976"><ele>656.5</ele><time>2026-03-29T10:08:48Z</time></trkpt><trkpt lat="38.037221335926326" lon="13.213210782117985"><ele>658.75</ele><time>2026-03-29T10:08:49Z</time></trkpt><trkpt lat="38.037150654081415" lon="13.213090755028032"><ele>661.0</ele><time>2026-03-29T10:08:50Z</time></trkpt><trkpt lat="38.03709195740132" lon="13.21297560752725"><ele>661.0</ele><time>2026-03-29T10:08:51Z</time></trkpt><trkpt lat="38.03703871871832" lon="13.212867140323635"><ele>661.0</ele><time>2026-03-29T10:08:52Z</time></trkpt><trkpt lat="38.03698999375857" lon="13.212749340052737"><ele>661.0</ele><time>2026-03-29T10:08:53Z</time></trkpt><trkpt lat="38.0369606914358" lon="13.21261937601485"><ele>661.0</ele><time>2026-03-29T10:08:54Z</time></trkpt><trkpt lat="38.03695873979608" lon="13.212476749777002"><ele>661.0</ele><time>2026-03-29T10:08:55Z</time></trkpt><trkpt lat="38.036975853670576" lon="13.212322419455226"><ele>660.5</ele><time>2026-03-29T10:08:56Z</time></trkpt><trkpt lat="38.03699734158441" lon="13.212163517963777"><ele>660.0</ele><time>2026-03-29T10:08:57Z</time></trkpt><trkpt lat="38.03701760951381" lon="13.211997773948667"><ele>659.5</ele><time>2026-03-29T10:08:58Z</time></trkpt><trkpt lat="38.03703288679945" lon="13.211824339835408"><ele>659.0</ele><time>2026-03-29T10:08:59Z</time></trkpt><trkpt lat="38.037046263952185" lon="13.21164547626705"><ele>659.3333333333333</ele><time>2026-03-29T10:09:00Z</time></trkpt><trkpt lat="38.03706397214681" lon="13.211460749892561"><ele>659.6666666666666</ele><time>2026-03-29T10:09:01Z</time></trkpt><trkpt lat="38.03708452942804" lon="13.211262488387675"><ele>660.0</ele><time>2026-03-29T10:09:02Z</time></trkpt><trkpt lat="38.0371023769883" lon="13.211060056795649"><ele>660.0</ele><time>2026-03-29T10:09:03Z</time></trkpt><trkpt lat="38.037119490131936" lon="13.210865318839407"><ele>660.0</ele><time>2026-03-29T10:09:04Z</time></trkpt><trkpt lat="38.0371367801708" lon="13.210645180809324"><ele>660.0</ele><time>2026-03-29T10:09:05Z</time></trkpt><trkpt lat="38.03716311961924" lon="13.210445570232629"><ele>660.3333333333334</ele><time>2026-03-29T10:09:06Z</time></trkpt><trkpt lat="38.037187865804846" lon="13.210244400667108"><ele>660.6666666666667</ele><time>2026-03-29T10:09:07Z</time></trkpt><trkpt lat="38.0372046426246" lon="13.210029603468357"><ele>661.0</ele><time>2026-03-29T10:09:08Z</time></trkpt><trkpt lat="38.03722233115932" lon="13.209812962650851"><ele>662.6666666666667</ele><time>2026-03-29T10:09:09Z</time></trkpt><trkpt lat="38.03724411446231" lon="13.209592925765346"><ele>664.3333333333334</ele><time>2026-03-29T10:09:10Z</time></trkpt><trkpt lat="38.0372661122069" lon="13.209378616434737"><ele>666.0</ele><time>2026-03-29T10:09:11Z</time></trkpt><trkpt lat="38.03728502188818" lon="13.209183805352925"><ele>666.0</ele><time>2026-03-29T10:09:12Z</time></trkpt><trkpt lat="38.037300184541486" lon="13.209012829139617"><ele>666.0</ele><time>2026-03-29T10:09:13Z</time></trkpt><trkpt lat="38.03730726752886" lon="13.208828737068417"><ele>666.0</ele><time>2026-03-29T10:09:14Z</time></trkpt><trkpt lat="38.037302022337585" lon="13.208640511422132"><ele>666.0</ele><time>2026-03-29T10:09:15Z</time></trkpt><trkpt lat="38.03728732015972" lon="13.20844524896248"><ele>667.6666666666666</ele><time>2026-03-29T10:09:16Z</time></trkpt><trkpt lat="38.03726757928234" lon="13.20825305851987"><ele>669.3333333333333</ele><time>2026-03-29T10:09:17Z</time></trkpt><trkpt lat="38.03725499432954" lon="13.208054897642041"><ele>671.0</ele><time>2026-03-29T10:09:18Z</time></trkpt><trkpt lat="38.03725171864501" lon="13.207866233068758"><ele>673.5</ele><time>2026-03-29T10:09:19Z</time></trkpt><trkpt lat="38.037255860631" lon="13.207703293866873"><ele>676.0</ele><time>2026-03-29T10:09:20Z</time></trkpt><trkpt lat="38.03728119665835" lon="13.207547967953044"><ele>678.5</ele><time>2026-03-29T10:09:21Z</time></trkpt><trkpt lat="38.037350844587316" lon="13.207398519878597"><ele>681.0</ele><time>2026-03-29T10:09:22Z</time></trkpt><trkpt lat="38.03740088477933" lon="13.207231126791958"><ele>679.3333333333334</ele><time>2026-03-29T10:09:23Z</time></trkpt><trkpt lat="38.037472762649074" lon="13.207064486847225"><ele>677.6666666666667</ele><time>2026-03-29T10:09:24Z</time></trkpt><trkpt lat="38.03755037906407" lon="13.206901514899775"><ele>676.0</ele><time>2026-03-29T10:09:25Z</time></trkpt><trkpt lat="38.03763128769087" lon="13.206738560836333"><ele>676.0</ele><time>2026-03-29T10:09:26Z</time></trkpt><trkpt lat="38.03771311344479" lon="13.206577572901255"><ele>676.0</ele><time>2026-03-29T10:09:27Z</time></trkpt><trkpt lat="38.03780062561556" lon="13.206413794477225"><ele>676.0</ele><time>2026-03-29T10:09:28Z</time></trkpt><trkpt lat="38.03788684460093" lon="13.206256820819467"><ele>681.6666666666667</ele><time>2026-03-29T10:09:29Z</time></trkpt><trkpt lat="38.037968534717535" lon="13.206088429529473"><ele>687.3333333333334</ele><time>2026-03-29T10:09:30Z</time></trkpt><trkpt lat="38.03804847785473" lon="13.205920239312121"><ele>693.0</ele><time>2026-03-29T10:09:31Z</time></trkpt><trkpt lat="38.03812848058343" lon="13.205755979597601"><ele>688.0</ele><time>2026-03-29T10:09:32Z</time></trkpt><trkpt lat="38.03820434520176" lon="13.205585487360809"><ele>683.0</ele><time>2026-03-29T10:09:33Z</time></trkpt><trkpt lat="38.03827104652584" lon="13.205393501409283"><ele>678.0</ele><time>2026-03-29T10:09:34Z</time></trkpt><trkpt lat="38.038320524178154" lon="13.205214623170622"><ele>678.0</ele><time>2026-03-29T10:09:35Z</time></trkpt><trkpt lat="38.03838026274629" lon="13.205062827290302"><ele>678.0</ele><time>2026-03-29T10:09:36Z</time></trkpt><trkpt lat="38.03846543235767" lon="13.204932134318092"><ele>678.0</ele><time>2026-03-29T10:09:37Z</time></trkpt><trkpt lat="38.038568362543764" lon="13.204800845046943"><ele>678.0</ele><time>2026-03-29T10:09:38Z</time></trkpt><trkpt lat="38.03867686322308" lon="13.204673281934786"><ele>677.25</ele><time>2026-03-29T10:09:39Z</time></trkpt><trkpt lat="38.03880363759297" lon="13.204568647325017"><ele>676.5</ele><time>2026-03-29T10:09:40Z</time></trkpt><trkpt lat="38.03893629716071" lon="13.20448783984401"><ele>675.75</ele><time>2026-03-29T10:09:41Z</time></trkpt><trkpt lat="38.03905316902221" lon="13.204421351212872"><ele>675.0</ele><time>2026-03-29T10:09:42Z</time></trkpt><trkpt lat="38.03916026027819" lon="13.204340537517217"><ele>675.0</ele><time>2026-03-29T10:09:43Z</time></trkpt><trkpt lat="38.03925362048191" lon="13.20423002327463"><ele>675.0</ele><time>2026-03-29T10:09:44Z</time></trkpt><trkpt lat="38.03933381715749" lon="13.204087836335203"><ele>675.0</ele><time>2026-03-29T10:09:45Z</time></trkpt><trkpt lat="38.03940764129695" lon="13.203941636184155"><ele>675.0</ele><time>2026-03-29T10:09:46Z</time></trkpt><trkpt lat="38.03948940855595" lon="13.203807098855156"><ele>679.75</ele><time>2026-03-29T10:09:47Z</time></trkpt><trkpt lat="38.039585547007036" lon="13.203682921610735"><ele>684.5</ele><time>2026-03-29T10:09:48Z</time></trkpt><trkpt lat="38.039689214513615" lon="13.20357152995214"><ele>689.25</ele><time>2026-03-29T10:09:49Z</time></trkpt><trkpt lat="38.03980446625036" lon="13.203460629017416"><ele>694.0</ele><time>2026-03-29T10:09:50Z</time></trkpt><trkpt lat="38.03991269119445" lon="13.203351424767373"><ele>691.5</ele><time>2026-03-29T10:09:51Z</time></trkpt><trkpt lat="38.04002762532077" lon="13.203235660490302"><ele>689.0</ele><time>2026-03-29T10:09:52Z</time></trkpt><trkpt lat="38.04014697093587" lon="13.203129695136946"><ele>686.5</ele><time>2026-03-29T10:09:53Z</time></trkpt><trkpt lat="38.040273506631536" lon="13.203023861407626"><ele>684.0</ele><time>2026-03-29T10:09:54Z</time></trkpt><trkpt lat="38.04039985388024" lon="13.202914701957653"><ele>684.0</ele><time>2026-03-29T10:09:55Z</time></trkpt><trkpt lat="38.040530598927255" lon="13.202797829556687"><ele>684.0</ele><time>2026-03-29T10:09:56Z</time></trkpt><trkpt lat="38.04065383153097" lon="13.20269361743243"><ele>684.0</ele><time>2026-03-29T10:09:57Z</time></trkpt><trkpt lat="38.04076448106871" lon="13.20259186616606"><ele>684.0</ele><time>2026-03-29T10:09:58Z</time></trkpt><trkpt lat="38.04087435450966" lon="13.202491226851947"><ele>683.5</ele><time>2026-03-29T10:09:59Z</time></trkpt><trkpt lat="38.04096463721985" lon="13.202411124796086"><ele>683.0</ele><time>2026-03-29T10:10:00Z</time></trkpt><trkpt lat="38.04108278198216" lon="13.202358250831862"><ele>682.5</ele><time>2026-03-29T10:10:01Z</time></trkpt><trkpt lat="38.041208195707235" lon="13.202327977791116"><ele>682.0</ele><time>2026-03-29T10:10:02Z</time></trkpt><trkpt lat="38.04131851835229" lon="13.202297487166495"><ele>682.0</ele><time>2026-03-29T10:10:03Z</time></trkpt><trkpt lat="38.041407078054405" lon="13.202243422032273"><ele>682.0</ele><time>2026-03-29T10:10:04Z</time></trkpt><trkpt lat="38.041487308446136" lon="13.202160389500524"><ele>682.0</ele><time>2026-03-29T10:10:05Z</time></trkpt><trkpt lat="38.04154989155256" lon="13.202056782622376"><ele>682.0</ele><time>2026-03-29T10:10:06Z</time></trkpt><trkpt lat="38.04161149927572" lon="13.201926054339468"><ele>682.0</ele><time>2026-03-29T10:10:07Z</time></trkpt><trkpt lat="38.04165792034619" lon="13.20179740832836"><ele>681.0</ele><time>2026-03-29T10:10:08Z</time></trkpt><trkpt lat="38.04167052282351" lon="13.201668209700628"><ele>680.0</ele><time>2026-03-29T10:10:09Z</time></trkpt><trkpt lat="38.04166613380788" lon="13.201549245158114"><ele>679.0</ele><time>2026-03-29T10:10:10Z</time></trkpt><trkpt lat="38.04164457249519" lon="13.20144425362163"><ele>678.0</ele><time>2026-03-29T10:10:11Z</time></trkpt><trkpt lat="38.041608667630214" lon="13.20136425722029"><ele>677.0</ele><time>2026-03-29T10:10:12Z</time></trkpt><trkpt lat="38.041541782563435" lon="13.201283661943146"><ele>676.0</ele><time>2026-03-29T10:10:13Z</time></trkpt><trkpt lat="38.041450036030945" lon="13.20121396025315"><ele>676.0</ele><time>2026-03-29T10:10:14Z</time></trkpt><trkpt lat="38.04135870648195" lon="13.20114183469119"><ele>676.0</ele><time>2026-03-29T10:10:15Z</time></trkpt><trkpt lat="38.04129928153632" lon="13.201033199980452"><ele>676.0</ele><time>2026-03-29T10:10:16Z</time></trkpt><trkpt lat="38.041226434265084" lon="13.200928406589291"><ele>676.0</ele><time>2026-03-29T10:10:17Z</time></trkpt><trkpt lat="38.04117439121123" lon="13.200812013648406"><ele>676.0</ele><time>2026-03-29T10:10:18Z</time></trkpt><trkpt lat="38.041138124221476" lon="13.200704956151968"><ele>673.1666666666667</ele><time>2026-03-29T10:10:19Z</time></trkpt><trkpt lat="38.04110839469423" lon="13.200592597016435"><ele>670.3333333333334</ele><time>2026-03-29T10:10:20Z</time></trkpt><trkpt lat="38.0410959050249" lon="13.200478177089039"><ele>667.5</ele><time>2026-03-29T10:10:21Z</time></trkpt><trkpt lat="38.04108544687988" lon="13.200360068957561"><ele>664.6666666666666</ele><time>2026-03-29T10:10:22Z</time></trkpt><trkpt lat="38.0410556634782" lon="13.200253240596592"><ele>661.8333333333333</ele><time>2026-03-29T10:10:23Z</time></trkpt><trkpt lat="38.041018657933265" lon="13.200178994595708"><ele>659.0</ele><time>2026-03-29T10:10:24Z</time></trkpt><trkpt lat="38.04097288962314" lon="13.200115228750859"><ele>659.0</ele><time>2026-03-29T10:10:25Z</time></trkpt><trkpt lat="38.040904578262776" lon="13.200047819252994"><ele>659.0</ele><time>2026-03-29T10:10:26Z</time></trkpt><trkpt lat="38.04084738701608" lon="13.199975239010316"><ele>659.0</ele><time>2026-03-29T10:10:27Z</time></trkpt><trkpt lat="38.04079071509597" lon="13.199897124836442"><ele>659.0</ele><time>2026-03-29T10:10:28Z</time></trkpt><trkpt lat="38.04075466496363" lon="13.199815371816902"><ele>659.0</ele><time>2026-03-29T10:10:29Z</time></trkpt><trkpt lat="38.04074486329783" lon="13.199731565775782"><ele>659.0</ele><time>2026-03-29T10:10:30Z</time></trkpt><trkpt lat="38.04076937548144" lon="13.199648053606465"><ele>659.0</ele><time>2026-03-29T10:10:31Z</time></trkpt><trkpt lat="38.040819750627314" lon="13.199568347416095"><ele>659.0</ele><time>2026-03-29T10:10:32Z</time></trkpt><trkpt lat="38.04089941383009" lon="13.199510200472663"><ele>659.0</ele><time>2026-03-29T10:10:33Z</time></trkpt><trkpt lat="38.04100709761991" lon="13.199509661031223"><ele>659.0</ele><time>2026-03-29T10:10:34Z</time></trkpt><trkpt lat="38.04110780703318" lon="13.199531445187706"><ele>659.0</ele><time>2026-03-29T10:10:35Z</time></trkpt><trkpt lat="38.041225851210115" lon="13.199571150315743"><ele>659.0</ele><time>2026-03-29T10:10:36Z</time></trkpt><trkpt lat="38.04135707430536" lon="13.19961092386854"><ele>659.0</ele><time>2026-03-29T10:10:37Z</time></trkpt><trkpt lat="38.04149361154843" lon="13.199622580912445"><ele>659.0</ele><time>2026-03-29T10:10:38Z</time></trkpt><trkpt lat="38.041631949613965" lon="13.19958983226877"><ele>659.0</ele><time>2026-03-29T10:10:39Z</time></trkpt><trkpt lat="38.04178211026456" lon="13.199528673311027"><ele>656.6666666666666</ele><time>2026-03-29T10:10:40Z</time></trkpt><trkpt lat="38.04195557005694" lon="13.199488605434379"><ele>654.3333333333334</ele><time>2026-03-29T10:10:41Z</time></trkpt><trkpt lat="38.042155309173864" lon="13.199488389322504"><ele>652.0</ele><time>2026-03-29T10:10:42Z</time></trkpt><trkpt lat="38.04235884143191" lon="13.199497961800258"><ele>651.6666666666667</ele><time>2026-03-29T10:10:43Z</time></trkpt><trkpt lat="38.04257267644298" lon="13.19951841215328"><ele>651.3333333333334</ele><time>2026-03-29T10:10:44Z</time></trkpt><trkpt lat="38.04278234881272" lon="13.199539812576539"><ele>651.0</ele><time>2026-03-29T10:10:45Z</time></trkpt><trkpt lat="38.042968741433384" lon="13.199557409866234"><ele>651.0</ele><time>2026-03-29T10:10:46Z</time></trkpt><trkpt lat="38.04314473019168" lon="13.19956773400474"><ele>651.0</ele><time>2026-03-29T10:10:47Z</time></trkpt><trkpt lat="38.04329449059174" lon="13.199567112256775"><ele>651.0</ele><time>2026-03-29T10:10:48Z</time></trkpt><trkpt lat="38.043441293303324" lon="13.199525508756484"><ele>650.0</ele><time>2026-03-29T10:10:49Z</time></trkpt><trkpt lat="38.04359787943052" lon="13.199429630219429"><ele>649.0</ele><time>2026-03-29T10:10:50Z</time></trkpt><trkpt lat="38.043758913325256" lon="13.199319095345826"><ele>648.0</ele><time>2026-03-29T10:10:51Z</time></trkpt><trkpt lat="38.04392542755196" lon="13.199202714286363"><ele>648.0</ele><time>2026-03-29T10:10:52Z</time></trkpt><trkpt lat="38.04408961789262" lon="13.199102777195815"><ele>648.0</ele><time>2026-03-29T10:10:53Z</time></trkpt><trkpt lat="38.04424509847509" lon="13.199031747036791"><ele>648.0</ele><time>2026-03-29T10:10:54Z</time></trkpt><trkpt lat="38.044402725991056" lon="13.198978977370315"><ele>652.3333333333334</ele><time>2026-03-29T10:10:55Z</time></trkpt><trkpt lat="38.04456557212515" lon="13.198944197709288"><ele>656.6666666666667</ele><time>2026-03-29T10:10:56Z</time></trkpt><trkpt lat="38.0447358278592" lon="13.198917687117788"><ele>661.0</ele><time>2026-03-29T10:10:57Z</time></trkpt><trkpt lat="38.044914273853394" lon="13.198872987890956"><ele>657.3333333333334</ele><time>2026-03-29T10:10:58Z</time></trkpt><trkpt lat="38.04509975179021" lon="13.198812152535426"><ele>653.6666666666666</ele><time>2026-03-29T10:10:59Z</time></trkpt><trkpt lat="38.0452698231775" lon="13.198749840664105"><ele>650.0</ele><time>2026-03-29T10:11:00Z</time></trkpt><trkpt lat="38.04542820720017" lon="13.198692990832669"><ele>650.0</ele><time>2026-03-29T10:11:01Z</time></trkpt><trkpt lat="38.0455784780912" lon="13.198636996770805"><ele>650.0</ele><time>2026-03-29T10:11:02Z</time></trkpt><trkpt lat="38.045715011674574" lon="13.198577633322632"><ele>650.0</ele><time>2026-03-29T10:11:03Z</time></trkpt><trkpt lat="38.04583225918594" lon="13.198480051596183"><ele>650.0</ele><time>2026-03-29T10:11:04Z</time></trkpt><trkpt lat="38.04592576721274" lon="13.198342658925624"><ele>649.5</ele><time>2026-03-29T10:11:05Z</time></trkpt><trkpt lat="38.04599936383565" lon="13.198173558885282"><ele>649.0</ele><time>2026-03-29T10:11:06Z</time></trkpt><trkpt lat="38.04606863398833" lon="13.198028971460184"><ele>648.5</ele><time>2026-03-29T10:11:07Z</time></trkpt><trkpt lat="38.04617735665341" lon="13.197920421151974"><ele>648.0</ele><time>2026-03-29T10:11:08Z</time></trkpt><trkpt lat="38.04630818864946" lon="13.197865007284122"><ele>648.0</ele><time>2026-03-29T10:11:09Z</time></trkpt><trkpt lat="38.046462494015415" lon="13.197861504727188"><ele>648.0</ele><time>2026-03-29T10:11:10Z</time></trkpt><trkpt lat="38.04662840476611" lon="13.19783853816785"><ele>648.0</ele><time>2026-03-29T10:11:11Z</time></trkpt><trkpt lat="38.046794984402624" lon="13.197806199348339"><ele>642.6666666666666</ele><time>2026-03-29T10:11:12Z</time></trkpt><trkpt lat="38.04696756166752" lon="13.197799103147815"><ele>637.3333333333333</ele><time>2026-03-29T10:11:13Z</time></trkpt><trkpt lat="38.047126690991995" lon="13.197808191739925"><ele>632.0</ele><time>2026-03-29T10:11:14Z</time></trkpt><trkpt lat="38.047272352519315" lon="13.197834083397073"><ele>632.0</ele><time>2026-03-29T10:11:15Z</time></trkpt><trkpt lat="38.047415903430974" lon="13.197873646258317"><ele>632.0</ele><time>2026-03-29T10:11:16Z</time></trkpt><trkpt lat="38.04754406327056" lon="13.197917830944228"><ele>632.0</ele><time>2026-03-29T10:11:17Z</time></trkpt><trkpt lat="38.047663815018325" lon="13.197954872196998"><ele>632.0</ele><time>2026-03-29T10:11:18Z</time></trkpt><trkpt lat="38.047778568435184" lon="13.197973881138266"><ele>631.0</ele><time>2026-03-29T10:11:19Z</time></trkpt><trkpt lat="38.04789019190559" lon="13.19796608674811"><ele>630.0</ele><time>2026-03-29T10:11:20Z</time></trkpt><trkpt lat="38.04799417994929" lon="13.19792829273402"><ele>629.0</ele><time>2026-03-29T10:11:21Z</time></trkpt><trkpt lat="38.04808195737922" lon="13.197884531351534"><ele>628.0</ele><time>2026-03-29T10:11:22Z</time></trkpt><trkpt lat="38.04816870692833" lon="13.197852094780021"><ele>627.0</ele><time>2026-03-29T10:11:23Z</time></trkpt><trkpt lat="38.04824672612152" lon="13.197823309860894"><ele>624.8000000000001</ele><time>2026-03-29T10:11:24Z</time></trkpt><trkpt lat="38.04831913448442" lon="13.197809877559507"><ele>622.6</ele><time>2026-03-29T10:11:25Z</time></trkpt><trkpt lat="38.04842158846117" lon="13.197819447568282"><ele>620.4000000000001</ele><time>2026-03-29T10:11:27Z</time></trkpt><trkpt lat="38.04841079321179" lon="13.197935549008188"><ele>618.2</ele><time>2026-03-29T10:11:29Z</time></trkpt><trkpt lat="38.048447264036184" lon="13.198055326302812"><ele>616.0</ele><time>2026-03-29T10:11:31Z</time></trkpt><trkpt lat="38.0484582195201" lon="13.198159104899233"><ele>613.5</ele><time>2026-03-29T10:11:32Z</time></trkpt><trkpt lat="38.04847317418234" lon="13.198286755681302"><ele>611.0</ele><time>2026-03-29T10:11:33Z</time></trkpt><trkpt lat="38.048509295052824" lon="13.198418536055033"><ele>608.5</ele><time>2026-03-29T10:11:34Z</time></trkpt><trkpt lat="38.048577246517745" lon="13.198542354302392"><ele>606.0</ele><time>2026-03-29T10:11:35Z</time></trkpt><trkpt lat="38.04866435183108" lon="13.198652058166168"><ele>606.0</ele><time>2026-03-29T10:11:36Z</time></trkpt><trkpt lat="38.048730438099525" lon="13.198772644779929"><ele>606.0</ele><time>2026-03-29T10:11:37Z</time></trkpt><trkpt lat="38.04875715218563" lon="13.198897288030004"><ele>606.0</ele><time>2026-03-29T10:11:38Z</time></trkpt><trkpt lat="38.048805023016264" lon="13.19898970811971"><ele>606.0</ele><time>2026-03-29T10:11:39Z</time></trkpt><trkpt lat="38.04888678264891" lon="13.199028705371571"><ele>606.0</ele><time>2026-03-29T10:11:40Z</time></trkpt><trkpt lat="38.048984520110444" lon="13.199037844425206"><ele>605.5</ele><time>2026-03-29T10:11:41Z</time></trkpt><trkpt lat="38.04909221037307" lon="13.199012769134336"><ele>605.0</ele><time>2026-03-29T10:11:42Z</time></trkpt><trkpt lat="38.0491941541086" lon="13.198950967386518"><ele>604.5</ele><time>2026-03-29T10:11:43Z</time></trkpt><trkpt lat="38.049294781256066" lon="13.19888731427489"><ele>604.0</ele><time>2026-03-29T10:11:44Z</time></trkpt><trkpt lat="38.04941162517993" lon="13.198877506437455"><ele>604.0</ele><time>2026-03-29T10:11:45Z</time></trkpt><trkpt lat="38.0495237299741" lon="13.198850644605665"><ele>604.0</ele><time>2026-03-29T10:11:46Z</time></trkpt><trkpt lat="38.049624843032404" lon="13.198826847457772"><ele>604.0</ele><time>2026-03-29T10:11:47Z</time></trkpt><trkpt lat="38.0497203487308" lon="13.198807844775445"><ele>604.0</ele><time>2026-03-29T10:11:48Z</time></trkpt><trkpt lat="38.04981847127986" lon="13.198775036195585"><ele>604.0</ele><time>2026-03-29T10:11:49Z</time></trkpt><trkpt lat="38.049920216041954" lon="13.198769265412016"><ele>606.2</ele><time>2026-03-29T10:11:50Z</time></trkpt><trkpt lat="38.050019190652165" lon="13.198783080723604"><ele>608.4</ele><time>2026-03-29T10:11:51Z</time></trkpt><trkpt lat="38.050116901302886" lon="13.198804779741456"><ele>610.6</ele><time>2026-03-29T10:11:52Z</time></trkpt><trkpt lat="38.050220032667234" lon="13.198830548687887"><ele>612.8</ele><time>2026-03-29T10:11:53Z</time></trkpt><trkpt lat="38.05030803248215" lon="13.198899846699474"><ele>615.0</ele><time>2026-03-29T10:11:54Z</time></trkpt><trkpt lat="38.0504036982155" lon="13.19896055615367"><ele>616.25</ele><time>2026-03-29T10:11:55Z</time></trkpt><trkpt lat="38.05048976210741" lon="13.199052975172224"><ele>617.5</ele><time>2026-03-29T10:11:56Z</time></trkpt><trkpt lat="38.05058307505653" lon="13.199147515561236"><ele>618.75</ele><time>2026-03-29T10:11:57Z</time></trkpt><trkpt lat="38.050680340895184" lon="13.199251253656167"><ele>620.0</ele><time>2026-03-29T10:11:58Z</time></trkpt><trkpt lat="38.050780867533526" lon="13.199377754578695"><ele>621.25</ele><time>2026-03-29T10:11:59Z</time></trkpt><trkpt lat="38.05087640987929" lon="13.199505759492501"><ele>622.5</ele><time>2026-03-29T10:12:00Z</time></trkpt><trkpt lat="38.05098488402144" lon="13.199629623237811"><ele>623.75</ele><time>2026-03-29T10:12:01Z</time></trkpt><trkpt lat="38.05109470661921" lon="13.199741595496445"><ele>625.0</ele><time>2026-03-29T10:12:02Z</time></trkpt><trkpt lat="38.05121231981086" lon="13.199825342399164"><ele>626.75</ele><time>2026-03-29T10:12:03Z</time></trkpt><trkpt lat="38.05133592558811" lon="13.199900234061287"><ele>628.5</ele><time>2026-03-29T10:12:04Z</time></trkpt><trkpt lat="38.05146089991681" lon="13.1999595847903"><ele>630.25</ele><time>2026-03-29T10:12:05Z</time></trkpt><trkpt lat="38.05159354740851" lon="13.199984741912246"><ele>632.0</ele><time>2026-03-29T10:12:06Z</time></trkpt><trkpt lat="38.05172560013147" lon="13.199988340372432"><ele>632.0</ele><time>2026-03-29T10:12:07Z</time></trkpt><trkpt lat="38.051861530502634" lon="13.199981511457569"><ele>632.0</ele><time>2026-03-29T10:12:08Z</time></trkpt><trkpt lat="38.05200174209462" lon="13.199980322442359"><ele>632.0</ele><time>2026-03-29T10:12:09Z</time></trkpt><trkpt lat="38.05214584517678" lon="13.199987378483957"><ele>632.0</ele><time>2026-03-29T10:12:10Z</time></trkpt><trkpt lat="38.052276862889094" lon="13.200017193174848"><ele>632.0</ele><time>2026-03-29T10:12:11Z</time></trkpt><trkpt lat="38.05240137159396" lon="13.20008014891079"><ele>632.0</ele><time>2026-03-29T10:12:12Z</time></trkpt><trkpt lat="38.052524649698654" lon="13.200158845107223"><ele>632.0</ele><time>2026-03-29T10:12:13Z</time></trkpt><trkpt lat="38.05265265636149" lon="13.20023723562146"><ele>632.0</ele><time>2026-03-29T10:12:14Z</time></trkpt><trkpt lat="38.05278895195666" lon="13.200305842293364"><ele>634.75</ele><time>2026-03-29T10:12:15Z</time></trkpt><trkpt lat="38.052921218974056" lon="13.200352837765053"><ele>637.5</ele><time>2026-03-29T10:12:16Z</time></trkpt><trkpt lat="38.053047324022046" lon="13.200388718086808"><ele>640.25</ele><time>2026-03-29T10:12:17Z</time></trkpt><trkpt lat="38.053160556015456" lon="13.200428420471649"><ele>643.0</ele><time>2026-03-29T10:12:18Z</time></trkpt><trkpt lat="38.05326213942733" lon="13.200489883845753"><ele>643.0</ele><time>2026-03-29T10:12:19Z</time></trkpt><trkpt lat="38.05339991722979" lon="13.200532218607092"><ele>643.0</ele><time>2026-03-29T10:12:20Z</time></trkpt><trkpt lat="38.0535458895046" lon="13.200570814873203"><ele>643.0</ele><time>2026-03-29T10:12:21Z</time></trkpt><trkpt lat="38.0536889867166" lon="13.200623636317962"><ele>643.0</ele><time>2026-03-29T10:12:22Z</time></trkpt><trkpt lat="38.0538348216415" lon="13.20066879400573"><ele>643.0</ele><time>2026-03-29T10:12:23Z</time></trkpt><trkpt lat="38.05396652434507" lon="13.200732265931075"><ele>643.0</ele><time>2026-03-29T10:12:24Z</time></trkpt><trkpt lat="38.05408134265166" lon="13.200774591767923"><ele>643.0</ele><time>2026-03-29T10:12:25Z</time></trkpt><trkpt lat="38.05419039101362" lon="13.200809694275428"><ele>643.0</ele><time>2026-03-29T10:12:26Z</time></trkpt><trkpt lat="38.05429561630485" lon="13.200818391613343"><ele>643.75</ele><time>2026-03-29T10:12:27Z</time></trkpt><trkpt lat="38.054395211024996" lon="13.20078200033611"><ele>644.5</ele><time>2026-03-29T10:12:28Z</time></trkpt><trkpt lat="38.05448773494651" lon="13.200707334752263"><ele>645.25</ele><time>2026-03-29T10:12:29Z</time></trkpt><trkpt lat="38.054588212863266" lon="13.200617465172309"><ele>646.0</ele><time>2026-03-29T10:12:30Z</time></trkpt><trkpt lat="38.054681226778314" lon="13.20052626807736"><ele>647.25</ele><time>2026-03-29T10:12:31Z</time></trkpt><trkpt lat="38.05479672603011" lon="13.200434563075591"><ele>648.5</ele><time>2026-03-29T10:12:32Z</time></trkpt><trkpt lat="38.05490548397796" lon="13.200343024875739"><ele>649.75</ele><time>2026-03-29T10:12:33Z</time></trkpt><trkpt lat="38.05500516968479" lon="13.200247346589505"><ele>651.0</ele><time>2026-03-29T10:12:34Z</time></trkpt><trkpt lat="38.0550994442986" lon="13.200156341025904"><ele>651.0</ele><time>2026-03-29T10:12:35Z</time></trkpt><trkpt lat="38.055176012620755" lon="13.200051671354313"><ele>651.0</ele><time>2026-03-29T10:12:36Z</time></trkpt><trkpt lat="38.05525192502255" lon="13.1999307004606"><ele>651.0</ele><time>2026-03-29T10:12:37Z</time></trkpt><trkpt lat="38.05531413973083" lon="13.199793290656201"><ele>651.0</ele><time>2026-03-29T10:12:38Z</time></trkpt><trkpt lat="38.05537105199229" lon="13.199642702684782"><ele>653.0</ele><time>2026-03-29T10:12:39Z</time></trkpt><trkpt lat="38.055429043522636" lon="13.199518755777707"><ele>655.0</ele><time>2026-03-29T10:12:40Z</time></trkpt><trkpt lat="38.05548077161535" lon="13.199410562246417"><ele>657.0</ele><time>2026-03-29T10:12:41Z</time></trkpt><trkpt lat="38.05553956514225" lon="13.199320171104944"><ele>659.0</ele><time>2026-03-29T10:12:42Z</time></trkpt><trkpt lat="38.055613871391984" lon="13.199262548444036"><ele>661.0</ele><time>2026-03-29T10:12:43Z</time></trkpt><trkpt lat="38.05569926811194" lon="13.199237009699265"><ele>657.25</ele><time>2026-03-29T10:12:44Z</time></trkpt><trkpt lat="38.05580021300938" lon="13.199252414193055"><ele>653.5</ele><time>2026-03-29T10:12:45Z</time></trkpt><trkpt lat="38.05591465657245" lon="13.199244290770224"><ele>649.75</ele><time>2026-03-29T10:12:46Z</time></trkpt><trkpt lat="38.05604077716911" lon="13.199224989033006"><ele>646.0</ele><time>2026-03-29T10:12:47Z</time></trkpt><trkpt lat="38.05616265068094" lon="13.199208446734824"><ele>646.0</ele><time>2026-03-29T10:12:48Z</time></trkpt><trkpt lat="38.05627055893151" lon="13.199213160164051"><ele>646.0</ele><time>2026-03-29T10:12:49Z</time></trkpt><trkpt lat="38.05636664839488" lon="13.199231685372476"><ele>646.0</ele><time>2026-03-29T10:12:50Z</time></trkpt><trkpt lat="38.05644787077399" lon="13.199275049320075"><ele>646.0</ele><time>2026-03-29T10:12:51Z</time></trkpt><trkpt lat="38.056513164614046" lon="13.199335980303282"><ele>646.0</ele><time>2026-03-29T10:12:52Z</time></trkpt><trkpt lat="38.05657876791914" lon="13.199405327146522"><ele>643.8333333333334</ele><time>2026-03-29T10:12:53Z</time></trkpt><trkpt lat="38.0566407328905" lon="13.19947199988889"><ele>641.6666666666667</ele><time>2026-03-29T10:12:54Z</time></trkpt><trkpt lat="38.056711997469876" lon="13.199534391337435"><ele>639.5</ele><time>2026-03-29T10:12:55Z</time></trkpt><trkpt lat="38.056772367313236" lon="13.199590789590076"><ele>637.3333333333334</ele><time>2026-03-29T10:12:56Z</time></trkpt><trkpt lat="38.05683725215835" lon="13.199650555191191"><ele>635.1666666666666</ele><time>2026-03-29T10:12:57Z</time></trkpt><trkpt lat="38.05687156924482" lon="13.199725927215265"><ele>633.0</ele><time>2026-03-29T10:12:58Z</time></trkpt><trkpt lat="38.05692001805886" lon="13.199795883561666"><ele>635.6666666666666</ele><time>2026-03-29T10:12:59Z</time></trkpt><trkpt lat="38.05694450540127" lon="13.199881295443676"><ele>638.3333333333334</ele><time>2026-03-29T10:13:00Z</time></trkpt><trkpt lat="38.056968933523294" lon="13.199977462812916"><ele>641.0</ele><time>2026-03-29T10:13:01Z</time></trkpt><trkpt lat="38.05699030966744" lon="13.200085019008904"><ele>643.6666666666667</ele><time>2026-03-29T10:13:02Z</time></trkpt><trkpt lat="38.057012352984344" lon="13.200181817862282"><ele>646.3333333333334</ele><time>2026-03-29T10:13:03Z</time></trkpt><trkpt lat="38.05703472736281" lon="13.200291280171765"><ele>649.0</ele><time>2026-03-29T10:13:04Z</time></trkpt><trkpt lat="38.05706485757562" lon="13.200408709431226"><ele>649.0</ele><time>2026-03-29T10:13:05Z</time></trkpt><trkpt lat="38.057096044117394" lon="13.200529623200433"><ele>649.0</ele><time>2026-03-29T10:13:06Z</time></trkpt><trkpt lat="38.057127644471855" lon="13.200665059876636"><ele>649.0</ele><time>2026-03-29T10:13:07Z</time></trkpt><trkpt lat="38.05718089697534" lon="13.200787490623803"><ele>649.0</ele><time>2026-03-29T10:13:08Z</time></trkpt><trkpt lat="38.05725370520616" lon="13.200887202329971"><ele>649.0</ele><time>2026-03-29T10:13:09Z</time></trkpt><trkpt lat="38.057338774778394" lon="13.200965466688421"><ele>646.75</ele><time>2026-03-29T10:13:10Z</time></trkpt><trkpt lat="38.05743887136864" lon="13.201032207815443"><ele>644.5</ele><time>2026-03-29T10:13:11Z</time></trkpt><trkpt lat="38.057542164946845" lon="13.201100628658557"><ele>642.25</ele><time>2026-03-29T10:13:12Z</time></trkpt><trkpt lat="38.057641851185906" lon="13.20118214083799"><ele>640.0</ele><time>2026-03-29T10:13:13Z</time></trkpt><trkpt lat="38.05774314888448" lon="13.201265089948171"><ele>640.0</ele><time>2026-03-29T10:13:14Z</time></trkpt><trkpt lat="38.05784446256968" lon="13.201351804376454"><ele>640.0</ele><time>2026-03-29T10:13:15Z</time></trkpt><trkpt lat="38.057949522824686" lon="13.20143817768012"><ele>640.0</ele><time>2026-03-29T10:13:16Z</time></trkpt><trkpt lat="38.0580468618974" lon="13.201518546494219"><ele>640.0</ele><time>2026-03-29T10:13:17Z</time></trkpt><trkpt lat="38.05814634154773" lon="13.201598342332748"><ele>641.8</ele><time>2026-03-29T10:13:18Z</time></trkpt><trkpt lat="38.058235134075254" lon="13.20167726202241"><ele>643.6</ele><time>2026-03-29T10:13:19Z</time></trkpt><trkpt lat="38.05831486679079" lon="13.201764079047495"><ele>645.4000000000001</ele><time>2026-03-29T10:13:20Z</time></trkpt><trkpt lat="38.058409372971234" lon="13.201834350461182"><ele>647.2</ele><time>2026-03-29T10:13:21Z</time></trkpt><trkpt lat="38.05847833791289" lon="13.201873708059082"><ele>649.0</ele><time>2026-03-29T10:13:22Z</time></trkpt><trkpt lat="38.05855850062921" lon="13.201889289578242"><ele>649.0</ele><time>2026-03-29T10:13:23Z</time></trkpt><trkpt lat="38.05862219878395" lon="13.201875661135"><ele>649.0</ele><time>2026-03-29T10:13:24Z</time></trkpt><trkpt lat="38.058680230213035" lon="13.201812052096608"><ele>649.0</ele><time>2026-03-29T10:13:25Z</time></trkpt><trkpt lat="38.05871379675201" lon="13.201718427798745"><ele>649.0</ele><time>2026-03-29T10:13:26Z</time></trkpt><trkpt lat="38.05873708503222" lon="13.201629600000043"><ele>649.0</ele><time>2026-03-29T10:13:27Z</time></trkpt><trkpt lat="38.05874281001107" lon="13.201503539253961"><ele>649.0</ele><time>2026-03-29T10:13:28Z</time></trkpt><trkpt lat="38.058742672249025" lon="13.201380088298295"><ele>646.2</ele><time>2026-03-29T10:13:29Z</time></trkpt><trkpt lat="38.05873809004088" lon="13.201258568651316"><ele>643.4000000000001</ele><time>2026-03-29T10:13:30Z</time></trkpt><trkpt lat="38.05873930062102" lon="13.201135872611355"><ele>640.6</ele><time>2026-03-29T10:13:31Z</time></trkpt><trkpt lat="38.05874130485704" lon="13.201016061421502"><ele>637.8</ele><time>2026-03-29T10:13:32Z</time></trkpt><trkpt lat="38.05874289651689" lon="13.200896897065427"><ele>635.0</ele><time>2026-03-29T10:13:33Z</time></trkpt><trkpt lat="38.058747088833044" lon="13.200776237854532"><ele>635.0</ele><time>2026-03-29T10:13:34Z</time></trkpt><trkpt lat="38.05876807994951" lon="13.200667270883734"><ele>635.0</ele><time>2026-03-29T10:13:35Z</time></trkpt><trkpt lat="38.05881466445137" lon="13.200571994364623"><ele>635.0</ele><time>2026-03-29T10:13:36Z</time></trkpt><trkpt lat="38.058877005012945" lon="13.200474027482073"><ele>635.0</ele><time>2026-03-29T10:13:37Z</time></trkpt><trkpt lat="38.05894692284872" lon="13.200383051122685"><ele>635.0</ele><time>2026-03-29T10:13:38Z</time></trkpt><trkpt lat="38.05903223313641" lon="13.200267293699975"><ele>635.5</ele><time>2026-03-29T10:13:39Z</time></trkpt><trkpt lat="38.0591218290992" lon="13.20015088951163"><ele>636.0</ele><time>2026-03-29T10:13:40Z</time></trkpt><trkpt lat="38.05920741554454" lon="13.200037121238585"><ele>636.5</ele><time>2026-03-29T10:13:41Z</time></trkpt><trkpt lat="38.0592866435368" lon="13.199930065742473"><ele>637.0</ele><time>2026-03-29T10:13:42Z</time></trkpt><trkpt lat="38.05936168064743" lon="13.199820322362557"><ele>634.8000000000001</ele><time>2026-03-29T10:13:43Z</time></trkpt><trkpt lat="38.05944086975739" lon="13.19971733580765"><ele>632.6</ele><time>2026-03-29T10:13:44Z</time></trkpt><trkpt lat="38.05952604245115" lon="13.199632917960963"><ele>630.4000000000001</ele><time>2026-03-29T10:13:45Z</time></trkpt><trkpt lat="38.059627380193994" lon="13.199571593579938"><ele>628.2</ele><time>2026-03-29T10:13:46Z</time></trkpt><trkpt lat="38.059735584940626" lon="13.199525439458851"><ele>626.0</ele><time>2026-03-29T10:13:47Z</time></trkpt><trkpt lat="38.05984548225356" lon="13.19949482034276"><ele>627.0</ele><time>2026-03-29T10:13:48Z</time></trkpt><trkpt lat="38.05995745276002" lon="13.199458272395427"><ele>628.0</ele><time>2026-03-29T10:13:49Z</time></trkpt><trkpt lat="38.060067183674164" lon="13.199428348344927"><ele>629.0</ele><time>2026-03-29T10:13:50Z</time></trkpt><trkpt lat="38.06017165128416" lon="13.199407574671943"><ele>630.0</ele><time>2026-03-29T10:13:51Z</time></trkpt><trkpt lat="38.06027838595905" lon="13.199380306895161"><ele>631.0</ele><time>2026-03-29T10:13:52Z</time></trkpt><trkpt lat="38.06038914442322" lon="13.199362200317386"><ele>631.0</ele><time>2026-03-29T10:13:53Z</time></trkpt><trkpt lat="38.060493853365706" lon="13.19935674185093"><ele>631.0</ele><time>2026-03-29T10:13:54Z</time></trkpt><trkpt lat="38.06059726736792" lon="13.199364279554485"><ele>631.0</ele><time>2026-03-29T10:13:55Z</time></trkpt><trkpt lat="38.06069714925066" lon="13.199384225045527"><ele>631.0</ele><time>2026-03-29T10:13:56Z</time></trkpt><trkpt lat="38.0607945600841" lon="13.19942421442251"><ele>631.0</ele><time>2026-03-29T10:13:57Z</time></trkpt><trkpt lat="38.06090008061453" lon="13.199463708956984"><ele>630.3333333333334</ele><time>2026-03-29T10:13:58Z</time></trkpt><trkpt lat="38.06099758999552" lon="13.199484821708266"><ele>629.6666666666667</ele><time>2026-03-29T10:13:59Z</time></trkpt><trkpt lat="38.06108919064447" lon="13.19948992764591"><ele>629.0</ele><time>2026-03-29T10:14:00Z</time></trkpt><trkpt lat="38.061172867394056" lon="13.199469314771669"><ele>628.3333333333334</ele><time>2026-03-29T10:14:01Z</time></trkpt><trkpt lat="38.061243885245126" lon="13.199423928838291"><ele>627.6666666666666</ele><time>2026-03-29T10:14:02Z</time></trkpt><trkpt lat="38.061296318387896" lon="13.199348684369268"><ele>627.0</ele><time>2026-03-29T10:14:03Z</time></trkpt><trkpt lat="38.06132322818525" lon="13.19926131691327"><ele>627.0</ele><time>2026-03-29T10:14:04Z</time></trkpt><trkpt lat="38.06133766020209" lon="13.199160605372679"><ele>627.0</ele><time>2026-03-29T10:14:05Z</time></trkpt><trkpt lat="38.06134130804458" lon="13.199048418685189"><ele>627.0</ele><time>2026-03-29T10:14:06Z</time></trkpt><trkpt lat="38.06136139479273" lon="13.19892461236445"><ele>627.0</ele><time>2026-03-29T10:14:07Z</time></trkpt><trkpt lat="38.06140081442052" lon="13.198809354238817"><ele>627.0</ele><time>2026-03-29T10:14:08Z</time></trkpt><trkpt lat="38.06142979605931" lon="13.19868318087213"><ele>628.0</ele><time>2026-03-29T10:14:09Z</time></trkpt><trkpt lat="38.061466222358796" lon="13.19856021704646"><ele>629.0</ele><time>2026-03-29T10:14:10Z</time></trkpt><trkpt lat="38.06150410170756" lon="13.198432060282787"><ele>630.0</ele><time>2026-03-29T10:14:11Z</time></trkpt><trkpt lat="38.06157474534172" lon="13.198309315579719"><ele>631.0</ele><time>2026-03-29T10:14:12Z</time></trkpt><trkpt lat="38.06165273341296" lon="13.198191870526754"><ele>628.25</ele><time>2026-03-29T10:14:13Z</time></trkpt><trkpt lat="38.06175627648566" lon="13.198111331152084"><ele>625.5</ele><time>2026-03-29T10:14:14Z</time></trkpt><trkpt lat="38.06185929177683" lon="13.198036241673488"><ele>622.75</ele><time>2026-03-29T10:14:15Z</time></trkpt><trkpt lat="38.06197049313951" lon="13.197959500639428"><ele>620.0</ele><time>2026-03-29T10:14:16Z</time></trkpt><trkpt lat="38.06208586460362" lon="13.197870325735723"><ele>620.0</ele><time>2026-03-29T10:14:17Z</time></trkpt><trkpt lat="38.062204470852215" lon="13.197789475529525"><ele>620.0</ele><time>2026-03-29T10:14:18Z</time></trkpt><trkpt lat="38.06232156088416" lon="13.197711723920964"><ele>620.0</ele><time>2026-03-29T10:14:19Z</time></trkpt><trkpt lat="38.062433626768374" lon="13.197647425217163"><ele>620.0</ele><time>2026-03-29T10:14:20Z</time></trkpt><trkpt lat="38.06254669677278" lon="13.197598669422353"><ele>622.0</ele><time>2026-03-29T10:14:21Z</time></trkpt><trkpt lat="38.06265639503878" lon="13.19757857307207"><ele>624.0</ele><time>2026-03-29T10:14:22Z</time></trkpt><trkpt lat="38.06277145772567" lon="13.197592801548945"><ele>626.0</ele><time>2026-03-29T10:14:23Z</time></trkpt><trkpt lat="38.062892487299656" lon="13.197615648374168"><ele>628.0</ele><time>2026-03-29T10:14:24Z</time></trkpt><trkpt lat="38.06302006660995" lon="13.197627357000947"><ele>628.0</ele><time>2026-03-29T10:14:25Z</time></trkpt><trkpt lat="38.06315006690263" lon="13.197648829886312"><ele>628.0</ele><time>2026-03-29T10:14:26Z</time></trkpt><trkpt lat="38.063287920181665" lon="13.197678544843216"><ele>628.0</ele><time>2026-03-29T10:14:27Z</time></trkpt><trkpt lat="38.06343313764956" lon="13.197700511309801"><ele>628.0</ele><time>2026-03-29T10:14:28Z</time></trkpt><trkpt lat="38.06357883599062" lon="13.197725570824714"><ele>627.3333333333334</ele><time>2026-03-29T10:14:29Z</time></trkpt><trkpt lat="38.06372879437696" lon="13.197757180333252"><ele>626.6666666666666</ele><time>2026-03-29T10:14:30Z</time></trkpt><trkpt lat="38.06387924485431" lon="13.197785894968467"><ele>626.0</ele><time>2026-03-29T10:14:31Z</time></trkpt><trkpt lat="38.06403280063609" lon="13.197809806661683"><ele>625.75</ele><time>2026-03-29T10:14:32Z</time></trkpt><trkpt lat="38.064186814412146" lon="13.197830468995637"><ele>625.5</ele><time>2026-03-29T10:14:33Z</time></trkpt><trkpt lat="38.06431712017912" lon="13.19785291285458"><ele>625.25</ele><time>2026-03-29T10:14:34Z</time></trkpt><trkpt lat="38.0644349324787" lon="13.19787448539916"><ele>625.0</ele><time>2026-03-29T10:14:35Z</time></trkpt><trkpt lat="38.06454643977973" lon="13.197903741451919"><ele>625.0</ele><time>2026-03-29T10:14:36Z</time></trkpt><trkpt lat="38.06464403130528" lon="13.197944739870664"><ele>625.0</ele><time>2026-03-29T10:14:37Z</time></trkpt><trkpt lat="38.06470957327519" lon="13.19803237547537"><ele>625.0</ele><time>2026-03-29T10:14:38Z</time></trkpt><trkpt lat="38.06478305052659" lon="13.198102056515646"><ele>625.0</ele><time>2026-03-29T10:14:39Z</time></trkpt><trkpt lat="38.06484505629537" lon="13.198196846691088"><ele>625.0</ele><time>2026-03-29T10:14:40Z</time></trkpt><trkpt lat="38.06491326961985" lon="13.198290036868979"><ele>625.6</ele><time>2026-03-29T10:14:41Z</time></trkpt><trkpt lat="38.06498691269202" lon="13.198383509930133"><ele>626.2</ele><time>2026-03-29T10:14:42Z</time></trkpt><trkpt lat="38.065065718935" lon="13.198480870984294"><ele>626.8</ele><time>2026-03-29T10:14:43Z</time></trkpt><trkpt lat="38.06514841053083" lon="13.19857741536158"><ele>627.4</ele><time>2026-03-29T10:14:44Z</time></trkpt><trkpt lat="38.06522148650633" lon="13.198677474520121"><ele>628.0</ele><time>2026-03-29T10:14:45Z</time></trkpt><trkpt lat="38.065284318096744" lon="13.198795363079386"><ele>628.0</ele><time>2026-03-29T10:14:46Z</time></trkpt><trkpt lat="38.06534115810039" lon="13.198919570898626"><ele>628.0</ele><time>2026-03-29T10:14:47Z</time></trkpt><trkpt lat="38.06540485124861" lon="13.199047216684878"><ele>628.0</ele><time>2026-03-29T10:14:48Z</time></trkpt><trkpt lat="38.06546932490407" lon="13.199172680710083"><ele>628.0</ele><time>2026-03-29T10:14:49Z</time></trkpt><trkpt lat="38.06553602088915" lon="13.199302443005951"><ele>627.75</ele><time>2026-03-29T10:14:50Z</time></trkpt><trkpt lat="38.065596013428284" lon="13.199438015750987"><ele>627.5</ele><time>2026-03-29T10:14:51Z</time></trkpt><trkpt lat="38.06565821408967" lon="13.199578154434379"><ele>627.25</ele><time>2026-03-29T10:14:52Z</time></trkpt><trkpt lat="38.065721800090294" lon="13.199717593714993"><ele>627.0</ele><time>2026-03-29T10:14:53Z</time></trkpt><trkpt lat="38.065781924013095" lon="13.19984778579486"><ele>627.0</ele><time>2026-03-29T10:14:54Z</time></trkpt><trkpt lat="38.06583599888118" lon="13.19996166588854"><ele>627.0</ele><time>2026-03-29T10:14:55Z</time></trkpt><trkpt lat="38.065897704566424" lon="13.200064206801226"><ele>627.0</ele><time>2026-03-29T10:14:56Z</time></trkpt><trkpt lat="38.065970661628455" lon="13.200158990641476"><ele>627.0</ele><time>2026-03-29T10:14:57Z</time></trkpt><trkpt lat="38.06606253095172" lon="13.200231249344164"><ele>627.0</ele><time>2026-03-29T10:14:58Z</time></trkpt><trkpt lat="38.066173214230204" lon="13.20028566430408"><ele>627.0</ele><time>2026-03-29T10:14:59Z</time></trkpt><trkpt lat="38.06629399240842" lon="13.20032117718942"><ele>627.0</ele><time>2026-03-29T10:15:00Z</time></trkpt><trkpt lat="38.0664227959484" lon="13.200331899596588"><ele>627.0</ele><time>2026-03-29T10:15:01Z</time></trkpt><trkpt lat="38.06655845410206" lon="13.200330159074447"><ele>627.0</ele><time>2026-03-29T10:15:02Z</time></trkpt><trkpt lat="38.06669590119419" lon="13.200326699305718"><ele>624.5</ele><time>2026-03-29T10:15:03Z</time></trkpt><trkpt lat="38.066840682140516" lon="13.200326083472962"><ele>622.0</ele><time>2026-03-29T10:15:04Z</time></trkpt><trkpt lat="38.066986520521134" lon="13.200327285418394"><ele>619.5</ele><time>2026-03-29T10:15:05Z</time></trkpt><trkpt lat="38.067135807208935" lon="13.200325322674408"><ele>617.0</ele><time>2026-03-29T10:15:06Z</time></trkpt><trkpt lat="38.06728573440523" lon="13.200317539888315"><ele>617.0</ele><time>2026-03-29T10:15:07Z</time></trkpt><trkpt lat="38.067430826906005" lon="13.200307687746193"><ele>617.0</ele><time>2026-03-29T10:15:08Z</time></trkpt><trkpt lat="38.06755689416249" lon="13.200292364865813"><ele>617.0</ele><time>2026-03-29T10:15:09Z</time></trkpt><trkpt lat="38.06767328256154" lon="13.200254177506583"><ele>617.0</ele><time>2026-03-29T10:15:10Z</time></trkpt><trkpt lat="38.06779710428194" lon="13.200189642950683"><ele>616.5</ele><time>2026-03-29T10:15:11Z</time></trkpt><trkpt lat="38.06792106571511" lon="13.200109098283969"><ele>616.0</ele><time>2026-03-29T10:15:12Z</time></trkpt><trkpt lat="38.06804914214269" lon="13.200023262345239"><ele>615.5</ele><time>2026-03-29T10:15:13Z</time></trkpt><trkpt lat="38.068182657820984" lon="13.199944236183851"><ele>615.0</ele><time>2026-03-29T10:15:14Z</time></trkpt><trkpt lat="38.068323474512034" lon="13.199863522735157"><ele>611.75</ele><time>2026-03-29T10:15:15Z</time></trkpt><trkpt lat="38.06845577001034" lon="13.19978622283605"><ele>608.5</ele><time>2026-03-29T10:15:16Z</time></trkpt><trkpt lat="38.068589829490136" lon="13.199704967447097"><ele>605.25</ele><time>2026-03-29T10:15:17Z</time></trkpt><trkpt lat="38.06872129290647" lon="13.199633405020807"><ele>602.0</ele><time>2026-03-29T10:15:18Z</time></trkpt><trkpt lat="38.06885298946611" lon="13.19956316880173"><ele>602.0</ele><time>2026-03-29T10:15:19Z</time></trkpt><trkpt lat="38.068987034316045" lon="13.199483461017955"><ele>602.0</ele><time>2026-03-29T10:15:20Z</time></trkpt><trkpt lat="38.06911993406514" lon="13.19940166294763"><ele>602.0</ele><time>2026-03-29T10:15:21Z</time></trkpt><trkpt lat="38.06924601516797" lon="13.199327433633355"><ele>602.0</ele><time>2026-03-29T10:15:22Z</time></trkpt><trkpt lat="38.06936627435459" lon="13.199246090250933"><ele>603.5</ele><time>2026-03-29T10:15:23Z</time></trkpt><trkpt lat="38.06948942109032" lon="13.199175137478147"><ele>605.0</ele><time>2026-03-29T10:15:24Z</time></trkpt><trkpt lat="38.069616537685576" lon="13.19910701000123"><ele>606.5</ele><time>2026-03-29T10:15:25Z</time></trkpt><trkpt lat="38.06973512060207" lon="13.199055598459271"><ele>608.0</ele><time>2026-03-29T10:15:26Z</time></trkpt><trkpt lat="38.06984893721551" lon="13.19903242994729"><ele>609.0</ele><time>2026-03-29T10:15:27Z</time></trkpt><trkpt lat="38.06996315455905" lon="13.19907343735683"><ele>610.0</ele><time>2026-03-29T10:15:28Z</time></trkpt><trkpt lat="38.07007191108498" lon="13.19911973107159"><ele>611.0</ele><time>2026-03-29T10:15:29Z</time></trkpt><trkpt lat="38.07018240659608" lon="13.199151820710705"><ele>612.0</ele><time>2026-03-29T10:15:30Z</time></trkpt><trkpt lat="38.07028182347259" lon="13.199165736035605"><ele>613.0</ele><time>2026-03-29T10:15:31Z</time></trkpt><trkpt lat="38.07036252787685" lon="13.199179466093375"><ele>613.0</ele><time>2026-03-29T10:15:32Z</time></trkpt><trkpt lat="38.070425627547785" lon="13.199162852765635"><ele>613.0</ele><time>2026-03-29T10:15:33Z</time></trkpt><trkpt lat="38.07053041217545" lon="13.199115351426999"><ele>613.0</ele><time>2026-03-29T10:15:35Z</time></trkpt><trkpt lat="38.07041203740799" lon="13.198930252137217"><ele>613.0</ele><time>2026-03-29T10:15:39Z</time></trkpt><trkpt lat="38.07032943394359" lon="13.198906758965189"><ele>613.0</ele><time>2026-03-29T10:15:40Z</time></trkpt><trkpt lat="38.070215806096094" lon="13.198865367370926"><ele>609.75</ele><time>2026-03-29T10:15:41Z</time></trkpt><trkpt lat="38.070103119606465" lon="13.198810018498326"><ele>606.5</ele><time>2026-03-29T10:15:42Z</time></trkpt><trkpt lat="38.06997247664466" lon="13.198755317581096"><ele>603.25</ele><time>2026-03-29T10:15:43Z</time></trkpt><trkpt lat="38.06985772118748" lon="13.19870793821634"><ele>600.0</ele><time>2026-03-29T10:15:44Z</time></trkpt><trkpt lat="38.06975526867708" lon="13.198668359751016"><ele>598.2</ele><time>2026-03-29T10:15:45Z</time></trkpt><trkpt lat="38.06966255469691" lon="13.198618047095996"><ele>596.4</ele><time>2026-03-29T10:15:46Z</time></trkpt><trkpt lat="38.06959236581341" lon="13.19853957370339"><ele>594.6</ele><time>2026-03-29T10:15:47Z</time></trkpt><trkpt lat="38.06956791592247" lon="13.198437223127902"><ele>592.8</ele><time>2026-03-29T10:15:48Z</time></trkpt><trkpt lat="38.06957653189477" lon="13.198315648203653"><ele>591.0</ele><time>2026-03-29T10:15:49Z</time></trkpt><trkpt lat="38.06963549769449" lon="13.19819990324365"><ele>589.0</ele><time>2026-03-29T10:15:50Z</time></trkpt><trkpt lat="38.0697065790105" lon="13.19809462015866"><ele>587.0</ele><time>2026-03-29T10:15:51Z</time></trkpt><trkpt lat="38.06976736162112" lon="13.197979895894099"><ele>585.0</ele><time>2026-03-29T10:15:52Z</time></trkpt><trkpt lat="38.069801684716886" lon="13.19786034357202"><ele>583.0</ele><time>2026-03-29T10:15:53Z</time></trkpt><trkpt lat="38.06979083259049" lon="13.19773380464126"><ele>581.0</ele><time>2026-03-29T10:15:54Z</time></trkpt><trkpt lat="38.069723181439265" lon="13.197629063064076"><ele>581.0</ele><time>2026-03-29T10:15:55Z</time></trkpt><trkpt lat="38.0696642013745" lon="13.197540525041026"><ele>581.0</ele><time>2026-03-29T10:15:56Z</time></trkpt><trkpt lat="38.069560424403306" lon="13.197525918210225"><ele>581.0</ele><time>2026-03-29T10:15:57Z</time></trkpt><trkpt lat="38.06946395344545" lon="13.197536484912494"><ele>581.0</ele><time>2026-03-29T10:15:58Z</time></trkpt><trkpt lat="38.069372626017376" lon="13.197591904767902"><ele>581.0</ele><time>2026-03-29T10:15:59Z</time></trkpt><trkpt lat="38.0693079053529" lon="13.19769285471544"><ele>581.0</ele><time>2026-03-29T10:16:00Z</time></trkpt><trkpt lat="38.06925428221751" lon="13.197818896262978"><ele>581.0</ele><time>2026-03-29T10:16:01Z</time></trkpt><trkpt lat="38.06919627481531" lon="13.197925689939305"><ele>581.0</ele><time>2026-03-29T10:16:02Z</time></trkpt><trkpt lat="38.0691142153983" lon="13.19800915303004"><ele>581.0</ele><time>2026-03-29T10:16:03Z</time></trkpt><trkpt lat="38.06902681732995" lon="13.198056381854459"><ele>581.0</ele><time>2026-03-29T10:16:04Z</time></trkpt><trkpt lat="38.068928392468635" lon="13.198064698405581"><ele>581.6</ele><time>2026-03-29T10:16:05Z</time></trkpt><trkpt lat="38.06883606115791" lon="13.198029221810453"><ele>582.2</ele><time>2026-03-29T10:16:06Z</time></trkpt><trkpt lat="38.06876348670458" lon="13.19795358708896"><ele>582.8</ele><time>2026-03-29T10:16:07Z</time></trkpt><trkpt lat="38.068741545036985" lon="13.197837630294426"><ele>583.4</ele><time>2026-03-29T10:16:08Z</time></trkpt><trkpt lat="38.06873402869989" lon="13.197726450378454"><ele>584.0</ele><time>2026-03-29T10:16:09Z</time></trkpt><trkpt lat="38.068785531567976" lon="13.197626462673643"><ele>584.0</ele><time>2026-03-29T10:16:10Z</time></trkpt><trkpt lat="38.06884630606524" lon="13.197515943130792"><ele>584.0</ele><time>2026-03-29T10:16:11Z</time></trkpt><trkpt lat="38.06891307604908" lon="13.197364926848673"><ele>584.0</ele><time>2026-03-29T10:16:12Z</time></trkpt><trkpt lat="38.06896935576135" lon="13.197204913308282"><ele>584.0</ele><time>2026-03-29T10:16:13Z</time></trkpt><trkpt lat="38.06902751621466" lon="13.197062530695838"><ele>582.0</ele><time>2026-03-29T10:16:14Z</time></trkpt><trkpt lat="38.06904834224749" lon="13.196917166894274"><ele>580.0</ele><time>2026-03-29T10:16:15Z</time></trkpt><trkpt lat="38.06906056551624" lon="13.196765986186145"><ele>578.0</ele><time>2026-03-29T10:16:16Z</time></trkpt><trkpt lat="38.069016280646764" lon="13.196602683827743"><ele>576.0</ele><time>2026-03-29T10:16:17Z</time></trkpt><trkpt lat="38.06893158158168" lon="13.19644912366945"><ele>573.5</ele><time>2026-03-29T10:16:18Z</time></trkpt><trkpt lat="38.06885402857729" lon="13.1962840407889"><ele>571.0</ele><time>2026-03-29T10:16:19Z</time></trkpt><trkpt lat="38.06880665063533" lon="13.196116967998565"><ele>568.5</ele><time>2026-03-29T10:16:20Z</time></trkpt><trkpt lat="38.06880026245923" lon="13.195927022299303"><ele>566.0</ele><time>2026-03-29T10:16:21Z</time></trkpt><trkpt lat="38.068767765864806" lon="13.195714929999507"><ele>564.0</ele><time>2026-03-29T10:16:22Z</time></trkpt><trkpt lat="38.06876272262714" lon="13.19551218659227"><ele>562.0</ele><time>2026-03-29T10:16:23Z</time></trkpt><trkpt lat="38.06874791154472" lon="13.195324948840064"><ele>560.0</ele><time>2026-03-29T10:16:24Z</time></trkpt><trkpt lat="38.068723761036715" lon="13.195149400018929"><ele>558.0</ele><time>2026-03-29T10:16:25Z</time></trkpt><trkpt lat="38.068682153510835" lon="13.19497632955529"><ele>557.3333333333334</ele><time>2026-03-29T10:16:26Z</time></trkpt><trkpt lat="38.06860820040428" lon="13.194792474880765"><ele>556.6666666666667</ele><time>2026-03-29T10:16:27Z</time></trkpt><trkpt lat="38.06851784573634" lon="13.194618483849625"><ele>556.0</ele><time>2026-03-29T10:16:28Z</time></trkpt><trkpt lat="38.06839343229797" lon="13.194435475330698"><ele>554.0</ele><time>2026-03-29T10:16:29Z</time></trkpt><trkpt lat="38.06826948866006" lon="13.194254398897108"><ele>552.0</ele><time>2026-03-29T10:16:30Z</time></trkpt><trkpt lat="38.068148350674036" lon="13.194078940332195"><ele>550.0</ele><time>2026-03-29T10:16:31Z</time></trkpt><trkpt lat="38.068022294015016" lon="13.193911862867987"><ele>549.0</ele><time>2026-03-29T10:16:32Z</time></trkpt><trkpt lat="38.067906211423654" lon="13.193787522102248"><ele>548.0</ele><time>2026-03-29T10:16:33Z</time></trkpt><trkpt lat="38.06776868643057" lon="13.193672442442269"><ele>547.0</ele><time>2026-03-29T10:16:34Z</time></trkpt><trkpt lat="38.06762965498407" lon="13.193564917793186"><ele>547.0</ele><time>2026-03-29T10:16:35Z</time></trkpt><trkpt lat="38.067502484843764" lon="13.193449475478202"><ele>547.0</ele><time>2026-03-29T10:16:36Z</time></trkpt><trkpt lat="38.06740455315956" lon="13.193326492800495"><ele>547.0</ele><time>2026-03-29T10:16:37Z</time></trkpt><trkpt lat="38.06731501197477" lon="13.193184376901582"><ele>547.0</ele><time>2026-03-29T10:16:38Z</time></trkpt><trkpt lat="38.06723719991926" lon="13.19303745010802"><ele>542.0</ele><time>2026-03-29T10:16:39Z</time></trkpt><trkpt lat="38.06720068634694" lon="13.192869282620938"><ele>537.0</ele><time>2026-03-29T10:16:40Z</time></trkpt><trkpt lat="38.067175870038035" lon="13.192700641003775"><ele>532.0</ele><time>2026-03-29T10:16:41Z</time></trkpt><trkpt lat="38.06715238179001" lon="13.192511445252846"><ele>527.0</ele><time>2026-03-29T10:16:42Z</time></trkpt><trkpt lat="38.06714443969122" lon="13.19230838046658"><ele>522.3333333333333</ele><time>2026-03-29T10:16:43Z</time></trkpt><trkpt lat="38.0671634647069" lon="13.192093929758142"><ele>517.6666666666666</ele><time>2026-03-29T10:16:44Z</time></trkpt><trkpt lat="38.06717602273015" lon="13.191899529213632"><ele>513.0</ele><time>2026-03-29T10:16:45Z</time></trkpt><trkpt lat="38.067185068165706" lon="13.191699867717603"><ele>513.0</ele><time>2026-03-29T10:16:46Z</time></trkpt><trkpt lat="38.06722332723628" lon="13.19151920301054"><ele>513.0</ele><time>2026-03-29T10:16:47Z</time></trkpt><trkpt lat="38.067313682573825" lon="13.191357368743736"><ele>513.0</ele><time>2026-03-29T10:16:48Z</time></trkpt><trkpt lat="38.06740705276017" lon="13.191192191807021"><ele>512.6666666666666</ele><time>2026-03-29T10:16:49Z</time></trkpt><trkpt lat="38.067503737208106" lon="13.191007810136597"><ele>512.3333333333333</ele><time>2026-03-29T10:16:50Z</time></trkpt><trkpt lat="38.06760955611623" lon="13.190818916746158"><ele>512.0</ele><time>2026-03-29T10:16:51Z</time></trkpt><trkpt lat="38.0677100854309" lon="13.190621886109037"><ele>505.66666666666663</ele><time>2026-03-29T10:16:52Z</time></trkpt><trkpt lat="38.06780628163598" lon="13.190417709399927"><ele>499.33333333333337</ele><time>2026-03-29T10:16:53Z</time></trkpt><trkpt lat="38.06789595663644" lon="13.190231854872229"><ele>493.0</ele><time>2026-03-29T10:16:54Z</time></trkpt><trkpt lat="38.0679729431297" lon="13.190074163550982"><ele>493.0</ele><time>2026-03-29T10:16:55Z</time></trkpt><trkpt lat="38.068035874572125" lon="13.189903697449841"><ele>493.0</ele><time>2026-03-29T10:16:56Z</time></trkpt><trkpt lat="38.068067200256756" lon="13.189738084983174"><ele>493.0</ele><time>2026-03-29T10:16:57Z</time></trkpt><trkpt lat="38.068069523907695" lon="13.189568309405619"><ele>493.0</ele><time>2026-03-29T10:16:58Z</time></trkpt><trkpt lat="38.06803851908678" lon="13.189397926497145"><ele>493.0</ele><time>2026-03-29T10:16:59Z</time></trkpt><trkpt lat="38.06797278036943" lon="13.189220139358708"><ele>493.0</ele><time>2026-03-29T10:17:00Z</time></trkpt><trkpt lat="38.067886281891454" lon="13.189058600416145"><ele>493.0</ele><time>2026-03-29T10:17:01Z</time></trkpt><trkpt lat="38.06778633428442" lon="13.188888529147402"><ele>493.0</ele><time>2026-03-29T10:17:02Z</time></trkpt><trkpt lat="38.06768620117109" lon="13.188708444931216"><ele>493.0</ele><time>2026-03-29T10:17:03Z</time></trkpt><trkpt lat="38.06757670065599" lon="13.188520682284516"><ele>493.0</ele><time>2026-03-29T10:17:04Z</time></trkpt><trkpt lat="38.067460836683104" lon="13.188324985867494"><ele>485.33333333333337</ele><time>2026-03-29T10:17:05Z</time></trkpt><trkpt lat="38.06734099529056" lon="13.1881534972376"><ele>477.66666666666663</ele><time>2026-03-29T10:17:06Z</time></trkpt><trkpt lat="38.067227996734" lon="13.188002267026505"><ele>470.0</ele><time>2026-03-29T10:17:07Z</time></trkpt><trkpt lat="38.0671360096467" lon="13.187844706485976"><ele>470.0</ele><time>2026-03-29T10:17:08Z</time></trkpt><trkpt lat="38.06703169931136" lon="13.18771145411413"><ele>470.0</ele><time>2026-03-29T10:17:09Z</time></trkpt><trkpt lat="38.06696727131894" lon="13.187553022109416"><ele>470.0</ele><time>2026-03-29T10:17:10Z</time></trkpt><trkpt lat="38.066955662728034" lon="13.18738262372101"><ele>470.0</ele><time>2026-03-29T10:17:11Z</time></trkpt><trkpt lat="38.066946875322415" lon="13.187199704157052"><ele>467.75</ele><time>2026-03-29T10:17:12Z</time></trkpt><trkpt lat="38.066946470724446" lon="13.187007805334716"><ele>465.5</ele><time>2026-03-29T10:17:13Z</time></trkpt><trkpt lat="38.06695196821523" lon="13.186827948994516"><ele>463.25</ele><time>2026-03-29T10:17:14Z</time></trkpt><trkpt lat="38.06702064522708" lon="13.186668665585124"><ele>461.0</ele><time>2026-03-29T10:17:15Z</time></trkpt><trkpt lat="38.067115345107226" lon="13.18652647194152"><ele>462.0</ele><time>2026-03-29T10:17:16Z</time></trkpt><trkpt lat="38.06722215226961" lon="13.186376247858922"><ele>463.0</ele><time>2026-03-29T10:17:17Z</time></trkpt><trkpt lat="38.06734143073774" lon="13.186206557693614"><ele>464.0</ele><time>2026-03-29T10:17:18Z</time></trkpt><trkpt lat="38.06744450474735" lon="13.186058039440125"><ele>464.0</ele><time>2026-03-29T10:17:19Z</time></trkpt><trkpt lat="38.06752927173046" lon="13.185905226977432"><ele>464.0</ele><time>2026-03-29T10:17:20Z</time></trkpt><trkpt lat="38.067646905316394" lon="13.185819631773356"><ele>464.0</ele><time>2026-03-29T10:17:21Z</time></trkpt><trkpt lat="38.06776969427136" lon="13.18576181056674"><ele>464.0</ele><time>2026-03-29T10:17:22Z</time></trkpt><trkpt lat="38.06789062215785" lon="13.185759892212406"><ele>464.0</ele><time>2026-03-29T10:17:23Z</time></trkpt><trkpt lat="38.06800859222987" lon="13.185796223299429"><ele>464.0</ele><time>2026-03-29T10:17:24Z</time></trkpt><trkpt lat="38.06811350488965" lon="13.185866051842693"><ele>464.0</ele><time>2026-03-29T10:17:25Z</time></trkpt><trkpt lat="38.0681844048347" lon="13.185985415570599"><ele>464.0</ele><time>2026-03-29T10:17:26Z</time></trkpt><trkpt lat="38.06824513603321" lon="13.186130814292959"><ele>463.75</ele><time>2026-03-29T10:17:27Z</time></trkpt><trkpt lat="38.06828271835349" lon="13.1863062420093"><ele>463.5</ele><time>2026-03-29T10:17:28Z</time></trkpt><trkpt lat="38.068342598013835" lon="13.186493825408483"><ele>463.25</ele><time>2026-03-29T10:17:29Z</time></trkpt><trkpt lat="38.068394778626796" lon="13.186667530695408"><ele>463.0</ele><time>2026-03-29T10:17:30Z</time></trkpt><trkpt lat="38.068470513847686" lon="13.18681764828808"><ele>463.0</ele><time>2026-03-29T10:17:31Z</time></trkpt><trkpt lat="38.06856831805522" lon="13.186928129094794"><ele>463.0</ele><time>2026-03-29T10:17:32Z</time></trkpt><trkpt lat="38.06868470348139" lon="13.187009279672793"><ele>463.0</ele><time>2026-03-29T10:17:33Z</time></trkpt><trkpt lat="38.06880817843897" lon="13.18704885539648"><ele>463.0</ele><time>2026-03-29T10:17:34Z</time></trkpt><trkpt lat="38.068940855186796" lon="13.187066338706558"><ele>463.0</ele><time>2026-03-29T10:17:35Z</time></trkpt><trkpt lat="38.06907069255215" lon="13.187045355792083"><ele>463.0</ele><time>2026-03-29T10:17:36Z</time></trkpt><trkpt lat="38.069195295108365" lon="13.186991826305048"><ele>463.0</ele><time>2026-03-29T10:17:37Z</time></trkpt><trkpt lat="38.069310964719136" lon="13.186901508594016"><ele>463.0</ele><time>2026-03-29T10:17:38Z</time></trkpt><trkpt lat="38.069413110665295" lon="13.186781379871524"><ele>459.33333333333337</ele><time>2026-03-29T10:17:39Z</time></trkpt><trkpt lat="38.069505585110065" lon="13.186624036876417"><ele>455.66666666666663</ele><time>2026-03-29T10:17:40Z</time></trkpt><trkpt lat="38.06960239047235" lon="13.186442486143184"><ele>452.0</ele><time>2026-03-29T10:17:41Z</time></trkpt><trkpt lat="38.06969501811171" lon="13.186267743861992"><ele>449.0</ele><time>2026-03-29T10:17:42Z</time></trkpt><trkpt lat="38.069799374974735" lon="13.186085112649124"><ele>446.0</ele><time>2026-03-29T10:17:43Z</time></trkpt><trkpt lat="38.06991118871957" lon="13.185888345925186"><ele>443.0</ele><time>2026-03-29T10:17:44Z</time></trkpt><trkpt lat="38.07001975973937" lon="13.185698303013424"><ele>437.66666666666663</ele><time>2026-03-29T10:17:45Z</time></trkpt><trkpt lat="38.07013059413856" lon="13.185498466721599"><ele>432.33333333333337</ele><time>2026-03-29T10:17:46Z</time></trkpt><trkpt lat="38.07024533391213" lon="13.185290759188707"><ele>427.0</ele><time>2026-03-29T10:17:47Z</time></trkpt><trkpt lat="38.07035921982704" lon="13.185089858212217"><ele>427.0</ele><time>2026-03-29T10:17:48Z</time></trkpt><trkpt lat="38.07046565389741" lon="13.184903831329525"><ele>427.0</ele><time>2026-03-29T10:17:49Z</time></trkpt><trkpt lat="38.07057301246971" lon="13.184742850484648"><ele>427.0</ele><time>2026-03-29T10:17:50Z</time></trkpt><trkpt lat="38.070696937463616" lon="13.184594395444789"><ele>425.33333333333337</ele><time>2026-03-29T10:17:51Z</time></trkpt><trkpt lat="38.070831338539556" lon="13.184475218659347"><ele>423.66666666666663</ele><time>2026-03-29T10:17:52Z</time></trkpt><trkpt lat="38.07097935039902" lon="13.18437966241528"><ele>422.0</ele><time>2026-03-29T10:17:53Z</time></trkpt><trkpt lat="38.07113759221964" lon="13.18431197710074"><ele>422.0</ele><time>2026-03-29T10:17:54Z</time></trkpt><trkpt lat="38.07128118255141" lon="13.184265119447272"><ele>422.0</ele><time>2026-03-29T10:17:55Z</time></trkpt><trkpt lat="38.07142360235425" lon="13.184213314539438"><ele>422.0</ele><time>2026-03-29T10:17:56Z</time></trkpt><trkpt lat="38.0715406607457" lon="13.184161230004845"><ele>422.0</ele><time>2026-03-29T10:17:57Z</time></trkpt><trkpt lat="38.07162651494451" lon="13.184087539380469"><ele>420.0</ele><time>2026-03-29T10:17:58Z</time></trkpt><trkpt lat="38.071672482945836" lon="13.18399321410329"><ele>418.0</ele><time>2026-03-29T10:17:59Z</time></trkpt><trkpt lat="38.07168236735537" lon="13.183868511921585"><ele>416.0</ele><time>2026-03-29T10:18:00Z</time></trkpt><trkpt lat="38.07164887961313" lon="13.183758213354016"><ele>414.0</ele><time>2026-03-29T10:18:01Z</time></trkpt><trkpt lat="38.0715805372721" lon="13.18366257563995"><ele>412.0</ele><time>2026-03-29T10:18:02Z</time></trkpt><trkpt lat="38.0714776168451" lon="13.183595657029976"><ele>410.25</ele><time>2026-03-29T10:18:03Z</time></trkpt><trkpt lat="38.071361687731404" lon="13.1835863323441"><ele>408.5</ele><time>2026-03-29T10:18:04Z</time></trkpt><trkpt lat="38.07123471188765" lon="13.18363321089156"><ele>406.75</ele><time>2026-03-29T10:18:05Z</time></trkpt><trkpt lat="38.07109674504365" lon="13.183712945671344"><ele>405.0</ele><time>2026-03-29T10:18:06Z</time></trkpt><trkpt lat="38.070933457774544" lon="13.183777334089042"><ele>404.66666666666663</ele><time>2026-03-29T10:18:07Z</time></trkpt><trkpt lat="38.07077005528108" lon="13.183838489524211"><ele>404.3333333333333</ele><time>2026-03-29T10:18:08Z</time></trkpt><trkpt lat="38.070607151831524" lon="13.183900636319114"><ele>404.0</ele><time>2026-03-29T10:18:09Z</time></trkpt><trkpt lat="38.07046333414651" lon="13.183976525683825"><ele>404.0</ele><time>2026-03-29T10:18:10Z</time></trkpt><trkpt lat="38.070325214599656" lon="13.184009946449125"><ele>404.0</ele><time>2026-03-29T10:18:11Z</time></trkpt><trkpt lat="38.07019303323173" lon="13.18406109368232"><ele>404.0</ele><time>2026-03-29T10:18:12Z</time></trkpt><trkpt lat="38.0700647949523" lon="13.184101363330182"><ele>404.0</ele><time>2026-03-29T10:18:13Z</time></trkpt><trkpt lat="38.06993136112609" lon="13.184079969511009"><ele>405.0</ele><time>2026-03-29T10:18:14Z</time></trkpt><trkpt lat="38.06980956299866" lon="13.18402315065519"><ele>406.0</ele><time>2026-03-29T10:18:15Z</time></trkpt><trkpt lat="38.06970558824694" lon="13.183925756516034"><ele>407.0</ele><time>2026-03-29T10:18:16Z</time></trkpt><trkpt lat="38.06962404272539" lon="13.18378976967424"><ele>408.0</ele><time>2026-03-29T10:18:17Z</time></trkpt><trkpt lat="38.06959682123071" lon="13.183626485540742"><ele>408.0</ele><time>2026-03-29T10:18:18Z</time></trkpt><trkpt lat="38.06960704352108" lon="13.183466117562554"><ele>408.0</ele><time>2026-03-29T10:18:19Z</time></trkpt><trkpt lat="38.06963562511719" lon="13.18329332449042"><ele>408.0</ele><time>2026-03-29T10:18:20Z</time></trkpt><trkpt lat="38.06967664538749" lon="13.183100369308889"><ele>408.0</ele><time>2026-03-29T10:18:21Z</time></trkpt><trkpt lat="38.06972332589644" lon="13.182889995098249"><ele>404.0</ele><time>2026-03-29T10:18:22Z</time></trkpt><trkpt lat="38.06976082105246" lon="13.182684313409343"><ele>400.0</ele><time>2026-03-29T10:18:23Z</time></trkpt><trkpt lat="38.069792847313344" lon="13.182497507999827"><ele>396.0</ele><time>2026-03-29T10:18:24Z</time></trkpt><trkpt lat="38.06979559879884" lon="13.182328778510072"><ele>393.0</ele><time>2026-03-29T10:18:25Z</time></trkpt><trkpt lat="38.06977031871299" lon="13.18215576947044"><ele>390.0</ele><time>2026-03-29T10:18:26Z</time></trkpt><trkpt lat="38.069737377479214" lon="13.181968948441272"><ele>387.0</ele><time>2026-03-29T10:18:27Z</time></trkpt><trkpt lat="38.06969167636469" lon="13.181783868901523"><ele>384.0</ele><time>2026-03-29T10:18:28Z</time></trkpt><trkpt lat="38.069642793388304" lon="13.181604034030713"><ele>380.0</ele><time>2026-03-29T10:18:29Z</time></trkpt><trkpt lat="38.06961885596582" lon="13.181442684876597"><ele>376.0</ele><time>2026-03-29T10:18:30Z</time></trkpt><trkpt lat="38.06962759758581" lon="13.181302901823278"><ele>372.0</ele><time>2026-03-29T10:18:31Z</time></trkpt><trkpt lat="38.06970364614108" lon="13.181216495949318"><ele>368.0</ele><time>2026-03-29T10:18:32Z</time></trkpt><trkpt lat="38.06977591165458" lon="13.181168679118045"><ele>364.0</ele><time>2026-03-29T10:18:33Z</time></trkpt><trkpt lat="38.069862239368156" lon="13.181136224633349"><ele>368.0</ele><time>2026-03-29T10:18:34Z</time></trkpt><trkpt lat="38.069961149620006" lon="13.18115161574266"><ele>372.0</ele><time>2026-03-29T10:18:35Z</time></trkpt><trkpt lat="38.070050694532874" lon="13.181224555891491"><ele>376.0</ele><time>2026-03-29T10:18:36Z</time></trkpt><trkpt lat="38.07013025816186" lon="13.181320589876465"><ele>380.0</ele><time>2026-03-29T10:18:37Z</time></trkpt><trkpt lat="38.07014596667174" lon="13.18146224851717"><ele>384.0</ele><time>2026-03-29T10:18:38Z</time></trkpt><trkpt lat="38.07018590287361" lon="13.181621719153684"><ele>386.0</ele><time>2026-03-29T10:18:39Z</time></trkpt><trkpt lat="38.07024051983022" lon="13.181786239500232"><ele>388.0</ele><time>2026-03-29T10:18:40Z</time></trkpt><trkpt lat="38.07030266989536" lon="13.181953299494264"><ele>390.0</ele><time>2026-03-29T10:18:41Z</time></trkpt><trkpt lat="38.070393535256656" lon="13.182085093623204"><ele>392.0</ele><time>2026-03-29T10:18:42Z</time></trkpt><trkpt lat="38.070499257571804" lon="13.182167048673902"><ele>392.0</ele><time>2026-03-29T10:18:43Z</time></trkpt><trkpt lat="38.070617423174944" lon="13.182211003525532"><ele>392.0</ele><time>2026-03-29T10:18:44Z</time></trkpt><trkpt lat="38.070744790060836" lon="13.182200978874533"><ele>392.0</ele><time>2026-03-29T10:18:45Z</time></trkpt><trkpt lat="38.070875853704784" lon="13.182176625094154"><ele>392.0</ele><time>2026-03-29T10:18:46Z</time></trkpt><trkpt lat="38.07101011520352" lon="13.18211286222943"><ele>387.66666666666663</ele><time>2026-03-29T10:18:47Z</time></trkpt><trkpt lat="38.07112027200687" lon="13.181997205990335"><ele>383.3333333333333</ele><time>2026-03-29T10:18:48Z</time></trkpt><trkpt lat="38.07122506126369" lon="13.181850422770587"><ele>379.0</ele><time>2026-03-29T10:18:49Z</time></trkpt><trkpt lat="38.07132447410994" lon="13.181678960931233"><ele>377.0</ele><time>2026-03-29T10:18:50Z</time></trkpt><trkpt lat="38.07143552397829" lon="13.181479554146348"><ele>375.0</ele><time>2026-03-29T10:18:51Z</time></trkpt><trkpt lat="38.07157794798255" lon="13.181283864068998"><ele>373.0</ele><time>2026-03-29T10:18:52Z</time></trkpt><trkpt lat="38.071702006193455" lon="13.181088220887649"><ele>372.66666666666663</ele><time>2026-03-29T10:18:53Z</time></trkpt><trkpt lat="38.07179612620188" lon="13.180907475926231"><ele>372.3333333333333</ele><time>2026-03-29T10:18:54Z</time></trkpt><trkpt lat="38.07191338492258" lon="13.180768011193244"><ele>372.0</ele><time>2026-03-29T10:18:55Z</time></trkpt><trkpt lat="38.07201322305572" lon="13.180621374624959"><ele>369.75</ele><time>2026-03-29T10:18:56Z</time></trkpt><trkpt lat="38.07213214473068" lon="13.180531182000134"><ele>367.5</ele><time>2026-03-29T10:18:57Z</time></trkpt><trkpt lat="38.0722526399069" lon="13.180457589087627"><ele>365.25</ele><time>2026-03-29T10:18:58Z</time></trkpt><trkpt lat="38.072367860404334" lon="13.180394651407514"><ele>363.0</ele><time>2026-03-29T10:18:59Z</time></trkpt><trkpt lat="38.07245924908252" lon="13.18031433178969"><ele>363.0</ele><time>2026-03-29T10:19:00Z</time></trkpt><trkpt lat="38.072524376248204" lon="13.180220340438451"><ele>363.0</ele><time>2026-03-29T10:19:01Z</time></trkpt><trkpt lat="38.07254536149007" lon="13.180102637629393"><ele>363.0</ele><time>2026-03-29T10:19:02Z</time></trkpt><trkpt lat="38.07253953859615" lon="13.179980140524998"><ele>363.0</ele><time>2026-03-29T10:19:03Z</time></trkpt><trkpt lat="38.07248152662439" lon="13.179874247370215"><ele>363.0</ele><time>2026-03-29T10:19:04Z</time></trkpt><trkpt lat="38.07239846441146" lon="13.179806795183996"><ele>362.25</ele><time>2026-03-29T10:19:05Z</time></trkpt><trkpt lat="38.07229861950772" lon="13.17978577150041"><ele>361.5</ele><time>2026-03-29T10:19:06Z</time></trkpt><trkpt lat="38.07218649976567" lon="13.179808061994747"><ele>360.75</ele><time>2026-03-29T10:19:07Z</time></trkpt><trkpt lat="38.072066595667465" lon="13.17988951136837"><ele>360.0</ele><time>2026-03-29T10:19:08Z</time></trkpt><trkpt lat="38.07194588672748" lon="13.179990446443727"><ele>360.0</ele><time>2026-03-29T10:19:09Z</time></trkpt><trkpt lat="38.0718330505875" lon="13.180057315508922"><ele>360.0</ele><time>2026-03-29T10:19:10Z</time></trkpt><trkpt lat="38.07171915993862" lon="13.180084661598043"><ele>360.0</ele><time>2026-03-29T10:19:11Z</time></trkpt><trkpt lat="38.071607171911026" lon="13.18006479465112"><ele>360.0</ele><time>2026-03-29T10:19:12Z</time></trkpt><trkpt lat="38.07150732721165" lon="13.180001372737108"><ele>361.5</ele><time>2026-03-29T10:19:13Z</time></trkpt><trkpt lat="38.071442463695284" lon="13.17989297332859"><ele>363.0</ele><time>2026-03-29T10:19:14Z</time></trkpt><trkpt lat="38.07141538922549" lon="13.179736149827578"><ele>364.5</ele><time>2026-03-29T10:19:15Z</time></trkpt><trkpt lat="38.07138567601027" lon="13.179565862095828"><ele>366.0</ele><time>2026-03-29T10:19:16Z</time></trkpt><trkpt lat="38.0714358228011" lon="13.179388477246084"><ele>366.3333333333333</ele><time>2026-03-29T10:19:17Z</time></trkpt><trkpt lat="38.071495243422014" lon="13.179227660365664"><ele>366.66666666666663</ele><time>2026-03-29T10:19:18Z</time></trkpt><trkpt lat="38.071588575363066" lon="13.179060679622904"><ele>367.0</ele><time>2026-03-29T10:19:19Z</time></trkpt><trkpt lat="38.07170525016637" lon="13.178866093529257"><ele>363.0</ele><time>2026-03-29T10:19:20Z</time></trkpt><trkpt lat="38.071822415364664" lon="13.178639238468978"><ele>359.0</ele><time>2026-03-29T10:19:21Z</time></trkpt><trkpt lat="38.07195198874977" lon="13.178438144440825"><ele>355.0</ele><time>2026-03-29T10:19:22Z</time></trkpt><trkpt lat="38.07205138330369" lon="13.178237155442634"><ele>357.3333333333333</ele><time>2026-03-29T10:19:23Z</time></trkpt><trkpt lat="38.07213889670249" lon="13.178016675922919"><ele>359.6666666666667</ele><time>2026-03-29T10:19:24Z</time></trkpt><trkpt lat="38.07222197017316" lon="13.177777620495029"><ele>362.0</ele><time>2026-03-29T10:19:25Z</time></trkpt><trkpt lat="38.072301797969445" lon="13.17754517348099"><ele>360.33333333333337</ele><time>2026-03-29T10:19:26Z</time></trkpt><trkpt lat="38.07237692504942" lon="13.177333711693775"><ele>358.6666666666667</ele><time>2026-03-29T10:19:27Z</time></trkpt><trkpt lat="38.07244927171464" lon="13.177131319465003"><ele>357.0</ele><time>2026-03-29T10:19:28Z</time></trkpt><trkpt lat="38.072517546523166" lon="13.17695689462313"><ele>349.75</ele><time>2026-03-29T10:19:29Z</time></trkpt><trkpt lat="38.072570356019845" lon="13.17678611508447"><ele>342.5</ele><time>2026-03-29T10:19:30Z</time></trkpt><trkpt lat="38.07258428058016" lon="13.176620939236242"><ele>335.25</ele><time>2026-03-29T10:19:31Z</time></trkpt><trkpt lat="38.07256065359535" lon="13.176448323398045"><ele>328.0</ele><time>2026-03-29T10:19:32Z</time></trkpt><trkpt lat="38.07250962136048" lon="13.176254436343093"><ele>325.3333333333333</ele><time>2026-03-29T10:19:33Z</time></trkpt><trkpt lat="38.072448601623364" lon="13.176044252952146"><ele>322.6666666666667</ele><time>2026-03-29T10:19:34Z</time></trkpt><trkpt lat="38.07236544306839" lon="13.175829456159176"><ele>320.0</ele><time>2026-03-29T10:19:35Z</time></trkpt><trkpt lat="38.07228112547251" lon="13.175618203848066"><ele>320.0</ele><time>2026-03-29T10:19:36Z</time></trkpt><trkpt lat="38.072222877152385" lon="13.175424371412591"><ele>320.0</ele><time>2026-03-29T10:19:37Z</time></trkpt><trkpt lat="38.07214327454461" lon="13.175242052756559"><ele>320.0</ele><time>2026-03-29T10:19:38Z</time></trkpt><trkpt lat="38.07206502354529" lon="13.175075831215421"><ele>320.0</ele><time>2026-03-29T10:19:39Z</time></trkpt><trkpt lat="38.07194765900697" lon="13.174911926371816"><ele>320.0</ele><time>2026-03-29T10:19:40Z</time></trkpt><trkpt lat="38.07185480625089" lon="13.174765820537203"><ele>320.0</ele><time>2026-03-29T10:19:41Z</time></trkpt><trkpt lat="38.07173568142542" lon="13.174647754930566"><ele>316.5</ele><time>2026-03-29T10:19:42Z</time></trkpt><trkpt lat="38.071623530237034" lon="13.174547242717752"><ele>313.0</ele><time>2026-03-29T10:19:43Z</time></trkpt><trkpt lat="38.07148627838662" lon="13.174497561485948"><ele>309.5</ele><time>2026-03-29T10:19:44Z</time></trkpt><trkpt lat="38.071360368846044" lon="13.174428605073516"><ele>306.0</ele><time>2026-03-29T10:19:45Z</time></trkpt><trkpt lat="38.0712676850031" lon="13.174379294041671"><ele>306.0</ele><time>2026-03-29T10:19:46Z</time></trkpt><trkpt lat="38.071211411794245" lon="13.17429410745621"><ele>306.0</ele><time>2026-03-29T10:19:47Z</time></trkpt><trkpt lat="38.07120448166567" lon="13.174184498321495"><ele>306.0</ele><time>2026-03-29T10:19:48Z</time></trkpt><trkpt lat="38.071265214426695" lon="13.174086789244761"><ele>306.0</ele><time>2026-03-29T10:19:49Z</time></trkpt><trkpt lat="38.071326125735084" lon="13.17400442849684"><ele>306.0</ele><time>2026-03-29T10:19:50Z</time></trkpt><trkpt lat="38.071412314267896" lon="13.17398001470006"><ele>306.0</ele><time>2026-03-29T10:19:51Z</time></trkpt><trkpt lat="38.07150369469781" lon="13.173990217432305"><ele>306.0</ele><time>2026-03-29T10:19:52Z</time></trkpt><trkpt lat="38.071592835205685" lon="13.174062740880846"><ele>306.0</ele><time>2026-03-29T10:19:53Z</time></trkpt><trkpt lat="38.071705657705856" lon="13.17416010561709"><ele>306.0</ele><time>2026-03-29T10:19:54Z</time></trkpt><trkpt lat="38.07184039908249" lon="13.17425823616579"><ele>306.0</ele><time>2026-03-29T10:19:55Z</time></trkpt><trkpt lat="38.07199233572087" lon="13.174383374328459"><ele>302.6666666666667</ele><time>2026-03-29T10:19:56Z</time></trkpt><trkpt lat="38.072144543489195" lon="13.174513797057987"><ele>299.33333333333337</ele><time>2026-03-29T10:19:57Z</time></trkpt><trkpt lat="38.07228882894628" lon="13.174651589089278"><ele>296.0</ele><time>2026-03-29T10:19:58Z</time></trkpt><trkpt lat="38.07238306750234" lon="13.174816336302198"><ele>295.2</ele><time>2026-03-29T10:19:59Z</time></trkpt><trkpt lat="38.07247940219817" lon="13.174938685291773"><ele>294.40000000000003</ele><time>2026-03-29T10:20:00Z</time></trkpt><trkpt lat="38.07254753749788" lon="13.175038421784883"><ele>293.6</ele><time>2026-03-29T10:20:01Z</time></trkpt><trkpt lat="38.072609284991884" lon="13.175072665902196"><ele>292.8</ele><time>2026-03-29T10:20:02Z</time></trkpt><trkpt lat="38.07269632807701" lon="13.175034342850017"><ele>292.0</ele><time>2026-03-29T10:20:03Z</time></trkpt><trkpt lat="38.07276560423005" lon="13.174957171120372"><ele>288.8</ele><time>2026-03-29T10:20:04Z</time></trkpt><trkpt lat="38.072795575681084" lon="13.174826755227548"><ele>285.6</ele><time>2026-03-29T10:20:05Z</time></trkpt><trkpt lat="38.07278683562983" lon="13.174702986739135"><ele>282.40000000000003</ele><time>2026-03-29T10:20:06Z</time></trkpt><trkpt lat="38.07273198569439" lon="13.174600444975809"><ele>279.2</ele><time>2026-03-29T10:20:07Z</time></trkpt><trkpt lat="38.07265541590255" lon="13.174552885075236"><ele>276.0</ele><time>2026-03-29T10:20:08Z</time></trkpt><trkpt lat="38.07260835432377" lon="13.174485287687567"><ele>276.0</ele><time>2026-03-29T10:20:09Z</time></trkpt><trkpt lat="38.072581358461825" lon="13.174390305974548"><ele>276.0</ele><time>2026-03-29T10:20:11Z</time></trkpt><trkpt lat="38.07265193508718" lon="13.174372398135233"><ele>276.0</ele><time>2026-03-29T10:20:12Z</time></trkpt><trkpt lat="38.07273668293117" lon="13.174401930749221"><ele>276.0</ele><time>2026-03-29T10:20:13Z</time></trkpt><trkpt lat="38.07285173491237" lon="13.174448829638632"><ele>276.0</ele><time>2026-03-29T10:20:14Z</time></trkpt><trkpt lat="38.072994199703004" lon="13.174484455644553"><ele>276.0</ele><time>2026-03-29T10:20:15Z</time></trkpt><trkpt lat="38.07312407621868" lon="13.174513223612662"><ele>276.0</ele><time>2026-03-29T10:20:16Z</time></trkpt><trkpt lat="38.07322174718316" lon="13.174558728894057"><ele>276.0</ele><time>2026-03-29T10:20:17Z</time></trkpt><trkpt lat="38.07330623753911" lon="13.174581155209903"><ele>276.0</ele><time>2026-03-29T10:20:18Z</time></trkpt><trkpt lat="38.073331872074675" lon="13.17471109434627"><ele>276.0</ele><time>2026-03-29T10:20:19Z</time></trkpt><trkpt lat="38.07338401932453" lon="13.17484425949764"><ele>274.75</ele><time>2026-03-29T10:20:20Z</time></trkpt><trkpt lat="38.07343800622827" lon="13.175004256197191"><ele>273.5</ele><time>2026-03-29T10:20:21Z</time></trkpt><trkpt lat="38.07348080855104" lon="13.175148531609505"><ele>272.25</ele><time>2026-03-29T10:20:22Z</time></trkpt><trkpt lat="38.07353093230973" lon="13.175263016429325"><ele>271.0</ele><time>2026-03-29T10:20:23Z</time></trkpt><trkpt lat="38.07358676023589" lon="13.175350472668205"><ele>271.0</ele><time>2026-03-29T10:20:24Z</time></trkpt><trkpt lat="38.073656224540876" lon="13.175396832391705"><ele>271.0</ele><time>2026-03-29T10:20:25Z</time></trkpt><trkpt lat="38.0737274722025" lon="13.175403672313834"><ele>271.0</ele><time>2026-03-29T10:20:26Z</time></trkpt><trkpt lat="38.07379605585286" lon="13.175381211362046"><ele>271.0</ele><time>2026-03-29T10:20:27Z</time></trkpt><trkpt lat="38.07388207252707" lon="13.175332929568253"><ele>271.0</ele><time>2026-03-29T10:20:28Z</time></trkpt><trkpt lat="38.07397060306192" lon="13.175294472751373"><ele>271.0</ele><time>2026-03-29T10:20:29Z</time></trkpt><trkpt lat="38.074023895414584" lon="13.175211380115242"><ele>271.0</ele><time>2026-03-29T10:20:30Z</time></trkpt><trkpt lat="38.07403163659399" lon="13.175087869543427"><ele>271.0</ele><time>2026-03-29T10:20:31Z</time></trkpt><trkpt lat="38.07403301664759" lon="13.174939601631293"><ele>271.0</ele><time>2026-03-29T10:20:32Z</time></trkpt><trkpt lat="38.074017444332476" lon="13.174778639224764"><ele>271.0</ele><time>2026-03-29T10:20:33Z</time></trkpt><trkpt lat="38.07403770185195" lon="13.1746007633707"><ele>269.66666666666663</ele><time>2026-03-29T10:20:34Z</time></trkpt><trkpt lat="38.07406486238294" lon="13.174423176536589"><ele>268.3333333333333</ele><time>2026-03-29T10:20:35Z</time></trkpt><trkpt lat="38.07411538021368" lon="13.174242877162959"><ele>267.0</ele><time>2026-03-29T10:20:36Z</time></trkpt><trkpt lat="38.07416020154374" lon="13.174042079432866"><ele>264.3333333333333</ele><time>2026-03-29T10:20:37Z</time></trkpt><trkpt lat="38.07423244954442" lon="13.173832095378975"><ele>261.66666666666663</ele><time>2026-03-29T10:20:38Z</time></trkpt><trkpt lat="38.07426825470525" lon="13.173638581846484"><ele>259.0</ele><time>2026-03-29T10:20:39Z</time></trkpt><trkpt lat="38.07433691565402" lon="13.173470292782408"><ele>259.0</ele><time>2026-03-29T10:20:40Z</time></trkpt><trkpt lat="38.0743963035319" lon="13.1733277296655"><ele>259.0</ele><time>2026-03-29T10:20:41Z</time></trkpt><trkpt lat="38.074467468236605" lon="13.17319182017219"><ele>259.0</ele><time>2026-03-29T10:20:42Z</time></trkpt><trkpt lat="38.07454552405569" lon="13.173036383495287"><ele>259.0</ele><time>2026-03-29T10:20:43Z</time></trkpt><trkpt lat="38.07463098365124" lon="13.172901548948113"><ele>257.5</ele><time>2026-03-29T10:20:44Z</time></trkpt><trkpt lat="38.07470721739451" lon="13.172778424724118"><ele>256.0</ele><time>2026-03-29T10:20:45Z</time></trkpt><trkpt lat="38.07477313999487" lon="13.17264131940433"><ele>254.5</ele><time>2026-03-29T10:20:46Z</time></trkpt><trkpt lat="38.07481197962269" lon="13.17247278609013"><ele>253.0</ele><time>2026-03-29T10:20:47Z</time></trkpt><trkpt lat="38.074836226598805" lon="13.172268637489191"><ele>251.75</ele><time>2026-03-29T10:20:48Z</time></trkpt><trkpt lat="38.07486359364001" lon="13.172072522752776"><ele>250.5</ele><time>2026-03-29T10:20:49Z</time></trkpt><trkpt lat="38.074876407243266" lon="13.171903975902797"><ele>249.25</ele><time>2026-03-29T10:20:50Z</time></trkpt><trkpt lat="38.07486848013492" lon="13.17175655948816"><ele>248.0</ele><time>2026-03-29T10:20:51Z</time></trkpt><trkpt lat="38.074834695111655" lon="13.171610403354913"><ele>247.0</ele><time>2026-03-29T10:20:52Z</time></trkpt><trkpt lat="38.0747795264341" lon="13.171461801065766"><ele>246.0</ele><time>2026-03-29T10:20:53Z</time></trkpt><trkpt lat="38.07473394555033" lon="13.171337436894376"><ele>245.0</ele><time>2026-03-29T10:20:54Z</time></trkpt><trkpt lat="38.0747170594873" lon="13.171242201236986"><ele>244.0</ele><time>2026-03-29T10:20:55Z</time></trkpt><trkpt lat="38.07476063451908" lon="13.1711558952136"><ele>243.0</ele><time>2026-03-29T10:20:56Z</time></trkpt><trkpt lat="38.0748340616061" lon="13.171079342591185"><ele>243.0</ele><time>2026-03-29T10:20:57Z</time></trkpt><trkpt lat="38.0749134986838" lon="13.171018140373711"><ele>243.0</ele><time>2026-03-29T10:20:58Z</time></trkpt><trkpt lat="38.07502765900405" lon="13.170901662299467"><ele>243.0</ele><time>2026-03-29T10:20:59Z</time></trkpt><trkpt lat="38.07516071567008" lon="13.170766548892532"><ele>243.0</ele><time>2026-03-29T10:21:00Z</time></trkpt><trkpt lat="38.07529478872896" lon="13.17062671890206"><ele>243.5</ele><time>2026-03-29T10:21:01Z</time></trkpt><trkpt lat="38.075404844863655" lon="13.170514367146659"><ele>244.0</ele><time>2026-03-29T10:21:02Z</time></trkpt><trkpt lat="38.075495261783374" lon="13.170426558351881"><ele>244.5</ele><time>2026-03-29T10:21:03Z</time></trkpt><trkpt lat="38.075602118560006" lon="13.170346468487855"><ele>245.0</ele><time>2026-03-29T10:21:04Z</time></trkpt><trkpt lat="38.07573415888345" lon="13.170283840135372"><ele>248.0</ele><time>2026-03-29T10:21:05Z</time></trkpt><trkpt lat="38.07589674999999" lon="13.170190266144832"><ele>251.0</ele><time>2026-03-29T10:21:06Z</time></trkpt><trkpt lat="38.07604675891062" lon="13.17010709148916"><ele>254.0</ele><time>2026-03-29T10:21:07Z</time></trkpt><trkpt lat="38.07619676001752" lon="13.170008804437211"><ele>254.0</ele><time>2026-03-29T10:21:08Z</time></trkpt><trkpt lat="38.076338715348534" lon="13.169922099411828"><ele>254.0</ele><time>2026-03-29T10:21:09Z</time></trkpt><trkpt lat="38.07645485736595" lon="13.16984006070282"><ele>254.0</ele><time>2026-03-29T10:21:10Z</time></trkpt><trkpt lat="38.076579752327184" lon="13.169782934053742"><ele>254.0</ele><time>2026-03-29T10:21:11Z</time></trkpt><trkpt lat="38.07668834938539" lon="13.169719744217462"><ele>252.5</ele><time>2026-03-29T10:21:12Z</time></trkpt><trkpt lat="38.076789011289826" lon="13.169673309940025"><ele>251.0</ele><time>2026-03-29T10:21:13Z</time></trkpt><trkpt lat="38.07692181957147" lon="13.169658574826967"><ele>249.5</ele><time>2026-03-29T10:21:14Z</time></trkpt><trkpt lat="38.07704851641013" lon="13.169644526969064"><ele>248.0</ele><time>2026-03-29T10:21:15Z</time></trkpt><trkpt lat="38.07718526067388" lon="13.169618701393897"><ele>248.0</ele><time>2026-03-29T10:21:16Z</time></trkpt><trkpt lat="38.077311141428545" lon="13.169579356075715"><ele>248.0</ele><time>2026-03-29T10:21:17Z</time></trkpt><trkpt lat="38.077441848888206" lon="13.169555053119241"><ele>248.0</ele><time>2026-03-29T10:21:18Z</time></trkpt><trkpt lat="38.0775781543373" lon="13.169528488386202"><ele>248.0</ele><time>2026-03-29T10:21:19Z</time></trkpt><trkpt lat="38.0777205330285" lon="13.169492307686642"><ele>248.25</ele><time>2026-03-29T10:21:20Z</time></trkpt><trkpt lat="38.07785972923311" lon="13.169447862561436"><ele>248.5</ele><time>2026-03-29T10:21:21Z</time></trkpt><trkpt lat="38.077992486585686" lon="13.16940499294626"><ele>248.75</ele><time>2026-03-29T10:21:22Z</time></trkpt><trkpt lat="38.07810491860457" lon="13.169363069679049"><ele>249.0</ele><time>2026-03-29T10:21:23Z</time></trkpt><trkpt lat="38.07821654225316" lon="13.16932961222216"><ele>248.39999999999998</ele><time>2026-03-29T10:21:24Z</time></trkpt><trkpt lat="38.07832669076481" lon="13.169309414751368"><ele>247.79999999999998</ele><time>2026-03-29T10:21:25Z</time></trkpt><trkpt lat="38.078436898028514" lon="13.169334642169442"><ele>247.20000000000002</ele><time>2026-03-29T10:21:26Z</time></trkpt><trkpt lat="38.07851907759349" lon="13.169385126810893"><ele>246.60000000000002</ele><time>2026-03-29T10:21:27Z</time></trkpt><trkpt lat="38.07859282561618" lon="13.16945850367015"><ele>246.0</ele><time>2026-03-29T10:21:28Z</time></trkpt><trkpt lat="38.07863970558196" lon="13.169592242275161"><ele>246.0</ele><time>2026-03-29T10:21:29Z</time></trkpt><trkpt lat="38.078695994043045" lon="13.169704565750495"><ele>246.0</ele><time>2026-03-29T10:21:30Z</time></trkpt><trkpt lat="38.07875281342594" lon="13.169825472910476"><ele>246.0</ele><time>2026-03-29T10:21:31Z</time></trkpt><trkpt lat="38.07882411684506" lon="13.169944845618303"><ele>246.0</ele><time>2026-03-29T10:21:32Z</time></trkpt><trkpt lat="38.078889952514885" lon="13.170066186182957"><ele>246.20000000000002</ele><time>2026-03-29T10:21:33Z</time></trkpt><trkpt lat="38.07894422099641" lon="13.17018035747743"><ele>246.40000000000003</ele><time>2026-03-29T10:21:34Z</time></trkpt><trkpt lat="38.07898694538444" lon="13.170286521155898"><ele>246.6</ele><time>2026-03-29T10:21:35Z</time></trkpt><trkpt lat="38.079037564948976" lon="13.170393263422124"><ele>246.8</ele><time>2026-03-29T10:21:36Z</time></trkpt><trkpt lat="38.07908733177164" lon="13.17048357724995"><ele>247.0</ele><time>2026-03-29T10:21:37Z</time></trkpt><trkpt lat="38.0791583662099" lon="13.170541654545856"><ele>247.0</ele><time>2026-03-29T10:21:38Z</time></trkpt><trkpt lat="38.07926037065825" lon="13.170584389105862"><ele>247.0</ele><time>2026-03-29T10:21:39Z</time></trkpt><trkpt lat="38.07934484954815" lon="13.17058467007999"><ele>247.0</ele><time>2026-03-29T10:21:40Z</time></trkpt><trkpt lat="38.079431268257196" lon="13.170570033385562"><ele>247.0</ele><time>2026-03-29T10:21:41Z</time></trkpt><trkpt lat="38.079512638611945" lon="13.170503294042149"><ele>247.0</ele><time>2026-03-29T10:21:42Z</time></trkpt><trkpt lat="38.0795727489292" lon="13.170400170486564"><ele>247.0</ele><time>2026-03-29T10:21:43Z</time></trkpt><trkpt lat="38.07958775468138" lon="13.170265575834458"><ele>247.0</ele><time>2026-03-29T10:21:44Z</time></trkpt><trkpt lat="38.07959047239434" lon="13.170129114590015"><ele>247.0</ele><time>2026-03-29T10:21:45Z</time></trkpt><trkpt lat="38.079639823769405" lon="13.169997864344477"><ele>247.0</ele><time>2026-03-29T10:21:46Z</time></trkpt><trkpt lat="38.07972755021315" lon="13.169869700241273"><ele>245.33333333333331</ele><time>2026-03-29T10:21:47Z</time></trkpt><trkpt lat="38.079800813224516" lon="13.169723263903165"><ele>243.66666666666669</ele><time>2026-03-29T10:21:48Z</time></trkpt><trkpt lat="38.079860921493214" lon="13.169551797389229"><ele>242.0</ele><time>2026-03-29T10:21:49Z</time></trkpt><trkpt lat="38.07992446560081" lon="13.169334283751752"><ele>245.0</ele><time>2026-03-29T10:21:50Z</time></trkpt><trkpt lat="38.07998744755296" lon="13.169111273855776"><ele>248.0</ele><time>2026-03-29T10:21:51Z</time></trkpt><trkpt lat="38.0800408911074" lon="13.168903431463505"><ele>251.0</ele><time>2026-03-29T10:21:52Z</time></trkpt><trkpt lat="38.080100146551764" lon="13.16871616176012"><ele>251.0</ele><time>2026-03-29T10:21:53Z</time></trkpt><trkpt lat="38.08015083962484" lon="13.168553272307646"><ele>251.0</ele><time>2026-03-29T10:21:54Z</time></trkpt><trkpt lat="38.08019720578881" lon="13.168398203015595"><ele>251.0</ele><time>2026-03-29T10:21:55Z</time></trkpt><trkpt lat="38.08024076393735" lon="13.168261547887353"><ele>251.0</ele><time>2026-03-29T10:21:56Z</time></trkpt><trkpt lat="38.08029669114613" lon="13.168139859698394"><ele>250.0</ele><time>2026-03-29T10:21:57Z</time></trkpt><trkpt lat="38.0803863037952" lon="13.168063993331291"><ele>249.0</ele><time>2026-03-29T10:21:58Z</time></trkpt><trkpt lat="38.08046968706095" lon="13.167982094386693"><ele>248.0</ele><time>2026-03-29T10:21:59Z</time></trkpt><trkpt lat="38.08058821552571" lon="13.167901454588888"><ele>247.0</ele><time>2026-03-29T10:22:00Z</time></trkpt><trkpt lat="38.080712615749974" lon="13.167814611716553"><ele>247.75</ele><time>2026-03-29T10:22:01Z</time></trkpt><trkpt lat="38.080834661451824" lon="13.167748522365141"><ele>248.5</ele><time>2026-03-29T10:22:02Z</time></trkpt><trkpt lat="38.08093304072465" lon="13.167683379865874"><ele>249.25</ele><time>2026-03-29T10:22:03Z</time></trkpt><trkpt lat="38.081025695114576" lon="13.167622171778534"><ele>250.0</ele><time>2026-03-29T10:22:04Z</time></trkpt><trkpt lat="38.08112876304271" lon="13.167569169338126"><ele>250.0</ele><time>2026-03-29T10:22:05Z</time></trkpt><trkpt lat="38.08124611153458" lon="13.167553989336088"><ele>250.0</ele><time>2026-03-29T10:22:06Z</time></trkpt><trkpt lat="38.08135923043134" lon="13.167509734324632"><ele>250.0</ele><time>2026-03-29T10:22:07Z</time></trkpt><trkpt lat="38.08148386283271" lon="13.167482433843826"><ele>250.0</ele><time>2026-03-29T10:22:08Z</time></trkpt><trkpt lat="38.08161751111202" lon="13.167477772904865"><ele>250.5</ele><time>2026-03-29T10:22:09Z</time></trkpt><trkpt lat="38.08174697896482" lon="13.16746017481337"><ele>251.0</ele><time>2026-03-29T10:22:10Z</time></trkpt><trkpt lat="38.08186699624902" lon="13.167469144461739"><ele>251.5</ele><time>2026-03-29T10:22:11Z</time></trkpt><trkpt lat="38.081994611524166" lon="13.167467552952505"><ele>252.0</ele><time>2026-03-29T10:22:12Z</time></trkpt><trkpt lat="38.08211785921852" lon="13.167450172908701"><ele>252.0</ele><time>2026-03-29T10:22:13Z</time></trkpt><trkpt lat="38.08223912469499" lon="13.167445382283297"><ele>252.0</ele><time>2026-03-29T10:22:14Z</time></trkpt><trkpt lat="38.082357341830985" lon="13.167440959650053"><ele>252.0</ele><time>2026-03-29T10:22:15Z</time></trkpt><trkpt lat="38.08247908644512" lon="13.167452871677725"><ele>252.0</ele><time>2026-03-29T10:22:16Z</time></trkpt><trkpt lat="38.08260365760883" lon="13.167428819738538"><ele>252.75</ele><time>2026-03-29T10:22:17Z</time></trkpt><trkpt lat="38.08273413934731" lon="13.167442826852856"><ele>253.5</ele><time>2026-03-29T10:22:18Z</time></trkpt><trkpt lat="38.08285735810677" lon="13.167428065007877"><ele>254.25</ele><time>2026-03-29T10:22:19Z</time></trkpt><trkpt lat="38.0829883160446" lon="13.167446152663926"><ele>255.0</ele><time>2026-03-29T10:22:20Z</time></trkpt><trkpt lat="38.08312055863397" lon="13.167474801228101"><ele>255.0</ele><time>2026-03-29T10:22:21Z</time></trkpt><trkpt lat="38.083243813455454" lon="13.167522089151111"><ele>255.0</ele><time>2026-03-29T10:22:22Z</time></trkpt><trkpt lat="38.08337387788322" lon="13.167581666586361"><ele>255.0</ele><time>2026-03-29T10:22:23Z</time></trkpt><trkpt lat="38.0835018418381" lon="13.1676655167313"><ele>255.0</ele><time>2026-03-29T10:22:24Z</time></trkpt><trkpt lat="38.08363816799823" lon="13.167742193691083"><ele>254.75</ele><time>2026-03-29T10:22:25.001Z</time></trkpt><trkpt lat="38.083768240647416" lon="13.167817965208856"><ele>254.5</ele><time>2026-03-29T10:22:26.001Z</time></trkpt><trkpt lat="38.08390366046786" lon="13.1678866501425"><ele>254.25</ele><time>2026-03-29T10:22:27.001Z</time></trkpt><trkpt lat="38.08404167612799" lon="13.167958061522064"><ele>254.0</ele><time>2026-03-29T10:22:28.001Z</time></trkpt><trkpt lat="38.08417167675427" lon="13.168034919159373"><ele>254.0</ele><time>2026-03-29T10:22:29.001Z</time></trkpt><trkpt lat="38.0843109415788" lon="13.168095099843503"><ele>254.0</ele><time>2026-03-29T10:22:30.001Z</time></trkpt><trkpt lat="38.08446645519079" lon="13.168131336385052"><ele>254.0</ele><time>2026-03-29T10:22:31.001Z</time></trkpt><trkpt lat="38.08462130032085" lon="13.168152875639118"><ele>254.0</ele><time>2026-03-29T10:22:32.001Z</time></trkpt><trkpt lat="38.084772383690776" lon="13.16816471024885"><ele>254.0</ele><time>2026-03-29T10:22:33.001Z</time></trkpt><trkpt lat="38.08491848336261" lon="13.168181063986617"><ele>254.0</ele><time>2026-03-29T10:22:34.001Z</time></trkpt><trkpt lat="38.08504550703948" lon="13.168206652541002"><ele>254.0</ele><time>2026-03-29T10:22:35.001Z</time></trkpt><trkpt lat="38.08516995328475" lon="13.168245708483"><ele>256.75</ele><time>2026-03-29T10:22:36.001Z</time></trkpt><trkpt lat="38.0852928583952" lon="13.168308218316032"><ele>259.5</ele><time>2026-03-29T10:22:37.001Z</time></trkpt><trkpt lat="38.085410451984515" lon="13.168378797263278"><ele>262.25</ele><time>2026-03-29T10:22:38.001Z</time></trkpt><trkpt lat="38.085521691528044" lon="13.168454516402472"><ele>265.0</ele><time>2026-03-29T10:22:39.001Z</time></trkpt><trkpt lat="38.08562378253543" lon="13.168557445879438"><ele>265.0</ele><time>2026-03-29T10:22:40.001Z</time></trkpt><trkpt lat="38.08571726761513" lon="13.168685089847514"><ele>265.0</ele><time>2026-03-29T10:22:41.001Z</time></trkpt><trkpt lat="38.085806845237485" lon="13.168824730651233"><ele>265.0</ele><time>2026-03-29T10:22:42.001Z</time></trkpt><trkpt lat="38.085901732084444" lon="13.168957324937852"><ele>265.0</ele><time>2026-03-29T10:22:43.001Z</time></trkpt><trkpt lat="38.085981248464606" lon="13.169047202584958"><ele>265.6</ele><time>2026-03-29T10:22:44.001Z</time></trkpt><trkpt lat="38.08607101983266" lon="13.169090389711958"><ele>266.2</ele><time>2026-03-29T10:22:45.001Z</time></trkpt><trkpt lat="38.08616390123715" lon="13.169088204921197"><ele>266.8</ele><time>2026-03-29T10:22:46.001Z</time></trkpt><trkpt lat="38.086264887575965" lon="13.169061145104013"><ele>267.4</ele><time>2026-03-29T10:22:47.001Z</time></trkpt><trkpt lat="38.08636400063857" lon="13.169019137646064"><ele>268.0</ele><time>2026-03-29T10:22:48.001Z</time></trkpt><trkpt lat="38.08644310273075" lon="13.168956389525599"><ele>267.6</ele><time>2026-03-29T10:22:49.001Z</time></trkpt><trkpt lat="38.086497102166476" lon="13.168864353539465"><ele>267.20000000000005</ele><time>2026-03-29T10:22:50.001Z</time></trkpt><trkpt lat="38.08653346852703" lon="13.168750053193277"><ele>266.8</ele><time>2026-03-29T10:22:51.001Z</time></trkpt><trkpt lat="38.08656443493068" lon="13.168636287100316"><ele>266.40000000000003</ele><time>2026-03-29T10:22:52.001Z</time></trkpt><trkpt lat="38.086603688129024" lon="13.168504207903268"><ele>266.0</ele><time>2026-03-29T10:22:53.001Z</time></trkpt><trkpt lat="38.08664407529995" lon="13.168361435670452"><ele>266.0</ele><time>2026-03-29T10:22:54.001Z</time></trkpt><trkpt lat="38.08668622370454" lon="13.168215887200516"><ele>266.0</ele><time>2026-03-29T10:22:55.001Z</time></trkpt><trkpt lat="38.08673014852767" lon="13.168102177394875"><ele>266.0</ele><time>2026-03-29T10:22:56.001Z</time></trkpt><trkpt lat="38.08677447424816" lon="13.1680100119959"><ele>266.0</ele><time>2026-03-29T10:22:57.001Z</time></trkpt><trkpt lat="38.086833030377576" lon="13.167940708867425"><ele>266.0</ele><time>2026-03-29T10:22:58.001Z</time></trkpt><trkpt lat="38.08690848767303" lon="13.167895899453656"><ele>265.8</ele><time>2026-03-29T10:22:59.001Z</time></trkpt><trkpt lat="38.0870088998696" lon="13.167893895621413"><ele>265.6</ele><time>2026-03-29T10:23:00.001Z</time></trkpt><trkpt lat="38.08710419370249" lon="13.167876026096659"><ele>265.4</ele><time>2026-03-29T10:23:01.001Z</time></trkpt><trkpt lat="38.087217241571864" lon="13.167880887573284"><ele>265.2</ele><time>2026-03-29T10:23:02.001Z</time></trkpt><trkpt lat="38.087336505071335" lon="13.167884942410122"><ele>265.0</ele><time>2026-03-29T10:23:03.001Z</time></trkpt><trkpt lat="38.087460788245735" lon="13.167880826088595"><ele>265.0</ele><time>2026-03-29T10:23:04.001Z</time></trkpt><trkpt lat="38.08758935461502" lon="13.167870256293055"><ele>265.0</ele><time>2026-03-29T10:23:05.001Z</time></trkpt><trkpt lat="38.087713914027596" lon="13.167868651692588"><ele>265.0</ele><time>2026-03-29T10:23:06.001Z</time></trkpt><trkpt lat="38.087825406025466" lon="13.167871474996245"><ele>265.0</ele><time>2026-03-29T10:23:07.001Z</time></trkpt><trkpt lat="38.08792258238621" lon="13.167863755880457"><ele>265.0</ele><time>2026-03-29T10:23:08.001Z</time></trkpt><trkpt lat="38.0880074707508" lon="13.167833229504046"><ele>265.0</ele><time>2026-03-29T10:23:09.001Z</time></trkpt><trkpt lat="38.08808307737244" lon="13.167782614030893"><ele>265.0</ele><time>2026-03-29T10:23:10.001Z</time></trkpt><trkpt lat="38.088145796677175" lon="13.16770247537569"><ele>265.0</ele><time>2026-03-29T10:23:11.001Z</time></trkpt><trkpt lat="38.088195411686634" lon="13.167602750502612"><ele>265.0</ele><time>2026-03-29T10:23:12.001Z</time></trkpt><trkpt lat="38.0882209866745" lon="13.167479143543089"><ele>265.0</ele><time>2026-03-29T10:23:13.001Z</time></trkpt><trkpt lat="38.088222739827415" lon="13.167356311089538"><ele>265.0</ele><time>2026-03-29T10:23:14.001Z</time></trkpt><trkpt lat="38.08820174561751" lon="13.167235679390348"><ele>265.0</ele><time>2026-03-29T10:23:15.001Z</time></trkpt><trkpt lat="38.0881627377102" lon="13.167111865978296"><ele>265.0</ele><time>2026-03-29T10:23:16.001Z</time></trkpt><trkpt lat="38.08812322752736" lon="13.166982502391901"><ele>265.0</ele><time>2026-03-29T10:23:17.001Z</time></trkpt><trkpt lat="38.08809683780892" lon="13.166840993552118"><ele>265.0</ele><time>2026-03-29T10:23:18.001Z</time></trkpt><trkpt lat="38.08807155293959" lon="13.16669433164615"><ele>265.0</ele><time>2026-03-29T10:23:19Z</time></trkpt><trkpt lat="38.08804441934363" lon="13.16654834955794"><ele>265.0</ele><time>2026-03-29T10:23:20Z</time></trkpt><trkpt lat="38.08800648010002" lon="13.166402929656975"><ele>265.0</ele><time>2026-03-29T10:23:21Z</time></trkpt><trkpt lat="38.08796068336079" lon="13.166258472140596"><ele>265.5</ele><time>2026-03-29T10:23:22Z</time></trkpt><trkpt lat="38.08793519734813" lon="13.166112078155951"><ele>266.0</ele><time>2026-03-29T10:23:23Z</time></trkpt><trkpt lat="38.08793847711961" lon="13.165964179504355"><ele>266.5</ele><time>2026-03-29T10:23:24Z</time></trkpt><trkpt lat="38.08796718490682" lon="13.165812760312154"><ele>267.0</ele><time>2026-03-29T10:23:25Z</time></trkpt><trkpt lat="38.088001709886626" lon="13.165653551738009"><ele>267.5</ele><time>2026-03-29T10:23:26Z</time></trkpt><trkpt lat="38.088037387604125" lon="13.165490858444242"><ele>268.0</ele><time>2026-03-29T10:23:27Z</time></trkpt><trkpt lat="38.088071575439095" lon="13.165328366939681"><ele>268.5</ele><time>2026-03-29T10:23:28Z</time></trkpt><trkpt lat="38.08810454204727" lon="13.165160099917971"><ele>269.0</ele><time>2026-03-29T10:23:29Z</time></trkpt><trkpt lat="38.08814833851431" lon="13.164997767504042"><ele>268.25</ele><time>2026-03-29T10:23:30Z</time></trkpt><trkpt lat="38.08822904713895" lon="13.164855835916148"><ele>267.5</ele><time>2026-03-29T10:23:31Z</time></trkpt><trkpt lat="38.088300311747766" lon="13.164696514683273"><ele>266.75</ele><time>2026-03-29T10:23:32Z</time></trkpt><trkpt lat="38.088396198542945" lon="13.164561631066812"><ele>266.0</ele><time>2026-03-29T10:23:33Z</time></trkpt><trkpt lat="38.08848004084724" lon="13.164413398714597"><ele>267.6</ele><time>2026-03-29T10:23:34Z</time></trkpt><trkpt lat="38.08855391146926" lon="13.164268481249408"><ele>269.20000000000005</ele><time>2026-03-29T10:23:35Z</time></trkpt><trkpt lat="38.08861862790177" lon="13.164158915806764"><ele>270.79999999999995</ele><time>2026-03-29T10:23:36Z</time></trkpt><trkpt lat="38.08867271351737" lon="13.164072892273156"><ele>272.4</ele><time>2026-03-29T10:23:37Z</time></trkpt><trkpt lat="38.08874709156028" lon="13.164001037875256"><ele>274.0</ele><time>2026-03-29T10:23:39Z</time></trkpt><trkpt lat="38.0888194982131" lon="13.164026617957868"><ele>274.0</ele><time>2026-03-29T10:23:42Z</time></trkpt><trkpt lat="38.0888809634231" lon="13.163912950444775"><ele>274.0</ele><time>2026-03-29T10:23:46Z</time></trkpt><trkpt lat="38.08888437450627" lon="13.163808231959417"><ele>274.0</ele><time>2026-03-29T10:23:47Z</time></trkpt><trkpt lat="38.08887669403901" lon="13.163646250466702"><ele>274.0</ele><time>2026-03-29T10:23:48Z</time></trkpt><trkpt lat="38.088866249864154" lon="13.16349191516652"><ele>274.0</ele><time>2026-03-29T10:23:49Z</time></trkpt><trkpt lat="38.08886773273687" lon="13.16333408820678"><ele>273.5</ele><time>2026-03-29T10:23:50Z</time></trkpt><trkpt lat="38.08885906962788" lon="13.163173635559735"><ele>273.0</ele><time>2026-03-29T10:23:51Z</time></trkpt><trkpt lat="38.08886310029312" lon="13.16298817144026"><ele>272.5</ele><time>2026-03-29T10:23:52Z</time></trkpt><trkpt lat="38.088873805026815" lon="13.162809904833663"><ele>272.0</ele><time>2026-03-29T10:23:53Z</time></trkpt><trkpt lat="38.08888339765551" lon="13.162630128429035"><ele>272.0</ele><time>2026-03-29T10:23:54Z</time></trkpt><trkpt lat="38.0888861511027" lon="13.162463475613633"><ele>272.0</ele><time>2026-03-29T10:23:55Z</time></trkpt><trkpt lat="38.08887640758333" lon="13.1622943760792"><ele>272.0</ele><time>2026-03-29T10:23:56Z</time></trkpt><trkpt lat="38.088861363245464" lon="13.1621321834575"><ele>272.0</ele><time>2026-03-29T10:23:57Z</time></trkpt><trkpt lat="38.08884137135769" lon="13.161974232611279"><ele>272.5</ele><time>2026-03-29T10:23:58Z</time></trkpt><trkpt lat="38.0888179779525" lon="13.161811431516952"><ele>273.0</ele><time>2026-03-29T10:23:59Z</time></trkpt><trkpt lat="38.08879609467651" lon="13.161645301889958"><ele>273.5</ele><time>2026-03-29T10:24:00Z</time></trkpt><trkpt lat="38.088772676863826" lon="13.161479115802567"><ele>274.0</ele><time>2026-03-29T10:24:01Z</time></trkpt><trkpt lat="38.08874790109561" lon="13.161313019550006"><ele>274.0</ele><time>2026-03-29T10:24:02Z</time></trkpt><trkpt lat="38.08872688053772" lon="13.161160369819198"><ele>274.0</ele><time>2026-03-29T10:24:03Z</time></trkpt><trkpt lat="38.08870881350762" lon="13.161014928562121"><ele>274.0</ele><time>2026-03-29T10:24:04Z</time></trkpt><trkpt lat="38.088701947292954" lon="13.1608734750846"><ele>274.0</ele><time>2026-03-29T10:24:05Z</time></trkpt><trkpt lat="38.08871023431249" lon="13.160722442276587"><ele>273.75</ele><time>2026-03-29T10:24:06Z</time></trkpt><trkpt lat="38.08873864976555" lon="13.160569544441334"><ele>273.5</ele><time>2026-03-29T10:24:07Z</time></trkpt><trkpt lat="38.0887768853489" lon="13.160418523451328"><ele>273.25</ele><time>2026-03-29T10:24:08Z</time></trkpt><trkpt lat="38.08881288610568" lon="13.160264133159082"><ele>273.0</ele><time>2026-03-29T10:24:09Z</time></trkpt><trkpt lat="38.08884087256559" lon="13.160101664925525"><ele>273.0</ele><time>2026-03-29T10:24:10Z</time></trkpt><trkpt lat="38.08886451937894" lon="13.15994527282737"><ele>273.0</ele><time>2026-03-29T10:24:11Z</time></trkpt><trkpt lat="38.088891121553104" lon="13.159784533653138"><ele>273.0</ele><time>2026-03-29T10:24:12Z</time></trkpt><trkpt lat="38.08891396021832" lon="13.159638565215674"><ele>273.0</ele><time>2026-03-29T10:24:13Z</time></trkpt><trkpt lat="38.08893472485903" lon="13.159495212215447"><ele>272.6</ele><time>2026-03-29T10:24:14Z</time></trkpt><trkpt lat="38.088956531049945" lon="13.159364833373154"><ele>272.20000000000005</ele><time>2026-03-29T10:24:15Z</time></trkpt><trkpt lat="38.08898043437635" lon="13.159244707308526"><ele>271.8</ele><time>2026-03-29T10:24:16Z</time></trkpt><trkpt lat="38.08899060378717" lon="13.159137412311853"><ele>271.40000000000003</ele><time>2026-03-29T10:24:17Z</time></trkpt><trkpt lat="38.08900811837723" lon="13.159028904490985"><ele>271.0</ele><time>2026-03-29T10:24:18Z</time></trkpt><trkpt lat="38.08901656506871" lon="13.158929653329462"><ele>270.40000000000003</ele><time>2026-03-29T10:24:19Z</time></trkpt><trkpt lat="38.08904859726944" lon="13.158801541231298"><ele>269.8</ele><time>2026-03-29T10:24:21Z</time></trkpt><trkpt lat="38.08905897749445" lon="13.15865606406099"><ele>269.20000000000005</ele><time>2026-03-29T10:24:23Z</time></trkpt><trkpt lat="38.089086795024244" lon="13.158563156695385"><ele>268.6</ele><time>2026-03-29T10:24:24Z</time></trkpt><trkpt lat="38.089106446542765" lon="13.158468891798313"><ele>268.0</ele><time>2026-03-29T10:24:25Z</time></trkpt><trkpt lat="38.08912428998109" lon="13.158374440905481"><ele>269.0</ele><time>2026-03-29T10:24:26Z</time></trkpt><trkpt lat="38.08912420443553" lon="13.158289498148743"><ele>270.0</ele><time>2026-03-29T10:24:27Z</time></trkpt><trkpt lat="38.08907627844051" lon="13.158152341761454"><ele>271.0</ele><time>2026-03-29T10:24:29Z</time></trkpt><trkpt lat="38.08902244886759" lon="13.158087369078572"><ele>272.0</ele><time>2026-03-29T10:24:30Z</time></trkpt><trkpt lat="38.088975925076504" lon="13.158022848194566"><ele>273.0</ele><time>2026-03-29T10:24:31Z</time></trkpt><trkpt lat="38.08893017911772" lon="13.157944567198939"><ele>274.0</ele><time>2026-03-29T10:24:32Z</time></trkpt><trkpt lat="38.08888921236257" lon="13.157855637836487"><ele>274.0</ele><time>2026-03-29T10:24:33Z</time></trkpt><trkpt lat="38.08884827443725" lon="13.157754849032278"><ele>274.0</ele><time>2026-03-29T10:24:34Z</time></trkpt><trkpt lat="38.08879652320676" lon="13.157651268337828"><ele>274.0</ele><time>2026-03-29T10:24:35Z</time></trkpt><trkpt lat="38.08874795249919" lon="13.157546614941293"><ele>274.0</ele><time>2026-03-29T10:24:36Z</time></trkpt><trkpt lat="38.088702005630005" lon="13.157437121365767"><ele>274.0</ele><time>2026-03-29T10:24:37Z</time></trkpt><trkpt lat="38.088654375071776" lon="13.157332907158882"><ele>275.4</ele><time>2026-03-29T10:24:38Z</time></trkpt><trkpt lat="38.08860022963239" lon="13.157218833327644"><ele>276.79999999999995</ele><time>2026-03-29T10:24:39Z</time></trkpt><trkpt lat="38.088549216868074" lon="13.15710636585662"><ele>278.20000000000005</ele><time>2026-03-29T10:24:40Z</time></trkpt><trkpt lat="38.088496507614884" lon="13.15698629587674"><ele>279.6</ele><time>2026-03-29T10:24:41Z</time></trkpt><trkpt lat="38.088444142615785" lon="13.156874600294845"><ele>281.0</ele><time>2026-03-29T10:24:42Z</time></trkpt><trkpt lat="38.08839653921639" lon="13.156756093339688"><ele>281.0</ele><time>2026-03-29T10:24:43Z</time></trkpt><trkpt lat="38.088340043582754" lon="13.156641062732819"><ele>281.0</ele><time>2026-03-29T10:24:44Z</time></trkpt><trkpt lat="38.08828818106158" lon="13.156528336116608"><ele>281.0</ele><time>2026-03-29T10:24:45Z</time></trkpt><trkpt lat="38.088233526156756" lon="13.156413960931005"><ele>281.0</ele><time>2026-03-29T10:24:46Z</time></trkpt><trkpt lat="38.08818253780331" lon="13.156295884597776"><ele>281.0</ele><time>2026-03-29T10:24:47Z</time></trkpt><trkpt lat="38.08812563379935" lon="13.156185096783553"><ele>280.8</ele><time>2026-03-29T10:24:48Z</time></trkpt><trkpt lat="38.088067913192546" lon="13.156079431951053"><ele>280.6</ele><time>2026-03-29T10:24:49Z</time></trkpt><trkpt lat="38.0880098653696" lon="13.155972910049178"><ele>280.4</ele><time>2026-03-29T10:24:50Z</time></trkpt><trkpt lat="38.08797099727379" lon="13.155857197278603"><ele>280.2</ele><time>2026-03-29T10:24:51Z</time></trkpt><trkpt lat="38.087923274141616" lon="13.155747309090012"><ele>280.0</ele><time>2026-03-29T10:24:52Z</time></trkpt><trkpt lat="38.0878668515867" lon="13.155629051542475"><ele>280.0</ele><time>2026-03-29T10:24:53Z</time></trkpt><trkpt lat="38.08780970495682" lon="13.155515730770187"><ele>280.0</ele><time>2026-03-29T10:24:54Z</time></trkpt><trkpt lat="38.08775316763248" lon="13.155402996429336"><ele>280.0</ele><time>2026-03-29T10:24:55Z</time></trkpt><trkpt lat="38.08769591110725" lon="13.155291169186304"><ele>280.0</ele><time>2026-03-29T10:24:56Z</time></trkpt><trkpt lat="38.08764619836662" lon="13.155177706093511"><ele>280.0</ele><time>2026-03-29T10:24:57Z</time></trkpt><trkpt lat="38.08759534351986" lon="13.155069718769285"><ele>280.0</ele><time>2026-03-29T10:24:58Z</time></trkpt><trkpt lat="38.087540446438034" lon="13.154963047993096"><ele>280.0</ele><time>2026-03-29T10:24:59Z</time></trkpt><trkpt lat="38.08749096570696" lon="13.154860612498982"><ele>280.0</ele><time>2026-03-29T10:25:00Z</time></trkpt><trkpt lat="38.08743999091278" lon="13.154749248687112"><ele>280.0</ele><time>2026-03-29T10:25:01Z</time></trkpt><trkpt lat="38.087390689816374" lon="13.154633221751585"><ele>280.0</ele><time>2026-03-29T10:25:02Z</time></trkpt><trkpt lat="38.08733525155757" lon="13.15451372060962"><ele>279.2</ele><time>2026-03-29T10:25:03Z</time></trkpt><trkpt lat="38.08727940876044" lon="13.154397412440732"><ele>278.4</ele><time>2026-03-29T10:25:04Z</time></trkpt><trkpt lat="38.087217387025696" lon="13.15428115804264"><ele>277.6</ele><time>2026-03-29T10:25:05Z</time></trkpt><trkpt lat="38.087161690759395" lon="13.154153909889109"><ele>276.8</ele><time>2026-03-29T10:25:06Z</time></trkpt><trkpt lat="38.087098900178425" lon="13.154047381004677"><ele>276.0</ele><time>2026-03-29T10:25:07Z</time></trkpt><trkpt lat="38.08704818322413" lon="13.153932088951933"><ele>276.0</ele><time>2026-03-29T10:25:08Z</time></trkpt><trkpt lat="38.08699980794058" lon="13.153807418276836"><ele>276.0</ele><time>2026-03-29T10:25:09Z</time></trkpt><trkpt lat="38.086943377336645" lon="13.153689537928368"><ele>276.0</ele><time>2026-03-29T10:25:10Z</time></trkpt><trkpt lat="38.08688511854878" lon="13.153571604356038"><ele>276.0</ele><time>2026-03-29T10:25:11Z</time></trkpt><trkpt lat="38.08682730808044" lon="13.153450859542668"><ele>276.0</ele><time>2026-03-29T10:25:12Z</time></trkpt><trkpt lat="38.08676808868326" lon="13.15333170565395"><ele>276.0</ele><time>2026-03-29T10:25:13Z</time></trkpt><trkpt lat="38.0867141395761" lon="13.153193973529861"><ele>276.0</ele><time>2026-03-29T10:25:14Z</time></trkpt><trkpt lat="38.08664296340499" lon="13.1530355530139"><ele>276.0</ele><time>2026-03-29T10:25:15Z</time></trkpt><trkpt lat="38.086571857065884" lon="13.1528816173146"><ele>276.0</ele><time>2026-03-29T10:25:16Z</time></trkpt><trkpt lat="38.086513556117865" lon="13.152742988268367"><ele>273.25</ele><time>2026-03-29T10:25:17Z</time></trkpt><trkpt lat="38.0864550755993" lon="13.152623410785433"><ele>270.5</ele><time>2026-03-29T10:25:18Z</time></trkpt><trkpt lat="38.08638415359667" lon="13.152504139358225"><ele>267.75</ele><time>2026-03-29T10:25:19Z</time></trkpt><trkpt lat="38.08631895328049" lon="13.15237435906704"><ele>265.0</ele><time>2026-03-29T10:25:20Z</time></trkpt><trkpt lat="38.086262721617835" lon="13.152237363970148"><ele>265.0</ele><time>2026-03-29T10:25:21Z</time></trkpt><trkpt lat="38.0862068875924" lon="13.152110530865972"><ele>265.0</ele><time>2026-03-29T10:25:22Z</time></trkpt><trkpt lat="38.08614967549287" lon="13.151965124234366"><ele>265.0</ele><time>2026-03-29T10:25:23Z</time></trkpt><trkpt lat="38.08608809325255" lon="13.151828327398624"><ele>265.0</ele><time>2026-03-29T10:25:24Z</time></trkpt><trkpt lat="38.08603885615555" lon="13.151686908570145"><ele>265.0</ele><time>2026-03-29T10:25:25Z</time></trkpt><trkpt lat="38.0859981803893" lon="13.151552095185266"><ele>265.0</ele><time>2026-03-29T10:25:26Z</time></trkpt><trkpt lat="38.08596699138018" lon="13.151421460047303"><ele>265.0</ele><time>2026-03-29T10:25:27Z</time></trkpt><trkpt lat="38.08595035259522" lon="13.151295898277672"><ele>265.0</ele><time>2026-03-29T10:25:28Z</time></trkpt><trkpt lat="38.08593359596976" lon="13.151190649520448"><ele>265.0</ele><time>2026-03-29T10:25:29Z</time></trkpt><trkpt lat="38.08592137522958" lon="13.151100837237955"><ele>265.4</ele><time>2026-03-29T10:25:30Z</time></trkpt><trkpt lat="38.08590997828542" lon="13.150988320319247"><ele>265.8</ele><time>2026-03-29T10:25:32Z</time></trkpt><trkpt lat="38.08589921894647" lon="13.150908887743853"><ele>266.2</ele><time>2026-03-29T10:25:34Z</time></trkpt><trkpt lat="38.085884818984454" lon="13.15078452198441"><ele>266.6</ele><time>2026-03-29T10:25:36Z</time></trkpt><trkpt lat="38.085797222252815" lon="13.150632123599532"><ele>267.0</ele><time>2026-03-29T10:25:38Z</time></trkpt><trkpt lat="38.08574632088422" lon="13.150523050896238"><ele>265.0</ele><time>2026-03-29T10:25:39Z</time></trkpt><trkpt lat="38.085687901910774" lon="13.150409714440816"><ele>263.0</ele><time>2026-03-29T10:25:40Z</time></trkpt><trkpt lat="38.08563766141166" lon="13.150289734419047"><ele>261.0</ele><time>2026-03-29T10:25:41Z</time></trkpt><trkpt lat="38.085594693328474" lon="13.150153918470398"><ele>259.0</ele><time>2026-03-29T10:25:42Z</time></trkpt><trkpt lat="38.0855514257916" lon="13.15001376213763"><ele>257.0</ele><time>2026-03-29T10:25:43Z</time></trkpt><trkpt lat="38.085510865524114" lon="13.149872217056249"><ele>256.2</ele><time>2026-03-29T10:25:44Z</time></trkpt><trkpt lat="38.08547881202103" lon="13.149737051667726"><ele>255.39999999999998</ele><time>2026-03-29T10:25:45Z</time></trkpt><trkpt lat="38.08547228465952" lon="13.149608817328307"><ele>254.60000000000002</ele><time>2026-03-29T10:25:46Z</time></trkpt><trkpt lat="38.085464199615345" lon="13.149498085651235"><ele>253.8</ele><time>2026-03-29T10:25:47Z</time></trkpt><trkpt lat="38.08544827223663" lon="13.149392426667012"><ele>253.0</ele><time>2026-03-29T10:25:48Z</time></trkpt><trkpt lat="38.085455121561964" lon="13.149297546959884"><ele>253.0</ele><time>2026-03-29T10:25:49Z</time></trkpt><trkpt lat="38.085456577621976" lon="13.149185929378687"><ele>253.0</ele><time>2026-03-29T10:25:50Z</time></trkpt><trkpt lat="38.08546925674097" lon="13.149044410036986"><ele>253.0</ele><time>2026-03-29T10:25:51Z</time></trkpt><trkpt lat="38.08547159866517" lon="13.148904327592728"><ele>253.0</ele><time>2026-03-29T10:25:52Z</time></trkpt><trkpt lat="38.08545770458704" lon="13.148758969548128"><ele>253.0</ele><time>2026-03-29T10:25:53Z</time></trkpt><trkpt lat="38.085466044680636" lon="13.148609530522888"><ele>252.0</ele><time>2026-03-29T10:25:54Z</time></trkpt><trkpt lat="38.08547350276234" lon="13.148446789293438"><ele>251.0</ele><time>2026-03-29T10:25:55Z</time></trkpt><trkpt lat="38.08547765497931" lon="13.148272612862305"><ele>250.0</ele><time>2026-03-29T10:25:56Z</time></trkpt><trkpt lat="38.08548004563205" lon="13.148110332166972"><ele>249.0</ele><time>2026-03-29T10:25:57Z</time></trkpt><trkpt lat="38.08547921562294" lon="13.147959434149847"><ele>247.5</ele><time>2026-03-29T10:25:58Z</time></trkpt><trkpt lat="38.08547799753101" lon="13.147792330327158"><ele>246.0</ele><time>2026-03-29T10:25:59Z</time></trkpt><trkpt lat="38.08548248422164" lon="13.147631395938086"><ele>244.5</ele><time>2026-03-29T10:26:00Z</time></trkpt><trkpt lat="38.08548476442392" lon="13.147463681071745"><ele>243.0</ele><time>2026-03-29T10:26:01Z</time></trkpt><trkpt lat="38.08548970485355" lon="13.147291066386087"><ele>242.0</ele><time>2026-03-29T10:26:02Z</time></trkpt><trkpt lat="38.08549624920352" lon="13.147108377894064"><ele>241.0</ele><time>2026-03-29T10:26:03Z</time></trkpt><trkpt lat="38.08549840944135" lon="13.14693125798544"><ele>240.0</ele><time>2026-03-29T10:26:04Z</time></trkpt><trkpt lat="38.085485216327854" lon="13.146758987318686"><ele>239.0</ele><time>2026-03-29T10:26:05Z</time></trkpt><trkpt lat="38.08545677706944" lon="13.146581553489101"><ele>239.0</ele><time>2026-03-29T10:26:06Z</time></trkpt><trkpt lat="38.08541030454865" lon="13.14641118679888"><ele>239.0</ele><time>2026-03-29T10:26:07Z</time></trkpt><trkpt lat="38.085352607298915" lon="13.146247190886315"><ele>239.0</ele><time>2026-03-29T10:26:08Z</time></trkpt><trkpt lat="38.085299859381756" lon="13.146081129121953"><ele>239.0</ele><time>2026-03-29T10:26:09Z</time></trkpt><trkpt lat="38.085246396370884" lon="13.145915616271628"><ele>239.0</ele><time>2026-03-29T10:26:10Z</time></trkpt><trkpt lat="38.08519476503663" lon="13.145746996893825"><ele>239.0</ele><time>2026-03-29T10:26:11Z</time></trkpt><trkpt lat="38.085139431228804" lon="13.145579599765608"><ele>239.0</ele><time>2026-03-29T10:26:12Z</time></trkpt><trkpt lat="38.08509214780545" lon="13.145427530159035"><ele>239.0</ele><time>2026-03-29T10:26:13Z</time></trkpt><trkpt lat="38.08504953020715" lon="13.145283188812071"><ele>238.25</ele><time>2026-03-29T10:26:14Z</time></trkpt><trkpt lat="38.08500936583087" lon="13.14514277367641"><ele>237.5</ele><time>2026-03-29T10:26:15Z</time></trkpt><trkpt lat="38.08497941687279" lon="13.144997743041618"><ele>236.75</ele><time>2026-03-29T10:26:16Z</time></trkpt><trkpt lat="38.08496227140094" lon="13.14485347232749"><ele>236.0</ele><time>2026-03-29T10:26:17Z</time></trkpt><trkpt lat="38.084968414341276" lon="13.144704529980203"><ele>235.0</ele><time>2026-03-29T10:26:18Z</time></trkpt><trkpt lat="38.0849791234977" lon="13.14454933139054"><ele>234.0</ele><time>2026-03-29T10:26:19Z</time></trkpt><trkpt lat="38.08499262485624" lon="13.14438691674048"><ele>233.0</ele><time>2026-03-29T10:26:20Z</time></trkpt><trkpt lat="38.08498283219717" lon="13.144239496504955"><ele>232.0</ele><time>2026-03-29T10:26:21Z</time></trkpt><trkpt lat="38.08495152479754" lon="13.144107966918511"><ele>229.25</ele><time>2026-03-29T10:26:22Z</time></trkpt><trkpt lat="38.084889575725825" lon="13.143995282419386"><ele>226.5</ele><time>2026-03-29T10:26:23Z</time></trkpt><trkpt lat="38.08479229303673" lon="13.143901246395266"><ele>223.75</ele><time>2026-03-29T10:26:24Z</time></trkpt><trkpt lat="38.08467773319618" lon="13.143811286045219"><ele>221.0</ele><time>2026-03-29T10:26:25Z</time></trkpt><trkpt lat="38.08455402982433" lon="13.143711461281208"><ele>221.0</ele><time>2026-03-29T10:26:26Z</time></trkpt><trkpt lat="38.08446348278805" lon="13.143572891867276"><ele>221.0</ele><time>2026-03-29T10:26:27Z</time></trkpt><trkpt lat="38.08437251061449" lon="13.143455266181135"><ele>221.0</ele><time>2026-03-29T10:26:28Z</time></trkpt><trkpt lat="38.084299744950584" lon="13.143291292853089"><ele>221.0</ele><time>2026-03-29T10:26:29Z</time></trkpt><trkpt lat="38.08422611720536" lon="13.143115250235633"><ele>221.0</ele><time>2026-03-29T10:26:30Z</time></trkpt><trkpt lat="38.08417941811931" lon="13.142918096432712"><ele>221.0</ele><time>2026-03-29T10:26:31Z</time></trkpt><trkpt lat="38.08410561490596" lon="13.142720584822271"><ele>221.0</ele><time>2026-03-29T10:26:32Z</time></trkpt><trkpt lat="38.0840589622715" lon="13.142516361360775"><ele>216.25</ele><time>2026-03-29T10:26:33Z</time></trkpt><trkpt lat="38.084020861931066" lon="13.142345474552979"><ele>211.5</ele><time>2026-03-29T10:26:34Z</time></trkpt><trkpt lat="38.08398031346269" lon="13.142182203958619"><ele>206.75</ele><time>2026-03-29T10:26:35Z</time></trkpt><trkpt lat="38.08394347221588" lon="13.142034431783056"><ele>202.0</ele><time>2026-03-29T10:26:36Z</time></trkpt><trkpt lat="38.08393081427106" lon="13.141875102616812"><ele>202.0</ele><time>2026-03-29T10:26:37Z</time></trkpt><trkpt lat="38.08391058882524" lon="13.14172352289871"><ele>202.0</ele><time>2026-03-29T10:26:38Z</time></trkpt><trkpt lat="38.08392366610186" lon="13.141574146843393"><ele>202.0</ele><time>2026-03-29T10:26:39Z</time></trkpt><trkpt lat="38.08394580461879" lon="13.141431738146101"><ele>202.0</ele><time>2026-03-29T10:26:40Z</time></trkpt><trkpt lat="38.08397008806748" lon="13.141287296508812"><ele>201.25</ele><time>2026-03-29T10:26:41Z</time></trkpt><trkpt lat="38.08399198862261" lon="13.141134441850628"><ele>200.5</ele><time>2026-03-29T10:26:42Z</time></trkpt><trkpt lat="38.08401737314563" lon="13.140970953273893"><ele>199.75</ele><time>2026-03-29T10:26:43Z</time></trkpt><trkpt lat="38.08404513352067" lon="13.140799989081877"><ele>199.0</ele><time>2026-03-29T10:26:44Z</time></trkpt><trkpt lat="38.08407423247643" lon="13.140623003573758"><ele>201.33333333333331</ele><time>2026-03-29T10:26:45Z</time></trkpt><trkpt lat="38.084105641164015" lon="13.140442157707303"><ele>203.66666666666669</ele><time>2026-03-29T10:26:46Z</time></trkpt><trkpt lat="38.08413421890903" lon="13.14024667701797"><ele>206.0</ele><time>2026-03-29T10:26:47Z</time></trkpt><trkpt lat="38.08416620844065" lon="13.140053463899259"><ele>204.66666666666669</ele><time>2026-03-29T10:26:48Z</time></trkpt><trkpt lat="38.08420947935485" lon="13.139864181281263"><ele>203.33333333333331</ele><time>2026-03-29T10:26:49Z</time></trkpt><trkpt lat="38.08426427815567" lon="13.139672241272967"><ele>202.0</ele><time>2026-03-29T10:26:50Z</time></trkpt><trkpt lat="38.084322561649415" lon="13.139484634157622"><ele>202.0</ele><time>2026-03-29T10:26:51Z</time></trkpt><trkpt lat="38.084372710566456" lon="13.139301876513068"><ele>202.0</ele><time>2026-03-29T10:26:52Z</time></trkpt><trkpt lat="38.08441485680802" lon="13.139114608618323"><ele>202.0</ele><time>2026-03-29T10:26:53Z</time></trkpt><trkpt lat="38.084446572446275" lon="13.138939754523316"><ele>202.0</ele><time>2026-03-29T10:26:54Z</time></trkpt><trkpt lat="38.08445743889662" lon="13.138775089382573"><ele>201.25</ele><time>2026-03-29T10:26:55Z</time></trkpt><trkpt lat="38.08444850290904" lon="13.138614587343563"><ele>200.5</ele><time>2026-03-29T10:26:56Z</time></trkpt><trkpt lat="38.08442289296118" lon="13.138450319715012"><ele>199.75</ele><time>2026-03-29T10:26:57Z</time></trkpt><trkpt lat="38.08437700126723" lon="13.138284334003139"><ele>199.0</ele><time>2026-03-29T10:26:58Z</time></trkpt><trkpt lat="38.084313692535424" lon="13.138127330769944"><ele>198.5</ele><time>2026-03-29T10:26:59Z</time></trkpt><trkpt lat="38.084241249572855" lon="13.13796305907027"><ele>198.0</ele><time>2026-03-29T10:27:00Z</time></trkpt><trkpt lat="38.084181542536406" lon="13.137799092064713"><ele>197.5</ele><time>2026-03-29T10:27:01Z</time></trkpt><trkpt lat="38.084122333103274" lon="13.137641218149845"><ele>197.0</ele><time>2026-03-29T10:27:02Z</time></trkpt><trkpt lat="38.084093482349225" lon="13.137487322094717"><ele>193.25</ele><time>2026-03-29T10:27:03Z</time></trkpt><trkpt lat="38.08405942607373" lon="13.137342356683533"><ele>189.5</ele><time>2026-03-29T10:27:04Z</time></trkpt><trkpt lat="38.08400887956982" lon="13.137188671826205"><ele>185.75</ele><time>2026-03-29T10:27:05Z</time></trkpt><trkpt lat="38.08398554067787" lon="13.13700769932766"><ele>182.0</ele><time>2026-03-29T10:27:06Z</time></trkpt><trkpt lat="38.08394452853405" lon="13.136820077115027"><ele>182.0</ele><time>2026-03-29T10:27:07Z</time></trkpt><trkpt lat="38.08388803501138" lon="13.13662548874616"><ele>182.0</ele><time>2026-03-29T10:27:08Z</time></trkpt><trkpt lat="38.0838503033966" lon="13.136409202741726"><ele>182.0</ele><time>2026-03-29T10:27:09Z</time></trkpt><trkpt lat="38.08380665074191" lon="13.136189173258746"><ele>181.0</ele><time>2026-03-29T10:27:10Z</time></trkpt><trkpt lat="38.0837539685046" lon="13.135953654697513"><ele>180.0</ele><time>2026-03-29T10:27:11Z</time></trkpt><trkpt lat="38.08370763885273" lon="13.135719408889484"><ele>179.0</ele><time>2026-03-29T10:27:12Z</time></trkpt><trkpt lat="38.08366012964344" lon="13.13547620336576"><ele>179.0</ele><time>2026-03-29T10:27:13Z</time></trkpt><trkpt lat="38.0836205310221" lon="13.135248261161408"><ele>179.0</ele><time>2026-03-29T10:27:14Z</time></trkpt><trkpt lat="38.08358790442078" lon="13.135033663352845"><ele>179.0</ele><time>2026-03-29T10:27:15Z</time></trkpt><trkpt lat="38.08354912062814" lon="13.13483757431831"><ele>179.0</ele><time>2026-03-29T10:27:16Z</time></trkpt><trkpt lat="38.08351012067277" lon="13.134649148829885"><ele>179.0</ele><time>2026-03-29T10:27:17Z</time></trkpt><trkpt lat="38.08348345545223" lon="13.134473749446675"><ele>179.0</ele><time>2026-03-29T10:27:18Z</time></trkpt><trkpt lat="38.08346811619024" lon="13.134304190229733"><ele>179.0</ele><time>2026-03-29T10:27:19Z</time></trkpt><trkpt lat="38.083472999057925" lon="13.13413989144479"><ele>176.33333333333331</ele><time>2026-03-29T10:27:20Z</time></trkpt><trkpt lat="38.08353930597315" lon="13.13399348999597"><ele>173.66666666666666</ele><time>2026-03-29T10:27:21Z</time></trkpt><trkpt lat="38.083588689485474" lon="13.133809423804637"><ele>171.0</ele><time>2026-03-29T10:27:22Z</time></trkpt><trkpt lat="38.083629643685626" lon="13.13360715741677"><ele>171.0</ele><time>2026-03-29T10:27:23Z</time></trkpt><trkpt lat="38.08367136576593" lon="13.133388145980598"><ele>171.0</ele><time>2026-03-29T10:27:24Z</time></trkpt><trkpt lat="38.083696084461735" lon="13.133193694772498"><ele>171.0</ele><time>2026-03-29T10:27:25Z</time></trkpt><trkpt lat="38.0837145971401" lon="13.132991306734867"><ele>170.66666666666666</ele><time>2026-03-29T10:27:26Z</time></trkpt><trkpt lat="38.08373057765441" lon="13.132796274823427"><ele>170.33333333333331</ele><time>2026-03-29T10:27:27Z</time></trkpt><trkpt lat="38.083692656261334" lon="13.132570078159544"><ele>170.0</ele><time>2026-03-29T10:27:28Z</time></trkpt><trkpt lat="38.0836490315795" lon="13.132347959648346"><ele>170.0</ele><time>2026-03-29T10:27:29Z</time></trkpt><trkpt lat="38.08358736106252" lon="13.132133515305943"><ele>170.0</ele><time>2026-03-29T10:27:30Z</time></trkpt><trkpt lat="38.08352928930088" lon="13.131888137376071"><ele>170.0</ele><time>2026-03-29T10:27:31Z</time></trkpt><trkpt lat="38.08346208684326" lon="13.13165068606864"><ele>169.66666666666666</ele><time>2026-03-29T10:27:32Z</time></trkpt><trkpt lat="38.08339591197297" lon="13.131449515668361"><ele>169.33333333333334</ele><time>2026-03-29T10:27:33Z</time></trkpt><trkpt lat="38.08333634597432" lon="13.131244784185064"><ele>169.0</ele><time>2026-03-29T10:27:34Z</time></trkpt><trkpt lat="38.083306205586695" lon="13.131054180457005"><ele>169.0</ele><time>2026-03-29T10:27:35Z</time></trkpt><trkpt lat="38.08327018610745" lon="13.130867213738625"><ele>169.0</ele><time>2026-03-29T10:27:36Z</time></trkpt><trkpt lat="38.083284399289724" lon="13.130648182209573"><ele>169.0</ele><time>2026-03-29T10:27:37Z</time></trkpt><trkpt lat="38.08329246080406" lon="13.130435816555744"><ele>168.66666666666669</ele><time>2026-03-29T10:27:38Z</time></trkpt><trkpt lat="38.08328644134479" lon="13.130218271107635"><ele>168.33333333333334</ele><time>2026-03-29T10:27:39Z</time></trkpt><trkpt lat="38.083302572082815" lon="13.129986649000955"><ele>168.0</ele><time>2026-03-29T10:27:40Z</time></trkpt><trkpt lat="38.08331596289338" lon="13.12975083990233"><ele>167.33333333333334</ele><time>2026-03-29T10:27:41Z</time></trkpt><trkpt lat="38.08334410036096" lon="13.129514654589231"><ele>166.66666666666669</ele><time>2026-03-29T10:27:42Z</time></trkpt><trkpt lat="38.08338125212489" lon="13.129272309285838"><ele>166.0</ele><time>2026-03-29T10:27:43Z</time></trkpt><trkpt lat="38.08343071741958" lon="13.129021999894869"><ele>164.0</ele><time>2026-03-29T10:27:44Z</time></trkpt><trkpt lat="38.083480581064016" lon="13.128772126458292"><ele>162.0</ele><time>2026-03-29T10:27:45Z</time></trkpt><trkpt lat="38.083554475461916" lon="13.128545065452364"><ele>160.0</ele><time>2026-03-29T10:27:46Z</time></trkpt><trkpt lat="38.08362403779679" lon="13.128321234813734"><ele>158.33333333333334</ele><time>2026-03-29T10:27:47Z</time></trkpt><trkpt lat="38.08368730057701" lon="13.128116353021287"><ele>156.66666666666666</ele><time>2026-03-29T10:27:48Z</time></trkpt><trkpt lat="38.08377312331133" lon="13.127909487191063"><ele>155.0</ele><time>2026-03-29T10:27:49Z</time></trkpt><trkpt lat="38.08385830277455" lon="13.127704275568513"><ele>155.0</ele><time>2026-03-29T10:27:50Z</time></trkpt><trkpt lat="38.083942304380315" lon="13.127514945795978"><ele>155.0</ele><time>2026-03-29T10:27:51Z</time></trkpt><trkpt lat="38.0840243380952" lon="13.127307264669414"><ele>155.0</ele><time>2026-03-29T10:27:52Z</time></trkpt><trkpt lat="38.08410568057231" lon="13.127108689211534"><ele>155.0</ele><time>2026-03-29T10:27:53Z</time></trkpt><trkpt lat="38.08419208459157" lon="13.126912722639224"><ele>155.0</ele><time>2026-03-29T10:27:54Z</time></trkpt><trkpt lat="38.08427620478522" lon="13.126708823772082"><ele>155.0</ele><time>2026-03-29T10:27:55Z</time></trkpt><trkpt lat="38.08435696885862" lon="13.126515804081274"><ele>155.0</ele><time>2026-03-29T10:27:56Z</time></trkpt><trkpt lat="38.084433175762335" lon="13.126333457769572"><ele>155.0</ele><time>2026-03-29T10:27:57Z</time></trkpt><trkpt lat="38.08449581521548" lon="13.126162039094"><ele>155.0</ele><time>2026-03-29T10:27:58Z</time></trkpt><trkpt lat="38.08453757117989" lon="13.125996583888567"><ele>155.0</ele><time>2026-03-29T10:27:59Z</time></trkpt><trkpt lat="38.084545984276716" lon="13.125850481251192"><ele>154.66666666666666</ele><time>2026-03-29T10:28:00Z</time></trkpt><trkpt lat="38.0845207729596" lon="13.125693508847595"><ele>154.33333333333334</ele><time>2026-03-29T10:28:01Z</time></trkpt><trkpt lat="38.084463414615044" lon="13.125522456313456"><ele>154.0</ele><time>2026-03-29T10:28:02Z</time></trkpt><trkpt lat="38.08437999375355" lon="13.125304566967705"><ele>154.0</ele><time>2026-03-29T10:28:03Z</time></trkpt><trkpt lat="38.08431284314166" lon="13.12510214106004"><ele>154.0</ele><time>2026-03-29T10:28:04Z</time></trkpt><trkpt lat="38.08426460838983" lon="13.124924780484415"><ele>154.0</ele><time>2026-03-29T10:28:05Z</time></trkpt><trkpt lat="38.084218363896866" lon="13.12476938772124"><ele>153.4</ele><time>2026-03-29T10:28:06Z</time></trkpt><trkpt lat="38.08416228707704" lon="13.124658805293794"><ele>152.8</ele><time>2026-03-29T10:28:07Z</time></trkpt><trkpt lat="38.08409124225319" lon="13.12459509337758"><ele>152.2</ele><time>2026-03-29T10:28:08Z</time></trkpt><trkpt lat="38.08398858507427" lon="13.124584129214364"><ele>151.6</ele><time>2026-03-29T10:28:09Z</time></trkpt><trkpt lat="38.08388546339022" lon="13.124630081788588"><ele>151.0</ele><time>2026-03-29T10:28:10Z</time></trkpt><trkpt lat="38.083760990739044" lon="13.124712396230086"><ele>149.0</ele><time>2026-03-29T10:28:11Z</time></trkpt><trkpt lat="38.08364027771138" lon="13.124801415881853"><ele>147.0</ele><time>2026-03-29T10:28:12Z</time></trkpt><trkpt lat="38.08353594282215" lon="13.124828109047609"><ele>145.0</ele><time>2026-03-29T10:28:13Z</time></trkpt><trkpt lat="38.083433228008204" lon="13.124798754275812"><ele>143.0</ele><time>2026-03-29T10:28:14Z</time></trkpt><trkpt lat="38.083357817500676" lon="13.12472654226741"><ele>141.0</ele><time>2026-03-29T10:28:15Z</time></trkpt><trkpt lat="38.08330141223937" lon="13.124617889155997"><ele>141.0</ele><time>2026-03-29T10:28:16Z</time></trkpt><trkpt lat="38.083271946329056" lon="13.124470782452033"><ele>141.0</ele><time>2026-03-29T10:28:17Z</time></trkpt><trkpt lat="38.0832451148394" lon="13.124316995311618"><ele>141.0</ele><time>2026-03-29T10:28:18Z</time></trkpt><trkpt lat="38.08320949586673" lon="13.124177298252212"><ele>141.0</ele><time>2026-03-29T10:28:19Z</time></trkpt><trkpt lat="38.0831162617028" lon="13.123952275571606"><ele>138.33333333333334</ele><time>2026-03-29T10:28:20Z</time></trkpt><trkpt lat="38.08306516777564" lon="13.12377074477645"><ele>135.66666666666669</ele><time>2026-03-29T10:28:21Z</time></trkpt><trkpt lat="38.083016725484036" lon="13.123603948695573"><ele>133.0</ele><time>2026-03-29T10:28:22Z</time></trkpt><trkpt lat="38.0829898791892" lon="13.123405607114048"><ele>132.66666666666669</ele><time>2026-03-29T10:28:23Z</time></trkpt><trkpt lat="38.08298422682867" lon="13.123186481594468"><ele>132.33333333333334</ele><time>2026-03-29T10:28:24Z</time></trkpt><trkpt lat="38.08296109436382" lon="13.122950470558292"><ele>132.0</ele><time>2026-03-29T10:28:25Z</time></trkpt><trkpt lat="38.08292354085049" lon="13.122715962276178"><ele>132.0</ele><time>2026-03-29T10:28:26Z</time></trkpt><trkpt lat="38.0828898128126" lon="13.1224836364163"><ele>132.0</ele><time>2026-03-29T10:28:27Z</time></trkpt><trkpt lat="38.08285050675153" lon="13.122263098567334"><ele>132.0</ele><time>2026-03-29T10:28:28Z</time></trkpt><trkpt lat="38.08283027165745" lon="13.122043768681369"><ele>131.66666666666666</ele><time>2026-03-29T10:28:29Z</time></trkpt><trkpt lat="38.082786947895826" lon="13.121834699378228"><ele>131.33333333333331</ele><time>2026-03-29T10:28:30Z</time></trkpt><trkpt lat="38.08275706086037" lon="13.121618706875015"><ele>131.0</ele><time>2026-03-29T10:28:31Z</time></trkpt><trkpt lat="38.08272327223152" lon="13.12140525842323"><ele>130.0</ele><time>2026-03-29T10:28:32Z</time></trkpt><trkpt lat="38.08269835160112" lon="13.12118937192508"><ele>129.0</ele><time>2026-03-29T10:28:33Z</time></trkpt><trkpt lat="38.082672196702276" lon="13.120981972657171"><ele>128.0</ele><time>2026-03-29T10:28:34Z</time></trkpt><trkpt lat="38.082676919459416" lon="13.120769042993752"><ele>127.33333333333333</ele><time>2026-03-29T10:28:35Z</time></trkpt><trkpt lat="38.08267847423692" lon="13.12055594130493"><ele>126.66666666666666</ele><time>2026-03-29T10:28:36Z</time></trkpt><trkpt lat="38.08266524266054" lon="13.120339342963355"><ele>126.0</ele><time>2026-03-29T10:28:37Z</time></trkpt><trkpt lat="38.082670805009265" lon="13.120118155018814"><ele>126.0</ele><time>2026-03-29T10:28:38Z</time></trkpt><trkpt lat="38.082669779210306" lon="13.119905874837158"><ele>126.0</ele><time>2026-03-29T10:28:39Z</time></trkpt><trkpt lat="38.08266755329274" lon="13.119687243562009"><ele>126.0</ele><time>2026-03-29T10:28:40Z</time></trkpt><trkpt lat="38.08266750238283" lon="13.119468917810208"><ele>126.0</ele><time>2026-03-29T10:28:41Z</time></trkpt><trkpt lat="38.08267354730078" lon="13.119253834733858"><ele>126.0</ele><time>2026-03-29T10:28:42Z</time></trkpt><trkpt lat="38.08267448676992" lon="13.119035353850471"><ele>126.0</ele><time>2026-03-29T10:28:43Z</time></trkpt><trkpt lat="38.08265460470216" lon="13.118828206244444"><ele>124.33333333333334</ele><time>2026-03-29T10:28:44Z</time></trkpt><trkpt lat="38.08260884139377" lon="13.118636712851742"><ele>122.66666666666667</ele><time>2026-03-29T10:28:45Z</time></trkpt><trkpt lat="38.0825682371035" lon="13.118454606438261"><ele>121.0</ele><time>2026-03-29T10:28:46Z</time></trkpt><trkpt lat="38.08254726071503" lon="13.118271094723866"><ele>119.75</ele><time>2026-03-29T10:28:47Z</time></trkpt><trkpt lat="38.08253824788106" lon="13.1181150218443"><ele>118.5</ele><time>2026-03-29T10:28:48Z</time></trkpt><trkpt lat="38.08262224674854" lon="13.117985641686966"><ele>117.25</ele><time>2026-03-29T10:28:49Z</time></trkpt><trkpt lat="38.082711176082505" lon="13.117860681272141"><ele>116.0</ele><time>2026-03-29T10:28:50Z</time></trkpt><trkpt lat="38.082816246975234" lon="13.117714457684249"><ele>116.0</ele><time>2026-03-29T10:28:51Z</time></trkpt><trkpt lat="38.08291852594772" lon="13.117555395925688"><ele>116.0</ele><time>2026-03-29T10:28:52Z</time></trkpt><trkpt lat="38.083051228114876" lon="13.11742042277645"><ele>116.0</ele><time>2026-03-29T10:28:53Z</time></trkpt><trkpt lat="38.08318052978432" lon="13.117282173668558"><ele>116.0</ele><time>2026-03-29T10:28:54Z</time></trkpt><trkpt lat="38.083327289637296" lon="13.117187944637845"><ele>116.0</ele><time>2026-03-29T10:28:55Z</time></trkpt><trkpt lat="38.08349161773597" lon="13.117082804863383"><ele>116.0</ele><time>2026-03-29T10:28:56Z</time></trkpt><trkpt lat="38.083648787607764" lon="13.116974039543049"><ele>116.0</ele><time>2026-03-29T10:28:57Z</time></trkpt><trkpt lat="38.083773500300396" lon="13.116815118684563"><ele>116.0</ele><time>2026-03-29T10:28:58Z</time></trkpt><trkpt lat="38.08387133250319" lon="13.11663233491814"><ele>116.0</ele><time>2026-03-29T10:28:59Z</time></trkpt><trkpt lat="38.08397277485782" lon="13.11642296739961"><ele>116.0</ele><time>2026-03-29T10:29:00Z</time></trkpt><trkpt lat="38.08405579832557" lon="13.116204282998673"><ele>116.0</ele><time>2026-03-29T10:29:01Z</time></trkpt><trkpt lat="38.084135666819314" lon="13.115979539654502"><ele>116.0</ele><time>2026-03-29T10:29:02Z</time></trkpt><trkpt lat="38.08422163240281" lon="13.11575687895266"><ele>117.33333333333333</ele><time>2026-03-29T10:29:03Z</time></trkpt><trkpt lat="38.08430604386671" lon="13.115542140751689"><ele>118.66666666666666</ele><time>2026-03-29T10:29:04Z</time></trkpt><trkpt lat="38.08438069231352" lon="13.115348098052634"><ele>120.0</ele><time>2026-03-29T10:29:05Z</time></trkpt><trkpt lat="38.08443652559308" lon="13.11515901440464"><ele>120.0</ele><time>2026-03-29T10:29:06Z</time></trkpt><trkpt lat="38.08447945621233" lon="13.114980734977529"><ele>120.0</ele><time>2026-03-29T10:29:07Z</time></trkpt><trkpt lat="38.08452657471933" lon="13.114783798258726"><ele>120.0</ele><time>2026-03-29T10:29:08Z</time></trkpt><trkpt lat="38.0845817933292" lon="13.114605343821392"><ele>120.0</ele><time>2026-03-29T10:29:09Z</time></trkpt><trkpt lat="38.08466821487689" lon="13.11442185935959"><ele>120.0</ele><time>2026-03-29T10:29:10Z</time></trkpt><trkpt lat="38.084769305757135" lon="13.114278262652205"><ele>120.0</ele><time>2026-03-29T10:29:11Z</time></trkpt><trkpt lat="38.084908814250625" lon="13.114163735799597"><ele>120.66666666666666</ele><time>2026-03-29T10:29:12Z</time></trkpt><trkpt lat="38.085037893523875" lon="13.114037550342552"><ele>121.33333333333333</ele><time>2026-03-29T10:29:13Z</time></trkpt><trkpt lat="38.08519582779492" lon="13.113919739829825"><ele>122.0</ele><time>2026-03-29T10:29:14Z</time></trkpt><trkpt lat="38.085342149930945" lon="13.113789002298251"><ele>122.0</ele><time>2026-03-29T10:29:15Z</time></trkpt><trkpt lat="38.08549157522977" lon="13.113660636157453"><ele>122.0</ele><time>2026-03-29T10:29:16Z</time></trkpt><trkpt lat="38.08564720175111" lon="13.113524047486397"><ele>122.0</ele><time>2026-03-29T10:29:17Z</time></trkpt><trkpt lat="38.085803683817666" lon="13.113390788109394"><ele>123.66666666666666</ele><time>2026-03-29T10:29:18Z</time></trkpt><trkpt lat="38.08594353860491" lon="13.113278246331474"><ele>125.33333333333334</ele><time>2026-03-29T10:29:19Z</time></trkpt><trkpt lat="38.086059279204775" lon="13.113167112985712"><ele>127.0</ele><time>2026-03-29T10:29:20Z</time></trkpt><trkpt lat="38.08615398152094" lon="13.113026871638684"><ele>127.0</ele><time>2026-03-29T10:29:21Z</time></trkpt><trkpt lat="38.08620991250589" lon="13.112873652295358"><ele>127.0</ele><time>2026-03-29T10:29:22Z</time></trkpt><trkpt lat="38.08624057465947" lon="13.112697184772355"><ele>127.0</ele><time>2026-03-29T10:29:23Z</time></trkpt><trkpt lat="38.086259305953156" lon="13.112512616002494"><ele>127.0</ele><time>2026-03-29T10:29:24Z</time></trkpt><trkpt lat="38.08628243797913" lon="13.112319348003114"><ele>127.33333333333334</ele><time>2026-03-29T10:29:25Z</time></trkpt><trkpt lat="38.086316455330895" lon="13.112119913592313"><ele>127.66666666666666</ele><time>2026-03-29T10:29:26Z</time></trkpt><trkpt lat="38.08636169229455" lon="13.111896992428099"><ele>128.0</ele><time>2026-03-29T10:29:27Z</time></trkpt><trkpt lat="38.08640591473306" lon="13.111667310663309"><ele>127.66666666666666</ele><time>2026-03-29T10:29:28Z</time></trkpt><trkpt lat="38.08644322539196" lon="13.11144401068101"><ele>127.33333333333334</ele><time>2026-03-29T10:29:29Z</time></trkpt><trkpt lat="38.08646700407272" lon="13.111233400758941"><ele>127.0</ele><time>2026-03-29T10:29:30Z</time></trkpt><trkpt lat="38.0864942981094" lon="13.111055296135874"><ele>127.0</ele><time>2026-03-29T10:29:31Z</time></trkpt><trkpt lat="38.08651776819788" lon="13.11090236044851"><ele>126.99999999999999</ele><time>2026-03-29T10:29:32Z</time></trkpt><trkpt lat="38.086543378241494" lon="13.11077711499019"><ele>126.99999999999999</ele><time>2026-03-29T10:29:33Z</time></trkpt><trkpt lat="38.0865901479524" lon="13.110689969121616"><ele>127.0</ele><time>2026-03-29T10:29:34Z</time></trkpt><trkpt lat="38.0866908008543" lon="13.11065242101375"><ele>127.0</ele><time>2026-03-29T10:29:36Z</time></trkpt><trkpt lat="38.0867413853853" lon="13.110723700618138"><ele>127.75</ele><time>2026-03-29T10:29:37Z</time></trkpt><trkpt lat="38.08680667859895" lon="13.110754994044527"><ele>128.5</ele><time>2026-03-29T10:29:38Z</time></trkpt><trkpt lat="38.08691185658108" lon="13.110785892045298"><ele>129.25</ele><time>2026-03-29T10:29:39Z</time></trkpt><trkpt lat="38.08703310975507" lon="13.110840606022352"><ele>130.0</ele><time>2026-03-29T10:29:40Z</time></trkpt><trkpt lat="38.08716907135622" lon="13.110908666534828"><ele>130.0</ele><time>2026-03-29T10:29:41Z</time></trkpt><trkpt lat="38.08732338353844" lon="13.110980655352305"><ele>130.0</ele><time>2026-03-29T10:29:42Z</time></trkpt><trkpt lat="38.0874793842028" lon="13.11104614400319"><ele>130.0</ele><time>2026-03-29T10:29:43Z</time></trkpt><trkpt lat="38.087635609860975" lon="13.11111688857999"><ele>130.75</ele><time>2026-03-29T10:29:44Z</time></trkpt><trkpt lat="38.08778377885501" lon="13.111182029839037"><ele>131.5</ele><time>2026-03-29T10:29:45Z</time></trkpt><trkpt lat="38.08791618963323" lon="13.111244812242045"><ele>132.25</ele><time>2026-03-29T10:29:46Z</time></trkpt><trkpt lat="38.08804190946953" lon="13.111298320247238"><ele>133.0</ele><time>2026-03-29T10:29:47Z</time></trkpt><trkpt lat="38.088150295015204" lon="13.11132356290423"><ele>133.0</ele><time>2026-03-29T10:29:48Z</time></trkpt><trkpt lat="38.08824208019964" lon="13.111312769134289"><ele>133.0</ele><time>2026-03-29T10:29:49Z</time></trkpt><trkpt lat="38.08830672563669" lon="13.11125452234611"><ele>133.0</ele><time>2026-03-29T10:29:50Z</time></trkpt><trkpt lat="38.0883347589574" lon="13.111154480742089"><ele>133.0</ele><time>2026-03-29T10:29:51Z</time></trkpt><trkpt lat="38.088336512014656" lon="13.111031780584728"><ele>133.0</ele><time>2026-03-29T10:29:52Z</time></trkpt><trkpt lat="38.08832931098492" lon="13.110877914346759"><ele>132.25</ele><time>2026-03-29T10:29:53Z</time></trkpt><trkpt lat="38.08835356324892" lon="13.110708474629659"><ele>131.5</ele><time>2026-03-29T10:29:54Z</time></trkpt><trkpt lat="38.08837086723966" lon="13.11052983014268"><ele>130.75</ele><time>2026-03-29T10:29:55Z</time></trkpt><trkpt lat="38.08840071177467" lon="13.110369572772964"><ele>130.0</ele><time>2026-03-29T10:29:56Z</time></trkpt><trkpt lat="38.08846491015511" lon="13.110251227378686"><ele>130.0</ele><time>2026-03-29T10:29:57Z</time></trkpt><trkpt lat="38.08855152082493" lon="13.110179442102064"><ele>130.0</ele><time>2026-03-29T10:29:58Z</time></trkpt><trkpt lat="38.08865025095749" lon="13.11011674041981"><ele>130.0</ele><time>2026-03-29T10:29:59Z</time></trkpt><trkpt lat="38.088774850147125" lon="13.1100405508666"><ele>130.0</ele><time>2026-03-29T10:30:00Z</time></trkpt><trkpt lat="38.088919313102735" lon="13.109962933002368"><ele>128.0</ele><time>2026-03-29T10:30:01Z</time></trkpt><trkpt lat="38.08906077099578" lon="13.109887702831308"><ele>126.0</ele><time>2026-03-29T10:30:02Z</time></trkpt><trkpt lat="38.08919070231022" lon="13.10981358988231"><ele>124.0</ele><time>2026-03-29T10:30:03Z</time></trkpt><trkpt lat="38.08930696853213" lon="13.109733655726236"><ele>122.0</ele><time>2026-03-29T10:30:04Z</time></trkpt><trkpt lat="38.08941527846868" lon="13.109619625613588"><ele>121.66666666666666</ele><time>2026-03-29T10:30:05Z</time></trkpt><trkpt lat="38.08950737449302" lon="13.10946546788343"><ele>121.33333333333334</ele><time>2026-03-29T10:30:06Z</time></trkpt><trkpt lat="38.0896043354501" lon="13.10929522714994"><ele>121.0</ele><time>2026-03-29T10:30:07Z</time></trkpt><trkpt lat="38.08969903917776" lon="13.109129603078177"><ele>121.33333333333334</ele><time>2026-03-29T10:30:08Z</time></trkpt><trkpt lat="38.08976946430252" lon="13.108945418946261"><ele>121.66666666666666</ele><time>2026-03-29T10:30:09Z</time></trkpt><trkpt lat="38.08980010658658" lon="13.10874881945491"><ele>122.0</ele><time>2026-03-29T10:30:10Z</time></trkpt><trkpt lat="38.089812240874394" lon="13.108523602084668"><ele>122.0</ele><time>2026-03-29T10:30:11Z</time></trkpt><trkpt lat="38.089825112057376" lon="13.108318748496878"><ele>122.0</ele><time>2026-03-29T10:30:12Z</time></trkpt><trkpt lat="38.08984543484303" lon="13.108108293501934"><ele>122.0</ele><time>2026-03-29T10:30:13Z</time></trkpt><trkpt lat="38.08986414342891" lon="13.107890727048083"><ele>125.66666666666666</ele><time>2026-03-29T10:30:14Z</time></trkpt><trkpt lat="38.089883196507195" lon="13.107674744527879"><ele>129.33333333333334</ele><time>2026-03-29T10:30:15Z</time></trkpt><trkpt lat="38.08990634979221" lon="13.10746563751521"><ele>133.0</ele><time>2026-03-29T10:30:16Z</time></trkpt><trkpt lat="38.08993535232811" lon="13.107275916208353"><ele>135.0</ele><time>2026-03-29T10:30:17Z</time></trkpt><trkpt lat="38.089987292196014" lon="13.10707546349966"><ele>137.0</ele><time>2026-03-29T10:30:18Z</time></trkpt><trkpt lat="38.09001840663174" lon="13.106877423156206"><ele>139.0</ele><time>2026-03-29T10:30:19Z</time></trkpt><trkpt lat="38.09007088382039" lon="13.106679787778416"><ele>138.66666666666669</ele><time>2026-03-29T10:30:20Z</time></trkpt><trkpt lat="38.09012232838723" lon="13.106469246476694"><ele>138.33333333333334</ele><time>2026-03-29T10:30:21Z</time></trkpt><trkpt lat="38.09016828613685" lon="13.106277676800138"><ele>138.0</ele><time>2026-03-29T10:30:22Z</time></trkpt><trkpt lat="38.090216642902035" lon="13.106080612192137"><ele>138.0</ele><time>2026-03-29T10:30:23Z</time></trkpt><trkpt lat="38.09026713056969" lon="13.105875359692416"><ele>138.0</ele><time>2026-03-29T10:30:24Z</time></trkpt><trkpt lat="38.09031151850244" lon="13.105660757680246"><ele>138.0</ele><time>2026-03-29T10:30:25Z</time></trkpt><trkpt lat="38.090354326300464" lon="13.105453814394592"><ele>137.0</ele><time>2026-03-29T10:30:26Z</time></trkpt><trkpt lat="38.09040400559047" lon="13.10524434895725"><ele>136.0</ele><time>2026-03-29T10:30:27Z</time></trkpt><trkpt lat="38.090447193711015" lon="13.105030795121458"><ele>135.0</ele><time>2026-03-29T10:30:28Z</time></trkpt><trkpt lat="38.09047476078601" lon="13.104815516338371"><ele>134.66666666666666</ele><time>2026-03-29T10:30:29Z</time></trkpt><trkpt lat="38.09049575741807" lon="13.104607813725737"><ele>134.33333333333331</ele><time>2026-03-29T10:30:30Z</time></trkpt><trkpt lat="38.09051753813881" lon="13.104399353191235"><ele>134.0</ele><time>2026-03-29T10:30:31Z</time></trkpt><trkpt lat="38.090540645262266" lon="13.104201285913199"><ele>132.66666666666666</ele><time>2026-03-29T10:30:32Z</time></trkpt><trkpt lat="38.090564298288" lon="13.104008814186656"><ele>131.33333333333334</ele><time>2026-03-29T10:30:33Z</time></trkpt><trkpt lat="38.090592394131015" lon="13.103797708787416"><ele>130.0</ele><time>2026-03-29T10:30:34Z</time></trkpt><trkpt lat="38.09061761982418" lon="13.103612355217699"><ele>130.0</ele><time>2026-03-29T10:30:35Z</time></trkpt><trkpt lat="38.09063858411906" lon="13.103410303233979"><ele>130.0</ele><time>2026-03-29T10:30:36Z</time></trkpt><trkpt lat="38.090673040882294" lon="13.103219005759975"><ele>130.0</ele><time>2026-03-29T10:30:37Z</time></trkpt><trkpt lat="38.09069573296063" lon="13.103031805600489"><ele>129.33333333333334</ele><time>2026-03-29T10:30:38Z</time></trkpt><trkpt lat="38.09071014096543" lon="13.102833204793574"><ele>128.66666666666666</ele><time>2026-03-29T10:30:39Z</time></trkpt><trkpt lat="38.09073942785015" lon="13.102630160241633"><ele>128.0</ele><time>2026-03-29T10:30:40Z</time></trkpt><trkpt lat="38.09076648281751" lon="13.102438721529264"><ele>129.0</ele><time>2026-03-29T10:30:41Z</time></trkpt><trkpt lat="38.09080697337585" lon="13.102251164181268"><ele>130.0</ele><time>2026-03-29T10:30:42Z</time></trkpt><trkpt lat="38.09085074355631" lon="13.10205166423052"><ele>131.0</ele><time>2026-03-29T10:30:43Z</time></trkpt><trkpt lat="38.09090507792039" lon="13.101867773570547"><ele>131.0</ele><time>2026-03-29T10:30:44Z</time></trkpt><trkpt lat="38.090949962157694" lon="13.10166631658455"><ele>131.0</ele><time>2026-03-29T10:30:45Z</time></trkpt><trkpt lat="38.09099650739693" lon="13.101474862411992"><ele>131.0</ele><time>2026-03-29T10:30:46Z</time></trkpt><trkpt lat="38.09103826969329" lon="13.101277718166997"><ele>131.0</ele><time>2026-03-29T10:30:47Z</time></trkpt><trkpt lat="38.09107679522209" lon="13.101081571421625"><ele>131.0</ele><time>2026-03-29T10:30:48Z</time></trkpt><trkpt lat="38.09109658868986" lon="13.10086909828907"><ele>131.0</ele><time>2026-03-29T10:30:49Z</time></trkpt><trkpt lat="38.0911278327052" lon="13.100669525854366"><ele>129.66666666666666</ele><time>2026-03-29T10:30:50Z</time></trkpt><trkpt lat="38.091143227078085" lon="13.100463300386574"><ele>128.33333333333334</ele><time>2026-03-29T10:30:51Z</time></trkpt><trkpt lat="38.09117497880652" lon="13.100258721338538"><ele>127.0</ele><time>2026-03-29T10:30:52Z</time></trkpt><trkpt lat="38.09118853575865" lon="13.100057658196803"><ele>127.0</ele><time>2026-03-29T10:30:53Z</time></trkpt><trkpt lat="38.09120342093042" lon="13.099869813183165"><ele>127.0</ele><time>2026-03-29T10:30:54Z</time></trkpt><trkpt lat="38.09122710114642" lon="13.0997044315333"><ele>127.0</ele><time>2026-03-29T10:30:55Z</time></trkpt><trkpt lat="38.0912454116151" lon="13.099548794526713"><ele>127.0</ele><time>2026-03-29T10:30:56Z</time></trkpt><trkpt lat="38.09126590571185" lon="13.099402590755632"><ele>127.0</ele><time>2026-03-29T10:30:57Z</time></trkpt><trkpt lat="38.091296106145414" lon="13.099266806151414"><ele>126.99999999999999</ele><time>2026-03-29T10:30:58Z</time></trkpt><trkpt lat="38.09135675029464" lon="13.099156086241653"><ele>126.99999999999999</ele><time>2026-03-29T10:30:59Z</time></trkpt><trkpt lat="38.09141600713831" lon="13.099030070504153"><ele>127.0</ele><time>2026-03-29T10:31:00Z</time></trkpt><trkpt lat="38.091489494771764" lon="13.098914912639081"><ele>127.0</ele><time>2026-03-29T10:31:01Z</time></trkpt><trkpt lat="38.09157865645171" lon="13.098790392483535"><ele>127.25</ele><time>2026-03-29T10:31:02Z</time></trkpt><trkpt lat="38.091674243927294" lon="13.098666250624582"><ele>127.5</ele><time>2026-03-29T10:31:03Z</time></trkpt><trkpt lat="38.09176891584725" lon="13.098518249300948"><ele>127.75</ele><time>2026-03-29T10:31:04Z</time></trkpt><trkpt lat="38.09186870900071" lon="13.098395145031969"><ele>128.0</ele><time>2026-03-29T10:31:05Z</time></trkpt><trkpt lat="38.091969038662675" lon="13.098264247340781"><ele>127.33333333333333</ele><time>2026-03-29T10:31:06Z</time></trkpt><trkpt lat="38.09208488145222" lon="13.0981388136563"><ele>126.66666666666666</ele><time>2026-03-29T10:31:07Z</time></trkpt><trkpt lat="38.092191421783205" lon="13.098002166038675"><ele>126.0</ele><time>2026-03-29T10:31:08Z</time></trkpt><trkpt lat="38.09230149341708" lon="13.097859346916193"><ele>126.0</ele><time>2026-03-29T10:31:09Z</time></trkpt><trkpt lat="38.09240420698582" lon="13.097725534913252"><ele>126.0</ele><time>2026-03-29T10:31:10Z</time></trkpt><trkpt lat="38.09250781425247" lon="13.097587131659806"><ele>126.0</ele><time>2026-03-29T10:31:11Z</time></trkpt><trkpt lat="38.09261467764503" lon="13.097444378515979"><ele>126.66666666666666</ele><time>2026-03-29T10:31:12Z</time></trkpt><trkpt lat="38.092706464299994" lon="13.097290049407496"><ele>127.33333333333333</ele><time>2026-03-29T10:31:13Z</time></trkpt><trkpt lat="38.09280980997975" lon="13.097145359319946"><ele>128.0</ele><time>2026-03-29T10:31:14Z</time></trkpt><trkpt lat="38.09290843354521" lon="13.09699305545378"><ele>128.0</ele><time>2026-03-29T10:31:15Z</time></trkpt><trkpt lat="38.09300240045102" lon="13.096843150019064"><ele>128.0</ele><time>2026-03-29T10:31:16Z</time></trkpt><trkpt lat="38.09309827181117" lon="13.096691357657514"><ele>128.0</ele><time>2026-03-29T10:31:17Z</time></trkpt><trkpt lat="38.09320115061627" lon="13.0965551061797"><ele>127.33333333333333</ele><time>2026-03-29T10:31:18Z</time></trkpt><trkpt lat="38.09329697275309" lon="13.096406579778888"><ele>126.66666666666666</ele><time>2026-03-29T10:31:19Z</time></trkpt><trkpt lat="38.09339416734371" lon="13.096258181683272"><ele>126.0</ele><time>2026-03-29T10:31:20Z</time></trkpt><trkpt lat="38.09351246881568" lon="13.096125692530869"><ele>126.0</ele><time>2026-03-29T10:31:21Z</time></trkpt><trkpt lat="38.09361542472543" lon="13.095983981316403"><ele>126.0</ele><time>2026-03-29T10:31:22Z</time></trkpt><trkpt lat="38.09370309821819" lon="13.09586120198347"><ele>126.0</ele><time>2026-03-29T10:31:23Z</time></trkpt><trkpt lat="38.09378579020539" lon="13.095745922819678"><ele>126.0</ele><time>2026-03-29T10:31:24Z</time></trkpt><trkpt lat="38.09387802586207" lon="13.095621333813042"><ele>126.0</ele><time>2026-03-29T10:31:25Z</time></trkpt><trkpt lat="38.09398003930277" lon="13.095484794942049"><ele>126.0</ele><time>2026-03-29T10:31:26Z</time></trkpt><trkpt lat="38.09407835902878" lon="13.095351948347403"><ele>126.0</ele><time>2026-03-29T10:31:27Z</time></trkpt><trkpt lat="38.09418223637626" lon="13.095209551548148"><ele>126.0</ele><time>2026-03-29T10:31:28Z</time></trkpt><trkpt lat="38.0942794752358" lon="13.095073154919396"><ele>126.0</ele><time>2026-03-29T10:31:29Z</time></trkpt><trkpt lat="38.09438713242782" lon="13.094922144519229"><ele>126.0</ele><time>2026-03-29T10:31:30Z</time></trkpt><trkpt lat="38.094493661349446" lon="13.094771981433672"><ele>126.0</ele><time>2026-03-29T10:31:31Z</time></trkpt><trkpt lat="38.09458434566313" lon="13.09461246807799"><ele>125.0</ele><time>2026-03-29T10:31:32Z</time></trkpt><trkpt lat="38.094687383776844" lon="13.094474016979984"><ele>124.0</ele><time>2026-03-29T10:31:33Z</time></trkpt><trkpt lat="38.09479352090077" lon="13.09433272361809"><ele>123.0</ele><time>2026-03-29T10:31:34Z</time></trkpt><trkpt lat="38.09490171507392" lon="13.094188061187968"><ele>122.33333333333334</ele><time>2026-03-29T10:31:35Z</time></trkpt><trkpt lat="38.09501093037685" lon="13.094040785029264"><ele>121.66666666666667</ele><time>2026-03-29T10:31:36Z</time></trkpt><trkpt lat="38.09511888208022" lon="13.09389908925206"><ele>121.0</ele><time>2026-03-29T10:31:37Z</time></trkpt><trkpt lat="38.0952362864933" lon="13.093752428822286"><ele>121.0</ele><time>2026-03-29T10:31:38Z</time></trkpt><trkpt lat="38.09534962821313" lon="13.093609632855053"><ele>121.0</ele><time>2026-03-29T10:31:39Z</time></trkpt><trkpt lat="38.09547301875375" lon="13.093462274382214"><ele>121.0</ele><time>2026-03-29T10:31:40Z</time></trkpt><trkpt lat="38.09558641358324" lon="13.093327027260704"><ele>121.0</ele><time>2026-03-29T10:31:41Z</time></trkpt><trkpt lat="38.09571258651066" lon="13.093174052534188"><ele>121.0</ele><time>2026-03-29T10:31:42Z</time></trkpt><trkpt lat="38.09583588315152" lon="13.093026812490379"><ele>121.0</ele><time>2026-03-29T10:31:43Z</time></trkpt><trkpt lat="38.0959614552515" lon="13.092879396617471"><ele>121.0</ele><time>2026-03-29T10:31:44Z</time></trkpt><trkpt lat="38.09608428153446" lon="13.092741242946463"><ele>121.0</ele><time>2026-03-29T10:31:45Z</time></trkpt><trkpt lat="38.09620760817809" lon="13.092606504005936"><ele>121.0</ele><time>2026-03-29T10:31:46Z</time></trkpt><trkpt lat="38.096335435872824" lon="13.092472701212285"><ele>120.0</ele><time>2026-03-29T10:31:47Z</time></trkpt><trkpt lat="38.09646519142492" lon="13.09234613317051"><ele>119.0</ele><time>2026-03-29T10:31:48Z</time></trkpt><trkpt lat="38.096591378973066" lon="13.09221754704542"><ele>118.0</ele><time>2026-03-29T10:31:49Z</time></trkpt><trkpt lat="38.096705912815416" lon="13.092087018592064"><ele>118.0</ele><time>2026-03-29T10:31:50Z</time></trkpt><trkpt lat="38.09681521134965" lon="13.091954892827264"><ele>118.0</ele><time>2026-03-29T10:31:51Z</time></trkpt><trkpt lat="38.09692059013042" lon="13.091821398330149"><ele>118.0</ele><time>2026-03-29T10:31:52Z</time></trkpt><trkpt lat="38.09702980462999" lon="13.091687207310827"><ele>117.25</ele><time>2026-03-29T10:31:53Z</time></trkpt><trkpt lat="38.09713549612279" lon="13.091560842307468"><ele>116.5</ele><time>2026-03-29T10:31:54Z</time></trkpt><trkpt lat="38.09724364260038" lon="13.0914305446399"><ele>115.75</ele><time>2026-03-29T10:31:55Z</time></trkpt><trkpt lat="38.09735163057597" lon="13.091299694735385"><ele>115.0</ele><time>2026-03-29T10:31:56Z</time></trkpt><trkpt lat="38.09746279564732" lon="13.091165002942157"><ele>115.0</ele><time>2026-03-29T10:31:57Z</time></trkpt><trkpt lat="38.097575674774376" lon="13.091032083893417"><ele>115.0</ele><time>2026-03-29T10:31:58Z</time></trkpt><trkpt lat="38.0976888371732" lon="13.090898436884723"><ele>115.0</ele><time>2026-03-29T10:31:59Z</time></trkpt><trkpt lat="38.09780062498559" lon="13.090762729926492"><ele>113.66666666666667</ele><time>2026-03-29T10:32:00Z</time></trkpt><trkpt lat="38.09791113131457" lon="13.090633372181786"><ele>112.33333333333334</ele><time>2026-03-29T10:32:01Z</time></trkpt><trkpt lat="38.09802609920834" lon="13.090498459598146"><ele>111.0</ele><time>2026-03-29T10:32:02Z</time></trkpt><trkpt lat="38.098144042506675" lon="13.090358503546186"><ele>111.66666666666666</ele><time>2026-03-29T10:32:03Z</time></trkpt><trkpt lat="38.09825767318202" lon="13.090223636955226"><ele>112.33333333333333</ele><time>2026-03-29T10:32:04Z</time></trkpt><trkpt lat="38.09836718557233" lon="13.090095008271243"><ele>113.0</ele><time>2026-03-29T10:32:05Z</time></trkpt><trkpt lat="38.098482723114884" lon="13.089956019950673"><ele>111.33333333333333</ele><time>2026-03-29T10:32:06Z</time></trkpt><trkpt lat="38.098597211683" lon="13.089814859535922"><ele>109.66666666666666</ele><time>2026-03-29T10:32:07Z</time></trkpt><trkpt lat="38.098705931760165" lon="13.089684565981372"><ele>108.0</ele><time>2026-03-29T10:32:08Z</time></trkpt><trkpt lat="38.09881707681041" lon="13.089556103096083"><ele>108.0</ele><time>2026-03-29T10:32:09Z</time></trkpt><trkpt lat="38.098930793014176" lon="13.089419165585648"><ele>108.0</ele><time>2026-03-29T10:32:10Z</time></trkpt><trkpt lat="38.09904597411339" lon="13.089283619231226"><ele>108.0</ele><time>2026-03-29T10:32:11Z</time></trkpt><trkpt lat="38.09915913729699" lon="13.089143374788637"><ele>108.0</ele><time>2026-03-29T10:32:12Z</time></trkpt><trkpt lat="38.099271129897005" lon="13.089010310887295"><ele>108.0</ele><time>2026-03-29T10:32:13Z</time></trkpt><trkpt lat="38.09938505564782" lon="13.088861723242209"><ele>108.0</ele><time>2026-03-29T10:32:14Z</time></trkpt><trkpt lat="38.09949862062251" lon="13.088733922972265"><ele>108.0</ele><time>2026-03-29T10:32:15Z</time></trkpt><trkpt lat="38.09961332554029" lon="13.08860716695641"><ele>108.0</ele><time>2026-03-29T10:32:16Z</time></trkpt><trkpt lat="38.09972856899208" lon="13.088456588118621"><ele>108.0</ele><time>2026-03-29T10:32:17Z</time></trkpt><trkpt lat="38.099844347697754" lon="13.088317011639145"><ele>107.0</ele><time>2026-03-29T10:32:18Z</time></trkpt><trkpt lat="38.099959557913024" lon="13.088177929695032"><ele>106.0</ele><time>2026-03-29T10:32:19Z</time></trkpt><trkpt lat="38.10007660753153" lon="13.08803033047521"><ele>105.0</ele><time>2026-03-29T10:32:20Z</time></trkpt><trkpt lat="38.10019877300578" lon="13.087897654193485"><ele>105.0</ele><time>2026-03-29T10:32:21Z</time></trkpt><trkpt lat="38.100321829032204" lon="13.087760527292144"><ele>105.0</ele><time>2026-03-29T10:32:22Z</time></trkpt><trkpt lat="38.100451651672294" lon="13.087623038042754"><ele>105.0</ele><time>2026-03-29T10:32:23Z</time></trkpt><trkpt lat="38.10058594802611" lon="13.0875184239937"><ele>104.0</ele><time>2026-03-29T10:32:24Z</time></trkpt><trkpt lat="38.100724680264605" lon="13.087410689772394"><ele>103.0</ele><time>2026-03-29T10:32:25Z</time></trkpt><trkpt lat="38.100866388025395" lon="13.087293995290466"><ele>102.0</ele><time>2026-03-29T10:32:26Z</time></trkpt><trkpt lat="38.10100638667462" lon="13.087195503598682"><ele>102.0</ele><time>2026-03-29T10:32:27Z</time></trkpt><trkpt lat="38.101145406958636" lon="13.087079951198142"><ele>102.0</ele><time>2026-03-29T10:32:28Z</time></trkpt><trkpt lat="38.101284286058075" lon="13.08697509214356"><ele>102.0</ele><time>2026-03-29T10:32:29Z</time></trkpt><trkpt lat="38.10142318875183" lon="13.086872759012763"><ele>102.0</ele><time>2026-03-29T10:32:30Z</time></trkpt><trkpt lat="38.101568008788874" lon="13.086753067052376"><ele>102.0</ele><time>2026-03-29T10:32:31Z</time></trkpt><trkpt lat="38.10170839729412" lon="13.086647392249146"><ele>102.0</ele><time>2026-03-29T10:32:32Z</time></trkpt><trkpt lat="38.10185230311707" lon="13.08653947537827"><ele>100.66666666666666</ele><time>2026-03-29T10:32:33Z</time></trkpt><trkpt lat="38.1019965000957" lon="13.086435489161747"><ele>99.33333333333333</ele><time>2026-03-29T10:32:34Z</time></trkpt><trkpt lat="38.10213833436063" lon="13.08632799078313"><ele>98.0</ele><time>2026-03-29T10:32:35Z</time></trkpt><trkpt lat="38.1022802757425" lon="13.086221354218843"><ele>98.33333333333333</ele><time>2026-03-29T10:32:36Z</time></trkpt><trkpt lat="38.10241967129135" lon="13.086106322858404"><ele>98.66666666666666</ele><time>2026-03-29T10:32:37Z</time></trkpt><trkpt lat="38.102560664699304" lon="13.085987945556518"><ele>99.0</ele><time>2026-03-29T10:32:38Z</time></trkpt><trkpt lat="38.102701767865376" lon="13.085886646428264"><ele>99.0</ele><time>2026-03-29T10:32:39Z</time></trkpt><trkpt lat="38.1028409304463" lon="13.085788995997179"><ele>99.0</ele><time>2026-03-29T10:32:40Z</time></trkpt><trkpt lat="38.10298146558451" lon="13.08567592450531"><ele>99.0</ele><time>2026-03-29T10:32:41Z</time></trkpt><trkpt lat="38.10311437642056" lon="13.085573254571827"><ele>98.0</ele><time>2026-03-29T10:32:42Z</time></trkpt><trkpt lat="38.10324642948317" lon="13.085469720604229"><ele>97.0</ele><time>2026-03-29T10:32:43Z</time></trkpt><trkpt lat="38.1033728056461" lon="13.085365134189404"><ele>96.0</ele><time>2026-03-29T10:32:44Z</time></trkpt><trkpt lat="38.10350339128037" lon="13.085257250833177"><ele>96.0</ele><time>2026-03-29T10:32:45Z</time></trkpt><trkpt lat="38.10363182047075" lon="13.085142499727166"><ele>96.0</ele><time>2026-03-29T10:32:46Z</time></trkpt><trkpt lat="38.10376014480773" lon="13.085038966761353"><ele>96.0</ele><time>2026-03-29T10:32:47Z</time></trkpt><trkpt lat="38.1038958994038" lon="13.084940013700121"><ele>96.0</ele><time>2026-03-29T10:32:48Z</time></trkpt><trkpt lat="38.10403356420919" lon="13.084842141263202"><ele>96.0</ele><time>2026-03-29T10:32:49Z</time></trkpt><trkpt lat="38.10417037139383" lon="13.084728514859716"><ele>96.0</ele><time>2026-03-29T10:32:50Z</time></trkpt><trkpt lat="38.10430551982897" lon="13.084633316581167"><ele>95.33333333333333</ele><time>2026-03-29T10:32:51Z</time></trkpt><trkpt lat="38.10445070265186" lon="13.084528916664194"><ele>94.66666666666666</ele><time>2026-03-29T10:32:52Z</time></trkpt><trkpt lat="38.104597161615054" lon="13.08445464610753"><ele>94.0</ele><time>2026-03-29T10:32:53Z</time></trkpt><trkpt lat="38.10474888354727" lon="13.084395289892958"><ele>94.0</ele><time>2026-03-29T10:32:54Z</time></trkpt><trkpt lat="38.104901852280584" lon="13.084330496995705"><ele>94.0</ele><time>2026-03-29T10:32:55Z</time></trkpt><trkpt lat="38.10505252319892" lon="13.084272249981256"><ele>94.0</ele><time>2026-03-29T10:32:56Z</time></trkpt><trkpt lat="38.105207084072106" lon="13.0841943788761"><ele>94.0</ele><time>2026-03-29T10:32:57Z</time></trkpt><trkpt lat="38.10535289548987" lon="13.084126484914092"><ele>94.0</ele><time>2026-03-29T10:32:58Z</time></trkpt><trkpt lat="38.10550770594719" lon="13.084043125117809"><ele>94.0</ele><time>2026-03-29T10:32:59Z</time></trkpt><trkpt lat="38.105659415926795" lon="13.083981934749083"><ele>93.66666666666666</ele><time>2026-03-29T10:33:00Z</time></trkpt><trkpt lat="38.10581235335856" lon="13.083901110355384"><ele>93.33333333333333</ele><time>2026-03-29T10:33:01Z</time></trkpt><trkpt lat="38.10596591739406" lon="13.083831548573745"><ele>93.0</ele><time>2026-03-29T10:33:02Z</time></trkpt><trkpt lat="38.10609767561838" lon="13.083777736604212"><ele>93.0</ele><time>2026-03-29T10:33:03Z</time></trkpt><trkpt lat="38.10623519838956" lon="13.083764292892397"><ele>93.0</ele><time>2026-03-29T10:33:04Z</time></trkpt><trkpt lat="38.106372192893176" lon="13.08371828960706"><ele>93.0</ele><time>2026-03-29T10:33:05Z</time></trkpt><trkpt lat="38.106521935545" lon="13.083707699767992"><ele>93.0</ele><time>2026-03-29T10:33:06Z</time></trkpt><trkpt lat="38.10667015011293" lon="13.083684773469288"><ele>92.66666666666667</ele><time>2026-03-29T10:33:07Z</time></trkpt><trkpt lat="38.10682178534764" lon="13.08365511706472"><ele>92.33333333333334</ele><time>2026-03-29T10:33:08Z</time></trkpt><trkpt lat="38.10697399230863" lon="13.08362439204255"><ele>92.0</ele><time>2026-03-29T10:33:09Z</time></trkpt><trkpt lat="38.10712668985699" lon="13.083598588103612"><ele>92.0</ele><time>2026-03-29T10:33:10Z</time></trkpt><trkpt lat="38.10728437438453" lon="13.08357898389317"><ele>92.0</ele><time>2026-03-29T10:33:11Z</time></trkpt><trkpt lat="38.107442450200004" lon="13.083557427485026"><ele>92.0</ele><time>2026-03-29T10:33:12Z</time></trkpt><trkpt lat="38.107597766261435" lon="13.083521441927315"><ele>91.0</ele><time>2026-03-29T10:33:13Z</time></trkpt><trkpt lat="38.10774231322039" lon="13.083482959283959"><ele>90.0</ele><time>2026-03-29T10:33:14Z</time></trkpt><trkpt lat="38.107871820521844" lon="13.083453046123282"><ele>89.0</ele><time>2026-03-29T10:33:15Z</time></trkpt><trkpt lat="38.10799685109508" lon="13.083422613899495"><ele>88.0</ele><time>2026-03-29T10:33:16Z</time></trkpt><trkpt lat="38.10811790153763" lon="13.083399975184047"><ele>87.75</ele><time>2026-03-29T10:33:17Z</time></trkpt><trkpt lat="38.10824892691912" lon="13.083379498749387"><ele>87.5</ele><time>2026-03-29T10:33:18Z</time></trkpt><trkpt lat="38.10838013499523" lon="13.083341884494784"><ele>87.25</ele><time>2026-03-29T10:33:19Z</time></trkpt><trkpt lat="38.10851646428275" lon="13.083283568514338"><ele>87.0</ele><time>2026-03-29T10:33:20Z</time></trkpt><trkpt lat="38.108634408745125" lon="13.083177655095891"><ele>86.0</ele><time>2026-03-29T10:33:21Z</time></trkpt><trkpt lat="38.108745490164466" lon="13.083050185844879"><ele>85.0</ele><time>2026-03-29T10:33:22Z</time></trkpt><trkpt lat="38.10883491544025" lon="13.08291148451013"><ele>84.0</ele><time>2026-03-29T10:33:23Z</time></trkpt><trkpt lat="38.10892753933985" lon="13.082775427770798"><ele>83.0</ele><time>2026-03-29T10:33:24Z</time></trkpt><trkpt lat="38.10905299254885" lon="13.082703568806924"><ele>82.66666666666667</ele><time>2026-03-29T10:33:25Z</time></trkpt><trkpt lat="38.10915180363872" lon="13.082569564667532"><ele>82.33333333333333</ele><time>2026-03-29T10:33:26Z</time></trkpt><trkpt lat="38.1092658584292" lon="13.082443933021402"><ele>82.0</ele><time>2026-03-29T10:33:27Z</time></trkpt><trkpt lat="38.10939433244192" lon="13.08233211698526"><ele>81.0</ele><time>2026-03-29T10:33:28Z</time></trkpt><trkpt lat="38.10951937835407" lon="13.082215760924544"><ele>80.0</ele><time>2026-03-29T10:33:29Z</time></trkpt><trkpt lat="38.10964495744081" lon="13.082086878755533"><ele>79.0</ele><time>2026-03-29T10:33:30Z</time></trkpt><trkpt lat="38.10975669782314" lon="13.081959588066104"><ele>79.0</ele><time>2026-03-29T10:33:31Z</time></trkpt><trkpt lat="38.10986851047312" lon="13.08183125179984"><ele>79.0</ele><time>2026-03-29T10:33:32Z</time></trkpt><trkpt lat="38.109981764171586" lon="13.081701871246239"><ele>79.0</ele><time>2026-03-29T10:33:33Z</time></trkpt><trkpt lat="38.110087594664364" lon="13.081588388414493"><ele>79.0</ele><time>2026-03-29T10:33:34Z</time></trkpt><trkpt lat="38.11018712934187" lon="13.081481190630292"><ele>78.0</ele><time>2026-03-29T10:33:35Z</time></trkpt><trkpt lat="38.11028626938943" lon="13.08138779627278"><ele>77.0</ele><time>2026-03-29T10:33:36Z</time></trkpt><trkpt lat="38.110383112469215" lon="13.081304674499421"><ele>76.0</ele><time>2026-03-29T10:33:37Z</time></trkpt><trkpt lat="38.11049452665874" lon="13.08121714478842"><ele>75.0</ele><time>2026-03-29T10:33:38Z</time></trkpt><trkpt lat="38.110614201209735" lon="13.081129815911389"><ele>75.0</ele><time>2026-03-29T10:33:39Z</time></trkpt><trkpt lat="38.11073994254821" lon="13.081032744291655"><ele>75.0</ele><time>2026-03-29T10:33:40Z</time></trkpt><trkpt lat="38.11086667605269" lon="13.08093085917304"><ele>75.0</ele><time>2026-03-29T10:33:41Z</time></trkpt><trkpt lat="38.11099280545826" lon="13.080816094747055"><ele>73.66666666666667</ele><time>2026-03-29T10:33:42Z</time></trkpt><trkpt lat="38.111128896550596" lon="13.080708173504657"><ele>72.33333333333334</ele><time>2026-03-29T10:33:43Z</time></trkpt><trkpt lat="38.11126133808482" lon="13.080605504815255"><ele>71.0</ele><time>2026-03-29T10:33:44Z</time></trkpt><trkpt lat="38.11139491819942" lon="13.080500753767627"><ele>71.0</ele><time>2026-03-29T10:33:45Z</time></trkpt><trkpt lat="38.11152873513243" lon="13.080386544887627"><ele>71.0</ele><time>2026-03-29T10:33:46Z</time></trkpt><trkpt lat="38.11165905823768" lon="13.080289328537166"><ele>71.0</ele><time>2026-03-29T10:33:47Z</time></trkpt><trkpt lat="38.11179829184326" lon="13.080166365754454"><ele>71.0</ele><time>2026-03-29T10:33:48Z</time></trkpt><trkpt lat="38.11193158893139" lon="13.08007360015882"><ele>71.0</ele><time>2026-03-29T10:33:49Z</time></trkpt><trkpt lat="38.112067053261505" lon="13.079959776048653"><ele>71.0</ele><time>2026-03-29T10:33:50Z</time></trkpt><trkpt lat="38.1121995964792" lon="13.079856081844037"><ele>70.66666666666667</ele><time>2026-03-29T10:33:51Z</time></trkpt><trkpt lat="38.11233052344252" lon="13.079734590142822"><ele>70.33333333333333</ele><time>2026-03-29T10:33:52Z</time></trkpt><trkpt lat="38.11246106597724" lon="13.079635988946356"><ele>70.0</ele><time>2026-03-29T10:33:53Z</time></trkpt><trkpt lat="38.11259199189467" lon="13.079530146559998"><ele>70.0</ele><time>2026-03-29T10:33:54Z</time></trkpt><trkpt lat="38.112717901055085" lon="13.07941720780062"><ele>70.0</ele><time>2026-03-29T10:33:55Z</time></trkpt><trkpt lat="38.11284772324198" lon="13.079304431392341"><ele>70.0</ele><time>2026-03-29T10:33:56Z</time></trkpt><trkpt lat="38.1129806827198" lon="13.079205489983675"><ele>69.33333333333333</ele><time>2026-03-29T10:33:57Z</time></trkpt><trkpt lat="38.11311933356517" lon="13.079095790786866"><ele>68.66666666666667</ele><time>2026-03-29T10:33:58Z</time></trkpt><trkpt lat="38.113252327244716" lon="13.078983247185018"><ele>68.0</ele><time>2026-03-29T10:33:59Z</time></trkpt><trkpt lat="38.11339210783861" lon="13.07887055980176"><ele>67.66666666666667</ele><time>2026-03-29T10:34:00Z</time></trkpt><trkpt lat="38.11353042246061" lon="13.078765373199316"><ele>67.33333333333333</ele><time>2026-03-29T10:34:01Z</time></trkpt><trkpt lat="38.113674669688805" lon="13.078639079455227"><ele>67.0</ele><time>2026-03-29T10:34:02Z</time></trkpt><trkpt lat="38.113819543226704" lon="13.078520292905733"><ele>67.0</ele><time>2026-03-29T10:34:03Z</time></trkpt><trkpt lat="38.11396128460155" lon="13.078401992582505"><ele>67.0</ele><time>2026-03-29T10:34:04Z</time></trkpt><trkpt lat="38.11410286920669" lon="13.078294215175921"><ele>67.0</ele><time>2026-03-29T10:34:05Z</time></trkpt><trkpt lat="38.11424395529256" lon="13.0781768105881"><ele>67.0</ele><time>2026-03-29T10:34:06Z</time></trkpt><trkpt lat="38.11437296100949" lon="13.078055993661057"><ele>67.0</ele><time>2026-03-29T10:34:07Z</time></trkpt><trkpt lat="38.11450585956609" lon="13.077947761893304"><ele>67.0</ele><time>2026-03-29T10:34:08Z</time></trkpt><trkpt lat="38.114660239772334" lon="13.077837357589074"><ele>67.0</ele><time>2026-03-29T10:34:09Z</time></trkpt><trkpt lat="38.11479866818267" lon="13.077725939008046"><ele>67.0</ele><time>2026-03-29T10:34:10Z</time></trkpt><trkpt lat="38.11493031809919" lon="13.077604898599082"><ele>67.0</ele><time>2026-03-29T10:34:11Z</time></trkpt><trkpt lat="38.1150687053586" lon="13.077485900292054"><ele>66.66666666666666</ele><time>2026-03-29T10:34:12Z</time></trkpt><trkpt lat="38.115216140395596" lon="13.077389923151285"><ele>66.33333333333333</ele><time>2026-03-29T10:34:13Z</time></trkpt><trkpt lat="38.11535123905373" lon="13.077257242991918"><ele>66.0</ele><time>2026-03-29T10:34:14Z</time></trkpt><trkpt lat="38.11549475724899" lon="13.077163807769741"><ele>66.0</ele><time>2026-03-29T10:34:15Z</time></trkpt><trkpt lat="38.11563008764537" lon="13.07704597708545"><ele>66.0</ele><time>2026-03-29T10:34:16Z</time></trkpt><trkpt lat="38.11577579684374" lon="13.07694902919032"><ele>66.0</ele><time>2026-03-29T10:34:17Z</time></trkpt><trkpt lat="38.11592370774705" lon="13.076859901075531"><ele>66.66666666666667</ele><time>2026-03-29T10:34:18Z</time></trkpt><trkpt lat="38.11606857077655" lon="13.076769133201305"><ele>67.33333333333334</ele><time>2026-03-29T10:34:19Z</time></trkpt><trkpt lat="38.11622840291281" lon="13.0767211011812"><ele>68.0</ele><time>2026-03-29T10:34:20Z</time></trkpt><trkpt lat="38.11639339517647" lon="13.076673471905725"><ele>68.0</ele><time>2026-03-29T10:34:21Z</time></trkpt><trkpt lat="38.1165671470877" lon="13.076620629587492"><ele>68.0</ele><time>2026-03-29T10:34:22Z</time></trkpt><trkpt lat="38.116742701364956" lon="13.076555058650007"><ele>68.0</ele><time>2026-03-29T10:34:23Z</time></trkpt><trkpt lat="38.11691435663454" lon="13.076496450042287"><ele>67.33333333333334</ele><time>2026-03-29T10:34:24Z</time></trkpt><trkpt lat="38.117077550080445" lon="13.076450930068832"><ele>66.66666666666667</ele><time>2026-03-29T10:34:25Z</time></trkpt><trkpt lat="38.117235836930554" lon="13.07640285415113"><ele>66.0</ele><time>2026-03-29T10:34:26Z</time></trkpt><trkpt lat="38.11739652172834" lon="13.07635598056721"><ele>66.0</ele><time>2026-03-29T10:34:27Z</time></trkpt><trkpt lat="38.11755592660014" lon="13.076311615860766"><ele>66.0</ele><time>2026-03-29T10:34:28Z</time></trkpt><trkpt lat="38.11772729958024" lon="13.076265376785598"><ele>66.0</ele><time>2026-03-29T10:34:29Z</time></trkpt><trkpt lat="38.11788833407837" lon="13.076208009427216"><ele>66.0</ele><time>2026-03-29T10:34:30Z</time></trkpt><trkpt lat="38.11805092293548" lon="13.076158969096271"><ele>66.0</ele><time>2026-03-29T10:34:31Z</time></trkpt><trkpt lat="38.118219728592024" lon="13.076113085207012"><ele>66.0</ele><time>2026-03-29T10:34:32Z</time></trkpt><trkpt lat="38.11838603802418" lon="13.076067456086925"><ele>66.0</ele><time>2026-03-29T10:34:33Z</time></trkpt><trkpt lat="38.118551271013864" lon="13.076025916809124"><ele>66.0</ele><time>2026-03-29T10:34:34Z</time></trkpt><trkpt lat="38.11871887742734" lon="13.075995557292604"><ele>66.0</ele><time>2026-03-29T10:34:35Z</time></trkpt><trkpt lat="38.11888117473439" lon="13.075968201907788"><ele>66.0</ele><time>2026-03-29T10:34:36Z</time></trkpt><trkpt lat="38.1190364327475" lon="13.075956692816774"><ele>66.0</ele><time>2026-03-29T10:34:37Z</time></trkpt><trkpt lat="38.11920015120482" lon="13.075947555222871"><ele>66.0</ele><time>2026-03-29T10:34:38Z</time></trkpt><trkpt lat="38.11934379155538" lon="13.075972262686822"><ele>66.0</ele><time>2026-03-29T10:34:39Z</time></trkpt><trkpt lat="38.11945989822439" lon="13.075986409421187"><ele>66.0</ele><time>2026-03-29T10:34:40Z</time></trkpt><trkpt lat="38.119563854886025" lon="13.07599540499996"><ele>66.0</ele><time>2026-03-29T10:34:41Z</time></trkpt><trkpt lat="38.11965683738157" lon="13.075999378861571"><ele>66.0</ele><time>2026-03-29T10:34:42Z</time></trkpt><trkpt lat="38.119732278225904" lon="13.07600409066892"><ele>66.0</ele><time>2026-03-29T10:34:43Z</time></trkpt><trkpt lat="38.11980805401121" lon="13.07601170325669"><ele>66.0</ele><time>2026-03-29T10:34:44Z</time></trkpt><trkpt lat="38.119881652329276" lon="13.07601911787455"><ele>66.0</ele><time>2026-03-29T10:34:45Z</time></trkpt><trkpt lat="38.11994586469352" lon="13.076027388597744"><ele>66.0</ele><time>2026-03-29T10:34:46Z</time></trkpt><trkpt lat="38.12000857404841" lon="13.076037258064101"><ele>66.0</ele><time>2026-03-29T10:34:47Z</time></trkpt><trkpt lat="38.12007851867792" lon="13.076044319814779"><ele>66.0</ele><time>2026-03-29T10:34:48Z</time></trkpt><trkpt lat="38.12016187093443" lon="13.076053617732885"><ele>66.0</ele><time>2026-03-29T10:34:49Z</time></trkpt><trkpt lat="38.12025606461726" lon="13.076059931736705"><ele>66.5</ele><time>2026-03-29T10:34:50Z</time></trkpt><trkpt lat="38.1203456716056" lon="13.07606881446572"><ele>67.0</ele><time>2026-03-29T10:34:51Z</time></trkpt><trkpt lat="38.12043534436795" lon="13.07607812642971"><ele>67.5</ele><time>2026-03-29T10:34:52Z</time></trkpt><trkpt lat="38.12052609186865" lon="13.076088590005403"><ele>68.0</ele><time>2026-03-29T10:34:53Z</time></trkpt><trkpt lat="38.12061824829791" lon="13.076097487531907"><ele>68.5</ele><time>2026-03-29T10:34:54Z</time></trkpt><trkpt lat="38.120700658950874" lon="13.076102547722652"><ele>69.0</ele><time>2026-03-29T10:34:55Z</time></trkpt><trkpt lat="38.12078166669071" lon="13.076106610669878"><ele>69.0</ele><time>2026-03-29T10:34:56Z</time></trkpt><trkpt lat="38.1208561883238" lon="13.076107487713063"><ele>69.0</ele><time>2026-03-29T10:34:57Z</time></trkpt><trkpt lat="38.12092938090155" lon="13.076108539693113"><ele>69.0</ele><time>2026-03-29T10:34:58Z</time></trkpt><trkpt lat="38.121000643859155" lon="13.076125249283292"><ele>69.0</ele><time>2026-03-29T10:34:59Z</time></trkpt><trkpt lat="38.12108818681597" lon="13.076141931345319"><ele>69.0</ele><time>2026-03-29T10:35:00Z</time></trkpt><trkpt lat="38.121178604173366" lon="13.07615372740684"><ele>69.0</ele><time>2026-03-29T10:35:01Z</time></trkpt><trkpt lat="38.12127328187901" lon="13.076163616384113"><ele>69.0</ele><time>2026-03-29T10:35:02Z</time></trkpt><trkpt lat="38.12137178817988" lon="13.076177150478648"><ele>69.0</ele><time>2026-03-29T10:35:03Z</time></trkpt><trkpt lat="38.121473269824875" lon="13.076186835702943"><ele>69.0</ele><time>2026-03-29T10:35:04Z</time></trkpt><trkpt lat="38.12158648099023" lon="13.076192209748077"><ele>69.0</ele><time>2026-03-29T10:35:05Z</time></trkpt><trkpt lat="38.12170265291732" lon="13.076202964404205"><ele>69.0</ele><time>2026-03-29T10:35:06Z</time></trkpt><trkpt lat="38.121823596569605" lon="13.07622012437895"><ele>69.25</ele><time>2026-03-29T10:35:07Z</time></trkpt><trkpt lat="38.12194610443513" lon="13.076230820888274"><ele>69.5</ele><time>2026-03-29T10:35:08Z</time></trkpt><trkpt lat="38.12206673570227" lon="13.07623440026457"><ele>69.75</ele><time>2026-03-29T10:35:09Z</time></trkpt><trkpt lat="38.122179894681324" lon="13.07624179193432"><ele>70.0</ele><time>2026-03-29T10:35:10Z</time></trkpt><trkpt lat="38.1222880151831" lon="13.076237650555907"><ele>70.0</ele><time>2026-03-29T10:35:11Z</time></trkpt><trkpt lat="38.12239157008466" lon="13.076248260663661"><ele>70.0</ele><time>2026-03-29T10:35:12Z</time></trkpt><trkpt lat="38.12250197258259" lon="13.076254807210013"><ele>70.0</ele><time>2026-03-29T10:35:13Z</time></trkpt><trkpt lat="38.12262661216452" lon="13.076120587639924"><ele>70.0</ele><time>2026-03-29T10:35:14Z</time></trkpt><trkpt lat="38.122756641148975" lon="13.076097130264543"><ele>71.0</ele><time>2026-03-29T10:35:15Z</time></trkpt><trkpt lat="38.12287302084431" lon="13.076084890995707"><ele>72.0</ele><time>2026-03-29T10:35:16Z</time></trkpt><trkpt lat="38.12298253753326" lon="13.076065951332705"><ele>73.0</ele><time>2026-03-29T10:35:17Z</time></trkpt><trkpt lat="38.123095171795356" lon="13.076037282956705"><ele>74.0</ele><time>2026-03-29T10:35:18Z</time></trkpt><trkpt lat="38.12320773207593" lon="13.07600328988297"><ele>75.2</ele><time>2026-03-29T10:35:19Z</time></trkpt><trkpt lat="38.12331352150897" lon="13.075967611372798"><ele>76.4</ele><time>2026-03-29T10:35:20Z</time></trkpt><trkpt lat="38.12341488871798" lon="13.075926822743778"><ele>77.6</ele><time>2026-03-29T10:35:21Z</time></trkpt><trkpt lat="38.1235107368244" lon="13.075889146351832"><ele>78.8</ele><time>2026-03-29T10:35:22Z</time></trkpt><trkpt lat="38.12360736531063" lon="13.075858029573341"><ele>80.0</ele><time>2026-03-29T10:35:23Z</time></trkpt><trkpt lat="38.12370606134476" lon="13.07581749934281"><ele>80.0</ele><time>2026-03-29T10:35:24Z</time></trkpt><trkpt lat="38.123808645141246" lon="13.075779930618532"><ele>80.0</ele><time>2026-03-29T10:35:25Z</time></trkpt><trkpt lat="38.12392673823851" lon="13.075730348176183"><ele>80.0</ele><time>2026-03-29T10:35:26Z</time></trkpt><trkpt lat="38.124053112063535" lon="13.07567136471886"><ele>80.0</ele><time>2026-03-29T10:35:27Z</time></trkpt><trkpt lat="38.12418530716912" lon="13.075607319888295"><ele>80.0</ele><time>2026-03-29T10:35:28Z</time></trkpt><trkpt lat="38.12431706357402" lon="13.075544546029516"><ele>80.0</ele><time>2026-03-29T10:35:29Z</time></trkpt><trkpt lat="38.124449542910284" lon="13.075480359748894"><ele>80.0</ele><time>2026-03-29T10:35:30Z</time></trkpt><trkpt lat="38.12458475268354" lon="13.075410398675226"><ele>80.0</ele><time>2026-03-29T10:35:31Z</time></trkpt><trkpt lat="38.12470902029846" lon="13.075339979872753"><ele>80.0</ele><time>2026-03-29T10:35:32Z</time></trkpt><trkpt lat="38.12483349036188" lon="13.075269249550201"><ele>80.0</ele><time>2026-03-29T10:35:33Z</time></trkpt><trkpt lat="38.12495837584447" lon="13.075189869663676"><ele>80.0</ele><time>2026-03-29T10:35:34Z</time></trkpt><trkpt lat="38.12508171428132" lon="13.075095962271822"><ele>80.0</ele><time>2026-03-29T10:35:35Z</time></trkpt><trkpt lat="38.12521905839381" lon="13.074998370087615"><ele>80.33333333333334</ele><time>2026-03-29T10:35:36Z</time></trkpt><trkpt lat="38.12535923621841" lon="13.074904143596498"><ele>80.66666666666667</ele><time>2026-03-29T10:35:37Z</time></trkpt><trkpt lat="38.12550084070401" lon="13.074813831416026"><ele>81.0</ele><time>2026-03-29T10:35:38Z</time></trkpt><trkpt lat="38.12564758344928" lon="13.074716658314268"><ele>81.75</ele><time>2026-03-29T10:35:39Z</time></trkpt><trkpt lat="38.125775215778376" lon="13.07462997445336"><ele>82.5</ele><time>2026-03-29T10:35:40Z</time></trkpt><trkpt lat="38.125891450769494" lon="13.074550241257231"><ele>83.25</ele><time>2026-03-29T10:35:41Z</time></trkpt><trkpt lat="38.12601257328295" lon="13.074470471536557"><ele>84.0</ele><time>2026-03-29T10:35:42Z</time></trkpt><trkpt lat="38.12612604677704" lon="13.074402766182676"><ele>84.0</ele><time>2026-03-29T10:35:43Z</time></trkpt><trkpt lat="38.12622907998272" lon="13.07434939136429"><ele>84.0</ele><time>2026-03-29T10:35:44Z</time></trkpt><trkpt lat="38.12632355754254" lon="13.074296343382212"><ele>84.0</ele><time>2026-03-29T10:35:45Z</time></trkpt><trkpt lat="38.12643020278733" lon="13.074238918876558"><ele>84.0</ele><time>2026-03-29T10:35:46Z</time></trkpt><trkpt lat="38.12655072453863" lon="13.074189951473176"><ele>84.0</ele><time>2026-03-29T10:35:47Z</time></trkpt><trkpt lat="38.12667919014945" lon="13.07418143477994"><ele>84.0</ele><time>2026-03-29T10:35:48Z</time></trkpt><trkpt lat="38.12681575141364" lon="13.074141557387808"><ele>84.0</ele><time>2026-03-29T10:35:49Z</time></trkpt><trkpt lat="38.126958208869176" lon="13.074131480287678"><ele>84.0</ele><time>2026-03-29T10:35:50Z</time></trkpt><trkpt lat="38.1270969678904" lon="13.074093110573516"><ele>84.0</ele><time>2026-03-29T10:35:51Z</time></trkpt><trkpt lat="38.12721996314427" lon="13.074058543476648"><ele>84.0</ele><time>2026-03-29T10:35:52Z</time></trkpt><trkpt lat="38.12732016168023" lon="13.074030585630881"><ele>84.0</ele><time>2026-03-29T10:35:53Z</time></trkpt><trkpt lat="38.127417493459895" lon="13.073993622853997"><ele>84.0</ele><time>2026-03-29T10:35:54Z</time></trkpt><trkpt lat="38.1275188884689" lon="13.073943112724779"><ele>84.0</ele><time>2026-03-29T10:35:55Z</time></trkpt><trkpt lat="38.1276428104907" lon="13.073908478411239"><ele>84.75</ele><time>2026-03-29T10:35:56Z</time></trkpt><trkpt lat="38.12777343661259" lon="13.073870855609492"><ele>85.5</ele><time>2026-03-29T10:35:57Z</time></trkpt><trkpt lat="38.127917170180865" lon="13.07384122949581"><ele>86.25</ele><time>2026-03-29T10:35:58Z</time></trkpt><trkpt lat="38.12806671289966" lon="13.073819192416634"><ele>87.0</ele><time>2026-03-29T10:35:59Z</time></trkpt><trkpt lat="38.12821799309291" lon="13.073796790173116"><ele>86.75</ele><time>2026-03-29T10:36:00Z</time></trkpt><trkpt lat="38.12836823531208" lon="13.07377697375812"><ele>86.5</ele><time>2026-03-29T10:36:01Z</time></trkpt><trkpt lat="38.12851060327249" lon="13.073762881467045"><ele>86.25</ele><time>2026-03-29T10:36:02Z</time></trkpt><trkpt lat="38.12864823519859" lon="13.073752571328288"><ele>86.0</ele><time>2026-03-29T10:36:03Z</time></trkpt><trkpt lat="38.128786501489316" lon="13.073747407356743"><ele>86.0</ele><time>2026-03-29T10:36:04Z</time></trkpt><trkpt lat="38.12892096794489" lon="13.07376031821775"><ele>86.0</ele><time>2026-03-29T10:36:05Z</time></trkpt><trkpt lat="38.129040244542445" lon="13.073772287971662"><ele>86.0</ele><time>2026-03-29T10:36:06Z</time></trkpt><trkpt lat="38.12916262492031" lon="13.07378838698375"><ele>86.0</ele><time>2026-03-29T10:36:07Z</time></trkpt><trkpt lat="38.12928995927788" lon="13.073806656654872"><ele>85.75</ele><time>2026-03-29T10:36:08Z</time></trkpt><trkpt lat="38.12941789389302" lon="13.073829194764116"><ele>85.5</ele><time>2026-03-29T10:36:09Z</time></trkpt><trkpt lat="38.12954762364511" lon="13.073856900389888"><ele>85.25</ele><time>2026-03-29T10:36:10Z</time></trkpt><trkpt lat="38.12968149028394" lon="13.07388364498417"><ele>85.0</ele><time>2026-03-29T10:36:11Z</time></trkpt><trkpt lat="38.12981763403175" lon="13.073913511658722"><ele>84.5</ele><time>2026-03-29T10:36:12Z</time></trkpt><trkpt lat="38.129952073683064" lon="13.0739517468225"><ele>84.0</ele><time>2026-03-29T10:36:13Z</time></trkpt><trkpt lat="38.13008565941558" lon="13.073979393675653"><ele>83.5</ele><time>2026-03-29T10:36:14Z</time></trkpt><trkpt lat="38.130212038288704" lon="13.074009455428858"><ele>83.0</ele><time>2026-03-29T10:36:15Z</time></trkpt><trkpt lat="38.13034185063868" lon="13.074042905390842"><ele>83.0</ele><time>2026-03-29T10:36:16Z</time></trkpt><trkpt lat="38.13047122600194" lon="13.07407980999826"><ele>83.0</ele><time>2026-03-29T10:36:17Z</time></trkpt><trkpt lat="38.13060430842055" lon="13.074119003689168"><ele>83.0</ele><time>2026-03-29T10:36:18Z</time></trkpt><trkpt lat="38.13073911516755" lon="13.074155268932026"><ele>83.0</ele><time>2026-03-29T10:36:19Z</time></trkpt><trkpt lat="38.130865435564516" lon="13.074189514995533"><ele>83.60000000000001</ele><time>2026-03-29T10:36:20Z</time></trkpt><trkpt lat="38.1309934178938" lon="13.07422391388443"><ele>84.2</ele><time>2026-03-29T10:36:21Z</time></trkpt><trkpt lat="38.13110750742394" lon="13.07424996459444"><ele>84.8</ele><time>2026-03-29T10:36:22Z</time></trkpt><trkpt lat="38.13120518152839" lon="13.074279904886263"><ele>85.4</ele><time>2026-03-29T10:36:23Z</time></trkpt><trkpt lat="38.1312898693979" lon="13.074306768776886"><ele>86.0</ele><time>2026-03-29T10:36:24Z</time></trkpt><trkpt lat="38.13138988068803" lon="13.07434175316115"><ele>86.0</ele><time>2026-03-29T10:36:25Z</time></trkpt><trkpt lat="38.13150751469774" lon="13.074386407002017"><ele>86.0</ele><time>2026-03-29T10:36:26Z</time></trkpt><trkpt lat="38.131639841013005" lon="13.074426842914768"><ele>86.0</ele><time>2026-03-29T10:36:27Z</time></trkpt><trkpt lat="38.13177731010245" lon="13.074463566830518"><ele>86.0</ele><time>2026-03-29T10:36:28Z</time></trkpt><trkpt lat="38.131905832315724" lon="13.074494256194894"><ele>85.25</ele><time>2026-03-29T10:36:29Z</time></trkpt><trkpt lat="38.13203588640659" lon="13.074525839938056"><ele>84.5</ele><time>2026-03-29T10:36:30Z</time></trkpt><trkpt lat="38.1321678882406" lon="13.074560055803225"><ele>83.75</ele><time>2026-03-29T10:36:31Z</time></trkpt><trkpt lat="38.13229677507894" lon="13.074598047680558"><ele>83.0</ele><time>2026-03-29T10:36:32Z</time></trkpt><trkpt lat="38.13243975625575" lon="13.074633551715245"><ele>82.25</ele><time>2026-03-29T10:36:33Z</time></trkpt><trkpt lat="38.13257159542838" lon="13.074667773609455"><ele>81.5</ele><time>2026-03-29T10:36:34Z</time></trkpt><trkpt lat="38.13269818284631" lon="13.074705702312455"><ele>80.75</ele><time>2026-03-29T10:36:35Z</time></trkpt><trkpt lat="38.132832461559175" lon="13.07474565205724"><ele>80.0</ele><time>2026-03-29T10:36:36Z</time></trkpt><trkpt lat="38.132962901704474" lon="13.074783163218143"><ele>80.0</ele><time>2026-03-29T10:36:37Z</time></trkpt><trkpt lat="38.133095224620156" lon="13.074826153654378"><ele>80.0</ele><time>2026-03-29T10:36:38Z</time></trkpt><trkpt lat="38.13322290108048" lon="13.07487394878847"><ele>80.0</ele><time>2026-03-29T10:36:39Z</time></trkpt><trkpt lat="38.13335097876351" lon="13.074920163954538"><ele>80.0</ele><time>2026-03-29T10:36:40Z</time></trkpt><trkpt lat="38.133479213651796" lon="13.074971476036405"><ele>79.75</ele><time>2026-03-29T10:36:41Z</time></trkpt><trkpt lat="38.13360529773531" lon="13.075023106564435"><ele>79.5</ele><time>2026-03-29T10:36:42Z</time></trkpt><trkpt lat="38.13372512482936" lon="13.075084352855665"><ele>79.25</ele><time>2026-03-29T10:36:43Z</time></trkpt><trkpt lat="38.13384634941547" lon="13.07515596805997"><ele>79.0</ele><time>2026-03-29T10:36:44Z</time></trkpt><trkpt lat="38.1339619617036" lon="13.07522902618743"><ele>78.5</ele><time>2026-03-29T10:36:45Z</time></trkpt><trkpt lat="38.134079820102215" lon="13.07529952055727"><ele>78.0</ele><time>2026-03-29T10:36:46Z</time></trkpt><trkpt lat="38.13420151903189" lon="13.075370092789814"><ele>77.5</ele><time>2026-03-29T10:36:47Z</time></trkpt><trkpt lat="38.13431240685509" lon="13.075453338030192"><ele>77.0</ele><time>2026-03-29T10:36:48Z</time></trkpt><trkpt lat="38.134416785222186" lon="13.075543118883383"><ele>77.0</ele><time>2026-03-29T10:36:49Z</time></trkpt><trkpt lat="38.134521868869456" lon="13.075639552852499"><ele>77.0</ele><time>2026-03-29T10:36:50Z</time></trkpt><trkpt lat="38.13461443750521" lon="13.075760580022074"><ele>77.0</ele><time>2026-03-29T10:36:51Z</time></trkpt><trkpt lat="38.134728246250646" lon="13.075855282192144"><ele>77.0</ele><time>2026-03-29T10:36:52Z</time></trkpt><trkpt lat="38.13483449558258" lon="13.075963827473595"><ele>77.75</ele><time>2026-03-29T10:36:53Z</time></trkpt><trkpt lat="38.13493632904827" lon="13.076069017577531"><ele>78.5</ele><time>2026-03-29T10:36:54Z</time></trkpt><trkpt lat="38.13502631796" lon="13.076193413899581"><ele>79.25</ele><time>2026-03-29T10:36:55Z</time></trkpt><trkpt lat="38.13511162571173" lon="13.076315216545604"><ele>80.0</ele><time>2026-03-29T10:36:56Z</time></trkpt><trkpt lat="38.135190419524626" lon="13.076445193970798"><ele>80.0</ele><time>2026-03-29T10:36:57Z</time></trkpt><trkpt lat="38.135269708217024" lon="13.076577274132147"><ele>80.0</ele><time>2026-03-29T10:36:58Z</time></trkpt><trkpt lat="38.13536195391934" lon="13.076694135732987"><ele>80.0</ele><time>2026-03-29T10:36:59Z</time></trkpt><trkpt lat="38.135444543907155" lon="13.076826155776121"><ele>80.0</ele><time>2026-03-29T10:37:00Z</time></trkpt><trkpt lat="38.13551982656552" lon="13.076957668376098"><ele>82.0</ele><time>2026-03-29T10:37:01Z</time></trkpt><trkpt lat="38.13558442923717" lon="13.077080061253866"><ele>84.0</ele><time>2026-03-29T10:37:02Z</time></trkpt><trkpt lat="38.13564208308812" lon="13.07720968946441"><ele>86.0</ele><time>2026-03-29T10:37:03Z</time></trkpt><trkpt lat="38.13570578445511" lon="13.077332528213745"><ele>88.0</ele><time>2026-03-29T10:37:04Z</time></trkpt><trkpt lat="38.13578625224931" lon="13.077453631882307"><ele>88.0</ele><time>2026-03-29T10:37:05Z</time></trkpt><trkpt lat="38.13586043908105" lon="13.077562600796806"><ele>88.0</ele><time>2026-03-29T10:37:06Z</time></trkpt><trkpt lat="38.13592684155575" lon="13.077655915518719"><ele>88.0</ele><time>2026-03-29T10:37:07Z</time></trkpt><trkpt lat="38.13601749826279" lon="13.077738392077274"><ele>88.0</ele><time>2026-03-29T10:37:08Z</time></trkpt><trkpt lat="38.13612596852553" lon="13.077803767106033"><ele>88.0</ele><time>2026-03-29T10:37:09Z</time></trkpt><trkpt lat="38.13624816832809" lon="13.07786430567149"><ele>88.0</ele><time>2026-03-29T10:37:10Z</time></trkpt><trkpt lat="38.136358531320475" lon="13.077905597824381"><ele>88.0</ele><time>2026-03-29T10:37:11Z</time></trkpt><trkpt lat="38.136477199567324" lon="13.077931023192916"><ele>88.0</ele><time>2026-03-29T10:37:12Z</time></trkpt><trkpt lat="38.1365952180069" lon="13.07794079242042"><ele>88.0</ele><time>2026-03-29T10:37:13Z</time></trkpt><trkpt lat="38.13670894739165" lon="13.077941705626804"><ele>87.80000000000001</ele><time>2026-03-29T10:37:14Z</time></trkpt><trkpt lat="38.1368146585388" lon="13.077948828329669"><ele>87.6</ele><time>2026-03-29T10:37:15Z</time></trkpt><trkpt lat="38.13691487345635" lon="13.077964221867067"><ele>87.4</ele><time>2026-03-29T10:37:16Z</time></trkpt><trkpt lat="38.137023948200856" lon="13.07799143235023"><ele>87.19999999999999</ele><time>2026-03-29T10:37:17Z</time></trkpt><trkpt lat="38.13713854739643" lon="13.078026785156542"><ele>87.0</ele><time>2026-03-29T10:37:18Z</time></trkpt><trkpt lat="38.1372519919187" lon="13.078085512303716"><ele>87.0</ele><time>2026-03-29T10:37:19Z</time></trkpt><trkpt lat="38.13736723611324" lon="13.078159123321637"><ele>87.0</ele><time>2026-03-29T10:37:20Z</time></trkpt><trkpt lat="38.137479503848716" lon="13.078234027777937"><ele>87.0</ele><time>2026-03-29T10:37:21Z</time></trkpt><trkpt lat="38.13758587521469" lon="13.078310902553131"><ele>87.0</ele><time>2026-03-29T10:37:22Z</time></trkpt><trkpt lat="38.137687348148454" lon="13.078390651886508"><ele>85.0</ele><time>2026-03-29T10:37:23Z</time></trkpt><trkpt lat="38.137774734305275" lon="13.078472952021547"><ele>83.0</ele><time>2026-03-29T10:37:24Z</time></trkpt><trkpt lat="38.13785125408217" lon="13.078570805748184"><ele>81.0</ele><time>2026-03-29T10:37:25Z</time></trkpt><trkpt lat="38.13791903229224" lon="13.078698729870332"><ele>79.0</ele><time>2026-03-29T10:37:26Z</time></trkpt><trkpt lat="38.13797938045602" lon="13.078818454824278"><ele>79.0</ele><time>2026-03-29T10:37:27Z</time></trkpt><trkpt lat="38.13802439756629" lon="13.078937997412817"><ele>79.0</ele><time>2026-03-29T10:37:28Z</time></trkpt><trkpt lat="38.138056462180074" lon="13.079058502108886"><ele>79.0</ele><time>2026-03-29T10:37:29Z</time></trkpt><trkpt lat="38.13809446917363" lon="13.079167577227778"><ele>79.0</ele><time>2026-03-29T10:37:30Z</time></trkpt><trkpt lat="38.138147573402854" lon="13.079253594686824"><ele>79.0</ele><time>2026-03-29T10:37:31Z</time></trkpt><trkpt lat="38.13823203344036" lon="13.079331825499626"><ele>77.0</ele><time>2026-03-29T10:37:32Z</time></trkpt><trkpt lat="38.13833829273152" lon="13.079387942320698"><ele>75.0</ele><time>2026-03-29T10:37:33Z</time></trkpt><trkpt lat="38.13845396990968" lon="13.079445103697202"><ele>73.0</ele><time>2026-03-29T10:37:34Z</time></trkpt><trkpt lat="38.13857254285442" lon="13.079522128132249"><ele>71.0</ele><time>2026-03-29T10:37:35Z</time></trkpt><trkpt lat="38.138666948511634" lon="13.07958145338074"><ele>71.0</ele><time>2026-03-29T10:37:36Z</time></trkpt><trkpt lat="38.13875807998461" lon="13.07963865564425"><ele>71.0</ele><time>2026-03-29T10:37:37Z</time></trkpt><trkpt lat="38.13882168582024" lon="13.07970267176063"><ele>71.0</ele><time>2026-03-29T10:37:38Z</time></trkpt><trkpt lat="38.13887554921344" lon="13.079750985545934"><ele>71.0</ele><time>2026-03-29T10:37:39Z</time></trkpt><trkpt lat="38.13895450083423" lon="13.079823432023783"><ele>71.0</ele><time>2026-03-29T10:37:41Z</time></trkpt><trkpt lat="38.13901171201951" lon="13.07989178869617"><ele>71.0</ele><time>2026-03-29T10:37:43Z</time></trkpt><trkpt lat="38.13905710480134" lon="13.079967031938871"><ele>70.2</ele><time>2026-03-29T10:38:03Z</time></trkpt><trkpt lat="38.13910033484138" lon="13.080048884904798"><ele>69.39999999999999</ele><time>2026-03-29T10:38:05Z</time></trkpt><trkpt lat="38.13913686408321" lon="13.080146151287767"><ele>68.6</ele><time>2026-03-29T10:38:12Z</time></trkpt><trkpt lat="38.13916813187008" lon="13.08023519399136"><ele>67.8</ele><time>2026-03-29T10:38:13Z</time></trkpt><trkpt lat="38.13925305887236" lon="13.080296247410605"><ele>67.0</ele><time>2026-03-29T10:38:14Z</time></trkpt><trkpt lat="38.139348513869656" lon="13.080386728988719"><ele>67.0</ele><time>2026-03-29T10:38:15Z</time></trkpt><trkpt lat="38.13944545013475" lon="13.08049012529992"><ele>67.0</ele><time>2026-03-29T10:38:16Z</time></trkpt><trkpt lat="38.13954644530534" lon="13.080610348395924"><ele>67.0</ele><time>2026-03-29T10:38:17Z</time></trkpt><trkpt lat="38.13964041276853" lon="13.080752317048292"><ele>67.0</ele><time>2026-03-29T10:38:18Z</time></trkpt><trkpt lat="38.13973296990616" lon="13.08089086097381"><ele>67.25</ele><time>2026-03-29T10:38:19Z</time></trkpt><trkpt lat="38.139823573741324" lon="13.081033784553238"><ele>67.5</ele><time>2026-03-29T10:38:20Z</time></trkpt><trkpt lat="38.139912368596086" lon="13.081178186723722"><ele>67.75</ele><time>2026-03-29T10:38:21Z</time></trkpt><trkpt lat="38.13999920379293" lon="13.08131797822865"><ele>68.0</ele><time>2026-03-29T10:38:22Z</time></trkpt><trkpt lat="38.14009465860211" lon="13.081460173839583"><ele>67.25</ele><time>2026-03-29T10:38:23Z</time></trkpt><trkpt lat="38.140185570560995" lon="13.081598264335172"><ele>66.5</ele><time>2026-03-29T10:38:24Z</time></trkpt><trkpt lat="38.14027927839386" lon="13.081739524803181"><ele>65.75</ele><time>2026-03-29T10:38:25Z</time></trkpt><trkpt lat="38.14036976013533" lon="13.08188061072516"><ele>65.0</ele><time>2026-03-29T10:38:26Z</time></trkpt><trkpt lat="38.14045972373541" lon="13.082021233452569"><ele>65.0</ele><time>2026-03-29T10:38:27Z</time></trkpt><trkpt lat="38.1405558186231" lon="13.082163025455547"><ele>65.0</ele><time>2026-03-29T10:38:28Z</time></trkpt><trkpt lat="38.14064744113944" lon="13.082303320432917"><ele>65.0</ele><time>2026-03-29T10:38:29Z</time></trkpt><trkpt lat="38.14074474242655" lon="13.08244851871627"><ele>65.0</ele><time>2026-03-29T10:38:30Z</time></trkpt><trkpt lat="38.14083629324036" lon="13.082594686145544"><ele>64.5</ele><time>2026-03-29T10:38:31Z</time></trkpt><trkpt lat="38.140929166378285" lon="13.08274200355898"><ele>64.0</ele><time>2026-03-29T10:38:32Z</time></trkpt><trkpt lat="38.14102027269854" lon="13.082887593076606"><ele>63.5</ele><time>2026-03-29T10:38:33Z</time></trkpt><trkpt lat="38.14111602037463" lon="13.083034619734132"><ele>63.0</ele><time>2026-03-29T10:38:34Z</time></trkpt><trkpt lat="38.14121145792315" lon="13.083181026165285"><ele>63.0</ele><time>2026-03-29T10:38:35Z</time></trkpt><trkpt lat="38.141311982110174" lon="13.083329376537256"><ele>63.0</ele><time>2026-03-29T10:38:36Z</time></trkpt><trkpt lat="38.141402553062754" lon="13.083478074501375"><ele>63.0</ele><time>2026-03-29T10:38:37Z</time></trkpt><trkpt lat="38.14150373301733" lon="13.083624184562352"><ele>62.33333333333333</ele><time>2026-03-29T10:38:38Z</time></trkpt><trkpt lat="38.141601702715654" lon="13.083774170144995"><ele>61.666666666666664</ele><time>2026-03-29T10:38:39Z</time></trkpt><trkpt lat="38.1416998485258" lon="13.083925410452453"><ele>61.0</ele><time>2026-03-29T10:38:40Z</time></trkpt><trkpt lat="38.14179816138178" lon="13.084074649287668"><ele>60.666666666666664</ele><time>2026-03-29T10:38:41Z</time></trkpt><trkpt lat="38.14190031456623" lon="13.0842265958197"><ele>60.33333333333333</ele><time>2026-03-29T10:38:42Z</time></trkpt><trkpt lat="38.14200277949682" lon="13.084379387718483"><ele>60.0</ele><time>2026-03-29T10:38:43Z</time></trkpt><trkpt lat="38.14209238478808" lon="13.084534083338962"><ele>60.0</ele><time>2026-03-29T10:38:44Z</time></trkpt><trkpt lat="38.14219879224521" lon="13.084691104240347"><ele>60.0</ele><time>2026-03-29T10:38:45Z</time></trkpt><trkpt lat="38.142297254413315" lon="13.084840442555272"><ele>60.0</ele><time>2026-03-29T10:38:46Z</time></trkpt><trkpt lat="38.14239531548036" lon="13.08498892044135"><ele>60.66666666666667</ele><time>2026-03-29T10:38:47Z</time></trkpt><trkpt lat="38.14249673897246" lon="13.085130764245303"><ele>61.333333333333336</ele><time>2026-03-29T10:38:48Z</time></trkpt><trkpt lat="38.14260509382589" lon="13.085270009265347"><ele>62.0</ele><time>2026-03-29T10:38:49Z</time></trkpt><trkpt lat="38.14270938963142" lon="13.085409584691822"><ele>62.0</ele><time>2026-03-29T10:38:50Z</time></trkpt><trkpt lat="38.142811952786786" lon="13.085543938492636"><ele>62.0</ele><time>2026-03-29T10:38:51Z</time></trkpt><trkpt lat="38.14291106795477" lon="13.08567925295992"><ele>62.0</ele><time>2026-03-29T10:38:52Z</time></trkpt><trkpt lat="38.14301622167679" lon="13.08581537234877"><ele>62.0</ele><time>2026-03-29T10:38:53Z</time></trkpt><trkpt lat="38.14311928896611" lon="13.085950422643798"><ele>61.333333333333336</ele><time>2026-03-29T10:38:54Z</time></trkpt><trkpt lat="38.143227909489056" lon="13.086086926350962"><ele>60.66666666666667</ele><time>2026-03-29T10:38:55Z</time></trkpt><trkpt lat="38.14332804176941" lon="13.08622420717434"><ele>60.0</ele><time>2026-03-29T10:38:56Z</time></trkpt><trkpt lat="38.14343364950685" lon="13.086362087698026"><ele>60.0</ele><time>2026-03-29T10:38:57Z</time></trkpt><trkpt lat="38.14354054745788" lon="13.086497261214069"><ele>60.0</ele><time>2026-03-29T10:38:58Z</time></trkpt><trkpt lat="38.14364018192214" lon="13.08663926962576"><ele>60.0</ele><time>2026-03-29T10:38:59Z</time></trkpt><trkpt lat="38.143742847576775" lon="13.086777012118588"><ele>59.5</ele><time>2026-03-29T10:39:00Z</time></trkpt><trkpt lat="38.143852835999404" lon="13.086918278743898"><ele>59.0</ele><time>2026-03-29T10:39:01Z</time></trkpt><trkpt lat="38.14396398956047" lon="13.08705445352159"><ele>58.5</ele><time>2026-03-29T10:39:02Z</time></trkpt><trkpt lat="38.14405672714229" lon="13.08717773060175"><ele>58.0</ele><time>2026-03-29T10:39:03Z</time></trkpt><trkpt lat="38.14414656665501" lon="13.08729268875023"><ele>57.99999999999999</ele><time>2026-03-29T10:39:04Z</time></trkpt><trkpt lat="38.14422772020269" lon="13.087397348544735"><ele>58.0</ele><time>2026-03-29T10:39:05Z</time></trkpt><trkpt lat="38.14430089047094" lon="13.087496976141184"><ele>58.0</ele><time>2026-03-29T10:39:06Z</time></trkpt><trkpt lat="38.14436246983451" lon="13.08757845949991"><ele>58.0</ele><time>2026-03-29T10:39:07Z</time></trkpt><trkpt lat="38.144410596614605" lon="13.087638370785006"><ele>57.99999999999999</ele><time>2026-03-29T10:39:08Z</time></trkpt><trkpt lat="38.14445731986138" lon="13.087700869411599"><ele>58.0</ele><time>2026-03-29T10:39:11Z</time></trkpt><trkpt lat="38.14454891167768" lon="13.087807234668663"><ele>58.599999999999994</ele><time>2026-03-29T10:39:32Z</time></trkpt><trkpt lat="38.14461091950429" lon="13.087875514207749"><ele>59.199999999999996</ele><time>2026-03-29T10:39:33Z</time></trkpt><trkpt lat="38.14469064766425" lon="13.087966487839664"><ele>59.8</ele><time>2026-03-29T10:39:34Z</time></trkpt><trkpt lat="38.14477944476441" lon="13.088065466643574"><ele>60.4</ele><time>2026-03-29T10:39:35Z</time></trkpt><trkpt lat="38.14488327655713" lon="13.088179986703173"><ele>61.0</ele><time>2026-03-29T10:39:36Z</time></trkpt><trkpt lat="38.14498870853626" lon="13.088301939184737"><ele>61.5</ele><time>2026-03-29T10:39:37Z</time></trkpt><trkpt lat="38.14509490407524" lon="13.088431163312782"><ele>62.0</ele><time>2026-03-29T10:39:38Z</time></trkpt><trkpt lat="38.14520310671673" lon="13.088556977556555"><ele>62.5</ele><time>2026-03-29T10:39:39Z</time></trkpt><trkpt lat="38.14530796502044" lon="13.088680730602595"><ele>63.0</ele><time>2026-03-29T10:39:40Z</time></trkpt><trkpt lat="38.14542335593352" lon="13.088811306879595"><ele>63.0</ele><time>2026-03-29T10:39:41Z</time></trkpt><trkpt lat="38.14554020947931" lon="13.088939894143348"><ele>63.0</ele><time>2026-03-29T10:39:42Z</time></trkpt><trkpt lat="38.14566225035158" lon="13.08907279048572"><ele>63.0</ele><time>2026-03-29T10:39:43Z</time></trkpt><trkpt lat="38.14577440500401" lon="13.089204360971575"><ele>62.0</ele><time>2026-03-29T10:39:44Z</time></trkpt><trkpt lat="38.14588471335471" lon="13.08933561849162"><ele>61.0</ele><time>2026-03-29T10:39:45Z</time></trkpt><trkpt lat="38.146008130072275" lon="13.08947457978993"><ele>60.0</ele><time>2026-03-29T10:39:46Z</time></trkpt><trkpt lat="38.14613441362531" lon="13.0896092831908"><ele>60.0</ele><time>2026-03-29T10:39:47Z</time></trkpt><trkpt lat="38.146252530448415" lon="13.089749747606566"><ele>60.0</ele><time>2026-03-29T10:39:48Z</time></trkpt><trkpt lat="38.14637362007911" lon="13.089890099127055"><ele>60.0</ele><time>2026-03-29T10:39:49Z</time></trkpt><trkpt lat="38.14650155134552" lon="13.090049798798221"><ele>59.33333333333333</ele><time>2026-03-29T10:39:50Z</time></trkpt><trkpt lat="38.146654964523414" lon="13.090202224850099"><ele>58.666666666666664</ele><time>2026-03-29T10:39:51Z</time></trkpt><trkpt lat="38.146788987421004" lon="13.090388144156451"><ele>58.0</ele><time>2026-03-29T10:39:52Z</time></trkpt><trkpt lat="38.14694185803109" lon="13.090547429836356"><ele>58.0</ele><time>2026-03-29T10:39:53Z</time></trkpt><trkpt lat="38.14708230685523" lon="13.090727920946009"><ele>58.0</ele><time>2026-03-29T10:39:54Z</time></trkpt><trkpt lat="38.14722106270496" lon="13.09090257787877"><ele>58.0</ele><time>2026-03-29T10:39:55Z</time></trkpt><trkpt lat="38.147356277717684" lon="13.091070470021064"><ele>58.0</ele><time>2026-03-29T10:39:56Z</time></trkpt><trkpt lat="38.14748515962986" lon="13.091238638610836"><ele>58.0</ele><time>2026-03-29T10:39:57Z</time></trkpt><trkpt lat="38.14762420184173" lon="13.091405980823211"><ele>58.0</ele><time>2026-03-29T10:39:58Z</time></trkpt><trkpt lat="38.14776118566027" lon="13.09157208207697"><ele>58.0</ele><time>2026-03-29T10:39:59Z</time></trkpt><trkpt lat="38.14789580211196" lon="13.091732593743803"><ele>58.0</ele><time>2026-03-29T10:40:00Z</time></trkpt><trkpt lat="38.1480311988851" lon="13.091890536223838"><ele>58.0</ele><time>2026-03-29T10:40:01Z</time></trkpt><trkpt lat="38.14816793315395" lon="13.092049963240484"><ele>58.0</ele><time>2026-03-29T10:40:02Z</time></trkpt><trkpt lat="38.14830778535018" lon="13.092208304686455"><ele>58.0</ele><time>2026-03-29T10:40:03Z</time></trkpt><trkpt lat="38.14844353653552" lon="13.092382667140484"><ele>58.0</ele><time>2026-03-29T10:40:04Z</time></trkpt><trkpt lat="38.14856883611654" lon="13.092556803624543"><ele>58.0</ele><time>2026-03-29T10:40:05Z</time></trkpt><trkpt lat="38.148684014707655" lon="13.092726662633687"><ele>58.0</ele><time>2026-03-29T10:40:06Z</time></trkpt><trkpt lat="38.148798023607974" lon="13.092910862298302"><ele>58.0</ele><time>2026-03-29T10:40:07Z</time></trkpt><trkpt lat="38.14890836739851" lon="13.093106210453117"><ele>58.0</ele><time>2026-03-29T10:40:08Z</time></trkpt><trkpt lat="38.14901262792251" lon="13.09331748471674"><ele>58.0</ele><time>2026-03-29T10:40:09Z</time></trkpt><trkpt lat="38.14912304144475" lon="13.093479748686846"><ele>58.0</ele><time>2026-03-29T10:40:10Z</time></trkpt><trkpt lat="38.149246999697475" lon="13.093649885873633"><ele>58.0</ele><time>2026-03-29T10:40:11Z</time></trkpt><trkpt lat="38.149387775823385" lon="13.093794223687176"><ele>58.0</ele><time>2026-03-29T10:40:12Z</time></trkpt><trkpt lat="38.14953698075856" lon="13.093932815494219"><ele>58.0</ele><time>2026-03-29T10:40:13Z</time></trkpt><trkpt lat="38.14970273603872" lon="13.094051249448711"><ele>57.33333333333333</ele><time>2026-03-29T10:40:14Z</time></trkpt><trkpt lat="38.149875456082896" lon="13.094145276162557"><ele>56.66666666666667</ele><time>2026-03-29T10:40:15Z</time></trkpt><trkpt lat="38.15005833091068" lon="13.094256291320733"><ele>56.0</ele><time>2026-03-29T10:40:16Z</time></trkpt><trkpt lat="38.15022916607044" lon="13.094363329668633"><ele>56.0</ele><time>2026-03-29T10:40:17Z</time></trkpt><trkpt lat="38.15039029038521" lon="13.094464346727431"><ele>56.0</ele><time>2026-03-29T10:40:18Z</time></trkpt><trkpt lat="38.150536813432296" lon="13.094556679819094"><ele>56.0</ele><time>2026-03-29T10:40:19Z</time></trkpt><trkpt lat="38.150680885415184" lon="13.094650499596126"><ele>56.25</ele><time>2026-03-29T10:40:20Z</time></trkpt><trkpt lat="38.15080234752765" lon="13.094728789759031"><ele>56.5</ele><time>2026-03-29T10:40:21Z</time></trkpt><trkpt lat="38.15093365204938" lon="13.09480867242749"><ele>56.75</ele><time>2026-03-29T10:40:22Z</time></trkpt><trkpt lat="38.15106134113425" lon="13.09488573961802"><ele>57.0</ele><time>2026-03-29T10:40:23Z</time></trkpt><trkpt lat="38.15118635243891" lon="13.094961089815621"><ele>57.0</ele><time>2026-03-29T10:40:24Z</time></trkpt><trkpt lat="38.15130987565903" lon="13.095043565141802"><ele>57.0</ele><time>2026-03-29T10:40:25Z</time></trkpt><trkpt lat="38.151434381775125" lon="13.095129494463947"><ele>57.0</ele><time>2026-03-29T10:40:26Z</time></trkpt><trkpt lat="38.151561485609015" lon="13.095217654307287"><ele>57.0</ele><time>2026-03-29T10:40:27Z</time></trkpt><trkpt lat="38.151689741287306" lon="13.095318271719309"><ele>56.5</ele><time>2026-03-29T10:40:28Z</time></trkpt><trkpt lat="38.151804053910126" lon="13.095442520568804"><ele>56.0</ele><time>2026-03-29T10:40:29Z</time></trkpt><trkpt lat="38.151910805870756" lon="13.095571556642863"><ele>55.5</ele><time>2026-03-29T10:40:30Z</time></trkpt><trkpt lat="38.1520102884411" lon="13.095703681924965"><ele>55.0</ele><time>2026-03-29T10:40:31Z</time></trkpt><trkpt lat="38.152113160887765" lon="13.095848613446748"><ele>55.0</ele><time>2026-03-29T10:40:32Z</time></trkpt><trkpt lat="38.15221461096827" lon="13.095986029674515"><ele>55.0</ele><time>2026-03-29T10:40:33Z</time></trkpt><trkpt lat="38.15232036013571" lon="13.096119735283155"><ele>55.0</ele><time>2026-03-29T10:40:34Z</time></trkpt><trkpt lat="38.15241900942576" lon="13.096244461504693"><ele>55.0</ele><time>2026-03-29T10:40:35Z</time></trkpt><trkpt lat="38.15250390540384" lon="13.096359483734924"><ele>54.75</ele><time>2026-03-29T10:40:36Z</time></trkpt><trkpt lat="38.15260570255467" lon="13.09646256454741"><ele>54.5</ele><time>2026-03-29T10:40:37Z</time></trkpt><trkpt lat="38.15272427760001" lon="13.096547672161416"><ele>54.25</ele><time>2026-03-29T10:40:38Z</time></trkpt><trkpt lat="38.15285127973637" lon="13.096614248011443"><ele>54.0</ele><time>2026-03-29T10:40:39Z</time></trkpt><trkpt lat="38.15299003263054" lon="13.09665861170882"><ele>54.0</ele><time>2026-03-29T10:40:40Z</time></trkpt><trkpt lat="38.153129094180784" lon="13.096682381568712"><ele>54.0</ele><time>2026-03-29T10:40:41Z</time></trkpt><trkpt lat="38.15326908555891" lon="13.096682641119738"><ele>54.0</ele><time>2026-03-29T10:40:42Z</time></trkpt><trkpt lat="38.1534008257708" lon="13.096684606029957"><ele>54.0</ele><time>2026-03-29T10:40:43Z</time></trkpt><trkpt lat="38.153520755662925" lon="13.096691712384803"><ele>54.0</ele><time>2026-03-29T10:40:44Z</time></trkpt><trkpt lat="38.15363784130244" lon="13.096700463791601"><ele>54.0</ele><time>2026-03-29T10:40:45Z</time></trkpt><trkpt lat="38.15375385547159" lon="13.096711593340697"><ele>54.0</ele><time>2026-03-29T10:40:46Z</time></trkpt><trkpt lat="38.153878046969496" lon="13.096721408137071"><ele>54.0</ele><time>2026-03-29T10:40:47Z</time></trkpt><trkpt lat="38.154003390006864" lon="13.096732030527322"><ele>53.75</ele><time>2026-03-29T10:40:48Z</time></trkpt><trkpt lat="38.15410857998788" lon="13.096759435571661"><ele>53.5</ele><time>2026-03-29T10:40:49Z</time></trkpt><trkpt lat="38.154224978898476" lon="13.096765116358872"><ele>53.25</ele><time>2026-03-29T10:40:50Z</time></trkpt><trkpt lat="38.15434540444139" lon="13.09677549552013"><ele>53.0</ele><time>2026-03-29T10:40:51Z</time></trkpt><trkpt lat="38.15445490423185" lon="13.09681350642983"><ele>53.0</ele><time>2026-03-29T10:40:52Z</time></trkpt><trkpt lat="38.154569231319805" lon="13.096867034207703"><ele>53.0</ele><time>2026-03-29T10:40:53Z</time></trkpt><trkpt lat="38.15468909748389" lon="13.096914246301719"><ele>53.0</ele><time>2026-03-29T10:40:54Z</time></trkpt><trkpt lat="38.15480288462401" lon="13.09695120563123"><ele>53.0</ele><time>2026-03-29T10:40:55Z</time></trkpt><trkpt lat="38.15490872595529" lon="13.09699383978125"><ele>52.4</ele><time>2026-03-29T10:40:56Z</time></trkpt><trkpt lat="38.155011458555016" lon="13.09703624011196"><ele>51.8</ele><time>2026-03-29T10:40:57Z</time></trkpt><trkpt lat="38.15511076002179" lon="13.097091779996603"><ele>51.2</ele><time>2026-03-29T10:40:58Z</time></trkpt><trkpt lat="38.155192027842254" lon="13.097152312104164"><ele>50.6</ele><time>2026-03-29T10:40:59Z</time></trkpt><trkpt lat="38.155277307915625" lon="13.097220959788942"><ele>50.0</ele><time>2026-03-29T10:41:00Z</time></trkpt><trkpt lat="38.1553580459389" lon="13.097296203122745"><ele>50.0</ele><time>2026-03-29T10:41:01Z</time></trkpt><trkpt lat="38.155440595991465" lon="13.097373288314616"><ele>50.0</ele><time>2026-03-29T10:41:02Z</time></trkpt><trkpt lat="38.1555289767072" lon="13.09744886606667"><ele>50.0</ele><time>2026-03-29T10:41:03Z</time></trkpt><trkpt lat="38.15562150267735" lon="13.097525549980807"><ele>50.0</ele><time>2026-03-29T10:41:04Z</time></trkpt><trkpt lat="38.155714514058715" lon="13.097604031798888"><ele>50.0</ele><time>2026-03-29T10:41:05Z</time></trkpt><trkpt lat="38.15580858808275" lon="13.09768110439635"><ele>50.25</ele><time>2026-03-29T10:41:06Z</time></trkpt><trkpt lat="38.15590657589242" lon="13.097760170127803"><ele>50.5</ele><time>2026-03-29T10:41:07Z</time></trkpt><trkpt lat="38.155987605974154" lon="13.097855609900625"><ele>50.75</ele><time>2026-03-29T10:41:08Z</time></trkpt><trkpt lat="38.156079016288416" lon="13.097930598936486"><ele>51.0</ele><time>2026-03-29T10:41:09Z</time></trkpt><trkpt lat="38.15618567859277" lon="13.098001664636243"><ele>51.0</ele><time>2026-03-29T10:41:10Z</time></trkpt><trkpt lat="38.156276174942796" lon="13.098080184271279"><ele>51.0</ele><time>2026-03-29T10:41:11Z</time></trkpt><trkpt lat="38.1563705226246" lon="13.098161474656445"><ele>51.0</ele><time>2026-03-29T10:41:12Z</time></trkpt><trkpt lat="38.15646084616164" lon="13.098243934953501"><ele>51.0</ele><time>2026-03-29T10:41:13Z</time></trkpt><trkpt lat="38.15655240028899" lon="13.098320573964655"><ele>51.0</ele><time>2026-03-29T10:41:14Z</time></trkpt><trkpt lat="38.15663971430343" lon="13.0983901394965"><ele>51.0</ele><time>2026-03-29T10:41:15Z</time></trkpt><trkpt lat="38.156728711613795" lon="13.098469260217332"><ele>51.0</ele><time>2026-03-29T10:41:16Z</time></trkpt><trkpt lat="38.1568201464638" lon="13.098551836856142"><ele>51.0</ele><time>2026-03-29T10:41:17Z</time></trkpt><trkpt lat="38.15690957720925" lon="13.098628907627031"><ele>51.0</ele><time>2026-03-29T10:41:18Z</time></trkpt><trkpt lat="38.15701405001712" lon="13.098721834599933"><ele>51.0</ele><time>2026-03-29T10:41:19Z</time></trkpt><trkpt lat="38.15709830332255" lon="13.098800485055088"><ele>51.0</ele><time>2026-03-29T10:41:20Z</time></trkpt><trkpt lat="38.15718332914327" lon="13.098877005803939"><ele>51.0</ele><time>2026-03-29T10:41:21Z</time></trkpt><trkpt lat="38.15726392807478" lon="13.098956599752547"><ele>51.0</ele><time>2026-03-29T10:41:22Z</time></trkpt><trkpt lat="38.15735053705812" lon="13.09903295112469"><ele>51.0</ele><time>2026-03-29T10:41:23Z</time></trkpt><trkpt lat="38.15744791459744" lon="13.099121885470634"><ele>51.599999999999994</ele><time>2026-03-29T10:41:24Z</time></trkpt><trkpt lat="38.15753894991088" lon="13.099206069563937"><ele>52.2</ele><time>2026-03-29T10:41:25Z</time></trkpt><trkpt lat="38.15763407368732" lon="13.099286667347467"><ele>52.800000000000004</ele><time>2026-03-29T10:41:26Z</time></trkpt><trkpt lat="38.157718633493815" lon="13.0993593815202"><ele>53.400000000000006</ele><time>2026-03-29T10:41:27Z</time></trkpt><trkpt lat="38.157808927860174" lon="13.09943574087524"><ele>54.0</ele><time>2026-03-29T10:41:28Z</time></trkpt><trkpt lat="38.157899314080026" lon="13.099510864368053"><ele>54.0</ele><time>2026-03-29T10:41:29Z</time></trkpt><trkpt lat="38.15799221671545" lon="13.099587890908754"><ele>54.00000000000001</ele><time>2026-03-29T10:41:30Z</time></trkpt><trkpt lat="38.15808588751249" lon="13.099660535203586"><ele>54.00000000000001</ele><time>2026-03-29T10:41:31Z</time></trkpt><trkpt lat="38.158181551132806" lon="13.099737831590815"><ele>54.0</ele><time>2026-03-29T10:41:32Z</time></trkpt><trkpt lat="38.15827942642364" lon="13.099814380900186"><ele>54.0</ele><time>2026-03-29T10:41:33Z</time></trkpt><trkpt lat="38.15837794543309" lon="13.099892159439014"><ele>53.800000000000004</ele><time>2026-03-29T10:41:34Z</time></trkpt><trkpt lat="38.15847679944156" lon="13.099966771512872"><ele>53.60000000000001</ele><time>2026-03-29T10:41:35Z</time></trkpt><trkpt lat="38.158579982628495" lon="13.100035893809341"><ele>53.4</ele><time>2026-03-29T10:41:36Z</time></trkpt><trkpt lat="38.158675614932584" lon="13.100102565756798"><ele>53.2</ele><time>2026-03-29T10:41:37Z</time></trkpt><trkpt lat="38.1587705352082" lon="13.100169857679766"><ele>53.0</ele><time>2026-03-29T10:41:38Z</time></trkpt><trkpt lat="38.15886901164302" lon="13.10023477015372"><ele>53.0</ele><time>2026-03-29T10:41:39Z</time></trkpt><trkpt lat="38.15896056191906" lon="13.100287415402741"><ele>53.0</ele><time>2026-03-29T10:41:40Z</time></trkpt><trkpt lat="38.159060689863146" lon="13.100340301766188"><ele>53.0</ele><time>2026-03-29T10:41:41Z</time></trkpt><trkpt lat="38.159152241195" lon="13.100394230936399"><ele>53.0</ele><time>2026-03-29T10:41:42Z</time></trkpt><trkpt lat="38.15925097230325" lon="13.10044546874746"><ele>53.0</ele><time>2026-03-29T10:41:43Z</time></trkpt><trkpt lat="38.15934792857281" lon="13.100502785024522"><ele>53.0</ele><time>2026-03-29T10:41:44Z</time></trkpt><trkpt lat="38.15946093116091" lon="13.100559608155796"><ele>53.0</ele><time>2026-03-29T10:41:45Z</time></trkpt><trkpt lat="38.159583787230375" lon="13.100622726664405"><ele>53.0</ele><time>2026-03-29T10:41:46Z</time></trkpt><trkpt lat="38.1597074621062" lon="13.100696474277415"><ele>53.0</ele><time>2026-03-29T10:41:47Z</time></trkpt><trkpt lat="38.15983314101026" lon="13.100773820345536"><ele>53.0</ele><time>2026-03-29T10:41:48Z</time></trkpt><trkpt lat="38.15994933492705" lon="13.100853080673993"><ele>53.0</ele><time>2026-03-29T10:41:49Z</time></trkpt><trkpt lat="38.16005244534056" lon="13.100921957481063"><ele>53.0</ele><time>2026-03-29T10:41:50Z</time></trkpt><trkpt lat="38.160157107790816" lon="13.100983037191524"><ele>53.0</ele><time>2026-03-29T10:41:51Z</time></trkpt><trkpt lat="38.160263232029656" lon="13.101052610110377"><ele>53.0</ele><time>2026-03-29T10:41:52Z</time></trkpt><trkpt lat="38.16037854902527" lon="13.101124847380783"><ele>53.0</ele><time>2026-03-29T10:41:53Z</time></trkpt><trkpt lat="38.16049910514519" lon="13.101191867789089"><ele>53.0</ele><time>2026-03-29T10:41:54Z</time></trkpt><trkpt lat="38.160624707666" lon="13.101264214998087"><ele>53.0</ele><time>2026-03-29T10:41:55Z</time></trkpt><trkpt lat="38.16074046544433" lon="13.101343634553022"><ele>52.4</ele><time>2026-03-29T10:41:56Z</time></trkpt><trkpt lat="38.160841593251746" lon="13.101420608810972"><ele>51.8</ele><time>2026-03-29T10:41:57Z</time></trkpt><trkpt lat="38.16092422200914" lon="13.101488619612962"><ele>51.2</ele><time>2026-03-29T10:41:58Z</time></trkpt><trkpt lat="38.160997200713" lon="13.101552992353966"><ele>50.6</ele><time>2026-03-29T10:41:59Z</time></trkpt><trkpt lat="38.16106363228555" lon="13.101614817352933"><ele>50.0</ele><time>2026-03-29T10:42:00Z</time></trkpt><trkpt lat="38.16114892755644" lon="13.101695874284005"><ele>51.16666666666667</ele><time>2026-03-29T10:42:02Z</time></trkpt><trkpt lat="38.161219189971945" lon="13.101796541323772"><ele>52.333333333333336</ele><time>2026-03-29T10:42:04Z</time></trkpt><trkpt lat="38.16127331720819" lon="13.101840515277583"><ele>53.5</ele><time>2026-03-29T10:42:06Z</time></trkpt><trkpt lat="38.16133458999045" lon="13.10192803256325"><ele>54.66666666666667</ele><time>2026-03-29T10:42:11.999Z</time></trkpt><trkpt lat="38.16141359811044" lon="13.102025620246039"><ele>55.833333333333336</ele><time>2026-03-29T10:42:13.999Z</time></trkpt><trkpt lat="38.161462979957506" lon="13.102087135264233"><ele>57.0</ele><time>2026-03-29T10:42:15.999Z</time></trkpt><trkpt lat="38.16152205442761" lon="13.102143437889858"><ele>56.75</ele><time>2026-03-29T10:42:17.999Z</time></trkpt><trkpt lat="38.16157208191372" lon="13.102222174803291"><ele>56.5</ele><time>2026-03-29T10:42:28Z</time></trkpt><trkpt lat="38.16174092456799" lon="13.10214670176145"><ele>56.25</ele><time>2026-03-29T10:42:30Z</time></trkpt><trkpt lat="38.16182018905733" lon="13.102068528554703"><ele>56.0</ele><time>2026-03-29T10:42:31Z</time></trkpt><trkpt lat="38.16191950793807" lon="13.101973972021241"><ele>56.0</ele><time>2026-03-29T10:42:32Z</time></trkpt><trkpt lat="38.162019624592226" lon="13.101870436173927"><ele>56.0</ele><time>2026-03-29T10:42:33Z</time></trkpt><trkpt lat="38.16212990003754" lon="13.101756386686098"><ele>56.0</ele><time>2026-03-29T10:42:34Z</time></trkpt><trkpt lat="38.162226921886" lon="13.101655007759778"><ele>56.0</ele><time>2026-03-29T10:42:35Z</time></trkpt><trkpt lat="38.16231077175225" lon="13.101567109583232"><ele>55.4</ele><time>2026-03-29T10:42:36Z</time></trkpt><trkpt lat="38.16238001677204" lon="13.10147214353299"><ele>54.8</ele><time>2026-03-29T10:42:37Z</time></trkpt><trkpt lat="38.16245040480512" lon="13.101399106660564"><ele>54.199999999999996</ele><time>2026-03-29T10:42:38Z</time></trkpt><trkpt lat="38.16252019656836" lon="13.101326224541953"><ele>53.599999999999994</ele><time>2026-03-29T10:42:39Z</time></trkpt><trkpt lat="38.162592153869376" lon="13.101254325689421"><ele>53.0</ele><time>2026-03-29T10:42:40Z</time></trkpt><trkpt lat="38.16266171605424" lon="13.10118073190398"><ele>53.0</ele><time>2026-03-29T10:42:41Z</time></trkpt><trkpt lat="38.162735379931846" lon="13.101105344781029"><ele>53.0</ele><time>2026-03-29T10:42:42Z</time></trkpt><trkpt lat="38.16282229796301" lon="13.101056871377272"><ele>53.0</ele><time>2026-03-29T10:42:43Z</time></trkpt><trkpt lat="38.16289897823353" lon="13.100990239027421"><ele>53.0</ele><time>2026-03-29T10:42:44Z</time></trkpt><trkpt lat="38.162965241198464" lon="13.100914900854749"><ele>53.0</ele><time>2026-03-29T10:42:45Z</time></trkpt><trkpt lat="38.16303747812142" lon="13.100839025901298"><ele>53.0</ele><time>2026-03-29T10:42:46Z</time></trkpt><trkpt lat="38.16310345197378" lon="13.100774936989481"><ele>53.0</ele><time>2026-03-29T10:42:47Z</time></trkpt><trkpt lat="38.16318118459729" lon="13.100694599400873"><ele>53.0</ele><time>2026-03-29T10:42:48Z</time></trkpt><trkpt lat="38.163257546785175" lon="13.10060832566164"><ele>53.0</ele><time>2026-03-29T10:42:49Z</time></trkpt><trkpt lat="38.16334035458681" lon="13.10052105606558"><ele>53.0</ele><time>2026-03-29T10:42:50Z</time></trkpt><trkpt lat="38.16345481214781" lon="13.100430647686157"><ele>51.5</ele><time>2026-03-29T10:42:51Z</time></trkpt><trkpt lat="38.16354855832683" lon="13.100334690031831"><ele>50.0</ele><time>2026-03-29T10:42:52Z</time></trkpt><trkpt lat="38.16364329174401" lon="13.100229904740244"><ele>48.5</ele><time>2026-03-29T10:42:53Z</time></trkpt><trkpt lat="38.16375053257837" lon="13.10012128847377"><ele>47.0</ele><time>2026-03-29T10:42:54Z</time></trkpt><trkpt lat="38.1638536048673" lon="13.10002081685381"><ele>47.0</ele><time>2026-03-29T10:42:55Z</time></trkpt><trkpt lat="38.163955251157155" lon="13.09992107836454"><ele>47.0</ele><time>2026-03-29T10:42:56Z</time></trkpt><trkpt lat="38.164060169600525" lon="13.099804586046771"><ele>47.0</ele><time>2026-03-29T10:42:57Z</time></trkpt><trkpt lat="38.164176140741155" lon="13.09967847547362"><ele>47.0</ele><time>2026-03-29T10:42:58Z</time></trkpt><trkpt lat="38.1642847960965" lon="13.099562844682827"><ele>46.0</ele><time>2026-03-29T10:42:59Z</time></trkpt><trkpt lat="38.16439951639444" lon="13.09944207789027"><ele>45.0</ele><time>2026-03-29T10:43:00Z</time></trkpt><trkpt lat="38.16451515121123" lon="13.099323230087467"><ele>44.0</ele><time>2026-03-29T10:43:01Z</time></trkpt><trkpt lat="38.16462729697915" lon="13.099212958747465"><ele>43.0</ele><time>2026-03-29T10:43:02Z</time></trkpt><trkpt lat="38.16474209700107" lon="13.09910101724823"><ele>43.0</ele><time>2026-03-29T10:43:03Z</time></trkpt><trkpt lat="38.16485858934437" lon="13.098991100348407"><ele>43.0</ele><time>2026-03-29T10:43:04Z</time></trkpt><trkpt lat="38.16497330318679" lon="13.098878280268968"><ele>43.0</ele><time>2026-03-29T10:43:05Z</time></trkpt><trkpt lat="38.16508783890218" lon="13.098762543257282"><ele>43.0</ele><time>2026-03-29T10:43:06Z</time></trkpt><trkpt lat="38.165201183067545" lon="13.09864443440609"><ele>42.5</ele><time>2026-03-29T10:43:07Z</time></trkpt><trkpt lat="38.16531844317484" lon="13.098529170845149"><ele>42.0</ele><time>2026-03-29T10:43:08Z</time></trkpt><trkpt lat="38.16542755783272" lon="13.098411755608764"><ele>41.5</ele><time>2026-03-29T10:43:09Z</time></trkpt><trkpt lat="38.16554242243061" lon="13.098296494558312"><ele>41.0</ele><time>2026-03-29T10:43:10Z</time></trkpt><trkpt lat="38.165657566243176" lon="13.098185264231969"><ele>40.5</ele><time>2026-03-29T10:43:11Z</time></trkpt><trkpt lat="38.165772877157664" lon="13.09807472652765"><ele>40.0</ele><time>2026-03-29T10:43:12Z</time></trkpt><trkpt lat="38.16590010399653" lon="13.097976541240975"><ele>39.5</ele><time>2026-03-29T10:43:13Z</time></trkpt><trkpt lat="38.166008156781835" lon="13.097846134664218"><ele>39.0</ele><time>2026-03-29T10:43:14Z</time></trkpt><trkpt lat="38.16612133896536" lon="13.097749520733576"><ele>39.0</ele><time>2026-03-29T10:43:15Z</time></trkpt><trkpt lat="38.16624079004611" lon="13.097638165303074"><ele>39.0</ele><time>2026-03-29T10:43:16Z</time></trkpt><trkpt lat="38.16636077924921" lon="13.097542684507419"><ele>39.0</ele><time>2026-03-29T10:43:17Z</time></trkpt><trkpt lat="38.16647602160661" lon="13.097450065756886"><ele>39.0</ele><time>2026-03-29T10:43:18Z</time></trkpt><trkpt lat="38.16658979464877" lon="13.097332633068941"><ele>37.75</ele><time>2026-03-29T10:43:19Z</time></trkpt><trkpt lat="38.16669903075998" lon="13.097213004011344"><ele>36.5</ele><time>2026-03-29T10:43:20Z</time></trkpt><trkpt lat="38.1668039503915" lon="13.097109517909246"><ele>35.25</ele><time>2026-03-29T10:43:21Z</time></trkpt><trkpt lat="38.166900066637666" lon="13.097017880185069"><ele>34.0</ele><time>2026-03-29T10:43:22Z</time></trkpt><trkpt lat="38.16698520622128" lon="13.096927781129343"><ele>34.0</ele><time>2026-03-29T10:43:23Z</time></trkpt><trkpt lat="38.167069060680035" lon="13.096845015131864"><ele>34.0</ele><time>2026-03-29T10:43:24Z</time></trkpt><trkpt lat="38.167145232136555" lon="13.096774824592412"><ele>34.0</ele><time>2026-03-29T10:43:25Z</time></trkpt><trkpt lat="38.16721930032582" lon="13.096702026771926"><ele>34.0</ele><time>2026-03-29T10:43:26Z</time></trkpt><trkpt lat="38.1672910759655" lon="13.096625542438709"><ele>34.0</ele><time>2026-03-29T10:43:27Z</time></trkpt><trkpt lat="38.16736223587941" lon="13.09656348656364"><ele>33.16666666666667</ele><time>2026-03-29T10:43:28Z</time></trkpt><trkpt lat="38.16743903995909" lon="13.096498390451371"><ele>32.333333333333336</ele><time>2026-03-29T10:43:29Z</time></trkpt><trkpt lat="38.16749929720904" lon="13.096446927353043"><ele>31.5</ele><time>2026-03-29T10:43:30Z</time></trkpt><trkpt lat="38.167564477144616" lon="13.09639013587669"><ele>30.666666666666664</ele><time>2026-03-29T10:43:31Z</time></trkpt><trkpt lat="38.1676404019592" lon="13.096308925416004"><ele>29.833333333333332</ele><time>2026-03-29T10:43:33Z</time></trkpt><trkpt lat="38.16768874807334" lon="13.096247455762528"><ele>29.0</ele><time>2026-03-29T10:43:37Z</time></trkpt><trkpt lat="38.16774942210275" lon="13.096394186729308"><ele>29.0</ele><time>2026-03-29T10:43:38Z</time></trkpt><trkpt lat="38.16782385125435" lon="13.09647755257754"><ele>29.0</ele><time>2026-03-29T10:43:39Z</time></trkpt><trkpt lat="38.167887949406385" lon="13.096590469724516"><ele>29.0</ele><time>2026-03-29T10:43:40Z</time></trkpt><trkpt lat="38.16796646879099" lon="13.096716949007721"><ele>29.0</ele><time>2026-03-29T10:43:41Z</time></trkpt><trkpt lat="38.168040930587836" lon="13.096840253389528"><ele>29.5</ele><time>2026-03-29T10:43:42Z</time></trkpt><trkpt lat="38.16814338134501" lon="13.096976043031054"><ele>30.0</ele><time>2026-03-29T10:43:43Z</time></trkpt><trkpt lat="38.16822859219621" lon="13.097118198950742"><ele>30.5</ele><time>2026-03-29T10:43:44Z</time></trkpt><trkpt lat="38.16831253857949" lon="13.097253209830457"><ele>31.0</ele><time>2026-03-29T10:43:45Z</time></trkpt><trkpt lat="38.168401009897764" lon="13.097391373846886"><ele>31.5</ele><time>2026-03-29T10:43:46Z</time></trkpt><trkpt lat="38.16848939474646" lon="13.097529823297128"><ele>32.0</ele><time>2026-03-29T10:43:47Z</time></trkpt><trkpt lat="38.168578557086676" lon="13.097668610435775"><ele>32.5</ele><time>2026-03-29T10:43:48Z</time></trkpt><trkpt lat="38.16866286261901" lon="13.097808617316232"><ele>33.0</ele><time>2026-03-29T10:43:49Z</time></trkpt><trkpt lat="38.16874631745675" lon="13.09794741534679"><ele>33.0</ele><time>2026-03-29T10:43:50Z</time></trkpt><trkpt lat="38.16883163784132" lon="13.09809099207549"><ele>33.0</ele><time>2026-03-29T10:43:51Z</time></trkpt><trkpt lat="38.16891834935364" lon="13.09822939606187"><ele>33.0</ele><time>2026-03-29T10:43:52Z</time></trkpt><trkpt lat="38.169005197929884" lon="13.098368718364798"><ele>33.0</ele><time>2026-03-29T10:43:53Z</time></trkpt><trkpt lat="38.16908883693908" lon="13.098505730182517"><ele>33.5</ele><time>2026-03-29T10:43:54Z</time></trkpt><trkpt lat="38.1691710156704" lon="13.098652139028152"><ele>34.0</ele><time>2026-03-29T10:43:55Z</time></trkpt><trkpt lat="38.169254576546756" lon="13.098798446909244"><ele>34.5</ele><time>2026-03-29T10:43:56Z</time></trkpt><trkpt lat="38.16934238567085" lon="13.098947052195802"><ele>35.0</ele><time>2026-03-29T10:43:57Z</time></trkpt><trkpt lat="38.16942815830841" lon="13.099095001068827"><ele>35.666666666666664</ele><time>2026-03-29T10:43:58Z</time></trkpt><trkpt lat="38.169513214385645" lon="13.09925031882138"><ele>36.333333333333336</ele><time>2026-03-29T10:43:59Z</time></trkpt><trkpt lat="38.16960571002672" lon="13.099407659179075"><ele>37.0</ele><time>2026-03-29T10:44:00Z</time></trkpt><trkpt lat="38.16968932929738" lon="13.099565220541267"><ele>37.0</ele><time>2026-03-29T10:44:01Z</time></trkpt><trkpt lat="38.169777819534865" lon="13.099724204448803"><ele>37.0</ele><time>2026-03-29T10:44:02Z</time></trkpt><trkpt lat="38.16986924497136" lon="13.09987962767457"><ele>37.0</ele><time>2026-03-29T10:44:03Z</time></trkpt><trkpt lat="38.1699608136277" lon="13.100033081035928"><ele>36.75</ele><time>2026-03-29T10:44:04Z</time></trkpt><trkpt lat="38.17004945610393" lon="13.100184371184612"><ele>36.5</ele><time>2026-03-29T10:44:05Z</time></trkpt><trkpt lat="38.17011402189114" lon="13.100326518583206"><ele>36.25</ele><time>2026-03-29T10:44:06Z</time></trkpt><trkpt lat="38.17018839066482" lon="13.10046657743638"><ele>36.0</ele><time>2026-03-29T10:44:07Z</time></trkpt><trkpt lat="38.17027031130131" lon="13.100614931199216"><ele>36.333333333333336</ele><time>2026-03-29T10:44:08Z</time></trkpt><trkpt lat="38.17038582047127" lon="13.100792370950158"><ele>36.66666666666667</ele><time>2026-03-29T10:44:09Z</time></trkpt><trkpt lat="38.17049131312925" lon="13.100975927282379"><ele>37.0</ele><time>2026-03-29T10:44:10Z</time></trkpt><trkpt lat="38.170619678937" lon="13.101150034867876"><ele>37.0</ele><time>2026-03-29T10:44:11Z</time></trkpt><trkpt lat="38.170747331174624" lon="13.101315163655892"><ele>37.0</ele><time>2026-03-29T10:44:12Z</time></trkpt><trkpt lat="38.170890010017835" lon="13.101495383353335"><ele>37.0</ele><time>2026-03-29T10:44:13Z</time></trkpt><trkpt lat="38.17102364355829" lon="13.101674315007191"><ele>37.333333333333336</ele><time>2026-03-29T10:44:14Z</time></trkpt><trkpt lat="38.1711483610111" lon="13.101859352135776"><ele>37.666666666666664</ele><time>2026-03-29T10:44:15Z</time></trkpt><trkpt lat="38.17127259121372" lon="13.102041407342663"><ele>38.0</ele><time>2026-03-29T10:44:16Z</time></trkpt><trkpt lat="38.17139216530528" lon="13.102216959647118"><ele>38.0</ele><time>2026-03-29T10:44:16.999Z</time></trkpt><trkpt lat="38.17149766655526" lon="13.10237520733638"><ele>38.0</ele><time>2026-03-29T10:44:17.999Z</time></trkpt><trkpt lat="38.171608457043476" lon="13.102532425405876"><ele>38.0</ele><time>2026-03-29T10:44:18.999Z</time></trkpt><trkpt lat="38.171723085205294" lon="13.102691991905047"><ele>37.666666666666664</ele><time>2026-03-29T10:44:19.999Z</time></trkpt><trkpt lat="38.1718599259919" lon="13.102847546953285"><ele>37.333333333333336</ele><time>2026-03-29T10:44:20.999Z</time></trkpt><trkpt lat="38.172001384340774" lon="13.1029875045121"><ele>37.0</ele><time>2026-03-29T10:44:21.999Z</time></trkpt><trkpt lat="38.17212612918991" lon="13.103097387657906"><ele>37.0</ele><time>2026-03-29T10:44:22.999Z</time></trkpt><trkpt lat="38.17222952572239" lon="13.103186581507702"><ele>37.0</ele><time>2026-03-29T10:44:23.999Z</time></trkpt><trkpt lat="38.17233241078195" lon="13.103247618705636"><ele>37.0</ele><time>2026-03-29T10:44:24.999Z</time></trkpt><trkpt lat="38.172453715111914" lon="13.103262554089424"><ele>37.0</ele><time>2026-03-29T10:44:25.999Z</time></trkpt><trkpt lat="38.17260190225525" lon="13.103243503612905"><ele>37.0</ele><time>2026-03-29T10:44:26.999Z</time></trkpt><trkpt lat="38.17273784025753" lon="13.103204944322089"><ele>37.0</ele><time>2026-03-29T10:44:27.999Z</time></trkpt><trkpt lat="38.172846682608" lon="13.10320323919998"><ele>37.0</ele><time>2026-03-29T10:44:28.999Z</time></trkpt><trkpt lat="38.17292623607353" lon="13.103267493460308"><ele>37.0</ele><time>2026-03-29T10:44:29.999Z</time></trkpt><trkpt lat="38.173019985091074" lon="13.103329103353817"><ele>37.0</ele><time>2026-03-29T10:44:31Z</time></trkpt><trkpt lat="38.17312813714998" lon="13.103424079793337"><ele>36.66666666666667</ele><time>2026-03-29T10:44:32Z</time></trkpt><trkpt lat="38.17326223859944" lon="13.103532755583402"><ele>36.333333333333336</ele><time>2026-03-29T10:44:33Z</time></trkpt><trkpt lat="38.1733916562761" lon="13.103635062512643"><ele>36.0</ele><time>2026-03-29T10:44:34Z</time></trkpt><trkpt lat="38.17353108236238" lon="13.103737612753756"><ele>36.0</ele><time>2026-03-29T10:44:35Z</time></trkpt><trkpt lat="38.173702097122394" lon="13.10383610469643"><ele>36.0</ele><time>2026-03-29T10:44:36Z</time></trkpt><trkpt lat="38.173869723798155" lon="13.103922590037685"><ele>36.0</ele><time>2026-03-29T10:44:37Z</time></trkpt><trkpt lat="38.17400929614162" lon="13.103996823361731"><ele>35.75</ele><time>2026-03-29T10:44:38Z</time></trkpt><trkpt lat="38.17413242934843" lon="13.10404528557737"><ele>35.5</ele><time>2026-03-29T10:44:39Z</time></trkpt><trkpt lat="38.17424790442504" lon="13.1040663941767"><ele>35.25</ele><time>2026-03-29T10:44:40Z</time></trkpt><trkpt lat="38.17435296430594" lon="13.104039619200362"><ele>35.0</ele><time>2026-03-29T10:44:41Z</time></trkpt><trkpt lat="38.17446526349149" lon="13.103978222108237"><ele>35.0</ele><time>2026-03-29T10:44:42Z</time></trkpt><trkpt lat="38.17459412543982" lon="13.103882241729597"><ele>35.0</ele><time>2026-03-29T10:44:43Z</time></trkpt><trkpt lat="38.17471664262462" lon="13.10381460747855"><ele>35.0</ele><time>2026-03-29T10:44:44Z</time></trkpt><trkpt lat="38.174836007010036" lon="13.103751589554431"><ele>35.0</ele><time>2026-03-29T10:44:45Z</time></trkpt><trkpt lat="38.17497227829787" lon="13.103742918139854"><ele>34.0</ele><time>2026-03-29T10:44:46Z</time></trkpt><trkpt lat="38.17513602433746" lon="13.103743666276975"><ele>33.0</ele><time>2026-03-29T10:44:47Z</time></trkpt><trkpt lat="38.175308707148154" lon="13.10374689310497"><ele>32.0</ele><time>2026-03-29T10:44:48Z</time></trkpt><trkpt lat="38.1754941166924" lon="13.10374097203166"><ele>32.0</ele><time>2026-03-29T10:44:49Z</time></trkpt><trkpt lat="38.175673781914575" lon="13.103730092093247"><ele>32.0</ele><time>2026-03-29T10:44:50Z</time></trkpt><trkpt lat="38.17585240361297" lon="13.103725496945636"><ele>32.0</ele><time>2026-03-29T10:44:51Z</time></trkpt><trkpt lat="38.17601150410225" lon="13.103727961756224"><ele>31.75</ele><time>2026-03-29T10:44:52Z</time></trkpt><trkpt lat="38.17614513444336" lon="13.103729229268136"><ele>31.5</ele><time>2026-03-29T10:44:53Z</time></trkpt><trkpt lat="38.17626970210719" lon="13.10373165443912"><ele>31.25</ele><time>2026-03-29T10:44:54Z</time></trkpt><trkpt lat="38.176368266669996" lon="13.10374748851489"><ele>31.0</ele><time>2026-03-29T10:44:55Z</time></trkpt><trkpt lat="38.176448278336274" lon="13.103808238438829"><ele>31.0</ele><time>2026-03-29T10:44:56Z</time></trkpt><trkpt lat="38.17653755837408" lon="13.103909892386293"><ele>31.0</ele><time>2026-03-29T10:44:57Z</time></trkpt><trkpt lat="38.176647068393805" lon="13.104044107662599"><ele>31.0</ele><time>2026-03-29T10:44:58Z</time></trkpt><trkpt lat="38.176771584863495" lon="13.104186298460494"><ele>31.0</ele><time>2026-03-29T10:44:59Z</time></trkpt><trkpt lat="38.176878989640954" lon="13.104314485886805"><ele>31.0</ele><time>2026-03-29T10:45:00Z</time></trkpt><trkpt lat="38.17697440756623" lon="13.10441151115923"><ele>31.0</ele><time>2026-03-29T10:45:01Z</time></trkpt><trkpt lat="38.17704896957192" lon="13.104493945738854"><ele>31.0</ele><time>2026-03-29T10:45:02Z</time></trkpt><trkpt lat="38.177095672163915" lon="13.104553579126806"><ele>31.0</ele><time>2026-03-29T10:45:03Z</time></trkpt><trkpt lat="38.17721402483072" lon="13.104531163114096"><ele>31.0</ele><time>2026-03-29T10:45:07Z</time></trkpt><trkpt lat="38.17727442223894" lon="13.10446417029333"><ele>31.000000000000004</ele><time>2026-03-29T10:45:08Z</time></trkpt><trkpt lat="38.177332532051" lon="13.104402580355606"><ele>31.0</ele><time>2026-03-29T10:45:09Z</time></trkpt><trkpt lat="38.177416606142934" lon="13.104323773174443"><ele>31.0</ele><time>2026-03-29T10:45:10Z</time></trkpt><trkpt lat="38.177492277526234" lon="13.104315875380715"><ele>31.0</ele><time>2026-03-29T10:45:11Z</time></trkpt><trkpt lat="38.177562592291984" lon="13.104341773099469"><ele>31.000000000000004</ele><time>2026-03-29T10:45:12Z</time></trkpt><trkpt lat="38.17764770290071" lon="13.104425152097285"><ele>31.0</ele><time>2026-03-29T10:45:13Z</time></trkpt><trkpt lat="38.17771283657533" lon="13.104545237651342"><ele>31.0</ele><time>2026-03-29T10:45:14Z</time></trkpt><trkpt lat="38.177800903999795" lon="13.104659303161112"><ele>31.0</ele><time>2026-03-29T10:45:15Z</time></trkpt><trkpt lat="38.17788266401804" lon="13.104811314887227"><ele>31.0</ele><time>2026-03-29T10:45:16Z</time></trkpt><trkpt lat="38.17798528066306" lon="13.104970218034145"><ele>31.0</ele><time>2026-03-29T10:45:17Z</time></trkpt><trkpt lat="38.178087330131866" lon="13.10514783895516"><ele>30.333333333333336</ele><time>2026-03-29T10:45:18Z</time></trkpt><trkpt lat="38.178193277550534" lon="13.105340395405237"><ele>29.666666666666664</ele><time>2026-03-29T10:45:19Z</time></trkpt><trkpt lat="38.17830903072702" lon="13.10552271562672"><ele>29.0</ele><time>2026-03-29T10:45:20Z</time></trkpt><trkpt lat="38.178437445315375" lon="13.105711627178414"><ele>30.0</ele><time>2026-03-29T10:45:21Z</time></trkpt><trkpt lat="38.17855126879661" lon="13.105887179426738"><ele>31.0</ele><time>2026-03-29T10:45:22Z</time></trkpt><trkpt lat="38.178668345003864" lon="13.106080817774302"><ele>32.0</ele><time>2026-03-29T10:45:23Z</time></trkpt><trkpt lat="38.17877756017044" lon="13.106257417918304"><ele>32.0</ele><time>2026-03-29T10:45:24Z</time></trkpt><trkpt lat="38.17888465843119" lon="13.1064183345838"><ele>32.0</ele><time>2026-03-29T10:45:25Z</time></trkpt><trkpt lat="38.178976473577244" lon="13.10655973357143"><ele>32.0</ele><time>2026-03-29T10:45:26Z</time></trkpt><trkpt lat="38.179062978578756" lon="13.106688899655676"><ele>32.0</ele><time>2026-03-29T10:45:27Z</time></trkpt><trkpt lat="38.17914846514004" lon="13.106828718925906"><ele>30.666666666666664</ele><time>2026-03-29T10:45:28Z</time></trkpt><trkpt lat="38.17923428544416" lon="13.106986444019412"><ele>29.333333333333336</ele><time>2026-03-29T10:45:29Z</time></trkpt><trkpt lat="38.17931229391821" lon="13.107169923594387"><ele>28.0</ele><time>2026-03-29T10:45:30Z</time></trkpt><trkpt lat="38.179386766519244" lon="13.107381920138002"><ele>28.666666666666668</ele><time>2026-03-29T10:45:31Z</time></trkpt><trkpt lat="38.17945061033076" lon="13.107596907451962"><ele>29.333333333333336</ele><time>2026-03-29T10:45:32Z</time></trkpt><trkpt lat="38.179525966544404" lon="13.107816215588496"><ele>30.0</ele><time>2026-03-29T10:45:33Z</time></trkpt><trkpt lat="38.17959486985923" lon="13.108022091983004"><ele>30.0</ele><time>2026-03-29T10:45:34Z</time></trkpt><trkpt lat="38.179655451440325" lon="13.108242024212613"><ele>30.0</ele><time>2026-03-29T10:45:35Z</time></trkpt><trkpt lat="38.17969073847725" lon="13.108451370362998"><ele>30.0</ele><time>2026-03-29T10:45:36Z</time></trkpt><trkpt lat="38.179723343703934" lon="13.108692105159477"><ele>30.666666666666664</ele><time>2026-03-29T10:45:37Z</time></trkpt><trkpt lat="38.17975440661557" lon="13.10891915137182"><ele>31.333333333333332</ele><time>2026-03-29T10:45:38Z</time></trkpt><trkpt lat="38.179791585196924" lon="13.10916665800319"><ele>32.0</ele><time>2026-03-29T10:45:39Z</time></trkpt><trkpt lat="38.17982878877465" lon="13.109417303649527"><ele>32.0</ele><time>2026-03-29T10:45:40Z</time></trkpt><trkpt lat="38.17987925098705" lon="13.109664315982823"><ele>32.0</ele><time>2026-03-29T10:45:41Z</time></trkpt><trkpt lat="38.17995477697792" lon="13.109901773127287"><ele>32.0</ele><time>2026-03-29T10:45:42Z</time></trkpt><trkpt lat="38.18004557201205" lon="13.110131497089139"><ele>32.0</ele><time>2026-03-29T10:45:43Z</time></trkpt><trkpt lat="38.18014619776614" lon="13.110365683148846"><ele>32.0</ele><time>2026-03-29T10:45:44Z</time></trkpt><trkpt lat="38.18024176416481" lon="13.11059369142926"><ele>32.0</ele><time>2026-03-29T10:45:45Z</time></trkpt><trkpt lat="38.18033489905605" lon="13.11083452643975"><ele>32.666666666666664</ele><time>2026-03-29T10:45:46Z</time></trkpt><trkpt lat="38.18042355842071" lon="13.111067172335066"><ele>33.333333333333336</ele><time>2026-03-29T10:45:47Z</time></trkpt><trkpt lat="38.18051073663416" lon="13.111294421231078"><ele>34.0</ele><time>2026-03-29T10:45:48Z</time></trkpt><trkpt lat="38.180599680613014" lon="13.111501751553835"><ele>34.66666666666667</ele><time>2026-03-29T10:45:49Z</time></trkpt><trkpt lat="38.180680422179435" lon="13.111704644406752"><ele>35.333333333333336</ele><time>2026-03-29T10:45:50Z</time></trkpt><trkpt lat="38.180755039994835" lon="13.111910984606784"><ele>36.0</ele><time>2026-03-29T10:45:51Z</time></trkpt><trkpt lat="38.18083670568641" lon="13.11213159000691"><ele>34.666666666666664</ele><time>2026-03-29T10:45:52Z</time></trkpt><trkpt lat="38.18091270848187" lon="13.112331288289838"><ele>33.33333333333333</ele><time>2026-03-29T10:45:53Z</time></trkpt><trkpt lat="38.18097568467814" lon="13.112507549954183"><ele>32.0</ele><time>2026-03-29T10:45:54Z</time></trkpt><trkpt lat="38.18103409430821" lon="13.112702265802957"><ele>32.0</ele><time>2026-03-29T10:45:55Z</time></trkpt><trkpt lat="38.18107399678142" lon="13.11290023715295"><ele>32.0</ele><time>2026-03-29T10:45:56Z</time></trkpt><trkpt lat="38.18109343453045" lon="13.113109884103595"><ele>32.0</ele><time>2026-03-29T10:45:57Z</time></trkpt><trkpt lat="38.18113148652264" lon="13.113336685826813"><ele>32.666666666666664</ele><time>2026-03-29T10:45:58Z</time></trkpt><trkpt lat="38.18117251345248" lon="13.113552461959145"><ele>33.333333333333336</ele><time>2026-03-29T10:45:59Z</time></trkpt><trkpt lat="38.18119349002622" lon="13.113807645034615"><ele>34.0</ele><time>2026-03-29T10:46:00Z</time></trkpt><trkpt lat="38.181224748259446" lon="13.11406894219085"><ele>34.66666666666667</ele><time>2026-03-29T10:46:01Z</time></trkpt><trkpt lat="38.18125499190075" lon="13.114311233915442"><ele>35.333333333333336</ele><time>2026-03-29T10:46:02Z</time></trkpt><trkpt lat="38.18128955678639" lon="13.114569407210487"><ele>36.0</ele><time>2026-03-29T10:46:03Z</time></trkpt><trkpt lat="38.181322030367575" lon="13.114825182505141"><ele>36.0</ele><time>2026-03-29T10:46:04Z</time></trkpt><trkpt lat="38.18135769463871" lon="13.115071325638747"><ele>36.0</ele><time>2026-03-29T10:46:05Z</time></trkpt><trkpt lat="38.18141280972074" lon="13.115308488849502"><ele>36.0</ele><time>2026-03-29T10:46:06Z</time></trkpt><trkpt lat="38.18149084388983" lon="13.1155407270466"><ele>34.666666666666664</ele><time>2026-03-29T10:46:07Z</time></trkpt><trkpt lat="38.18157575867965" lon="13.115775141319236"><ele>33.33333333333333</ele><time>2026-03-29T10:46:08Z</time></trkpt><trkpt lat="38.18164560399664" lon="13.116006464297586"><ele>32.0</ele><time>2026-03-29T10:46:09Z</time></trkpt><trkpt lat="38.181688423319166" lon="13.116226824915303"><ele>32.0</ele><time>2026-03-29T10:46:10Z</time></trkpt><trkpt lat="38.18171577322356" lon="13.116436619691195"><ele>32.0</ele><time>2026-03-29T10:46:11Z</time></trkpt><trkpt lat="38.181702418534954" lon="13.11667939621607"><ele>32.0</ele><time>2026-03-29T10:46:12Z</time></trkpt><trkpt lat="38.18170184203155" lon="13.116931114652573"><ele>32.33333333333333</ele><time>2026-03-29T10:46:13Z</time></trkpt><trkpt lat="38.181720758687185" lon="13.11718887422945"><ele>32.666666666666664</ele><time>2026-03-29T10:46:14Z</time></trkpt><trkpt lat="38.181726434585464" lon="13.11747270738932"><ele>33.0</ele><time>2026-03-29T10:46:15Z</time></trkpt><trkpt lat="38.18173512970938" lon="13.117744510481302"><ele>33.0</ele><time>2026-03-29T10:46:16Z</time></trkpt><trkpt lat="38.181738423648774" lon="13.117987914652682"><ele>33.0</ele><time>2026-03-29T10:46:17Z</time></trkpt><trkpt lat="38.18174866137616" lon="13.11820321630731"><ele>33.0</ele><time>2026-03-29T10:46:18Z</time></trkpt><trkpt lat="38.18175690086972" lon="13.118431878928073"><ele>33.333333333333336</ele><time>2026-03-29T10:46:19Z</time></trkpt><trkpt lat="38.18175009784455" lon="13.118668304736012"><ele>33.66666666666667</ele><time>2026-03-29T10:46:20Z</time></trkpt><trkpt lat="38.18169645699654" lon="13.118890044568925"><ele>34.0</ele><time>2026-03-29T10:46:21Z</time></trkpt><trkpt lat="38.18165569739656" lon="13.119111519562368"><ele>33.333333333333336</ele><time>2026-03-29T10:46:22Z</time></trkpt><trkpt lat="38.18162310529691" lon="13.119342374908355"><ele>32.666666666666664</ele><time>2026-03-29T10:46:22.999Z</time></trkpt><trkpt lat="38.18158389140648" lon="13.119536850623334"><ele>32.0</ele><time>2026-03-29T10:46:23.999Z</time></trkpt><trkpt lat="38.18155729669604" lon="13.119738272229437"><ele>30.666666666666664</ele><time>2026-03-29T10:46:24.999Z</time></trkpt><trkpt lat="38.181563573329655" lon="13.119948075823139"><ele>29.333333333333336</ele><time>2026-03-29T10:46:25.999Z</time></trkpt><trkpt lat="38.18159769636239" lon="13.120139472526377"><ele>28.0</ele><time>2026-03-29T10:46:26.999Z</time></trkpt><trkpt lat="38.18166279036439" lon="13.120322009792092"><ele>28.0</ele><time>2026-03-29T10:46:27.999Z</time></trkpt><trkpt lat="38.18175388108976" lon="13.120485643504951"><ele>28.0</ele><time>2026-03-29T10:46:28.999Z</time></trkpt><trkpt lat="38.18186601711812" lon="13.120625602135624"><ele>28.0</ele><time>2026-03-29T10:46:29.999Z</time></trkpt><trkpt lat="38.18199732786795" lon="13.120724286051034"><ele>28.0</ele><time>2026-03-29T10:46:30.999Z</time></trkpt><trkpt lat="38.182152636323416" lon="13.120800001486698"><ele>28.0</ele><time>2026-03-29T10:46:31.999Z</time></trkpt><trkpt lat="38.18231681626956" lon="13.1208609742979"><ele>28.0</ele><time>2026-03-29T10:46:32.999Z</time></trkpt><trkpt lat="38.182491983941546" lon="13.12089996796724"><ele>26.5</ele><time>2026-03-29T10:46:33.999Z</time></trkpt><trkpt lat="38.18264333359445" lon="13.120950887041154"><ele>25.0</ele><time>2026-03-29T10:46:34.999Z</time></trkpt><trkpt lat="38.18277183379593" lon="13.121035920980596"><ele>23.5</ele><time>2026-03-29T10:46:35.999Z</time></trkpt><trkpt lat="38.182889874078995" lon="13.121134167928883"><ele>22.0</ele><time>2026-03-29T10:46:36.999Z</time></trkpt><trkpt lat="38.18297853166512" lon="13.121241374387228"><ele>22.0</ele><time>2026-03-29T10:46:37.999Z</time></trkpt><trkpt lat="38.183058409046424" lon="13.12138120537883"><ele>22.0</ele><time>2026-03-29T10:46:38.999Z</time></trkpt><trkpt lat="38.183115494912286" lon="13.121548666369568"><ele>22.0</ele><time>2026-03-29T10:46:39.999Z</time></trkpt><trkpt lat="38.18315369710008" lon="13.12173396581861"><ele>22.0</ele><time>2026-03-29T10:46:40.999Z</time></trkpt><trkpt lat="38.183177566937516" lon="13.121942612096674"><ele>20.666666666666664</ele><time>2026-03-29T10:46:41.999Z</time></trkpt><trkpt lat="38.18319028374433" lon="13.122175684258995"><ele>19.333333333333332</ele><time>2026-03-29T10:46:43Z</time></trkpt><trkpt lat="38.18320896009014" lon="13.122423768448526"><ele>18.0</ele><time>2026-03-29T10:46:44Z</time></trkpt><trkpt lat="38.18324827671984" lon="13.122668245301762"><ele>18.0</ele><time>2026-03-29T10:46:45Z</time></trkpt><trkpt lat="38.18331537042273" lon="13.122917163158208"><ele>18.0</ele><time>2026-03-29T10:46:46Z</time></trkpt><trkpt lat="38.18337482579714" lon="13.123176432517933"><ele>18.0</ele><time>2026-03-29T10:46:47Z</time></trkpt><trkpt lat="38.183447641382806" lon="13.123429640776973"><ele>18.0</ele><time>2026-03-29T10:46:48Z</time></trkpt><trkpt lat="38.18352058977363" lon="13.123668138004968"><ele>18.0</ele><time>2026-03-29T10:46:49Z</time></trkpt><trkpt lat="38.183585285340946" lon="13.123921482508834"><ele>18.0</ele><time>2026-03-29T10:46:50Z</time></trkpt><trkpt lat="38.183644987573395" lon="13.124183545651727"><ele>18.0</ele><time>2026-03-29T10:46:51Z</time></trkpt><trkpt lat="38.18370212789938" lon="13.12442989437456"><ele>18.0</ele><time>2026-03-29T10:46:52Z</time></trkpt><trkpt lat="38.183759765649654" lon="13.12466400529388"><ele>18.0</ele><time>2026-03-29T10:46:53Z</time></trkpt><trkpt lat="38.18381181970502" lon="13.124875128806726"><ele>18.333333333333332</ele><time>2026-03-29T10:46:54Z</time></trkpt><trkpt lat="38.18384379247004" lon="13.125073826696473"><ele>18.666666666666664</ele><time>2026-03-29T10:46:55Z</time></trkpt><trkpt lat="38.183864527787165" lon="13.12528642965436"><ele>19.0</ele><time>2026-03-29T10:46:56Z</time></trkpt><trkpt lat="38.18383649432812" lon="13.125502929380989"><ele>18.333333333333332</ele><time>2026-03-29T10:46:57Z</time></trkpt><trkpt lat="38.183833473650076" lon="13.12573789130546"><ele>17.666666666666668</ele><time>2026-03-29T10:46:58Z</time></trkpt><trkpt lat="38.1838113978106" lon="13.1259950977181"><ele>17.0</ele><time>2026-03-29T10:46:59Z</time></trkpt><trkpt lat="38.18379033306965" lon="13.126257908393397"><ele>17.0</ele><time>2026-03-29T10:47:00Z</time></trkpt><trkpt lat="38.183775151847634" lon="13.12648712760106"><ele>17.0</ele><time>2026-03-29T10:47:01Z</time></trkpt><trkpt lat="38.183756468443384" lon="13.126692899168225"><ele>17.0</ele><time>2026-03-29T10:47:02Z</time></trkpt><trkpt lat="38.18372137135073" lon="13.126877774284479"><ele>16.8</ele><time>2026-03-29T10:47:03Z</time></trkpt><trkpt lat="38.18368539497004" lon="13.127043312751569"><ele>16.6</ele><time>2026-03-29T10:47:04Z</time></trkpt><trkpt lat="38.183669000749745" lon="13.12718021376069"><ele>16.400000000000002</ele><time>2026-03-29T10:47:05Z</time></trkpt><trkpt lat="38.183686707517026" lon="13.127283126310818"><ele>16.2</ele><time>2026-03-29T10:47:06Z</time></trkpt><trkpt lat="38.18372793081175" lon="13.127360006384366"><ele>16.0</ele><time>2026-03-29T10:47:07Z</time></trkpt><trkpt lat="38.1837820944407" lon="13.127448719897421"><ele>16.0</ele><time>2026-03-29T10:47:09Z</time></trkpt><trkpt lat="38.18393146331473" lon="13.127373776033247"><ele>16.0</ele><time>2026-03-29T10:47:10Z</time></trkpt><trkpt lat="38.18403428297873" lon="13.127297625481589"><ele>16.0</ele><time>2026-03-29T10:47:11Z</time></trkpt><trkpt lat="38.18418335961327" lon="13.127266324377842"><ele>16.0</ele><time>2026-03-29T10:47:12Z</time></trkpt><trkpt lat="38.184348461290895" lon="13.127222023081787"><ele>15.333333333333332</ele><time>2026-03-29T10:47:13Z</time></trkpt><trkpt lat="38.184531094960654" lon="13.12717760357225"><ele>14.666666666666668</ele><time>2026-03-29T10:47:14Z</time></trkpt><trkpt lat="38.18471870462975" lon="13.127129022577376"><ele>14.0</ele><time>2026-03-29T10:47:15Z</time></trkpt><trkpt lat="38.18491108933576" lon="13.12708174577719"><ele>12.666666666666668</ele><time>2026-03-29T10:47:16Z</time></trkpt><trkpt lat="38.18510494410784" lon="13.127030422430561"><ele>11.333333333333334</ele><time>2026-03-29T10:47:17Z</time></trkpt><trkpt lat="38.18530154855191" lon="13.12696197791693"><ele>10.0</ele><time>2026-03-29T10:47:18Z</time></trkpt><trkpt lat="38.18549434532562" lon="13.126879395468473"><ele>9.333333333333334</ele><time>2026-03-29T10:47:19Z</time></trkpt><trkpt lat="38.18568017893336" lon="13.126792319756218"><ele>8.666666666666666</ele><time>2026-03-29T10:47:20Z</time></trkpt><trkpt lat="38.18586745818281" lon="13.126700642858951"><ele>8.0</ele><time>2026-03-29T10:47:21Z</time></trkpt><trkpt lat="38.18605329789107" lon="13.126613492519558"><ele>8.0</ele><time>2026-03-29T10:47:22Z</time></trkpt><trkpt lat="38.18623206496502" lon="13.126528838382061"><ele>8.0</ele><time>2026-03-29T10:47:23Z</time></trkpt><trkpt lat="38.186412463001844" lon="13.126427123305861"><ele>8.0</ele><time>2026-03-29T10:47:24Z</time></trkpt><trkpt lat="38.18658111774359" lon="13.126311989451198"><ele>7.666666666666666</ele><time>2026-03-29T10:47:25Z</time></trkpt><trkpt lat="38.18674972183153" lon="13.126182124402858"><ele>7.333333333333334</ele><time>2026-03-29T10:47:26Z</time></trkpt><trkpt lat="38.18691513830214" lon="13.126049679329236"><ele>7.0</ele><time>2026-03-29T10:47:27Z</time></trkpt><trkpt lat="38.187085509903284" lon="13.125923121685554"><ele>7.0</ele><time>2026-03-29T10:47:28Z</time></trkpt><trkpt lat="38.187252822527" lon="13.125791586434667"><ele>7.0</ele><time>2026-03-29T10:47:29Z</time></trkpt><trkpt lat="38.187398415724395" lon="13.125656844859416"><ele>7.0</ele><time>2026-03-29T10:47:30Z</time></trkpt><trkpt lat="38.18752595884748" lon="13.125530957199244"><ele>6.666666666666667</ele><time>2026-03-29T10:47:31Z</time></trkpt><trkpt lat="38.18764464055622" lon="13.125413614942177"><ele>6.333333333333334</ele><time>2026-03-29T10:47:32Z</time></trkpt><trkpt lat="38.18776345466002" lon="13.125291144860045"><ele>6.0</ele><time>2026-03-29T10:47:33Z</time></trkpt><trkpt lat="38.1878791956909" lon="13.125128005788769"><ele>6.0</ele><time>2026-03-29T10:47:34Z</time></trkpt><trkpt lat="38.188000653799705" lon="13.124976004307069"><ele>6.0</ele><time>2026-03-29T10:47:35Z</time></trkpt><trkpt lat="38.188131614332065" lon="13.124815395128035"><ele>6.0</ele><time>2026-03-29T10:47:36Z</time></trkpt><trkpt lat="38.188256058100364" lon="13.124657360572167"><ele>5.75</ele><time>2026-03-29T10:47:37Z</time></trkpt><trkpt lat="38.18836568944321" lon="13.124511776853936"><ele>5.5</ele><time>2026-03-29T10:47:38Z</time></trkpt><trkpt lat="38.18846774816119" lon="13.124375540698054"><ele>5.25</ele><time>2026-03-29T10:47:39Z</time></trkpt><trkpt lat="38.18856519931661" lon="13.124253844071326"><ele>5.0</ele><time>2026-03-29T10:47:40Z</time></trkpt><trkpt lat="38.18864877366898" lon="13.124129133765111"><ele>5.0</ele><time>2026-03-29T10:47:41Z</time></trkpt><trkpt lat="38.188726469841335" lon="13.124018093769873"><ele>5.0</ele><time>2026-03-29T10:47:42Z</time></trkpt><trkpt lat="38.18882959746017" lon="13.12397440302465"><ele>5.0</ele><time>2026-03-29T10:47:43Z</time></trkpt><trkpt lat="38.18890787230464" lon="13.123890178648494"><ele>5.0</ele><time>2026-03-29T10:47:44Z</time></trkpt><trkpt lat="38.18899203851409" lon="13.123773049869191"><ele>4.6</ele><time>2026-03-29T10:47:45Z</time></trkpt><trkpt lat="38.1890880773682" lon="13.1236754046836"><ele>4.2</ele><time>2026-03-29T10:47:46Z</time></trkpt><trkpt lat="38.1891758074747" lon="13.123608717340577"><ele>3.8</ele><time>2026-03-29T10:47:47Z</time></trkpt><trkpt lat="38.18925252846745" lon="13.1235496656204"><ele>3.4</ele><time>2026-03-29T10:47:48Z</time></trkpt><trkpt lat="38.1893302678648" lon="13.12348983027993"><ele>3.0</ele><time>2026-03-29T10:47:49Z</time></trkpt><trkpt lat="38.1893563132866" lon="13.123286936502614"><ele>3.0</ele><time>2026-03-29T10:47:50Z</time></trkpt><trkpt lat="38.18941159179826" lon="13.123201207607108"><ele>3.0</ele><time>2026-03-29T10:47:51Z</time></trkpt><trkpt lat="38.18949710192948" lon="13.12318473941035"><ele>3.0</ele><time>2026-03-29T10:47:53Z</time></trkpt><trkpt lat="38.18958264429601" lon="13.123237477819679"><ele>3.0</ele><time>2026-03-29T10:47:55Z</time></trkpt><trkpt lat="38.18966348681954" lon="13.123238599803019"><ele>3.0</ele><time>2026-03-29T10:47:57Z</time></trkpt><trkpt lat="38.18978959422477" lon="13.123290216279425"><ele>3.0</ele><time>2026-03-29T10:47:59Z</time></trkpt><trkpt lat="38.18993749494185" lon="13.123229791958495"><ele>3.0</ele><time>2026-03-29T10:48:02Z</time></trkpt><trkpt lat="38.189996481642694" lon="13.123161427706924"><ele>3.0</ele><time>2026-03-29T10:48:03Z</time></trkpt><trkpt lat="38.18993464543861" lon="13.12323736267036"><ele>3.0</ele><time>2026-03-29T10:48:08Z</time></trkpt><trkpt lat="38.18987172302413" lon="13.123290315019592"><ele>3.0</ele><time>2026-03-29T10:48:09Z</time></trkpt><trkpt lat="38.18978966431" lon="13.123388043100883"><ele>3.0</ele><time>2026-03-29T10:48:10Z</time></trkpt><trkpt lat="38.18968439014416" lon="13.123500738429746"><ele>3.0</ele><time>2026-03-29T10:48:11Z</time></trkpt><trkpt lat="38.18956964377006" lon="13.123593573533839"><ele>3.0</ele><time>2026-03-29T10:48:12Z</time></trkpt><trkpt lat="38.189462724402475" lon="13.123721427877468"><ele>3.0</ele><time>2026-03-29T10:48:13Z</time></trkpt><trkpt lat="38.189396555244834" lon="13.123969784195875"><ele>3.0</ele><time>2026-03-29T10:48:14Z</time></trkpt><trkpt lat="38.18929904652542" lon="13.1241851904472"><ele>3.0</ele><time>2026-03-29T10:48:15Z</time></trkpt><trkpt lat="38.18918986770625" lon="13.124405160717465"><ele>3.0</ele><time>2026-03-29T10:48:16Z</time></trkpt><trkpt lat="38.18908889778768" lon="13.124612587901005"><ele>3.666666666666667</ele><time>2026-03-29T10:48:17Z</time></trkpt><trkpt lat="38.188997083269435" lon="13.124815455758998"><ele>4.333333333333334</ele><time>2026-03-29T10:48:18Z</time></trkpt><trkpt lat="38.18891556912932" lon="13.125003617120996"><ele>5.0</ele><time>2026-03-29T10:48:19Z</time></trkpt><trkpt lat="38.18884298617704" lon="13.125169772420936"><ele>5.333333333333334</ele><time>2026-03-29T10:48:20Z</time></trkpt><trkpt lat="38.18877283785951" lon="13.125331142342153"><ele>5.666666666666667</ele><time>2026-03-29T10:48:21Z</time></trkpt><trkpt lat="38.1887086444569" lon="13.12550344364315"><ele>6.0</ele><time>2026-03-29T10:48:22Z</time></trkpt><trkpt lat="38.18864184322344" lon="13.125689533779331"><ele>5.666666666666667</ele><time>2026-03-29T10:48:23Z</time></trkpt><trkpt lat="38.18857701935686" lon="13.125878380913122"><ele>5.333333333333334</ele><time>2026-03-29T10:48:24Z</time></trkpt><trkpt lat="38.188513342112515" lon="13.126068797277176"><ele>5.0</ele><time>2026-03-29T10:48:25Z</time></trkpt><trkpt lat="38.18845459487448" lon="13.126277336346234"><ele>5.0</ele><time>2026-03-29T10:48:26Z</time></trkpt><trkpt lat="38.188398842844336" lon="13.126482639914668"><ele>5.0</ele><time>2026-03-29T10:48:27Z</time></trkpt><trkpt lat="38.18835099426654" lon="13.126665859209526"><ele>5.0</ele><time>2026-03-29T10:48:28Z</time></trkpt><trkpt lat="38.18831519591696" lon="13.126823703828029"><ele>5.166666666666667</ele><time>2026-03-29T10:48:28.999Z</time></trkpt><trkpt lat="38.18828701875901" lon="13.126958564517231"><ele>5.333333333333334</ele><time>2026-03-29T10:48:29.999Z</time></trkpt><trkpt lat="38.18827825349998" lon="13.127075581097165"><ele>5.5</ele><time>2026-03-29T10:48:30.999Z</time></trkpt><trkpt lat="38.188296452270635" lon="13.127185582903463"><ele>5.666666666666667</ele><time>2026-03-29T10:48:31.999Z</time></trkpt><trkpt lat="38.18831783334803" lon="13.127281348125953"><ele>5.833333333333333</ele><time>2026-03-29T10:48:32.999Z</time></trkpt><trkpt lat="38.188320899399244" lon="13.127367176692092"><ele>6.0</ele><time>2026-03-29T10:48:33.999Z</time></trkpt><trkpt lat="38.18822803169995" lon="13.127499229627203"><ele>6.25</ele><time>2026-03-29T10:48:35.999Z</time></trkpt><trkpt lat="38.188171263509375" lon="13.127633453944831"><ele>6.5</ele><time>2026-03-29T10:48:36.999Z</time></trkpt><trkpt lat="38.188114214128554" lon="13.12777970420138"><ele>6.75</ele><time>2026-03-29T10:48:37.999Z</time></trkpt><trkpt lat="38.18807477362409" lon="13.127955283404514"><ele>7.0</ele><time>2026-03-29T10:48:38.999Z</time></trkpt><trkpt lat="38.18804005223519" lon="13.128176596720042"><ele>7.333333333333334</ele><time>2026-03-29T10:48:39.999Z</time></trkpt><trkpt lat="38.18799580103122" lon="13.128398687625898"><ele>7.666666666666666</ele><time>2026-03-29T10:48:40.999Z</time></trkpt><trkpt lat="38.18794075068576" lon="13.128640351673566"><ele>8.0</ele><time>2026-03-29T10:48:41.999Z</time></trkpt><trkpt lat="38.187886268456715" lon="13.128880555969763"><ele>8.0</ele><time>2026-03-29T10:48:42.999Z</time></trkpt><trkpt lat="38.18783584011952" lon="13.129131276240093"><ele>8.0</ele><time>2026-03-29T10:48:43.999Z</time></trkpt><trkpt lat="38.18778401454072" lon="13.12939088540123"><ele>8.0</ele><time>2026-03-29T10:48:44.999Z</time></trkpt><trkpt lat="38.18772509966765" lon="13.12965923772514"><ele>7.666666666666666</ele><time>2026-03-29T10:48:45.999Z</time></trkpt><trkpt lat="38.1876654580113" lon="13.129934302671968"><ele>7.333333333333334</ele><time>2026-03-29T10:48:47Z</time></trkpt><trkpt lat="38.18760106779462" lon="13.130185070811352"><ele>7.0</ele><time>2026-03-29T10:48:48Z</time></trkpt><trkpt lat="38.187544493211426" lon="13.130407154352836"><ele>7.0</ele><time>2026-03-29T10:48:49Z</time></trkpt><trkpt lat="38.18748744912988" lon="13.130609422638218"><ele>7.0</ele><time>2026-03-29T10:48:50Z</time></trkpt><trkpt lat="38.18741730562351" lon="13.130806601418747"><ele>7.0</ele><time>2026-03-29T10:48:51Z</time></trkpt><trkpt lat="38.18734303611106" lon="13.131003963997303"><ele>7.333333333333334</ele><time>2026-03-29T10:48:52Z</time></trkpt><trkpt lat="38.18726515545987" lon="13.13121531234595"><ele>7.666666666666666</ele><time>2026-03-29T10:48:53Z</time></trkpt><trkpt lat="38.18718622246534" lon="13.131411178780416"><ele>8.0</ele><time>2026-03-29T10:48:54Z</time></trkpt><trkpt lat="38.1871006991615" lon="13.13161312042536"><ele>7.333333333333333</ele><time>2026-03-29T10:48:55Z</time></trkpt><trkpt lat="38.18699636848979" lon="13.131802097139056"><ele>6.666666666666666</ele><time>2026-03-29T10:48:56Z</time></trkpt><trkpt lat="38.18690193513904" lon="13.1319942388006"><ele>6.0</ele><time>2026-03-29T10:48:57Z</time></trkpt><trkpt lat="38.18680119483258" lon="13.132189162085751"><ele>5.666666666666667</ele><time>2026-03-29T10:48:58Z</time></trkpt><trkpt lat="38.18670606308457" lon="13.132394758313946"><ele>5.333333333333334</ele><time>2026-03-29T10:48:59Z</time></trkpt><trkpt lat="38.18659969067235" lon="13.132574991264406"><ele>5.0</ele><time>2026-03-29T10:49:00Z</time></trkpt><trkpt lat="38.18648267181263" lon="13.132757178633826"><ele>5.666666666666667</ele><time>2026-03-29T10:49:01Z</time></trkpt><trkpt lat="38.18635903412967" lon="13.132946553425644"><ele>6.333333333333334</ele><time>2026-03-29T10:49:02Z</time></trkpt><trkpt lat="38.18623434675387" lon="13.133130843135195"><ele>7.0</ele><time>2026-03-29T10:49:03Z</time></trkpt><trkpt lat="38.18611169949402" lon="13.133312036406696"><ele>7.0</ele><time>2026-03-29T10:49:04Z</time></trkpt><trkpt lat="38.1859880796208" lon="13.133497269717513"><ele>7.0</ele><time>2026-03-29T10:49:05Z</time></trkpt><trkpt lat="38.185864084786935" lon="13.133678293140992"><ele>7.0</ele><time>2026-03-29T10:49:06Z</time></trkpt><trkpt lat="38.18573903486602" lon="13.133858774359103"><ele>7.333333333333334</ele><time>2026-03-29T10:49:07Z</time></trkpt><trkpt lat="38.18561647966379" lon="13.134038134181607"><ele>7.666666666666666</ele><time>2026-03-29T10:49:08Z</time></trkpt><trkpt lat="38.18548996757732" lon="13.134219158199453"><ele>8.0</ele><time>2026-03-29T10:49:09Z</time></trkpt><trkpt lat="38.18536680681559" lon="13.134406073779575"><ele>8.0</ele><time>2026-03-29T10:49:10Z</time></trkpt><trkpt lat="38.18524288742942" lon="13.134593230002663"><ele>8.0</ele><time>2026-03-29T10:49:11Z</time></trkpt><trkpt lat="38.18511765518736" lon="13.134781744873065"><ele>8.0</ele><time>2026-03-29T10:49:12Z</time></trkpt><trkpt lat="38.184992926399374" lon="13.134966820172817"><ele>7.666666666666666</ele><time>2026-03-29T10:49:13Z</time></trkpt><trkpt lat="38.184869290750285" lon="13.135151898562198"><ele>7.333333333333334</ele><time>2026-03-29T10:49:14Z</time></trkpt><trkpt lat="38.18474592534859" lon="13.135339020138762"><ele>7.0</ele><time>2026-03-29T10:49:15Z</time></trkpt><trkpt lat="38.18462347815592" lon="13.135523805032713"><ele>7.333333333333334</ele><time>2026-03-29T10:49:16Z</time></trkpt><trkpt lat="38.184510989260616" lon="13.135706815788431"><ele>7.666666666666666</ele><time>2026-03-29T10:49:17Z</time></trkpt><trkpt lat="38.18440406312822" lon="13.135860051897167"><ele>8.0</ele><time>2026-03-29T10:49:18Z</time></trkpt><trkpt lat="38.18431007035022" lon="13.135997173617694"><ele>8.0</ele><time>2026-03-29T10:49:19Z</time></trkpt><trkpt lat="38.18421865106641" lon="13.136135638461447"><ele>8.0</ele><time>2026-03-29T10:49:20Z</time></trkpt><trkpt lat="38.18414344154711" lon="13.13624876335841"><ele>8.0</ele><time>2026-03-29T10:49:21Z</time></trkpt><trkpt lat="38.18407741347489" lon="13.136355354729478"><ele>8.0</ele><time>2026-03-29T10:49:22Z</time></trkpt><trkpt lat="38.18401942903816" lon="13.136459476534972"><ele>8.5</ele><time>2026-03-29T10:49:23Z</time></trkpt><trkpt lat="38.18396416716024" lon="13.136564948880205"><ele>9.0</ele><time>2026-03-29T10:49:24Z</time></trkpt><trkpt lat="38.183884236356455" lon="13.136667857492005"><ele>9.5</ele><time>2026-03-29T10:49:25Z</time></trkpt><trkpt lat="38.18382278567503" lon="13.136799479266914"><ele>10.0</ele><time>2026-03-29T10:49:26Z</time></trkpt><trkpt lat="38.18374189323205" lon="13.136925923602414"><ele>10.0</ele><time>2026-03-29T10:49:27Z</time></trkpt><trkpt lat="38.18366062936595" lon="13.137070203798896"><ele>10.0</ele><time>2026-03-29T10:49:28Z</time></trkpt><trkpt lat="38.183579456328445" lon="13.137237296027099"><ele>10.0</ele><time>2026-03-29T10:49:29Z</time></trkpt><trkpt lat="38.18350172661246" lon="13.13739087904673"><ele>10.0</ele><time>2026-03-29T10:49:30Z</time></trkpt><trkpt lat="38.18343046991629" lon="13.13753818675162"><ele>9.75</ele><time>2026-03-29T10:49:31Z</time></trkpt><trkpt lat="38.18336206186244" lon="13.137694242973621"><ele>9.5</ele><time>2026-03-29T10:49:32Z</time></trkpt><trkpt lat="38.18329526115686" lon="13.137858639327256"><ele>9.25</ele><time>2026-03-29T10:49:33Z</time></trkpt><trkpt lat="38.183229537142836" lon="13.138010336452092"><ele>9.0</ele><time>2026-03-29T10:49:34Z</time></trkpt><trkpt lat="38.18317409071668" lon="13.13816952192812"><ele>8.5</ele><time>2026-03-29T10:49:35Z</time></trkpt><trkpt lat="38.18312650013447" lon="13.138314174414317"><ele>8.0</ele><time>2026-03-29T10:49:36Z</time></trkpt><trkpt lat="38.18308242651725" lon="13.138452445100121"><ele>7.5</ele><time>2026-03-29T10:49:37Z</time></trkpt><trkpt lat="38.18304074815781" lon="13.138584688371148"><ele>7.0</ele><time>2026-03-29T10:49:38Z</time></trkpt><trkpt lat="38.18299908101762" lon="13.138707199328607"><ele>7.0</ele><time>2026-03-29T10:49:39Z</time></trkpt><trkpt lat="38.18297457601239" lon="13.138820827853968"><ele>6.999999999999999</ele><time>2026-03-29T10:49:40Z</time></trkpt><trkpt lat="38.18303151753564" lon="13.138898021740125"><ele>6.999999999999999</ele><time>2026-03-29T10:49:41Z</time></trkpt><trkpt lat="38.18302347536585" lon="13.138981225489877"><ele>7.0</ele><time>2026-03-29T10:49:43Z</time></trkpt><trkpt lat="38.18315867686124" lon="13.139105406920315"><ele>7.0</ele><time>2026-03-29T10:49:45Z</time></trkpt><trkpt lat="38.18310837674968" lon="13.139290079276336"><ele>7.0</ele><time>2026-03-29T10:49:46Z</time></trkpt><trkpt lat="38.183133002972234" lon="13.139438521864557"><ele>7.0</ele><time>2026-03-29T10:49:47Z</time></trkpt><trkpt lat="38.1831416484453" lon="13.139616806022083"><ele>7.0</ele><time>2026-03-29T10:49:48Z</time></trkpt><trkpt lat="38.18311885407679" lon="13.13979641879432"><ele>7.0</ele><time>2026-03-29T10:49:49Z</time></trkpt><trkpt lat="38.183075435564874" lon="13.139980576269163"><ele>7.8</ele><time>2026-03-29T10:49:50Z</time></trkpt><trkpt lat="38.1830325056017" lon="13.140140771086289"><ele>8.6</ele><time>2026-03-29T10:49:51Z</time></trkpt><trkpt lat="38.18298703775143" lon="13.140255620121957"><ele>9.4</ele><time>2026-03-29T10:49:52Z</time></trkpt><trkpt lat="38.182919879801624" lon="13.140334891741338"><ele>10.200000000000001</ele><time>2026-03-29T10:49:53Z</time></trkpt><trkpt lat="38.182832133254344" lon="13.140434943879772"><ele>11.0</ele><time>2026-03-29T10:49:54Z</time></trkpt><trkpt lat="38.1827408792081" lon="13.140555776335036"><ele>11.0</ele><time>2026-03-29T10:49:55Z</time></trkpt><trkpt lat="38.182647742727575" lon="13.140700145884097"><ele>11.0</ele><time>2026-03-29T10:49:56Z</time></trkpt><trkpt lat="38.18257331286867" lon="13.140848446943066"><ele>11.0</ele><time>2026-03-29T10:49:57Z</time></trkpt><trkpt lat="38.18252810883792" lon="13.141033363887608"><ele>11.0</ele><time>2026-03-29T10:49:58Z</time></trkpt><trkpt lat="38.18250058823659" lon="13.141256614183884"><ele>11.0</ele><time>2026-03-29T10:49:59Z</time></trkpt><trkpt lat="38.1824662421045" lon="13.14148243141399"><ele>11.0</ele><time>2026-03-29T10:50:00Z</time></trkpt><trkpt lat="38.18242908921815" lon="13.141692294675483"><ele>11.0</ele><time>2026-03-29T10:50:01Z</time></trkpt><trkpt lat="38.18239575420824" lon="13.141900511026336"><ele>11.0</ele><time>2026-03-29T10:50:02Z</time></trkpt><trkpt lat="38.18236122369878" lon="13.142098636198117"><ele>11.0</ele><time>2026-03-29T10:50:03Z</time></trkpt><trkpt lat="38.18232616560019" lon="13.142312331093867"><ele>11.0</ele><time>2026-03-29T10:50:04Z</time></trkpt><trkpt lat="38.182289524322094" lon="13.14252869686417"><ele>11.0</ele><time>2026-03-29T10:50:05Z</time></trkpt><trkpt lat="38.18225508677768" lon="13.142754146416188"><ele>11.0</ele><time>2026-03-29T10:50:06Z</time></trkpt><trkpt lat="38.18222387332275" lon="13.142975241928646"><ele>11.0</ele><time>2026-03-29T10:50:07Z</time></trkpt><trkpt lat="38.18219516950899" lon="13.143177521113197"><ele>10.25</ele><time>2026-03-29T10:50:08Z</time></trkpt><trkpt lat="38.182171700571395" lon="13.143359444247956"><ele>9.5</ele><time>2026-03-29T10:50:09Z</time></trkpt><trkpt lat="38.182142456797" lon="13.143545948042242"><ele>8.75</ele><time>2026-03-29T10:50:10Z</time></trkpt><trkpt lat="38.182108964444595" lon="13.143707171773555"><ele>8.0</ele><time>2026-03-29T10:50:11Z</time></trkpt><trkpt lat="38.18207157338305" lon="13.143856052329387"><ele>7.999999999999999</ele><time>2026-03-29T10:50:12Z</time></trkpt><trkpt lat="38.18206117871762" lon="13.14398032179719"><ele>8.0</ele><time>2026-03-29T10:50:13Z</time></trkpt><trkpt lat="38.18207775259396" lon="13.144075299684125"><ele>8.0</ele><time>2026-03-29T10:50:14Z</time></trkpt><trkpt lat="38.18209300429024" lon="13.144163937552763"><ele>8.0</ele><time>2026-03-29T10:50:15Z</time></trkpt><trkpt lat="38.18220189114478" lon="13.144248224086512"><ele>7.999999999999999</ele><time>2026-03-29T10:50:17Z</time></trkpt><trkpt lat="38.182270605264776" lon="13.144273136802266"><ele>8.0</ele><time>2026-03-29T10:50:18Z</time></trkpt><trkpt lat="38.182393042931466" lon="13.144178604444864"><ele>7.6000000000000005</ele><time>2026-03-29T10:50:19Z</time></trkpt><trkpt lat="38.18246738773148" lon="13.144246841729906"><ele>7.200000000000001</ele><time>2026-03-29T10:50:21Z</time></trkpt><trkpt lat="38.18248359345777" lon="13.14434878767235"><ele>6.8</ele><time>2026-03-29T10:50:22Z</time></trkpt><trkpt lat="38.18248635615302" lon="13.144490704375508"><ele>6.4</ele><time>2026-03-29T10:50:23Z</time></trkpt><trkpt lat="38.18250438253874" lon="13.144651589385719"><ele>6.0</ele><time>2026-03-29T10:50:24Z</time></trkpt><trkpt lat="38.18253022575064" lon="13.144808627214719"><ele>6.666666666666666</ele><time>2026-03-29T10:50:25Z</time></trkpt><trkpt lat="38.182545848508596" lon="13.14500370436994"><ele>7.333333333333333</ele><time>2026-03-29T10:50:26Z</time></trkpt><trkpt lat="38.182554929355" lon="13.145241679526501"><ele>8.0</ele><time>2026-03-29T10:50:27Z</time></trkpt><trkpt lat="38.18255648499233" lon="13.145411989936466"><ele>8.0</ele><time>2026-03-29T10:50:28Z</time></trkpt><trkpt lat="38.18253258933173" lon="13.145565419568069"><ele>8.0</ele><time>2026-03-29T10:50:29Z</time></trkpt><trkpt lat="38.182459317762834" lon="13.145704703075097"><ele>8.0</ele><time>2026-03-29T10:50:30Z</time></trkpt><trkpt lat="38.18238774061509" lon="13.14587668720678"><ele>8.0</ele><time>2026-03-29T10:50:31Z</time></trkpt><trkpt lat="38.18231526333533" lon="13.146050833842622"><ele>10.0</ele><time>2026-03-29T10:50:32Z</time></trkpt><trkpt lat="38.18224344751425" lon="13.146237330712907"><ele>12.0</ele><time>2026-03-29T10:50:33Z</time></trkpt><trkpt lat="38.182179779562446" lon="13.14643706284408"><ele>14.0</ele><time>2026-03-29T10:50:34Z</time></trkpt><trkpt lat="38.182109187236364" lon="13.146642359376395"><ele>14.333333333333334</ele><time>2026-03-29T10:50:35Z</time></trkpt><trkpt lat="38.18202467579834" lon="13.146849281186746"><ele>14.666666666666668</ele><time>2026-03-29T10:50:36Z</time></trkpt><trkpt lat="38.181932263412726" lon="13.147052239005905"><ele>15.0</ele><time>2026-03-29T10:50:37Z</time></trkpt><trkpt lat="38.18183843033799" lon="13.14725898359687"><ele>15.0</ele><time>2026-03-29T10:50:38Z</time></trkpt><trkpt lat="38.181745930125736" lon="13.147474694325767"><ele>15.0</ele><time>2026-03-29T10:50:39Z</time></trkpt><trkpt lat="38.18166387915034" lon="13.147689750275633"><ele>15.0</ele><time>2026-03-29T10:50:40Z</time></trkpt><trkpt lat="38.18158060911465" lon="13.147920912755703"><ele>15.0</ele><time>2026-03-29T10:50:41Z</time></trkpt><trkpt lat="38.18150203644673" lon="13.14815017026255"><ele>15.0</ele><time>2026-03-29T10:50:42Z</time></trkpt><trkpt lat="38.18142561070578" lon="13.148345624407597"><ele>15.0</ele><time>2026-03-29T10:50:43Z</time></trkpt><trkpt lat="38.18135452229229" lon="13.148527515473742"><ele>15.0</ele><time>2026-03-29T10:50:44Z</time></trkpt><trkpt lat="38.18128880703928" lon="13.14869593685116"><ele>15.0</ele><time>2026-03-29T10:50:45Z</time></trkpt><trkpt lat="38.18122816361596" lon="13.14884899635829"><ele>15.0</ele><time>2026-03-29T10:50:46Z</time></trkpt><trkpt lat="38.18116724376057" lon="13.149000710650803"><ele>15.0</ele><time>2026-03-29T10:50:47Z</time></trkpt><trkpt lat="38.1811108810017" lon="13.149163803868223"><ele>14.75</ele><time>2026-03-29T10:50:48Z</time></trkpt><trkpt lat="38.1810552644963" lon="13.149331184892366"><ele>14.5</ele><time>2026-03-29T10:50:49Z</time></trkpt><trkpt lat="38.18100106265023" lon="13.149502631523678"><ele>14.25</ele><time>2026-03-29T10:50:50Z</time></trkpt><trkpt lat="38.18095181138595" lon="13.149643966943723"><ele>14.0</ele><time>2026-03-29T10:50:51Z</time></trkpt><trkpt lat="38.180902495153624" lon="13.149764813222367"><ele>14.000000000000002</ele><time>2026-03-29T10:50:52Z</time></trkpt><trkpt lat="38.18086466880943" lon="13.149861192030732"><ele>14.0</ele><time>2026-03-29T10:50:53Z</time></trkpt><trkpt lat="38.18082808091221" lon="13.149932372460572"><ele>14.0</ele><time>2026-03-29T10:50:54Z</time></trkpt><trkpt lat="38.18078748224817" lon="13.150038900304667"><ele>14.0</ele><time>2026-03-29T10:54:10.001Z</time></trkpt><trkpt lat="38.18073511217584" lon="13.150176315725622"><ele>14.000000000000002</ele><time>2026-03-29T10:54:12.001Z</time></trkpt><trkpt lat="38.18070085072838" lon="13.1502610600678"><ele>14.0</ele><time>2026-03-29T10:54:13.001Z</time></trkpt><trkpt lat="38.18065336719045" lon="13.150365610718676"><ele>14.25</ele><time>2026-03-29T10:54:14.001Z</time></trkpt><trkpt lat="38.18061209858527" lon="13.150487080427606"><ele>14.5</ele><time>2026-03-29T10:54:15.001Z</time></trkpt><trkpt lat="38.1805709268452" lon="13.150612262773743"><ele>14.75</ele><time>2026-03-29T10:54:16.001Z</time></trkpt><trkpt lat="38.180519947971355" lon="13.15075197957128"><ele>15.0</ele><time>2026-03-29T10:54:17.001Z</time></trkpt><trkpt lat="38.18046328912324" lon="13.150897050030283"><ele>15.5</ele><time>2026-03-29T10:54:18.001Z</time></trkpt><trkpt lat="38.180410346876926" lon="13.151046389780754"><ele>16.0</ele><time>2026-03-29T10:54:19.001Z</time></trkpt><trkpt lat="38.18035646768443" lon="13.151199145688754"><ele>16.5</ele><time>2026-03-29T10:54:20.001Z</time></trkpt><trkpt lat="38.18029680237697" lon="13.151352020490629"><ele>17.0</ele><time>2026-03-29T10:54:21.001Z</time></trkpt><trkpt lat="38.18022433594247" lon="13.151500289496623"><ele>16.75</ele><time>2026-03-29T10:54:22.001Z</time></trkpt><trkpt lat="38.180171646993315" lon="13.15164822002508"><ele>16.5</ele><time>2026-03-29T10:54:23.001Z</time></trkpt><trkpt lat="38.180121310517904" lon="13.151806162594282"><ele>16.25</ele><time>2026-03-29T10:54:24.001Z</time></trkpt><trkpt lat="38.18006595166837" lon="13.15195732846709"><ele>16.0</ele><time>2026-03-29T10:54:25.001Z</time></trkpt><trkpt lat="38.180005940594334" lon="13.152111454638552"><ele>16.0</ele><time>2026-03-29T10:54:26.001Z</time></trkpt><trkpt lat="38.17994758186881" lon="13.152257654014916"><ele>16.0</ele><time>2026-03-29T10:54:27.001Z</time></trkpt><trkpt lat="38.179889107681035" lon="13.152412288748184"><ele>16.0</ele><time>2026-03-29T10:54:28.001Z</time></trkpt><trkpt lat="38.17983242052551" lon="13.152573576112395"><ele>16.0</ele><time>2026-03-29T10:54:29.001Z</time></trkpt><trkpt lat="38.17977456682634" lon="13.152724033292106"><ele>16.25</ele><time>2026-03-29T10:54:30.001Z</time></trkpt><trkpt lat="38.17971945360544" lon="13.152878994170637"><ele>16.5</ele><time>2026-03-29T10:54:31.001Z</time></trkpt><trkpt lat="38.17966537216382" lon="13.153035744978975"><ele>16.75</ele><time>2026-03-29T10:54:32.001Z</time></trkpt><trkpt lat="38.179607821762836" lon="13.153194905307664"><ele>17.0</ele><time>2026-03-29T10:54:33.001Z</time></trkpt><trkpt lat="38.17954988606222" lon="13.153340952674842"><ele>17.0</ele><time>2026-03-29T10:54:34.001Z</time></trkpt><trkpt lat="38.1794951584059" lon="13.1534763778104"><ele>17.0</ele><time>2026-03-29T10:54:35.001Z</time></trkpt><trkpt lat="38.17945007817835" lon="13.153588210254247"><ele>17.0</ele><time>2026-03-29T10:54:36.001Z</time></trkpt><trkpt lat="38.17941494126607" lon="13.153683883877381"><ele>17.0</ele><time>2026-03-29T10:54:37.001Z</time></trkpt><trkpt lat="38.17937588397916" lon="13.153783819704772"><ele>17.0</ele><time>2026-03-29T10:54:38.001Z</time></trkpt><trkpt lat="38.17933711575839" lon="13.153883553761487"><ele>17.0</ele><time>2026-03-29T10:54:39.001Z</time></trkpt><trkpt lat="38.1792971041136" lon="13.153981187715955"><ele>17.0</ele><time>2026-03-29T10:54:40.001Z</time></trkpt><trkpt lat="38.17926195528513" lon="13.154083755972952"><ele>17.0</ele><time>2026-03-29T10:54:41.001Z</time></trkpt><trkpt lat="38.17923410634678" lon="13.154162015691703"><ele>17.0</ele><time>2026-03-29T10:54:42.001Z</time></trkpt><trkpt lat="38.179206283670354" lon="13.154272995931851"><ele>17.0</ele><time>2026-03-29T10:54:44.001Z</time></trkpt><trkpt lat="38.17936367949521" lon="13.154377366580366"><ele>17.0</ele><time>2026-03-29T10:54:47.001Z</time></trkpt><trkpt lat="38.179435596606055" lon="13.154440145978047"><ele>17.0</ele><time>2026-03-29T10:54:48.001Z</time></trkpt><trkpt lat="38.17950872303963" lon="13.15451784114432"><ele>17.0</ele><time>2026-03-29T10:54:49.001Z</time></trkpt><trkpt lat="38.17958576365314" lon="13.154593655058713"><ele>17.0</ele><time>2026-03-29T10:54:50.001Z</time></trkpt><trkpt lat="38.17967017177121" lon="13.15465863044061"><ele>17.0</ele><time>2026-03-29T10:54:51.001Z</time></trkpt><trkpt lat="38.179747863529464" lon="13.154714735096928"><ele>17.0</ele><time>2026-03-29T10:54:52.001Z</time></trkpt><trkpt lat="38.17983479220602" lon="13.154772754528782"><ele>17.0</ele><time>2026-03-29T10:54:53.001Z</time></trkpt><trkpt lat="38.17992038808954" lon="13.154854416511458"><ele>17.0</ele><time>2026-03-29T10:54:54.001Z</time></trkpt><trkpt lat="38.180000188002424" lon="13.15493826305196"><ele>17.0</ele><time>2026-03-29T10:54:55.001Z</time></trkpt><trkpt lat="38.180106211894866" lon="13.155027014884256"><ele>17.0</ele><time>2026-03-29T10:54:56.001Z</time></trkpt><trkpt lat="38.18022092191175" lon="13.155107309771793"><ele>16.75</ele><time>2026-03-29T10:54:57.001Z</time></trkpt><trkpt lat="38.180357824588306" lon="13.15520089786358"><ele>16.5</ele><time>2026-03-29T10:54:58.001Z</time></trkpt><trkpt lat="38.180467578651744" lon="13.155302929804316"><ele>16.25</ele><time>2026-03-29T10:54:59.001Z</time></trkpt><trkpt lat="38.18056136510457" lon="13.155387802855095"><ele>16.0</ele><time>2026-03-29T10:55:00.001Z</time></trkpt><trkpt lat="38.180655416175746" lon="13.1554532831556"><ele>15.8</ele><time>2026-03-29T10:55:01.001Z</time></trkpt><trkpt lat="38.1807097969606" lon="13.155497130970602"><ele>15.600000000000001</ele><time>2026-03-29T10:55:02.001Z</time></trkpt><trkpt lat="38.18083068256748" lon="13.15534097751784"><ele>15.4</ele><time>2026-03-29T10:55:56.001Z</time></trkpt><trkpt lat="38.18087758613269" lon="13.155266148489988"><ele>15.2</ele><time>2026-03-29T10:56:00.001Z</time></trkpt><trkpt lat="38.18082872752859" lon="13.155353025007274"><ele>15.0</ele><time>2026-03-29T11:00:38Z</time></trkpt><trkpt lat="38.18077670000576" lon="13.15543010000357"><ele>15.0</ele><time>2026-03-29T11:03:02Z</time></trkpt><trkpt lat="38.18073565484416" lon="13.155356221755492"><ele>15.0</ele><time>2026-03-29T11:05:06Z</time></trkpt><trkpt lat="38.18074015488503" lon="13.155274450410241"><ele>15.0</ele><time>2026-03-29T11:06:25Z</time></trkpt><trkpt lat="38.180637590877325" lon="13.155251107506716"><ele>15.0</ele><time>2026-03-29T11:06:28Z</time></trkpt><trkpt lat="38.18069451868683" lon="13.155215676870215"><ele>15.0</ele><time>2026-03-29T11:06:52Z</time></trkpt><trkpt lat="38.1807833162087" lon="13.155278191120132"><ele>15.0</ele><time>2026-03-29T11:07:25.075Z</time></trkpt><trkpt lat="38.18075700185156" lon="13.155369236084601"><ele>15.0</ele><time>2026-03-29T11:07:34Z</time></trkpt><trkpt lat="38.18081582171671" lon="13.155336178306802"><ele>15.0</ele><time>2026-03-29T11:07:40Z</time></trkpt><trkpt lat="38.18086031155717" lon="13.155278736530123"><ele>15.0</ele><time>2026-03-29T11:07:50Z</time></trkpt><trkpt lat="38.180840402386806" lon="13.155393758499283"><ele>15.0</ele><time>2026-03-29T11:08:03Z</time></trkpt><trkpt lat="38.18088704620694" lon="13.155491890138205"><ele>15.0</ele><time>2026-03-29T11:08:09.066Z</time></trkpt><trkpt lat="38.18069104510166" lon="13.155885283224606"><ele>15.0</ele><time>2026-03-29T11:08:11.065Z</time></trkpt><trkpt lat="38.18061823365949" lon="13.15581049894172"><ele>15.0</ele><time>2026-03-29T11:08:15.043Z</time></trkpt><trkpt lat="38.18061236440888" lon="13.155725224611103"><ele>15.0</ele><time>2026-03-29T11:08:16.044Z</time></trkpt><trkpt lat="38.180624831085055" lon="13.155545417262536"><ele>15.0</ele><time>2026-03-29T11:08:17.043Z</time></trkpt><trkpt lat="38.18068985778979" lon="13.155465417894671"><ele>15.0</ele><time>2026-03-29T11:08:18.042Z</time></trkpt><trkpt lat="38.18077836161168" lon="13.155429912634316"><ele>15.0</ele><time>2026-03-29T11:08:31Z</time></trkpt><trkpt lat="38.18073603146197" lon="13.155363541794586"><ele>15.0</ele><time>2026-03-29T11:08:37Z</time></trkpt><trkpt lat="38.18083893916694" lon="13.1554303256258"><ele>15.0</ele><time>2026-03-29T11:09:15Z</time></trkpt><trkpt lat="38.18083744831913" lon="13.155349645231533"><ele>15.0</ele><time>2026-03-29T11:10:08Z</time></trkpt><trkpt lat="38.180818904388545" lon="13.155426618914499"><ele>15.0</ele><time>2026-03-29T11:17:56Z</time></trkpt><trkpt lat="38.18076228323709" lon="13.155464544187112"><ele>15.0</ele><time>2026-03-29T11:26:54Z</time></trkpt><trkpt lat="38.1808141926779" lon="13.155409777419228"><ele>15.0</ele><time>2026-03-29T11:36:56Z</time></trkpt><trkpt lat="38.18083627728982" lon="13.155326982030324"><ele>15.0</ele><time>2026-03-29T11:37:02Z</time></trkpt><trkpt lat="38.180871644452296" lon="13.155257890674827"><ele>15.0</ele><time>2026-03-29T11:37:09Z</time></trkpt><trkpt lat="38.18082637621923" lon="13.155345200734585"><ele>15.0</ele><time>2026-03-29T11:37:30Z</time></trkpt><trkpt lat="38.18081671115117" lon="13.15543041067272"><ele>15.0</ele><time>2026-03-29T11:37:36Z</time></trkpt><trkpt lat="38.18082757128585" lon="13.1553412861557"><ele>15.0</ele><time>2026-03-29T11:44:11Z</time></trkpt><trkpt lat="38.18085491716553" lon="13.15526729716826"><ele>15.0</ele><time>2026-03-29T11:44:17Z</time></trkpt><trkpt lat="38.18088523169302" lon="13.15518247108546"><ele>15.0</ele><time>2026-03-29T11:44:22Z</time></trkpt><trkpt lat="38.18084086155577" lon="13.155255514724002"><ele>15.0</ele><time>2026-03-29T11:44:35Z</time></trkpt><trkpt lat="38.18080809093807" lon="13.15533013071088"><ele>15.0</ele><time>2026-03-29T11:44:38Z</time></trkpt><trkpt lat="38.180850495813516" lon="13.15525596564861"><ele>15.0</ele><time>2026-03-29T11:44:53.999Z</time></trkpt><trkpt lat="38.18091582893155" lon="13.155258617681048"><ele>15.0</ele><time>2026-03-29T11:44:59.999Z</time></trkpt><trkpt lat="38.18087353815532" lon="13.15519603263308"><ele>15.0</ele><time>2026-03-29T11:45:20Z</time></trkpt><trkpt lat="38.18091317089312" lon="13.155294012074352"><ele>15.0</ele><time>2026-03-29T11:45:33Z</time></trkpt><trkpt lat="38.180909748869354" lon="13.15517502555919"><ele>15.0</ele><time>2026-03-29T11:45:38Z</time></trkpt><trkpt lat="38.18097802095557" lon="13.1551635711061"><ele>15.0</ele><time>2026-03-29T11:45:50Z</time></trkpt><trkpt lat="38.181059433358655" lon="13.15501819461192"><ele>15.0</ele><time>2026-03-29T11:45:54Z</time></trkpt><trkpt lat="38.18099671983173" lon="13.155030208702973"><ele>15.0</ele><time>2026-03-29T11:45:56Z</time></trkpt><trkpt lat="38.18087046941697" lon="13.155249176238097"><ele>15.0</ele><time>2026-03-29T11:45:59Z</time></trkpt><trkpt lat="38.18088043130865" lon="13.15534953911807"><ele>15.0</ele><time>2026-03-29T11:46:03Z</time></trkpt><trkpt lat="38.180922742795126" lon="13.155419882125875"><ele>15.0</ele><time>2026-03-29T11:46:08Z</time></trkpt><trkpt lat="38.1808651253956" lon="13.1553691704854"><ele>15.0</ele><time>2026-03-29T11:46:12Z</time></trkpt><trkpt lat="38.18089284090706" lon="13.15528904556527"><ele>15.0</ele><time>2026-03-29T11:46:15Z</time></trkpt><trkpt lat="38.18083118360359" lon="13.155336176963834"><ele>15.0</ele><time>2026-03-29T11:46:33.999Z</time></trkpt><trkpt lat="38.180776664057305" lon="13.155390583935864"><ele>15.0</ele><time>2026-03-29T11:46:38.999Z</time></trkpt><trkpt lat="38.18073430183574" lon="13.155330336236359"><ele>15.0</ele><time>2026-03-29T11:46:46.999Z</time></trkpt><trkpt lat="38.18081564547677" lon="13.155311729887446"><ele>15.0</ele><time>2026-03-29T11:46:57.999Z</time></trkpt><trkpt lat="38.18078505335896" lon="13.15538669629978"><ele>15.0</ele><time>2026-03-29T11:47:06.999Z</time></trkpt><trkpt lat="38.18084741293666" lon="13.155417659803343"><ele>15.0</ele><time>2026-03-29T11:47:21.999Z</time></trkpt><trkpt lat="38.18079818964933" lon="13.155367366274817"><ele>15.0</ele><time>2026-03-29T11:48:22.999Z</time></trkpt><trkpt lat="38.180853470447246" lon="13.155441569459486"><ele>15.0</ele><time>2026-03-29T11:50:59Z</time></trkpt><trkpt lat="38.18082659367278" lon="13.155346668352024"><ele>15.0</ele><time>2026-03-29T11:51:18Z</time></trkpt><trkpt lat="38.18085938272995" lon="13.155263871368854"><ele>15.0</ele><time>2026-03-29T11:51:23Z</time></trkpt><trkpt lat="38.180892052482974" lon="13.155191036763972"><ele>15.0</ele><time>2026-03-29T11:51:31Z</time></trkpt><trkpt lat="38.180826278789425" lon="13.155189976779994"><ele>15.0</ele><time>2026-03-29T11:51:38Z</time></trkpt><trkpt lat="38.180830722649475" lon="13.155306821065235"><ele>15.0</ele><time>2026-03-29T11:51:41Z</time></trkpt><trkpt lat="38.18092035654465" lon="13.155320845825448"><ele>15.0</ele><time>2026-03-29T11:51:52Z</time></trkpt><trkpt lat="38.180874366076246" lon="13.15524029865818"><ele>15.0</ele><time>2026-03-29T11:51:56Z</time></trkpt><trkpt lat="38.18084025136602" lon="13.155325392855424"><ele>15.0</ele><time>2026-03-29T11:52:03Z</time></trkpt><trkpt lat="38.18078540112406" lon="13.155381547921719"><ele>15.0</ele><time>2026-03-29T11:52:18Z</time></trkpt><trkpt lat="38.180735186585856" lon="13.155323533982612"><ele>15.0</ele><time>2026-03-29T11:52:27Z</time></trkpt><trkpt lat="38.18078629032474" lon="13.155249486493679"><ele>15.0</ele><time>2026-03-29T11:53:19Z</time></trkpt><trkpt lat="38.18072043680201" lon="13.155298967036769"><ele>15.0</ele><time>2026-03-29T11:53:43Z</time></trkpt><trkpt lat="38.18078946334818" lon="13.155418202614397"><ele>15.0</ele><time>2026-03-29T11:58:25Z</time></trkpt><trkpt lat="38.18075249148668" lon="13.155319426820961"><ele>15.0</ele><time>2026-03-29T11:58:47Z</time></trkpt><trkpt lat="38.180710054123125" lon="13.155398003578638"><ele>15.0</ele><time>2026-03-29T16:06:22.965Z</time></trkpt><trkpt lat="38.18062806921726" lon="13.155431933603332"><ele>15.0</ele><time>2026-03-29T16:06:24.965Z</time></trkpt><trkpt lat="38.1805452504666" lon="13.155458373187257"><ele>15.0</ele><time>2026-03-29T16:06:27.971Z</time></trkpt><trkpt lat="38.180479586248964" lon="13.155502335811278"><ele>15.0</ele><time>2026-03-29T16:06:31.978Z</time></trkpt><trkpt lat="38.18045373174603" lon="13.15557999628361"><ele>15.0</ele><time>2026-03-29T16:06:36.985Z</time></trkpt><trkpt lat="38.1809321539294" lon="13.15555244482499"><ele>15.0</ele><time>2026-03-29T16:06:41.989Z</time></trkpt><trkpt lat="38.1808628189234" lon="13.155590867115246"><ele>15.0</ele><time>2026-03-29T16:06:56.996Z</time></trkpt><trkpt lat="38.18073122863855" lon="13.155326567028814"><ele>15.0</ele><time>2026-03-29T16:07:01.028Z</time></trkpt><trkpt lat="38.18074417142347" lon="13.155483277793394"><ele>15.0</ele><time>2026-03-29T16:07:32.375Z</time></trkpt><trkpt lat="38.18076302937407" lon="13.155591028314543"><ele>15.0</ele><time>2026-03-29T16:07:37.001Z</time></trkpt><trkpt lat="38.18075390906703" lon="13.15550694279712"><ele>15.0</ele><time>2026-03-29T16:08:36.001Z</time></trkpt><trkpt lat="38.18070556962933" lon="13.155440417759921"><ele>15.0</ele><time>2026-03-29T16:08:40.001Z</time></trkpt><trkpt lat="38.180641011326706" lon="13.155391502958349"><ele>15.0</ele><time>2026-03-29T16:08:42Z</time></trkpt><trkpt lat="38.18056700895026" lon="13.155343456352439"><ele>15.0</ele><time>2026-03-29T16:08:44Z</time></trkpt><trkpt lat="38.18049312206191" lon="13.155290588165876"><ele>15.0</ele><time>2026-03-29T16:08:46Z</time></trkpt><trkpt lat="38.18042892637234" lon="13.15522439599349"><ele>15.166666666666666</ele><time>2026-03-29T16:08:48Z</time></trkpt><trkpt lat="38.18035547596003" lon="13.155179121074692"><ele>15.333333333333332</ele><time>2026-03-29T16:08:50.001Z</time></trkpt><trkpt lat="38.18027728075929" lon="13.155125174511229"><ele>15.5</ele><time>2026-03-29T16:08:52.001Z</time></trkpt><trkpt lat="38.18019571749975" lon="13.155085050485278"><ele>15.666666666666666</ele><time>2026-03-29T16:08:54.001Z</time></trkpt><trkpt lat="38.18011055468814" lon="13.155025482676093"><ele>15.833333333333332</ele><time>2026-03-29T16:08:56.001Z</time></trkpt><trkpt lat="38.18004746473251" lon="13.154995896152425"><ele>16.0</ele><time>2026-03-29T16:08:57.001Z</time></trkpt><trkpt lat="38.17996855491398" lon="13.154975361843823"><ele>15.999999999999998</ele><time>2026-03-29T16:09:00.001Z</time></trkpt><trkpt lat="38.17990145556648" lon="13.154927503371725"><ele>16.0</ele><time>2026-03-29T16:09:02.001Z</time></trkpt><trkpt lat="38.179844405658415" lon="13.154888823274998"><ele>16.0</ele><time>2026-03-29T16:09:04.001Z</time></trkpt><trkpt lat="38.1797734582898" lon="13.154838648103988"><ele>16.0</ele><time>2026-03-29T16:09:07.001Z</time></trkpt><trkpt lat="38.179714022786676" lon="13.154735702445006"><ele>15.999999999999998</ele><time>2026-03-29T16:09:10.001Z</time></trkpt><trkpt lat="38.17965905146642" lon="13.154669118071007"><ele>16.0</ele><time>2026-03-29T16:09:12.001Z</time></trkpt><trkpt lat="38.17959311034679" lon="13.154593071662541"><ele>16.142857142857142</ele><time>2026-03-29T16:09:14.001Z</time></trkpt><trkpt lat="38.17951943871236" lon="13.154529520286117"><ele>16.285714285714285</ele><time>2026-03-29T16:09:16.001Z</time></trkpt><trkpt lat="38.17945328197928" lon="13.154504587778984"><ele>16.428571428571427</ele><time>2026-03-29T16:09:18.001Z</time></trkpt><trkpt lat="38.17938487495245" lon="13.154441525199829"><ele>16.57142857142857</ele><time>2026-03-29T16:09:20.001Z</time></trkpt><trkpt lat="38.1793131561171" lon="13.154409882848508"><ele>16.714285714285715</ele><time>2026-03-29T16:09:22.001Z</time></trkpt><trkpt lat="38.17924780334541" lon="13.154389480114938"><ele>16.857142857142854</ele><time>2026-03-29T16:09:28.001Z</time></trkpt><trkpt lat="38.17924134848891" lon="13.154309279684828"><ele>17.0</ele><time>2026-03-29T16:09:33.001Z</time></trkpt><trkpt lat="38.179250850049534" lon="13.1542127959405"><ele>17.0</ele><time>2026-03-29T16:09:36.001Z</time></trkpt><trkpt lat="38.17930840452744" lon="13.154095613128106"><ele>17.0</ele><time>2026-03-29T16:09:38.001Z</time></trkpt><trkpt lat="38.1793422524418" lon="13.15401575135832"><ele>17.0</ele><time>2026-03-29T16:09:39.001Z</time></trkpt><trkpt lat="38.1793925323224" lon="13.153888422453907"><ele>17.0</ele><time>2026-03-29T16:09:41.001Z</time></trkpt><trkpt lat="38.179443753321564" lon="13.153766263986954"><ele>17.0</ele><time>2026-03-29T16:09:43.001Z</time></trkpt><trkpt lat="38.179482575636605" lon="13.153679628834048"><ele>17.0</ele><time>2026-03-29T16:09:45.001Z</time></trkpt><trkpt lat="38.17951984017621" lon="13.153600828324562"><ele>17.0</ele><time>2026-03-29T16:09:48.001Z</time></trkpt><trkpt lat="38.17955698032449" lon="13.153507075737972"><ele>17.0</ele><time>2026-03-29T16:09:50.001Z</time></trkpt><trkpt lat="38.17960407336983" lon="13.153386513786876"><ele>17.0</ele><time>2026-03-29T16:09:52.001Z</time></trkpt><trkpt lat="38.17966387896661" lon="13.153239648499888"><ele>17.0</ele><time>2026-03-29T16:09:54.001Z</time></trkpt><trkpt lat="38.179695407197734" lon="13.153154414419813"><ele>17.0</ele><time>2026-03-29T16:09:55.001Z</time></trkpt><trkpt lat="38.179731496768355" lon="13.15305828189326"><ele>17.0</ele><time>2026-03-29T16:09:56.001Z</time></trkpt><trkpt lat="38.17976994497897" lon="13.152966020407385"><ele>17.0</ele><time>2026-03-29T16:09:57.001Z</time></trkpt><trkpt lat="38.17980501594178" lon="13.15287212477034"><ele>17.0</ele><time>2026-03-29T16:09:58.001Z</time></trkpt><trkpt lat="38.179837821379266" lon="13.152778425864671"><ele>17.0</ele><time>2026-03-29T16:09:59.001Z</time></trkpt><trkpt lat="38.1798731375355" lon="13.152682322316126"><ele>17.0</ele><time>2026-03-29T16:10:00.001Z</time></trkpt><trkpt lat="38.179908115721375" lon="13.152584893855694"><ele>16.833333333333336</ele><time>2026-03-29T16:10:01.001Z</time></trkpt><trkpt lat="38.17994299642956" lon="13.152490658671564"><ele>16.666666666666668</ele><time>2026-03-29T16:10:02.001Z</time></trkpt><trkpt lat="38.1799793065951" lon="13.152395184770475"><ele>16.5</ele><time>2026-03-29T16:10:03.001Z</time></trkpt><trkpt lat="38.18001711909562" lon="13.152296607918391"><ele>16.333333333333332</ele><time>2026-03-29T16:10:04.001Z</time></trkpt><trkpt lat="38.18005673734332" lon="13.152199210029766"><ele>16.166666666666664</ele><time>2026-03-29T16:10:05.001Z</time></trkpt><trkpt lat="38.18009637754006" lon="13.152101906114865"><ele>16.0</ele><time>2026-03-29T16:10:06.001Z</time></trkpt><trkpt lat="38.18013473247882" lon="13.152001812485986"><ele>16.0</ele><time>2026-03-29T16:10:07.001Z</time></trkpt><trkpt lat="38.18017439929325" lon="13.151899540866985"><ele>16.0</ele><time>2026-03-29T16:10:08.001Z</time></trkpt><trkpt lat="38.18021325779554" lon="13.151795859070592"><ele>16.0</ele><time>2026-03-29T16:10:09.001Z</time></trkpt><trkpt lat="38.18025362230757" lon="13.151693125831322"><ele>16.0</ele><time>2026-03-29T16:10:10.001Z</time></trkpt><trkpt lat="38.18029323545046" lon="13.151586744625552"><ele>16.0</ele><time>2026-03-29T16:10:11.001Z</time></trkpt><trkpt lat="38.18033352804944" lon="13.151481968692485"><ele>16.2</ele><time>2026-03-29T16:10:12.001Z</time></trkpt><trkpt lat="38.180373445179434" lon="13.151377138331945"><ele>16.400000000000002</ele><time>2026-03-29T16:10:13.001Z</time></trkpt><trkpt lat="38.18041264432258" lon="13.151274804352225"><ele>16.6</ele><time>2026-03-29T16:10:14.001Z</time></trkpt><trkpt lat="38.18045120904468" lon="13.151172638061846"><ele>16.8</ele><time>2026-03-29T16:10:15.001Z</time></trkpt><trkpt lat="38.18048930610836" lon="13.15106605628038"><ele>17.0</ele><time>2026-03-29T16:10:16.001Z</time></trkpt><trkpt lat="38.18052901948123" lon="13.150959609774768"><ele>17.0</ele><time>2026-03-29T16:10:17.001Z</time></trkpt><trkpt lat="38.18056953505252" lon="13.150854392889137"><ele>17.0</ele><time>2026-03-29T16:10:18.001Z</time></trkpt><trkpt lat="38.18061038571677" lon="13.150746076668584"><ele>17.0</ele><time>2026-03-29T16:10:19.001Z</time></trkpt><trkpt lat="38.18065264015228" lon="13.150635312718977"><ele>17.0</ele><time>2026-03-29T16:10:20.001Z</time></trkpt><trkpt lat="38.18069560561381" lon="13.150524948300623"><ele>17.0</ele><time>2026-03-29T16:10:21.001Z</time></trkpt><trkpt lat="38.18073794131861" lon="13.150411300463299"><ele>16.8</ele><time>2026-03-29T16:10:22.001Z</time></trkpt><trkpt lat="38.180784298173" lon="13.150295032677327"><ele>16.6</ele><time>2026-03-29T16:10:23.001Z</time></trkpt><trkpt lat="38.180830690570694" lon="13.150177262004691"><ele>16.400000000000002</ele><time>2026-03-29T16:10:24.001Z</time></trkpt><trkpt lat="38.18087638548662" lon="13.150058153470495"><ele>16.2</ele><time>2026-03-29T16:10:25.001Z</time></trkpt><trkpt lat="38.18092268338766" lon="13.149938376057682"><ele>16.0</ele><time>2026-03-29T16:10:26.001Z</time></trkpt><trkpt lat="38.1809736595283" lon="13.149815361703007"><ele>15.5</ele><time>2026-03-29T16:10:27.001Z</time></trkpt><trkpt lat="38.18102191169247" lon="13.149688699028387"><ele>15.0</ele><time>2026-03-29T16:10:28.001Z</time></trkpt><trkpt lat="38.18107100105995" lon="13.149560577707371"><ele>14.5</ele><time>2026-03-29T16:10:29.001Z</time></trkpt><trkpt lat="38.181124478813054" lon="13.149430982298199"><ele>14.0</ele><time>2026-03-29T16:10:30.001Z</time></trkpt><trkpt lat="38.18117722097526" lon="13.149300435060237"><ele>14.0</ele><time>2026-03-29T16:10:31.001Z</time></trkpt><trkpt lat="38.18122774577251" lon="13.149169831560018"><ele>14.0</ele><time>2026-03-29T16:10:32.001Z</time></trkpt><trkpt lat="38.18127928912637" lon="13.149038380587054"><ele>14.0</ele><time>2026-03-29T16:10:33.001Z</time></trkpt><trkpt lat="38.18132732045753" lon="13.148899246778157"><ele>14.0</ele><time>2026-03-29T16:10:34.001Z</time></trkpt><trkpt lat="38.18137643314078" lon="13.148761013047581"><ele>14.0</ele><time>2026-03-29T16:10:35.001Z</time></trkpt><trkpt lat="38.18143106290882" lon="13.148621873120357"><ele>14.0</ele><time>2026-03-29T16:10:36.001Z</time></trkpt><trkpt lat="38.181486709972816" lon="13.14848028117719"><ele>14.0</ele><time>2026-03-29T16:10:37.001Z</time></trkpt><trkpt lat="38.18153929873457" lon="13.14833661245838"><ele>14.0</ele><time>2026-03-29T16:10:38.001Z</time></trkpt><trkpt lat="38.18159287246735" lon="13.148191042583917"><ele>14.25</ele><time>2026-03-29T16:10:39.001Z</time></trkpt><trkpt lat="38.18164665531981" lon="13.148044803906359"><ele>14.5</ele><time>2026-03-29T16:10:40.001Z</time></trkpt><trkpt lat="38.181699996299756" lon="13.147897104018723"><ele>14.75</ele><time>2026-03-29T16:10:41.001Z</time></trkpt><trkpt lat="38.18175497980043" lon="13.147751405218894"><ele>15.0</ele><time>2026-03-29T16:10:42.001Z</time></trkpt><trkpt lat="38.18180652903936" lon="13.147606655114325"><ele>15.0</ele><time>2026-03-29T16:10:43.001Z</time></trkpt><trkpt lat="38.181862442300755" lon="13.147468599792166"><ele>15.0</ele><time>2026-03-29T16:10:44.001Z</time></trkpt><trkpt lat="38.18191898410691" lon="13.147334774555125"><ele>15.0</ele><time>2026-03-29T16:10:45.001Z</time></trkpt><trkpt lat="38.181978574885136" lon="13.14720298748298"><ele>15.0</ele><time>2026-03-29T16:10:46.001Z</time></trkpt><trkpt lat="38.182038291690816" lon="13.147073941553892"><ele>15.0</ele><time>2026-03-29T16:10:47.001Z</time></trkpt><trkpt lat="38.18209560497484" lon="13.146943108851564"><ele>15.0</ele><time>2026-03-29T16:10:48.001Z</time></trkpt><trkpt lat="38.18214913243805" lon="13.146804564196103"><ele>15.0</ele><time>2026-03-29T16:10:49.001Z</time></trkpt><trkpt lat="38.182200554314186" lon="13.146664196098039"><ele>15.0</ele><time>2026-03-29T16:10:50.001Z</time></trkpt><trkpt lat="38.18224952138215" lon="13.146533802266491"><ele>14.833333333333334</ele><time>2026-03-29T16:10:51.001Z</time></trkpt><trkpt lat="38.1822907058011" lon="13.146423665510639"><ele>14.666666666666668</ele><time>2026-03-29T16:10:52.001Z</time></trkpt><trkpt lat="38.182312789168485" lon="13.146307999776504"><ele>14.5</ele><time>2026-03-29T16:10:53.001Z</time></trkpt><trkpt lat="38.18233463895694" lon="13.146224646455268"><ele>14.333333333333334</ele><time>2026-03-29T16:10:54.001Z</time></trkpt><trkpt lat="38.18237472518907" lon="13.146129150283434"><ele>14.166666666666668</ele><time>2026-03-29T16:10:56.001Z</time></trkpt><trkpt lat="38.18240041339831" lon="13.14605282718623"><ele>14.0</ele><time>2026-03-29T16:10:57.001Z</time></trkpt><trkpt lat="38.18242929209017" lon="13.145966040144758"><ele>13.6</ele><time>2026-03-29T16:10:58.001Z</time></trkpt><trkpt lat="38.18246663679838" lon="13.145893228828198"><ele>13.2</ele><time>2026-03-29T16:10:59.001Z</time></trkpt><trkpt lat="38.18253220342212" lon="13.145738687081053"><ele>12.799999999999999</ele><time>2026-03-29T16:11:01.001Z</time></trkpt><trkpt lat="38.18258441790357" lon="13.145640312038019"><ele>12.399999999999999</ele><time>2026-03-29T16:11:02.001Z</time></trkpt><trkpt lat="38.18262196564324" lon="13.145526523307222"><ele>12.0</ele><time>2026-03-29T16:11:03.001Z</time></trkpt><trkpt lat="38.182636694673775" lon="13.145406952677511"><ele>11.2</ele><time>2026-03-29T16:11:04.001Z</time></trkpt><trkpt lat="38.182644336791036" lon="13.145282605849436"><ele>10.399999999999999</ele><time>2026-03-29T16:11:05.001Z</time></trkpt><trkpt lat="38.182635600206794" lon="13.145158315258989"><ele>9.600000000000001</ele><time>2026-03-29T16:11:06.001Z</time></trkpt><trkpt lat="38.18263576393896" lon="13.145039680564528"><ele>8.8</ele><time>2026-03-29T16:11:07.001Z</time></trkpt><trkpt lat="38.182621474850066" lon="13.144923345668468"><ele>8.0</ele><time>2026-03-29T16:11:08.001Z</time></trkpt><trkpt lat="38.18261467273267" lon="13.144797196635789"><ele>7.6000000000000005</ele><time>2026-03-29T16:11:09.001Z</time></trkpt><trkpt lat="38.182600553825786" lon="13.144678963376688"><ele>7.200000000000001</ele><time>2026-03-29T16:11:10.001Z</time></trkpt><trkpt lat="38.18259204997598" lon="13.144560931040626"><ele>6.8</ele><time>2026-03-29T16:11:11.001Z</time></trkpt><trkpt lat="38.182590601860184" lon="13.14445392773106"><ele>6.4</ele><time>2026-03-29T16:11:12.001Z</time></trkpt><trkpt lat="38.18258329814572" lon="13.14436051450306"><ele>6.0</ele><time>2026-03-29T16:11:13.001Z</time></trkpt><trkpt lat="38.18254618287529" lon="13.144211462495116"><ele>6.0</ele><time>2026-03-29T16:11:15.001Z</time></trkpt><trkpt lat="38.18246276557995" lon="13.144114963711253"><ele>6.0</ele><time>2026-03-29T16:11:17.001Z</time></trkpt><trkpt lat="38.182397467474196" lon="13.144083079410267"><ele>6.0</ele><time>2026-03-29T16:11:18.001Z</time></trkpt><trkpt lat="38.18226882510695" lon="13.144079614124644"><ele>6.0</ele><time>2026-03-29T16:11:20.001Z</time></trkpt><trkpt lat="38.18220370423274" lon="13.144078350084836"><ele>6.0</ele><time>2026-03-29T16:11:21.001Z</time></trkpt><trkpt lat="38.18213192431031" lon="13.144048228392897"><ele>6.5</ele><time>2026-03-29T16:11:23.001Z</time></trkpt><trkpt lat="38.18209320373937" lon="13.143913857768913"><ele>7.0</ele><time>2026-03-29T16:11:26.001Z</time></trkpt><trkpt lat="38.182134530570934" lon="13.143741872563881"><ele>7.5</ele><time>2026-03-29T16:11:28.001Z</time></trkpt><trkpt lat="38.182139918713894" lon="13.14362224103339"><ele>8.0</ele><time>2026-03-29T16:11:29.001Z</time></trkpt><trkpt lat="38.1821766331248" lon="13.14350158086442"><ele>8.0</ele><time>2026-03-29T16:11:30.001Z</time></trkpt><trkpt lat="38.182189457536516" lon="13.14337938899211"><ele>8.0</ele><time>2026-03-29T16:11:31.001Z</time></trkpt><trkpt lat="38.18221079417229" lon="13.14325431705576"><ele>8.0</ele><time>2026-03-29T16:11:32.001Z</time></trkpt><trkpt lat="38.1822300043083" lon="13.143117486742328"><ele>8.0</ele><time>2026-03-29T16:11:33.001Z</time></trkpt><trkpt lat="38.18225455627208" lon="13.142982545102075"><ele>8.0</ele><time>2026-03-29T16:11:34.001Z</time></trkpt><trkpt lat="38.18227314691314" lon="13.142844393325325"><ele>7.75</ele><time>2026-03-29T16:11:35.001Z</time></trkpt><trkpt lat="38.182299145116794" lon="13.142695535874848"><ele>7.5</ele><time>2026-03-29T16:11:36.001Z</time></trkpt><trkpt lat="38.18232077661983" lon="13.142545991601457"><ele>7.25</ele><time>2026-03-29T16:11:37.001Z</time></trkpt><trkpt lat="38.182355292795556" lon="13.142391371927523"><ele>7.0</ele><time>2026-03-29T16:11:38.001Z</time></trkpt><trkpt lat="38.18238517336056" lon="13.142251367274941"><ele>8.0</ele><time>2026-03-29T16:11:39.001Z</time></trkpt><trkpt lat="38.18241610485598" lon="13.142104746329046"><ele>9.0</ele><time>2026-03-29T16:11:40.001Z</time></trkpt><trkpt lat="38.18244382260545" lon="13.141954324851168"><ele>10.0</ele><time>2026-03-29T16:11:41.001Z</time></trkpt><trkpt lat="38.18246323358456" lon="13.141810966780971"><ele>11.0</ele><time>2026-03-29T16:11:42.001Z</time></trkpt><trkpt lat="38.182484576476945" lon="13.141667211760383"><ele>11.200000000000001</ele><time>2026-03-29T16:11:43.001Z</time></trkpt><trkpt lat="38.18250625671074" lon="13.141529737743747"><ele>11.4</ele><time>2026-03-29T16:11:44.001Z</time></trkpt><trkpt lat="38.182528706743184" lon="13.14139440031768"><ele>11.6</ele><time>2026-03-29T16:11:45.001Z</time></trkpt><trkpt lat="38.18255077664367" lon="13.141266779906042"><ele>11.8</ele><time>2026-03-29T16:11:46.001Z</time></trkpt><trkpt lat="38.182566324065945" lon="13.141141468866417"><ele>12.0</ele><time>2026-03-29T16:11:47.001Z</time></trkpt><trkpt lat="38.182591887022895" lon="13.14102570228091"><ele>12.0</ele><time>2026-03-29T16:11:48.001Z</time></trkpt><trkpt lat="38.18262220381771" lon="13.140911784289889"><ele>12.0</ele><time>2026-03-29T16:11:49.001Z</time></trkpt><trkpt lat="38.18266094175191" lon="13.14080388373796"><ele>12.0</ele><time>2026-03-29T16:11:50.001Z</time></trkpt><trkpt lat="38.182704311206756" lon="13.140705506366816"><ele>12.0</ele><time>2026-03-29T16:11:51.001Z</time></trkpt><trkpt lat="38.18275622559463" lon="13.140615503640728"><ele>12.0</ele><time>2026-03-29T16:11:52.001Z</time></trkpt><trkpt lat="38.18281531007882" lon="13.140535974060757"><ele>11.833333333333334</ele><time>2026-03-29T16:11:53.001Z</time></trkpt><trkpt lat="38.18286877161496" lon="13.140461012246625"><ele>11.666666666666666</ele><time>2026-03-29T16:11:54.001Z</time></trkpt><trkpt lat="38.18292017620714" lon="13.140388364189576"><ele>11.5</ele><time>2026-03-29T16:11:55.001Z</time></trkpt><trkpt lat="38.182975810197306" lon="13.140317828025797"><ele>11.333333333333332</ele><time>2026-03-29T16:11:56.001Z</time></trkpt><trkpt lat="38.183024745588526" lon="13.140234303238223"><ele>11.166666666666666</ele><time>2026-03-29T16:11:57.001Z</time></trkpt><trkpt lat="38.18307309189769" lon="13.140139389580298"><ele>11.0</ele><time>2026-03-29T16:11:58.001Z</time></trkpt><trkpt lat="38.18311099800443" lon="13.140034167400843"><ele>11.0</ele><time>2026-03-29T16:11:59.001Z</time></trkpt><trkpt lat="38.183136274397" lon="13.139931574591834"><ele>11.0</ele><time>2026-03-29T16:12:00.001Z</time></trkpt><trkpt lat="38.18315979034232" lon="13.139837831258454"><ele>11.0</ele><time>2026-03-29T16:12:01.001Z</time></trkpt><trkpt lat="38.18317408624898" lon="13.13973337467371"><ele>11.0</ele><time>2026-03-29T16:12:02.001Z</time></trkpt><trkpt lat="38.18318588090524" lon="13.139621625164725"><ele>11.0</ele><time>2026-03-29T16:12:03.001Z</time></trkpt><trkpt lat="38.18319305532932" lon="13.139513926037875"><ele>11.0</ele><time>2026-03-29T16:12:04.001Z</time></trkpt><trkpt lat="38.18318642824172" lon="13.139404371073287"><ele>10.333333333333332</ele><time>2026-03-29T16:12:05.001Z</time></trkpt><trkpt lat="38.18316971738849" lon="13.13929992804351"><ele>9.666666666666666</ele><time>2026-03-29T16:12:06.001Z</time></trkpt><trkpt lat="38.18314596904387" lon="13.139203596667695"><ele>9.0</ele><time>2026-03-29T16:12:07.001Z</time></trkpt><trkpt lat="38.1831119696523" lon="13.139115427784759"><ele>8.333333333333334</ele><time>2026-03-29T16:12:08.001Z</time></trkpt><trkpt lat="38.18307053292333" lon="13.139039964264175"><ele>7.666666666666667</ele><time>2026-03-29T16:12:09.001Z</time></trkpt><trkpt lat="38.18302205355692" lon="13.13897352667589"><ele>7.0</ele><time>2026-03-29T16:12:10.001Z</time></trkpt><trkpt lat="38.18296037919716" lon="13.138925912366897"><ele>7.0</ele><time>2026-03-29T16:12:11.001Z</time></trkpt><trkpt lat="38.18289644891064" lon="13.138900532185131"><ele>7.0</ele><time>2026-03-29T16:12:12.001Z</time></trkpt><trkpt lat="38.182829915482074" lon="13.138877502298064"><ele>7.0</ele><time>2026-03-29T16:12:13.001Z</time></trkpt><trkpt lat="38.18276615932376" lon="13.138860736553614"><ele>7.0</ele><time>2026-03-29T16:12:14.001Z</time></trkpt><trkpt lat="38.18270885662831" lon="13.138825159815855"><ele>7.0</ele><time>2026-03-29T16:12:16.001Z</time></trkpt><trkpt lat="38.18275201553539" lon="13.138716998725615"><ele>7.0</ele><time>2026-03-29T16:12:19.001Z</time></trkpt><trkpt lat="38.1827833694132" lon="13.138637032034202"><ele>7.0</ele><time>2026-03-29T16:12:20.001Z</time></trkpt><trkpt lat="38.18281466945366" lon="13.13854004955589"><ele>7.0</ele><time>2026-03-29T16:12:21.001Z</time></trkpt><trkpt lat="38.182831294031445" lon="13.138432141127069"><ele>6.999999999999999</ele><time>2026-03-29T16:12:22.001Z</time></trkpt><trkpt lat="38.18288500211859" lon="13.138336043685317"><ele>6.999999999999999</ele><time>2026-03-29T16:12:23.001Z</time></trkpt><trkpt lat="38.18292552893056" lon="13.138235822298183"><ele>7.0</ele><time>2026-03-29T16:12:24.001Z</time></trkpt><trkpt lat="38.18294791081915" lon="13.138111877835364"><ele>7.0</ele><time>2026-03-29T16:12:25.001Z</time></trkpt><trkpt lat="38.182974008715156" lon="13.137995884925559"><ele>7.3999999999999995</ele><time>2026-03-29T16:12:26Z</time></trkpt><trkpt lat="38.182988275058875" lon="13.137874098464147"><ele>7.799999999999999</ele><time>2026-03-29T16:12:27Z</time></trkpt><trkpt lat="38.182982965301996" lon="13.137742670486382"><ele>8.2</ele><time>2026-03-29T16:12:28Z</time></trkpt><trkpt lat="38.18297940941197" lon="13.137617331332999"><ele>8.6</ele><time>2026-03-29T16:12:29Z</time></trkpt><trkpt lat="38.18295606789743" lon="13.137471075576565"><ele>9.0</ele><time>2026-03-29T16:12:30Z</time></trkpt><trkpt lat="38.182935980190805" lon="13.137329279751249"><ele>10.0</ele><time>2026-03-29T16:12:31Z</time></trkpt><trkpt lat="38.18291998355417" lon="13.137183758551446"><ele>11.0</ele><time>2026-03-29T16:12:32Z</time></trkpt><trkpt lat="38.182921890155434" lon="13.137024258641436"><ele>12.0</ele><time>2026-03-29T16:12:33Z</time></trkpt><trkpt lat="38.18291295624693" lon="13.136866993271763"><ele>13.0</ele><time>2026-03-29T16:12:34Z</time></trkpt><trkpt lat="38.18290389093791" lon="13.136706839556862"><ele>13.0</ele><time>2026-03-29T16:12:35Z</time></trkpt><trkpt lat="38.18289771136377" lon="13.136553191907545"><ele>13.0</ele><time>2026-03-29T16:12:36Z</time></trkpt><trkpt lat="38.18289620300602" lon="13.136391104122836"><ele>13.0</ele><time>2026-03-29T16:12:37Z</time></trkpt><trkpt lat="38.18289729394762" lon="13.136227358756551"><ele>13.0</ele><time>2026-03-29T16:12:38Z</time></trkpt><trkpt lat="38.18289836077884" lon="13.136067231273405"><ele>13.5</ele><time>2026-03-29T16:12:39Z</time></trkpt><trkpt lat="38.182896227632014" lon="13.135901539021917"><ele>14.0</ele><time>2026-03-29T16:12:40Z</time></trkpt><trkpt lat="38.18289477150703" lon="13.135719554075049"><ele>14.5</ele><time>2026-03-29T16:12:41.001Z</time></trkpt><trkpt lat="38.18289388502094" lon="13.13554302098998"><ele>15.0</ele><time>2026-03-29T16:12:42.001Z</time></trkpt><trkpt lat="38.182915079560125" lon="13.135367603689534"><ele>15.0</ele><time>2026-03-29T16:12:43.001Z</time></trkpt><trkpt lat="38.18291978958202" lon="13.135182681849345"><ele>15.0</ele><time>2026-03-29T16:12:44.001Z</time></trkpt><trkpt lat="38.18292731921297" lon="13.135003372067498"><ele>15.0</ele><time>2026-03-29T16:12:45.001Z</time></trkpt><trkpt lat="38.18293401350114" lon="13.134821547876912"><ele>15.0</ele><time>2026-03-29T16:12:46.001Z</time></trkpt><trkpt lat="38.18294098097611" lon="13.134646097950982"><ele>15.0</ele><time>2026-03-29T16:12:47.001Z</time></trkpt><trkpt lat="38.182948905656175" lon="13.134478233111544"><ele>15.0</ele><time>2026-03-29T16:12:48.001Z</time></trkpt><trkpt lat="38.182957592162786" lon="13.134313152437741"><ele>15.0</ele><time>2026-03-29T16:12:49.001Z</time></trkpt><trkpt lat="38.182965875353645" lon="13.1341383180898"><ele>15.0</ele><time>2026-03-29T16:12:50.001Z</time></trkpt><trkpt lat="38.18297142980692" lon="13.133973768021637"><ele>15.25</ele><time>2026-03-29T16:12:51.001Z</time></trkpt><trkpt lat="38.18298095616461" lon="13.133819911065054"><ele>15.5</ele><time>2026-03-29T16:12:52.001Z</time></trkpt><trkpt lat="38.183000668132884" lon="13.133662245869617"><ele>15.75</ele><time>2026-03-29T16:12:53.001Z</time></trkpt><trkpt lat="38.183022452676894" lon="13.133511996675987"><ele>16.0</ele><time>2026-03-29T16:12:54.001Z</time></trkpt><trkpt lat="38.18304644050449" lon="13.133356453387352"><ele>16.25</ele><time>2026-03-29T16:12:55.001Z</time></trkpt><trkpt lat="38.18307035162316" lon="13.133196453023382"><ele>16.5</ele><time>2026-03-29T16:12:56.001Z</time></trkpt><trkpt lat="38.18309523950132" lon="13.133028893954323"><ele>16.75</ele><time>2026-03-29T16:12:57.001Z</time></trkpt><trkpt lat="38.18312082657013" lon="13.132858364951632"><ele>17.0</ele><time>2026-03-29T16:12:58.001Z</time></trkpt><trkpt lat="38.183146837895364" lon="13.132690551068103"><ele>17.0</ele><time>2026-03-29T16:12:59.001Z</time></trkpt><trkpt lat="38.18317297454375" lon="13.132514469807628"><ele>17.0</ele><time>2026-03-29T16:13:00.001Z</time></trkpt><trkpt lat="38.183198974838184" lon="13.132340157274642"><ele>17.0</ele><time>2026-03-29T16:13:01.001Z</time></trkpt><trkpt lat="38.18321552130359" lon="13.13216096279314"><ele>17.0</ele><time>2026-03-29T16:13:02.001Z</time></trkpt><trkpt lat="38.18327071912304" lon="13.13199461071685"><ele>16.75</ele><time>2026-03-29T16:13:03.001Z</time></trkpt><trkpt lat="38.18331526322621" lon="13.131817146411608"><ele>16.5</ele><time>2026-03-29T16:13:04.001Z</time></trkpt><trkpt lat="38.18335868339723" lon="13.131647928231569"><ele>16.25</ele><time>2026-03-29T16:13:05.001Z</time></trkpt><trkpt lat="38.18340185345657" lon="13.131478688497195"><ele>16.0</ele><time>2026-03-29T16:13:06.001Z</time></trkpt><trkpt lat="38.183442156967274" lon="13.131320818587712"><ele>16.0</ele><time>2026-03-29T16:13:07.001Z</time></trkpt><trkpt lat="38.18347662633159" lon="13.13117245756914"><ele>16.0</ele><time>2026-03-29T16:13:08.001Z</time></trkpt><trkpt lat="38.18350824010891" lon="13.131028418749903"><ele>16.0</ele><time>2026-03-29T16:13:09Z</time></trkpt><trkpt lat="38.18354062179839" lon="13.130879885970252"><ele>16.0</ele><time>2026-03-29T16:13:10Z</time></trkpt><trkpt lat="38.18356929194872" lon="13.13073794663389"><ele>16.2</ele><time>2026-03-29T16:13:11Z</time></trkpt><trkpt lat="38.183597508429195" lon="13.130600813779495"><ele>16.400000000000002</ele><time>2026-03-29T16:13:12Z</time></trkpt><trkpt lat="38.18362583206908" lon="13.13047031253188"><ele>16.6</ele><time>2026-03-29T16:13:13Z</time></trkpt><trkpt lat="38.18365810755255" lon="13.130343178295774"><ele>16.8</ele><time>2026-03-29T16:13:14Z</time></trkpt><trkpt lat="38.18370084740012" lon="13.130212511412651"><ele>17.0</ele><time>2026-03-29T16:13:15Z</time></trkpt><trkpt lat="38.183744920506676" lon="13.130083031503029"><ele>17.0</ele><time>2026-03-29T16:13:16Z</time></trkpt><trkpt lat="38.18379255773711" lon="13.129949462918146"><ele>17.0</ele><time>2026-03-29T16:13:17Z</time></trkpt><trkpt lat="38.18384320285269" lon="13.129809509360266"><ele>17.0</ele><time>2026-03-29T16:13:18Z</time></trkpt><trkpt lat="38.183881417410724" lon="13.129657513390256"><ele>17.0</ele><time>2026-03-29T16:13:19Z</time></trkpt><trkpt lat="38.18390301845816" lon="13.129517371686143"><ele>17.25</ele><time>2026-03-29T16:13:20Z</time></trkpt><trkpt lat="38.18389819733378" lon="13.12936465046963"><ele>17.5</ele><time>2026-03-29T16:13:21Z</time></trkpt><trkpt lat="38.18392266143314" lon="13.129221586147295"><ele>17.75</ele><time>2026-03-29T16:13:22Z</time></trkpt><trkpt lat="38.18392651882251" lon="13.129069280216815"><ele>18.0</ele><time>2026-03-29T16:13:23Z</time></trkpt><trkpt lat="38.18392371594111" lon="13.128913718957367"><ele>18.0</ele><time>2026-03-29T16:13:24Z</time></trkpt><trkpt lat="38.18390985014263" lon="13.128754010339012"><ele>18.0</ele><time>2026-03-29T16:13:25Z</time></trkpt><trkpt lat="38.18390042226246" lon="13.128603337002064"><ele>18.0</ele><time>2026-03-29T16:13:26Z</time></trkpt><trkpt lat="38.183885930151256" lon="13.128450706368998"><ele>18.0</ele><time>2026-03-29T16:13:27Z</time></trkpt><trkpt lat="38.18387574721628" lon="13.128291985463813"><ele>18.0</ele><time>2026-03-29T16:13:28Z</time></trkpt><trkpt lat="38.18386485413469" lon="13.128131450776698"><ele>18.0</ele><time>2026-03-29T16:13:29Z</time></trkpt><trkpt lat="38.18385649177893" lon="13.127983490560492"><ele>18.0</ele><time>2026-03-29T16:13:30Z</time></trkpt><trkpt lat="38.183851143579595" lon="13.127837282419954"><ele>18.0</ele><time>2026-03-29T16:13:31Z</time></trkpt><trkpt lat="38.1838469558524" lon="13.127695524969779"><ele>18.0</ele><time>2026-03-29T16:13:32Z</time></trkpt><trkpt lat="38.18384269582529" lon="13.127555865695703"><ele>18.0</ele><time>2026-03-29T16:13:33Z</time></trkpt><trkpt lat="38.18385217399256" lon="13.127424641839289"><ele>18.0</ele><time>2026-03-29T16:13:34Z</time></trkpt><trkpt lat="38.18386790842981" lon="13.127302134450789"><ele>18.0</ele><time>2026-03-29T16:13:35Z</time></trkpt><trkpt lat="38.18386705092362" lon="13.127185734260015"><ele>18.0</ele><time>2026-03-29T16:13:36Z</time></trkpt><trkpt lat="38.183848922862154" lon="13.127077032364825"><ele>17.8</ele><time>2026-03-29T16:13:37Z</time></trkpt><trkpt lat="38.183826653272696" lon="13.126970511953903"><ele>17.6</ele><time>2026-03-29T16:13:38Z</time></trkpt><trkpt lat="38.18380248848574" lon="13.126852677241102"><ele>17.4</ele><time>2026-03-29T16:13:39Z</time></trkpt><trkpt lat="38.183789007725125" lon="13.12672543583801"><ele>17.2</ele><time>2026-03-29T16:13:40Z</time></trkpt><trkpt lat="38.18378540676117" lon="13.126590029403285"><ele>17.0</ele><time>2026-03-29T16:13:41Z</time></trkpt><trkpt lat="38.18380455670198" lon="13.12643879622241"><ele>17.0</ele><time>2026-03-29T16:13:42Z</time></trkpt><trkpt lat="38.18381650740399" lon="13.126286498380631"><ele>17.0</ele><time>2026-03-29T16:13:43Z</time></trkpt><trkpt lat="38.18382518756196" lon="13.126129509278837"><ele>17.0</ele><time>2026-03-29T16:13:44Z</time></trkpt><trkpt lat="38.1838198459538" lon="13.12596565200931"><ele>17.0</ele><time>2026-03-29T16:13:45Z</time></trkpt><trkpt lat="38.18385131910749" lon="13.125798697473028"><ele>17.5</ele><time>2026-03-29T16:13:46Z</time></trkpt><trkpt lat="38.183862513186924" lon="13.125623075448328"><ele>18.0</ele><time>2026-03-29T16:13:47Z</time></trkpt><trkpt lat="38.183872094188104" lon="13.125449754710257"><ele>18.5</ele><time>2026-03-29T16:13:48Z</time></trkpt><trkpt lat="38.18387841086758" lon="13.12528089904303"><ele>19.0</ele><time>2026-03-29T16:13:49Z</time></trkpt><trkpt lat="38.183873861656394" lon="13.125107944839176"><ele>19.0</ele><time>2026-03-29T16:13:50Z</time></trkpt><trkpt lat="38.183853756403266" lon="13.124937343351581"><ele>19.0</ele><time>2026-03-29T16:13:51Z</time></trkpt><trkpt lat="38.183819641005734" lon="13.124771929969713"><ele>19.0</ele><time>2026-03-29T16:13:52Z</time></trkpt><trkpt lat="38.18377776092605" lon="13.124604895474357"><ele>19.0</ele><time>2026-03-29T16:13:53Z</time></trkpt><trkpt lat="38.183735012160916" lon="13.124430936195312"><ele>18.75</ele><time>2026-03-29T16:13:54Z</time></trkpt><trkpt lat="38.18369054901903" lon="13.124252833485414"><ele>18.5</ele><time>2026-03-29T16:13:55Z</time></trkpt><trkpt lat="38.183648288262155" lon="13.124085926915837"><ele>18.25</ele><time>2026-03-29T16:13:56Z</time></trkpt><trkpt lat="38.183610420659384" lon="13.12392959646032"><ele>18.0</ele><time>2026-03-29T16:13:57Z</time></trkpt><trkpt lat="38.18357286274022" lon="13.123786178887698"><ele>18.0</ele><time>2026-03-29T16:13:58Z</time></trkpt><trkpt lat="38.18353588989636" lon="13.123648061083538"><ele>18.0</ele><time>2026-03-29T16:13:59Z</time></trkpt><trkpt lat="38.183498832503766" lon="13.123506035923723"><ele>18.0</ele><time>2026-03-29T16:14:00Z</time></trkpt><trkpt lat="38.18346033662966" lon="13.123364666268944"><ele>18.0</ele><time>2026-03-29T16:14:01Z</time></trkpt><trkpt lat="38.18342145803224" lon="13.123222978083918"><ele>18.0</ele><time>2026-03-29T16:14:02Z</time></trkpt><trkpt lat="38.18338232164426" lon="13.123083224893872"><ele>18.0</ele><time>2026-03-29T16:14:03Z</time></trkpt><trkpt lat="38.18334691662033" lon="13.122949857960627"><ele>18.0</ele><time>2026-03-29T16:14:04Z</time></trkpt><trkpt lat="38.18331752483648" lon="13.122816458298722"><ele>18.0</ele><time>2026-03-29T16:14:05Z</time></trkpt><trkpt lat="38.18329443392076" lon="13.122693885210527"><ele>18.0</ele><time>2026-03-29T16:14:06Z</time></trkpt><trkpt lat="38.18327023106479" lon="13.122576615918438"><ele>18.0</ele><time>2026-03-29T16:14:07Z</time></trkpt><trkpt lat="38.18325271292642" lon="13.122458762483895"><ele>18.0</ele><time>2026-03-29T16:14:08Z</time></trkpt><trkpt lat="38.183238214883275" lon="13.122343328290611"><ele>18.0</ele><time>2026-03-29T16:14:09Z</time></trkpt><trkpt lat="38.18322489325583" lon="13.122231789964033"><ele>18.0</ele><time>2026-03-29T16:14:10Z</time></trkpt><trkpt lat="38.18321216202876" lon="13.122119335465758"><ele>18.0</ele><time>2026-03-29T16:14:11Z</time></trkpt><trkpt lat="38.18320000145868" lon="13.122008886115754"><ele>18.0</ele><time>2026-03-29T16:14:12Z</time></trkpt><trkpt lat="38.18319074297605" lon="13.121896553196843"><ele>18.0</ele><time>2026-03-29T16:14:13Z</time></trkpt><trkpt lat="38.18318270278358" lon="13.121788533516693"><ele>18.0</ele><time>2026-03-29T16:14:14Z</time></trkpt><trkpt lat="38.18316922183454" lon="13.121678603558971"><ele>18.0</ele><time>2026-03-29T16:14:15Z</time></trkpt><trkpt lat="38.18315002413665" lon="13.121575615211862"><ele>18.0</ele><time>2026-03-29T16:14:16Z</time></trkpt><trkpt lat="38.18312565977225" lon="13.121470276892612"><ele>18.0</ele><time>2026-03-29T16:14:17Z</time></trkpt><trkpt lat="38.183093290745745" lon="13.121375665370094"><ele>18.8</ele><time>2026-03-29T16:14:18Z</time></trkpt><trkpt lat="38.18304934701887" lon="13.1212793298551"><ele>19.6</ele><time>2026-03-29T16:14:19Z</time></trkpt><trkpt lat="38.18299664966925" lon="13.121190178785918"><ele>20.400000000000002</ele><time>2026-03-29T16:14:20Z</time></trkpt><trkpt lat="38.18292833167587" lon="13.121108866018968"><ele>21.200000000000003</ele><time>2026-03-29T16:14:21Z</time></trkpt><trkpt lat="38.1828534500769" lon="13.121032112766668"><ele>22.0</ele><time>2026-03-29T16:14:22Z</time></trkpt><trkpt lat="38.18277455966277" lon="13.120967206262305"><ele>22.0</ele><time>2026-03-29T16:14:23Z</time></trkpt><trkpt lat="38.182690475252706" lon="13.120920842761091"><ele>22.0</ele><time>2026-03-29T16:14:24Z</time></trkpt><trkpt lat="38.182601361439886" lon="13.120886002308158"><ele>22.0</ele><time>2026-03-29T16:14:25Z</time></trkpt><trkpt lat="38.182514679096705" lon="13.12085508164798"><ele>22.0</ele><time>2026-03-29T16:14:26Z</time></trkpt><trkpt lat="38.18242784242886" lon="13.120824501771159"><ele>22.0</ele><time>2026-03-29T16:14:27Z</time></trkpt><trkpt lat="38.18233950613709" lon="13.120794945745"><ele>23.0</ele><time>2026-03-29T16:14:28Z</time></trkpt><trkpt lat="38.18225335135946" lon="13.120765488896184"><ele>24.0</ele><time>2026-03-29T16:14:29Z</time></trkpt><trkpt lat="38.18216945678239" lon="13.120733021288022"><ele>25.0</ele><time>2026-03-29T16:14:30Z</time></trkpt><trkpt lat="38.18208813307871" lon="13.120699469436133"><ele>26.0</ele><time>2026-03-29T16:14:31Z</time></trkpt><trkpt lat="38.182008886381475" lon="13.1206475626102"><ele>27.000000000000004</ele><time>2026-03-29T16:14:32Z</time></trkpt><trkpt lat="38.18193771511462" lon="13.120589894926647"><ele>28.0</ele><time>2026-03-29T16:14:33Z</time></trkpt><trkpt lat="38.181866472573816" lon="13.120519824794968"><ele>28.0</ele><time>2026-03-29T16:14:34Z</time></trkpt><trkpt lat="38.18179564424265" lon="13.120432586281375"><ele>27.999999999999996</ele><time>2026-03-29T16:14:35Z</time></trkpt><trkpt lat="38.18173685515133" lon="13.120340157270123"><ele>27.999999999999996</ele><time>2026-03-29T16:14:36Z</time></trkpt><trkpt lat="38.18168657465727" lon="13.120228367658514"><ele>28.0</ele><time>2026-03-29T16:14:37Z</time></trkpt><trkpt lat="38.18165038533776" lon="13.120099758023654"><ele>28.0</ele><time>2026-03-29T16:14:38Z</time></trkpt><trkpt lat="38.181624432011326" lon="13.119970031079054"><ele>28.799999999999997</ele><time>2026-03-29T16:14:39Z</time></trkpt><trkpt lat="38.18160729628027" lon="13.119831730922334"><ele>29.599999999999998</ele><time>2026-03-29T16:14:40Z</time></trkpt><trkpt lat="38.18160715655186" lon="13.119699206738296"><ele>30.400000000000002</ele><time>2026-03-29T16:14:41Z</time></trkpt><trkpt lat="38.181620520660694" lon="13.119570215728164"><ele>31.200000000000003</ele><time>2026-03-29T16:14:42Z</time></trkpt><trkpt lat="38.18163934775186" lon="13.119438920857045"><ele>32.0</ele><time>2026-03-29T16:14:43Z</time></trkpt><trkpt lat="38.181657719141306" lon="13.11931532178285"><ele>32.0</ele><time>2026-03-29T16:14:44Z</time></trkpt><trkpt lat="38.18168285216669" lon="13.119197765070831"><ele>32.0</ele><time>2026-03-29T16:14:45Z</time></trkpt><trkpt lat="38.18170690236824" lon="13.119091112658506"><ele>32.0</ele><time>2026-03-29T16:14:46Z</time></trkpt><trkpt lat="38.18172933811347" lon="13.118980390808298"><ele>32.0</ele><time>2026-03-29T16:14:47Z</time></trkpt><trkpt lat="38.1817511904165" lon="13.118867105095525"><ele>32.0</ele><time>2026-03-29T16:14:48Z</time></trkpt><trkpt lat="38.181768257513454" lon="13.11873848768221"><ele>32.2</ele><time>2026-03-29T16:14:49Z</time></trkpt><trkpt lat="38.1817815420743" lon="13.11861240065547"><ele>32.400000000000006</ele><time>2026-03-29T16:14:50Z</time></trkpt><trkpt lat="38.18178893989213" lon="13.118476003360763"><ele>32.599999999999994</ele><time>2026-03-29T16:14:51Z</time></trkpt><trkpt lat="38.18178822853152" lon="13.118332611910464"><ele>32.8</ele><time>2026-03-29T16:14:52Z</time></trkpt><trkpt lat="38.18178244358886" lon="13.118189274676928"><ele>33.0</ele><time>2026-03-29T16:14:53Z</time></trkpt><trkpt lat="38.181780860004054" lon="13.118051428582483"><ele>33.0</ele><time>2026-03-29T16:14:54Z</time></trkpt><trkpt lat="38.181778223273" lon="13.117906686623307"><ele>33.0</ele><time>2026-03-29T16:14:55Z</time></trkpt><trkpt lat="38.18177487547478" lon="13.117775552045842"><ele>33.0</ele><time>2026-03-29T16:14:56Z</time></trkpt><trkpt lat="38.18177427078351" lon="13.117640784927996"><ele>33.0</ele><time>2026-03-29T16:14:57Z</time></trkpt><trkpt lat="38.181771201578776" lon="13.11750786516403"><ele>33.0</ele><time>2026-03-29T16:14:58Z</time></trkpt><trkpt lat="38.18176790273649" lon="13.11738228484503"><ele>33.14285714285714</ele><time>2026-03-29T16:14:59Z</time></trkpt><trkpt lat="38.181764915392435" lon="13.117272512842764"><ele>33.285714285714285</ele><time>2026-03-29T16:15:00Z</time></trkpt><trkpt lat="38.18175786631127" lon="13.117174332256301"><ele>33.42857142857143</ele><time>2026-03-29T16:15:01Z</time></trkpt><trkpt lat="38.181750668442284" lon="13.117092184721646"><ele>33.57142857142857</ele><time>2026-03-29T16:15:02Z</time></trkpt><trkpt lat="38.181748845970965" lon="13.117010482702234"><ele>33.714285714285715</ele><time>2026-03-29T16:15:03Z</time></trkpt><trkpt lat="38.18174576654173" lon="13.116925434914195"><ele>33.857142857142854</ele><time>2026-03-29T16:15:04Z</time></trkpt><trkpt lat="38.18174245626809" lon="13.116831444384134"><ele>34.0</ele><time>2026-03-29T16:15:05Z</time></trkpt><trkpt lat="38.181746970993416" lon="13.116726439295162"><ele>34.0</ele><time>2026-03-29T16:15:06Z</time></trkpt><trkpt lat="38.18175471741135" lon="13.116617150900161"><ele>34.0</ele><time>2026-03-29T16:15:07Z</time></trkpt><trkpt lat="38.18176244991453" lon="13.116506440673538"><ele>34.0</ele><time>2026-03-29T16:15:08Z</time></trkpt><trkpt lat="38.181762614303224" lon="13.116400250761021"><ele>34.0</ele><time>2026-03-29T16:15:09Z</time></trkpt><trkpt lat="38.18175070389078" lon="13.116289408543103"><ele>34.0</ele><time>2026-03-29T16:15:10Z</time></trkpt><trkpt lat="38.1817310968352" lon="13.11617505850496"><ele>34.0</ele><time>2026-03-29T16:15:11Z</time></trkpt><trkpt lat="38.18170298738057" lon="13.116057875372569"><ele>33.6</ele><time>2026-03-29T16:15:12Z</time></trkpt><trkpt lat="38.181670264687355" lon="13.115945370159023"><ele>33.2</ele><time>2026-03-29T16:15:13Z</time></trkpt><trkpt lat="38.181635879606326" lon="13.115833208834665"><ele>32.800000000000004</ele><time>2026-03-29T16:15:14Z</time></trkpt><trkpt lat="38.18159696122614" lon="13.115717790082421"><ele>32.4</ele><time>2026-03-29T16:15:15Z</time></trkpt><trkpt lat="38.18155667919962" lon="13.115602804997021"><ele>32.0</ele><time>2026-03-29T16:15:16Z</time></trkpt><trkpt lat="38.181519809199195" lon="13.115489759964287"><ele>32.800000000000004</ele><time>2026-03-29T16:15:17Z</time></trkpt><trkpt lat="38.181489135176236" lon="13.115371913427438"><ele>33.6</ele><time>2026-03-29T16:15:18Z</time></trkpt><trkpt lat="38.18146572853806" lon="13.115243879340415"><ele>34.400000000000006</ele><time>2026-03-29T16:15:19Z</time></trkpt><trkpt lat="38.181450653695876" lon="13.115111474313073"><ele>35.2</ele><time>2026-03-29T16:15:20Z</time></trkpt><trkpt lat="38.181437818455315" lon="13.11497310058144"><ele>36.0</ele><time>2026-03-29T16:15:21Z</time></trkpt><trkpt lat="38.18142462474405" lon="13.114833678537623"><ele>36.0</ele><time>2026-03-29T16:15:22Z</time></trkpt><trkpt lat="38.18140900005615" lon="13.114699424253143"><ele>36.0</ele><time>2026-03-29T16:15:23Z</time></trkpt><trkpt lat="38.18138891085079" lon="13.114564045304112"><ele>36.0</ele><time>2026-03-29T16:15:24Z</time></trkpt><trkpt lat="38.18136458592693" lon="13.114431322283568"><ele>36.0</ele><time>2026-03-29T16:15:25Z</time></trkpt><trkpt lat="38.181340749531344" lon="13.114302143363469"><ele>36.0</ele><time>2026-03-29T16:15:26Z</time></trkpt><trkpt lat="38.18131799929862" lon="13.114172761377295"><ele>35.6</ele><time>2026-03-29T16:15:27Z</time></trkpt><trkpt lat="38.18129672664041" lon="13.114046626464674"><ele>35.2</ele><time>2026-03-29T16:15:28Z</time></trkpt><trkpt lat="38.181273451347465" lon="13.113919798153022"><ele>34.8</ele><time>2026-03-29T16:15:29Z</time></trkpt><trkpt lat="38.18124470921136" lon="13.11379884319243"><ele>34.4</ele><time>2026-03-29T16:15:30Z</time></trkpt><trkpt lat="38.181221478964304" lon="13.11368323928542"><ele>34.0</ele><time>2026-03-29T16:15:31Z</time></trkpt><trkpt lat="38.18120490161474" lon="13.113566764987775"><ele>34.0</ele><time>2026-03-29T16:15:32Z</time></trkpt><trkpt lat="38.18118909334138" lon="13.113449505718503"><ele>34.0</ele><time>2026-03-29T16:15:33Z</time></trkpt><trkpt lat="38.181174824338456" lon="13.11333439864232"><ele>34.0</ele><time>2026-03-29T16:15:34Z</time></trkpt><trkpt lat="38.1811596953542" lon="13.113216598098255"><ele>34.0</ele><time>2026-03-29T16:15:35Z</time></trkpt><trkpt lat="38.18113989315678" lon="13.113093312364875"><ele>34.0</ele><time>2026-03-29T16:15:36Z</time></trkpt><trkpt lat="38.18112098561059" lon="13.112968879176107"><ele>33.5</ele><time>2026-03-29T16:15:37Z</time></trkpt><trkpt lat="38.181100266389215" lon="13.112837570149953"><ele>33.0</ele><time>2026-03-29T16:15:38Z</time></trkpt><trkpt lat="38.181071033711326" lon="13.11270339593448"><ele>32.5</ele><time>2026-03-29T16:15:39Z</time></trkpt><trkpt lat="38.181026035634616" lon="13.112563844754982"><ele>32.0</ele><time>2026-03-29T16:15:40Z</time></trkpt><trkpt lat="38.18097524348451" lon="13.112422943533971"><ele>31.5</ele><time>2026-03-29T16:15:41Z</time></trkpt><trkpt lat="38.18092733931538" lon="13.112268102254694"><ele>31.0</ele><time>2026-03-29T16:15:42Z</time></trkpt><trkpt lat="38.18087078351832" lon="13.11211493851283"><ele>30.5</ele><time>2026-03-29T16:15:43Z</time></trkpt><trkpt lat="38.18080995034062" lon="13.111954431024333"><ele>30.0</ele><time>2026-03-29T16:15:44Z</time></trkpt><trkpt lat="38.18074522466315" lon="13.111784294952846"><ele>30.0</ele><time>2026-03-29T16:15:45Z</time></trkpt><trkpt lat="38.180683063685684" lon="13.111619027734704"><ele>30.0</ele><time>2026-03-29T16:15:46Z</time></trkpt><trkpt lat="38.18061936042364" lon="13.111449720588057"><ele>30.0</ele><time>2026-03-29T16:15:47Z</time></trkpt><trkpt lat="38.180556230357716" lon="13.111286448463323"><ele>30.0</ele><time>2026-03-29T16:15:48Z</time></trkpt><trkpt lat="38.180489163783214" lon="13.111106829963289"><ele>30.666666666666664</ele><time>2026-03-29T16:15:49Z</time></trkpt><trkpt lat="38.180421489048456" lon="13.110926454118841"><ele>31.333333333333332</ele><time>2026-03-29T16:15:50Z</time></trkpt><trkpt lat="38.18035531686627" lon="13.110743595828508"><ele>32.0</ele><time>2026-03-29T16:15:51Z</time></trkpt><trkpt lat="38.18029096809897" lon="13.11057092609155"><ele>32.0</ele><time>2026-03-29T16:15:52Z</time></trkpt><trkpt lat="38.1802282466494" lon="13.110394659277526"><ele>32.0</ele><time>2026-03-29T16:15:53Z</time></trkpt><trkpt lat="38.18017020336908" lon="13.110232284631655"><ele>32.0</ele><time>2026-03-29T16:15:54Z</time></trkpt><trkpt lat="38.180109719682775" lon="13.110072864513109"><ele>32.0</ele><time>2026-03-29T16:15:55Z</time></trkpt><trkpt lat="38.18004978704575" lon="13.109921605660901"><ele>31.5</ele><time>2026-03-29T16:15:56Z</time></trkpt><trkpt lat="38.17999225756151" lon="13.10976733876077"><ele>31.0</ele><time>2026-03-29T16:15:57Z</time></trkpt><trkpt lat="38.17993956467309" lon="13.109605714047595"><ele>30.5</ele><time>2026-03-29T16:15:58Z</time></trkpt><trkpt lat="38.179891257670754" lon="13.109453555294023"><ele>30.0</ele><time>2026-03-29T16:15:59Z</time></trkpt><trkpt lat="38.17985605333222" lon="13.109298499077937"><ele>30.5</ele><time>2026-03-29T16:16:00Z</time></trkpt><trkpt lat="38.17982696678063" lon="13.109129786713241"><ele>31.0</ele><time>2026-03-29T16:16:01Z</time></trkpt><trkpt lat="38.179803236025215" lon="13.108958057270428"><ele>31.5</ele><time>2026-03-29T16:16:02Z</time></trkpt><trkpt lat="38.179776231694184" lon="13.108804892406855"><ele>32.0</ele><time>2026-03-29T16:16:03Z</time></trkpt><trkpt lat="38.17975731418328" lon="13.108667412642998"><ele>32.0</ele><time>2026-03-29T16:16:04Z</time></trkpt><trkpt lat="38.17972810580411" lon="13.108505331948265"><ele>32.0</ele><time>2026-03-29T16:16:05Z</time></trkpt><trkpt lat="38.17969977385121" lon="13.108340998024563"><ele>32.0</ele><time>2026-03-29T16:16:06Z</time></trkpt><trkpt lat="38.17968181985189" lon="13.108169112382237"><ele>32.0</ele><time>2026-03-29T16:16:07Z</time></trkpt><trkpt lat="38.17963626624113" lon="13.108009341333215"><ele>31.5</ele><time>2026-03-29T16:16:08Z</time></trkpt><trkpt lat="38.17956687662119" lon="13.10786865850751"><ele>31.0</ele><time>2026-03-29T16:16:09Z</time></trkpt><trkpt lat="38.1795333296078" lon="13.107714143336297"><ele>30.5</ele><time>2026-03-29T16:16:10Z</time></trkpt><trkpt lat="38.17948048226628" lon="13.10756347407812"><ele>30.0</ele><time>2026-03-29T16:16:11Z</time></trkpt><trkpt lat="38.17942726180142" lon="13.107413078491073"><ele>29.5</ele><time>2026-03-29T16:16:12Z</time></trkpt><trkpt lat="38.17937474474136" lon="13.107260658552706"><ele>29.0</ele><time>2026-03-29T16:16:13Z</time></trkpt><trkpt lat="38.17931657530131" lon="13.107101741433208"><ele>28.5</ele><time>2026-03-29T16:16:14Z</time></trkpt><trkpt lat="38.17925928284393" lon="13.106949785367387"><ele>28.0</ele><time>2026-03-29T16:16:15Z</time></trkpt><trkpt lat="38.17918998968114" lon="13.106809837633154"><ele>28.0</ele><time>2026-03-29T16:16:16Z</time></trkpt><trkpt lat="38.17911149414636" lon="13.10667050247192"><ele>28.0</ele><time>2026-03-29T16:16:17Z</time></trkpt><trkpt lat="38.17903378181361" lon="13.106535917789817"><ele>28.0</ele><time>2026-03-29T16:16:18Z</time></trkpt><trkpt lat="38.178952828132275" lon="13.106403627397931"><ele>28.0</ele><time>2026-03-29T16:16:19Z</time></trkpt><trkpt lat="38.17887141444668" lon="13.106273056866522"><ele>28.25</ele><time>2026-03-29T16:16:20Z</time></trkpt><trkpt lat="38.17878512721522" lon="13.106138839628732"><ele>28.5</ele><time>2026-03-29T16:16:21Z</time></trkpt><trkpt lat="38.17869671924822" lon="13.106004496571318"><ele>28.75</ele><time>2026-03-29T16:16:22Z</time></trkpt><trkpt lat="38.17860866675227" lon="13.105869908401539"><ele>29.0</ele><time>2026-03-29T16:16:23Z</time></trkpt><trkpt lat="38.178518375037434" lon="13.105730437798846"><ele>29.0</ele><time>2026-03-29T16:16:24Z</time></trkpt><trkpt lat="38.17843065844765" lon="13.105591151242818"><ele>29.0</ele><time>2026-03-29T16:16:25Z</time></trkpt><trkpt lat="38.17834228813223" lon="13.105453899413595"><ele>29.0</ele><time>2026-03-29T16:16:26Z</time></trkpt><trkpt lat="38.17825140021537" lon="13.10530835867736"><ele>29.0</ele><time>2026-03-29T16:16:27Z</time></trkpt><trkpt lat="38.178164132009684" lon="13.105168721998398"><ele>29.5</ele><time>2026-03-29T16:16:28Z</time></trkpt><trkpt lat="38.17807919854907" lon="13.105024985434758"><ele>30.0</ele><time>2026-03-29T16:16:29Z</time></trkpt><trkpt lat="38.17799567103504" lon="13.104892646817193"><ele>30.5</ele><time>2026-03-29T16:16:30Z</time></trkpt><trkpt lat="38.17791528956598" lon="13.104759339002191"><ele>31.0</ele><time>2026-03-29T16:16:31Z</time></trkpt><trkpt lat="38.17783622811368" lon="13.104629234944538"><ele>31.0</ele><time>2026-03-29T16:16:32Z</time></trkpt><trkpt lat="38.17775839978602" lon="13.104509659151166"><ele>31.0</ele><time>2026-03-29T16:16:33Z</time></trkpt><trkpt lat="38.177687078870754" lon="13.104403972843901"><ele>31.0</ele><time>2026-03-29T16:16:34Z</time></trkpt><trkpt lat="38.17762252281071" lon="13.104323795794024"><ele>31.0</ele><time>2026-03-29T16:16:35Z</time></trkpt><trkpt lat="38.177550592621095" lon="13.104269328612778"><ele>31.0</ele><time>2026-03-29T16:16:36Z</time></trkpt><trkpt lat="38.177471797516915" lon="13.104239528938864"><ele>31.0</ele><time>2026-03-29T16:16:37Z</time></trkpt><trkpt lat="38.177403973464585" lon="13.104229430611767"><ele>31.000000000000004</ele><time>2026-03-29T16:16:38Z</time></trkpt><trkpt lat="38.17734307989433" lon="13.104255872161364"><ele>31.0</ele><time>2026-03-29T16:16:39Z</time></trkpt><trkpt lat="38.17729064299905" lon="13.104311202441474"><ele>31.0</ele><time>2026-03-29T16:16:40Z</time></trkpt><trkpt lat="38.1772310935542" lon="13.104375830620608"><ele>31.000000000000004</ele><time>2026-03-29T16:16:41Z</time></trkpt><trkpt lat="38.177173735374986" lon="13.10444100647007"><ele>31.0</ele><time>2026-03-29T16:16:42Z</time></trkpt><trkpt lat="38.17712092296716" lon="13.104512088326363"><ele>31.0</ele><time>2026-03-29T16:16:43Z</time></trkpt><trkpt lat="38.17706006134185" lon="13.104583348389808"><ele>31.0</ele><time>2026-03-29T16:16:44Z</time></trkpt><trkpt lat="38.17699254806217" lon="13.104661474325956"><ele>31.0</ele><time>2026-03-29T16:16:45Z</time></trkpt><trkpt lat="38.176912481716464" lon="13.104749821656885"><ele>31.0</ele><time>2026-03-29T16:16:46Z</time></trkpt><trkpt lat="38.17682055138996" lon="13.104839836024265"><ele>31.0</ele><time>2026-03-29T16:16:47Z</time></trkpt><trkpt lat="38.17670844382527" lon="13.104938772299466"><ele>31.75</ele><time>2026-03-29T16:16:48Z</time></trkpt><trkpt lat="38.17660494705454" lon="13.105047606779124"><ele>32.5</ele><time>2026-03-29T16:16:49Z</time></trkpt><trkpt lat="38.176504746311586" lon="13.105153597985419"><ele>33.25</ele><time>2026-03-29T16:16:50Z</time></trkpt><trkpt lat="38.17640333376918" lon="13.105258550173996"><ele>34.0</ele><time>2026-03-29T16:16:51Z</time></trkpt><trkpt lat="38.17630306585157" lon="13.105364928198366"><ele>34.25</ele><time>2026-03-29T16:16:52Z</time></trkpt><trkpt lat="38.17620983507823" lon="13.105467198713862"><ele>34.5</ele><time>2026-03-29T16:16:53Z</time></trkpt><trkpt lat="38.176110988561824" lon="13.105579475511306"><ele>34.75</ele><time>2026-03-29T16:16:54Z</time></trkpt><trkpt lat="38.17600588785218" lon="13.105682545655506"><ele>35.0</ele><time>2026-03-29T16:16:55Z</time></trkpt><trkpt lat="38.175903791871654" lon="13.105772768048423"><ele>35.5</ele><time>2026-03-29T16:16:56Z</time></trkpt><trkpt lat="38.175799772178806" lon="13.10587171371208"><ele>36.0</ele><time>2026-03-29T16:16:57Z</time></trkpt><trkpt lat="38.17570540544427" lon="13.105966449324828"><ele>36.5</ele><time>2026-03-29T16:16:58Z</time></trkpt><trkpt lat="38.17559107040266" lon="13.106046685407215"><ele>37.0</ele><time>2026-03-29T16:16:59Z</time></trkpt><trkpt lat="38.17548819453877" lon="13.106141930213093"><ele>37.5</ele><time>2026-03-29T16:17:00Z</time></trkpt><trkpt lat="38.17537663382565" lon="13.106243940784026"><ele>38.0</ele><time>2026-03-29T16:17:01Z</time></trkpt><trkpt lat="38.17527367664511" lon="13.10633955532436"><ele>38.5</ele><time>2026-03-29T16:17:02Z</time></trkpt><trkpt lat="38.17517460743446" lon="13.106411584898064"><ele>39.0</ele><time>2026-03-29T16:17:03Z</time></trkpt><trkpt lat="38.17510105318813" lon="13.10649378972443"><ele>39.0</ele><time>2026-03-29T16:17:04Z</time></trkpt><trkpt lat="38.1750315635298" lon="13.106564471538286"><ele>39.0</ele><time>2026-03-29T16:17:05Z</time></trkpt><trkpt lat="38.174966200659476" lon="13.106623905957132"><ele>39.0</ele><time>2026-03-29T16:17:06Z</time></trkpt><trkpt lat="38.17490476860031" lon="13.106680881088678"><ele>39.0</ele><time>2026-03-29T16:17:07Z</time></trkpt><trkpt lat="38.17484445426509" lon="13.106717513496003"><ele>39.0</ele><time>2026-03-29T16:17:08Z</time></trkpt><trkpt lat="38.174775146961736" lon="13.106785071560088"><ele>39.0</ele><time>2026-03-29T16:17:09Z</time></trkpt><trkpt lat="38.17470373472235" lon="13.106853194620045"><ele>39.6</ele><time>2026-03-29T16:17:10Z</time></trkpt><trkpt lat="38.17463686736666" lon="13.10691682327107"><ele>40.2</ele><time>2026-03-29T16:17:11Z</time></trkpt><trkpt lat="38.17456755680348" lon="13.106990815605672"><ele>40.800000000000004</ele><time>2026-03-29T16:17:12Z</time></trkpt><trkpt lat="38.17448932672992" lon="13.107069223475248"><ele>41.4</ele><time>2026-03-29T16:17:13Z</time></trkpt><trkpt lat="38.17440995521375" lon="13.107158120987384"><ele>42.0</ele><time>2026-03-29T16:17:14Z</time></trkpt><trkpt lat="38.17433182002638" lon="13.107255581805505"><ele>42.0</ele><time>2026-03-29T16:17:15Z</time></trkpt><trkpt lat="38.174255517205324" lon="13.107347945877862"><ele>42.0</ele><time>2026-03-29T16:17:16Z</time></trkpt><trkpt lat="38.174160580795004" lon="13.107441704012736"><ele>42.0</ele><time>2026-03-29T16:17:17Z</time></trkpt><trkpt lat="38.174079811328134" lon="13.107537852906264"><ele>42.0</ele><time>2026-03-29T16:17:18Z</time></trkpt><trkpt lat="38.173991033916366" lon="13.107643631963466"><ele>42.75</ele><time>2026-03-29T16:17:19Z</time></trkpt><trkpt lat="38.173910247509646" lon="13.107739889669794"><ele>43.5</ele><time>2026-03-29T16:17:20Z</time></trkpt><trkpt lat="38.17382447676171" lon="13.107842085817811"><ele>44.25</ele><time>2026-03-29T16:17:21Z</time></trkpt><trkpt lat="38.173742506250264" lon="13.107943133774448"><ele>45.0</ele><time>2026-03-29T16:17:22Z</time></trkpt><trkpt lat="38.173663150857365" lon="13.108040126015759"><ele>45.0</ele><time>2026-03-29T16:17:23Z</time></trkpt><trkpt lat="38.17358441233876" lon="13.108136364295282"><ele>45.0</ele><time>2026-03-29T16:17:24Z</time></trkpt><trkpt lat="38.173506806296125" lon="13.10823121841652"><ele>45.0</ele><time>2026-03-29T16:17:25Z</time></trkpt><trkpt lat="38.173426668184355" lon="13.108329167387566"><ele>45.0</ele><time>2026-03-29T16:17:26Z</time></trkpt><trkpt lat="38.17334797912031" lon="13.108428427077905"><ele>45.0</ele><time>2026-03-29T16:17:27Z</time></trkpt><trkpt lat="38.173273336368965" lon="13.108523373928627"><ele>45.4</ele><time>2026-03-29T16:17:28Z</time></trkpt><trkpt lat="38.17320276085909" lon="13.108613146901007"><ele>45.8</ele><time>2026-03-29T16:17:29Z</time></trkpt><trkpt lat="38.17313551716796" lon="13.10869859914122"><ele>46.2</ele><time>2026-03-29T16:17:30Z</time></trkpt><trkpt lat="38.173064806695905" lon="13.10878948129328"><ele>46.6</ele><time>2026-03-29T16:17:31Z</time></trkpt><trkpt lat="38.172992444629074" lon="13.108881976348886"><ele>47.0</ele><time>2026-03-29T16:17:32Z</time></trkpt><trkpt lat="38.1729159364407" lon="13.108980485246182"><ele>48.0</ele><time>2026-03-29T16:17:33Z</time></trkpt><trkpt lat="38.17283871714054" lon="13.109079895597455"><ele>49.0</ele><time>2026-03-29T16:17:34Z</time></trkpt><trkpt lat="38.17275602106627" lon="13.10918548684379"><ele>50.0</ele><time>2026-03-29T16:17:35Z</time></trkpt><trkpt lat="38.172668661638184" lon="13.109296735497049"><ele>51.0</ele><time>2026-03-29T16:17:36Z</time></trkpt><trkpt lat="38.17257508778146" lon="13.109416212650089"><ele>51.0</ele><time>2026-03-29T16:17:37Z</time></trkpt><trkpt lat="38.172478414924406" lon="13.109539646610695"><ele>51.0</ele><time>2026-03-29T16:17:38Z</time></trkpt><trkpt lat="38.17237826564685" lon="13.1096694618348"><ele>51.0</ele><time>2026-03-29T16:17:39Z</time></trkpt><trkpt lat="38.17227727683738" lon="13.109802352218527"><ele>51.0</ele><time>2026-03-29T16:17:40Z</time></trkpt><trkpt lat="38.17219075935354" lon="13.109952521538423"><ele>52.5</ele><time>2026-03-29T16:17:41Z</time></trkpt><trkpt lat="38.1720873580309" lon="13.110087540208212"><ele>54.0</ele><time>2026-03-29T16:17:42Z</time></trkpt><trkpt lat="38.17198407541369" lon="13.110222172786022"><ele>55.5</ele><time>2026-03-29T16:17:43Z</time></trkpt><trkpt lat="38.171890917580065" lon="13.110348781533839"><ele>57.0</ele><time>2026-03-29T16:17:44Z</time></trkpt><trkpt lat="38.1717901055459" lon="13.110453688135056"><ele>57.0</ele><time>2026-03-29T16:17:45Z</time></trkpt><trkpt lat="38.1717030827938" lon="13.110560936507111"><ele>57.0</ele><time>2026-03-29T16:17:46Z</time></trkpt><trkpt lat="38.17161781357765" lon="13.110660113812912"><ele>57.0</ele><time>2026-03-29T16:17:47Z</time></trkpt><trkpt lat="38.171529726445435" lon="13.110752756895913"><ele>57.0</ele><time>2026-03-29T16:17:48Z</time></trkpt><trkpt lat="38.17142594483245" lon="13.110807364521976"><ele>57.75</ele><time>2026-03-29T16:17:49Z</time></trkpt><trkpt lat="38.17130686510428" lon="13.11082541814596"><ele>58.5</ele><time>2026-03-29T16:17:50Z</time></trkpt><trkpt lat="38.171187445802694" lon="13.110857039045097"><ele>59.25</ele><time>2026-03-29T16:17:51Z</time></trkpt><trkpt lat="38.17106538113448" lon="13.110888936099212"><ele>60.0</ele><time>2026-03-29T16:17:52Z</time></trkpt><trkpt lat="38.17094870813108" lon="13.110919061393838"><ele>60.0</ele><time>2026-03-29T16:17:53Z</time></trkpt><trkpt lat="38.17084464055793" lon="13.110962110133373"><ele>60.0</ele><time>2026-03-29T16:17:54Z</time></trkpt><trkpt lat="38.17075615769019" lon="13.110975222084612"><ele>60.0</ele><time>2026-03-29T16:17:55Z</time></trkpt><trkpt lat="38.17068944157078" lon="13.110976069787863"><ele>60.0</ele><time>2026-03-29T16:17:56Z</time></trkpt><trkpt lat="38.170625265784054" lon="13.110972162727728"><ele>60.0</ele><time>2026-03-29T16:17:57Z</time></trkpt><trkpt lat="38.17050485969457" lon="13.110906856478312"><ele>60.0</ele><time>2026-03-29T16:17:59Z</time></trkpt><trkpt lat="38.170431368625216" lon="13.110860089357235"><ele>60.0</ele><time>2026-03-29T16:18:00Z</time></trkpt><trkpt lat="38.17034685782449" lon="13.110807654452657"><ele>60.0</ele><time>2026-03-29T16:18:01Z</time></trkpt><trkpt lat="38.17024995919754" lon="13.110747589747175"><ele>60.0</ele><time>2026-03-29T16:18:02Z</time></trkpt><trkpt lat="38.17014682082878" lon="13.110676199466798"><ele>60.0</ele><time>2026-03-29T16:18:03Z</time></trkpt><trkpt lat="38.17003956132499" lon="13.110597317828846"><ele>59.5</ele><time>2026-03-29T16:18:04Z</time></trkpt><trkpt lat="38.16993101429924" lon="13.110512573796886"><ele>59.0</ele><time>2026-03-29T16:18:05Z</time></trkpt><trkpt lat="38.1698165134544" lon="13.110423012221746"><ele>58.5</ele><time>2026-03-29T16:18:06Z</time></trkpt><trkpt lat="38.169699691886414" lon="13.110330819336008"><ele>58.0</ele><time>2026-03-29T16:18:07Z</time></trkpt><trkpt lat="38.16956851493646" lon="13.110248406607507"><ele>58.0</ele><time>2026-03-29T16:18:08Z</time></trkpt><trkpt lat="38.169447259341155" lon="13.110148786373891"><ele>58.0</ele><time>2026-03-29T16:18:09Z</time></trkpt><trkpt lat="38.16932840524264" lon="13.110056562263656"><ele>58.0</ele><time>2026-03-29T16:18:10Z</time></trkpt><trkpt lat="38.169204694039735" lon="13.10996685395527"><ele>58.0</ele><time>2026-03-29T16:18:11Z</time></trkpt><trkpt lat="38.169069655816905" lon="13.10986976116439"><ele>57.666666666666664</ele><time>2026-03-29T16:18:12Z</time></trkpt><trkpt lat="38.168948407785535" lon="13.109754555623782"><ele>57.33333333333333</ele><time>2026-03-29T16:18:13Z</time></trkpt><trkpt lat="38.16881623390783" lon="13.109653832104197"><ele>57.0</ele><time>2026-03-29T16:18:14Z</time></trkpt><trkpt lat="38.16868413254647" lon="13.109556225372208"><ele>57.0</ele><time>2026-03-29T16:18:15Z</time></trkpt><trkpt lat="38.16855455978124" lon="13.109462431207868"><ele>57.0</ele><time>2026-03-29T16:18:16Z</time></trkpt><trkpt lat="38.16842112836753" lon="13.109360605755478"><ele>57.0</ele><time>2026-03-29T16:18:17Z</time></trkpt><trkpt lat="38.168279103350564" lon="13.109268994985033"><ele>57.33333333333333</ele><time>2026-03-29T16:18:18Z</time></trkpt><trkpt lat="38.16814635393698" lon="13.109157533291315"><ele>57.666666666666664</ele><time>2026-03-29T16:18:19Z</time></trkpt><trkpt lat="38.16801840785144" lon="13.109056357465143"><ele>58.0</ele><time>2026-03-29T16:18:20Z</time></trkpt><trkpt lat="38.16788691395352" lon="13.108949588681778"><ele>56.666666666666664</ele><time>2026-03-29T16:18:21Z</time></trkpt><trkpt lat="38.16775522093184" lon="13.108841512419744"><ele>55.33333333333333</ele><time>2026-03-29T16:18:22Z</time></trkpt><trkpt lat="38.16762427511492" lon="13.10873482207383"><ele>54.0</ele><time>2026-03-29T16:18:23Z</time></trkpt><trkpt lat="38.16749465082111" lon="13.108625302138433"><ele>54.0</ele><time>2026-03-29T16:18:24Z</time></trkpt><trkpt lat="38.167367083764375" lon="13.108516954967161"><ele>54.0</ele><time>2026-03-29T16:18:25Z</time></trkpt><trkpt lat="38.16723061509984" lon="13.108397372304681"><ele>54.0</ele><time>2026-03-29T16:18:26Z</time></trkpt><trkpt lat="38.1670914938314" lon="13.10828057534066"><ele>54.0</ele><time>2026-03-29T16:18:27Z</time></trkpt><trkpt lat="38.1669537862943" lon="13.108172398275329"><ele>54.0</ele><time>2026-03-29T16:18:28Z</time></trkpt><trkpt lat="38.16682640980163" lon="13.108070019946524"><ele>54.0</ele><time>2026-03-29T16:18:29Z</time></trkpt><trkpt lat="38.166694011316494" lon="13.107958111988152"><ele>54.0</ele><time>2026-03-29T16:18:30Z</time></trkpt><trkpt lat="38.16656264947521" lon="13.1078459025556"><ele>54.0</ele><time>2026-03-29T16:18:31Z</time></trkpt><trkpt lat="38.166436536582694" lon="13.107741530148205"><ele>54.0</ele><time>2026-03-29T16:18:32Z</time></trkpt><trkpt lat="38.16631399422152" lon="13.107639603783849"><ele>54.25</ele><time>2026-03-29T16:18:33Z</time></trkpt><trkpt lat="38.16619075728148" lon="13.107538025557968"><ele>54.5</ele><time>2026-03-29T16:18:34Z</time></trkpt><trkpt lat="38.16606510671331" lon="13.107440978582998"><ele>54.75</ele><time>2026-03-29T16:18:35Z</time></trkpt><trkpt lat="38.16594412502887" lon="13.107353524889481"><ele>55.0</ele><time>2026-03-29T16:18:36Z</time></trkpt><trkpt lat="38.1658244126676" lon="13.107257536691334"><ele>55.25</ele><time>2026-03-29T16:18:37Z</time></trkpt><trkpt lat="38.16570442629472" lon="13.107165344502569"><ele>55.5</ele><time>2026-03-29T16:18:38Z</time></trkpt><trkpt lat="38.16559236346448" lon="13.107064484855375"><ele>55.75</ele><time>2026-03-29T16:18:39Z</time></trkpt><trkpt lat="38.165484335425845" lon="13.106960213978091"><ele>56.0</ele><time>2026-03-29T16:18:40Z</time></trkpt><trkpt lat="38.16538447473407" lon="13.106857095027113"><ele>56.0</ele><time>2026-03-29T16:18:41Z</time></trkpt><trkpt lat="38.16528963271863" lon="13.106754283212062"><ele>56.0</ele><time>2026-03-29T16:18:42Z</time></trkpt><trkpt lat="38.165201799423954" lon="13.106651971180291"><ele>56.0</ele><time>2026-03-29T16:18:43Z</time></trkpt><trkpt lat="38.16511095961957" lon="13.106549128983415"><ele>56.0</ele><time>2026-03-29T16:18:44Z</time></trkpt><trkpt lat="38.16502551014319" lon="13.106447617954688"><ele>55.75</ele><time>2026-03-29T16:18:45Z</time></trkpt><trkpt lat="38.164943741922585" lon="13.10635168930871"><ele>55.5</ele><time>2026-03-29T16:18:46Z</time></trkpt><trkpt lat="38.16485935732788" lon="13.106253202014086"><ele>55.25</ele><time>2026-03-29T16:18:47Z</time></trkpt><trkpt lat="38.164775346100576" lon="13.106150888703912"><ele>55.0</ele><time>2026-03-29T16:18:48Z</time></trkpt><trkpt lat="38.16470533970606" lon="13.106025807905855"><ele>55.0</ele><time>2026-03-29T16:18:49Z</time></trkpt><trkpt lat="38.164608490301454" lon="13.105936713694838"><ele>55.0</ele><time>2026-03-29T16:18:50Z</time></trkpt><trkpt lat="38.164525941066756" lon="13.105833751007445"><ele>55.0</ele><time>2026-03-29T16:18:51Z</time></trkpt><trkpt lat="38.16444111741448" lon="13.105731786859891"><ele>55.0</ele><time>2026-03-29T16:18:52Z</time></trkpt><trkpt lat="38.16435140431993" lon="13.105635921904396"><ele>55.0</ele><time>2026-03-29T16:18:53Z</time></trkpt><trkpt lat="38.16426814301437" lon="13.105534299390394"><ele>55.0</ele><time>2026-03-29T16:18:54Z</time></trkpt><trkpt lat="38.164216413985024" lon="13.105414112162087"><ele>55.0</ele><time>2026-03-29T16:18:55Z</time></trkpt><trkpt lat="38.16414389650172" lon="13.105323647654414"><ele>55.0</ele><time>2026-03-29T16:18:56Z</time></trkpt><trkpt lat="38.16407093211785" lon="13.105232625638076"><ele>55.0</ele><time>2026-03-29T16:18:57Z</time></trkpt><trkpt lat="38.164000617356564" lon="13.10514490897333"><ele>54.99999999999999</ele><time>2026-03-29T16:18:58Z</time></trkpt><trkpt lat="38.16391607417369" lon="13.105086999602808"><ele>55.0</ele><time>2026-03-29T16:18:59Z</time></trkpt><trkpt lat="38.163856006589405" lon="13.105013906580869"><ele>55.0</ele><time>2026-03-29T16:19:00Z</time></trkpt><trkpt lat="38.163799583003325" lon="13.104940364684827"><ele>55.0</ele><time>2026-03-29T16:19:01Z</time></trkpt><trkpt lat="38.16373822659168" lon="13.104872114338297"><ele>54.99999999999999</ele><time>2026-03-29T16:19:02Z</time></trkpt><trkpt lat="38.16368305560835" lon="13.104800388060466"><ele>55.0</ele><time>2026-03-29T16:19:03Z</time></trkpt><trkpt lat="38.16364020418784" lon="13.104696734848583"><ele>55.0</ele><time>2026-03-29T16:19:04Z</time></trkpt><trkpt lat="38.16357394360973" lon="13.104614580849425"><ele>55.0</ele><time>2026-03-29T16:19:05Z</time></trkpt><trkpt lat="38.16350706816411" lon="13.104531664482009"><ele>55.0</ele><time>2026-03-29T16:19:06Z</time></trkpt><trkpt lat="38.163437817702935" lon="13.104445532400575"><ele>55.0</ele><time>2026-03-29T16:19:07Z</time></trkpt><trkpt lat="38.1633685239975" lon="13.104359280853595"><ele>55.0</ele><time>2026-03-29T16:19:08Z</time></trkpt><trkpt lat="38.16329720121526" lon="13.104270503696034"><ele>55.0</ele><time>2026-03-29T16:19:09Z</time></trkpt><trkpt lat="38.16322917700586" lon="13.104185832337238"><ele>55.0</ele><time>2026-03-29T16:19:10Z</time></trkpt><trkpt lat="38.163163783668644" lon="13.104104435685793"><ele>55.0</ele><time>2026-03-29T16:19:11Z</time></trkpt><trkpt lat="38.163083625300956" lon="13.104029548067642"><ele>55.0</ele><time>2026-03-29T16:19:12Z</time></trkpt><trkpt lat="38.16300815482475" lon="13.103916970169605"><ele>55.0</ele><time>2026-03-29T16:19:13Z</time></trkpt><trkpt lat="38.16291299480827" lon="13.103792272819845"><ele>55.0</ele><time>2026-03-29T16:19:14Z</time></trkpt><trkpt lat="38.16280080490139" lon="13.103673465746917"><ele>55.0</ele><time>2026-03-29T16:19:15Z</time></trkpt><trkpt lat="38.162698045006955" lon="13.10354473882346"><ele>55.0</ele><time>2026-03-29T16:19:16Z</time></trkpt><trkpt lat="38.16259689648337" lon="13.103412961362803"><ele>55.0</ele><time>2026-03-29T16:19:17Z</time></trkpt><trkpt lat="38.162493311942505" lon="13.103277665211317"><ele>55.0</ele><time>2026-03-29T16:19:18Z</time></trkpt><trkpt lat="38.16239100112404" lon="13.103155656285097"><ele>55.0</ele><time>2026-03-29T16:19:19Z</time></trkpt><trkpt lat="38.162293775810134" lon="13.103035895822927"><ele>55.0</ele><time>2026-03-29T16:19:20Z</time></trkpt><trkpt lat="38.16220946689837" lon="13.102926336252843"><ele>55.0</ele><time>2026-03-29T16:19:21Z</time></trkpt><trkpt lat="38.16213166121243" lon="13.102831139547915"><ele>55.14285714285714</ele><time>2026-03-29T16:19:22Z</time></trkpt><trkpt lat="38.16206222901927" lon="13.102757078825158"><ele>55.285714285714285</ele><time>2026-03-29T16:19:23Z</time></trkpt><trkpt lat="38.16201978173254" lon="13.102694566924539"><ele>55.42857142857143</ele><time>2026-03-29T16:19:24Z</time></trkpt><trkpt lat="38.16196585355189" lon="13.102626563035022"><ele>55.57142857142857</ele><time>2026-03-29T16:19:26Z</time></trkpt><trkpt lat="38.16191922446163" lon="13.102562825470866"><ele>55.714285714285715</ele><time>2026-03-29T16:19:45Z</time></trkpt><trkpt lat="38.16186731064025" lon="13.102499258491717"><ele>55.857142857142854</ele><time>2026-03-29T16:19:47Z</time></trkpt><trkpt lat="38.16181116553972" lon="13.102432393530158"><ele>56.0</ele><time>2026-03-29T16:19:49Z</time></trkpt><trkpt lat="38.16174610423852" lon="13.10236393332263"><ele>56.0</ele><time>2026-03-29T16:19:51Z</time></trkpt><trkpt lat="38.161665523271914" lon="13.102285442818737"><ele>55.99999999999999</ele><time>2026-03-29T16:19:53Z</time></trkpt><trkpt lat="38.16159472947065" lon="13.102183176666568"><ele>55.99999999999999</ele><time>2026-03-29T16:19:55Z</time></trkpt><trkpt lat="38.16154873326573" lon="13.102127771288785"><ele>56.0</ele><time>2026-03-29T16:19:56Z</time></trkpt><trkpt lat="38.16150016728996" lon="13.102064379663348"><ele>56.0</ele><time>2026-03-29T16:19:57Z</time></trkpt><trkpt lat="38.16141991131402" lon="13.101969692155953"><ele>56.199999999999996</ele><time>2026-03-29T16:19:59Z</time></trkpt><trkpt lat="38.161359197990116" lon="13.101893944082745"><ele>56.39999999999999</ele><time>2026-03-29T16:20:02Z</time></trkpt><trkpt lat="38.1612944221751" lon="13.101811600831192"><ele>56.6</ele><time>2026-03-29T16:20:04Z</time></trkpt><trkpt lat="38.16120457828384" lon="13.101701277843436"><ele>56.8</ele><time>2026-03-29T16:20:06Z</time></trkpt><trkpt lat="38.16114754712816" lon="13.101637023111776"><ele>57.0</ele><time>2026-03-29T16:20:07Z</time></trkpt><trkpt lat="38.161076043421474" lon="13.101574356842681"><ele>56.2</ele><time>2026-03-29T16:20:08Z</time></trkpt><trkpt lat="38.16098849193572" lon="13.101498816125305"><ele>55.400000000000006</ele><time>2026-03-29T16:20:09Z</time></trkpt><trkpt lat="38.16090317838076" lon="13.101421675408616"><ele>54.599999999999994</ele><time>2026-03-29T16:20:10Z</time></trkpt><trkpt lat="38.1608094464426" lon="13.101351273825388"><ele>53.8</ele><time>2026-03-29T16:20:11Z</time></trkpt><trkpt lat="38.160711424105585" lon="13.101276986695819"><ele>53.0</ele><time>2026-03-29T16:20:12Z</time></trkpt><trkpt lat="38.16060385113368" lon="13.101195381495993"><ele>53.0</ele><time>2026-03-29T16:20:13Z</time></trkpt><trkpt lat="38.160493971180635" lon="13.101112016746807"><ele>53.0</ele><time>2026-03-29T16:20:14Z</time></trkpt><trkpt lat="38.16037141514033" lon="13.101037634583465"><ele>53.0</ele><time>2026-03-29T16:20:15Z</time></trkpt><trkpt lat="38.16025434097058" lon="13.100966443290451"><ele>53.0</ele><time>2026-03-29T16:20:16Z</time></trkpt><trkpt lat="38.160132979499664" lon="13.100892291950107"><ele>53.0</ele><time>2026-03-29T16:20:17Z</time></trkpt><trkpt lat="38.16002579349803" lon="13.100824022820307"><ele>53.0</ele><time>2026-03-29T16:20:18Z</time></trkpt><trkpt lat="38.15992908852636" lon="13.100760119102981"><ele>53.0</ele><time>2026-03-29T16:20:19Z</time></trkpt><trkpt lat="38.15983345905842" lon="13.10071648090211"><ele>53.0</ele><time>2026-03-29T16:20:20Z</time></trkpt><trkpt lat="38.1597615590176" lon="13.100684359834192"><ele>53.0</ele><time>2026-03-29T16:20:21Z</time></trkpt><trkpt lat="38.159693688958626" lon="13.100662657311364"><ele>53.0</ele><time>2026-03-29T16:20:22Z</time></trkpt><trkpt lat="38.159599437217594" lon="13.100612508160216"><ele>53.0</ele><time>2026-03-29T16:20:24Z</time></trkpt><trkpt lat="38.15952293902038" lon="13.100566772146355"><ele>53.0</ele><time>2026-03-29T16:20:27Z</time></trkpt><trkpt lat="38.1594006404299" lon="13.100499746865516"><ele>53.0</ele><time>2026-03-29T16:20:29Z</time></trkpt><trkpt lat="38.15932421022534" lon="13.10045530479167"><ele>53.0</ele><time>2026-03-29T16:20:30Z</time></trkpt><trkpt lat="38.15923682134408" lon="13.100403127749843"><ele>53.0</ele><time>2026-03-29T16:20:31Z</time></trkpt><trkpt lat="38.15914123807569" lon="13.100343449781615"><ele>53.0</ele><time>2026-03-29T16:20:32Z</time></trkpt><trkpt lat="38.159041291060866" lon="13.100269291407315"><ele>53.0</ele><time>2026-03-29T16:20:33Z</time></trkpt><trkpt lat="38.15893543604104" lon="13.100199265974501"><ele>53.0</ele><time>2026-03-29T16:20:34Z</time></trkpt><trkpt lat="38.1588292267578" lon="13.100128128245938"><ele>53.0</ele><time>2026-03-29T16:20:35Z</time></trkpt><trkpt lat="38.15871931169004" lon="13.100048118749571"><ele>53.0</ele><time>2026-03-29T16:20:36Z</time></trkpt><trkpt lat="38.15860577032554" lon="13.099970763145597"><ele>53.0</ele><time>2026-03-29T16:20:37Z</time></trkpt><trkpt lat="38.15849167068118" lon="13.099888296856104"><ele>53.0</ele><time>2026-03-29T16:20:38Z</time></trkpt><trkpt lat="38.15837478191607" lon="13.099801645631304"><ele>52.75</ele><time>2026-03-29T16:20:39Z</time></trkpt><trkpt lat="38.15825148629436" lon="13.099713760610111"><ele>52.5</ele><time>2026-03-29T16:20:40Z</time></trkpt><trkpt lat="38.15813054445686" lon="13.099614527730791"><ele>52.25</ele><time>2026-03-29T16:20:41Z</time></trkpt><trkpt lat="38.15800694796126" lon="13.099515017844258"><ele>52.0</ele><time>2026-03-29T16:20:42Z</time></trkpt><trkpt lat="38.157885597749114" lon="13.09940858731178"><ele>52.666666666666664</ele><time>2026-03-29T16:20:43Z</time></trkpt><trkpt lat="38.15776037957336" lon="13.099297549491636"><ele>53.33333333333333</ele><time>2026-03-29T16:20:44Z</time></trkpt><trkpt lat="38.157634834516365" lon="13.099190407949187"><ele>54.0</ele><time>2026-03-29T16:20:45Z</time></trkpt><trkpt lat="38.15750935036486" lon="13.099084279879214"><ele>53.0</ele><time>2026-03-29T16:20:46Z</time></trkpt><trkpt lat="38.157381355107205" lon="13.098972149537172"><ele>52.0</ele><time>2026-03-29T16:20:47Z</time></trkpt><trkpt lat="38.15725123852337" lon="13.098850104955453"><ele>51.0</ele><time>2026-03-29T16:20:48Z</time></trkpt><trkpt lat="38.15712212302619" lon="13.098734558542919"><ele>51.0</ele><time>2026-03-29T16:20:49Z</time></trkpt><trkpt lat="38.15699084153572" lon="13.09861533851654"><ele>51.0</ele><time>2026-03-29T16:20:50Z</time></trkpt><trkpt lat="38.15685756158428" lon="13.098499055100518"><ele>51.0</ele><time>2026-03-29T16:20:51Z</time></trkpt><trkpt lat="38.156728905253495" lon="13.098382422502615"><ele>51.0</ele><time>2026-03-29T16:20:52Z</time></trkpt><trkpt lat="38.1565955505614" lon="13.098266960089596"><ele>51.0</ele><time>2026-03-29T16:20:53Z</time></trkpt><trkpt lat="38.156464717972064" lon="13.098152866480802"><ele>51.0</ele><time>2026-03-29T16:20:54Z</time></trkpt><trkpt lat="38.156331151965446" lon="13.098042037530538"><ele>51.0</ele><time>2026-03-29T16:20:55Z</time></trkpt><trkpt lat="38.15619689950893" lon="13.097931987684271"><ele>51.0</ele><time>2026-03-29T16:20:56Z</time></trkpt><trkpt lat="38.156062981517906" lon="13.097818361267555"><ele>51.0</ele><time>2026-03-29T16:20:57Z</time></trkpt><trkpt lat="38.15592777342882" lon="13.097711468629203"><ele>51.0</ele><time>2026-03-29T16:20:58Z</time></trkpt><trkpt lat="38.1557981794857" lon="13.097602950592526"><ele>51.0</ele><time>2026-03-29T16:20:59Z</time></trkpt><trkpt lat="38.15567082802301" lon="13.097494477967365"><ele>51.0</ele><time>2026-03-29T16:21:00Z</time></trkpt><trkpt lat="38.15554303038117" lon="13.097382671480986"><ele>50.75</ele><time>2026-03-29T16:21:01Z</time></trkpt><trkpt lat="38.155417221473655" lon="13.097270491423782"><ele>50.5</ele><time>2026-03-29T16:21:02Z</time></trkpt><trkpt lat="38.15529183345571" lon="13.097170892003644"><ele>50.25</ele><time>2026-03-29T16:21:03Z</time></trkpt><trkpt lat="38.1551687952958" lon="13.09707708384196"><ele>50.0</ele><time>2026-03-29T16:21:04Z</time></trkpt><trkpt lat="38.155042861884304" lon="13.096995429532491"><ele>50.0</ele><time>2026-03-29T16:21:05Z</time></trkpt><trkpt lat="38.15490899692744" lon="13.09692653804896"><ele>50.0</ele><time>2026-03-29T16:21:06Z</time></trkpt><trkpt lat="38.15477721374269" lon="13.096871725972015"><ele>50.0</ele><time>2026-03-29T16:21:07Z</time></trkpt><trkpt lat="38.15464588319361" lon="13.096819772338076"><ele>50.0</ele><time>2026-03-29T16:21:08Z</time></trkpt><trkpt lat="38.154516274554005" lon="13.096770471150393"><ele>50.25</ele><time>2026-03-29T16:21:09Z</time></trkpt><trkpt lat="38.15439070722953" lon="13.096721974195455"><ele>50.5</ele><time>2026-03-29T16:21:10Z</time></trkpt><trkpt lat="38.15426848031651" lon="13.09667841837668"><ele>50.75</ele><time>2026-03-29T16:21:11Z</time></trkpt><trkpt lat="38.154151295642414" lon="13.096631013537932"><ele>51.0</ele><time>2026-03-29T16:21:12Z</time></trkpt><trkpt lat="38.15404884176718" lon="13.09658478868081"><ele>51.166666666666664</ele><time>2026-03-29T16:21:13Z</time></trkpt><trkpt lat="38.15396471348027" lon="13.096543792414078"><ele>51.33333333333333</ele><time>2026-03-29T16:21:14Z</time></trkpt><trkpt lat="38.15389614141967" lon="13.09651293605903"><ele>51.5</ele><time>2026-03-29T16:21:15Z</time></trkpt><trkpt lat="38.153844042274685" lon="13.096435395644049"><ele>51.666666666666664</ele><time>2026-03-29T16:21:16Z</time></trkpt><trkpt lat="38.153791703515736" lon="13.096385188282339"><ele>51.83333333333333</ele><time>2026-03-29T16:21:17Z</time></trkpt><trkpt lat="38.15372535348112" lon="13.096291457766549"><ele>52.0</ele><time>2026-03-29T16:21:19Z</time></trkpt><trkpt lat="38.153672012415306" lon="13.096172031085816"><ele>52.0</ele><time>2026-03-29T16:21:21Z</time></trkpt><trkpt lat="38.153608618804384" lon="13.096029690574303"><ele>52.0</ele><time>2026-03-29T16:21:23Z</time></trkpt><trkpt lat="38.1535755512631" lon="13.095941077626206"><ele>52.0</ele><time>2026-03-29T16:21:24Z</time></trkpt><trkpt lat="38.15353579566784" lon="13.095841587335201"><ele>52.0</ele><time>2026-03-29T16:21:25Z</time></trkpt><trkpt lat="38.15349985934356" lon="13.095745514624921"><ele>52.0</ele><time>2026-03-29T16:21:26Z</time></trkpt><trkpt lat="38.1534550654501" lon="13.09560605714578"><ele>51.6</ele><time>2026-03-29T16:21:27Z</time></trkpt><trkpt lat="38.153416870392526" lon="13.095478559703567"><ele>51.2</ele><time>2026-03-29T16:21:28Z</time></trkpt><trkpt lat="38.15338413959839" lon="13.095362191766434"><ele>50.8</ele><time>2026-03-29T16:21:29Z</time></trkpt><trkpt lat="38.15334132870482" lon="13.09524785142604"><ele>50.4</ele><time>2026-03-29T16:21:30Z</time></trkpt><trkpt lat="38.15332174563812" lon="13.095123532910037"><ele>50.0</ele><time>2026-03-29T16:21:31Z</time></trkpt><trkpt lat="38.15329537974537" lon="13.094994896133377"><ele>50.0</ele><time>2026-03-29T16:21:32Z</time></trkpt><trkpt lat="38.15327429328663" lon="13.0948640494113"><ele>50.0</ele><time>2026-03-29T16:21:33Z</time></trkpt><trkpt lat="38.15325391395003" lon="13.09473732633248"><ele>50.0</ele><time>2026-03-29T16:21:34Z</time></trkpt><trkpt lat="38.15323006923427" lon="13.094593666211258"><ele>50.0</ele><time>2026-03-29T16:21:35Z</time></trkpt><trkpt lat="38.15320986114549" lon="13.09445732396609"><ele>50.0</ele><time>2026-03-29T16:21:36Z</time></trkpt><trkpt lat="38.15318695773801" lon="13.094318575777244"><ele>50.25</ele><time>2026-03-29T16:21:37Z</time></trkpt><trkpt lat="38.153163875165035" lon="13.09418054648213"><ele>50.5</ele><time>2026-03-29T16:21:38Z</time></trkpt><trkpt lat="38.153143929700526" lon="13.094038625021447"><ele>50.75</ele><time>2026-03-29T16:21:39Z</time></trkpt><trkpt lat="38.15312550309271" lon="13.093893660862914"><ele>51.0</ele><time>2026-03-29T16:21:40Z</time></trkpt><trkpt lat="38.153105435278206" lon="13.093744760613044"><ele>51.0</ele><time>2026-03-29T16:21:41Z</time></trkpt><trkpt lat="38.153088652267755" lon="13.09359254466596"><ele>51.0</ele><time>2026-03-29T16:21:42Z</time></trkpt><trkpt lat="38.15307371082219" lon="13.0934428886799"><ele>51.0</ele><time>2026-03-29T16:21:43Z</time></trkpt><trkpt lat="38.15306239137394" lon="13.093288540158532"><ele>51.0</ele><time>2026-03-29T16:21:44Z</time></trkpt><trkpt lat="38.15305333408214" lon="13.093130862139503"><ele>50.25</ele><time>2026-03-29T16:21:45Z</time></trkpt><trkpt lat="38.15304436132785" lon="13.092970056029218"><ele>49.5</ele><time>2026-03-29T16:21:46Z</time></trkpt><trkpt lat="38.153040655229276" lon="13.092809506203801"><ele>48.75</ele><time>2026-03-29T16:21:47Z</time></trkpt><trkpt lat="38.15303541106193" lon="13.092648025041711"><ele>48.0</ele><time>2026-03-29T16:21:48Z</time></trkpt><trkpt lat="38.15303112105679" lon="13.092485400300205"><ele>47.5</ele><time>2026-03-29T16:21:49Z</time></trkpt><trkpt lat="38.1530306910923" lon="13.092318388657619"><ele>47.0</ele><time>2026-03-29T16:21:50Z</time></trkpt><trkpt lat="38.15303359202228" lon="13.092152006529638"><ele>46.5</ele><time>2026-03-29T16:21:51Z</time></trkpt><trkpt lat="38.153041323750045" lon="13.091984185040797"><ele>46.0</ele><time>2026-03-29T16:21:52Z</time></trkpt><trkpt lat="38.15305104712234" lon="13.091820656414916"><ele>46.0</ele><time>2026-03-29T16:21:53Z</time></trkpt><trkpt lat="38.15306629137268" lon="13.091654155061978"><ele>46.0</ele><time>2026-03-29T16:21:54Z</time></trkpt><trkpt lat="38.15306945838857" lon="13.091491706722655"><ele>46.0</ele><time>2026-03-29T16:21:55Z</time></trkpt><trkpt lat="38.153083786507835" lon="13.091329954097727"><ele>46.0</ele><time>2026-03-29T16:21:56Z</time></trkpt><trkpt lat="38.15309565503045" lon="13.091174459964357"><ele>46.0</ele><time>2026-03-29T16:21:57Z</time></trkpt><trkpt lat="38.153111642657464" lon="13.091023800898741"><ele>46.0</ele><time>2026-03-29T16:21:58Z</time></trkpt><trkpt lat="38.1531229303993" lon="13.090872391792253"><ele>46.0</ele><time>2026-03-29T16:21:59Z</time></trkpt><trkpt lat="38.1531350966001" lon="13.090717871954372"><ele>46.0</ele><time>2026-03-29T16:22:00Z</time></trkpt><trkpt lat="38.153152514385795" lon="13.090567678239832"><ele>46.0</ele><time>2026-03-29T16:22:01Z</time></trkpt><trkpt lat="38.15316654180912" lon="13.090422445561716"><ele>46.0</ele><time>2026-03-29T16:22:02Z</time></trkpt><trkpt lat="38.15318184139018" lon="13.090277635462726"><ele>46.0</ele><time>2026-03-29T16:22:03Z</time></trkpt><trkpt lat="38.153200804067865" lon="13.090128858131665"><ele>46.0</ele><time>2026-03-29T16:22:04Z</time></trkpt><trkpt lat="38.15321573369903" lon="13.089982216373254"><ele>45.5</ele><time>2026-03-29T16:22:05Z</time></trkpt><trkpt lat="38.15322932744173" lon="13.089841827965845"><ele>45.0</ele><time>2026-03-29T16:22:06Z</time></trkpt><trkpt lat="38.15324429372893" lon="13.089709400035881"><ele>44.5</ele><time>2026-03-29T16:22:07Z</time></trkpt><trkpt lat="38.15325820185678" lon="13.089593473286165"><ele>44.0</ele><time>2026-03-29T16:22:08Z</time></trkpt><trkpt lat="38.153267802232754" lon="13.08950207114002"><ele>43.5</ele><time>2026-03-29T16:22:09Z</time></trkpt><trkpt lat="38.153271215256545" lon="13.089418707916197"><ele>43.0</ele><time>2026-03-29T16:22:10Z</time></trkpt><trkpt lat="38.15327442364245" lon="13.089329773934518"><ele>43.0</ele><time>2026-03-29T16:22:11Z</time></trkpt><trkpt lat="38.153291442112604" lon="13.089235932742746"><ele>43.0</ele><time>2026-03-29T16:22:12Z</time></trkpt><trkpt lat="38.15330889298956" lon="13.089126201113638"><ele>43.0</ele><time>2026-03-29T16:22:13Z</time></trkpt><trkpt lat="38.153317458702055" lon="13.089007066308907"><ele>43.0</ele><time>2026-03-29T16:22:14Z</time></trkpt><trkpt lat="38.1533279085524" lon="13.0888839284516"><ele>43.0</ele><time>2026-03-29T16:22:15Z</time></trkpt><trkpt lat="38.15333756958317" lon="13.088761924877737"><ele>43.2</ele><time>2026-03-29T16:22:16Z</time></trkpt><trkpt lat="38.15333980267916" lon="13.088634448423065"><ele>43.4</ele><time>2026-03-29T16:22:17Z</time></trkpt><trkpt lat="38.15333893069677" lon="13.088504566653338"><ele>43.6</ele><time>2026-03-29T16:22:18Z</time></trkpt><trkpt lat="38.1533226077285" lon="13.08839318692413"><ele>43.800000000000004</ele><time>2026-03-29T16:22:19Z</time></trkpt><trkpt lat="38.15328921004785" lon="13.08827489855751"><ele>44.0</ele><time>2026-03-29T16:22:20Z</time></trkpt><trkpt lat="38.15326185365112" lon="13.088139801853817"><ele>44.0</ele><time>2026-03-29T16:22:21Z</time></trkpt><trkpt lat="38.15321180088514" lon="13.088018549340488"><ele>44.0</ele><time>2026-03-29T16:22:22Z</time></trkpt><trkpt lat="38.1531720794862" lon="13.087897605698481"><ele>44.0</ele><time>2026-03-29T16:22:23Z</time></trkpt><trkpt lat="38.153132935669355" lon="13.087773720937678"><ele>44.0</ele><time>2026-03-29T16:22:24Z</time></trkpt><trkpt lat="38.15308244842287" lon="13.087648280184332"><ele>44.0</ele><time>2026-03-29T16:22:25Z</time></trkpt><trkpt lat="38.15304849534338" lon="13.087510391955231"><ele>43.6</ele><time>2026-03-29T16:22:26Z</time></trkpt><trkpt lat="38.15300020550937" lon="13.08738747148097"><ele>43.2</ele><time>2026-03-29T16:22:27Z</time></trkpt><trkpt lat="38.15295158878512" lon="13.08726711685793"><ele>42.800000000000004</ele><time>2026-03-29T16:22:28Z</time></trkpt><trkpt lat="38.15290318758026" lon="13.087142132630847"><ele>42.400000000000006</ele><time>2026-03-29T16:22:29Z</time></trkpt><trkpt lat="38.15286202851622" lon="13.087030845454835"><ele>42.0</ele><time>2026-03-29T16:22:30Z</time></trkpt><trkpt lat="38.15282010030053" lon="13.086903468276775"><ele>42.0</ele><time>2026-03-29T16:22:31Z</time></trkpt><trkpt lat="38.15277171750147" lon="13.086777473125046"><ele>42.0</ele><time>2026-03-29T16:22:32Z</time></trkpt><trkpt lat="38.15272565711352" lon="13.08665292282292"><ele>42.0</ele><time>2026-03-29T16:22:33Z</time></trkpt><trkpt lat="38.15268022175178" lon="13.08654373785704"><ele>42.0</ele><time>2026-03-29T16:22:34Z</time></trkpt><trkpt lat="38.152637195728374" lon="13.086448404997691"><ele>42.0</ele><time>2026-03-29T16:22:35Z</time></trkpt><trkpt lat="38.152605771187794" lon="13.086316860044876"><ele>42.0</ele><time>2026-03-29T16:22:36Z</time></trkpt><trkpt lat="38.15256997981834" lon="13.086207629912526"><ele>42.0</ele><time>2026-03-29T16:22:37Z</time></trkpt><trkpt lat="38.152534441474906" lon="13.086093643597762"><ele>42.0</ele><time>2026-03-29T16:22:38Z</time></trkpt><trkpt lat="38.1524997737971" lon="13.085984334825064"><ele>42.0</ele><time>2026-03-29T16:22:39Z</time></trkpt><trkpt lat="38.152460286299934" lon="13.085865080348164"><ele>42.0</ele><time>2026-03-29T16:22:40Z</time></trkpt><trkpt lat="38.1524222453399" lon="13.085753140623126"><ele>42.0</ele><time>2026-03-29T16:22:41Z</time></trkpt><trkpt lat="38.15238850626951" lon="13.085647685470676"><ele>42.0</ele><time>2026-03-29T16:22:42Z</time></trkpt><trkpt lat="38.15234644339127" lon="13.085545668132873"><ele>42.0</ele><time>2026-03-29T16:22:43Z</time></trkpt><trkpt lat="38.1523088806039" lon="13.08543074924824"><ele>42.0</ele><time>2026-03-29T16:22:44Z</time></trkpt><trkpt lat="38.152257746400736" lon="13.085340638037302"><ele>42.0</ele><time>2026-03-29T16:22:45Z</time></trkpt><trkpt lat="38.15222016822359" lon="13.085243910880612"><ele>42.0</ele><time>2026-03-29T16:22:46Z</time></trkpt><trkpt lat="38.15218299009118" lon="13.085135432048386"><ele>42.0</ele><time>2026-03-29T16:22:47Z</time></trkpt><trkpt lat="38.152149686163916" lon="13.085041752850385"><ele>42.0</ele><time>2026-03-29T16:22:48Z</time></trkpt><trkpt lat="38.15211714964619" lon="13.084955863276514"><ele>42.0</ele><time>2026-03-29T16:22:49Z</time></trkpt><trkpt lat="38.152080104803574" lon="13.084861335191666"><ele>42.0</ele><time>2026-03-29T16:22:50Z</time></trkpt><trkpt lat="38.15204366447166" lon="13.084771909632076"><ele>42.0</ele><time>2026-03-29T16:22:51Z</time></trkpt><trkpt lat="38.15199735843847" lon="13.084631291411837"><ele>41.8</ele><time>2026-03-29T16:22:53Z</time></trkpt><trkpt lat="38.151936884516424" lon="13.084508052322285"><ele>41.6</ele><time>2026-03-29T16:22:55Z</time></trkpt><trkpt lat="38.15191783261793" lon="13.0843904366368"><ele>41.4</ele><time>2026-03-29T16:22:57Z</time></trkpt><trkpt lat="38.15188883940063" lon="13.084275114192607"><ele>41.199999999999996</ele><time>2026-03-29T16:22:59Z</time></trkpt><trkpt lat="38.15183417917853" lon="13.084196845855132"><ele>41.0</ele><time>2026-03-29T16:23:01Z</time></trkpt><trkpt lat="38.15179288312835" lon="13.0842810669502"><ele>41.0</ele><time>2026-03-29T16:23:04Z</time></trkpt><trkpt lat="38.15172634638493" lon="13.084316514430688"><ele>41.0</ele><time>2026-03-29T16:23:06Z</time></trkpt><trkpt lat="38.151625662706124" lon="13.084370153663057"><ele>41.0</ele><time>2026-03-29T16:23:08Z</time></trkpt><trkpt lat="38.151525758316176" lon="13.084423377740643"><ele>41.0</ele><time>2026-03-29T16:23:10Z</time></trkpt><trkpt lat="38.15144601523793" lon="13.084458466446266"><ele>41.0</ele><time>2026-03-29T16:23:12Z</time></trkpt><trkpt lat="38.151384002232724" lon="13.084485383298668"><ele>41.0</ele><time>2026-03-29T16:23:18Z</time></trkpt><trkpt lat="38.151328685063184" lon="13.084533425153811"><ele>41.199999999999996</ele><time>2026-03-29T16:23:31Z</time></trkpt><trkpt lat="38.15126360473871" lon="13.084377207411155"><ele>41.4</ele><time>2026-03-29T16:23:34Z</time></trkpt><trkpt lat="38.15124517988617" lon="13.08427177138011"><ele>41.6</ele><time>2026-03-29T16:23:37Z</time></trkpt><trkpt lat="38.15123954872904" lon="13.084174215112913"><ele>41.8</ele><time>2026-03-29T16:23:39Z</time></trkpt><trkpt lat="38.15120793128799" lon="13.084089802087613"><ele>42.0</ele><time>2026-03-29T16:23:41Z</time></trkpt><trkpt lat="38.15118250947156" lon="13.083994143740295"><ele>42.0</ele><time>2026-03-29T16:23:45Z</time></trkpt><trkpt lat="38.15108358385386" lon="13.084011063138188"><ele>42.0</ele><time>2026-03-29T16:23:48Z</time></trkpt><trkpt lat="38.15101563070663" lon="13.084045537421368"><ele>42.0</ele><time>2026-03-29T16:23:50Z</time></trkpt><trkpt lat="38.15094195557951" lon="13.084082914554365"><ele>42.0</ele><time>2026-03-29T16:23:52Z</time></trkpt><trkpt lat="38.15083834375963" lon="13.084152979692698"><ele>42.0</ele><time>2026-03-29T16:23:54Z</time></trkpt><trkpt lat="38.15077009244651" lon="13.084187513223469"><ele>42.0</ele><time>2026-03-29T16:23:55Z</time></trkpt><trkpt lat="38.15069365234281" lon="13.084227400191287"><ele>42.333333333333336</ele><time>2026-03-29T16:23:56Z</time></trkpt><trkpt lat="38.15061952921946" lon="13.084252318073188"><ele>42.666666666666664</ele><time>2026-03-29T16:23:57Z</time></trkpt><trkpt lat="38.15054627374755" lon="13.084286628422012"><ele>43.0</ele><time>2026-03-29T16:23:58Z</time></trkpt><trkpt lat="38.150475574741066" lon="13.08432368788756"><ele>43.33333333333333</ele><time>2026-03-29T16:23:59Z</time></trkpt><trkpt lat="38.150413185422366" lon="13.084356595918267"><ele>43.666666666666664</ele><time>2026-03-29T16:24:00Z</time></trkpt><trkpt lat="38.150329545232374" lon="13.084405692088486"><ele>44.0</ele><time>2026-03-29T16:24:02Z</time></trkpt><trkpt lat="38.15027209909399" lon="13.084533714031888"><ele>44.0</ele><time>2026-03-29T16:24:05Z</time></trkpt><trkpt lat="38.150310051625766" lon="13.084637632769224"><ele>44.0</ele><time>2026-03-29T16:24:07Z</time></trkpt><trkpt lat="38.15033757136838" lon="13.084713777910654"><ele>44.0</ele><time>2026-03-29T16:24:09Z</time></trkpt><trkpt lat="38.150357223664685" lon="13.084792543561871"><ele>44.0</ele><time>2026-03-29T16:24:11Z</time></trkpt><trkpt lat="38.15041140539462" lon="13.084853959498929"><ele>44.0</ele><time>2026-03-29T16:24:14Z</time></trkpt><trkpt lat="38.150435330827385" lon="13.084766396834816"><ele>44.0</ele><time>2026-03-29T16:24:16Z</time></trkpt><trkpt lat="38.15049194279603" lon="13.084730365619995"><ele>44.0</ele><time>2026-03-29T16:24:29Z</time></trkpt><trkpt lat="38.15055520977081" lon="13.084688131339599"><ele>44.0</ele><time>2026-03-29T16:24:45Z</time></trkpt><trkpt lat="38.1504877047472" lon="13.084704181985114"><ele>44.0</ele><time>2026-03-29T16:24:55Z</time></trkpt><trkpt lat="38.15042858804971" lon="13.084756990021308"><ele>44.0</ele><time>2026-03-29T16:26:27Z</time></trkpt><trkpt lat="38.15052015343692" lon="13.084866270082909"><ele>44.0</ele><time>2026-03-29T16:26:38Z</time></trkpt><trkpt lat="38.15054106259522" lon="13.084960412604794"><ele>44.0</ele><time>2026-03-29T16:26:40Z</time></trkpt><trkpt lat="38.150598751609834" lon="13.085002496566224"><ele>44.0</ele><time>2026-03-29T16:26:44Z</time></trkpt><trkpt lat="38.15072683293385" lon="13.085250810597243"><ele>43.666666666666664</ele><time>2026-03-29T16:26:48Z</time></trkpt><trkpt lat="38.15074512506054" lon="13.085350039189704"><ele>43.333333333333336</ele><time>2026-03-29T16:26:49Z</time></trkpt><trkpt lat="38.15077132064492" lon="13.085454294774417"><ele>43.0</ele><time>2026-03-29T16:26:52.064Z</time></trkpt><trkpt lat="38.151284828206805" lon="13.084936693373853"><ele>42.5</ele><time>2026-03-29T16:27:09.4Z</time></trkpt><trkpt lat="38.15139028273279" lon="13.084799329671918"><ele>42.0</ele><time>2026-03-29T16:27:15.4Z</time></trkpt><trkpt lat="38.151857082238564" lon="13.084561245069228"><ele>41.5</ele><time>2026-03-29T16:27:21.369Z</time></trkpt><trkpt lat="38.152033002335564" lon="13.084423059389495"><ele>41.0</ele><time>2026-03-29T16:27:44.361Z</time></trkpt><trkpt lat="38.15199404437769" lon="13.084072176524742"><ele>36.0</ele><time>2026-03-29T16:27:50.358Z</time></trkpt><trkpt lat="38.15259588983467" lon="13.08391585840752"><ele>36.0</ele><time>2026-03-29T16:27:56.356Z</time></trkpt><trkpt lat="38.15267440286493" lon="13.083888809728105"><ele>36.0</ele><time>2026-03-29T16:28:02.358Z</time></trkpt><trkpt lat="38.15269757743751" lon="13.083801577080946"><ele>36.0</ele><time>2026-03-29T16:28:08.367Z</time></trkpt><trkpt lat="38.15322504791086" lon="13.083544845200645"><ele>33.0</ele><time>2026-03-29T16:28:12.564Z</time></trkpt><trkpt lat="38.153474426283616" lon="13.083099556768365"><ele>30.0</ele><time>2026-03-29T16:28:18.365Z</time></trkpt><trkpt lat="38.153660909067526" lon="13.083005382858552"><ele>30.0</ele><time>2026-03-29T16:28:30.364Z</time></trkpt><trkpt lat="38.15388673903731" lon="13.083118822686941"><ele>30.0</ele><time>2026-03-29T16:28:36.36Z</time></trkpt><trkpt lat="38.153541295013746" lon="13.083085025495475"><ele>29.0</ele><time>2026-03-29T16:28:42.355Z</time></trkpt><trkpt lat="38.15415100380131" lon="13.083111977247992"><ele>29.0</ele><time>2026-03-29T16:29:08.356Z</time></trkpt><trkpt lat="38.15439554621273" lon="13.082881799453162"><ele>29.0</ele><time>2026-03-29T16:29:27.358Z</time></trkpt><trkpt lat="38.154625918392526" lon="13.082812223686842"><ele>29.0</ele><time>2026-03-29T16:29:33.23Z</time></trkpt><trkpt lat="38.15475976112565" lon="13.082945327724193"><ele>29.0</ele><time>2026-03-29T16:29:39.358Z</time></trkpt><trkpt lat="38.15539398972773" lon="13.083020291096295"><ele>24.0</ele><time>2026-03-29T16:29:51.356Z</time></trkpt><trkpt lat="38.15603755632635" lon="13.08289803781911"><ele>24.0</ele><time>2026-03-29T16:30:03.354Z</time></trkpt><trkpt lat="38.156200217570024" lon="13.083027584390626"><ele>24.0</ele><time>2026-03-29T16:30:09.353Z</time></trkpt><trkpt lat="38.15650111896523" lon="13.083105776851943"><ele>2.0</ele><time>2026-03-29T16:30:17.461Z</time></trkpt><trkpt lat="38.158386266410254" lon="13.08346492821447"><ele>4.0</ele><time>2026-03-29T16:30:46.349Z</time></trkpt><trkpt lat="38.15964265903981" lon="13.084375634933982"><ele>6.0</ele><time>2026-03-29T16:31:07.177Z</time></trkpt><trkpt lat="38.16040423342736" lon="13.085292385133574"><ele>13.0</ele><time>2026-03-29T16:31:49.125Z</time></trkpt><trkpt lat="38.16089095960434" lon="13.086554806374327"><ele>31.0</ele><time>2026-03-29T16:34:03.179Z</time></trkpt><trkpt lat="38.168074757361865" lon="13.096663499554909"><ele>31.0</ele><time>2026-03-29T16:36:24.604Z</time></trkpt><trkpt lat="38.16813058557274" lon="13.096740806410773"><ele>31.0</ele><time>2026-03-29T16:36:25.722Z</time></trkpt><trkpt lat="38.17079587455971" lon="13.101269433182965"><ele>38.0</ele><time>2026-03-29T16:37:15.491Z</time></trkpt><trkpt lat="38.17151504917061" lon="13.102317797934129"><ele>31.0</ele><time>2026-03-29T16:37:30.427Z</time></trkpt><trkpt lat="38.17624075425957" lon="13.103981774454233"><ele>31.0</ele><time>2026-03-29T16:38:41.385Z</time></trkpt><trkpt lat="38.17695775867295" lon="13.104465915150941"><ele>22.0</ele><time>2026-03-29T16:38:48.847Z</time></trkpt><trkpt lat="38.18305238752392" lon="13.121026333283517"><ele>16.0</ele><time>2026-03-29T16:41:21.935Z</time></trkpt><trkpt lat="38.18076279614679" lon="13.150123197297145"><ele>16.0</ele><time>2026-03-29T16:45:58.248Z</time></trkpt><trkpt lat="38.180664763229046" lon="13.150382071828343"><ele>16.0</ele><time>2026-03-29T16:46:04.6Z</time></trkpt><trkpt lat="38.18062247740607" lon="13.150493739757284"><ele>16.0</ele><time>2026-03-29T16:46:05.719Z</time></trkpt><trkpt lat="38.180293313304254" lon="13.151647174855972"><ele>16.0</ele><time>2026-03-29T16:46:12.069Z</time></trkpt><trkpt lat="38.18054418296485" lon="13.15536507591846"><ele>16.0</ele><time>2026-03-29T16:47:22.079Z</time></trkpt><trkpt lat="38.18073534813505" lon="13.155474223622921"><ele>16.0</ele><time>2026-03-29T16:48:03.39Z</time></trkpt><trkpt lat="38.18054509247417" lon="13.155341800009952"><ele>16.0</ele><time>2026-03-29T16:48:27.353Z</time></trkpt><trkpt lat="38.18073756961938" lon="13.155477235419864"><ele>16.0</ele><time>2026-03-29T16:48:55.353Z</time></trkpt><trkpt lat="38.1807524861774" lon="13.155316417275623"><ele>16.0</ele><time>2026-03-29T16:50:05.297Z</time></trkpt><trkpt lat="38.180755544929" lon="13.155234146607556"><ele>16.0</ele><time>2026-03-29T16:50:12.86Z</time></trkpt><trkpt lat="38.180202498058414" lon="13.155027387363722"><ele>15.0</ele><time>2026-03-29T16:50:20.9Z</time></trkpt><trkpt lat="38.180744626900896" lon="13.155238726489591"><ele>15.0</ele><time>2026-03-29T16:50:39.195Z</time></trkpt><trkpt lat="38.18074715895008" lon="13.155320232999392"><ele>15.0</ele><time>2026-03-29T16:50:43.589Z</time></trkpt><trkpt lat="38.180835518877565" lon="13.155250200075804"><ele>15.0</ele><time>2026-03-29T16:50:50.01Z</time></trkpt><trkpt lat="38.18092663423719" lon="13.15506930856437"><ele>15.0</ele><time>2026-03-29T16:55:09.01Z</time></trkpt><trkpt lat="38.180942937032945" lon="13.154989931068254"><ele>15.0</ele><time>2026-03-29T16:55:10.011Z</time></trkpt><trkpt lat="38.18098276985289" lon="13.154907253981039"><ele>15.0</ele><time>2026-03-29T16:55:14.009Z</time></trkpt><trkpt lat="38.18092494227505" lon="13.154964926372786"><ele>15.0</ele><time>2026-03-29T16:55:22.011Z</time></trkpt><trkpt lat="38.180886929678245" lon="13.155124164648305"><ele>15.0</ele><time>2026-03-29T16:55:39.008Z</time></trkpt><trkpt lat="38.18075886587505" lon="13.15532489791021"><ele>15.0</ele><time>2026-03-29T16:55:44.009Z</time></trkpt><trkpt lat="38.18085990122792" lon="13.155239566419851"><ele>15.0</ele><time>2026-03-29T16:56:05.996Z</time></trkpt><trkpt lat="38.18079431442594" lon="13.155288427905424"><ele>15.0</ele><time>2026-03-29T16:56:14.999Z</time></trkpt><trkpt lat="38.18072416190879" lon="13.15533030364823"><ele>15.0</ele><time>2026-03-29T16:56:16.999Z</time></trkpt><trkpt lat="38.18065278545164" lon="13.155361255399523"><ele>15.0</ele><time>2026-03-29T16:56:18.999Z</time></trkpt><trkpt lat="38.18056720102616" lon="13.15543348866924"><ele>15.0</ele><time>2026-03-29T16:56:21.999Z</time></trkpt><trkpt lat="38.1804872437883" lon="13.155462908993972"><ele>15.0</ele><time>2026-03-29T16:56:25.999Z</time></trkpt><trkpt lat="38.18043122055717" lon="13.155357690300342"><ele>15.0</ele><time>2026-03-29T16:56:32Z</time></trkpt><trkpt lat="38.180509995053775" lon="13.155295468993824"><ele>15.0</ele><time>2026-03-29T16:56:34Z</time></trkpt><trkpt lat="38.18059337667915" lon="13.155239395901772"><ele>15.0</ele><time>2026-03-29T16:56:35Z</time></trkpt><trkpt lat="38.18068929206954" lon="13.155181940009598"><ele>15.0</ele><time>2026-03-29T16:56:37Z</time></trkpt><trkpt lat="38.18079026842755" lon="13.155231143295204"><ele>15.0</ele><time>2026-03-29T16:57:41Z</time></trkpt><trkpt lat="38.18081686715047" lon="13.155327887223248"><ele>15.0</ele><time>2026-03-29T16:57:49Z</time></trkpt><trkpt lat="38.18086754620478" lon="13.155275831805827"><ele>15.0</ele><time>2026-03-29T16:58:36Z</time></trkpt><trkpt lat="38.180789484704384" lon="13.15529574585646"><ele>15.0</ele><time>2026-03-29T17:00:15Z</time></trkpt><trkpt lat="38.180851117621295" lon="13.155257012586665"><ele>15.0</ele><time>2026-03-29T17:01:11Z</time></trkpt><trkpt lat="38.18091061223955" lon="13.155230687326187"><ele>15.0</ele><time>2026-03-29T17:01:15Z</time></trkpt><trkpt lat="38.18084970681145" lon="13.155260455493314"><ele>15.0</ele><time>2026-03-29T17:01:35Z</time></trkpt><trkpt lat="38.18091601187837" lon="13.155244406670805"><ele>15.0</ele><time>2026-03-29T17:02:26.999Z</time></trkpt><trkpt lat="38.18091139839978" lon="13.155161102698763"><ele>15.0</ele><time>2026-03-29T17:02:40Z</time></trkpt><trkpt lat="38.18093206847663" lon="13.155241376280957"><ele>15.0</ele><time>2026-03-29T17:02:42Z</time></trkpt><trkpt lat="38.180875829102646" lon="13.155279277877536"><ele>15.0</ele><time>2026-03-29T17:02:48Z</time></trkpt><trkpt lat="38.180817297276874" lon="13.155237783934336"><ele>15.0</ele><time>2026-03-29T17:05:37Z</time></trkpt><trkpt lat="38.18077594170179" lon="13.15517455199578"><ele>15.0</ele><time>2026-03-29T17:05:59Z</time></trkpt><trkpt lat="38.1808146888645" lon="13.155244316288622"><ele>15.0</ele><time>2026-03-29T17:07:58Z</time></trkpt><trkpt lat="38.1811674880002" lon="13.155140619488563"><ele>15.0</ele><time>2026-03-29T17:10:38.042Z</time></trkpt><trkpt lat="38.180949478130636" lon="13.15528561768295"><ele>15.0</ele><time>2026-03-29T17:10:40.04Z</time></trkpt><trkpt lat="38.18075886587505" lon="13.15532489791021"><ele>15.0</ele><time>2026-03-29T17:10:57.007Z</time></trkpt><trkpt lat="38.18088912203719" lon="13.155239702692835"><ele>15.0</ele><time>2026-03-29T17:14:56.007Z</time></trkpt><trkpt lat="38.18075886587505" lon="13.15532489791021"><ele>15.0</ele><time>2026-03-29T17:15:02.006Z</time></trkpt><trkpt lat="38.18088912132353" lon="13.155239702790416"><ele>15.0</ele><time>2026-03-29T17:22:21.008Z</time></trkpt><trkpt lat="38.18075886587505" lon="13.15532489791021"><ele>15.0</ele><time>2026-03-29T17:22:45.008Z</time></trkpt><trkpt lat="38.180889121323524" lon="13.15523970279042"><ele>15.0</ele><time>2026-03-29T17:22:52.647Z</time></trkpt><trkpt lat="38.18075886587505" lon="13.15532489791021"><ele>15.0</ele><time>2026-03-29T17:24:11.007Z</time></trkpt><trkpt lat="38.18088912132352" lon="13.15523970279042"><ele>15.0</ele><time>2026-03-29T17:25:13.674Z</time></trkpt><trkpt lat="38.18075886587505" lon="13.15532489791021"><ele>15.0</ele><time>2026-03-29T17:25:25.008Z</time></trkpt><trkpt lat="38.18087428207268" lon="13.155238009546938"><ele>15.0</ele><time>2026-03-29T17:25:58.015Z</time></trkpt><trkpt lat="38.18081820420109" lon="13.155201404278703"><ele>15.0</ele><time>2026-03-29T17:26:09.013Z</time></trkpt><trkpt lat="38.180754292737475" lon="13.155098398452976"><ele>15.0</ele><time>2026-03-29T17:27:45.012Z</time></trkpt><trkpt lat="38.18075264399314" lon="13.154984653136882"><ele>15.0</ele><time>2026-03-29T17:27:56.011Z</time></trkpt><trkpt lat="38.18075879325491" lon="13.15509149261024"><ele>15.0</ele><time>2026-03-29T17:28:02.011Z</time></trkpt><trkpt lat="38.18075316280843" lon="13.154913812534819"><ele>15.0</ele><time>2026-03-29T17:29:48.008Z</time></trkpt></trkseg></trk></gpx>